<?xml version="1.0" encoding="UTF-8" standalone="no" ?>
<gpx xmlns="http://www.topografix.com/GPX/1/1" xmlns:xsi="http://www.w3.org/2001/XMLSchema-instance" xsi:schemaLocation="http://www.topografix.com/GPX/1/1 http://www.topografix.com/GPX/1/1/gpx.xsd" version="1.1" creator="VisuGPX - https://www.visugpx.com">
  <metadata>
    <name>voie verte + bretteville/laize + thury harcourt retour voie verte</name>
    <desc><![CDATA[Caen Thury harcourt en passant par bretteville sur laize, avec un vent de face pour le retour.]]></desc>
  </metadata>
  <trk>
    <name><![CDATA[voie verte + bretteville/laize + thury harcourt retour voie verte_1]]></name>
    <trkseg>
      <trkpt lat="49.18862" lon="-0.40129">
        <ele>52.4</ele>
        <time>2023-05-23T10:39:45Z</time>
      </trkpt>
      <trkpt lat="49.18863" lon="-0.40131">
        <ele>52.6</ele>
        <time>2023-05-23T10:58:13Z</time>
      </trkpt>
      <trkpt lat="49.18865" lon="-0.40133">
        <ele>52.6</ele>
        <time>2023-05-23T10:58:14Z</time>
      </trkpt>
      <trkpt lat="49.18866" lon="-0.40134">
        <ele>52.8</ele>
        <time>2023-05-23T10:58:15Z</time>
      </trkpt>
      <trkpt lat="49.18867" lon="-0.40134">
        <ele>52.8</ele>
        <time>2023-05-23T10:58:16Z</time>
      </trkpt>
      <trkpt lat="49.18868" lon="-0.40134">
        <ele>53</ele>
        <time>2023-05-23T10:58:17Z</time>
      </trkpt>
      <trkpt lat="49.18869" lon="-0.40132">
        <ele>53</ele>
        <time>2023-05-23T10:58:18Z</time>
      </trkpt>
      <trkpt lat="49.1887" lon="-0.40131">
        <ele>53</ele>
        <time>2023-05-23T10:58:19Z</time>
      </trkpt>
      <trkpt lat="49.1887" lon="-0.40129">
        <ele>53</ele>
        <time>2023-05-23T10:58:20Z</time>
      </trkpt>
      <trkpt lat="49.1887" lon="-0.40126">
        <ele>53</ele>
        <time>2023-05-23T10:58:21Z</time>
      </trkpt>
      <trkpt lat="49.18869" lon="-0.40123">
        <ele>52.8</ele>
        <time>2023-05-23T10:58:22Z</time>
      </trkpt>
      <trkpt lat="49.18868" lon="-0.4012">
        <ele>52.8</ele>
        <time>2023-05-23T10:58:23Z</time>
      </trkpt>
      <trkpt lat="49.18867" lon="-0.40117">
        <ele>52.6</ele>
        <time>2023-05-23T10:58:24Z</time>
      </trkpt>
      <trkpt lat="49.18865" lon="-0.40114">
        <ele>52.6</ele>
        <time>2023-05-23T10:58:25Z</time>
      </trkpt>
      <trkpt lat="49.18864" lon="-0.4011">
        <ele>52.4</ele>
        <time>2023-05-23T10:58:26Z</time>
      </trkpt>
      <trkpt lat="49.18863" lon="-0.40105">
        <ele>52.2</ele>
        <time>2023-05-23T10:58:27Z</time>
      </trkpt>
      <trkpt lat="49.18863" lon="-0.401">
        <ele>52.2</ele>
        <time>2023-05-23T10:58:28Z</time>
      </trkpt>
      <trkpt lat="49.18863" lon="-0.40096">
        <ele>52.2</ele>
        <time>2023-05-23T10:58:29Z</time>
      </trkpt>
      <trkpt lat="49.18864" lon="-0.40093">
        <ele>52.2</ele>
        <time>2023-05-23T10:58:30Z</time>
      </trkpt>
      <trkpt lat="49.18865" lon="-0.40091">
        <ele>52.2</ele>
        <time>2023-05-23T10:58:31Z</time>
      </trkpt>
      <trkpt lat="49.18866" lon="-0.40091">
        <ele>52.4</ele>
        <time>2023-05-23T10:58:32Z</time>
      </trkpt>
      <trkpt lat="49.18867" lon="-0.40091">
        <ele>52.6</ele>
        <time>2023-05-23T10:58:33Z</time>
      </trkpt>
      <trkpt lat="49.18868" lon="-0.40091">
        <ele>52.6</ele>
        <time>2023-05-23T10:58:34Z</time>
      </trkpt>
      <trkpt lat="49.18869" lon="-0.40092">
        <ele>52.6</ele>
        <time>2023-05-23T10:58:35Z</time>
      </trkpt>
      <trkpt lat="49.1887" lon="-0.40093">
        <ele>52.8</ele>
        <time>2023-05-23T10:58:36Z</time>
      </trkpt>
      <trkpt lat="49.1887" lon="-0.40094">
        <ele>52.8</ele>
        <time>2023-05-23T10:58:37Z</time>
      </trkpt>
      <trkpt lat="49.18871" lon="-0.40095">
        <ele>52.8</ele>
        <time>2023-05-23T10:58:38Z</time>
      </trkpt>
      <trkpt lat="49.18872" lon="-0.40096">
        <ele>53</ele>
        <time>2023-05-23T10:58:39Z</time>
      </trkpt>
      <trkpt lat="49.18872" lon="-0.40097">
        <ele>53</ele>
        <time>2023-05-23T10:58:40Z</time>
      </trkpt>
      <trkpt lat="49.18872" lon="-0.40097">
        <ele>53</ele>
        <time>2023-05-23T10:58:41Z</time>
      </trkpt>
      <trkpt lat="49.18872" lon="-0.40097">
        <ele>53</ele>
        <time>2023-05-23T10:58:42Z</time>
      </trkpt>
      <trkpt lat="49.18872" lon="-0.40097">
        <ele>53</ele>
        <time>2023-05-23T10:58:43Z</time>
      </trkpt>
      <trkpt lat="49.18872" lon="-0.40097">
        <ele>53</ele>
        <time>2023-05-23T10:58:44Z</time>
      </trkpt>
      <trkpt lat="49.18873" lon="-0.40098">
        <ele>53</ele>
        <time>2023-05-23T10:58:45Z</time>
      </trkpt>
      <trkpt lat="49.18873" lon="-0.40098">
        <ele>53</ele>
        <time>2023-05-23T10:58:46Z</time>
      </trkpt>
      <trkpt lat="49.18874" lon="-0.401">
        <ele>53</ele>
        <time>2023-05-23T10:58:47Z</time>
      </trkpt>
      <trkpt lat="49.18875" lon="-0.40101">
        <ele>53</ele>
        <time>2023-05-23T10:58:48Z</time>
      </trkpt>
      <trkpt lat="49.18876" lon="-0.40102">
        <ele>53.2</ele>
        <time>2023-05-23T10:58:49Z</time>
      </trkpt>
      <trkpt lat="49.18877" lon="-0.40103">
        <ele>53.2</ele>
        <time>2023-05-23T10:58:50Z</time>
      </trkpt>
      <trkpt lat="49.18878" lon="-0.40104">
        <ele>53.2</ele>
        <time>2023-05-23T10:58:51Z</time>
      </trkpt>
      <trkpt lat="49.18878" lon="-0.40104">
        <ele>53.2</ele>
        <time>2023-05-23T10:58:52Z</time>
      </trkpt>
      <trkpt lat="49.18878" lon="-0.40104">
        <ele>53.2</ele>
        <time>2023-05-23T10:58:53Z</time>
      </trkpt>
      <trkpt lat="49.18878" lon="-0.40104">
        <ele>53.2</ele>
        <time>2023-05-23T10:58:54Z</time>
      </trkpt>
      <trkpt lat="49.18879" lon="-0.40104">
        <ele>53.4</ele>
        <time>2023-05-23T10:58:55Z</time>
      </trkpt>
      <trkpt lat="49.18879" lon="-0.40105">
        <ele>53.4</ele>
        <time>2023-05-23T10:58:56Z</time>
      </trkpt>
      <trkpt lat="49.1888" lon="-0.40106">
        <ele>53.6</ele>
        <time>2023-05-23T10:58:57Z</time>
      </trkpt>
      <trkpt lat="49.1888" lon="-0.40106">
        <ele>53.6</ele>
        <time>2023-05-23T10:58:58Z</time>
      </trkpt>
      <trkpt lat="49.1888" lon="-0.40106">
        <ele>53.6</ele>
        <time>2023-05-23T10:58:59Z</time>
      </trkpt>
      <trkpt lat="49.18881" lon="-0.40106">
        <ele>53.6</ele>
        <time>2023-05-23T10:59:00Z</time>
      </trkpt>
      <trkpt lat="49.18881" lon="-0.40106">
        <ele>53.6</ele>
        <time>2023-05-23T10:59:01Z</time>
      </trkpt>
      <trkpt lat="49.18881" lon="-0.40106">
        <ele>53.6</ele>
        <time>2023-05-23T10:59:02Z</time>
      </trkpt>
      <trkpt lat="49.18881" lon="-0.40106">
        <ele>53.6</ele>
        <time>2023-05-23T10:59:03Z</time>
      </trkpt>
      <trkpt lat="49.18881" lon="-0.40107">
        <ele>53.6</ele>
        <time>2023-05-23T10:59:04Z</time>
      </trkpt>
      <trkpt lat="49.18881" lon="-0.40108">
        <ele>53.6</ele>
        <time>2023-05-23T10:59:05Z</time>
      </trkpt>
      <trkpt lat="49.18881" lon="-0.40109">
        <ele>53.6</ele>
        <time>2023-05-23T10:59:06Z</time>
      </trkpt>
      <trkpt lat="49.18881" lon="-0.4011">
        <ele>53.6</ele>
        <time>2023-05-23T10:59:07Z</time>
      </trkpt>
      <trkpt lat="49.18881" lon="-0.40113">
        <ele>53.6</ele>
        <time>2023-05-23T10:59:08Z</time>
      </trkpt>
      <trkpt lat="49.18881" lon="-0.40116">
        <ele>53.6</ele>
        <time>2023-05-23T10:59:09Z</time>
      </trkpt>
      <trkpt lat="49.1888" lon="-0.40121">
        <ele>53.6</ele>
        <time>2023-05-23T10:59:10Z</time>
      </trkpt>
      <trkpt lat="49.18879" lon="-0.40127">
        <ele>53.6</ele>
        <time>2023-05-23T10:59:11Z</time>
      </trkpt>
      <trkpt lat="49.18877" lon="-0.40136">
        <ele>53.4</ele>
        <time>2023-05-23T10:59:12Z</time>
      </trkpt>
      <trkpt lat="49.18875" lon="-0.40144">
        <ele>53.4</ele>
        <time>2023-05-23T10:59:13Z</time>
      </trkpt>
      <trkpt lat="49.18874" lon="-0.40153">
        <ele>53.4</ele>
        <time>2023-05-23T10:59:14Z</time>
      </trkpt>
      <trkpt lat="49.18874" lon="-0.40161">
        <ele>53.4</ele>
        <time>2023-05-23T10:59:15Z</time>
      </trkpt>
      <trkpt lat="49.18873" lon="-0.40169">
        <ele>53.4</ele>
        <time>2023-05-23T10:59:16Z</time>
      </trkpt>
      <trkpt lat="49.18871" lon="-0.40178">
        <ele>53.6</ele>
        <time>2023-05-23T10:59:17Z</time>
      </trkpt>
      <trkpt lat="49.1887" lon="-0.40186">
        <ele>53.8</ele>
        <time>2023-05-23T10:59:18Z</time>
      </trkpt>
      <trkpt lat="49.1887" lon="-0.40194">
        <ele>53.8</ele>
        <time>2023-05-23T10:59:19Z</time>
      </trkpt>
      <trkpt lat="49.18869" lon="-0.40201">
        <ele>54</ele>
        <time>2023-05-23T10:59:20Z</time>
      </trkpt>
      <trkpt lat="49.18869" lon="-0.40208">
        <ele>54</ele>
        <time>2023-05-23T10:59:21Z</time>
      </trkpt>
      <trkpt lat="49.18869" lon="-0.40214">
        <ele>54.2</ele>
        <time>2023-05-23T10:59:22Z</time>
      </trkpt>
      <trkpt lat="49.18869" lon="-0.4022">
        <ele>54.4</ele>
        <time>2023-05-23T10:59:23Z</time>
      </trkpt>
      <trkpt lat="49.18869" lon="-0.40227">
        <ele>54.6</ele>
        <time>2023-05-23T10:59:24Z</time>
      </trkpt>
      <trkpt lat="49.18869" lon="-0.40233">
        <ele>54.8</ele>
        <time>2023-05-23T10:59:25Z</time>
      </trkpt>
      <trkpt lat="49.18869" lon="-0.4024">
        <ele>55</ele>
        <time>2023-05-23T10:59:26Z</time>
      </trkpt>
      <trkpt lat="49.18868" lon="-0.40247">
        <ele>55</ele>
        <time>2023-05-23T10:59:27Z</time>
      </trkpt>
      <trkpt lat="49.18867" lon="-0.40254">
        <ele>55</ele>
        <time>2023-05-23T10:59:28Z</time>
      </trkpt>
      <trkpt lat="49.18867" lon="-0.40261">
        <ele>55.2</ele>
        <time>2023-05-23T10:59:29Z</time>
      </trkpt>
      <trkpt lat="49.18866" lon="-0.40268">
        <ele>55.4</ele>
        <time>2023-05-23T10:59:30Z</time>
      </trkpt>
      <trkpt lat="49.18865" lon="-0.40276">
        <ele>55.6</ele>
        <time>2023-05-23T10:59:31Z</time>
      </trkpt>
      <trkpt lat="49.18865" lon="-0.40283">
        <ele>55.8</ele>
        <time>2023-05-23T10:59:32Z</time>
      </trkpt>
      <trkpt lat="49.18864" lon="-0.4029">
        <ele>55.8</ele>
        <time>2023-05-23T10:59:33Z</time>
      </trkpt>
      <trkpt lat="49.18863" lon="-0.40298">
        <ele>56</ele>
        <time>2023-05-23T10:59:34Z</time>
      </trkpt>
      <trkpt lat="49.18863" lon="-0.40305">
        <ele>56</ele>
        <time>2023-05-23T10:59:35Z</time>
      </trkpt>
      <trkpt lat="49.18862" lon="-0.40312">
        <ele>56.2</ele>
        <time>2023-05-23T10:59:36Z</time>
      </trkpt>
      <trkpt lat="49.18861" lon="-0.4032">
        <ele>56.4</ele>
        <time>2023-05-23T10:59:37Z</time>
      </trkpt>
      <trkpt lat="49.18861" lon="-0.40327">
        <ele>56.6</ele>
        <time>2023-05-23T10:59:38Z</time>
      </trkpt>
      <trkpt lat="49.1886" lon="-0.40334">
        <ele>56.6</ele>
        <time>2023-05-23T10:59:39Z</time>
      </trkpt>
      <trkpt lat="49.1886" lon="-0.40341">
        <ele>56.8</ele>
        <time>2023-05-23T10:59:40Z</time>
      </trkpt>
      <trkpt lat="49.18859" lon="-0.40349">
        <ele>56.8</ele>
        <time>2023-05-23T10:59:41Z</time>
      </trkpt>
      <trkpt lat="49.18858" lon="-0.40356">
        <ele>56.8</ele>
        <time>2023-05-23T10:59:42Z</time>
      </trkpt>
      <trkpt lat="49.18857" lon="-0.40363">
        <ele>57</ele>
        <time>2023-05-23T10:59:43Z</time>
      </trkpt>
      <trkpt lat="49.18857" lon="-0.4037">
        <ele>57</ele>
        <time>2023-05-23T10:59:44Z</time>
      </trkpt>
      <trkpt lat="49.18856" lon="-0.40377">
        <ele>57</ele>
        <time>2023-05-23T10:59:45Z</time>
      </trkpt>
      <trkpt lat="49.18855" lon="-0.40384">
        <ele>57</ele>
        <time>2023-05-23T10:59:46Z</time>
      </trkpt>
      <trkpt lat="49.18854" lon="-0.40392">
        <ele>57</ele>
        <time>2023-05-23T10:59:47Z</time>
      </trkpt>
      <trkpt lat="49.18854" lon="-0.40399">
        <ele>57.2</ele>
        <time>2023-05-23T10:59:48Z</time>
      </trkpt>
      <trkpt lat="49.18853" lon="-0.40407">
        <ele>57.2</ele>
        <time>2023-05-23T10:59:49Z</time>
      </trkpt>
      <trkpt lat="49.18852" lon="-0.40415">
        <ele>57.2</ele>
        <time>2023-05-23T10:59:50Z</time>
      </trkpt>
      <trkpt lat="49.18851" lon="-0.40422">
        <ele>57.6</ele>
        <time>2023-05-23T10:59:51Z</time>
      </trkpt>
      <trkpt lat="49.1885" lon="-0.4043">
        <ele>57.8</ele>
        <time>2023-05-23T10:59:52Z</time>
      </trkpt>
      <trkpt lat="49.1885" lon="-0.40438">
        <ele>58</ele>
        <time>2023-05-23T10:59:53Z</time>
      </trkpt>
      <trkpt lat="49.18849" lon="-0.40445">
        <ele>58</ele>
        <time>2023-05-23T10:59:54Z</time>
      </trkpt>
      <trkpt lat="49.18848" lon="-0.40453">
        <ele>58.2</ele>
        <time>2023-05-23T10:59:55Z</time>
      </trkpt>
      <trkpt lat="49.18847" lon="-0.40461">
        <ele>58.6</ele>
        <time>2023-05-23T10:59:56Z</time>
      </trkpt>
      <trkpt lat="49.18846" lon="-0.40468">
        <ele>58.8</ele>
        <time>2023-05-23T10:59:57Z</time>
      </trkpt>
      <trkpt lat="49.18846" lon="-0.40476">
        <ele>59</ele>
        <time>2023-05-23T10:59:58Z</time>
      </trkpt>
      <trkpt lat="49.18845" lon="-0.40483">
        <ele>59</ele>
        <time>2023-05-23T10:59:59Z</time>
      </trkpt>
      <trkpt lat="49.18844" lon="-0.40491">
        <ele>59.2</ele>
        <time>2023-05-23T11:00:00Z</time>
      </trkpt>
      <trkpt lat="49.18843" lon="-0.40498">
        <ele>59.6</ele>
        <time>2023-05-23T11:00:01Z</time>
      </trkpt>
      <trkpt lat="49.18842" lon="-0.40505">
        <ele>59.6</ele>
        <time>2023-05-23T11:00:02Z</time>
      </trkpt>
      <trkpt lat="49.18841" lon="-0.40512">
        <ele>59.6</ele>
        <time>2023-05-23T11:00:03Z</time>
      </trkpt>
      <trkpt lat="49.18841" lon="-0.40519">
        <ele>59.6</ele>
        <time>2023-05-23T11:00:04Z</time>
      </trkpt>
      <trkpt lat="49.1884" lon="-0.40526">
        <ele>59.4</ele>
        <time>2023-05-23T11:00:05Z</time>
      </trkpt>
      <trkpt lat="49.18839" lon="-0.40533">
        <ele>59.4</ele>
        <time>2023-05-23T11:00:06Z</time>
      </trkpt>
      <trkpt lat="49.18838" lon="-0.40539">
        <ele>59.2</ele>
        <time>2023-05-23T11:00:07Z</time>
      </trkpt>
      <trkpt lat="49.18837" lon="-0.40545">
        <ele>59.2</ele>
        <time>2023-05-23T11:00:08Z</time>
      </trkpt>
      <trkpt lat="49.18837" lon="-0.40552">
        <ele>59.2</ele>
        <time>2023-05-23T11:00:09Z</time>
      </trkpt>
      <trkpt lat="49.18836" lon="-0.40558">
        <ele>59.2</ele>
        <time>2023-05-23T11:00:10Z</time>
      </trkpt>
      <trkpt lat="49.18835" lon="-0.40564">
        <ele>59</ele>
        <time>2023-05-23T11:00:11Z</time>
      </trkpt>
      <trkpt lat="49.18833" lon="-0.4057">
        <ele>59</ele>
        <time>2023-05-23T11:00:12Z</time>
      </trkpt>
      <trkpt lat="49.18831" lon="-0.40576">
        <ele>59</ele>
        <time>2023-05-23T11:00:13Z</time>
      </trkpt>
      <trkpt lat="49.18829" lon="-0.40581">
        <ele>58.8</ele>
        <time>2023-05-23T11:00:14Z</time>
      </trkpt>
      <trkpt lat="49.18826" lon="-0.40585">
        <ele>58.6</ele>
        <time>2023-05-23T11:00:15Z</time>
      </trkpt>
      <trkpt lat="49.18822" lon="-0.40588">
        <ele>58.4</ele>
        <time>2023-05-23T11:00:16Z</time>
      </trkpt>
      <trkpt lat="49.18817" lon="-0.40588">
        <ele>58</ele>
        <time>2023-05-23T11:00:17Z</time>
      </trkpt>
      <trkpt lat="49.18811" lon="-0.40588">
        <ele>57.8</ele>
        <time>2023-05-23T11:00:18Z</time>
      </trkpt>
      <trkpt lat="49.18806" lon="-0.40587">
        <ele>57.4</ele>
        <time>2023-05-23T11:00:19Z</time>
      </trkpt>
      <trkpt lat="49.188" lon="-0.40587">
        <ele>57</ele>
        <time>2023-05-23T11:00:20Z</time>
      </trkpt>
      <trkpt lat="49.18794" lon="-0.40588">
        <ele>56.8</ele>
        <time>2023-05-23T11:00:21Z</time>
      </trkpt>
      <trkpt lat="49.1879" lon="-0.40588">
        <ele>56.6</ele>
        <time>2023-05-23T11:00:22Z</time>
      </trkpt>
      <trkpt lat="49.18786" lon="-0.40589">
        <ele>56.2</ele>
        <time>2023-05-23T11:00:23Z</time>
      </trkpt>
      <trkpt lat="49.18782" lon="-0.40589">
        <ele>56</ele>
        <time>2023-05-23T11:00:24Z</time>
      </trkpt>
      <trkpt lat="49.18779" lon="-0.40589">
        <ele>55.8</ele>
        <time>2023-05-23T11:00:25Z</time>
      </trkpt>
      <trkpt lat="49.18776" lon="-0.40588">
        <ele>55.8</ele>
        <time>2023-05-23T11:00:26Z</time>
      </trkpt>
      <trkpt lat="49.18774" lon="-0.40586">
        <ele>55.6</ele>
        <time>2023-05-23T11:00:27Z</time>
      </trkpt>
      <trkpt lat="49.18773" lon="-0.40581">
        <ele>55.2</ele>
        <time>2023-05-23T11:00:28Z</time>
      </trkpt>
      <trkpt lat="49.18771" lon="-0.40575">
        <ele>55.2</ele>
        <time>2023-05-23T11:00:29Z</time>
      </trkpt>
      <trkpt lat="49.1877" lon="-0.40567">
        <ele>55</ele>
        <time>2023-05-23T11:00:30Z</time>
      </trkpt>
      <trkpt lat="49.18769" lon="-0.40559">
        <ele>55</ele>
        <time>2023-05-23T11:00:31Z</time>
      </trkpt>
      <trkpt lat="49.18767" lon="-0.4055">
        <ele>54.8</ele>
        <time>2023-05-23T11:00:32Z</time>
      </trkpt>
      <trkpt lat="49.18766" lon="-0.40542">
        <ele>54.6</ele>
        <time>2023-05-23T11:00:33Z</time>
      </trkpt>
      <trkpt lat="49.18764" lon="-0.40533">
        <ele>54.2</ele>
        <time>2023-05-23T11:00:34Z</time>
      </trkpt>
      <trkpt lat="49.18762" lon="-0.40523">
        <ele>54</ele>
        <time>2023-05-23T11:00:35Z</time>
      </trkpt>
      <trkpt lat="49.1876" lon="-0.40514">
        <ele>54</ele>
        <time>2023-05-23T11:00:36Z</time>
      </trkpt>
      <trkpt lat="49.18758" lon="-0.40504">
        <ele>53.6</ele>
        <time>2023-05-23T11:00:37Z</time>
      </trkpt>
      <trkpt lat="49.18756" lon="-0.40494">
        <ele>53.2</ele>
        <time>2023-05-23T11:00:38Z</time>
      </trkpt>
      <trkpt lat="49.18754" lon="-0.40484">
        <ele>53</ele>
        <time>2023-05-23T11:00:39Z</time>
      </trkpt>
      <trkpt lat="49.18752" lon="-0.40475">
        <ele>52.6</ele>
        <time>2023-05-23T11:00:40Z</time>
      </trkpt>
      <trkpt lat="49.18749" lon="-0.40464">
        <ele>52</ele>
        <time>2023-05-23T11:00:41Z</time>
      </trkpt>
      <trkpt lat="49.18747" lon="-0.40454">
        <ele>51.8</ele>
        <time>2023-05-23T11:00:42Z</time>
      </trkpt>
      <trkpt lat="49.18745" lon="-0.40445">
        <ele>51.4</ele>
        <time>2023-05-23T11:00:43Z</time>
      </trkpt>
      <trkpt lat="49.18743" lon="-0.40435">
        <ele>51</ele>
        <time>2023-05-23T11:00:44Z</time>
      </trkpt>
      <trkpt lat="49.1874" lon="-0.40425">
        <ele>50.8</ele>
        <time>2023-05-23T11:00:45Z</time>
      </trkpt>
      <trkpt lat="49.18738" lon="-0.40415">
        <ele>50.4</ele>
        <time>2023-05-23T11:00:46Z</time>
      </trkpt>
      <trkpt lat="49.18736" lon="-0.40406">
        <ele>50</ele>
        <time>2023-05-23T11:00:47Z</time>
      </trkpt>
      <trkpt lat="49.18733" lon="-0.40397">
        <ele>49.8</ele>
        <time>2023-05-23T11:00:48Z</time>
      </trkpt>
      <trkpt lat="49.1873" lon="-0.4039">
        <ele>49.6</ele>
        <time>2023-05-23T11:00:49Z</time>
      </trkpt>
      <trkpt lat="49.18727" lon="-0.40384">
        <ele>49.2</ele>
        <time>2023-05-23T11:00:50Z</time>
      </trkpt>
      <trkpt lat="49.18723" lon="-0.4038">
        <ele>49</ele>
        <time>2023-05-23T11:00:51Z</time>
      </trkpt>
      <trkpt lat="49.1872" lon="-0.40378">
        <ele>48.8</ele>
        <time>2023-05-23T11:00:52Z</time>
      </trkpt>
      <trkpt lat="49.18716" lon="-0.40379">
        <ele>48.6</ele>
        <time>2023-05-23T11:00:53Z</time>
      </trkpt>
      <trkpt lat="49.18712" lon="-0.40381">
        <ele>48.6</ele>
        <time>2023-05-23T11:00:54Z</time>
      </trkpt>
      <trkpt lat="49.18708" lon="-0.40384">
        <ele>48.4</ele>
        <time>2023-05-23T11:00:55Z</time>
      </trkpt>
      <trkpt lat="49.18704" lon="-0.40388">
        <ele>48.2</ele>
        <time>2023-05-23T11:00:56Z</time>
      </trkpt>
      <trkpt lat="49.18699" lon="-0.40392">
        <ele>48.2</ele>
        <time>2023-05-23T11:00:57Z</time>
      </trkpt>
      <trkpt lat="49.18695" lon="-0.40396">
        <ele>48</ele>
        <time>2023-05-23T11:00:58Z</time>
      </trkpt>
      <trkpt lat="49.18691" lon="-0.404">
        <ele>48</ele>
        <time>2023-05-23T11:00:59Z</time>
      </trkpt>
      <trkpt lat="49.18686" lon="-0.40405">
        <ele>47.8</ele>
        <time>2023-05-23T11:01:00Z</time>
      </trkpt>
      <trkpt lat="49.18682" lon="-0.40409">
        <ele>47.6</ele>
        <time>2023-05-23T11:01:01Z</time>
      </trkpt>
      <trkpt lat="49.18677" lon="-0.40414">
        <ele>47.6</ele>
        <time>2023-05-23T11:01:02Z</time>
      </trkpt>
      <trkpt lat="49.18672" lon="-0.4042">
        <ele>47.2</ele>
        <time>2023-05-23T11:01:03Z</time>
      </trkpt>
      <trkpt lat="49.18667" lon="-0.40425">
        <ele>47</ele>
        <time>2023-05-23T11:01:04Z</time>
      </trkpt>
      <trkpt lat="49.18661" lon="-0.40431">
        <ele>46.8</ele>
        <time>2023-05-23T11:01:05Z</time>
      </trkpt>
      <trkpt lat="49.18656" lon="-0.40437">
        <ele>46.4</ele>
        <time>2023-05-23T11:01:06Z</time>
      </trkpt>
      <trkpt lat="49.18651" lon="-0.40443">
        <ele>46.2</ele>
        <time>2023-05-23T11:01:07Z</time>
      </trkpt>
      <trkpt lat="49.18645" lon="-0.40449">
        <ele>46</ele>
        <time>2023-05-23T11:01:08Z</time>
      </trkpt>
      <trkpt lat="49.1864" lon="-0.40455">
        <ele>45.8</ele>
        <time>2023-05-23T11:01:09Z</time>
      </trkpt>
      <trkpt lat="49.18634" lon="-0.40461">
        <ele>45.6</ele>
        <time>2023-05-23T11:01:10Z</time>
      </trkpt>
      <trkpt lat="49.18628" lon="-0.40467">
        <ele>45.2</ele>
        <time>2023-05-23T11:01:11Z</time>
      </trkpt>
      <trkpt lat="49.18623" lon="-0.40474">
        <ele>45</ele>
        <time>2023-05-23T11:01:12Z</time>
      </trkpt>
      <trkpt lat="49.18617" lon="-0.4048">
        <ele>45</ele>
        <time>2023-05-23T11:01:13Z</time>
      </trkpt>
      <trkpt lat="49.18611" lon="-0.40486">
        <ele>44.8</ele>
        <time>2023-05-23T11:01:14Z</time>
      </trkpt>
      <trkpt lat="49.18605" lon="-0.40493">
        <ele>44.6</ele>
        <time>2023-05-23T11:01:15Z</time>
      </trkpt>
      <trkpt lat="49.186" lon="-0.40499">
        <ele>44.4</ele>
        <time>2023-05-23T11:01:16Z</time>
      </trkpt>
      <trkpt lat="49.18594" lon="-0.40506">
        <ele>44.2</ele>
        <time>2023-05-23T11:01:17Z</time>
      </trkpt>
      <trkpt lat="49.18588" lon="-0.40513">
        <ele>44.2</ele>
        <time>2023-05-23T11:01:18Z</time>
      </trkpt>
      <trkpt lat="49.18583" lon="-0.4052">
        <ele>44.2</ele>
        <time>2023-05-23T11:01:19Z</time>
      </trkpt>
      <trkpt lat="49.18578" lon="-0.40527">
        <ele>44.2</ele>
        <time>2023-05-23T11:01:20Z</time>
      </trkpt>
      <trkpt lat="49.18572" lon="-0.40534">
        <ele>44.2</ele>
        <time>2023-05-23T11:01:21Z</time>
      </trkpt>
      <trkpt lat="49.18567" lon="-0.4054">
        <ele>44.2</ele>
        <time>2023-05-23T11:01:22Z</time>
      </trkpt>
      <trkpt lat="49.18562" lon="-0.40547">
        <ele>44.2</ele>
        <time>2023-05-23T11:01:23Z</time>
      </trkpt>
      <trkpt lat="49.18557" lon="-0.40554">
        <ele>44.2</ele>
        <time>2023-05-23T11:01:24Z</time>
      </trkpt>
      <trkpt lat="49.18551" lon="-0.40561">
        <ele>44.2</ele>
        <time>2023-05-23T11:01:25Z</time>
      </trkpt>
      <trkpt lat="49.18546" lon="-0.40568">
        <ele>44.2</ele>
        <time>2023-05-23T11:01:26Z</time>
      </trkpt>
      <trkpt lat="49.18541" lon="-0.40574">
        <ele>44.2</ele>
        <time>2023-05-23T11:01:27Z</time>
      </trkpt>
      <trkpt lat="49.18537" lon="-0.4058">
        <ele>44.4</ele>
        <time>2023-05-23T11:01:28Z</time>
      </trkpt>
      <trkpt lat="49.18534" lon="-0.40585">
        <ele>44.4</ele>
        <time>2023-05-23T11:01:29Z</time>
      </trkpt>
      <trkpt lat="49.18531" lon="-0.40588">
        <ele>44.2</ele>
        <time>2023-05-23T11:01:30Z</time>
      </trkpt>
      <trkpt lat="49.18528" lon="-0.40589">
        <ele>44.2</ele>
        <time>2023-05-23T11:01:31Z</time>
      </trkpt>
      <trkpt lat="49.18525" lon="-0.40588">
        <ele>44.2</ele>
        <time>2023-05-23T11:01:32Z</time>
      </trkpt>
      <trkpt lat="49.18521" lon="-0.40585">
        <ele>44.2</ele>
        <time>2023-05-23T11:01:33Z</time>
      </trkpt>
      <trkpt lat="49.18518" lon="-0.40581">
        <ele>44.2</ele>
        <time>2023-05-23T11:01:34Z</time>
      </trkpt>
      <trkpt lat="49.18514" lon="-0.40576">
        <ele>44</ele>
        <time>2023-05-23T11:01:35Z</time>
      </trkpt>
      <trkpt lat="49.1851" lon="-0.4057">
        <ele>43.8</ele>
        <time>2023-05-23T11:01:36Z</time>
      </trkpt>
      <trkpt lat="49.18506" lon="-0.40564">
        <ele>43.6</ele>
        <time>2023-05-23T11:01:37Z</time>
      </trkpt>
      <trkpt lat="49.18502" lon="-0.40558">
        <ele>43.4</ele>
        <time>2023-05-23T11:01:38Z</time>
      </trkpt>
      <trkpt lat="49.18497" lon="-0.40552">
        <ele>43.2</ele>
        <time>2023-05-23T11:01:39Z</time>
      </trkpt>
      <trkpt lat="49.18493" lon="-0.40546">
        <ele>43</ele>
        <time>2023-05-23T11:01:40Z</time>
      </trkpt>
      <trkpt lat="49.18489" lon="-0.40539">
        <ele>42.8</ele>
        <time>2023-05-23T11:01:41Z</time>
      </trkpt>
      <trkpt lat="49.18484" lon="-0.40533">
        <ele>42.6</ele>
        <time>2023-05-23T11:01:42Z</time>
      </trkpt>
      <trkpt lat="49.18479" lon="-0.40526">
        <ele>42.4</ele>
        <time>2023-05-23T11:01:43Z</time>
      </trkpt>
      <trkpt lat="49.18475" lon="-0.40519">
        <ele>42.2</ele>
        <time>2023-05-23T11:01:44Z</time>
      </trkpt>
      <trkpt lat="49.1847" lon="-0.40513">
        <ele>42</ele>
        <time>2023-05-23T11:01:45Z</time>
      </trkpt>
      <trkpt lat="49.18466" lon="-0.40506">
        <ele>42</ele>
        <time>2023-05-23T11:01:46Z</time>
      </trkpt>
      <trkpt lat="49.18461" lon="-0.40499">
        <ele>42</ele>
        <time>2023-05-23T11:01:47Z</time>
      </trkpt>
      <trkpt lat="49.18456" lon="-0.40492">
        <ele>42</ele>
        <time>2023-05-23T11:01:48Z</time>
      </trkpt>
      <trkpt lat="49.1845" lon="-0.40487">
        <ele>42</ele>
        <time>2023-05-23T11:01:49Z</time>
      </trkpt>
      <trkpt lat="49.18445" lon="-0.40485">
        <ele>42</ele>
        <time>2023-05-23T11:01:50Z</time>
      </trkpt>
      <trkpt lat="49.18439" lon="-0.40486">
        <ele>42</ele>
        <time>2023-05-23T11:01:51Z</time>
      </trkpt>
      <trkpt lat="49.18433" lon="-0.40489">
        <ele>42</ele>
        <time>2023-05-23T11:01:52Z</time>
      </trkpt>
      <trkpt lat="49.18427" lon="-0.40494">
        <ele>42</ele>
        <time>2023-05-23T11:01:53Z</time>
      </trkpt>
      <trkpt lat="49.18421" lon="-0.40498">
        <ele>42</ele>
        <time>2023-05-23T11:01:54Z</time>
      </trkpt>
      <trkpt lat="49.18415" lon="-0.40503">
        <ele>42</ele>
        <time>2023-05-23T11:01:55Z</time>
      </trkpt>
      <trkpt lat="49.1841" lon="-0.40509">
        <ele>42</ele>
        <time>2023-05-23T11:01:56Z</time>
      </trkpt>
      <trkpt lat="49.18404" lon="-0.40514">
        <ele>42</ele>
        <time>2023-05-23T11:01:57Z</time>
      </trkpt>
      <trkpt lat="49.18398" lon="-0.4052">
        <ele>42</ele>
        <time>2023-05-23T11:01:58Z</time>
      </trkpt>
      <trkpt lat="49.18392" lon="-0.40525">
        <ele>42</ele>
        <time>2023-05-23T11:01:59Z</time>
      </trkpt>
      <trkpt lat="49.18386" lon="-0.40531">
        <ele>42</ele>
        <time>2023-05-23T11:02:00Z</time>
      </trkpt>
      <trkpt lat="49.1838" lon="-0.40536">
        <ele>42</ele>
        <time>2023-05-23T11:02:01Z</time>
      </trkpt>
      <trkpt lat="49.18374" lon="-0.40542">
        <ele>42</ele>
        <time>2023-05-23T11:02:02Z</time>
      </trkpt>
      <trkpt lat="49.18368" lon="-0.40547">
        <ele>42</ele>
        <time>2023-05-23T11:02:03Z</time>
      </trkpt>
      <trkpt lat="49.18361" lon="-0.40553">
        <ele>42.2</ele>
        <time>2023-05-23T11:02:04Z</time>
      </trkpt>
      <trkpt lat="49.18355" lon="-0.40558">
        <ele>42.2</ele>
        <time>2023-05-23T11:02:05Z</time>
      </trkpt>
      <trkpt lat="49.18349" lon="-0.40564">
        <ele>42.6</ele>
        <time>2023-05-23T11:02:06Z</time>
      </trkpt>
      <trkpt lat="49.18343" lon="-0.40569">
        <ele>42.6</ele>
        <time>2023-05-23T11:02:07Z</time>
      </trkpt>
      <trkpt lat="49.18337" lon="-0.40575">
        <ele>42.8</ele>
        <time>2023-05-23T11:02:08Z</time>
      </trkpt>
      <trkpt lat="49.18331" lon="-0.4058">
        <ele>43</ele>
        <time>2023-05-23T11:02:09Z</time>
      </trkpt>
      <trkpt lat="49.18325" lon="-0.40586">
        <ele>42.6</ele>
        <time>2023-05-23T11:02:10Z</time>
      </trkpt>
      <trkpt lat="49.18319" lon="-0.40592">
        <ele>42.2</ele>
        <time>2023-05-23T11:02:11Z</time>
      </trkpt>
      <trkpt lat="49.18314" lon="-0.40597">
        <ele>42</ele>
        <time>2023-05-23T11:02:12Z</time>
      </trkpt>
      <trkpt lat="49.18309" lon="-0.40602">
        <ele>41.8</ele>
        <time>2023-05-23T11:02:13Z</time>
      </trkpt>
      <trkpt lat="49.18305" lon="-0.40606">
        <ele>41.6</ele>
        <time>2023-05-23T11:02:14Z</time>
      </trkpt>
      <trkpt lat="49.18301" lon="-0.4061">
        <ele>41.2</ele>
        <time>2023-05-23T11:02:15Z</time>
      </trkpt>
      <trkpt lat="49.18299" lon="-0.40613">
        <ele>41.2</ele>
        <time>2023-05-23T11:02:16Z</time>
      </trkpt>
      <trkpt lat="49.18298" lon="-0.40614">
        <ele>41</ele>
        <time>2023-05-23T11:02:17Z</time>
      </trkpt>
      <trkpt lat="49.18296" lon="-0.40615">
        <ele>41</ele>
        <time>2023-05-23T11:02:18Z</time>
      </trkpt>
      <trkpt lat="49.18295" lon="-0.40616">
        <ele>41</ele>
        <time>2023-05-23T11:02:19Z</time>
      </trkpt>
      <trkpt lat="49.18293" lon="-0.40618">
        <ele>41</ele>
        <time>2023-05-23T11:02:20Z</time>
      </trkpt>
      <trkpt lat="49.1829" lon="-0.40619">
        <ele>40.8</ele>
        <time>2023-05-23T11:02:21Z</time>
      </trkpt>
      <trkpt lat="49.18286" lon="-0.40619">
        <ele>40.8</ele>
        <time>2023-05-23T11:02:22Z</time>
      </trkpt>
      <trkpt lat="49.18282" lon="-0.40616">
        <ele>40.6</ele>
        <time>2023-05-23T11:02:23Z</time>
      </trkpt>
      <trkpt lat="49.18279" lon="-0.4061">
        <ele>40.6</ele>
        <time>2023-05-23T11:02:24Z</time>
      </trkpt>
      <trkpt lat="49.18277" lon="-0.40603">
        <ele>40.8</ele>
        <time>2023-05-23T11:02:25Z</time>
      </trkpt>
      <trkpt lat="49.18274" lon="-0.40594">
        <ele>40.8</ele>
        <time>2023-05-23T11:02:26Z</time>
      </trkpt>
      <trkpt lat="49.18272" lon="-0.40586">
        <ele>40.8</ele>
        <time>2023-05-23T11:02:27Z</time>
      </trkpt>
      <trkpt lat="49.18269" lon="-0.40577">
        <ele>40.8</ele>
        <time>2023-05-23T11:02:28Z</time>
      </trkpt>
      <trkpt lat="49.18266" lon="-0.40569">
        <ele>40.8</ele>
        <time>2023-05-23T11:02:29Z</time>
      </trkpt>
      <trkpt lat="49.18263" lon="-0.4056">
        <ele>40.6</ele>
        <time>2023-05-23T11:02:30Z</time>
      </trkpt>
      <trkpt lat="49.18259" lon="-0.4055">
        <ele>40.6</ele>
        <time>2023-05-23T11:02:31Z</time>
      </trkpt>
      <trkpt lat="49.18257" lon="-0.40541">
        <ele>40.8</ele>
        <time>2023-05-23T11:02:32Z</time>
      </trkpt>
      <trkpt lat="49.18254" lon="-0.40532">
        <ele>40.8</ele>
        <time>2023-05-23T11:02:33Z</time>
      </trkpt>
      <trkpt lat="49.18251" lon="-0.40523">
        <ele>40.8</ele>
        <time>2023-05-23T11:02:34Z</time>
      </trkpt>
      <trkpt lat="49.18248" lon="-0.40513">
        <ele>40.8</ele>
        <time>2023-05-23T11:02:35Z</time>
      </trkpt>
      <trkpt lat="49.18246" lon="-0.40503">
        <ele>41</ele>
        <time>2023-05-23T11:02:36Z</time>
      </trkpt>
      <trkpt lat="49.18243" lon="-0.40493">
        <ele>40.8</ele>
        <time>2023-05-23T11:02:37Z</time>
      </trkpt>
      <trkpt lat="49.1824" lon="-0.40483">
        <ele>40.8</ele>
        <time>2023-05-23T11:02:38Z</time>
      </trkpt>
      <trkpt lat="49.18238" lon="-0.40473">
        <ele>40.8</ele>
        <time>2023-05-23T11:02:39Z</time>
      </trkpt>
      <trkpt lat="49.18236" lon="-0.40464">
        <ele>40.8</ele>
        <time>2023-05-23T11:02:40Z</time>
      </trkpt>
      <trkpt lat="49.18233" lon="-0.40454">
        <ele>40.6</ele>
        <time>2023-05-23T11:02:41Z</time>
      </trkpt>
      <trkpt lat="49.18231" lon="-0.40445">
        <ele>40.6</ele>
        <time>2023-05-23T11:02:42Z</time>
      </trkpt>
      <trkpt lat="49.18229" lon="-0.40436">
        <ele>40.6</ele>
        <time>2023-05-23T11:02:43Z</time>
      </trkpt>
      <trkpt lat="49.18227" lon="-0.40428">
        <ele>40.4</ele>
        <time>2023-05-23T11:02:44Z</time>
      </trkpt>
      <trkpt lat="49.18225" lon="-0.40419">
        <ele>40.4</ele>
        <time>2023-05-23T11:02:45Z</time>
      </trkpt>
      <trkpt lat="49.18223" lon="-0.40411">
        <ele>40.2</ele>
        <time>2023-05-23T11:02:46Z</time>
      </trkpt>
      <trkpt lat="49.18222" lon="-0.40403">
        <ele>40.2</ele>
        <time>2023-05-23T11:02:47Z</time>
      </trkpt>
      <trkpt lat="49.1822" lon="-0.40395">
        <ele>40</ele>
        <time>2023-05-23T11:02:48Z</time>
      </trkpt>
      <trkpt lat="49.18219" lon="-0.40387">
        <ele>40</ele>
        <time>2023-05-23T11:02:49Z</time>
      </trkpt>
      <trkpt lat="49.18217" lon="-0.40379">
        <ele>40</ele>
        <time>2023-05-23T11:02:50Z</time>
      </trkpt>
      <trkpt lat="49.18216" lon="-0.4037">
        <ele>40</ele>
        <time>2023-05-23T11:02:51Z</time>
      </trkpt>
      <trkpt lat="49.18214" lon="-0.40362">
        <ele>39.8</ele>
        <time>2023-05-23T11:02:52Z</time>
      </trkpt>
      <trkpt lat="49.18213" lon="-0.40353">
        <ele>39.8</ele>
        <time>2023-05-23T11:02:53Z</time>
      </trkpt>
      <trkpt lat="49.18211" lon="-0.40345">
        <ele>39.6</ele>
        <time>2023-05-23T11:02:54Z</time>
      </trkpt>
      <trkpt lat="49.18209" lon="-0.40336">
        <ele>39.6</ele>
        <time>2023-05-23T11:02:55Z</time>
      </trkpt>
      <trkpt lat="49.18207" lon="-0.40328">
        <ele>39.6</ele>
        <time>2023-05-23T11:02:56Z</time>
      </trkpt>
      <trkpt lat="49.18206" lon="-0.40319">
        <ele>39.4</ele>
        <time>2023-05-23T11:02:57Z</time>
      </trkpt>
      <trkpt lat="49.18204" lon="-0.4031">
        <ele>39.4</ele>
        <time>2023-05-23T11:02:58Z</time>
      </trkpt>
      <trkpt lat="49.18202" lon="-0.40301">
        <ele>39.2</ele>
        <time>2023-05-23T11:02:59Z</time>
      </trkpt>
      <trkpt lat="49.182" lon="-0.40292">
        <ele>39.2</ele>
        <time>2023-05-23T11:03:00Z</time>
      </trkpt>
      <trkpt lat="49.18198" lon="-0.40284">
        <ele>39.2</ele>
        <time>2023-05-23T11:03:01Z</time>
      </trkpt>
      <trkpt lat="49.18196" lon="-0.40275">
        <ele>39.2</ele>
        <time>2023-05-23T11:03:02Z</time>
      </trkpt>
      <trkpt lat="49.18194" lon="-0.40266">
        <ele>39.2</ele>
        <time>2023-05-23T11:03:03Z</time>
      </trkpt>
      <trkpt lat="49.18193" lon="-0.40257">
        <ele>39.4</ele>
        <time>2023-05-23T11:03:04Z</time>
      </trkpt>
      <trkpt lat="49.18191" lon="-0.40248">
        <ele>39.4</ele>
        <time>2023-05-23T11:03:05Z</time>
      </trkpt>
      <trkpt lat="49.18189" lon="-0.40239">
        <ele>39.4</ele>
        <time>2023-05-23T11:03:06Z</time>
      </trkpt>
      <trkpt lat="49.18187" lon="-0.40231">
        <ele>39.2</ele>
        <time>2023-05-23T11:03:07Z</time>
      </trkpt>
      <trkpt lat="49.18186" lon="-0.40222">
        <ele>39.2</ele>
        <time>2023-05-23T11:03:08Z</time>
      </trkpt>
      <trkpt lat="49.18185" lon="-0.40214">
        <ele>39.2</ele>
        <time>2023-05-23T11:03:09Z</time>
      </trkpt>
      <trkpt lat="49.18183" lon="-0.40206">
        <ele>39.2</ele>
        <time>2023-05-23T11:03:10Z</time>
      </trkpt>
      <trkpt lat="49.18182" lon="-0.40197">
        <ele>39</ele>
        <time>2023-05-23T11:03:11Z</time>
      </trkpt>
      <trkpt lat="49.18181" lon="-0.40189">
        <ele>39</ele>
        <time>2023-05-23T11:03:12Z</time>
      </trkpt>
      <trkpt lat="49.18178" lon="-0.40181">
        <ele>39</ele>
        <time>2023-05-23T11:03:13Z</time>
      </trkpt>
      <trkpt lat="49.18175" lon="-0.40173">
        <ele>39</ele>
        <time>2023-05-23T11:03:14Z</time>
      </trkpt>
      <trkpt lat="49.18171" lon="-0.40168">
        <ele>39</ele>
        <time>2023-05-23T11:03:15Z</time>
      </trkpt>
      <trkpt lat="49.18166" lon="-0.40166">
        <ele>39</ele>
        <time>2023-05-23T11:03:16Z</time>
      </trkpt>
      <trkpt lat="49.1816" lon="-0.40163">
        <ele>39.2</ele>
        <time>2023-05-23T11:03:17Z</time>
      </trkpt>
      <trkpt lat="49.18155" lon="-0.40159">
        <ele>39.2</ele>
        <time>2023-05-23T11:03:18Z</time>
      </trkpt>
      <trkpt lat="49.18151" lon="-0.40154">
        <ele>39.4</ele>
        <time>2023-05-23T11:03:19Z</time>
      </trkpt>
      <trkpt lat="49.18146" lon="-0.40148">
        <ele>39.4</ele>
        <time>2023-05-23T11:03:20Z</time>
      </trkpt>
      <trkpt lat="49.18142" lon="-0.40143">
        <ele>39.6</ele>
        <time>2023-05-23T11:03:21Z</time>
      </trkpt>
      <trkpt lat="49.18137" lon="-0.40137">
        <ele>39.6</ele>
        <time>2023-05-23T11:03:22Z</time>
      </trkpt>
      <trkpt lat="49.18133" lon="-0.40131">
        <ele>39.6</ele>
        <time>2023-05-23T11:03:23Z</time>
      </trkpt>
      <trkpt lat="49.18129" lon="-0.40126">
        <ele>39.8</ele>
        <time>2023-05-23T11:03:24Z</time>
      </trkpt>
      <trkpt lat="49.18125" lon="-0.40121">
        <ele>39.8</ele>
        <time>2023-05-23T11:03:25Z</time>
      </trkpt>
      <trkpt lat="49.18121" lon="-0.40117">
        <ele>39.8</ele>
        <time>2023-05-23T11:03:26Z</time>
      </trkpt>
      <trkpt lat="49.18118" lon="-0.40114">
        <ele>39.8</ele>
        <time>2023-05-23T11:03:27Z</time>
      </trkpt>
      <trkpt lat="49.18114" lon="-0.4011">
        <ele>39.8</ele>
        <time>2023-05-23T11:03:28Z</time>
      </trkpt>
      <trkpt lat="49.18111" lon="-0.40107">
        <ele>40</ele>
        <time>2023-05-23T11:03:29Z</time>
      </trkpt>
      <trkpt lat="49.18107" lon="-0.40103">
        <ele>40</ele>
        <time>2023-05-23T11:03:30Z</time>
      </trkpt>
      <trkpt lat="49.18104" lon="-0.40099">
        <ele>40</ele>
        <time>2023-05-23T11:03:31Z</time>
      </trkpt>
      <trkpt lat="49.181" lon="-0.40094">
        <ele>40</ele>
        <time>2023-05-23T11:03:32Z</time>
      </trkpt>
      <trkpt lat="49.18096" lon="-0.40089">
        <ele>40</ele>
        <time>2023-05-23T11:03:33Z</time>
      </trkpt>
      <trkpt lat="49.18091" lon="-0.40084">
        <ele>40</ele>
        <time>2023-05-23T11:03:34Z</time>
      </trkpt>
      <trkpt lat="49.18087" lon="-0.40079">
        <ele>40</ele>
        <time>2023-05-23T11:03:35Z</time>
      </trkpt>
      <trkpt lat="49.18083" lon="-0.40073">
        <ele>40</ele>
        <time>2023-05-23T11:03:36Z</time>
      </trkpt>
      <trkpt lat="49.18079" lon="-0.40068">
        <ele>40</ele>
        <time>2023-05-23T11:03:37Z</time>
      </trkpt>
      <trkpt lat="49.18074" lon="-0.40062">
        <ele>40</ele>
        <time>2023-05-23T11:03:38Z</time>
      </trkpt>
      <trkpt lat="49.1807" lon="-0.40057">
        <ele>40.2</ele>
        <time>2023-05-23T11:03:39Z</time>
      </trkpt>
      <trkpt lat="49.18065" lon="-0.40051">
        <ele>40.2</ele>
        <time>2023-05-23T11:03:40Z</time>
      </trkpt>
      <trkpt lat="49.18061" lon="-0.40046">
        <ele>40.2</ele>
        <time>2023-05-23T11:03:41Z</time>
      </trkpt>
      <trkpt lat="49.18056" lon="-0.4004">
        <ele>40.2</ele>
        <time>2023-05-23T11:03:42Z</time>
      </trkpt>
      <trkpt lat="49.18052" lon="-0.40035">
        <ele>40.4</ele>
        <time>2023-05-23T11:03:43Z</time>
      </trkpt>
      <trkpt lat="49.18047" lon="-0.40029">
        <ele>40.4</ele>
        <time>2023-05-23T11:03:44Z</time>
      </trkpt>
      <trkpt lat="49.18043" lon="-0.40024">
        <ele>40.6</ele>
        <time>2023-05-23T11:03:45Z</time>
      </trkpt>
      <trkpt lat="49.18038" lon="-0.40019">
        <ele>40.6</ele>
        <time>2023-05-23T11:03:46Z</time>
      </trkpt>
      <trkpt lat="49.18033" lon="-0.40013">
        <ele>40.6</ele>
        <time>2023-05-23T11:03:47Z</time>
      </trkpt>
      <trkpt lat="49.18029" lon="-0.40008">
        <ele>40.8</ele>
        <time>2023-05-23T11:03:48Z</time>
      </trkpt>
      <trkpt lat="49.18024" lon="-0.40003">
        <ele>40.8</ele>
        <time>2023-05-23T11:03:49Z</time>
      </trkpt>
      <trkpt lat="49.18019" lon="-0.39998">
        <ele>40.8</ele>
        <time>2023-05-23T11:03:50Z</time>
      </trkpt>
      <trkpt lat="49.18014" lon="-0.39993">
        <ele>40.8</ele>
        <time>2023-05-23T11:03:51Z</time>
      </trkpt>
      <trkpt lat="49.18009" lon="-0.39988">
        <ele>40.8</ele>
        <time>2023-05-23T11:03:52Z</time>
      </trkpt>
      <trkpt lat="49.18004" lon="-0.39983">
        <ele>40.8</ele>
        <time>2023-05-23T11:03:53Z</time>
      </trkpt>
      <trkpt lat="49.17999" lon="-0.39978">
        <ele>40.8</ele>
        <time>2023-05-23T11:03:54Z</time>
      </trkpt>
      <trkpt lat="49.17994" lon="-0.39973">
        <ele>40.8</ele>
        <time>2023-05-23T11:03:55Z</time>
      </trkpt>
      <trkpt lat="49.17989" lon="-0.39968">
        <ele>40.8</ele>
        <time>2023-05-23T11:03:56Z</time>
      </trkpt>
      <trkpt lat="49.17984" lon="-0.39963">
        <ele>40.8</ele>
        <time>2023-05-23T11:03:57Z</time>
      </trkpt>
      <trkpt lat="49.17978" lon="-0.39958">
        <ele>41</ele>
        <time>2023-05-23T11:03:58Z</time>
      </trkpt>
      <trkpt lat="49.17973" lon="-0.39954">
        <ele>41</ele>
        <time>2023-05-23T11:03:59Z</time>
      </trkpt>
      <trkpt lat="49.17968" lon="-0.39949">
        <ele>41</ele>
        <time>2023-05-23T11:04:00Z</time>
      </trkpt>
      <trkpt lat="49.17962" lon="-0.39944">
        <ele>41.2</ele>
        <time>2023-05-23T11:04:01Z</time>
      </trkpt>
      <trkpt lat="49.17957" lon="-0.3994">
        <ele>41.4</ele>
        <time>2023-05-23T11:04:02Z</time>
      </trkpt>
      <trkpt lat="49.17951" lon="-0.39936">
        <ele>41.6</ele>
        <time>2023-05-23T11:04:03Z</time>
      </trkpt>
      <trkpt lat="49.17946" lon="-0.39932">
        <ele>41.8</ele>
        <time>2023-05-23T11:04:04Z</time>
      </trkpt>
      <trkpt lat="49.17941" lon="-0.39928">
        <ele>42</ele>
        <time>2023-05-23T11:04:05Z</time>
      </trkpt>
      <trkpt lat="49.17935" lon="-0.39924">
        <ele>42.2</ele>
        <time>2023-05-23T11:04:06Z</time>
      </trkpt>
      <trkpt lat="49.1793" lon="-0.3992">
        <ele>42.6</ele>
        <time>2023-05-23T11:04:07Z</time>
      </trkpt>
      <trkpt lat="49.17924" lon="-0.39916">
        <ele>42.8</ele>
        <time>2023-05-23T11:04:08Z</time>
      </trkpt>
      <trkpt lat="49.17919" lon="-0.39912">
        <ele>43</ele>
        <time>2023-05-23T11:04:09Z</time>
      </trkpt>
      <trkpt lat="49.17913" lon="-0.39909">
        <ele>43</ele>
        <time>2023-05-23T11:04:10Z</time>
      </trkpt>
      <trkpt lat="49.17908" lon="-0.39905">
        <ele>43</ele>
        <time>2023-05-23T11:04:11Z</time>
      </trkpt>
      <trkpt lat="49.17902" lon="-0.39901">
        <ele>42.8</ele>
        <time>2023-05-23T11:04:12Z</time>
      </trkpt>
      <trkpt lat="49.17896" lon="-0.39897">
        <ele>42.8</ele>
        <time>2023-05-23T11:04:13Z</time>
      </trkpt>
      <trkpt lat="49.17891" lon="-0.39894">
        <ele>42.6</ele>
        <time>2023-05-23T11:04:14Z</time>
      </trkpt>
      <trkpt lat="49.17885" lon="-0.3989">
        <ele>42.4</ele>
        <time>2023-05-23T11:04:15Z</time>
      </trkpt>
      <trkpt lat="49.17879" lon="-0.39886">
        <ele>42.2</ele>
        <time>2023-05-23T11:04:16Z</time>
      </trkpt>
      <trkpt lat="49.17874" lon="-0.39882">
        <ele>42.2</ele>
        <time>2023-05-23T11:04:17Z</time>
      </trkpt>
      <trkpt lat="49.17869" lon="-0.39878">
        <ele>42</ele>
        <time>2023-05-23T11:04:18Z</time>
      </trkpt>
      <trkpt lat="49.17863" lon="-0.39875">
        <ele>42</ele>
        <time>2023-05-23T11:04:19Z</time>
      </trkpt>
      <trkpt lat="49.17858" lon="-0.39871">
        <ele>41.8</ele>
        <time>2023-05-23T11:04:20Z</time>
      </trkpt>
      <trkpt lat="49.17853" lon="-0.39868">
        <ele>41.6</ele>
        <time>2023-05-23T11:04:21Z</time>
      </trkpt>
      <trkpt lat="49.17847" lon="-0.39864">
        <ele>41.4</ele>
        <time>2023-05-23T11:04:22Z</time>
      </trkpt>
      <trkpt lat="49.17842" lon="-0.3986">
        <ele>41.2</ele>
        <time>2023-05-23T11:04:23Z</time>
      </trkpt>
      <trkpt lat="49.17836" lon="-0.39856">
        <ele>41</ele>
        <time>2023-05-23T11:04:24Z</time>
      </trkpt>
      <trkpt lat="49.1783" lon="-0.39852">
        <ele>41</ele>
        <time>2023-05-23T11:04:25Z</time>
      </trkpt>
      <trkpt lat="49.17825" lon="-0.39848">
        <ele>41</ele>
        <time>2023-05-23T11:04:26Z</time>
      </trkpt>
      <trkpt lat="49.17819" lon="-0.39844">
        <ele>41</ele>
        <time>2023-05-23T11:04:27Z</time>
      </trkpt>
      <trkpt lat="49.17813" lon="-0.3984">
        <ele>41</ele>
        <time>2023-05-23T11:04:28Z</time>
      </trkpt>
      <trkpt lat="49.17808" lon="-0.39837">
        <ele>41</ele>
        <time>2023-05-23T11:04:29Z</time>
      </trkpt>
      <trkpt lat="49.17802" lon="-0.39833">
        <ele>41</ele>
        <time>2023-05-23T11:04:30Z</time>
      </trkpt>
      <trkpt lat="49.17796" lon="-0.39829">
        <ele>41</ele>
        <time>2023-05-23T11:04:31Z</time>
      </trkpt>
      <trkpt lat="49.17791" lon="-0.39825">
        <ele>41</ele>
        <time>2023-05-23T11:04:32Z</time>
      </trkpt>
      <trkpt lat="49.17785" lon="-0.39821">
        <ele>41</ele>
        <time>2023-05-23T11:04:33Z</time>
      </trkpt>
      <trkpt lat="49.17779" lon="-0.39816">
        <ele>41</ele>
        <time>2023-05-23T11:04:34Z</time>
      </trkpt>
      <trkpt lat="49.17774" lon="-0.39812">
        <ele>41</ele>
        <time>2023-05-23T11:04:35Z</time>
      </trkpt>
      <trkpt lat="49.17768" lon="-0.39807">
        <ele>41</ele>
        <time>2023-05-23T11:04:36Z</time>
      </trkpt>
      <trkpt lat="49.17763" lon="-0.39803">
        <ele>41</ele>
        <time>2023-05-23T11:04:37Z</time>
      </trkpt>
      <trkpt lat="49.17757" lon="-0.39798">
        <ele>41</ele>
        <time>2023-05-23T11:04:38Z</time>
      </trkpt>
      <trkpt lat="49.17752" lon="-0.39794">
        <ele>41</ele>
        <time>2023-05-23T11:04:39Z</time>
      </trkpt>
      <trkpt lat="49.17746" lon="-0.39789">
        <ele>41</ele>
        <time>2023-05-23T11:04:40Z</time>
      </trkpt>
      <trkpt lat="49.17741" lon="-0.39785">
        <ele>41</ele>
        <time>2023-05-23T11:04:41Z</time>
      </trkpt>
      <trkpt lat="49.17736" lon="-0.39781">
        <ele>41</ele>
        <time>2023-05-23T11:04:42Z</time>
      </trkpt>
      <trkpt lat="49.1773" lon="-0.39776">
        <ele>41</ele>
        <time>2023-05-23T11:04:43Z</time>
      </trkpt>
      <trkpt lat="49.17725" lon="-0.39772">
        <ele>41</ele>
        <time>2023-05-23T11:04:44Z</time>
      </trkpt>
      <trkpt lat="49.1772" lon="-0.39767">
        <ele>41</ele>
        <time>2023-05-23T11:04:45Z</time>
      </trkpt>
      <trkpt lat="49.17714" lon="-0.39762">
        <ele>41</ele>
        <time>2023-05-23T11:04:46Z</time>
      </trkpt>
      <trkpt lat="49.17709" lon="-0.39758">
        <ele>41</ele>
        <time>2023-05-23T11:04:47Z</time>
      </trkpt>
      <trkpt lat="49.17704" lon="-0.39753">
        <ele>41</ele>
        <time>2023-05-23T11:04:48Z</time>
      </trkpt>
      <trkpt lat="49.17698" lon="-0.39748">
        <ele>41</ele>
        <time>2023-05-23T11:04:49Z</time>
      </trkpt>
      <trkpt lat="49.17693" lon="-0.39743">
        <ele>41</ele>
        <time>2023-05-23T11:04:50Z</time>
      </trkpt>
      <trkpt lat="49.17688" lon="-0.39738">
        <ele>41</ele>
        <time>2023-05-23T11:04:51Z</time>
      </trkpt>
      <trkpt lat="49.17682" lon="-0.39733">
        <ele>40.8</ele>
        <time>2023-05-23T11:04:52Z</time>
      </trkpt>
      <trkpt lat="49.17677" lon="-0.39728">
        <ele>40.8</ele>
        <time>2023-05-23T11:04:53Z</time>
      </trkpt>
      <trkpt lat="49.17671" lon="-0.39723">
        <ele>40.8</ele>
        <time>2023-05-23T11:04:54Z</time>
      </trkpt>
      <trkpt lat="49.17666" lon="-0.39718">
        <ele>40.6</ele>
        <time>2023-05-23T11:04:55Z</time>
      </trkpt>
      <trkpt lat="49.1766" lon="-0.39712">
        <ele>40.6</ele>
        <time>2023-05-23T11:04:56Z</time>
      </trkpt>
      <trkpt lat="49.17655" lon="-0.39707">
        <ele>40.6</ele>
        <time>2023-05-23T11:04:57Z</time>
      </trkpt>
      <trkpt lat="49.17649" lon="-0.39701">
        <ele>40.6</ele>
        <time>2023-05-23T11:04:58Z</time>
      </trkpt>
      <trkpt lat="49.17643" lon="-0.39696">
        <ele>40.6</ele>
        <time>2023-05-23T11:04:59Z</time>
      </trkpt>
      <trkpt lat="49.17638" lon="-0.3969">
        <ele>40.6</ele>
        <time>2023-05-23T11:05:00Z</time>
      </trkpt>
      <trkpt lat="49.17632" lon="-0.39685">
        <ele>40.6</ele>
        <time>2023-05-23T11:05:01Z</time>
      </trkpt>
      <trkpt lat="49.17626" lon="-0.39679">
        <ele>40.6</ele>
        <time>2023-05-23T11:05:02Z</time>
      </trkpt>
      <trkpt lat="49.17621" lon="-0.39674">
        <ele>40.6</ele>
        <time>2023-05-23T11:05:03Z</time>
      </trkpt>
      <trkpt lat="49.17615" lon="-0.39668">
        <ele>40.6</ele>
        <time>2023-05-23T11:05:04Z</time>
      </trkpt>
      <trkpt lat="49.17609" lon="-0.39662">
        <ele>40.8</ele>
        <time>2023-05-23T11:05:05Z</time>
      </trkpt>
      <trkpt lat="49.17603" lon="-0.39656">
        <ele>40.8</ele>
        <time>2023-05-23T11:05:06Z</time>
      </trkpt>
      <trkpt lat="49.17598" lon="-0.39651">
        <ele>40.8</ele>
        <time>2023-05-23T11:05:07Z</time>
      </trkpt>
      <trkpt lat="49.17592" lon="-0.39645">
        <ele>40.8</ele>
        <time>2023-05-23T11:05:08Z</time>
      </trkpt>
      <trkpt lat="49.17586" lon="-0.39639">
        <ele>40.8</ele>
        <time>2023-05-23T11:05:09Z</time>
      </trkpt>
      <trkpt lat="49.1758" lon="-0.39633">
        <ele>40.6</ele>
        <time>2023-05-23T11:05:10Z</time>
      </trkpt>
      <trkpt lat="49.17575" lon="-0.39627">
        <ele>40.4</ele>
        <time>2023-05-23T11:05:11Z</time>
      </trkpt>
      <trkpt lat="49.17569" lon="-0.39621">
        <ele>40.2</ele>
        <time>2023-05-23T11:05:12Z</time>
      </trkpt>
      <trkpt lat="49.17563" lon="-0.39615">
        <ele>40</ele>
        <time>2023-05-23T11:05:13Z</time>
      </trkpt>
      <trkpt lat="49.17557" lon="-0.39609">
        <ele>40</ele>
        <time>2023-05-23T11:05:14Z</time>
      </trkpt>
      <trkpt lat="49.17552" lon="-0.39603">
        <ele>40</ele>
        <time>2023-05-23T11:05:15Z</time>
      </trkpt>
      <trkpt lat="49.17546" lon="-0.39597">
        <ele>39.8</ele>
        <time>2023-05-23T11:05:16Z</time>
      </trkpt>
      <trkpt lat="49.1754" lon="-0.39592">
        <ele>39.6</ele>
        <time>2023-05-23T11:05:17Z</time>
      </trkpt>
      <trkpt lat="49.17534" lon="-0.39586">
        <ele>39.4</ele>
        <time>2023-05-23T11:05:18Z</time>
      </trkpt>
      <trkpt lat="49.17529" lon="-0.3958">
        <ele>39.2</ele>
        <time>2023-05-23T11:05:19Z</time>
      </trkpt>
      <trkpt lat="49.17523" lon="-0.39574">
        <ele>39.2</ele>
        <time>2023-05-23T11:05:20Z</time>
      </trkpt>
      <trkpt lat="49.17517" lon="-0.39569">
        <ele>39</ele>
        <time>2023-05-23T11:05:21Z</time>
      </trkpt>
      <trkpt lat="49.17511" lon="-0.39563">
        <ele>39</ele>
        <time>2023-05-23T11:05:22Z</time>
      </trkpt>
      <trkpt lat="49.17505" lon="-0.39557">
        <ele>38.8</ele>
        <time>2023-05-23T11:05:23Z</time>
      </trkpt>
      <trkpt lat="49.17499" lon="-0.39551">
        <ele>38.6</ele>
        <time>2023-05-23T11:05:24Z</time>
      </trkpt>
      <trkpt lat="49.17493" lon="-0.39545">
        <ele>38.6</ele>
        <time>2023-05-23T11:05:25Z</time>
      </trkpt>
      <trkpt lat="49.17488" lon="-0.39539">
        <ele>38.2</ele>
        <time>2023-05-23T11:05:26Z</time>
      </trkpt>
      <trkpt lat="49.17482" lon="-0.39533">
        <ele>38.2</ele>
        <time>2023-05-23T11:05:27Z</time>
      </trkpt>
      <trkpt lat="49.17476" lon="-0.39527">
        <ele>38</ele>
        <time>2023-05-23T11:05:28Z</time>
      </trkpt>
      <trkpt lat="49.1747" lon="-0.39521">
        <ele>38</ele>
        <time>2023-05-23T11:05:29Z</time>
      </trkpt>
      <trkpt lat="49.17464" lon="-0.39515">
        <ele>38</ele>
        <time>2023-05-23T11:05:30Z</time>
      </trkpt>
      <trkpt lat="49.17458" lon="-0.39509">
        <ele>38</ele>
        <time>2023-05-23T11:05:31Z</time>
      </trkpt>
      <trkpt lat="49.17452" lon="-0.39503">
        <ele>38</ele>
        <time>2023-05-23T11:05:32Z</time>
      </trkpt>
      <trkpt lat="49.17447" lon="-0.39497">
        <ele>38</ele>
        <time>2023-05-23T11:05:33Z</time>
      </trkpt>
      <trkpt lat="49.17441" lon="-0.39491">
        <ele>38</ele>
        <time>2023-05-23T11:05:34Z</time>
      </trkpt>
      <trkpt lat="49.17435" lon="-0.39485">
        <ele>38</ele>
        <time>2023-05-23T11:05:35Z</time>
      </trkpt>
      <trkpt lat="49.17429" lon="-0.3948">
        <ele>38</ele>
        <time>2023-05-23T11:05:36Z</time>
      </trkpt>
      <trkpt lat="49.17424" lon="-0.39474">
        <ele>38</ele>
        <time>2023-05-23T11:05:37Z</time>
      </trkpt>
      <trkpt lat="49.17418" lon="-0.39468">
        <ele>38</ele>
        <time>2023-05-23T11:05:38Z</time>
      </trkpt>
      <trkpt lat="49.17412" lon="-0.39462">
        <ele>38</ele>
        <time>2023-05-23T11:05:39Z</time>
      </trkpt>
      <trkpt lat="49.17407" lon="-0.39457">
        <ele>38</ele>
        <time>2023-05-23T11:05:40Z</time>
      </trkpt>
      <trkpt lat="49.17401" lon="-0.39451">
        <ele>38</ele>
        <time>2023-05-23T11:05:41Z</time>
      </trkpt>
      <trkpt lat="49.17396" lon="-0.39445">
        <ele>38</ele>
        <time>2023-05-23T11:05:42Z</time>
      </trkpt>
      <trkpt lat="49.1739" lon="-0.39439">
        <ele>38</ele>
        <time>2023-05-23T11:05:43Z</time>
      </trkpt>
      <trkpt lat="49.17384" lon="-0.39433">
        <ele>38</ele>
        <time>2023-05-23T11:05:44Z</time>
      </trkpt>
      <trkpt lat="49.17379" lon="-0.39428">
        <ele>38</ele>
        <time>2023-05-23T11:05:45Z</time>
      </trkpt>
      <trkpt lat="49.17373" lon="-0.39422">
        <ele>38</ele>
        <time>2023-05-23T11:05:46Z</time>
      </trkpt>
      <trkpt lat="49.17368" lon="-0.39416">
        <ele>38</ele>
        <time>2023-05-23T11:05:47Z</time>
      </trkpt>
      <trkpt lat="49.17362" lon="-0.39411">
        <ele>38</ele>
        <time>2023-05-23T11:05:48Z</time>
      </trkpt>
      <trkpt lat="49.17357" lon="-0.39406">
        <ele>38</ele>
        <time>2023-05-23T11:05:49Z</time>
      </trkpt>
      <trkpt lat="49.17351" lon="-0.39401">
        <ele>38</ele>
        <time>2023-05-23T11:05:50Z</time>
      </trkpt>
      <trkpt lat="49.17346" lon="-0.39397">
        <ele>38</ele>
        <time>2023-05-23T11:05:51Z</time>
      </trkpt>
      <trkpt lat="49.17341" lon="-0.39393">
        <ele>38</ele>
        <time>2023-05-23T11:05:52Z</time>
      </trkpt>
      <trkpt lat="49.17336" lon="-0.39389">
        <ele>38</ele>
        <time>2023-05-23T11:05:53Z</time>
      </trkpt>
      <trkpt lat="49.17332" lon="-0.39386">
        <ele>38</ele>
        <time>2023-05-23T11:05:54Z</time>
      </trkpt>
      <trkpt lat="49.17329" lon="-0.39384">
        <ele>38</ele>
        <time>2023-05-23T11:05:55Z</time>
      </trkpt>
      <trkpt lat="49.17326" lon="-0.39381">
        <ele>38</ele>
        <time>2023-05-23T11:05:56Z</time>
      </trkpt>
      <trkpt lat="49.17325" lon="-0.3938">
        <ele>38.2</ele>
        <time>2023-05-23T11:05:57Z</time>
      </trkpt>
      <trkpt lat="49.17324" lon="-0.39379">
        <ele>38.2</ele>
        <time>2023-05-23T11:05:58Z</time>
      </trkpt>
      <trkpt lat="49.17323" lon="-0.39379">
        <ele>38.2</ele>
        <time>2023-05-23T11:05:59Z</time>
      </trkpt>
      <trkpt lat="49.17323" lon="-0.39379">
        <ele>38.2</ele>
        <time>2023-05-23T11:06:00Z</time>
      </trkpt>
      <trkpt lat="49.17323" lon="-0.39379">
        <ele>38.2</ele>
        <time>2023-05-23T11:06:01Z</time>
      </trkpt>
      <trkpt lat="49.17323" lon="-0.39379">
        <ele>38.2</ele>
        <time>2023-05-23T11:06:02Z</time>
      </trkpt>
      <trkpt lat="49.17323" lon="-0.39379">
        <ele>38.2</ele>
        <time>2023-05-23T11:06:03Z</time>
      </trkpt>
      <trkpt lat="49.17323" lon="-0.39379">
        <ele>38.2</ele>
        <time>2023-05-23T11:06:04Z</time>
      </trkpt>
      <trkpt lat="49.17323" lon="-0.39379">
        <ele>38.2</ele>
        <time>2023-05-23T11:06:05Z</time>
      </trkpt>
      <trkpt lat="49.17323" lon="-0.39379">
        <ele>38.2</ele>
        <time>2023-05-23T11:06:06Z</time>
      </trkpt>
      <trkpt lat="49.17323" lon="-0.39379">
        <ele>38.2</ele>
        <time>2023-05-23T11:06:07Z</time>
      </trkpt>
      <trkpt lat="49.17323" lon="-0.39379">
        <ele>38.2</ele>
        <time>2023-05-23T11:06:08Z</time>
      </trkpt>
      <trkpt lat="49.17323" lon="-0.39379">
        <ele>38.2</ele>
        <time>2023-05-23T11:06:09Z</time>
      </trkpt>
      <trkpt lat="49.17323" lon="-0.39379">
        <ele>38.2</ele>
        <time>2023-05-23T11:06:10Z</time>
      </trkpt>
      <trkpt lat="49.17323" lon="-0.39379">
        <ele>38.2</ele>
        <time>2023-05-23T11:06:11Z</time>
      </trkpt>
      <trkpt lat="49.17323" lon="-0.39379">
        <ele>38.2</ele>
        <time>2023-05-23T11:06:12Z</time>
      </trkpt>
      <trkpt lat="49.17323" lon="-0.39379">
        <ele>38.2</ele>
        <time>2023-05-23T11:06:13Z</time>
      </trkpt>
      <trkpt lat="49.17323" lon="-0.39379">
        <ele>38.2</ele>
        <time>2023-05-23T11:06:14Z</time>
      </trkpt>
      <trkpt lat="49.17323" lon="-0.39379">
        <ele>38.2</ele>
        <time>2023-05-23T11:06:15Z</time>
      </trkpt>
      <trkpt lat="49.17323" lon="-0.39379">
        <ele>38.2</ele>
        <time>2023-05-23T11:06:16Z</time>
      </trkpt>
      <trkpt lat="49.17323" lon="-0.39379">
        <ele>38.2</ele>
        <time>2023-05-23T11:06:17Z</time>
      </trkpt>
      <trkpt lat="49.17323" lon="-0.39379">
        <ele>38.2</ele>
        <time>2023-05-23T11:06:18Z</time>
      </trkpt>
      <trkpt lat="49.17323" lon="-0.39379">
        <ele>38.2</ele>
        <time>2023-05-23T11:06:19Z</time>
      </trkpt>
      <trkpt lat="49.17323" lon="-0.39379">
        <ele>38.2</ele>
        <time>2023-05-23T11:06:20Z</time>
      </trkpt>
      <trkpt lat="49.17323" lon="-0.39379">
        <ele>38.2</ele>
        <time>2023-05-23T11:06:21Z</time>
      </trkpt>
      <trkpt lat="49.17323" lon="-0.39379">
        <ele>38.2</ele>
        <time>2023-05-23T11:06:22Z</time>
      </trkpt>
      <trkpt lat="49.17323" lon="-0.39379">
        <ele>38.2</ele>
        <time>2023-05-23T11:06:23Z</time>
      </trkpt>
      <trkpt lat="49.17323" lon="-0.39378">
        <ele>38.2</ele>
        <time>2023-05-23T11:06:24Z</time>
      </trkpt>
      <trkpt lat="49.17323" lon="-0.39378">
        <ele>38.2</ele>
        <time>2023-05-23T11:06:25Z</time>
      </trkpt>
      <trkpt lat="49.17323" lon="-0.39378">
        <ele>38.2</ele>
        <time>2023-05-23T11:06:26Z</time>
      </trkpt>
      <trkpt lat="49.17322" lon="-0.39378">
        <ele>38.2</ele>
        <time>2023-05-23T11:06:27Z</time>
      </trkpt>
      <trkpt lat="49.17321" lon="-0.39377">
        <ele>38.2</ele>
        <time>2023-05-23T11:06:28Z</time>
      </trkpt>
      <trkpt lat="49.17319" lon="-0.39375">
        <ele>38.2</ele>
        <time>2023-05-23T11:06:29Z</time>
      </trkpt>
      <trkpt lat="49.17317" lon="-0.39372">
        <ele>38.2</ele>
        <time>2023-05-23T11:06:30Z</time>
      </trkpt>
      <trkpt lat="49.17315" lon="-0.39367">
        <ele>38.2</ele>
        <time>2023-05-23T11:06:31Z</time>
      </trkpt>
      <trkpt lat="49.17312" lon="-0.39362">
        <ele>38.2</ele>
        <time>2023-05-23T11:06:32Z</time>
      </trkpt>
      <trkpt lat="49.17308" lon="-0.39356">
        <ele>38.4</ele>
        <time>2023-05-23T11:06:33Z</time>
      </trkpt>
      <trkpt lat="49.17305" lon="-0.39352">
        <ele>38.4</ele>
        <time>2023-05-23T11:06:34Z</time>
      </trkpt>
      <trkpt lat="49.173" lon="-0.39348">
        <ele>38.6</ele>
        <time>2023-05-23T11:06:35Z</time>
      </trkpt>
      <trkpt lat="49.17296" lon="-0.39345">
        <ele>38.6</ele>
        <time>2023-05-23T11:06:36Z</time>
      </trkpt>
      <trkpt lat="49.17291" lon="-0.39342">
        <ele>38.6</ele>
        <time>2023-05-23T11:06:37Z</time>
      </trkpt>
      <trkpt lat="49.17285" lon="-0.39339">
        <ele>38.6</ele>
        <time>2023-05-23T11:06:38Z</time>
      </trkpt>
      <trkpt lat="49.1728" lon="-0.39336">
        <ele>38.8</ele>
        <time>2023-05-23T11:06:39Z</time>
      </trkpt>
      <trkpt lat="49.17275" lon="-0.39332">
        <ele>38.8</ele>
        <time>2023-05-23T11:06:40Z</time>
      </trkpt>
      <trkpt lat="49.17269" lon="-0.39327">
        <ele>38.8</ele>
        <time>2023-05-23T11:06:41Z</time>
      </trkpt>
      <trkpt lat="49.17264" lon="-0.39321">
        <ele>38.8</ele>
        <time>2023-05-23T11:06:42Z</time>
      </trkpt>
      <trkpt lat="49.17259" lon="-0.39315">
        <ele>38.8</ele>
        <time>2023-05-23T11:06:43Z</time>
      </trkpt>
      <trkpt lat="49.17254" lon="-0.39309">
        <ele>38.8</ele>
        <time>2023-05-23T11:06:44Z</time>
      </trkpt>
      <trkpt lat="49.17249" lon="-0.39302">
        <ele>38.6</ele>
        <time>2023-05-23T11:06:45Z</time>
      </trkpt>
      <trkpt lat="49.17245" lon="-0.39294">
        <ele>38.6</ele>
        <time>2023-05-23T11:06:46Z</time>
      </trkpt>
      <trkpt lat="49.17241" lon="-0.39287">
        <ele>38.4</ele>
        <time>2023-05-23T11:06:47Z</time>
      </trkpt>
      <trkpt lat="49.17236" lon="-0.39279">
        <ele>38.2</ele>
        <time>2023-05-23T11:06:48Z</time>
      </trkpt>
      <trkpt lat="49.17232" lon="-0.39271">
        <ele>38</ele>
        <time>2023-05-23T11:06:49Z</time>
      </trkpt>
      <trkpt lat="49.17228" lon="-0.39263">
        <ele>38</ele>
        <time>2023-05-23T11:06:50Z</time>
      </trkpt>
      <trkpt lat="49.17224" lon="-0.39255">
        <ele>37.8</ele>
        <time>2023-05-23T11:06:51Z</time>
      </trkpt>
      <trkpt lat="49.1722" lon="-0.39247">
        <ele>37.8</ele>
        <time>2023-05-23T11:06:52Z</time>
      </trkpt>
      <trkpt lat="49.17216" lon="-0.39239">
        <ele>37.8</ele>
        <time>2023-05-23T11:06:53Z</time>
      </trkpt>
      <trkpt lat="49.17212" lon="-0.39231">
        <ele>38</ele>
        <time>2023-05-23T11:06:54Z</time>
      </trkpt>
      <trkpt lat="49.17207" lon="-0.39224">
        <ele>38</ele>
        <time>2023-05-23T11:06:55Z</time>
      </trkpt>
      <trkpt lat="49.17203" lon="-0.39216">
        <ele>38</ele>
        <time>2023-05-23T11:06:56Z</time>
      </trkpt>
      <trkpt lat="49.17199" lon="-0.39208">
        <ele>38</ele>
        <time>2023-05-23T11:06:57Z</time>
      </trkpt>
      <trkpt lat="49.17194" lon="-0.392">
        <ele>38</ele>
        <time>2023-05-23T11:06:58Z</time>
      </trkpt>
      <trkpt lat="49.1719" lon="-0.39192">
        <ele>38.2</ele>
        <time>2023-05-23T11:06:59Z</time>
      </trkpt>
      <trkpt lat="49.17186" lon="-0.39184">
        <ele>38.2</ele>
        <time>2023-05-23T11:07:00Z</time>
      </trkpt>
      <trkpt lat="49.17183" lon="-0.39176">
        <ele>38.2</ele>
        <time>2023-05-23T11:07:01Z</time>
      </trkpt>
      <trkpt lat="49.17179" lon="-0.39168">
        <ele>38.2</ele>
        <time>2023-05-23T11:07:02Z</time>
      </trkpt>
      <trkpt lat="49.17175" lon="-0.39159">
        <ele>38.4</ele>
        <time>2023-05-23T11:07:03Z</time>
      </trkpt>
      <trkpt lat="49.17172" lon="-0.39151">
        <ele>38.6</ele>
        <time>2023-05-23T11:07:04Z</time>
      </trkpt>
      <trkpt lat="49.17169" lon="-0.39143">
        <ele>38.6</ele>
        <time>2023-05-23T11:07:05Z</time>
      </trkpt>
      <trkpt lat="49.17165" lon="-0.39134">
        <ele>38.8</ele>
        <time>2023-05-23T11:07:06Z</time>
      </trkpt>
      <trkpt lat="49.17162" lon="-0.39126">
        <ele>39</ele>
        <time>2023-05-23T11:07:07Z</time>
      </trkpt>
      <trkpt lat="49.17159" lon="-0.39118">
        <ele>39</ele>
        <time>2023-05-23T11:07:08Z</time>
      </trkpt>
      <trkpt lat="49.17155" lon="-0.3911">
        <ele>39.2</ele>
        <time>2023-05-23T11:07:09Z</time>
      </trkpt>
      <trkpt lat="49.17151" lon="-0.39102">
        <ele>39.2</ele>
        <time>2023-05-23T11:07:10Z</time>
      </trkpt>
      <trkpt lat="49.17147" lon="-0.39094">
        <ele>39.2</ele>
        <time>2023-05-23T11:07:11Z</time>
      </trkpt>
      <trkpt lat="49.17143" lon="-0.39086">
        <ele>39.4</ele>
        <time>2023-05-23T11:07:12Z</time>
      </trkpt>
      <trkpt lat="49.17139" lon="-0.39077">
        <ele>39.2</ele>
        <time>2023-05-23T11:07:13Z</time>
      </trkpt>
      <trkpt lat="49.17134" lon="-0.39069">
        <ele>38.8</ele>
        <time>2023-05-23T11:07:14Z</time>
      </trkpt>
      <trkpt lat="49.17129" lon="-0.3906">
        <ele>38.4</ele>
        <time>2023-05-23T11:07:15Z</time>
      </trkpt>
      <trkpt lat="49.17124" lon="-0.39051">
        <ele>38</ele>
        <time>2023-05-23T11:07:16Z</time>
      </trkpt>
      <trkpt lat="49.17118" lon="-0.39043">
        <ele>37.6</ele>
        <time>2023-05-23T11:07:17Z</time>
      </trkpt>
      <trkpt lat="49.17112" lon="-0.39033">
        <ele>37</ele>
        <time>2023-05-23T11:07:18Z</time>
      </trkpt>
      <trkpt lat="49.17106" lon="-0.39024">
        <ele>36.6</ele>
        <time>2023-05-23T11:07:19Z</time>
      </trkpt>
      <trkpt lat="49.17099" lon="-0.39014">
        <ele>36</ele>
        <time>2023-05-23T11:07:20Z</time>
      </trkpt>
      <trkpt lat="49.17092" lon="-0.39004">
        <ele>35.6</ele>
        <time>2023-05-23T11:07:21Z</time>
      </trkpt>
      <trkpt lat="49.17085" lon="-0.38994">
        <ele>34.8</ele>
        <time>2023-05-23T11:07:22Z</time>
      </trkpt>
      <trkpt lat="49.17077" lon="-0.38983">
        <ele>34</ele>
        <time>2023-05-23T11:07:23Z</time>
      </trkpt>
      <trkpt lat="49.1707" lon="-0.38972">
        <ele>33.2</ele>
        <time>2023-05-23T11:07:24Z</time>
      </trkpt>
      <trkpt lat="49.17061" lon="-0.38961">
        <ele>32.4</ele>
        <time>2023-05-23T11:07:25Z</time>
      </trkpt>
      <trkpt lat="49.17053" lon="-0.38949">
        <ele>31.6</ele>
        <time>2023-05-23T11:07:26Z</time>
      </trkpt>
      <trkpt lat="49.17045" lon="-0.38938">
        <ele>30.6</ele>
        <time>2023-05-23T11:07:27Z</time>
      </trkpt>
      <trkpt lat="49.17037" lon="-0.38928">
        <ele>29.8</ele>
        <time>2023-05-23T11:07:28Z</time>
      </trkpt>
      <trkpt lat="49.17029" lon="-0.38917">
        <ele>28.8</ele>
        <time>2023-05-23T11:07:29Z</time>
      </trkpt>
      <trkpt lat="49.17021" lon="-0.38907">
        <ele>27.8</ele>
        <time>2023-05-23T11:07:30Z</time>
      </trkpt>
      <trkpt lat="49.17014" lon="-0.38898">
        <ele>27</ele>
        <time>2023-05-23T11:07:31Z</time>
      </trkpt>
      <trkpt lat="49.17006" lon="-0.38889">
        <ele>26.2</ele>
        <time>2023-05-23T11:07:32Z</time>
      </trkpt>
      <trkpt lat="49.16999" lon="-0.38881">
        <ele>25.2</ele>
        <time>2023-05-23T11:07:33Z</time>
      </trkpt>
      <trkpt lat="49.16993" lon="-0.38873">
        <ele>24.2</ele>
        <time>2023-05-23T11:07:34Z</time>
      </trkpt>
      <trkpt lat="49.16987" lon="-0.38865">
        <ele>23.6</ele>
        <time>2023-05-23T11:07:35Z</time>
      </trkpt>
      <trkpt lat="49.16982" lon="-0.38858">
        <ele>22.8</ele>
        <time>2023-05-23T11:07:36Z</time>
      </trkpt>
      <trkpt lat="49.16978" lon="-0.38852">
        <ele>22.2</ele>
        <time>2023-05-23T11:07:37Z</time>
      </trkpt>
      <trkpt lat="49.16974" lon="-0.38849">
        <ele>21.8</ele>
        <time>2023-05-23T11:07:38Z</time>
      </trkpt>
      <trkpt lat="49.16969" lon="-0.3885">
        <ele>21.4</ele>
        <time>2023-05-23T11:07:39Z</time>
      </trkpt>
      <trkpt lat="49.16964" lon="-0.38854">
        <ele>21.2</ele>
        <time>2023-05-23T11:07:40Z</time>
      </trkpt>
      <trkpt lat="49.16958" lon="-0.38859">
        <ele>20.8</ele>
        <time>2023-05-23T11:07:41Z</time>
      </trkpt>
      <trkpt lat="49.16953" lon="-0.38863">
        <ele>20.6</ele>
        <time>2023-05-23T11:07:42Z</time>
      </trkpt>
      <trkpt lat="49.16946" lon="-0.38867">
        <ele>20.2</ele>
        <time>2023-05-23T11:07:43Z</time>
      </trkpt>
      <trkpt lat="49.16939" lon="-0.3887">
        <ele>19.8</ele>
        <time>2023-05-23T11:07:44Z</time>
      </trkpt>
      <trkpt lat="49.16932" lon="-0.38873">
        <ele>19.2</ele>
        <time>2023-05-23T11:07:45Z</time>
      </trkpt>
      <trkpt lat="49.16926" lon="-0.38875">
        <ele>18.8</ele>
        <time>2023-05-23T11:07:46Z</time>
      </trkpt>
      <trkpt lat="49.1692" lon="-0.38877">
        <ele>18.2</ele>
        <time>2023-05-23T11:07:47Z</time>
      </trkpt>
      <trkpt lat="49.16915" lon="-0.3888">
        <ele>18</ele>
        <time>2023-05-23T11:07:48Z</time>
      </trkpt>
      <trkpt lat="49.16911" lon="-0.38883">
        <ele>17.8</ele>
        <time>2023-05-23T11:07:49Z</time>
      </trkpt>
      <trkpt lat="49.16908" lon="-0.38886">
        <ele>17.6</ele>
        <time>2023-05-23T11:07:50Z</time>
      </trkpt>
      <trkpt lat="49.16905" lon="-0.38889">
        <ele>17.4</ele>
        <time>2023-05-23T11:07:51Z</time>
      </trkpt>
      <trkpt lat="49.16902" lon="-0.38892">
        <ele>17.2</ele>
        <time>2023-05-23T11:07:52Z</time>
      </trkpt>
      <trkpt lat="49.16899" lon="-0.38894">
        <ele>17</ele>
        <time>2023-05-23T11:07:53Z</time>
      </trkpt>
      <trkpt lat="49.16896" lon="-0.38896">
        <ele>16.8</ele>
        <time>2023-05-23T11:07:54Z</time>
      </trkpt>
      <trkpt lat="49.16894" lon="-0.38897">
        <ele>16.8</ele>
        <time>2023-05-23T11:07:55Z</time>
      </trkpt>
      <trkpt lat="49.16891" lon="-0.38897">
        <ele>16.6</ele>
        <time>2023-05-23T11:07:56Z</time>
      </trkpt>
      <trkpt lat="49.16889" lon="-0.38896">
        <ele>16.2</ele>
        <time>2023-05-23T11:07:57Z</time>
      </trkpt>
      <trkpt lat="49.16887" lon="-0.38895">
        <ele>16</ele>
        <time>2023-05-23T11:07:58Z</time>
      </trkpt>
      <trkpt lat="49.16885" lon="-0.38893">
        <ele>15.8</ele>
        <time>2023-05-23T11:07:59Z</time>
      </trkpt>
      <trkpt lat="49.16883" lon="-0.3889">
        <ele>15.6</ele>
        <time>2023-05-23T11:08:00Z</time>
      </trkpt>
      <trkpt lat="49.16883" lon="-0.38887">
        <ele>15.6</ele>
        <time>2023-05-23T11:08:01Z</time>
      </trkpt>
      <trkpt lat="49.16883" lon="-0.38884">
        <ele>15.6</ele>
        <time>2023-05-23T11:08:02Z</time>
      </trkpt>
      <trkpt lat="49.16884" lon="-0.3888">
        <ele>15.6</ele>
        <time>2023-05-23T11:08:03Z</time>
      </trkpt>
      <trkpt lat="49.16884" lon="-0.38877">
        <ele>15.6</ele>
        <time>2023-05-23T11:08:04Z</time>
      </trkpt>
      <trkpt lat="49.16884" lon="-0.38873">
        <ele>15.4</ele>
        <time>2023-05-23T11:08:05Z</time>
      </trkpt>
      <trkpt lat="49.16883" lon="-0.3887">
        <ele>15.4</ele>
        <time>2023-05-23T11:08:06Z</time>
      </trkpt>
      <trkpt lat="49.16881" lon="-0.38868">
        <ele>15.2</ele>
        <time>2023-05-23T11:08:07Z</time>
      </trkpt>
      <trkpt lat="49.16878" lon="-0.38866">
        <ele>14.8</ele>
        <time>2023-05-23T11:08:08Z</time>
      </trkpt>
      <trkpt lat="49.16875" lon="-0.38864">
        <ele>14.6</ele>
        <time>2023-05-23T11:08:09Z</time>
      </trkpt>
      <trkpt lat="49.1687" lon="-0.38862">
        <ele>14.2</ele>
        <time>2023-05-23T11:08:10Z</time>
      </trkpt>
      <trkpt lat="49.16865" lon="-0.3886">
        <ele>13.6</ele>
        <time>2023-05-23T11:08:11Z</time>
      </trkpt>
      <trkpt lat="49.16859" lon="-0.38857">
        <ele>13.2</ele>
        <time>2023-05-23T11:08:12Z</time>
      </trkpt>
      <trkpt lat="49.16853" lon="-0.38855">
        <ele>12.6</ele>
        <time>2023-05-23T11:08:13Z</time>
      </trkpt>
      <trkpt lat="49.16847" lon="-0.38852">
        <ele>12.4</ele>
        <time>2023-05-23T11:08:14Z</time>
      </trkpt>
      <trkpt lat="49.16841" lon="-0.3885">
        <ele>11.8</ele>
        <time>2023-05-23T11:08:15Z</time>
      </trkpt>
      <trkpt lat="49.16835" lon="-0.38847">
        <ele>11.4</ele>
        <time>2023-05-23T11:08:16Z</time>
      </trkpt>
      <trkpt lat="49.16829" lon="-0.38845">
        <ele>11</ele>
        <time>2023-05-23T11:08:17Z</time>
      </trkpt>
      <trkpt lat="49.16824" lon="-0.38843">
        <ele>10.6</ele>
        <time>2023-05-23T11:08:18Z</time>
      </trkpt>
      <trkpt lat="49.16819" lon="-0.3884">
        <ele>10.4</ele>
        <time>2023-05-23T11:08:19Z</time>
      </trkpt>
      <trkpt lat="49.16816" lon="-0.38836">
        <ele>10.2</ele>
        <time>2023-05-23T11:08:20Z</time>
      </trkpt>
      <trkpt lat="49.16813" lon="-0.38828">
        <ele>10</ele>
        <time>2023-05-23T11:08:21Z</time>
      </trkpt>
      <trkpt lat="49.16811" lon="-0.3882">
        <ele>9.6</ele>
        <time>2023-05-23T11:08:22Z</time>
      </trkpt>
      <trkpt lat="49.1681" lon="-0.3881">
        <ele>9.6</ele>
        <time>2023-05-23T11:08:23Z</time>
      </trkpt>
      <trkpt lat="49.16808" lon="-0.388">
        <ele>9.4</ele>
        <time>2023-05-23T11:08:24Z</time>
      </trkpt>
      <trkpt lat="49.16805" lon="-0.38791">
        <ele>9</ele>
        <time>2023-05-23T11:08:25Z</time>
      </trkpt>
      <trkpt lat="49.16802" lon="-0.3878">
        <ele>8.6</ele>
        <time>2023-05-23T11:08:26Z</time>
      </trkpt>
      <trkpt lat="49.16798" lon="-0.3877">
        <ele>8.2</ele>
        <time>2023-05-23T11:08:27Z</time>
      </trkpt>
      <trkpt lat="49.16794" lon="-0.38761">
        <ele>7.8</ele>
        <time>2023-05-23T11:08:28Z</time>
      </trkpt>
      <trkpt lat="49.1679" lon="-0.38751">
        <ele>7.4</ele>
        <time>2023-05-23T11:08:29Z</time>
      </trkpt>
      <trkpt lat="49.16786" lon="-0.38741">
        <ele>7</ele>
        <time>2023-05-23T11:08:30Z</time>
      </trkpt>
      <trkpt lat="49.16782" lon="-0.38731">
        <ele>6.6</ele>
        <time>2023-05-23T11:08:31Z</time>
      </trkpt>
      <trkpt lat="49.16777" lon="-0.38722">
        <ele>6.4</ele>
        <time>2023-05-23T11:08:32Z</time>
      </trkpt>
      <trkpt lat="49.16773" lon="-0.38714">
        <ele>6</ele>
        <time>2023-05-23T11:08:33Z</time>
      </trkpt>
      <trkpt lat="49.16768" lon="-0.38706">
        <ele>5.6</ele>
        <time>2023-05-23T11:08:34Z</time>
      </trkpt>
      <trkpt lat="49.16764" lon="-0.38697">
        <ele>5.6</ele>
        <time>2023-05-23T11:08:35Z</time>
      </trkpt>
      <trkpt lat="49.16759" lon="-0.38689">
        <ele>5.4</ele>
        <time>2023-05-23T11:08:36Z</time>
      </trkpt>
      <trkpt lat="49.16756" lon="-0.3868">
        <ele>5.2</ele>
        <time>2023-05-23T11:08:37Z</time>
      </trkpt>
      <trkpt lat="49.16752" lon="-0.38671">
        <ele>5</ele>
        <time>2023-05-23T11:08:38Z</time>
      </trkpt>
      <trkpt lat="49.16749" lon="-0.38662">
        <ele>5</ele>
        <time>2023-05-23T11:08:39Z</time>
      </trkpt>
      <trkpt lat="49.16747" lon="-0.38652">
        <ele>5</ele>
        <time>2023-05-23T11:08:40Z</time>
      </trkpt>
      <trkpt lat="49.16746" lon="-0.38642">
        <ele>4.6</ele>
        <time>2023-05-23T11:08:41Z</time>
      </trkpt>
      <trkpt lat="49.16746" lon="-0.38632">
        <ele>4.6</ele>
        <time>2023-05-23T11:08:42Z</time>
      </trkpt>
      <trkpt lat="49.16745" lon="-0.38622">
        <ele>4.6</ele>
        <time>2023-05-23T11:08:43Z</time>
      </trkpt>
      <trkpt lat="49.16745" lon="-0.38612">
        <ele>4.4</ele>
        <time>2023-05-23T11:08:44Z</time>
      </trkpt>
      <trkpt lat="49.16746" lon="-0.38602">
        <ele>4.4</ele>
        <time>2023-05-23T11:08:45Z</time>
      </trkpt>
      <trkpt lat="49.16746" lon="-0.38592">
        <ele>4</ele>
        <time>2023-05-23T11:08:46Z</time>
      </trkpt>
      <trkpt lat="49.16747" lon="-0.38582">
        <ele>4</ele>
        <time>2023-05-23T11:08:47Z</time>
      </trkpt>
      <trkpt lat="49.16747" lon="-0.38573">
        <ele>4.4</ele>
        <time>2023-05-23T11:08:48Z</time>
      </trkpt>
      <trkpt lat="49.16747" lon="-0.38564">
        <ele>4.6</ele>
        <time>2023-05-23T11:08:49Z</time>
      </trkpt>
      <trkpt lat="49.16747" lon="-0.38555">
        <ele>5</ele>
        <time>2023-05-23T11:08:50Z</time>
      </trkpt>
      <trkpt lat="49.16747" lon="-0.38546">
        <ele>5.4</ele>
        <time>2023-05-23T11:08:51Z</time>
      </trkpt>
      <trkpt lat="49.16746" lon="-0.38538">
        <ele>5.6</ele>
        <time>2023-05-23T11:08:52Z</time>
      </trkpt>
      <trkpt lat="49.16745" lon="-0.3853">
        <ele>6</ele>
        <time>2023-05-23T11:08:53Z</time>
      </trkpt>
      <trkpt lat="49.16743" lon="-0.38521">
        <ele>6.2</ele>
        <time>2023-05-23T11:08:54Z</time>
      </trkpt>
      <trkpt lat="49.16741" lon="-0.38513">
        <ele>6.4</ele>
        <time>2023-05-23T11:08:55Z</time>
      </trkpt>
      <trkpt lat="49.16738" lon="-0.38505">
        <ele>6.6</ele>
        <time>2023-05-23T11:08:56Z</time>
      </trkpt>
      <trkpt lat="49.16735" lon="-0.38497">
        <ele>6.8</ele>
        <time>2023-05-23T11:08:57Z</time>
      </trkpt>
      <trkpt lat="49.16732" lon="-0.3849">
        <ele>6.8</ele>
        <time>2023-05-23T11:08:58Z</time>
      </trkpt>
      <trkpt lat="49.16728" lon="-0.38483">
        <ele>6.8</ele>
        <time>2023-05-23T11:08:59Z</time>
      </trkpt>
      <trkpt lat="49.16724" lon="-0.38478">
        <ele>6.8</ele>
        <time>2023-05-23T11:09:00Z</time>
      </trkpt>
      <trkpt lat="49.1672" lon="-0.38476">
        <ele>6.8</ele>
        <time>2023-05-23T11:09:01Z</time>
      </trkpt>
      <trkpt lat="49.16717" lon="-0.38475">
        <ele>6.6</ele>
        <time>2023-05-23T11:09:02Z</time>
      </trkpt>
      <trkpt lat="49.16714" lon="-0.38477">
        <ele>6.6</ele>
        <time>2023-05-23T11:09:03Z</time>
      </trkpt>
      <trkpt lat="49.16711" lon="-0.3848">
        <ele>6.6</ele>
        <time>2023-05-23T11:09:04Z</time>
      </trkpt>
      <trkpt lat="49.16709" lon="-0.38484">
        <ele>6.6</ele>
        <time>2023-05-23T11:09:05Z</time>
      </trkpt>
      <trkpt lat="49.16707" lon="-0.38488">
        <ele>6.6</ele>
        <time>2023-05-23T11:09:06Z</time>
      </trkpt>
      <trkpt lat="49.16704" lon="-0.38493">
        <ele>6.6</ele>
        <time>2023-05-23T11:09:07Z</time>
      </trkpt>
      <trkpt lat="49.16702" lon="-0.38498">
        <ele>6.4</ele>
        <time>2023-05-23T11:09:08Z</time>
      </trkpt>
      <trkpt lat="49.16698" lon="-0.38502">
        <ele>6.4</ele>
        <time>2023-05-23T11:09:09Z</time>
      </trkpt>
      <trkpt lat="49.16695" lon="-0.38507">
        <ele>6.2</ele>
        <time>2023-05-23T11:09:10Z</time>
      </trkpt>
      <trkpt lat="49.16691" lon="-0.38511">
        <ele>6</ele>
        <time>2023-05-23T11:09:11Z</time>
      </trkpt>
      <trkpt lat="49.16687" lon="-0.38515">
        <ele>6</ele>
        <time>2023-05-23T11:09:12Z</time>
      </trkpt>
      <trkpt lat="49.16683" lon="-0.38519">
        <ele>6</ele>
        <time>2023-05-23T11:09:13Z</time>
      </trkpt>
      <trkpt lat="49.16679" lon="-0.38523">
        <ele>5.8</ele>
        <time>2023-05-23T11:09:14Z</time>
      </trkpt>
      <trkpt lat="49.16675" lon="-0.38527">
        <ele>5.6</ele>
        <time>2023-05-23T11:09:15Z</time>
      </trkpt>
      <trkpt lat="49.16671" lon="-0.38531">
        <ele>5.6</ele>
        <time>2023-05-23T11:09:16Z</time>
      </trkpt>
      <trkpt lat="49.16668" lon="-0.38533">
        <ele>5.6</ele>
        <time>2023-05-23T11:09:17Z</time>
      </trkpt>
      <trkpt lat="49.16664" lon="-0.38536">
        <ele>5.6</ele>
        <time>2023-05-23T11:09:18Z</time>
      </trkpt>
      <trkpt lat="49.16661" lon="-0.38538">
        <ele>5.6</ele>
        <time>2023-05-23T11:09:19Z</time>
      </trkpt>
      <trkpt lat="49.16657" lon="-0.38539">
        <ele>5.6</ele>
        <time>2023-05-23T11:09:20Z</time>
      </trkpt>
      <trkpt lat="49.16652" lon="-0.38539">
        <ele>5.6</ele>
        <time>2023-05-23T11:09:21Z</time>
      </trkpt>
      <trkpt lat="49.16646" lon="-0.38538">
        <ele>5.6</ele>
        <time>2023-05-23T11:09:22Z</time>
      </trkpt>
      <trkpt lat="49.1664" lon="-0.38538">
        <ele>5.6</ele>
        <time>2023-05-23T11:09:23Z</time>
      </trkpt>
      <trkpt lat="49.16634" lon="-0.38539">
        <ele>5.6</ele>
        <time>2023-05-23T11:09:24Z</time>
      </trkpt>
      <trkpt lat="49.16628" lon="-0.38542">
        <ele>5.6</ele>
        <time>2023-05-23T11:09:25Z</time>
      </trkpt>
      <trkpt lat="49.16623" lon="-0.38547">
        <ele>5.6</ele>
        <time>2023-05-23T11:09:26Z</time>
      </trkpt>
      <trkpt lat="49.16619" lon="-0.38552">
        <ele>5.6</ele>
        <time>2023-05-23T11:09:27Z</time>
      </trkpt>
      <trkpt lat="49.16614" lon="-0.38557">
        <ele>5.6</ele>
        <time>2023-05-23T11:09:28Z</time>
      </trkpt>
      <trkpt lat="49.16609" lon="-0.38561">
        <ele>5.6</ele>
        <time>2023-05-23T11:09:29Z</time>
      </trkpt>
      <trkpt lat="49.16603" lon="-0.38564">
        <ele>5.6</ele>
        <time>2023-05-23T11:09:30Z</time>
      </trkpt>
      <trkpt lat="49.16598" lon="-0.38566">
        <ele>5.6</ele>
        <time>2023-05-23T11:09:31Z</time>
      </trkpt>
      <trkpt lat="49.16592" lon="-0.38569">
        <ele>5.8</ele>
        <time>2023-05-23T11:09:32Z</time>
      </trkpt>
      <trkpt lat="49.16588" lon="-0.38571">
        <ele>5.8</ele>
        <time>2023-05-23T11:09:33Z</time>
      </trkpt>
      <trkpt lat="49.16584" lon="-0.38574">
        <ele>6</ele>
        <time>2023-05-23T11:09:34Z</time>
      </trkpt>
      <trkpt lat="49.16582" lon="-0.38577">
        <ele>6</ele>
        <time>2023-05-23T11:09:35Z</time>
      </trkpt>
      <trkpt lat="49.16582" lon="-0.38582">
        <ele>6</ele>
        <time>2023-05-23T11:09:36Z</time>
      </trkpt>
      <trkpt lat="49.16582" lon="-0.38586">
        <ele>6</ele>
        <time>2023-05-23T11:09:37Z</time>
      </trkpt>
      <trkpt lat="49.16584" lon="-0.38591">
        <ele>6</ele>
        <time>2023-05-23T11:09:38Z</time>
      </trkpt>
      <trkpt lat="49.16586" lon="-0.38596">
        <ele>6</ele>
        <time>2023-05-23T11:09:39Z</time>
      </trkpt>
      <trkpt lat="49.16589" lon="-0.38601">
        <ele>6</ele>
        <time>2023-05-23T11:09:40Z</time>
      </trkpt>
      <trkpt lat="49.16592" lon="-0.38607">
        <ele>6</ele>
        <time>2023-05-23T11:09:41Z</time>
      </trkpt>
      <trkpt lat="49.16595" lon="-0.38612">
        <ele>6</ele>
        <time>2023-05-23T11:09:42Z</time>
      </trkpt>
      <trkpt lat="49.16598" lon="-0.38618">
        <ele>6</ele>
        <time>2023-05-23T11:09:43Z</time>
      </trkpt>
      <trkpt lat="49.16601" lon="-0.38624">
        <ele>6</ele>
        <time>2023-05-23T11:09:44Z</time>
      </trkpt>
      <trkpt lat="49.16602" lon="-0.38631">
        <ele>6</ele>
        <time>2023-05-23T11:09:45Z</time>
      </trkpt>
      <trkpt lat="49.16603" lon="-0.38637">
        <ele>6</ele>
        <time>2023-05-23T11:09:46Z</time>
      </trkpt>
      <trkpt lat="49.16602" lon="-0.38643">
        <ele>6</ele>
        <time>2023-05-23T11:09:47Z</time>
      </trkpt>
      <trkpt lat="49.16601" lon="-0.38649">
        <ele>6</ele>
        <time>2023-05-23T11:09:48Z</time>
      </trkpt>
      <trkpt lat="49.16598" lon="-0.38656">
        <ele>6</ele>
        <time>2023-05-23T11:09:49Z</time>
      </trkpt>
      <trkpt lat="49.16596" lon="-0.38662">
        <ele>6</ele>
        <time>2023-05-23T11:09:50Z</time>
      </trkpt>
      <trkpt lat="49.16593" lon="-0.38669">
        <ele>6</ele>
        <time>2023-05-23T11:09:51Z</time>
      </trkpt>
      <trkpt lat="49.1659" lon="-0.38675">
        <ele>6</ele>
        <time>2023-05-23T11:09:52Z</time>
      </trkpt>
      <trkpt lat="49.16587" lon="-0.38682">
        <ele>6</ele>
        <time>2023-05-23T11:09:53Z</time>
      </trkpt>
      <trkpt lat="49.16585" lon="-0.38689">
        <ele>6</ele>
        <time>2023-05-23T11:09:54Z</time>
      </trkpt>
      <trkpt lat="49.16583" lon="-0.38697">
        <ele>6</ele>
        <time>2023-05-23T11:09:55Z</time>
      </trkpt>
      <trkpt lat="49.16581" lon="-0.38704">
        <ele>6</ele>
        <time>2023-05-23T11:09:56Z</time>
      </trkpt>
      <trkpt lat="49.1658" lon="-0.38712">
        <ele>6</ele>
        <time>2023-05-23T11:09:57Z</time>
      </trkpt>
      <trkpt lat="49.16579" lon="-0.3872">
        <ele>6</ele>
        <time>2023-05-23T11:09:58Z</time>
      </trkpt>
      <trkpt lat="49.16577" lon="-0.38728">
        <ele>5.8</ele>
        <time>2023-05-23T11:09:59Z</time>
      </trkpt>
      <trkpt lat="49.16576" lon="-0.38735">
        <ele>5.8</ele>
        <time>2023-05-23T11:10:00Z</time>
      </trkpt>
      <trkpt lat="49.16574" lon="-0.38741">
        <ele>5.8</ele>
        <time>2023-05-23T11:10:01Z</time>
      </trkpt>
      <trkpt lat="49.16571" lon="-0.38746">
        <ele>5.6</ele>
        <time>2023-05-23T11:10:02Z</time>
      </trkpt>
      <trkpt lat="49.16568" lon="-0.38749">
        <ele>5.6</ele>
        <time>2023-05-23T11:10:03Z</time>
      </trkpt>
      <trkpt lat="49.16564" lon="-0.38751">
        <ele>5.6</ele>
        <time>2023-05-23T11:10:04Z</time>
      </trkpt>
      <trkpt lat="49.16562" lon="-0.38749">
        <ele>5.6</ele>
        <time>2023-05-23T11:10:05Z</time>
      </trkpt>
      <trkpt lat="49.1656" lon="-0.38745">
        <ele>5.4</ele>
        <time>2023-05-23T11:10:06Z</time>
      </trkpt>
      <trkpt lat="49.16559" lon="-0.38738">
        <ele>5.4</ele>
        <time>2023-05-23T11:10:07Z</time>
      </trkpt>
      <trkpt lat="49.16559" lon="-0.38732">
        <ele>5.4</ele>
        <time>2023-05-23T11:10:08Z</time>
      </trkpt>
      <trkpt lat="49.16559" lon="-0.38726">
        <ele>5.4</ele>
        <time>2023-05-23T11:10:09Z</time>
      </trkpt>
      <trkpt lat="49.16559" lon="-0.38719">
        <ele>5.4</ele>
        <time>2023-05-23T11:10:10Z</time>
      </trkpt>
      <trkpt lat="49.16559" lon="-0.38713">
        <ele>5.4</ele>
        <time>2023-05-23T11:10:11Z</time>
      </trkpt>
      <trkpt lat="49.1656" lon="-0.38707">
        <ele>5.4</ele>
        <time>2023-05-23T11:10:12Z</time>
      </trkpt>
      <trkpt lat="49.1656" lon="-0.387">
        <ele>5.4</ele>
        <time>2023-05-23T11:10:13Z</time>
      </trkpt>
      <trkpt lat="49.1656" lon="-0.38692">
        <ele>5.2</ele>
        <time>2023-05-23T11:10:14Z</time>
      </trkpt>
      <trkpt lat="49.16559" lon="-0.38685">
        <ele>5.2</ele>
        <time>2023-05-23T11:10:15Z</time>
      </trkpt>
      <trkpt lat="49.16559" lon="-0.38677">
        <ele>5.2</ele>
        <time>2023-05-23T11:10:16Z</time>
      </trkpt>
      <trkpt lat="49.16559" lon="-0.38669">
        <ele>5</ele>
        <time>2023-05-23T11:10:17Z</time>
      </trkpt>
      <trkpt lat="49.16559" lon="-0.38661">
        <ele>5</ele>
        <time>2023-05-23T11:10:18Z</time>
      </trkpt>
      <trkpt lat="49.16559" lon="-0.38654">
        <ele>5</ele>
        <time>2023-05-23T11:10:19Z</time>
      </trkpt>
      <trkpt lat="49.16558" lon="-0.38646">
        <ele>5</ele>
        <time>2023-05-23T11:10:20Z</time>
      </trkpt>
      <trkpt lat="49.16558" lon="-0.38638">
        <ele>5</ele>
        <time>2023-05-23T11:10:21Z</time>
      </trkpt>
      <trkpt lat="49.16558" lon="-0.3863">
        <ele>5</ele>
        <time>2023-05-23T11:10:22Z</time>
      </trkpt>
      <trkpt lat="49.16557" lon="-0.38622">
        <ele>5</ele>
        <time>2023-05-23T11:10:23Z</time>
      </trkpt>
      <trkpt lat="49.16557" lon="-0.38614">
        <ele>5</ele>
        <time>2023-05-23T11:10:24Z</time>
      </trkpt>
      <trkpt lat="49.16557" lon="-0.38605">
        <ele>5</ele>
        <time>2023-05-23T11:10:25Z</time>
      </trkpt>
      <trkpt lat="49.16557" lon="-0.38596">
        <ele>5</ele>
        <time>2023-05-23T11:10:26Z</time>
      </trkpt>
      <trkpt lat="49.16557" lon="-0.38586">
        <ele>5</ele>
        <time>2023-05-23T11:10:27Z</time>
      </trkpt>
      <trkpt lat="49.16557" lon="-0.38577">
        <ele>5</ele>
        <time>2023-05-23T11:10:28Z</time>
      </trkpt>
      <trkpt lat="49.16557" lon="-0.38567">
        <ele>5</ele>
        <time>2023-05-23T11:10:29Z</time>
      </trkpt>
      <trkpt lat="49.16557" lon="-0.38558">
        <ele>5</ele>
        <time>2023-05-23T11:10:30Z</time>
      </trkpt>
      <trkpt lat="49.16557" lon="-0.38549">
        <ele>5</ele>
        <time>2023-05-23T11:10:31Z</time>
      </trkpt>
      <trkpt lat="49.16557" lon="-0.38539">
        <ele>5</ele>
        <time>2023-05-23T11:10:32Z</time>
      </trkpt>
      <trkpt lat="49.16557" lon="-0.3853">
        <ele>5</ele>
        <time>2023-05-23T11:10:33Z</time>
      </trkpt>
      <trkpt lat="49.16557" lon="-0.38521">
        <ele>5</ele>
        <time>2023-05-23T11:10:34Z</time>
      </trkpt>
      <trkpt lat="49.16556" lon="-0.38511">
        <ele>5</ele>
        <time>2023-05-23T11:10:35Z</time>
      </trkpt>
      <trkpt lat="49.16556" lon="-0.38501">
        <ele>5</ele>
        <time>2023-05-23T11:10:36Z</time>
      </trkpt>
      <trkpt lat="49.16556" lon="-0.38491">
        <ele>5</ele>
        <time>2023-05-23T11:10:37Z</time>
      </trkpt>
      <trkpt lat="49.16556" lon="-0.38481">
        <ele>5</ele>
        <time>2023-05-23T11:10:38Z</time>
      </trkpt>
      <trkpt lat="49.16556" lon="-0.38472">
        <ele>5</ele>
        <time>2023-05-23T11:10:39Z</time>
      </trkpt>
      <trkpt lat="49.16556" lon="-0.38462">
        <ele>5</ele>
        <time>2023-05-23T11:10:40Z</time>
      </trkpt>
      <trkpt lat="49.16556" lon="-0.38453">
        <ele>5</ele>
        <time>2023-05-23T11:10:41Z</time>
      </trkpt>
      <trkpt lat="49.16556" lon="-0.38444">
        <ele>5</ele>
        <time>2023-05-23T11:10:42Z</time>
      </trkpt>
      <trkpt lat="49.16556" lon="-0.38435">
        <ele>5</ele>
        <time>2023-05-23T11:10:43Z</time>
      </trkpt>
      <trkpt lat="49.16556" lon="-0.38426">
        <ele>5</ele>
        <time>2023-05-23T11:10:44Z</time>
      </trkpt>
      <trkpt lat="49.16556" lon="-0.38417">
        <ele>5</ele>
        <time>2023-05-23T11:10:45Z</time>
      </trkpt>
      <trkpt lat="49.16556" lon="-0.38409">
        <ele>5</ele>
        <time>2023-05-23T11:10:46Z</time>
      </trkpt>
      <trkpt lat="49.16556" lon="-0.384">
        <ele>5</ele>
        <time>2023-05-23T11:10:47Z</time>
      </trkpt>
      <trkpt lat="49.16556" lon="-0.38391">
        <ele>5</ele>
        <time>2023-05-23T11:10:48Z</time>
      </trkpt>
      <trkpt lat="49.16556" lon="-0.38382">
        <ele>5</ele>
        <time>2023-05-23T11:10:49Z</time>
      </trkpt>
      <trkpt lat="49.16555" lon="-0.38373">
        <ele>5.2</ele>
        <time>2023-05-23T11:10:50Z</time>
      </trkpt>
      <trkpt lat="49.16555" lon="-0.38364">
        <ele>5.2</ele>
        <time>2023-05-23T11:10:51Z</time>
      </trkpt>
      <trkpt lat="49.16555" lon="-0.38355">
        <ele>5.2</ele>
        <time>2023-05-23T11:10:52Z</time>
      </trkpt>
      <trkpt lat="49.16555" lon="-0.38346">
        <ele>5.4</ele>
        <time>2023-05-23T11:10:53Z</time>
      </trkpt>
      <trkpt lat="49.16555" lon="-0.38338">
        <ele>5.4</ele>
        <time>2023-05-23T11:10:54Z</time>
      </trkpt>
      <trkpt lat="49.16555" lon="-0.38328">
        <ele>5.4</ele>
        <time>2023-05-23T11:10:55Z</time>
      </trkpt>
      <trkpt lat="49.16555" lon="-0.38319">
        <ele>5.4</ele>
        <time>2023-05-23T11:10:56Z</time>
      </trkpt>
      <trkpt lat="49.16555" lon="-0.3831">
        <ele>5.2</ele>
        <time>2023-05-23T11:10:57Z</time>
      </trkpt>
      <trkpt lat="49.16554" lon="-0.38301">
        <ele>5.2</ele>
        <time>2023-05-23T11:10:58Z</time>
      </trkpt>
      <trkpt lat="49.16554" lon="-0.38291">
        <ele>5</ele>
        <time>2023-05-23T11:10:59Z</time>
      </trkpt>
      <trkpt lat="49.16554" lon="-0.38281">
        <ele>5</ele>
        <time>2023-05-23T11:11:00Z</time>
      </trkpt>
      <trkpt lat="49.16554" lon="-0.38271">
        <ele>5</ele>
        <time>2023-05-23T11:11:01Z</time>
      </trkpt>
      <trkpt lat="49.16554" lon="-0.38261">
        <ele>5</ele>
        <time>2023-05-23T11:11:02Z</time>
      </trkpt>
      <trkpt lat="49.16554" lon="-0.38251">
        <ele>5</ele>
        <time>2023-05-23T11:11:03Z</time>
      </trkpt>
      <trkpt lat="49.16553" lon="-0.38241">
        <ele>5</ele>
        <time>2023-05-23T11:11:04Z</time>
      </trkpt>
      <trkpt lat="49.16553" lon="-0.3823">
        <ele>5</ele>
        <time>2023-05-23T11:11:05Z</time>
      </trkpt>
      <trkpt lat="49.16553" lon="-0.3822">
        <ele>5.2</ele>
        <time>2023-05-23T11:11:06Z</time>
      </trkpt>
      <trkpt lat="49.16552" lon="-0.3821">
        <ele>5.2</ele>
        <time>2023-05-23T11:11:07Z</time>
      </trkpt>
      <trkpt lat="49.16552" lon="-0.382">
        <ele>5.4</ele>
        <time>2023-05-23T11:11:08Z</time>
      </trkpt>
      <trkpt lat="49.16552" lon="-0.38191">
        <ele>5.4</ele>
        <time>2023-05-23T11:11:09Z</time>
      </trkpt>
      <trkpt lat="49.16552" lon="-0.38182">
        <ele>5.6</ele>
        <time>2023-05-23T11:11:10Z</time>
      </trkpt>
      <trkpt lat="49.16553" lon="-0.38173">
        <ele>5.6</ele>
        <time>2023-05-23T11:11:11Z</time>
      </trkpt>
      <trkpt lat="49.16553" lon="-0.38164">
        <ele>5.6</ele>
        <time>2023-05-23T11:11:12Z</time>
      </trkpt>
      <trkpt lat="49.16553" lon="-0.38154">
        <ele>5.6</ele>
        <time>2023-05-23T11:11:13Z</time>
      </trkpt>
      <trkpt lat="49.16554" lon="-0.38145">
        <ele>5.4</ele>
        <time>2023-05-23T11:11:14Z</time>
      </trkpt>
      <trkpt lat="49.16554" lon="-0.38135">
        <ele>5.4</ele>
        <time>2023-05-23T11:11:15Z</time>
      </trkpt>
      <trkpt lat="49.16554" lon="-0.38126">
        <ele>5.2</ele>
        <time>2023-05-23T11:11:16Z</time>
      </trkpt>
      <trkpt lat="49.16555" lon="-0.38116">
        <ele>5</ele>
        <time>2023-05-23T11:11:17Z</time>
      </trkpt>
      <trkpt lat="49.16555" lon="-0.38107">
        <ele>5</ele>
        <time>2023-05-23T11:11:18Z</time>
      </trkpt>
      <trkpt lat="49.16555" lon="-0.38098">
        <ele>4.8</ele>
        <time>2023-05-23T11:11:19Z</time>
      </trkpt>
      <trkpt lat="49.16556" lon="-0.38089">
        <ele>4.6</ele>
        <time>2023-05-23T11:11:20Z</time>
      </trkpt>
      <trkpt lat="49.16556" lon="-0.38081">
        <ele>4.6</ele>
        <time>2023-05-23T11:11:21Z</time>
      </trkpt>
      <trkpt lat="49.16557" lon="-0.38073">
        <ele>4.6</ele>
        <time>2023-05-23T11:11:22Z</time>
      </trkpt>
      <trkpt lat="49.16558" lon="-0.38064">
        <ele>4.6</ele>
        <time>2023-05-23T11:11:23Z</time>
      </trkpt>
      <trkpt lat="49.16558" lon="-0.38056">
        <ele>4.8</ele>
        <time>2023-05-23T11:11:24Z</time>
      </trkpt>
      <trkpt lat="49.16559" lon="-0.38048">
        <ele>4.8</ele>
        <time>2023-05-23T11:11:25Z</time>
      </trkpt>
      <trkpt lat="49.16559" lon="-0.38039">
        <ele>4.8</ele>
        <time>2023-05-23T11:11:26Z</time>
      </trkpt>
      <trkpt lat="49.16559" lon="-0.3803">
        <ele>4.8</ele>
        <time>2023-05-23T11:11:27Z</time>
      </trkpt>
      <trkpt lat="49.1656" lon="-0.38022">
        <ele>4.8</ele>
        <time>2023-05-23T11:11:28Z</time>
      </trkpt>
      <trkpt lat="49.1656" lon="-0.38013">
        <ele>4.8</ele>
        <time>2023-05-23T11:11:29Z</time>
      </trkpt>
      <trkpt lat="49.16561" lon="-0.38004">
        <ele>4.8</ele>
        <time>2023-05-23T11:11:30Z</time>
      </trkpt>
      <trkpt lat="49.16561" lon="-0.37994">
        <ele>4.8</ele>
        <time>2023-05-23T11:11:31Z</time>
      </trkpt>
      <trkpt lat="49.16562" lon="-0.37985">
        <ele>4.6</ele>
        <time>2023-05-23T11:11:32Z</time>
      </trkpt>
      <trkpt lat="49.16563" lon="-0.37976">
        <ele>4.6</ele>
        <time>2023-05-23T11:11:33Z</time>
      </trkpt>
      <trkpt lat="49.16564" lon="-0.37967">
        <ele>4.6</ele>
        <time>2023-05-23T11:11:34Z</time>
      </trkpt>
      <trkpt lat="49.16565" lon="-0.37958">
        <ele>4.4</ele>
        <time>2023-05-23T11:11:35Z</time>
      </trkpt>
      <trkpt lat="49.16566" lon="-0.37948">
        <ele>4.4</ele>
        <time>2023-05-23T11:11:36Z</time>
      </trkpt>
      <trkpt lat="49.16567" lon="-0.3794">
        <ele>4</ele>
        <time>2023-05-23T11:11:37Z</time>
      </trkpt>
      <trkpt lat="49.16569" lon="-0.37931">
        <ele>4</ele>
        <time>2023-05-23T11:11:38Z</time>
      </trkpt>
      <trkpt lat="49.1657" lon="-0.37924">
        <ele>3.8</ele>
        <time>2023-05-23T11:11:39Z</time>
      </trkpt>
      <trkpt lat="49.16572" lon="-0.37917">
        <ele>3.8</ele>
        <time>2023-05-23T11:11:40Z</time>
      </trkpt>
      <trkpt lat="49.16573" lon="-0.37911">
        <ele>3.8</ele>
        <time>2023-05-23T11:11:41Z</time>
      </trkpt>
      <trkpt lat="49.16575" lon="-0.37903">
        <ele>3.6</ele>
        <time>2023-05-23T11:11:42Z</time>
      </trkpt>
      <trkpt lat="49.16576" lon="-0.37895">
        <ele>3.6</ele>
        <time>2023-05-23T11:11:43Z</time>
      </trkpt>
      <trkpt lat="49.16578" lon="-0.37886">
        <ele>3.6</ele>
        <time>2023-05-23T11:11:44Z</time>
      </trkpt>
      <trkpt lat="49.1658" lon="-0.37877">
        <ele>3.6</ele>
        <time>2023-05-23T11:11:45Z</time>
      </trkpt>
      <trkpt lat="49.16582" lon="-0.37867">
        <ele>3.8</ele>
        <time>2023-05-23T11:11:46Z</time>
      </trkpt>
      <trkpt lat="49.16584" lon="-0.37858">
        <ele>3.8</ele>
        <time>2023-05-23T11:11:47Z</time>
      </trkpt>
      <trkpt lat="49.16585" lon="-0.37848">
        <ele>3.8</ele>
        <time>2023-05-23T11:11:48Z</time>
      </trkpt>
      <trkpt lat="49.16586" lon="-0.37839">
        <ele>4</ele>
        <time>2023-05-23T11:11:49Z</time>
      </trkpt>
      <trkpt lat="49.16587" lon="-0.3783">
        <ele>4</ele>
        <time>2023-05-23T11:11:50Z</time>
      </trkpt>
      <trkpt lat="49.16586" lon="-0.37822">
        <ele>4</ele>
        <time>2023-05-23T11:11:51Z</time>
      </trkpt>
      <trkpt lat="49.16584" lon="-0.37816">
        <ele>4</ele>
        <time>2023-05-23T11:11:52Z</time>
      </trkpt>
      <trkpt lat="49.16581" lon="-0.3781">
        <ele>4</ele>
        <time>2023-05-23T11:11:53Z</time>
      </trkpt>
      <trkpt lat="49.16577" lon="-0.37804">
        <ele>4</ele>
        <time>2023-05-23T11:11:54Z</time>
      </trkpt>
      <trkpt lat="49.16573" lon="-0.37798">
        <ele>4</ele>
        <time>2023-05-23T11:11:55Z</time>
      </trkpt>
      <trkpt lat="49.1657" lon="-0.37791">
        <ele>4</ele>
        <time>2023-05-23T11:11:56Z</time>
      </trkpt>
      <trkpt lat="49.16566" lon="-0.37783">
        <ele>4</ele>
        <time>2023-05-23T11:11:57Z</time>
      </trkpt>
      <trkpt lat="49.16562" lon="-0.37775">
        <ele>4</ele>
        <time>2023-05-23T11:11:58Z</time>
      </trkpt>
      <trkpt lat="49.16558" lon="-0.37767">
        <ele>4</ele>
        <time>2023-05-23T11:11:59Z</time>
      </trkpt>
      <trkpt lat="49.16553" lon="-0.37759">
        <ele>3.8</ele>
        <time>2023-05-23T11:12:00Z</time>
      </trkpt>
      <trkpt lat="49.16548" lon="-0.37752">
        <ele>3.6</ele>
        <time>2023-05-23T11:12:01Z</time>
      </trkpt>
      <trkpt lat="49.16543" lon="-0.37746">
        <ele>3.6</ele>
        <time>2023-05-23T11:12:02Z</time>
      </trkpt>
      <trkpt lat="49.16537" lon="-0.3774">
        <ele>3.2</ele>
        <time>2023-05-23T11:12:03Z</time>
      </trkpt>
      <trkpt lat="49.16532" lon="-0.37737">
        <ele>3.2</ele>
        <time>2023-05-23T11:12:04Z</time>
      </trkpt>
      <trkpt lat="49.16526" lon="-0.37734">
        <ele>3.2</ele>
        <time>2023-05-23T11:12:05Z</time>
      </trkpt>
      <trkpt lat="49.1652" lon="-0.37732">
        <ele>3</ele>
        <time>2023-05-23T11:12:06Z</time>
      </trkpt>
      <trkpt lat="49.16514" lon="-0.3773">
        <ele>3</ele>
        <time>2023-05-23T11:12:07Z</time>
      </trkpt>
      <trkpt lat="49.16508" lon="-0.37729">
        <ele>3</ele>
        <time>2023-05-23T11:12:08Z</time>
      </trkpt>
      <trkpt lat="49.16503" lon="-0.37729">
        <ele>3</ele>
        <time>2023-05-23T11:12:09Z</time>
      </trkpt>
      <trkpt lat="49.16497" lon="-0.37728">
        <ele>3.2</ele>
        <time>2023-05-23T11:12:10Z</time>
      </trkpt>
      <trkpt lat="49.16491" lon="-0.37728">
        <ele>3.8</ele>
        <time>2023-05-23T11:12:11Z</time>
      </trkpt>
      <trkpt lat="49.16485" lon="-0.37728">
        <ele>4.2</ele>
        <time>2023-05-23T11:12:12Z</time>
      </trkpt>
      <trkpt lat="49.16479" lon="-0.37728">
        <ele>4.6</ele>
        <time>2023-05-23T11:12:13Z</time>
      </trkpt>
      <trkpt lat="49.16473" lon="-0.37727">
        <ele>5</ele>
        <time>2023-05-23T11:12:14Z</time>
      </trkpt>
      <trkpt lat="49.16467" lon="-0.37727">
        <ele>5.6</ele>
        <time>2023-05-23T11:12:15Z</time>
      </trkpt>
      <trkpt lat="49.16461" lon="-0.37726">
        <ele>6</ele>
        <time>2023-05-23T11:12:16Z</time>
      </trkpt>
      <trkpt lat="49.16455" lon="-0.37725">
        <ele>6.4</ele>
        <time>2023-05-23T11:12:17Z</time>
      </trkpt>
      <trkpt lat="49.16449" lon="-0.37724">
        <ele>6.8</ele>
        <time>2023-05-23T11:12:18Z</time>
      </trkpt>
      <trkpt lat="49.16443" lon="-0.37724">
        <ele>7.2</ele>
        <time>2023-05-23T11:12:19Z</time>
      </trkpt>
      <trkpt lat="49.16437" lon="-0.37723">
        <ele>7.6</ele>
        <time>2023-05-23T11:12:20Z</time>
      </trkpt>
      <trkpt lat="49.16431" lon="-0.37722">
        <ele>8</ele>
        <time>2023-05-23T11:12:21Z</time>
      </trkpt>
      <trkpt lat="49.16425" lon="-0.37721">
        <ele>8.4</ele>
        <time>2023-05-23T11:12:22Z</time>
      </trkpt>
      <trkpt lat="49.16419" lon="-0.37721">
        <ele>8.8</ele>
        <time>2023-05-23T11:12:23Z</time>
      </trkpt>
      <trkpt lat="49.16413" lon="-0.37721">
        <ele>9.2</ele>
        <time>2023-05-23T11:12:24Z</time>
      </trkpt>
      <trkpt lat="49.16407" lon="-0.37721">
        <ele>9.4</ele>
        <time>2023-05-23T11:12:25Z</time>
      </trkpt>
      <trkpt lat="49.16401" lon="-0.37722">
        <ele>9.6</ele>
        <time>2023-05-23T11:12:26Z</time>
      </trkpt>
      <trkpt lat="49.16395" lon="-0.37723">
        <ele>9.8</ele>
        <time>2023-05-23T11:12:27Z</time>
      </trkpt>
      <trkpt lat="49.16389" lon="-0.37724">
        <ele>10.2</ele>
        <time>2023-05-23T11:12:28Z</time>
      </trkpt>
      <trkpt lat="49.16383" lon="-0.37726">
        <ele>10.4</ele>
        <time>2023-05-23T11:12:29Z</time>
      </trkpt>
      <trkpt lat="49.16377" lon="-0.37728">
        <ele>10.8</ele>
        <time>2023-05-23T11:12:30Z</time>
      </trkpt>
      <trkpt lat="49.16371" lon="-0.3773">
        <ele>11.2</ele>
        <time>2023-05-23T11:12:31Z</time>
      </trkpt>
      <trkpt lat="49.16366" lon="-0.37733">
        <ele>11.4</ele>
        <time>2023-05-23T11:12:32Z</time>
      </trkpt>
      <trkpt lat="49.1636" lon="-0.37735">
        <ele>11.6</ele>
        <time>2023-05-23T11:12:33Z</time>
      </trkpt>
      <trkpt lat="49.16354" lon="-0.37737">
        <ele>11.8</ele>
        <time>2023-05-23T11:12:34Z</time>
      </trkpt>
      <trkpt lat="49.16348" lon="-0.37739">
        <ele>12.2</ele>
        <time>2023-05-23T11:12:35Z</time>
      </trkpt>
      <trkpt lat="49.16342" lon="-0.37741">
        <ele>12.4</ele>
        <time>2023-05-23T11:12:36Z</time>
      </trkpt>
      <trkpt lat="49.16336" lon="-0.37742">
        <ele>12.6</ele>
        <time>2023-05-23T11:12:37Z</time>
      </trkpt>
      <trkpt lat="49.16331" lon="-0.37743">
        <ele>12.6</ele>
        <time>2023-05-23T11:12:38Z</time>
      </trkpt>
      <trkpt lat="49.16325" lon="-0.37743">
        <ele>12.6</ele>
        <time>2023-05-23T11:12:39Z</time>
      </trkpt>
      <trkpt lat="49.16321" lon="-0.37741">
        <ele>12.4</ele>
        <time>2023-05-23T11:12:40Z</time>
      </trkpt>
      <trkpt lat="49.16318" lon="-0.37739">
        <ele>12.2</ele>
        <time>2023-05-23T11:12:41Z</time>
      </trkpt>
      <trkpt lat="49.16316" lon="-0.37735">
        <ele>11.8</ele>
        <time>2023-05-23T11:12:42Z</time>
      </trkpt>
      <trkpt lat="49.16316" lon="-0.37731">
        <ele>11.8</ele>
        <time>2023-05-23T11:12:43Z</time>
      </trkpt>
      <trkpt lat="49.16316" lon="-0.37726">
        <ele>11.6</ele>
        <time>2023-05-23T11:12:44Z</time>
      </trkpt>
      <trkpt lat="49.16319" lon="-0.37723">
        <ele>11.6</ele>
        <time>2023-05-23T11:12:45Z</time>
      </trkpt>
      <trkpt lat="49.16322" lon="-0.37719">
        <ele>11.6</ele>
        <time>2023-05-23T11:12:46Z</time>
      </trkpt>
      <trkpt lat="49.16325" lon="-0.37715">
        <ele>11.6</ele>
        <time>2023-05-23T11:12:47Z</time>
      </trkpt>
      <trkpt lat="49.16329" lon="-0.37711">
        <ele>11.6</ele>
        <time>2023-05-23T11:12:48Z</time>
      </trkpt>
      <trkpt lat="49.16332" lon="-0.37705">
        <ele>11.4</ele>
        <time>2023-05-23T11:12:49Z</time>
      </trkpt>
      <trkpt lat="49.16334" lon="-0.377">
        <ele>11.2</ele>
        <time>2023-05-23T11:12:50Z</time>
      </trkpt>
      <trkpt lat="49.16337" lon="-0.37694">
        <ele>10.8</ele>
        <time>2023-05-23T11:12:51Z</time>
      </trkpt>
      <trkpt lat="49.1634" lon="-0.37687">
        <ele>10.4</ele>
        <time>2023-05-23T11:12:52Z</time>
      </trkpt>
      <trkpt lat="49.16342" lon="-0.37681">
        <ele>10</ele>
        <time>2023-05-23T11:12:53Z</time>
      </trkpt>
      <trkpt lat="49.16345" lon="-0.37674">
        <ele>9.6</ele>
        <time>2023-05-23T11:12:54Z</time>
      </trkpt>
      <trkpt lat="49.16348" lon="-0.37667">
        <ele>9.2</ele>
        <time>2023-05-23T11:12:55Z</time>
      </trkpt>
      <trkpt lat="49.1635" lon="-0.37661">
        <ele>8.8</ele>
        <time>2023-05-23T11:12:56Z</time>
      </trkpt>
      <trkpt lat="49.16352" lon="-0.37654">
        <ele>8.6</ele>
        <time>2023-05-23T11:12:57Z</time>
      </trkpt>
      <trkpt lat="49.16355" lon="-0.37647">
        <ele>8.2</ele>
        <time>2023-05-23T11:12:58Z</time>
      </trkpt>
      <trkpt lat="49.16357" lon="-0.3764">
        <ele>8</ele>
        <time>2023-05-23T11:12:59Z</time>
      </trkpt>
      <trkpt lat="49.16359" lon="-0.37634">
        <ele>7.6</ele>
        <time>2023-05-23T11:13:00Z</time>
      </trkpt>
      <trkpt lat="49.16361" lon="-0.37627">
        <ele>7.4</ele>
        <time>2023-05-23T11:13:01Z</time>
      </trkpt>
      <trkpt lat="49.16363" lon="-0.37621">
        <ele>7</ele>
        <time>2023-05-23T11:13:02Z</time>
      </trkpt>
      <trkpt lat="49.16365" lon="-0.37615">
        <ele>7</ele>
        <time>2023-05-23T11:13:03Z</time>
      </trkpt>
      <trkpt lat="49.16366" lon="-0.37609">
        <ele>6.6</ele>
        <time>2023-05-23T11:13:04Z</time>
      </trkpt>
      <trkpt lat="49.16367" lon="-0.37603">
        <ele>6.6</ele>
        <time>2023-05-23T11:13:05Z</time>
      </trkpt>
      <trkpt lat="49.16367" lon="-0.37598">
        <ele>6.4</ele>
        <time>2023-05-23T11:13:06Z</time>
      </trkpt>
      <trkpt lat="49.16367" lon="-0.37592">
        <ele>6.2</ele>
        <time>2023-05-23T11:13:07Z</time>
      </trkpt>
      <trkpt lat="49.16366" lon="-0.37587">
        <ele>6</ele>
        <time>2023-05-23T11:13:08Z</time>
      </trkpt>
      <trkpt lat="49.16365" lon="-0.37585">
        <ele>6</ele>
        <time>2023-05-23T11:13:09Z</time>
      </trkpt>
      <trkpt lat="49.16363" lon="-0.37585">
        <ele>6.4</ele>
        <time>2023-05-23T11:13:10Z</time>
      </trkpt>
      <trkpt lat="49.1636" lon="-0.37586">
        <ele>6.6</ele>
        <time>2023-05-23T11:13:11Z</time>
      </trkpt>
      <trkpt lat="49.16357" lon="-0.37589">
        <ele>6.6</ele>
        <time>2023-05-23T11:13:12Z</time>
      </trkpt>
      <trkpt lat="49.16354" lon="-0.3759">
        <ele>7</ele>
        <time>2023-05-23T11:13:13Z</time>
      </trkpt>
      <trkpt lat="49.16351" lon="-0.37592">
        <ele>7</ele>
        <time>2023-05-23T11:13:14Z</time>
      </trkpt>
      <trkpt lat="49.16349" lon="-0.37595">
        <ele>7.4</ele>
        <time>2023-05-23T11:13:15Z</time>
      </trkpt>
      <trkpt lat="49.16345" lon="-0.37598">
        <ele>7.6</ele>
        <time>2023-05-23T11:13:16Z</time>
      </trkpt>
      <trkpt lat="49.16342" lon="-0.376">
        <ele>8</ele>
        <time>2023-05-23T11:13:17Z</time>
      </trkpt>
      <trkpt lat="49.16338" lon="-0.37601">
        <ele>8.2</ele>
        <time>2023-05-23T11:13:18Z</time>
      </trkpt>
      <trkpt lat="49.16334" lon="-0.37602">
        <ele>8.4</ele>
        <time>2023-05-23T11:13:19Z</time>
      </trkpt>
      <trkpt lat="49.1633" lon="-0.37603">
        <ele>8.4</ele>
        <time>2023-05-23T11:13:20Z</time>
      </trkpt>
      <trkpt lat="49.16326" lon="-0.37604">
        <ele>8.4</ele>
        <time>2023-05-23T11:13:21Z</time>
      </trkpt>
      <trkpt lat="49.16321" lon="-0.37606">
        <ele>8.2</ele>
        <time>2023-05-23T11:13:22Z</time>
      </trkpt>
      <trkpt lat="49.16317" lon="-0.37609">
        <ele>8.2</ele>
        <time>2023-05-23T11:13:23Z</time>
      </trkpt>
      <trkpt lat="49.16312" lon="-0.37612">
        <ele>8.2</ele>
        <time>2023-05-23T11:13:24Z</time>
      </trkpt>
      <trkpt lat="49.16308" lon="-0.37615">
        <ele>8.2</ele>
        <time>2023-05-23T11:13:25Z</time>
      </trkpt>
      <trkpt lat="49.16303" lon="-0.37618">
        <ele>8</ele>
        <time>2023-05-23T11:13:26Z</time>
      </trkpt>
      <trkpt lat="49.16298" lon="-0.37622">
        <ele>8</ele>
        <time>2023-05-23T11:13:27Z</time>
      </trkpt>
      <trkpt lat="49.16293" lon="-0.37625">
        <ele>8</ele>
        <time>2023-05-23T11:13:28Z</time>
      </trkpt>
      <trkpt lat="49.16288" lon="-0.37629">
        <ele>8</ele>
        <time>2023-05-23T11:13:29Z</time>
      </trkpt>
      <trkpt lat="49.16282" lon="-0.37632">
        <ele>8</ele>
        <time>2023-05-23T11:13:30Z</time>
      </trkpt>
      <trkpt lat="49.16277" lon="-0.37635">
        <ele>8.2</ele>
        <time>2023-05-23T11:13:31Z</time>
      </trkpt>
      <trkpt lat="49.16271" lon="-0.37638">
        <ele>8.2</ele>
        <time>2023-05-23T11:13:32Z</time>
      </trkpt>
      <trkpt lat="49.16266" lon="-0.37641">
        <ele>8.2</ele>
        <time>2023-05-23T11:13:33Z</time>
      </trkpt>
      <trkpt lat="49.1626" lon="-0.37644">
        <ele>8.2</ele>
        <time>2023-05-23T11:13:34Z</time>
      </trkpt>
      <trkpt lat="49.16255" lon="-0.37648">
        <ele>8.2</ele>
        <time>2023-05-23T11:13:35Z</time>
      </trkpt>
      <trkpt lat="49.16249" lon="-0.37652">
        <ele>8.4</ele>
        <time>2023-05-23T11:13:36Z</time>
      </trkpt>
      <trkpt lat="49.16244" lon="-0.37656">
        <ele>8.2</ele>
        <time>2023-05-23T11:13:37Z</time>
      </trkpt>
      <trkpt lat="49.16238" lon="-0.3766">
        <ele>8.2</ele>
        <time>2023-05-23T11:13:38Z</time>
      </trkpt>
      <trkpt lat="49.16232" lon="-0.37664">
        <ele>8</ele>
        <time>2023-05-23T11:13:39Z</time>
      </trkpt>
      <trkpt lat="49.16227" lon="-0.37667">
        <ele>8</ele>
        <time>2023-05-23T11:13:40Z</time>
      </trkpt>
      <trkpt lat="49.16221" lon="-0.37671">
        <ele>7.6</ele>
        <time>2023-05-23T11:13:41Z</time>
      </trkpt>
      <trkpt lat="49.16215" lon="-0.37675">
        <ele>7.6</ele>
        <time>2023-05-23T11:13:42Z</time>
      </trkpt>
      <trkpt lat="49.1621" lon="-0.37678">
        <ele>7.4</ele>
        <time>2023-05-23T11:13:43Z</time>
      </trkpt>
      <trkpt lat="49.16204" lon="-0.37682">
        <ele>7</ele>
        <time>2023-05-23T11:13:44Z</time>
      </trkpt>
      <trkpt lat="49.16198" lon="-0.37685">
        <ele>7</ele>
        <time>2023-05-23T11:13:45Z</time>
      </trkpt>
      <trkpt lat="49.16192" lon="-0.37689">
        <ele>6.6</ele>
        <time>2023-05-23T11:13:46Z</time>
      </trkpt>
      <trkpt lat="49.16187" lon="-0.37692">
        <ele>6.6</ele>
        <time>2023-05-23T11:13:47Z</time>
      </trkpt>
      <trkpt lat="49.16181" lon="-0.37696">
        <ele>6.4</ele>
        <time>2023-05-23T11:13:48Z</time>
      </trkpt>
      <trkpt lat="49.16175" lon="-0.377">
        <ele>6</ele>
        <time>2023-05-23T11:13:49Z</time>
      </trkpt>
      <trkpt lat="49.16169" lon="-0.37703">
        <ele>6</ele>
        <time>2023-05-23T11:13:50Z</time>
      </trkpt>
      <trkpt lat="49.16163" lon="-0.37707">
        <ele>6</ele>
        <time>2023-05-23T11:13:51Z</time>
      </trkpt>
      <trkpt lat="49.16157" lon="-0.3771">
        <ele>6</ele>
        <time>2023-05-23T11:13:52Z</time>
      </trkpt>
      <trkpt lat="49.16151" lon="-0.37714">
        <ele>6</ele>
        <time>2023-05-23T11:13:53Z</time>
      </trkpt>
      <trkpt lat="49.16145" lon="-0.37718">
        <ele>6.2</ele>
        <time>2023-05-23T11:13:54Z</time>
      </trkpt>
      <trkpt lat="49.1614" lon="-0.37721">
        <ele>6.4</ele>
        <time>2023-05-23T11:13:55Z</time>
      </trkpt>
      <trkpt lat="49.16134" lon="-0.37725">
        <ele>6.4</ele>
        <time>2023-05-23T11:13:56Z</time>
      </trkpt>
      <trkpt lat="49.16128" lon="-0.37729">
        <ele>6.6</ele>
        <time>2023-05-23T11:13:57Z</time>
      </trkpt>
      <trkpt lat="49.16122" lon="-0.37732">
        <ele>6.6</ele>
        <time>2023-05-23T11:13:58Z</time>
      </trkpt>
      <trkpt lat="49.16116" lon="-0.37736">
        <ele>6.6</ele>
        <time>2023-05-23T11:13:59Z</time>
      </trkpt>
      <trkpt lat="49.1611" lon="-0.3774">
        <ele>6.8</ele>
        <time>2023-05-23T11:14:00Z</time>
      </trkpt>
      <trkpt lat="49.16105" lon="-0.37744">
        <ele>6.8</ele>
        <time>2023-05-23T11:14:01Z</time>
      </trkpt>
      <trkpt lat="49.16099" lon="-0.37747">
        <ele>7</ele>
        <time>2023-05-23T11:14:02Z</time>
      </trkpt>
      <trkpt lat="49.16093" lon="-0.37751">
        <ele>7</ele>
        <time>2023-05-23T11:14:03Z</time>
      </trkpt>
      <trkpt lat="49.16087" lon="-0.37755">
        <ele>7.2</ele>
        <time>2023-05-23T11:14:04Z</time>
      </trkpt>
      <trkpt lat="49.16081" lon="-0.37759">
        <ele>7.2</ele>
        <time>2023-05-23T11:14:05Z</time>
      </trkpt>
      <trkpt lat="49.16075" lon="-0.37762">
        <ele>7.2</ele>
        <time>2023-05-23T11:14:06Z</time>
      </trkpt>
      <trkpt lat="49.16069" lon="-0.37766">
        <ele>7</ele>
        <time>2023-05-23T11:14:07Z</time>
      </trkpt>
      <trkpt lat="49.16063" lon="-0.37769">
        <ele>7</ele>
        <time>2023-05-23T11:14:08Z</time>
      </trkpt>
      <trkpt lat="49.16057" lon="-0.37773">
        <ele>7</ele>
        <time>2023-05-23T11:14:09Z</time>
      </trkpt>
      <trkpt lat="49.16051" lon="-0.37777">
        <ele>7</ele>
        <time>2023-05-23T11:14:10Z</time>
      </trkpt>
      <trkpt lat="49.16046" lon="-0.37781">
        <ele>7</ele>
        <time>2023-05-23T11:14:11Z</time>
      </trkpt>
      <trkpt lat="49.1604" lon="-0.37784">
        <ele>7</ele>
        <time>2023-05-23T11:14:12Z</time>
      </trkpt>
      <trkpt lat="49.16034" lon="-0.37788">
        <ele>7</ele>
        <time>2023-05-23T11:14:13Z</time>
      </trkpt>
      <trkpt lat="49.16028" lon="-0.37792">
        <ele>7.2</ele>
        <time>2023-05-23T11:14:14Z</time>
      </trkpt>
      <trkpt lat="49.16022" lon="-0.37796">
        <ele>7.2</ele>
        <time>2023-05-23T11:14:15Z</time>
      </trkpt>
      <trkpt lat="49.16015" lon="-0.37799">
        <ele>7.4</ele>
        <time>2023-05-23T11:14:16Z</time>
      </trkpt>
      <trkpt lat="49.16009" lon="-0.37803">
        <ele>7.4</ele>
        <time>2023-05-23T11:14:17Z</time>
      </trkpt>
      <trkpt lat="49.16003" lon="-0.37807">
        <ele>7.6</ele>
        <time>2023-05-23T11:14:18Z</time>
      </trkpt>
      <trkpt lat="49.15997" lon="-0.37811">
        <ele>7.6</ele>
        <time>2023-05-23T11:14:19Z</time>
      </trkpt>
      <trkpt lat="49.1599" lon="-0.37815">
        <ele>7.6</ele>
        <time>2023-05-23T11:14:20Z</time>
      </trkpt>
      <trkpt lat="49.15984" lon="-0.37819">
        <ele>7.8</ele>
        <time>2023-05-23T11:14:21Z</time>
      </trkpt>
      <trkpt lat="49.15977" lon="-0.37823">
        <ele>8</ele>
        <time>2023-05-23T11:14:22Z</time>
      </trkpt>
      <trkpt lat="49.15971" lon="-0.37826">
        <ele>8</ele>
        <time>2023-05-23T11:14:23Z</time>
      </trkpt>
      <trkpt lat="49.15964" lon="-0.3783">
        <ele>8</ele>
        <time>2023-05-23T11:14:24Z</time>
      </trkpt>
      <trkpt lat="49.15958" lon="-0.37834">
        <ele>8</ele>
        <time>2023-05-23T11:14:25Z</time>
      </trkpt>
      <trkpt lat="49.15952" lon="-0.37837">
        <ele>8</ele>
        <time>2023-05-23T11:14:26Z</time>
      </trkpt>
      <trkpt lat="49.15946" lon="-0.37841">
        <ele>8</ele>
        <time>2023-05-23T11:14:27Z</time>
      </trkpt>
      <trkpt lat="49.1594" lon="-0.37844">
        <ele>7.8</ele>
        <time>2023-05-23T11:14:28Z</time>
      </trkpt>
      <trkpt lat="49.15935" lon="-0.37848">
        <ele>7.8</ele>
        <time>2023-05-23T11:14:29Z</time>
      </trkpt>
      <trkpt lat="49.15929" lon="-0.37852">
        <ele>7.6</ele>
        <time>2023-05-23T11:14:30Z</time>
      </trkpt>
      <trkpt lat="49.15924" lon="-0.37855">
        <ele>7.6</ele>
        <time>2023-05-23T11:14:31Z</time>
      </trkpt>
      <trkpt lat="49.15918" lon="-0.37859">
        <ele>7.6</ele>
        <time>2023-05-23T11:14:32Z</time>
      </trkpt>
      <trkpt lat="49.15912" lon="-0.37862">
        <ele>7.6</ele>
        <time>2023-05-23T11:14:33Z</time>
      </trkpt>
      <trkpt lat="49.15906" lon="-0.37866">
        <ele>7.6</ele>
        <time>2023-05-23T11:14:34Z</time>
      </trkpt>
      <trkpt lat="49.159" lon="-0.37869">
        <ele>7.6</ele>
        <time>2023-05-23T11:14:35Z</time>
      </trkpt>
      <trkpt lat="49.15894" lon="-0.37873">
        <ele>7.6</ele>
        <time>2023-05-23T11:14:36Z</time>
      </trkpt>
      <trkpt lat="49.15888" lon="-0.37877">
        <ele>7.6</ele>
        <time>2023-05-23T11:14:37Z</time>
      </trkpt>
      <trkpt lat="49.15882" lon="-0.37881">
        <ele>7.6</ele>
        <time>2023-05-23T11:14:38Z</time>
      </trkpt>
      <trkpt lat="49.15877" lon="-0.37885">
        <ele>7.8</ele>
        <time>2023-05-23T11:14:39Z</time>
      </trkpt>
      <trkpt lat="49.15871" lon="-0.37889">
        <ele>7.8</ele>
        <time>2023-05-23T11:14:40Z</time>
      </trkpt>
      <trkpt lat="49.15865" lon="-0.37893">
        <ele>7.8</ele>
        <time>2023-05-23T11:14:41Z</time>
      </trkpt>
      <trkpt lat="49.15859" lon="-0.37897">
        <ele>7.8</ele>
        <time>2023-05-23T11:14:42Z</time>
      </trkpt>
      <trkpt lat="49.15852" lon="-0.37901">
        <ele>8</ele>
        <time>2023-05-23T11:14:43Z</time>
      </trkpt>
      <trkpt lat="49.15846" lon="-0.37905">
        <ele>8</ele>
        <time>2023-05-23T11:14:44Z</time>
      </trkpt>
      <trkpt lat="49.15839" lon="-0.37909">
        <ele>8</ele>
        <time>2023-05-23T11:14:45Z</time>
      </trkpt>
      <trkpt lat="49.15833" lon="-0.37913">
        <ele>8</ele>
        <time>2023-05-23T11:14:46Z</time>
      </trkpt>
      <trkpt lat="49.15826" lon="-0.37917">
        <ele>7.8</ele>
        <time>2023-05-23T11:14:47Z</time>
      </trkpt>
      <trkpt lat="49.15819" lon="-0.37922">
        <ele>7.6</ele>
        <time>2023-05-23T11:14:48Z</time>
      </trkpt>
      <trkpt lat="49.15813" lon="-0.37926">
        <ele>7.6</ele>
        <time>2023-05-23T11:14:49Z</time>
      </trkpt>
      <trkpt lat="49.15806" lon="-0.37931">
        <ele>7.6</ele>
        <time>2023-05-23T11:14:50Z</time>
      </trkpt>
      <trkpt lat="49.15799" lon="-0.37935">
        <ele>7.6</ele>
        <time>2023-05-23T11:14:51Z</time>
      </trkpt>
      <trkpt lat="49.15793" lon="-0.37939">
        <ele>7.4</ele>
        <time>2023-05-23T11:14:52Z</time>
      </trkpt>
      <trkpt lat="49.15786" lon="-0.37943">
        <ele>7.4</ele>
        <time>2023-05-23T11:14:53Z</time>
      </trkpt>
      <trkpt lat="49.15779" lon="-0.37945">
        <ele>7.4</ele>
        <time>2023-05-23T11:14:54Z</time>
      </trkpt>
      <trkpt lat="49.15772" lon="-0.37945">
        <ele>7</ele>
        <time>2023-05-23T11:14:55Z</time>
      </trkpt>
      <trkpt lat="49.15766" lon="-0.37941">
        <ele>7</ele>
        <time>2023-05-23T11:14:56Z</time>
      </trkpt>
      <trkpt lat="49.15759" lon="-0.37938">
        <ele>6.6</ele>
        <time>2023-05-23T11:14:57Z</time>
      </trkpt>
      <trkpt lat="49.15752" lon="-0.37937">
        <ele>6.6</ele>
        <time>2023-05-23T11:14:58Z</time>
      </trkpt>
      <trkpt lat="49.15745" lon="-0.3794">
        <ele>6.6</ele>
        <time>2023-05-23T11:14:59Z</time>
      </trkpt>
      <trkpt lat="49.15738" lon="-0.37946">
        <ele>6.6</ele>
        <time>2023-05-23T11:15:00Z</time>
      </trkpt>
      <trkpt lat="49.15732" lon="-0.37952">
        <ele>7</ele>
        <time>2023-05-23T11:15:01Z</time>
      </trkpt>
      <trkpt lat="49.15725" lon="-0.37959">
        <ele>7.2</ele>
        <time>2023-05-23T11:15:02Z</time>
      </trkpt>
      <trkpt lat="49.15719" lon="-0.37966">
        <ele>7.4</ele>
        <time>2023-05-23T11:15:03Z</time>
      </trkpt>
      <trkpt lat="49.15712" lon="-0.37973">
        <ele>7.6</ele>
        <time>2023-05-23T11:15:04Z</time>
      </trkpt>
      <trkpt lat="49.15705" lon="-0.37981">
        <ele>8</ele>
        <time>2023-05-23T11:15:05Z</time>
      </trkpt>
      <trkpt lat="49.157" lon="-0.37991">
        <ele>8.4</ele>
        <time>2023-05-23T11:15:06Z</time>
      </trkpt>
      <trkpt lat="49.15695" lon="-0.38001">
        <ele>8.6</ele>
        <time>2023-05-23T11:15:07Z</time>
      </trkpt>
      <trkpt lat="49.1569" lon="-0.38011">
        <ele>8.6</ele>
        <time>2023-05-23T11:15:08Z</time>
      </trkpt>
      <trkpt lat="49.15686" lon="-0.38021">
        <ele>8.4</ele>
        <time>2023-05-23T11:15:09Z</time>
      </trkpt>
      <trkpt lat="49.15681" lon="-0.3803">
        <ele>8.2</ele>
        <time>2023-05-23T11:15:10Z</time>
      </trkpt>
      <trkpt lat="49.15676" lon="-0.38038">
        <ele>8</ele>
        <time>2023-05-23T11:15:11Z</time>
      </trkpt>
      <trkpt lat="49.1567" lon="-0.38043">
        <ele>8</ele>
        <time>2023-05-23T11:15:12Z</time>
      </trkpt>
      <trkpt lat="49.15663" lon="-0.38043">
        <ele>7.8</ele>
        <time>2023-05-23T11:15:13Z</time>
      </trkpt>
      <trkpt lat="49.15656" lon="-0.38042">
        <ele>7.6</ele>
        <time>2023-05-23T11:15:14Z</time>
      </trkpt>
      <trkpt lat="49.15649" lon="-0.38039">
        <ele>7.4</ele>
        <time>2023-05-23T11:15:15Z</time>
      </trkpt>
      <trkpt lat="49.15642" lon="-0.38037">
        <ele>7.2</ele>
        <time>2023-05-23T11:15:16Z</time>
      </trkpt>
      <trkpt lat="49.15635" lon="-0.38034">
        <ele>7</ele>
        <time>2023-05-23T11:15:17Z</time>
      </trkpt>
      <trkpt lat="49.15628" lon="-0.38031">
        <ele>6.6</ele>
        <time>2023-05-23T11:15:18Z</time>
      </trkpt>
      <trkpt lat="49.15621" lon="-0.38029">
        <ele>6.6</ele>
        <time>2023-05-23T11:15:19Z</time>
      </trkpt>
      <trkpt lat="49.15614" lon="-0.38026">
        <ele>6.2</ele>
        <time>2023-05-23T11:15:20Z</time>
      </trkpt>
      <trkpt lat="49.15607" lon="-0.38023">
        <ele>6</ele>
        <time>2023-05-23T11:15:21Z</time>
      </trkpt>
      <trkpt lat="49.156" lon="-0.38021">
        <ele>5.6</ele>
        <time>2023-05-23T11:15:22Z</time>
      </trkpt>
      <trkpt lat="49.15592" lon="-0.38018">
        <ele>5.4</ele>
        <time>2023-05-23T11:15:23Z</time>
      </trkpt>
      <trkpt lat="49.15585" lon="-0.38015">
        <ele>5</ele>
        <time>2023-05-23T11:15:24Z</time>
      </trkpt>
      <trkpt lat="49.15578" lon="-0.38012">
        <ele>5</ele>
        <time>2023-05-23T11:15:25Z</time>
      </trkpt>
      <trkpt lat="49.15571" lon="-0.3801">
        <ele>5</ele>
        <time>2023-05-23T11:15:26Z</time>
      </trkpt>
      <trkpt lat="49.15564" lon="-0.38007">
        <ele>5</ele>
        <time>2023-05-23T11:15:27Z</time>
      </trkpt>
      <trkpt lat="49.15557" lon="-0.38004">
        <ele>5</ele>
        <time>2023-05-23T11:15:28Z</time>
      </trkpt>
      <trkpt lat="49.1555" lon="-0.38001">
        <ele>5</ele>
        <time>2023-05-23T11:15:29Z</time>
      </trkpt>
      <trkpt lat="49.15543" lon="-0.37998">
        <ele>5</ele>
        <time>2023-05-23T11:15:30Z</time>
      </trkpt>
      <trkpt lat="49.15537" lon="-0.37995">
        <ele>5</ele>
        <time>2023-05-23T11:15:31Z</time>
      </trkpt>
      <trkpt lat="49.1553" lon="-0.37992">
        <ele>5</ele>
        <time>2023-05-23T11:15:32Z</time>
      </trkpt>
      <trkpt lat="49.15523" lon="-0.3799">
        <ele>4.8</ele>
        <time>2023-05-23T11:15:33Z</time>
      </trkpt>
      <trkpt lat="49.15517" lon="-0.37987">
        <ele>4.8</ele>
        <time>2023-05-23T11:15:34Z</time>
      </trkpt>
      <trkpt lat="49.1551" lon="-0.37985">
        <ele>4.8</ele>
        <time>2023-05-23T11:15:35Z</time>
      </trkpt>
      <trkpt lat="49.15504" lon="-0.37984">
        <ele>4.8</ele>
        <time>2023-05-23T11:15:36Z</time>
      </trkpt>
      <trkpt lat="49.15498" lon="-0.37985">
        <ele>4.8</ele>
        <time>2023-05-23T11:15:37Z</time>
      </trkpt>
      <trkpt lat="49.15493" lon="-0.37989">
        <ele>5</ele>
        <time>2023-05-23T11:15:38Z</time>
      </trkpt>
      <trkpt lat="49.1549" lon="-0.37996">
        <ele>5</ele>
        <time>2023-05-23T11:15:39Z</time>
      </trkpt>
      <trkpt lat="49.15487" lon="-0.38005">
        <ele>5</ele>
        <time>2023-05-23T11:15:40Z</time>
      </trkpt>
      <trkpt lat="49.15484" lon="-0.38013">
        <ele>5</ele>
        <time>2023-05-23T11:15:41Z</time>
      </trkpt>
      <trkpt lat="49.15481" lon="-0.38022">
        <ele>5</ele>
        <time>2023-05-23T11:15:42Z</time>
      </trkpt>
      <trkpt lat="49.15477" lon="-0.38031">
        <ele>5</ele>
        <time>2023-05-23T11:15:43Z</time>
      </trkpt>
      <trkpt lat="49.15473" lon="-0.3804">
        <ele>5</ele>
        <time>2023-05-23T11:15:44Z</time>
      </trkpt>
      <trkpt lat="49.15469" lon="-0.38049">
        <ele>5</ele>
        <time>2023-05-23T11:15:45Z</time>
      </trkpt>
      <trkpt lat="49.15465" lon="-0.38058">
        <ele>5</ele>
        <time>2023-05-23T11:15:46Z</time>
      </trkpt>
      <trkpt lat="49.15461" lon="-0.38067">
        <ele>5</ele>
        <time>2023-05-23T11:15:47Z</time>
      </trkpt>
      <trkpt lat="49.15457" lon="-0.38077">
        <ele>5</ele>
        <time>2023-05-23T11:15:48Z</time>
      </trkpt>
      <trkpt lat="49.15453" lon="-0.38086">
        <ele>5</ele>
        <time>2023-05-23T11:15:49Z</time>
      </trkpt>
      <trkpt lat="49.15448" lon="-0.38096">
        <ele>5</ele>
        <time>2023-05-23T11:15:50Z</time>
      </trkpt>
      <trkpt lat="49.15444" lon="-0.38106">
        <ele>5</ele>
        <time>2023-05-23T11:15:51Z</time>
      </trkpt>
      <trkpt lat="49.1544" lon="-0.38115">
        <ele>5</ele>
        <time>2023-05-23T11:15:52Z</time>
      </trkpt>
      <trkpt lat="49.15435" lon="-0.38124">
        <ele>5</ele>
        <time>2023-05-23T11:15:53Z</time>
      </trkpt>
      <trkpt lat="49.1543" lon="-0.38133">
        <ele>5</ele>
        <time>2023-05-23T11:15:54Z</time>
      </trkpt>
      <trkpt lat="49.15425" lon="-0.38141">
        <ele>5</ele>
        <time>2023-05-23T11:15:55Z</time>
      </trkpt>
      <trkpt lat="49.15419" lon="-0.38149">
        <ele>5</ele>
        <time>2023-05-23T11:15:56Z</time>
      </trkpt>
      <trkpt lat="49.15413" lon="-0.38155">
        <ele>5</ele>
        <time>2023-05-23T11:15:57Z</time>
      </trkpt>
      <trkpt lat="49.15407" lon="-0.38162">
        <ele>5</ele>
        <time>2023-05-23T11:15:58Z</time>
      </trkpt>
      <trkpt lat="49.154" lon="-0.38168">
        <ele>5</ele>
        <time>2023-05-23T11:15:59Z</time>
      </trkpt>
      <trkpt lat="49.15394" lon="-0.38174">
        <ele>5</ele>
        <time>2023-05-23T11:16:00Z</time>
      </trkpt>
      <trkpt lat="49.15388" lon="-0.3818">
        <ele>5</ele>
        <time>2023-05-23T11:16:01Z</time>
      </trkpt>
      <trkpt lat="49.15383" lon="-0.38186">
        <ele>5</ele>
        <time>2023-05-23T11:16:02Z</time>
      </trkpt>
      <trkpt lat="49.15377" lon="-0.38191">
        <ele>5</ele>
        <time>2023-05-23T11:16:03Z</time>
      </trkpt>
      <trkpt lat="49.15371" lon="-0.38195">
        <ele>4.8</ele>
        <time>2023-05-23T11:16:04Z</time>
      </trkpt>
      <trkpt lat="49.15365" lon="-0.382">
        <ele>4.8</ele>
        <time>2023-05-23T11:16:05Z</time>
      </trkpt>
      <trkpt lat="49.15359" lon="-0.38204">
        <ele>5</ele>
        <time>2023-05-23T11:16:06Z</time>
      </trkpt>
      <trkpt lat="49.15354" lon="-0.38208">
        <ele>5</ele>
        <time>2023-05-23T11:16:07Z</time>
      </trkpt>
      <trkpt lat="49.15348" lon="-0.38211">
        <ele>5</ele>
        <time>2023-05-23T11:16:08Z</time>
      </trkpt>
      <trkpt lat="49.15342" lon="-0.38215">
        <ele>5</ele>
        <time>2023-05-23T11:16:09Z</time>
      </trkpt>
      <trkpt lat="49.15336" lon="-0.38218">
        <ele>5</ele>
        <time>2023-05-23T11:16:10Z</time>
      </trkpt>
      <trkpt lat="49.15331" lon="-0.38222">
        <ele>5</ele>
        <time>2023-05-23T11:16:11Z</time>
      </trkpt>
      <trkpt lat="49.15325" lon="-0.38225">
        <ele>5</ele>
        <time>2023-05-23T11:16:12Z</time>
      </trkpt>
      <trkpt lat="49.15319" lon="-0.38229">
        <ele>5</ele>
        <time>2023-05-23T11:16:13Z</time>
      </trkpt>
      <trkpt lat="49.15313" lon="-0.38233">
        <ele>5</ele>
        <time>2023-05-23T11:16:14Z</time>
      </trkpt>
      <trkpt lat="49.15307" lon="-0.38236">
        <ele>5</ele>
        <time>2023-05-23T11:16:15Z</time>
      </trkpt>
      <trkpt lat="49.15301" lon="-0.3824">
        <ele>5</ele>
        <time>2023-05-23T11:16:16Z</time>
      </trkpt>
      <trkpt lat="49.15296" lon="-0.38243">
        <ele>5</ele>
        <time>2023-05-23T11:16:17Z</time>
      </trkpt>
      <trkpt lat="49.1529" lon="-0.38247">
        <ele>5</ele>
        <time>2023-05-23T11:16:18Z</time>
      </trkpt>
      <trkpt lat="49.15284" lon="-0.3825">
        <ele>5</ele>
        <time>2023-05-23T11:16:19Z</time>
      </trkpt>
      <trkpt lat="49.15279" lon="-0.38252">
        <ele>5</ele>
        <time>2023-05-23T11:16:20Z</time>
      </trkpt>
      <trkpt lat="49.15273" lon="-0.38255">
        <ele>5</ele>
        <time>2023-05-23T11:16:21Z</time>
      </trkpt>
      <trkpt lat="49.15268" lon="-0.38257">
        <ele>5</ele>
        <time>2023-05-23T11:16:22Z</time>
      </trkpt>
      <trkpt lat="49.15263" lon="-0.38259">
        <ele>5</ele>
        <time>2023-05-23T11:16:23Z</time>
      </trkpt>
      <trkpt lat="49.15258" lon="-0.38261">
        <ele>5</ele>
        <time>2023-05-23T11:16:24Z</time>
      </trkpt>
      <trkpt lat="49.15254" lon="-0.38262">
        <ele>5</ele>
        <time>2023-05-23T11:16:25Z</time>
      </trkpt>
      <trkpt lat="49.15249" lon="-0.38264">
        <ele>5</ele>
        <time>2023-05-23T11:16:26Z</time>
      </trkpt>
      <trkpt lat="49.15245" lon="-0.38267">
        <ele>5</ele>
        <time>2023-05-23T11:16:27Z</time>
      </trkpt>
      <trkpt lat="49.15241" lon="-0.38269">
        <ele>5.2</ele>
        <time>2023-05-23T11:16:28Z</time>
      </trkpt>
      <trkpt lat="49.15237" lon="-0.38272">
        <ele>5.4</ele>
        <time>2023-05-23T11:16:29Z</time>
      </trkpt>
      <trkpt lat="49.15233" lon="-0.38276">
        <ele>5.4</ele>
        <time>2023-05-23T11:16:30Z</time>
      </trkpt>
      <trkpt lat="49.15229" lon="-0.38281">
        <ele>5.6</ele>
        <time>2023-05-23T11:16:31Z</time>
      </trkpt>
      <trkpt lat="49.15223" lon="-0.38286">
        <ele>5.6</ele>
        <time>2023-05-23T11:16:32Z</time>
      </trkpt>
      <trkpt lat="49.15217" lon="-0.38292">
        <ele>5.8</ele>
        <time>2023-05-23T11:16:33Z</time>
      </trkpt>
      <trkpt lat="49.1521" lon="-0.38297">
        <ele>6</ele>
        <time>2023-05-23T11:16:34Z</time>
      </trkpt>
      <trkpt lat="49.15203" lon="-0.38303">
        <ele>6</ele>
        <time>2023-05-23T11:16:35Z</time>
      </trkpt>
      <trkpt lat="49.15196" lon="-0.38309">
        <ele>6.4</ele>
        <time>2023-05-23T11:16:36Z</time>
      </trkpt>
      <trkpt lat="49.15191" lon="-0.38314">
        <ele>6.4</ele>
        <time>2023-05-23T11:16:37Z</time>
      </trkpt>
      <trkpt lat="49.15185" lon="-0.38319">
        <ele>6.6</ele>
        <time>2023-05-23T11:16:38Z</time>
      </trkpt>
      <trkpt lat="49.15178" lon="-0.38324">
        <ele>6.6</ele>
        <time>2023-05-23T11:16:39Z</time>
      </trkpt>
      <trkpt lat="49.15172" lon="-0.38329">
        <ele>7</ele>
        <time>2023-05-23T11:16:40Z</time>
      </trkpt>
      <trkpt lat="49.15164" lon="-0.38334">
        <ele>7</ele>
        <time>2023-05-23T11:16:41Z</time>
      </trkpt>
      <trkpt lat="49.15157" lon="-0.38338">
        <ele>6.6</ele>
        <time>2023-05-23T11:16:42Z</time>
      </trkpt>
      <trkpt lat="49.1515" lon="-0.38343">
        <ele>6.4</ele>
        <time>2023-05-23T11:16:43Z</time>
      </trkpt>
      <trkpt lat="49.15143" lon="-0.38348">
        <ele>6</ele>
        <time>2023-05-23T11:16:44Z</time>
      </trkpt>
      <trkpt lat="49.15136" lon="-0.38352">
        <ele>6</ele>
        <time>2023-05-23T11:16:45Z</time>
      </trkpt>
      <trkpt lat="49.1513" lon="-0.38356">
        <ele>5.6</ele>
        <time>2023-05-23T11:16:46Z</time>
      </trkpt>
      <trkpt lat="49.15123" lon="-0.38361">
        <ele>5.6</ele>
        <time>2023-05-23T11:16:47Z</time>
      </trkpt>
      <trkpt lat="49.15116" lon="-0.38365">
        <ele>5.4</ele>
        <time>2023-05-23T11:16:48Z</time>
      </trkpt>
      <trkpt lat="49.15109" lon="-0.3837">
        <ele>5.2</ele>
        <time>2023-05-23T11:16:49Z</time>
      </trkpt>
      <trkpt lat="49.15102" lon="-0.38374">
        <ele>5</ele>
        <time>2023-05-23T11:16:50Z</time>
      </trkpt>
      <trkpt lat="49.15094" lon="-0.38379">
        <ele>5</ele>
        <time>2023-05-23T11:16:51Z</time>
      </trkpt>
      <trkpt lat="49.15087" lon="-0.38383">
        <ele>4.8</ele>
        <time>2023-05-23T11:16:52Z</time>
      </trkpt>
      <trkpt lat="49.1508" lon="-0.38388">
        <ele>4.6</ele>
        <time>2023-05-23T11:16:53Z</time>
      </trkpt>
      <trkpt lat="49.15074" lon="-0.38392">
        <ele>4.6</ele>
        <time>2023-05-23T11:16:54Z</time>
      </trkpt>
      <trkpt lat="49.15068" lon="-0.38397">
        <ele>4.6</ele>
        <time>2023-05-23T11:16:55Z</time>
      </trkpt>
      <trkpt lat="49.15061" lon="-0.38403">
        <ele>4.6</ele>
        <time>2023-05-23T11:16:56Z</time>
      </trkpt>
      <trkpt lat="49.15055" lon="-0.38408">
        <ele>4.6</ele>
        <time>2023-05-23T11:16:57Z</time>
      </trkpt>
      <trkpt lat="49.15048" lon="-0.38413">
        <ele>4.8</ele>
        <time>2023-05-23T11:16:58Z</time>
      </trkpt>
      <trkpt lat="49.15041" lon="-0.38417">
        <ele>5</ele>
        <time>2023-05-23T11:16:59Z</time>
      </trkpt>
      <trkpt lat="49.15034" lon="-0.38422">
        <ele>5.4</ele>
        <time>2023-05-23T11:17:00Z</time>
      </trkpt>
      <trkpt lat="49.15027" lon="-0.38426">
        <ele>5.6</ele>
        <time>2023-05-23T11:17:01Z</time>
      </trkpt>
      <trkpt lat="49.1502" lon="-0.3843">
        <ele>5.8</ele>
        <time>2023-05-23T11:17:02Z</time>
      </trkpt>
      <trkpt lat="49.15013" lon="-0.38434">
        <ele>6</ele>
        <time>2023-05-23T11:17:03Z</time>
      </trkpt>
      <trkpt lat="49.15006" lon="-0.38438">
        <ele>6.4</ele>
        <time>2023-05-23T11:17:04Z</time>
      </trkpt>
      <trkpt lat="49.15" lon="-0.38442">
        <ele>6.6</ele>
        <time>2023-05-23T11:17:05Z</time>
      </trkpt>
      <trkpt lat="49.14993" lon="-0.38446">
        <ele>6.6</ele>
        <time>2023-05-23T11:17:06Z</time>
      </trkpt>
      <trkpt lat="49.14986" lon="-0.38451">
        <ele>6.6</ele>
        <time>2023-05-23T11:17:07Z</time>
      </trkpt>
      <trkpt lat="49.14979" lon="-0.38455">
        <ele>6.6</ele>
        <time>2023-05-23T11:17:08Z</time>
      </trkpt>
      <trkpt lat="49.14971" lon="-0.38459">
        <ele>6.6</ele>
        <time>2023-05-23T11:17:09Z</time>
      </trkpt>
      <trkpt lat="49.14964" lon="-0.38464">
        <ele>6.6</ele>
        <time>2023-05-23T11:17:10Z</time>
      </trkpt>
      <trkpt lat="49.14957" lon="-0.38468">
        <ele>6.4</ele>
        <time>2023-05-23T11:17:11Z</time>
      </trkpt>
      <trkpt lat="49.14949" lon="-0.38472">
        <ele>6.4</ele>
        <time>2023-05-23T11:17:12Z</time>
      </trkpt>
      <trkpt lat="49.14942" lon="-0.38477">
        <ele>6.2</ele>
        <time>2023-05-23T11:17:13Z</time>
      </trkpt>
      <trkpt lat="49.14935" lon="-0.38481">
        <ele>6.2</ele>
        <time>2023-05-23T11:17:14Z</time>
      </trkpt>
      <trkpt lat="49.14928" lon="-0.38485">
        <ele>6</ele>
        <time>2023-05-23T11:17:15Z</time>
      </trkpt>
      <trkpt lat="49.14921" lon="-0.38489">
        <ele>6</ele>
        <time>2023-05-23T11:17:16Z</time>
      </trkpt>
      <trkpt lat="49.14913" lon="-0.38492">
        <ele>6</ele>
        <time>2023-05-23T11:17:17Z</time>
      </trkpt>
      <trkpt lat="49.14906" lon="-0.38496">
        <ele>5.8</ele>
        <time>2023-05-23T11:17:18Z</time>
      </trkpt>
      <trkpt lat="49.14899" lon="-0.38499">
        <ele>5.8</ele>
        <time>2023-05-23T11:17:19Z</time>
      </trkpt>
      <trkpt lat="49.14892" lon="-0.38503">
        <ele>5.6</ele>
        <time>2023-05-23T11:17:20Z</time>
      </trkpt>
      <trkpt lat="49.14885" lon="-0.38507">
        <ele>5.6</ele>
        <time>2023-05-23T11:17:21Z</time>
      </trkpt>
      <trkpt lat="49.14878" lon="-0.38512">
        <ele>5.4</ele>
        <time>2023-05-23T11:17:22Z</time>
      </trkpt>
      <trkpt lat="49.14871" lon="-0.38516">
        <ele>5.4</ele>
        <time>2023-05-23T11:17:23Z</time>
      </trkpt>
      <trkpt lat="49.14864" lon="-0.38521">
        <ele>5.2</ele>
        <time>2023-05-23T11:17:24Z</time>
      </trkpt>
      <trkpt lat="49.14857" lon="-0.38526">
        <ele>5</ele>
        <time>2023-05-23T11:17:25Z</time>
      </trkpt>
      <trkpt lat="49.1485" lon="-0.38531">
        <ele>5</ele>
        <time>2023-05-23T11:17:26Z</time>
      </trkpt>
      <trkpt lat="49.14843" lon="-0.38536">
        <ele>5</ele>
        <time>2023-05-23T11:17:27Z</time>
      </trkpt>
      <trkpt lat="49.14836" lon="-0.38541">
        <ele>5</ele>
        <time>2023-05-23T11:17:28Z</time>
      </trkpt>
      <trkpt lat="49.1483" lon="-0.38545">
        <ele>5</ele>
        <time>2023-05-23T11:17:29Z</time>
      </trkpt>
      <trkpt lat="49.14823" lon="-0.3855">
        <ele>5</ele>
        <time>2023-05-23T11:17:30Z</time>
      </trkpt>
      <trkpt lat="49.14816" lon="-0.38554">
        <ele>5</ele>
        <time>2023-05-23T11:17:31Z</time>
      </trkpt>
      <trkpt lat="49.1481" lon="-0.38558">
        <ele>4.8</ele>
        <time>2023-05-23T11:17:32Z</time>
      </trkpt>
      <trkpt lat="49.14803" lon="-0.38562">
        <ele>4.6</ele>
        <time>2023-05-23T11:17:33Z</time>
      </trkpt>
      <trkpt lat="49.14797" lon="-0.38567">
        <ele>4.6</ele>
        <time>2023-05-23T11:17:34Z</time>
      </trkpt>
      <trkpt lat="49.1479" lon="-0.38571">
        <ele>4.6</ele>
        <time>2023-05-23T11:17:35Z</time>
      </trkpt>
      <trkpt lat="49.14784" lon="-0.38576">
        <ele>4.6</ele>
        <time>2023-05-23T11:17:36Z</time>
      </trkpt>
      <trkpt lat="49.14777" lon="-0.3858">
        <ele>4.4</ele>
        <time>2023-05-23T11:17:37Z</time>
      </trkpt>
      <trkpt lat="49.1477" lon="-0.38585">
        <ele>4.4</ele>
        <time>2023-05-23T11:17:38Z</time>
      </trkpt>
      <trkpt lat="49.14763" lon="-0.3859">
        <ele>4.2</ele>
        <time>2023-05-23T11:17:39Z</time>
      </trkpt>
      <trkpt lat="49.14756" lon="-0.38594">
        <ele>4.2</ele>
        <time>2023-05-23T11:17:40Z</time>
      </trkpt>
      <trkpt lat="49.14749" lon="-0.38599">
        <ele>4.2</ele>
        <time>2023-05-23T11:17:41Z</time>
      </trkpt>
      <trkpt lat="49.14742" lon="-0.38604">
        <ele>4.4</ele>
        <time>2023-05-23T11:17:42Z</time>
      </trkpt>
      <trkpt lat="49.14735" lon="-0.38609">
        <ele>4.6</ele>
        <time>2023-05-23T11:17:43Z</time>
      </trkpt>
      <trkpt lat="49.14728" lon="-0.38614">
        <ele>4.8</ele>
        <time>2023-05-23T11:17:44Z</time>
      </trkpt>
      <trkpt lat="49.14721" lon="-0.38619">
        <ele>5</ele>
        <time>2023-05-23T11:17:45Z</time>
      </trkpt>
      <trkpt lat="49.14714" lon="-0.38624">
        <ele>5</ele>
        <time>2023-05-23T11:17:46Z</time>
      </trkpt>
      <trkpt lat="49.14707" lon="-0.3863">
        <ele>5.4</ele>
        <time>2023-05-23T11:17:47Z</time>
      </trkpt>
      <trkpt lat="49.14701" lon="-0.38635">
        <ele>5.4</ele>
        <time>2023-05-23T11:17:48Z</time>
      </trkpt>
      <trkpt lat="49.14694" lon="-0.3864">
        <ele>5.6</ele>
        <time>2023-05-23T11:17:49Z</time>
      </trkpt>
      <trkpt lat="49.14687" lon="-0.38646">
        <ele>5.6</ele>
        <time>2023-05-23T11:17:50Z</time>
      </trkpt>
      <trkpt lat="49.1468" lon="-0.38652">
        <ele>5.8</ele>
        <time>2023-05-23T11:17:51Z</time>
      </trkpt>
      <trkpt lat="49.14673" lon="-0.38657">
        <ele>6</ele>
        <time>2023-05-23T11:17:52Z</time>
      </trkpt>
      <trkpt lat="49.14666" lon="-0.38663">
        <ele>6</ele>
        <time>2023-05-23T11:17:53Z</time>
      </trkpt>
      <trkpt lat="49.14659" lon="-0.38669">
        <ele>5.8</ele>
        <time>2023-05-23T11:17:54Z</time>
      </trkpt>
      <trkpt lat="49.14652" lon="-0.38674">
        <ele>5.6</ele>
        <time>2023-05-23T11:17:55Z</time>
      </trkpt>
      <trkpt lat="49.14645" lon="-0.3868">
        <ele>5.4</ele>
        <time>2023-05-23T11:17:56Z</time>
      </trkpt>
      <trkpt lat="49.14639" lon="-0.38685">
        <ele>5.2</ele>
        <time>2023-05-23T11:17:57Z</time>
      </trkpt>
      <trkpt lat="49.14632" lon="-0.3869">
        <ele>5</ele>
        <time>2023-05-23T11:17:58Z</time>
      </trkpt>
      <trkpt lat="49.14626" lon="-0.38695">
        <ele>4.8</ele>
        <time>2023-05-23T11:17:59Z</time>
      </trkpt>
      <trkpt lat="49.1462" lon="-0.387">
        <ele>4.6</ele>
        <time>2023-05-23T11:18:00Z</time>
      </trkpt>
      <trkpt lat="49.14614" lon="-0.38704">
        <ele>4.6</ele>
        <time>2023-05-23T11:18:01Z</time>
      </trkpt>
      <trkpt lat="49.14608" lon="-0.38708">
        <ele>4.4</ele>
        <time>2023-05-23T11:18:02Z</time>
      </trkpt>
      <trkpt lat="49.14602" lon="-0.38712">
        <ele>4.4</ele>
        <time>2023-05-23T11:18:03Z</time>
      </trkpt>
      <trkpt lat="49.14595" lon="-0.38718">
        <ele>4.2</ele>
        <time>2023-05-23T11:18:04Z</time>
      </trkpt>
      <trkpt lat="49.14589" lon="-0.38723">
        <ele>4</ele>
        <time>2023-05-23T11:18:05Z</time>
      </trkpt>
      <trkpt lat="49.14582" lon="-0.38728">
        <ele>4</ele>
        <time>2023-05-23T11:18:06Z</time>
      </trkpt>
      <trkpt lat="49.14576" lon="-0.38734">
        <ele>4</ele>
        <time>2023-05-23T11:18:07Z</time>
      </trkpt>
      <trkpt lat="49.14569" lon="-0.3874">
        <ele>4</ele>
        <time>2023-05-23T11:18:08Z</time>
      </trkpt>
      <trkpt lat="49.14563" lon="-0.38745">
        <ele>4</ele>
        <time>2023-05-23T11:18:09Z</time>
      </trkpt>
      <trkpt lat="49.14556" lon="-0.38751">
        <ele>4</ele>
        <time>2023-05-23T11:18:10Z</time>
      </trkpt>
      <trkpt lat="49.1455" lon="-0.38757">
        <ele>4</ele>
        <time>2023-05-23T11:18:11Z</time>
      </trkpt>
      <trkpt lat="49.14544" lon="-0.38762">
        <ele>4</ele>
        <time>2023-05-23T11:18:12Z</time>
      </trkpt>
      <trkpt lat="49.14537" lon="-0.38768">
        <ele>4</ele>
        <time>2023-05-23T11:18:13Z</time>
      </trkpt>
      <trkpt lat="49.14531" lon="-0.38773">
        <ele>4</ele>
        <time>2023-05-23T11:18:14Z</time>
      </trkpt>
      <trkpt lat="49.14525" lon="-0.38779">
        <ele>4</ele>
        <time>2023-05-23T11:18:15Z</time>
      </trkpt>
      <trkpt lat="49.14519" lon="-0.38784">
        <ele>4</ele>
        <time>2023-05-23T11:18:16Z</time>
      </trkpt>
      <trkpt lat="49.14513" lon="-0.3879">
        <ele>4</ele>
        <time>2023-05-23T11:18:17Z</time>
      </trkpt>
      <trkpt lat="49.14506" lon="-0.38795">
        <ele>4</ele>
        <time>2023-05-23T11:18:18Z</time>
      </trkpt>
      <trkpt lat="49.145" lon="-0.388">
        <ele>4</ele>
        <time>2023-05-23T11:18:19Z</time>
      </trkpt>
      <trkpt lat="49.14494" lon="-0.38806">
        <ele>4</ele>
        <time>2023-05-23T11:18:20Z</time>
      </trkpt>
      <trkpt lat="49.14488" lon="-0.38811">
        <ele>4</ele>
        <time>2023-05-23T11:18:21Z</time>
      </trkpt>
      <trkpt lat="49.14482" lon="-0.38817">
        <ele>4.2</ele>
        <time>2023-05-23T11:18:22Z</time>
      </trkpt>
      <trkpt lat="49.14475" lon="-0.38823">
        <ele>4.4</ele>
        <time>2023-05-23T11:18:23Z</time>
      </trkpt>
      <trkpt lat="49.14469" lon="-0.38829">
        <ele>4.4</ele>
        <time>2023-05-23T11:18:24Z</time>
      </trkpt>
      <trkpt lat="49.14464" lon="-0.38835">
        <ele>4.4</ele>
        <time>2023-05-23T11:18:25Z</time>
      </trkpt>
      <trkpt lat="49.14458" lon="-0.38843">
        <ele>4.4</ele>
        <time>2023-05-23T11:18:26Z</time>
      </trkpt>
      <trkpt lat="49.14454" lon="-0.3885">
        <ele>4.4</ele>
        <time>2023-05-23T11:18:27Z</time>
      </trkpt>
      <trkpt lat="49.14449" lon="-0.38858">
        <ele>4.4</ele>
        <time>2023-05-23T11:18:28Z</time>
      </trkpt>
      <trkpt lat="49.14445" lon="-0.38864">
        <ele>4.4</ele>
        <time>2023-05-23T11:18:29Z</time>
      </trkpt>
      <trkpt lat="49.14442" lon="-0.3887">
        <ele>4.4</ele>
        <time>2023-05-23T11:18:30Z</time>
      </trkpt>
      <trkpt lat="49.14437" lon="-0.38875">
        <ele>4.6</ele>
        <time>2023-05-23T11:18:31Z</time>
      </trkpt>
      <trkpt lat="49.14433" lon="-0.38878">
        <ele>4.6</ele>
        <time>2023-05-23T11:18:32Z</time>
      </trkpt>
      <trkpt lat="49.14428" lon="-0.38881">
        <ele>4.6</ele>
        <time>2023-05-23T11:18:33Z</time>
      </trkpt>
      <trkpt lat="49.14423" lon="-0.38884">
        <ele>4.8</ele>
        <time>2023-05-23T11:18:34Z</time>
      </trkpt>
      <trkpt lat="49.14418" lon="-0.38887">
        <ele>5</ele>
        <time>2023-05-23T11:18:35Z</time>
      </trkpt>
      <trkpt lat="49.14413" lon="-0.3889">
        <ele>5</ele>
        <time>2023-05-23T11:18:36Z</time>
      </trkpt>
      <trkpt lat="49.14407" lon="-0.38894">
        <ele>4.8</ele>
        <time>2023-05-23T11:18:37Z</time>
      </trkpt>
      <trkpt lat="49.144" lon="-0.38897">
        <ele>4.8</ele>
        <time>2023-05-23T11:18:38Z</time>
      </trkpt>
      <trkpt lat="49.14394" lon="-0.38901">
        <ele>4.6</ele>
        <time>2023-05-23T11:18:39Z</time>
      </trkpt>
      <trkpt lat="49.14388" lon="-0.38905">
        <ele>4.6</ele>
        <time>2023-05-23T11:18:40Z</time>
      </trkpt>
      <trkpt lat="49.14381" lon="-0.38909">
        <ele>4.6</ele>
        <time>2023-05-23T11:18:41Z</time>
      </trkpt>
      <trkpt lat="49.14374" lon="-0.38914">
        <ele>4.6</ele>
        <time>2023-05-23T11:18:42Z</time>
      </trkpt>
      <trkpt lat="49.14368" lon="-0.38921">
        <ele>4.4</ele>
        <time>2023-05-23T11:18:43Z</time>
      </trkpt>
      <trkpt lat="49.14361" lon="-0.38928">
        <ele>4.4</ele>
        <time>2023-05-23T11:18:44Z</time>
      </trkpt>
      <trkpt lat="49.14355" lon="-0.38935">
        <ele>4.2</ele>
        <time>2023-05-23T11:18:45Z</time>
      </trkpt>
      <trkpt lat="49.14348" lon="-0.38941">
        <ele>4</ele>
        <time>2023-05-23T11:18:46Z</time>
      </trkpt>
      <trkpt lat="49.14342" lon="-0.38948">
        <ele>4</ele>
        <time>2023-05-23T11:18:47Z</time>
      </trkpt>
      <trkpt lat="49.14335" lon="-0.38955">
        <ele>4</ele>
        <time>2023-05-23T11:18:48Z</time>
      </trkpt>
      <trkpt lat="49.14329" lon="-0.38961">
        <ele>4</ele>
        <time>2023-05-23T11:18:49Z</time>
      </trkpt>
      <trkpt lat="49.14323" lon="-0.38968">
        <ele>4.2</ele>
        <time>2023-05-23T11:18:50Z</time>
      </trkpt>
      <trkpt lat="49.14317" lon="-0.38974">
        <ele>4.4</ele>
        <time>2023-05-23T11:18:51Z</time>
      </trkpt>
      <trkpt lat="49.1431" lon="-0.3898">
        <ele>4.4</ele>
        <time>2023-05-23T11:18:52Z</time>
      </trkpt>
      <trkpt lat="49.14304" lon="-0.38986">
        <ele>4.4</ele>
        <time>2023-05-23T11:18:53Z</time>
      </trkpt>
      <trkpt lat="49.14298" lon="-0.38992">
        <ele>4.6</ele>
        <time>2023-05-23T11:18:54Z</time>
      </trkpt>
      <trkpt lat="49.14292" lon="-0.38999">
        <ele>4.6</ele>
        <time>2023-05-23T11:18:55Z</time>
      </trkpt>
      <trkpt lat="49.14286" lon="-0.39005">
        <ele>4.6</ele>
        <time>2023-05-23T11:18:56Z</time>
      </trkpt>
      <trkpt lat="49.1428" lon="-0.39011">
        <ele>4.6</ele>
        <time>2023-05-23T11:18:57Z</time>
      </trkpt>
      <trkpt lat="49.14274" lon="-0.39017">
        <ele>4.6</ele>
        <time>2023-05-23T11:18:58Z</time>
      </trkpt>
      <trkpt lat="49.14269" lon="-0.39024">
        <ele>4.6</ele>
        <time>2023-05-23T11:18:59Z</time>
      </trkpt>
      <trkpt lat="49.14263" lon="-0.3903">
        <ele>4.6</ele>
        <time>2023-05-23T11:19:00Z</time>
      </trkpt>
      <trkpt lat="49.14257" lon="-0.39037">
        <ele>4.6</ele>
        <time>2023-05-23T11:19:01Z</time>
      </trkpt>
      <trkpt lat="49.14251" lon="-0.39043">
        <ele>4.6</ele>
        <time>2023-05-23T11:19:02Z</time>
      </trkpt>
      <trkpt lat="49.14244" lon="-0.3905">
        <ele>4.6</ele>
        <time>2023-05-23T11:19:03Z</time>
      </trkpt>
      <trkpt lat="49.14238" lon="-0.39056">
        <ele>4.6</ele>
        <time>2023-05-23T11:19:04Z</time>
      </trkpt>
      <trkpt lat="49.14232" lon="-0.39063">
        <ele>4.6</ele>
        <time>2023-05-23T11:19:05Z</time>
      </trkpt>
      <trkpt lat="49.14226" lon="-0.39069">
        <ele>4.6</ele>
        <time>2023-05-23T11:19:06Z</time>
      </trkpt>
      <trkpt lat="49.1422" lon="-0.39075">
        <ele>4.6</ele>
        <time>2023-05-23T11:19:07Z</time>
      </trkpt>
      <trkpt lat="49.14214" lon="-0.39081">
        <ele>4.6</ele>
        <time>2023-05-23T11:19:08Z</time>
      </trkpt>
      <trkpt lat="49.14208" lon="-0.39088">
        <ele>4.4</ele>
        <time>2023-05-23T11:19:09Z</time>
      </trkpt>
      <trkpt lat="49.14202" lon="-0.39094">
        <ele>4.4</ele>
        <time>2023-05-23T11:19:10Z</time>
      </trkpt>
      <trkpt lat="49.14196" lon="-0.39101">
        <ele>4.4</ele>
        <time>2023-05-23T11:19:11Z</time>
      </trkpt>
      <trkpt lat="49.1419" lon="-0.39108">
        <ele>4.2</ele>
        <time>2023-05-23T11:19:12Z</time>
      </trkpt>
      <trkpt lat="49.14184" lon="-0.39115">
        <ele>4</ele>
        <time>2023-05-23T11:19:13Z</time>
      </trkpt>
      <trkpt lat="49.14177" lon="-0.39121">
        <ele>4</ele>
        <time>2023-05-23T11:19:14Z</time>
      </trkpt>
      <trkpt lat="49.14171" lon="-0.39128">
        <ele>4</ele>
        <time>2023-05-23T11:19:15Z</time>
      </trkpt>
      <trkpt lat="49.14165" lon="-0.39134">
        <ele>3.8</ele>
        <time>2023-05-23T11:19:16Z</time>
      </trkpt>
      <trkpt lat="49.14159" lon="-0.3914">
        <ele>3.8</ele>
        <time>2023-05-23T11:19:17Z</time>
      </trkpt>
      <trkpt lat="49.14152" lon="-0.39146">
        <ele>3.8</ele>
        <time>2023-05-23T11:19:18Z</time>
      </trkpt>
      <trkpt lat="49.14146" lon="-0.39152">
        <ele>3.8</ele>
        <time>2023-05-23T11:19:19Z</time>
      </trkpt>
      <trkpt lat="49.1414" lon="-0.39159">
        <ele>3.8</ele>
        <time>2023-05-23T11:19:20Z</time>
      </trkpt>
      <trkpt lat="49.14133" lon="-0.39165">
        <ele>3.8</ele>
        <time>2023-05-23T11:19:21Z</time>
      </trkpt>
      <trkpt lat="49.14127" lon="-0.39172">
        <ele>4</ele>
        <time>2023-05-23T11:19:22Z</time>
      </trkpt>
      <trkpt lat="49.1412" lon="-0.39179">
        <ele>4</ele>
        <time>2023-05-23T11:19:23Z</time>
      </trkpt>
      <trkpt lat="49.14114" lon="-0.39185">
        <ele>4.2</ele>
        <time>2023-05-23T11:19:24Z</time>
      </trkpt>
      <trkpt lat="49.14108" lon="-0.39192">
        <ele>4.4</ele>
        <time>2023-05-23T11:19:25Z</time>
      </trkpt>
      <trkpt lat="49.14101" lon="-0.39198">
        <ele>4.4</ele>
        <time>2023-05-23T11:19:26Z</time>
      </trkpt>
      <trkpt lat="49.14095" lon="-0.39204">
        <ele>4.4</ele>
        <time>2023-05-23T11:19:27Z</time>
      </trkpt>
      <trkpt lat="49.14088" lon="-0.3921">
        <ele>4.4</ele>
        <time>2023-05-23T11:19:28Z</time>
      </trkpt>
      <trkpt lat="49.14082" lon="-0.39216">
        <ele>4.4</ele>
        <time>2023-05-23T11:19:29Z</time>
      </trkpt>
      <trkpt lat="49.14075" lon="-0.39222">
        <ele>4.6</ele>
        <time>2023-05-23T11:19:30Z</time>
      </trkpt>
      <trkpt lat="49.14069" lon="-0.39228">
        <ele>4.6</ele>
        <time>2023-05-23T11:19:31Z</time>
      </trkpt>
      <trkpt lat="49.14064" lon="-0.39233">
        <ele>4.6</ele>
        <time>2023-05-23T11:19:32Z</time>
      </trkpt>
      <trkpt lat="49.14058" lon="-0.39239">
        <ele>4.6</ele>
        <time>2023-05-23T11:19:33Z</time>
      </trkpt>
      <trkpt lat="49.14053" lon="-0.39244">
        <ele>4.6</ele>
        <time>2023-05-23T11:19:34Z</time>
      </trkpt>
      <trkpt lat="49.14048" lon="-0.3925">
        <ele>4.4</ele>
        <time>2023-05-23T11:19:35Z</time>
      </trkpt>
      <trkpt lat="49.14043" lon="-0.39255">
        <ele>4.4</ele>
        <time>2023-05-23T11:19:36Z</time>
      </trkpt>
      <trkpt lat="49.14038" lon="-0.39261">
        <ele>4.4</ele>
        <time>2023-05-23T11:19:37Z</time>
      </trkpt>
      <trkpt lat="49.14033" lon="-0.39267">
        <ele>4.4</ele>
        <time>2023-05-23T11:19:38Z</time>
      </trkpt>
      <trkpt lat="49.14028" lon="-0.39273">
        <ele>4.2</ele>
        <time>2023-05-23T11:19:39Z</time>
      </trkpt>
      <trkpt lat="49.14022" lon="-0.39279">
        <ele>4</ele>
        <time>2023-05-23T11:19:40Z</time>
      </trkpt>
      <trkpt lat="49.14016" lon="-0.39285">
        <ele>4</ele>
        <time>2023-05-23T11:19:41Z</time>
      </trkpt>
      <trkpt lat="49.1401" lon="-0.39291">
        <ele>4</ele>
        <time>2023-05-23T11:19:42Z</time>
      </trkpt>
      <trkpt lat="49.14004" lon="-0.39298">
        <ele>3.8</ele>
        <time>2023-05-23T11:19:43Z</time>
      </trkpt>
      <trkpt lat="49.13998" lon="-0.39304">
        <ele>3.8</ele>
        <time>2023-05-23T11:19:44Z</time>
      </trkpt>
      <trkpt lat="49.13992" lon="-0.3931">
        <ele>4</ele>
        <time>2023-05-23T11:19:45Z</time>
      </trkpt>
      <trkpt lat="49.13986" lon="-0.39317">
        <ele>4</ele>
        <time>2023-05-23T11:19:46Z</time>
      </trkpt>
      <trkpt lat="49.1398" lon="-0.39323">
        <ele>4</ele>
        <time>2023-05-23T11:19:47Z</time>
      </trkpt>
      <trkpt lat="49.13974" lon="-0.39329">
        <ele>4</ele>
        <time>2023-05-23T11:19:48Z</time>
      </trkpt>
      <trkpt lat="49.13968" lon="-0.39336">
        <ele>4.2</ele>
        <time>2023-05-23T11:19:49Z</time>
      </trkpt>
      <trkpt lat="49.13962" lon="-0.39342">
        <ele>4.4</ele>
        <time>2023-05-23T11:19:50Z</time>
      </trkpt>
      <trkpt lat="49.13956" lon="-0.39348">
        <ele>4.6</ele>
        <time>2023-05-23T11:19:51Z</time>
      </trkpt>
      <trkpt lat="49.1395" lon="-0.39354">
        <ele>4.8</ele>
        <time>2023-05-23T11:19:52Z</time>
      </trkpt>
      <trkpt lat="49.13944" lon="-0.39361">
        <ele>5</ele>
        <time>2023-05-23T11:19:53Z</time>
      </trkpt>
      <trkpt lat="49.13938" lon="-0.39367">
        <ele>5</ele>
        <time>2023-05-23T11:19:54Z</time>
      </trkpt>
      <trkpt lat="49.13932" lon="-0.39373">
        <ele>5</ele>
        <time>2023-05-23T11:19:55Z</time>
      </trkpt>
      <trkpt lat="49.13926" lon="-0.3938">
        <ele>5.2</ele>
        <time>2023-05-23T11:19:56Z</time>
      </trkpt>
      <trkpt lat="49.1392" lon="-0.39386">
        <ele>5.4</ele>
        <time>2023-05-23T11:19:57Z</time>
      </trkpt>
      <trkpt lat="49.13914" lon="-0.39392">
        <ele>5.4</ele>
        <time>2023-05-23T11:19:58Z</time>
      </trkpt>
      <trkpt lat="49.13908" lon="-0.39399">
        <ele>5.6</ele>
        <time>2023-05-23T11:19:59Z</time>
      </trkpt>
      <trkpt lat="49.13902" lon="-0.39405">
        <ele>5.6</ele>
        <time>2023-05-23T11:20:00Z</time>
      </trkpt>
      <trkpt lat="49.13896" lon="-0.39411">
        <ele>5.8</ele>
        <time>2023-05-23T11:20:01Z</time>
      </trkpt>
      <trkpt lat="49.1389" lon="-0.39418">
        <ele>6</ele>
        <time>2023-05-23T11:20:02Z</time>
      </trkpt>
      <trkpt lat="49.13884" lon="-0.39424">
        <ele>6.4</ele>
        <time>2023-05-23T11:20:03Z</time>
      </trkpt>
      <trkpt lat="49.13877" lon="-0.3943">
        <ele>6.6</ele>
        <time>2023-05-23T11:20:04Z</time>
      </trkpt>
      <trkpt lat="49.13872" lon="-0.39437">
        <ele>6.6</ele>
        <time>2023-05-23T11:20:05Z</time>
      </trkpt>
      <trkpt lat="49.13866" lon="-0.39443">
        <ele>6.8</ele>
        <time>2023-05-23T11:20:06Z</time>
      </trkpt>
      <trkpt lat="49.1386" lon="-0.39449">
        <ele>7</ele>
        <time>2023-05-23T11:20:07Z</time>
      </trkpt>
      <trkpt lat="49.13854" lon="-0.39455">
        <ele>7</ele>
        <time>2023-05-23T11:20:08Z</time>
      </trkpt>
      <trkpt lat="49.13848" lon="-0.39461">
        <ele>7</ele>
        <time>2023-05-23T11:20:09Z</time>
      </trkpt>
      <trkpt lat="49.13842" lon="-0.39467">
        <ele>6.8</ele>
        <time>2023-05-23T11:20:10Z</time>
      </trkpt>
      <trkpt lat="49.13837" lon="-0.39474">
        <ele>6.6</ele>
        <time>2023-05-23T11:20:11Z</time>
      </trkpt>
      <trkpt lat="49.13831" lon="-0.3948">
        <ele>6.6</ele>
        <time>2023-05-23T11:20:12Z</time>
      </trkpt>
      <trkpt lat="49.13827" lon="-0.39487">
        <ele>6.4</ele>
        <time>2023-05-23T11:20:13Z</time>
      </trkpt>
      <trkpt lat="49.13822" lon="-0.39493">
        <ele>6</ele>
        <time>2023-05-23T11:20:14Z</time>
      </trkpt>
      <trkpt lat="49.13818" lon="-0.39497">
        <ele>6</ele>
        <time>2023-05-23T11:20:15Z</time>
      </trkpt>
      <trkpt lat="49.13814" lon="-0.39498">
        <ele>5.8</ele>
        <time>2023-05-23T11:20:16Z</time>
      </trkpt>
      <trkpt lat="49.13811" lon="-0.39497">
        <ele>5.8</ele>
        <time>2023-05-23T11:20:17Z</time>
      </trkpt>
      <trkpt lat="49.13807" lon="-0.39495">
        <ele>5.8</ele>
        <time>2023-05-23T11:20:18Z</time>
      </trkpt>
      <trkpt lat="49.13803" lon="-0.39493">
        <ele>6</ele>
        <time>2023-05-23T11:20:19Z</time>
      </trkpt>
      <trkpt lat="49.138" lon="-0.39492">
        <ele>6</ele>
        <time>2023-05-23T11:20:20Z</time>
      </trkpt>
      <trkpt lat="49.13796" lon="-0.39492">
        <ele>5.8</ele>
        <time>2023-05-23T11:20:21Z</time>
      </trkpt>
      <trkpt lat="49.13793" lon="-0.39496">
        <ele>5.6</ele>
        <time>2023-05-23T11:20:22Z</time>
      </trkpt>
      <trkpt lat="49.1379" lon="-0.39501">
        <ele>5.6</ele>
        <time>2023-05-23T11:20:23Z</time>
      </trkpt>
      <trkpt lat="49.13785" lon="-0.39506">
        <ele>5.4</ele>
        <time>2023-05-23T11:20:24Z</time>
      </trkpt>
      <trkpt lat="49.13781" lon="-0.39511">
        <ele>5.2</ele>
        <time>2023-05-23T11:20:25Z</time>
      </trkpt>
      <trkpt lat="49.13776" lon="-0.39516">
        <ele>5</ele>
        <time>2023-05-23T11:20:26Z</time>
      </trkpt>
      <trkpt lat="49.13771" lon="-0.39521">
        <ele>5</ele>
        <time>2023-05-23T11:20:27Z</time>
      </trkpt>
      <trkpt lat="49.13766" lon="-0.39527">
        <ele>4.8</ele>
        <time>2023-05-23T11:20:28Z</time>
      </trkpt>
      <trkpt lat="49.13761" lon="-0.39532">
        <ele>4.6</ele>
        <time>2023-05-23T11:20:29Z</time>
      </trkpt>
      <trkpt lat="49.13755" lon="-0.39537">
        <ele>4.6</ele>
        <time>2023-05-23T11:20:30Z</time>
      </trkpt>
      <trkpt lat="49.1375" lon="-0.39543">
        <ele>4.6</ele>
        <time>2023-05-23T11:20:31Z</time>
      </trkpt>
      <trkpt lat="49.13745" lon="-0.39549">
        <ele>4.6</ele>
        <time>2023-05-23T11:20:32Z</time>
      </trkpt>
      <trkpt lat="49.1374" lon="-0.39554">
        <ele>5</ele>
        <time>2023-05-23T11:20:33Z</time>
      </trkpt>
      <trkpt lat="49.13735" lon="-0.3956">
        <ele>5</ele>
        <time>2023-05-23T11:20:34Z</time>
      </trkpt>
      <trkpt lat="49.1373" lon="-0.39565">
        <ele>5.2</ele>
        <time>2023-05-23T11:20:35Z</time>
      </trkpt>
      <trkpt lat="49.13725" lon="-0.3957">
        <ele>5.4</ele>
        <time>2023-05-23T11:20:36Z</time>
      </trkpt>
      <trkpt lat="49.1372" lon="-0.39576">
        <ele>5.6</ele>
        <time>2023-05-23T11:20:37Z</time>
      </trkpt>
      <trkpt lat="49.13714" lon="-0.39581">
        <ele>5.8</ele>
        <time>2023-05-23T11:20:38Z</time>
      </trkpt>
      <trkpt lat="49.13709" lon="-0.39586">
        <ele>6</ele>
        <time>2023-05-23T11:20:39Z</time>
      </trkpt>
      <trkpt lat="49.13704" lon="-0.39592">
        <ele>6.4</ele>
        <time>2023-05-23T11:20:40Z</time>
      </trkpt>
      <trkpt lat="49.13698" lon="-0.39598">
        <ele>6.6</ele>
        <time>2023-05-23T11:20:41Z</time>
      </trkpt>
      <trkpt lat="49.13693" lon="-0.39604">
        <ele>6.6</ele>
        <time>2023-05-23T11:20:42Z</time>
      </trkpt>
      <trkpt lat="49.13688" lon="-0.3961">
        <ele>7</ele>
        <time>2023-05-23T11:20:43Z</time>
      </trkpt>
      <trkpt lat="49.13682" lon="-0.39616">
        <ele>7</ele>
        <time>2023-05-23T11:20:44Z</time>
      </trkpt>
      <trkpt lat="49.13677" lon="-0.39622">
        <ele>7.2</ele>
        <time>2023-05-23T11:20:45Z</time>
      </trkpt>
      <trkpt lat="49.13672" lon="-0.39628">
        <ele>7.4</ele>
        <time>2023-05-23T11:20:46Z</time>
      </trkpt>
      <trkpt lat="49.13666" lon="-0.39633">
        <ele>7.4</ele>
        <time>2023-05-23T11:20:47Z</time>
      </trkpt>
      <trkpt lat="49.13661" lon="-0.39639">
        <ele>7.4</ele>
        <time>2023-05-23T11:20:48Z</time>
      </trkpt>
      <trkpt lat="49.13656" lon="-0.39644">
        <ele>7.4</ele>
        <time>2023-05-23T11:20:49Z</time>
      </trkpt>
      <trkpt lat="49.1365" lon="-0.3965">
        <ele>7.4</ele>
        <time>2023-05-23T11:20:50Z</time>
      </trkpt>
      <trkpt lat="49.13645" lon="-0.39656">
        <ele>7.4</ele>
        <time>2023-05-23T11:20:51Z</time>
      </trkpt>
      <trkpt lat="49.1364" lon="-0.39661">
        <ele>7.4</ele>
        <time>2023-05-23T11:20:52Z</time>
      </trkpt>
      <trkpt lat="49.13635" lon="-0.39667">
        <ele>7.4</ele>
        <time>2023-05-23T11:20:53Z</time>
      </trkpt>
      <trkpt lat="49.1363" lon="-0.39673">
        <ele>7.4</ele>
        <time>2023-05-23T11:20:54Z</time>
      </trkpt>
      <trkpt lat="49.13625" lon="-0.39679">
        <ele>7.4</ele>
        <time>2023-05-23T11:20:55Z</time>
      </trkpt>
      <trkpt lat="49.13619" lon="-0.39685">
        <ele>7.4</ele>
        <time>2023-05-23T11:20:56Z</time>
      </trkpt>
      <trkpt lat="49.13614" lon="-0.39691">
        <ele>7.2</ele>
        <time>2023-05-23T11:20:57Z</time>
      </trkpt>
      <trkpt lat="49.13608" lon="-0.39697">
        <ele>7.2</ele>
        <time>2023-05-23T11:20:58Z</time>
      </trkpt>
      <trkpt lat="49.13603" lon="-0.39703">
        <ele>7.2</ele>
        <time>2023-05-23T11:20:59Z</time>
      </trkpt>
      <trkpt lat="49.13597" lon="-0.39709">
        <ele>7.2</ele>
        <time>2023-05-23T11:21:00Z</time>
      </trkpt>
      <trkpt lat="49.13591" lon="-0.39716">
        <ele>7.4</ele>
        <time>2023-05-23T11:21:01Z</time>
      </trkpt>
      <trkpt lat="49.13585" lon="-0.39722">
        <ele>7.4</ele>
        <time>2023-05-23T11:21:02Z</time>
      </trkpt>
      <trkpt lat="49.1358" lon="-0.39728">
        <ele>7.4</ele>
        <time>2023-05-23T11:21:03Z</time>
      </trkpt>
      <trkpt lat="49.13574" lon="-0.39734">
        <ele>7.6</ele>
        <time>2023-05-23T11:21:04Z</time>
      </trkpt>
      <trkpt lat="49.13568" lon="-0.3974">
        <ele>7.6</ele>
        <time>2023-05-23T11:21:05Z</time>
      </trkpt>
      <trkpt lat="49.13563" lon="-0.39746">
        <ele>7.8</ele>
        <time>2023-05-23T11:21:06Z</time>
      </trkpt>
      <trkpt lat="49.13557" lon="-0.39751">
        <ele>8</ele>
        <time>2023-05-23T11:21:07Z</time>
      </trkpt>
      <trkpt lat="49.13552" lon="-0.39757">
        <ele>8</ele>
        <time>2023-05-23T11:21:08Z</time>
      </trkpt>
      <trkpt lat="49.13547" lon="-0.39762">
        <ele>8.2</ele>
        <time>2023-05-23T11:21:09Z</time>
      </trkpt>
      <trkpt lat="49.13541" lon="-0.39768">
        <ele>8.2</ele>
        <time>2023-05-23T11:21:10Z</time>
      </trkpt>
      <trkpt lat="49.13536" lon="-0.39774">
        <ele>8.4</ele>
        <time>2023-05-23T11:21:11Z</time>
      </trkpt>
      <trkpt lat="49.13531" lon="-0.39779">
        <ele>8.4</ele>
        <time>2023-05-23T11:21:12Z</time>
      </trkpt>
      <trkpt lat="49.13525" lon="-0.39785">
        <ele>8.4</ele>
        <time>2023-05-23T11:21:13Z</time>
      </trkpt>
      <trkpt lat="49.1352" lon="-0.39791">
        <ele>8.4</ele>
        <time>2023-05-23T11:21:14Z</time>
      </trkpt>
      <trkpt lat="49.13516" lon="-0.39796">
        <ele>8.4</ele>
        <time>2023-05-23T11:21:15Z</time>
      </trkpt>
      <trkpt lat="49.13511" lon="-0.39801">
        <ele>8.6</ele>
        <time>2023-05-23T11:21:16Z</time>
      </trkpt>
      <trkpt lat="49.13506" lon="-0.39806">
        <ele>8.6</ele>
        <time>2023-05-23T11:21:17Z</time>
      </trkpt>
      <trkpt lat="49.13501" lon="-0.39811">
        <ele>8.6</ele>
        <time>2023-05-23T11:21:18Z</time>
      </trkpt>
      <trkpt lat="49.13496" lon="-0.39816">
        <ele>8.6</ele>
        <time>2023-05-23T11:21:19Z</time>
      </trkpt>
      <trkpt lat="49.13491" lon="-0.39821">
        <ele>8.8</ele>
        <time>2023-05-23T11:21:20Z</time>
      </trkpt>
      <trkpt lat="49.13486" lon="-0.39827">
        <ele>9</ele>
        <time>2023-05-23T11:21:21Z</time>
      </trkpt>
      <trkpt lat="49.1348" lon="-0.39833">
        <ele>9.2</ele>
        <time>2023-05-23T11:21:22Z</time>
      </trkpt>
      <trkpt lat="49.13474" lon="-0.39838">
        <ele>9.6</ele>
        <time>2023-05-23T11:21:23Z</time>
      </trkpt>
      <trkpt lat="49.13469" lon="-0.39844">
        <ele>9.6</ele>
        <time>2023-05-23T11:21:24Z</time>
      </trkpt>
      <trkpt lat="49.13463" lon="-0.39851">
        <ele>9.8</ele>
        <time>2023-05-23T11:21:25Z</time>
      </trkpt>
      <trkpt lat="49.13457" lon="-0.39857">
        <ele>10</ele>
        <time>2023-05-23T11:21:26Z</time>
      </trkpt>
      <trkpt lat="49.13451" lon="-0.39863">
        <ele>10.2</ele>
        <time>2023-05-23T11:21:27Z</time>
      </trkpt>
      <trkpt lat="49.13445" lon="-0.3987">
        <ele>10.2</ele>
        <time>2023-05-23T11:21:28Z</time>
      </trkpt>
      <trkpt lat="49.13439" lon="-0.39876">
        <ele>10.2</ele>
        <time>2023-05-23T11:21:29Z</time>
      </trkpt>
      <trkpt lat="49.13433" lon="-0.39883">
        <ele>10.2</ele>
        <time>2023-05-23T11:21:30Z</time>
      </trkpt>
      <trkpt lat="49.13427" lon="-0.39889">
        <ele>10.2</ele>
        <time>2023-05-23T11:21:31Z</time>
      </trkpt>
      <trkpt lat="49.1342" lon="-0.39895">
        <ele>9.8</ele>
        <time>2023-05-23T11:21:32Z</time>
      </trkpt>
      <trkpt lat="49.13414" lon="-0.39901">
        <ele>9.8</ele>
        <time>2023-05-23T11:21:33Z</time>
      </trkpt>
      <trkpt lat="49.13408" lon="-0.39907">
        <ele>9.8</ele>
        <time>2023-05-23T11:21:34Z</time>
      </trkpt>
      <trkpt lat="49.13403" lon="-0.39913">
        <ele>9.8</ele>
        <time>2023-05-23T11:21:35Z</time>
      </trkpt>
      <trkpt lat="49.13397" lon="-0.3992">
        <ele>9.8</ele>
        <time>2023-05-23T11:21:36Z</time>
      </trkpt>
      <trkpt lat="49.13391" lon="-0.39926">
        <ele>10</ele>
        <time>2023-05-23T11:21:37Z</time>
      </trkpt>
      <trkpt lat="49.13386" lon="-0.39931">
        <ele>10.2</ele>
        <time>2023-05-23T11:21:38Z</time>
      </trkpt>
      <trkpt lat="49.13381" lon="-0.39937">
        <ele>10.4</ele>
        <time>2023-05-23T11:21:39Z</time>
      </trkpt>
      <trkpt lat="49.13375" lon="-0.39943">
        <ele>10.4</ele>
        <time>2023-05-23T11:21:40Z</time>
      </trkpt>
      <trkpt lat="49.13369" lon="-0.39948">
        <ele>10.6</ele>
        <time>2023-05-23T11:21:41Z</time>
      </trkpt>
      <trkpt lat="49.13364" lon="-0.39953">
        <ele>10.6</ele>
        <time>2023-05-23T11:21:42Z</time>
      </trkpt>
      <trkpt lat="49.13358" lon="-0.39959">
        <ele>10.6</ele>
        <time>2023-05-23T11:21:43Z</time>
      </trkpt>
      <trkpt lat="49.13352" lon="-0.39964">
        <ele>10.6</ele>
        <time>2023-05-23T11:21:44Z</time>
      </trkpt>
      <trkpt lat="49.13346" lon="-0.39969">
        <ele>10.6</ele>
        <time>2023-05-23T11:21:45Z</time>
      </trkpt>
      <trkpt lat="49.1334" lon="-0.39975">
        <ele>10.6</ele>
        <time>2023-05-23T11:21:46Z</time>
      </trkpt>
      <trkpt lat="49.13334" lon="-0.3998">
        <ele>10.6</ele>
        <time>2023-05-23T11:21:47Z</time>
      </trkpt>
      <trkpt lat="49.13328" lon="-0.39986">
        <ele>10.6</ele>
        <time>2023-05-23T11:21:48Z</time>
      </trkpt>
      <trkpt lat="49.13322" lon="-0.39993">
        <ele>10.6</ele>
        <time>2023-05-23T11:21:49Z</time>
      </trkpt>
      <trkpt lat="49.13316" lon="-0.39999">
        <ele>10.6</ele>
        <time>2023-05-23T11:21:50Z</time>
      </trkpt>
      <trkpt lat="49.1331" lon="-0.40005">
        <ele>10.6</ele>
        <time>2023-05-23T11:21:51Z</time>
      </trkpt>
      <trkpt lat="49.13305" lon="-0.40012">
        <ele>10.8</ele>
        <time>2023-05-23T11:21:52Z</time>
      </trkpt>
      <trkpt lat="49.13299" lon="-0.40018">
        <ele>10.8</ele>
        <time>2023-05-23T11:21:53Z</time>
      </trkpt>
      <trkpt lat="49.13293" lon="-0.40024">
        <ele>10.8</ele>
        <time>2023-05-23T11:21:54Z</time>
      </trkpt>
      <trkpt lat="49.13287" lon="-0.4003">
        <ele>10.8</ele>
        <time>2023-05-23T11:21:55Z</time>
      </trkpt>
      <trkpt lat="49.13281" lon="-0.40036">
        <ele>10.8</ele>
        <time>2023-05-23T11:21:56Z</time>
      </trkpt>
      <trkpt lat="49.13275" lon="-0.40042">
        <ele>10.8</ele>
        <time>2023-05-23T11:21:57Z</time>
      </trkpt>
      <trkpt lat="49.1327" lon="-0.40048">
        <ele>10.8</ele>
        <time>2023-05-23T11:21:58Z</time>
      </trkpt>
      <trkpt lat="49.13264" lon="-0.40054">
        <ele>10.8</ele>
        <time>2023-05-23T11:21:59Z</time>
      </trkpt>
      <trkpt lat="49.13258" lon="-0.40059">
        <ele>10.6</ele>
        <time>2023-05-23T11:22:00Z</time>
      </trkpt>
      <trkpt lat="49.13253" lon="-0.40065">
        <ele>10.6</ele>
        <time>2023-05-23T11:22:01Z</time>
      </trkpt>
      <trkpt lat="49.13247" lon="-0.4007">
        <ele>10.6</ele>
        <time>2023-05-23T11:22:02Z</time>
      </trkpt>
      <trkpt lat="49.13241" lon="-0.40076">
        <ele>10.4</ele>
        <time>2023-05-23T11:22:03Z</time>
      </trkpt>
      <trkpt lat="49.13236" lon="-0.40081">
        <ele>10.2</ele>
        <time>2023-05-23T11:22:04Z</time>
      </trkpt>
      <trkpt lat="49.1323" lon="-0.40087">
        <ele>9.8</ele>
        <time>2023-05-23T11:22:05Z</time>
      </trkpt>
      <trkpt lat="49.13224" lon="-0.40092">
        <ele>9.6</ele>
        <time>2023-05-23T11:22:06Z</time>
      </trkpt>
      <trkpt lat="49.13218" lon="-0.40097">
        <ele>9.6</ele>
        <time>2023-05-23T11:22:07Z</time>
      </trkpt>
      <trkpt lat="49.13212" lon="-0.40102">
        <ele>9.4</ele>
        <time>2023-05-23T11:22:08Z</time>
      </trkpt>
      <trkpt lat="49.13206" lon="-0.40107">
        <ele>9.2</ele>
        <time>2023-05-23T11:22:09Z</time>
      </trkpt>
      <trkpt lat="49.132" lon="-0.40113">
        <ele>8.8</ele>
        <time>2023-05-23T11:22:10Z</time>
      </trkpt>
      <trkpt lat="49.13194" lon="-0.40118">
        <ele>8.8</ele>
        <time>2023-05-23T11:22:11Z</time>
      </trkpt>
      <trkpt lat="49.13187" lon="-0.40122">
        <ele>8.6</ele>
        <time>2023-05-23T11:22:12Z</time>
      </trkpt>
      <trkpt lat="49.13181" lon="-0.40127">
        <ele>8.4</ele>
        <time>2023-05-23T11:22:13Z</time>
      </trkpt>
      <trkpt lat="49.13175" lon="-0.40131">
        <ele>8.4</ele>
        <time>2023-05-23T11:22:14Z</time>
      </trkpt>
      <trkpt lat="49.13169" lon="-0.40135">
        <ele>8.2</ele>
        <time>2023-05-23T11:22:15Z</time>
      </trkpt>
      <trkpt lat="49.13164" lon="-0.40139">
        <ele>8.2</ele>
        <time>2023-05-23T11:22:16Z</time>
      </trkpt>
      <trkpt lat="49.13158" lon="-0.40143">
        <ele>8.2</ele>
        <time>2023-05-23T11:22:17Z</time>
      </trkpt>
      <trkpt lat="49.13153" lon="-0.40146">
        <ele>8.2</ele>
        <time>2023-05-23T11:22:18Z</time>
      </trkpt>
      <trkpt lat="49.13147" lon="-0.40149">
        <ele>8.4</ele>
        <time>2023-05-23T11:22:19Z</time>
      </trkpt>
      <trkpt lat="49.13141" lon="-0.40152">
        <ele>8.4</ele>
        <time>2023-05-23T11:22:20Z</time>
      </trkpt>
      <trkpt lat="49.13135" lon="-0.40155">
        <ele>8.6</ele>
        <time>2023-05-23T11:22:21Z</time>
      </trkpt>
      <trkpt lat="49.13129" lon="-0.40158">
        <ele>8.6</ele>
        <time>2023-05-23T11:22:22Z</time>
      </trkpt>
      <trkpt lat="49.13123" lon="-0.40162">
        <ele>8.6</ele>
        <time>2023-05-23T11:22:23Z</time>
      </trkpt>
      <trkpt lat="49.13116" lon="-0.40166">
        <ele>8.8</ele>
        <time>2023-05-23T11:22:24Z</time>
      </trkpt>
      <trkpt lat="49.13109" lon="-0.40169">
        <ele>9</ele>
        <time>2023-05-23T11:22:25Z</time>
      </trkpt>
      <trkpt lat="49.13102" lon="-0.40173">
        <ele>9.2</ele>
        <time>2023-05-23T11:22:26Z</time>
      </trkpt>
      <trkpt lat="49.13095" lon="-0.40177">
        <ele>9.2</ele>
        <time>2023-05-23T11:22:27Z</time>
      </trkpt>
      <trkpt lat="49.13089" lon="-0.40181">
        <ele>9.4</ele>
        <time>2023-05-23T11:22:28Z</time>
      </trkpt>
      <trkpt lat="49.13082" lon="-0.40184">
        <ele>9.4</ele>
        <time>2023-05-23T11:22:29Z</time>
      </trkpt>
      <trkpt lat="49.13075" lon="-0.40188">
        <ele>9.4</ele>
        <time>2023-05-23T11:22:30Z</time>
      </trkpt>
      <trkpt lat="49.13069" lon="-0.40191">
        <ele>9.6</ele>
        <time>2023-05-23T11:22:31Z</time>
      </trkpt>
      <trkpt lat="49.13062" lon="-0.40194">
        <ele>9.6</ele>
        <time>2023-05-23T11:22:32Z</time>
      </trkpt>
      <trkpt lat="49.13056" lon="-0.40197">
        <ele>9.6</ele>
        <time>2023-05-23T11:22:33Z</time>
      </trkpt>
      <trkpt lat="49.13049" lon="-0.40199">
        <ele>9.6</ele>
        <time>2023-05-23T11:22:34Z</time>
      </trkpt>
      <trkpt lat="49.13043" lon="-0.40202">
        <ele>9.6</ele>
        <time>2023-05-23T11:22:35Z</time>
      </trkpt>
      <trkpt lat="49.13036" lon="-0.40204">
        <ele>9.8</ele>
        <time>2023-05-23T11:22:36Z</time>
      </trkpt>
      <trkpt lat="49.1303" lon="-0.40206">
        <ele>9.8</ele>
        <time>2023-05-23T11:22:37Z</time>
      </trkpt>
      <trkpt lat="49.13023" lon="-0.40209">
        <ele>9.8</ele>
        <time>2023-05-23T11:22:38Z</time>
      </trkpt>
      <trkpt lat="49.13017" lon="-0.40212">
        <ele>10</ele>
        <time>2023-05-23T11:22:39Z</time>
      </trkpt>
      <trkpt lat="49.13011" lon="-0.40215">
        <ele>10</ele>
        <time>2023-05-23T11:22:40Z</time>
      </trkpt>
      <trkpt lat="49.13004" lon="-0.40217">
        <ele>10.2</ele>
        <time>2023-05-23T11:22:41Z</time>
      </trkpt>
      <trkpt lat="49.12998" lon="-0.40219">
        <ele>10.2</ele>
        <time>2023-05-23T11:22:42Z</time>
      </trkpt>
      <trkpt lat="49.12991" lon="-0.40221">
        <ele>9.8</ele>
        <time>2023-05-23T11:22:43Z</time>
      </trkpt>
      <trkpt lat="49.12985" lon="-0.40222">
        <ele>9.8</ele>
        <time>2023-05-23T11:22:44Z</time>
      </trkpt>
      <trkpt lat="49.12979" lon="-0.40223">
        <ele>9.6</ele>
        <time>2023-05-23T11:22:45Z</time>
      </trkpt>
      <trkpt lat="49.12973" lon="-0.40224">
        <ele>9.6</ele>
        <time>2023-05-23T11:22:46Z</time>
      </trkpt>
      <trkpt lat="49.12968" lon="-0.40225">
        <ele>9.4</ele>
        <time>2023-05-23T11:22:47Z</time>
      </trkpt>
      <trkpt lat="49.12963" lon="-0.40226">
        <ele>9.2</ele>
        <time>2023-05-23T11:22:48Z</time>
      </trkpt>
      <trkpt lat="49.12958" lon="-0.40227">
        <ele>9.2</ele>
        <time>2023-05-23T11:22:49Z</time>
      </trkpt>
      <trkpt lat="49.12952" lon="-0.40228">
        <ele>9</ele>
        <time>2023-05-23T11:22:50Z</time>
      </trkpt>
      <trkpt lat="49.12947" lon="-0.40229">
        <ele>8.8</ele>
        <time>2023-05-23T11:22:51Z</time>
      </trkpt>
      <trkpt lat="49.12941" lon="-0.40229">
        <ele>8.6</ele>
        <time>2023-05-23T11:22:52Z</time>
      </trkpt>
      <trkpt lat="49.12935" lon="-0.40229">
        <ele>8.6</ele>
        <time>2023-05-23T11:22:53Z</time>
      </trkpt>
      <trkpt lat="49.12929" lon="-0.4023">
        <ele>8.4</ele>
        <time>2023-05-23T11:22:54Z</time>
      </trkpt>
      <trkpt lat="49.12922" lon="-0.4023">
        <ele>8.4</ele>
        <time>2023-05-23T11:22:55Z</time>
      </trkpt>
      <trkpt lat="49.12916" lon="-0.4023">
        <ele>8.2</ele>
        <time>2023-05-23T11:22:56Z</time>
      </trkpt>
      <trkpt lat="49.12909" lon="-0.40231">
        <ele>8.2</ele>
        <time>2023-05-23T11:22:57Z</time>
      </trkpt>
      <trkpt lat="49.12902" lon="-0.40231">
        <ele>8.2</ele>
        <time>2023-05-23T11:22:58Z</time>
      </trkpt>
      <trkpt lat="49.12896" lon="-0.40232">
        <ele>8.2</ele>
        <time>2023-05-23T11:22:59Z</time>
      </trkpt>
      <trkpt lat="49.12889" lon="-0.40232">
        <ele>8</ele>
        <time>2023-05-23T11:23:00Z</time>
      </trkpt>
      <trkpt lat="49.12882" lon="-0.40233">
        <ele>8</ele>
        <time>2023-05-23T11:23:01Z</time>
      </trkpt>
      <trkpt lat="49.12876" lon="-0.40233">
        <ele>8</ele>
        <time>2023-05-23T11:23:02Z</time>
      </trkpt>
      <trkpt lat="49.12869" lon="-0.40234">
        <ele>8</ele>
        <time>2023-05-23T11:23:03Z</time>
      </trkpt>
      <trkpt lat="49.12863" lon="-0.40234">
        <ele>8</ele>
        <time>2023-05-23T11:23:04Z</time>
      </trkpt>
      <trkpt lat="49.12856" lon="-0.40234">
        <ele>8</ele>
        <time>2023-05-23T11:23:05Z</time>
      </trkpt>
      <trkpt lat="49.1285" lon="-0.40233">
        <ele>8</ele>
        <time>2023-05-23T11:23:06Z</time>
      </trkpt>
      <trkpt lat="49.12844" lon="-0.40233">
        <ele>8</ele>
        <time>2023-05-23T11:23:07Z</time>
      </trkpt>
      <trkpt lat="49.12837" lon="-0.40233">
        <ele>8</ele>
        <time>2023-05-23T11:23:08Z</time>
      </trkpt>
      <trkpt lat="49.12831" lon="-0.40232">
        <ele>8.2</ele>
        <time>2023-05-23T11:23:09Z</time>
      </trkpt>
      <trkpt lat="49.12824" lon="-0.40232">
        <ele>8.4</ele>
        <time>2023-05-23T11:23:10Z</time>
      </trkpt>
      <trkpt lat="49.12818" lon="-0.40231">
        <ele>8.4</ele>
        <time>2023-05-23T11:23:11Z</time>
      </trkpt>
      <trkpt lat="49.12812" lon="-0.40231">
        <ele>8.6</ele>
        <time>2023-05-23T11:23:12Z</time>
      </trkpt>
      <trkpt lat="49.12805" lon="-0.4023">
        <ele>8.6</ele>
        <time>2023-05-23T11:23:13Z</time>
      </trkpt>
      <trkpt lat="49.12799" lon="-0.40229">
        <ele>8.8</ele>
        <time>2023-05-23T11:23:14Z</time>
      </trkpt>
      <trkpt lat="49.12792" lon="-0.40228">
        <ele>9</ele>
        <time>2023-05-23T11:23:15Z</time>
      </trkpt>
      <trkpt lat="49.12786" lon="-0.40227">
        <ele>9.2</ele>
        <time>2023-05-23T11:23:16Z</time>
      </trkpt>
      <trkpt lat="49.12779" lon="-0.40226">
        <ele>9.4</ele>
        <time>2023-05-23T11:23:17Z</time>
      </trkpt>
      <trkpt lat="49.12773" lon="-0.40224">
        <ele>9.6</ele>
        <time>2023-05-23T11:23:18Z</time>
      </trkpt>
      <trkpt lat="49.12766" lon="-0.40222">
        <ele>9.6</ele>
        <time>2023-05-23T11:23:19Z</time>
      </trkpt>
      <trkpt lat="49.1276" lon="-0.40221">
        <ele>9.8</ele>
        <time>2023-05-23T11:23:20Z</time>
      </trkpt>
      <trkpt lat="49.12754" lon="-0.40219">
        <ele>10.2</ele>
        <time>2023-05-23T11:23:21Z</time>
      </trkpt>
      <trkpt lat="49.12748" lon="-0.40218">
        <ele>10.2</ele>
        <time>2023-05-23T11:23:22Z</time>
      </trkpt>
      <trkpt lat="49.12741" lon="-0.40216">
        <ele>10.2</ele>
        <time>2023-05-23T11:23:23Z</time>
      </trkpt>
      <trkpt lat="49.12735" lon="-0.40215">
        <ele>10.2</ele>
        <time>2023-05-23T11:23:24Z</time>
      </trkpt>
      <trkpt lat="49.12729" lon="-0.40215">
        <ele>10.4</ele>
        <time>2023-05-23T11:23:25Z</time>
      </trkpt>
      <trkpt lat="49.12724" lon="-0.40215">
        <ele>10.4</ele>
        <time>2023-05-23T11:23:26Z</time>
      </trkpt>
      <trkpt lat="49.12718" lon="-0.40215">
        <ele>10.4</ele>
        <time>2023-05-23T11:23:27Z</time>
      </trkpt>
      <trkpt lat="49.12712" lon="-0.40216">
        <ele>10.2</ele>
        <time>2023-05-23T11:23:28Z</time>
      </trkpt>
      <trkpt lat="49.12706" lon="-0.40217">
        <ele>10.2</ele>
        <time>2023-05-23T11:23:29Z</time>
      </trkpt>
      <trkpt lat="49.12701" lon="-0.40217">
        <ele>10.2</ele>
        <time>2023-05-23T11:23:30Z</time>
      </trkpt>
      <trkpt lat="49.12695" lon="-0.40215">
        <ele>10.2</ele>
        <time>2023-05-23T11:23:31Z</time>
      </trkpt>
      <trkpt lat="49.12689" lon="-0.40214">
        <ele>10.4</ele>
        <time>2023-05-23T11:23:32Z</time>
      </trkpt>
      <trkpt lat="49.12684" lon="-0.40211">
        <ele>10.4</ele>
        <time>2023-05-23T11:23:33Z</time>
      </trkpt>
      <trkpt lat="49.12678" lon="-0.40209">
        <ele>10.6</ele>
        <time>2023-05-23T11:23:34Z</time>
      </trkpt>
      <trkpt lat="49.12672" lon="-0.40206">
        <ele>10.6</ele>
        <time>2023-05-23T11:23:35Z</time>
      </trkpt>
      <trkpt lat="49.12667" lon="-0.40204">
        <ele>10.6</ele>
        <time>2023-05-23T11:23:36Z</time>
      </trkpt>
      <trkpt lat="49.12661" lon="-0.40201">
        <ele>10.6</ele>
        <time>2023-05-23T11:23:37Z</time>
      </trkpt>
      <trkpt lat="49.12655" lon="-0.40199">
        <ele>10.4</ele>
        <time>2023-05-23T11:23:38Z</time>
      </trkpt>
      <trkpt lat="49.12649" lon="-0.40196">
        <ele>10.2</ele>
        <time>2023-05-23T11:23:39Z</time>
      </trkpt>
      <trkpt lat="49.12644" lon="-0.40194">
        <ele>10.2</ele>
        <time>2023-05-23T11:23:40Z</time>
      </trkpt>
      <trkpt lat="49.12638" lon="-0.40191">
        <ele>10</ele>
        <time>2023-05-23T11:23:41Z</time>
      </trkpt>
      <trkpt lat="49.12633" lon="-0.40188">
        <ele>9.8</ele>
        <time>2023-05-23T11:23:42Z</time>
      </trkpt>
      <trkpt lat="49.12627" lon="-0.40185">
        <ele>9.6</ele>
        <time>2023-05-23T11:23:43Z</time>
      </trkpt>
      <trkpt lat="49.12622" lon="-0.40182">
        <ele>9.6</ele>
        <time>2023-05-23T11:23:44Z</time>
      </trkpt>
      <trkpt lat="49.12616" lon="-0.40179">
        <ele>9.4</ele>
        <time>2023-05-23T11:23:45Z</time>
      </trkpt>
      <trkpt lat="49.12611" lon="-0.40176">
        <ele>9.2</ele>
        <time>2023-05-23T11:23:46Z</time>
      </trkpt>
      <trkpt lat="49.12605" lon="-0.40173">
        <ele>8.8</ele>
        <time>2023-05-23T11:23:47Z</time>
      </trkpt>
      <trkpt lat="49.126" lon="-0.40169">
        <ele>8.8</ele>
        <time>2023-05-23T11:23:48Z</time>
      </trkpt>
      <trkpt lat="49.12594" lon="-0.40166">
        <ele>8.6</ele>
        <time>2023-05-23T11:23:49Z</time>
      </trkpt>
      <trkpt lat="49.12589" lon="-0.40163">
        <ele>8.4</ele>
        <time>2023-05-23T11:23:50Z</time>
      </trkpt>
      <trkpt lat="49.12584" lon="-0.40159">
        <ele>8.2</ele>
        <time>2023-05-23T11:23:51Z</time>
      </trkpt>
      <trkpt lat="49.12578" lon="-0.40155">
        <ele>8.4</ele>
        <time>2023-05-23T11:23:52Z</time>
      </trkpt>
      <trkpt lat="49.12573" lon="-0.40152">
        <ele>8.6</ele>
        <time>2023-05-23T11:23:53Z</time>
      </trkpt>
      <trkpt lat="49.12567" lon="-0.40148">
        <ele>8.6</ele>
        <time>2023-05-23T11:23:54Z</time>
      </trkpt>
      <trkpt lat="49.12562" lon="-0.40144">
        <ele>8.8</ele>
        <time>2023-05-23T11:23:55Z</time>
      </trkpt>
      <trkpt lat="49.12556" lon="-0.4014">
        <ele>8.8</ele>
        <time>2023-05-23T11:23:56Z</time>
      </trkpt>
      <trkpt lat="49.12551" lon="-0.40136">
        <ele>9</ele>
        <time>2023-05-23T11:23:57Z</time>
      </trkpt>
      <trkpt lat="49.12545" lon="-0.40132">
        <ele>9</ele>
        <time>2023-05-23T11:23:58Z</time>
      </trkpt>
      <trkpt lat="49.12539" lon="-0.40128">
        <ele>9.2</ele>
        <time>2023-05-23T11:23:59Z</time>
      </trkpt>
      <trkpt lat="49.12534" lon="-0.40124">
        <ele>9.2</ele>
        <time>2023-05-23T11:24:00Z</time>
      </trkpt>
      <trkpt lat="49.12528" lon="-0.4012">
        <ele>9.2</ele>
        <time>2023-05-23T11:24:01Z</time>
      </trkpt>
      <trkpt lat="49.12522" lon="-0.40116">
        <ele>9</ele>
        <time>2023-05-23T11:24:02Z</time>
      </trkpt>
      <trkpt lat="49.12517" lon="-0.40111">
        <ele>8.8</ele>
        <time>2023-05-23T11:24:03Z</time>
      </trkpt>
      <trkpt lat="49.12511" lon="-0.40108">
        <ele>8.8</ele>
        <time>2023-05-23T11:24:04Z</time>
      </trkpt>
      <trkpt lat="49.12505" lon="-0.40104">
        <ele>8.6</ele>
        <time>2023-05-23T11:24:05Z</time>
      </trkpt>
      <trkpt lat="49.12499" lon="-0.401">
        <ele>8.6</ele>
        <time>2023-05-23T11:24:06Z</time>
      </trkpt>
      <trkpt lat="49.12494" lon="-0.40096">
        <ele>8.8</ele>
        <time>2023-05-23T11:24:07Z</time>
      </trkpt>
      <trkpt lat="49.12488" lon="-0.40092">
        <ele>9.2</ele>
        <time>2023-05-23T11:24:08Z</time>
      </trkpt>
      <trkpt lat="49.12482" lon="-0.40088">
        <ele>9.4</ele>
        <time>2023-05-23T11:24:09Z</time>
      </trkpt>
      <trkpt lat="49.12476" lon="-0.40084">
        <ele>9.6</ele>
        <time>2023-05-23T11:24:10Z</time>
      </trkpt>
      <trkpt lat="49.12471" lon="-0.40081">
        <ele>9.6</ele>
        <time>2023-05-23T11:24:11Z</time>
      </trkpt>
      <trkpt lat="49.12465" lon="-0.40077">
        <ele>9.8</ele>
        <time>2023-05-23T11:24:12Z</time>
      </trkpt>
      <trkpt lat="49.12459" lon="-0.40073">
        <ele>10.2</ele>
        <time>2023-05-23T11:24:13Z</time>
      </trkpt>
      <trkpt lat="49.12454" lon="-0.40069">
        <ele>10.2</ele>
        <time>2023-05-23T11:24:14Z</time>
      </trkpt>
      <trkpt lat="49.12448" lon="-0.40065">
        <ele>10.4</ele>
        <time>2023-05-23T11:24:15Z</time>
      </trkpt>
      <trkpt lat="49.12442" lon="-0.40062">
        <ele>10.6</ele>
        <time>2023-05-23T11:24:16Z</time>
      </trkpt>
      <trkpt lat="49.12437" lon="-0.40058">
        <ele>10.6</ele>
        <time>2023-05-23T11:24:17Z</time>
      </trkpt>
      <trkpt lat="49.12431" lon="-0.40054">
        <ele>10.6</ele>
        <time>2023-05-23T11:24:18Z</time>
      </trkpt>
      <trkpt lat="49.12426" lon="-0.4005">
        <ele>10.6</ele>
        <time>2023-05-23T11:24:19Z</time>
      </trkpt>
      <trkpt lat="49.1242" lon="-0.40046">
        <ele>10.6</ele>
        <time>2023-05-23T11:24:20Z</time>
      </trkpt>
      <trkpt lat="49.12414" lon="-0.40042">
        <ele>10.6</ele>
        <time>2023-05-23T11:24:21Z</time>
      </trkpt>
      <trkpt lat="49.12409" lon="-0.40038">
        <ele>11</ele>
        <time>2023-05-23T11:24:22Z</time>
      </trkpt>
      <trkpt lat="49.12403" lon="-0.40034">
        <ele>11.2</ele>
        <time>2023-05-23T11:24:23Z</time>
      </trkpt>
      <trkpt lat="49.12397" lon="-0.40029">
        <ele>11.6</ele>
        <time>2023-05-23T11:24:24Z</time>
      </trkpt>
      <trkpt lat="49.12391" lon="-0.40025">
        <ele>11.6</ele>
        <time>2023-05-23T11:24:25Z</time>
      </trkpt>
      <trkpt lat="49.12386" lon="-0.40021">
        <ele>11.8</ele>
        <time>2023-05-23T11:24:26Z</time>
      </trkpt>
      <trkpt lat="49.1238" lon="-0.40016">
        <ele>12.2</ele>
        <time>2023-05-23T11:24:27Z</time>
      </trkpt>
      <trkpt lat="49.12374" lon="-0.40012">
        <ele>12.4</ele>
        <time>2023-05-23T11:24:28Z</time>
      </trkpt>
      <trkpt lat="49.12368" lon="-0.40007">
        <ele>12.6</ele>
        <time>2023-05-23T11:24:29Z</time>
      </trkpt>
      <trkpt lat="49.12363" lon="-0.40003">
        <ele>12.6</ele>
        <time>2023-05-23T11:24:30Z</time>
      </trkpt>
      <trkpt lat="49.12357" lon="-0.39998">
        <ele>12.8</ele>
        <time>2023-05-23T11:24:31Z</time>
      </trkpt>
      <trkpt lat="49.12352" lon="-0.39993">
        <ele>13.2</ele>
        <time>2023-05-23T11:24:32Z</time>
      </trkpt>
      <trkpt lat="49.12346" lon="-0.39989">
        <ele>13.6</ele>
        <time>2023-05-23T11:24:33Z</time>
      </trkpt>
      <trkpt lat="49.12341" lon="-0.39985">
        <ele>13.6</ele>
        <time>2023-05-23T11:24:34Z</time>
      </trkpt>
      <trkpt lat="49.12336" lon="-0.3998">
        <ele>13.8</ele>
        <time>2023-05-23T11:24:35Z</time>
      </trkpt>
      <trkpt lat="49.1233" lon="-0.39976">
        <ele>14</ele>
        <time>2023-05-23T11:24:36Z</time>
      </trkpt>
      <trkpt lat="49.12325" lon="-0.39971">
        <ele>14.2</ele>
        <time>2023-05-23T11:24:37Z</time>
      </trkpt>
      <trkpt lat="49.12319" lon="-0.39966">
        <ele>14.4</ele>
        <time>2023-05-23T11:24:38Z</time>
      </trkpt>
      <trkpt lat="49.12314" lon="-0.39961">
        <ele>14.4</ele>
        <time>2023-05-23T11:24:39Z</time>
      </trkpt>
      <trkpt lat="49.12308" lon="-0.39956">
        <ele>14.6</ele>
        <time>2023-05-23T11:24:40Z</time>
      </trkpt>
      <trkpt lat="49.12303" lon="-0.39952">
        <ele>14.6</ele>
        <time>2023-05-23T11:24:41Z</time>
      </trkpt>
      <trkpt lat="49.12297" lon="-0.39946">
        <ele>14.8</ele>
        <time>2023-05-23T11:24:42Z</time>
      </trkpt>
      <trkpt lat="49.12292" lon="-0.39942">
        <ele>15</ele>
        <time>2023-05-23T11:24:43Z</time>
      </trkpt>
      <trkpt lat="49.12286" lon="-0.39936">
        <ele>15.2</ele>
        <time>2023-05-23T11:24:44Z</time>
      </trkpt>
      <trkpt lat="49.12281" lon="-0.39931">
        <ele>15.4</ele>
        <time>2023-05-23T11:24:45Z</time>
      </trkpt>
      <trkpt lat="49.12275" lon="-0.39926">
        <ele>15.6</ele>
        <time>2023-05-23T11:24:46Z</time>
      </trkpt>
      <trkpt lat="49.1227" lon="-0.39921">
        <ele>15.8</ele>
        <time>2023-05-23T11:24:47Z</time>
      </trkpt>
      <trkpt lat="49.12265" lon="-0.39916">
        <ele>15.8</ele>
        <time>2023-05-23T11:24:48Z</time>
      </trkpt>
      <trkpt lat="49.12259" lon="-0.39911">
        <ele>16.2</ele>
        <time>2023-05-23T11:24:49Z</time>
      </trkpt>
      <trkpt lat="49.12254" lon="-0.39906">
        <ele>16.2</ele>
        <time>2023-05-23T11:24:50Z</time>
      </trkpt>
      <trkpt lat="49.12249" lon="-0.399">
        <ele>16.6</ele>
        <time>2023-05-23T11:24:51Z</time>
      </trkpt>
      <trkpt lat="49.12244" lon="-0.39895">
        <ele>16.6</ele>
        <time>2023-05-23T11:24:52Z</time>
      </trkpt>
      <trkpt lat="49.12238" lon="-0.3989">
        <ele>16.6</ele>
        <time>2023-05-23T11:24:53Z</time>
      </trkpt>
      <trkpt lat="49.12233" lon="-0.39884">
        <ele>16.6</ele>
        <time>2023-05-23T11:24:54Z</time>
      </trkpt>
      <trkpt lat="49.12227" lon="-0.39878">
        <ele>16.8</ele>
        <time>2023-05-23T11:24:55Z</time>
      </trkpt>
      <trkpt lat="49.12222" lon="-0.39873">
        <ele>16.8</ele>
        <time>2023-05-23T11:24:56Z</time>
      </trkpt>
      <trkpt lat="49.12216" lon="-0.39867">
        <ele>16.8</ele>
        <time>2023-05-23T11:24:57Z</time>
      </trkpt>
      <trkpt lat="49.12211" lon="-0.39861">
        <ele>17</ele>
        <time>2023-05-23T11:24:58Z</time>
      </trkpt>
      <trkpt lat="49.12206" lon="-0.39855">
        <ele>17.2</ele>
        <time>2023-05-23T11:24:59Z</time>
      </trkpt>
      <trkpt lat="49.122" lon="-0.3985">
        <ele>17.2</ele>
        <time>2023-05-23T11:25:00Z</time>
      </trkpt>
      <trkpt lat="49.12196" lon="-0.39844">
        <ele>17.6</ele>
        <time>2023-05-23T11:25:01Z</time>
      </trkpt>
      <trkpt lat="49.12191" lon="-0.39838">
        <ele>17.6</ele>
        <time>2023-05-23T11:25:02Z</time>
      </trkpt>
      <trkpt lat="49.12187" lon="-0.39833">
        <ele>17.8</ele>
        <time>2023-05-23T11:25:03Z</time>
      </trkpt>
      <trkpt lat="49.12182" lon="-0.39828">
        <ele>17.8</ele>
        <time>2023-05-23T11:25:04Z</time>
      </trkpt>
      <trkpt lat="49.12178" lon="-0.39823">
        <ele>17.8</ele>
        <time>2023-05-23T11:25:05Z</time>
      </trkpt>
      <trkpt lat="49.12173" lon="-0.39817">
        <ele>17.8</ele>
        <time>2023-05-23T11:25:06Z</time>
      </trkpt>
      <trkpt lat="49.12168" lon="-0.39811">
        <ele>17.8</ele>
        <time>2023-05-23T11:25:07Z</time>
      </trkpt>
      <trkpt lat="49.12163" lon="-0.39804">
        <ele>17.8</ele>
        <time>2023-05-23T11:25:08Z</time>
      </trkpt>
      <trkpt lat="49.12158" lon="-0.39797">
        <ele>17.8</ele>
        <time>2023-05-23T11:25:09Z</time>
      </trkpt>
      <trkpt lat="49.12153" lon="-0.3979">
        <ele>17.6</ele>
        <time>2023-05-23T11:25:10Z</time>
      </trkpt>
      <trkpt lat="49.12148" lon="-0.39784">
        <ele>17.6</ele>
        <time>2023-05-23T11:25:11Z</time>
      </trkpt>
      <trkpt lat="49.12144" lon="-0.39778">
        <ele>17.6</ele>
        <time>2023-05-23T11:25:12Z</time>
      </trkpt>
      <trkpt lat="49.12139" lon="-0.39771">
        <ele>17.6</ele>
        <time>2023-05-23T11:25:13Z</time>
      </trkpt>
      <trkpt lat="49.12135" lon="-0.39765">
        <ele>17.6</ele>
        <time>2023-05-23T11:25:14Z</time>
      </trkpt>
      <trkpt lat="49.1213" lon="-0.39758">
        <ele>17.6</ele>
        <time>2023-05-23T11:25:15Z</time>
      </trkpt>
      <trkpt lat="49.12126" lon="-0.39752">
        <ele>17.6</ele>
        <time>2023-05-23T11:25:16Z</time>
      </trkpt>
      <trkpt lat="49.12122" lon="-0.39745">
        <ele>17.6</ele>
        <time>2023-05-23T11:25:17Z</time>
      </trkpt>
      <trkpt lat="49.12118" lon="-0.39739">
        <ele>17.6</ele>
        <time>2023-05-23T11:25:18Z</time>
      </trkpt>
      <trkpt lat="49.12114" lon="-0.39732">
        <ele>17.6</ele>
        <time>2023-05-23T11:25:19Z</time>
      </trkpt>
      <trkpt lat="49.1211" lon="-0.39726">
        <ele>17.6</ele>
        <time>2023-05-23T11:25:20Z</time>
      </trkpt>
      <trkpt lat="49.12105" lon="-0.3972">
        <ele>17.4</ele>
        <time>2023-05-23T11:25:21Z</time>
      </trkpt>
      <trkpt lat="49.12101" lon="-0.39714">
        <ele>17.4</ele>
        <time>2023-05-23T11:25:22Z</time>
      </trkpt>
      <trkpt lat="49.12097" lon="-0.39708">
        <ele>17.2</ele>
        <time>2023-05-23T11:25:23Z</time>
      </trkpt>
      <trkpt lat="49.12093" lon="-0.39702">
        <ele>17.2</ele>
        <time>2023-05-23T11:25:24Z</time>
      </trkpt>
      <trkpt lat="49.12088" lon="-0.39696">
        <ele>17.2</ele>
        <time>2023-05-23T11:25:25Z</time>
      </trkpt>
      <trkpt lat="49.12085" lon="-0.3969">
        <ele>17.2</ele>
        <time>2023-05-23T11:25:26Z</time>
      </trkpt>
      <trkpt lat="49.12081" lon="-0.39684">
        <ele>16.8</ele>
        <time>2023-05-23T11:25:27Z</time>
      </trkpt>
      <trkpt lat="49.12077" lon="-0.39678">
        <ele>16.8</ele>
        <time>2023-05-23T11:25:28Z</time>
      </trkpt>
      <trkpt lat="49.12073" lon="-0.39672">
        <ele>16.8</ele>
        <time>2023-05-23T11:25:29Z</time>
      </trkpt>
      <trkpt lat="49.12069" lon="-0.39666">
        <ele>16.8</ele>
        <time>2023-05-23T11:25:30Z</time>
      </trkpt>
      <trkpt lat="49.12065" lon="-0.3966">
        <ele>16.8</ele>
        <time>2023-05-23T11:25:31Z</time>
      </trkpt>
      <trkpt lat="49.1206" lon="-0.39654">
        <ele>16.8</ele>
        <time>2023-05-23T11:25:32Z</time>
      </trkpt>
      <trkpt lat="49.12055" lon="-0.39648">
        <ele>17</ele>
        <time>2023-05-23T11:25:33Z</time>
      </trkpt>
      <trkpt lat="49.1205" lon="-0.39641">
        <ele>17</ele>
        <time>2023-05-23T11:25:34Z</time>
      </trkpt>
      <trkpt lat="49.12045" lon="-0.39633">
        <ele>17.2</ele>
        <time>2023-05-23T11:25:35Z</time>
      </trkpt>
      <trkpt lat="49.1204" lon="-0.39626">
        <ele>17.2</ele>
        <time>2023-05-23T11:25:36Z</time>
      </trkpt>
      <trkpt lat="49.12035" lon="-0.39618">
        <ele>17.2</ele>
        <time>2023-05-23T11:25:37Z</time>
      </trkpt>
      <trkpt lat="49.1203" lon="-0.39611">
        <ele>17</ele>
        <time>2023-05-23T11:25:38Z</time>
      </trkpt>
      <trkpt lat="49.12025" lon="-0.39603">
        <ele>17</ele>
        <time>2023-05-23T11:25:39Z</time>
      </trkpt>
      <trkpt lat="49.12019" lon="-0.39596">
        <ele>16.8</ele>
        <time>2023-05-23T11:25:40Z</time>
      </trkpt>
      <trkpt lat="49.12015" lon="-0.39589">
        <ele>16.8</ele>
        <time>2023-05-23T11:25:41Z</time>
      </trkpt>
      <trkpt lat="49.1201" lon="-0.39583">
        <ele>16.8</ele>
        <time>2023-05-23T11:25:42Z</time>
      </trkpt>
      <trkpt lat="49.12006" lon="-0.39577">
        <ele>16.8</ele>
        <time>2023-05-23T11:25:43Z</time>
      </trkpt>
      <trkpt lat="49.12002" lon="-0.39571">
        <ele>17</ele>
        <time>2023-05-23T11:25:44Z</time>
      </trkpt>
      <trkpt lat="49.11997" lon="-0.39565">
        <ele>17.2</ele>
        <time>2023-05-23T11:25:45Z</time>
      </trkpt>
      <trkpt lat="49.11993" lon="-0.39559">
        <ele>17.2</ele>
        <time>2023-05-23T11:25:46Z</time>
      </trkpt>
      <trkpt lat="49.11989" lon="-0.39553">
        <ele>17.4</ele>
        <time>2023-05-23T11:25:47Z</time>
      </trkpt>
      <trkpt lat="49.11984" lon="-0.39546">
        <ele>17.6</ele>
        <time>2023-05-23T11:25:48Z</time>
      </trkpt>
      <trkpt lat="49.11979" lon="-0.3954">
        <ele>17.8</ele>
        <time>2023-05-23T11:25:49Z</time>
      </trkpt>
      <trkpt lat="49.11974" lon="-0.39532">
        <ele>17.8</ele>
        <time>2023-05-23T11:25:50Z</time>
      </trkpt>
      <trkpt lat="49.11969" lon="-0.39525">
        <ele>18.2</ele>
        <time>2023-05-23T11:25:51Z</time>
      </trkpt>
      <trkpt lat="49.11964" lon="-0.39518">
        <ele>18.2</ele>
        <time>2023-05-23T11:25:52Z</time>
      </trkpt>
      <trkpt lat="49.11959" lon="-0.3951">
        <ele>18.6</ele>
        <time>2023-05-23T11:25:53Z</time>
      </trkpt>
      <trkpt lat="49.11955" lon="-0.39503">
        <ele>18.6</ele>
        <time>2023-05-23T11:25:54Z</time>
      </trkpt>
      <trkpt lat="49.1195" lon="-0.39495">
        <ele>18.6</ele>
        <time>2023-05-23T11:25:55Z</time>
      </trkpt>
      <trkpt lat="49.11946" lon="-0.39488">
        <ele>18.6</ele>
        <time>2023-05-23T11:25:56Z</time>
      </trkpt>
      <trkpt lat="49.11941" lon="-0.39481">
        <ele>18.4</ele>
        <time>2023-05-23T11:25:57Z</time>
      </trkpt>
      <trkpt lat="49.11937" lon="-0.39474">
        <ele>18.2</ele>
        <time>2023-05-23T11:25:58Z</time>
      </trkpt>
      <trkpt lat="49.11932" lon="-0.39467">
        <ele>18.2</ele>
        <time>2023-05-23T11:25:59Z</time>
      </trkpt>
      <trkpt lat="49.11928" lon="-0.3946">
        <ele>18.2</ele>
        <time>2023-05-23T11:26:00Z</time>
      </trkpt>
      <trkpt lat="49.11923" lon="-0.39453">
        <ele>18.2</ele>
        <time>2023-05-23T11:26:01Z</time>
      </trkpt>
      <trkpt lat="49.11918" lon="-0.39446">
        <ele>18</ele>
        <time>2023-05-23T11:26:02Z</time>
      </trkpt>
      <trkpt lat="49.11913" lon="-0.39439">
        <ele>18</ele>
        <time>2023-05-23T11:26:03Z</time>
      </trkpt>
      <trkpt lat="49.11908" lon="-0.39432">
        <ele>17.8</ele>
        <time>2023-05-23T11:26:04Z</time>
      </trkpt>
      <trkpt lat="49.11904" lon="-0.39424">
        <ele>17.8</ele>
        <time>2023-05-23T11:26:05Z</time>
      </trkpt>
      <trkpt lat="49.11899" lon="-0.39417">
        <ele>17.8</ele>
        <time>2023-05-23T11:26:06Z</time>
      </trkpt>
      <trkpt lat="49.11894" lon="-0.39409">
        <ele>17.6</ele>
        <time>2023-05-23T11:26:07Z</time>
      </trkpt>
      <trkpt lat="49.11889" lon="-0.39402">
        <ele>17.2</ele>
        <time>2023-05-23T11:26:08Z</time>
      </trkpt>
      <trkpt lat="49.11885" lon="-0.39394">
        <ele>17</ele>
        <time>2023-05-23T11:26:09Z</time>
      </trkpt>
      <trkpt lat="49.1188" lon="-0.39387">
        <ele>16.8</ele>
        <time>2023-05-23T11:26:10Z</time>
      </trkpt>
      <trkpt lat="49.11876" lon="-0.3938">
        <ele>16.6</ele>
        <time>2023-05-23T11:26:11Z</time>
      </trkpt>
      <trkpt lat="49.11871" lon="-0.39373">
        <ele>16.4</ele>
        <time>2023-05-23T11:26:12Z</time>
      </trkpt>
      <trkpt lat="49.11866" lon="-0.39367">
        <ele>16.2</ele>
        <time>2023-05-23T11:26:13Z</time>
      </trkpt>
      <trkpt lat="49.11861" lon="-0.3936">
        <ele>16.2</ele>
        <time>2023-05-23T11:26:14Z</time>
      </trkpt>
      <trkpt lat="49.11856" lon="-0.39353">
        <ele>16.2</ele>
        <time>2023-05-23T11:26:15Z</time>
      </trkpt>
      <trkpt lat="49.1185" lon="-0.39346">
        <ele>16.2</ele>
        <time>2023-05-23T11:26:16Z</time>
      </trkpt>
      <trkpt lat="49.11845" lon="-0.39339">
        <ele>16.2</ele>
        <time>2023-05-23T11:26:17Z</time>
      </trkpt>
      <trkpt lat="49.11839" lon="-0.39331">
        <ele>16.4</ele>
        <time>2023-05-23T11:26:18Z</time>
      </trkpt>
      <trkpt lat="49.11834" lon="-0.39324">
        <ele>16.4</ele>
        <time>2023-05-23T11:26:19Z</time>
      </trkpt>
      <trkpt lat="49.11828" lon="-0.39317">
        <ele>16.2</ele>
        <time>2023-05-23T11:26:20Z</time>
      </trkpt>
      <trkpt lat="49.11823" lon="-0.3931">
        <ele>15.8</ele>
        <time>2023-05-23T11:26:21Z</time>
      </trkpt>
      <trkpt lat="49.11818" lon="-0.39303">
        <ele>15.6</ele>
        <time>2023-05-23T11:26:22Z</time>
      </trkpt>
      <trkpt lat="49.11813" lon="-0.39296">
        <ele>15.2</ele>
        <time>2023-05-23T11:26:23Z</time>
      </trkpt>
      <trkpt lat="49.11808" lon="-0.39289">
        <ele>14.8</ele>
        <time>2023-05-23T11:26:24Z</time>
      </trkpt>
      <trkpt lat="49.11803" lon="-0.39282">
        <ele>14.4</ele>
        <time>2023-05-23T11:26:25Z</time>
      </trkpt>
      <trkpt lat="49.11797" lon="-0.39275">
        <ele>14.2</ele>
        <time>2023-05-23T11:26:26Z</time>
      </trkpt>
      <trkpt lat="49.11792" lon="-0.39268">
        <ele>13.6</ele>
        <time>2023-05-23T11:26:27Z</time>
      </trkpt>
      <trkpt lat="49.11787" lon="-0.39261">
        <ele>13.4</ele>
        <time>2023-05-23T11:26:28Z</time>
      </trkpt>
      <trkpt lat="49.11782" lon="-0.39254">
        <ele>12.8</ele>
        <time>2023-05-23T11:26:29Z</time>
      </trkpt>
      <trkpt lat="49.11776" lon="-0.39247">
        <ele>12.6</ele>
        <time>2023-05-23T11:26:30Z</time>
      </trkpt>
      <trkpt lat="49.11771" lon="-0.3924">
        <ele>12.2</ele>
        <time>2023-05-23T11:26:31Z</time>
      </trkpt>
      <trkpt lat="49.11767" lon="-0.39233">
        <ele>11.8</ele>
        <time>2023-05-23T11:26:32Z</time>
      </trkpt>
      <trkpt lat="49.11762" lon="-0.39226">
        <ele>11.4</ele>
        <time>2023-05-23T11:26:33Z</time>
      </trkpt>
      <trkpt lat="49.11757" lon="-0.39219">
        <ele>11.2</ele>
        <time>2023-05-23T11:26:34Z</time>
      </trkpt>
      <trkpt lat="49.11753" lon="-0.39213">
        <ele>10.6</ele>
        <time>2023-05-23T11:26:35Z</time>
      </trkpt>
      <trkpt lat="49.11747" lon="-0.39207">
        <ele>10.4</ele>
        <time>2023-05-23T11:26:36Z</time>
      </trkpt>
      <trkpt lat="49.11742" lon="-0.39201">
        <ele>9.8</ele>
        <time>2023-05-23T11:26:37Z</time>
      </trkpt>
      <trkpt lat="49.11736" lon="-0.39196">
        <ele>9.6</ele>
        <time>2023-05-23T11:26:38Z</time>
      </trkpt>
      <trkpt lat="49.1173" lon="-0.39191">
        <ele>9.2</ele>
        <time>2023-05-23T11:26:39Z</time>
      </trkpt>
      <trkpt lat="49.11724" lon="-0.39187">
        <ele>8.8</ele>
        <time>2023-05-23T11:26:40Z</time>
      </trkpt>
      <trkpt lat="49.11717" lon="-0.39183">
        <ele>8.6</ele>
        <time>2023-05-23T11:26:41Z</time>
      </trkpt>
      <trkpt lat="49.11711" lon="-0.39179">
        <ele>8.2</ele>
        <time>2023-05-23T11:26:42Z</time>
      </trkpt>
      <trkpt lat="49.11705" lon="-0.39173">
        <ele>7.8</ele>
        <time>2023-05-23T11:26:43Z</time>
      </trkpt>
      <trkpt lat="49.11698" lon="-0.39166">
        <ele>7.4</ele>
        <time>2023-05-23T11:26:44Z</time>
      </trkpt>
      <trkpt lat="49.11691" lon="-0.39159">
        <ele>7.2</ele>
        <time>2023-05-23T11:26:45Z</time>
      </trkpt>
      <trkpt lat="49.11684" lon="-0.39151">
        <ele>7</ele>
        <time>2023-05-23T11:26:46Z</time>
      </trkpt>
      <trkpt lat="49.11677" lon="-0.39143">
        <ele>7</ele>
        <time>2023-05-23T11:26:47Z</time>
      </trkpt>
      <trkpt lat="49.11669" lon="-0.39136">
        <ele>7</ele>
        <time>2023-05-23T11:26:48Z</time>
      </trkpt>
      <trkpt lat="49.11662" lon="-0.39128">
        <ele>7</ele>
        <time>2023-05-23T11:26:49Z</time>
      </trkpt>
      <trkpt lat="49.11655" lon="-0.39121">
        <ele>6.8</ele>
        <time>2023-05-23T11:26:50Z</time>
      </trkpt>
      <trkpt lat="49.11648" lon="-0.39113">
        <ele>6.6</ele>
        <time>2023-05-23T11:26:51Z</time>
      </trkpt>
      <trkpt lat="49.11641" lon="-0.39106">
        <ele>6.6</ele>
        <time>2023-05-23T11:26:52Z</time>
      </trkpt>
      <trkpt lat="49.11634" lon="-0.39099">
        <ele>6.4</ele>
        <time>2023-05-23T11:26:53Z</time>
      </trkpt>
      <trkpt lat="49.11627" lon="-0.39092">
        <ele>6</ele>
        <time>2023-05-23T11:26:54Z</time>
      </trkpt>
      <trkpt lat="49.1162" lon="-0.39084">
        <ele>6</ele>
        <time>2023-05-23T11:26:55Z</time>
      </trkpt>
      <trkpt lat="49.11614" lon="-0.39077">
        <ele>5.6</ele>
        <time>2023-05-23T11:26:56Z</time>
      </trkpt>
      <trkpt lat="49.11607" lon="-0.3907">
        <ele>5.4</ele>
        <time>2023-05-23T11:26:57Z</time>
      </trkpt>
      <trkpt lat="49.11601" lon="-0.39063">
        <ele>5.2</ele>
        <time>2023-05-23T11:26:58Z</time>
      </trkpt>
      <trkpt lat="49.11594" lon="-0.39056">
        <ele>5</ele>
        <time>2023-05-23T11:26:59Z</time>
      </trkpt>
      <trkpt lat="49.11588" lon="-0.39049">
        <ele>4.6</ele>
        <time>2023-05-23T11:27:00Z</time>
      </trkpt>
      <trkpt lat="49.11582" lon="-0.39043">
        <ele>4.6</ele>
        <time>2023-05-23T11:27:01Z</time>
      </trkpt>
      <trkpt lat="49.11575" lon="-0.39036">
        <ele>4.6</ele>
        <time>2023-05-23T11:27:02Z</time>
      </trkpt>
      <trkpt lat="49.11569" lon="-0.3903">
        <ele>4.6</ele>
        <time>2023-05-23T11:27:03Z</time>
      </trkpt>
      <trkpt lat="49.11563" lon="-0.39023">
        <ele>4.8</ele>
        <time>2023-05-23T11:27:04Z</time>
      </trkpt>
      <trkpt lat="49.11557" lon="-0.39017">
        <ele>4.8</ele>
        <time>2023-05-23T11:27:05Z</time>
      </trkpt>
      <trkpt lat="49.11551" lon="-0.39011">
        <ele>5</ele>
        <time>2023-05-23T11:27:06Z</time>
      </trkpt>
      <trkpt lat="49.11546" lon="-0.39005">
        <ele>5</ele>
        <time>2023-05-23T11:27:07Z</time>
      </trkpt>
      <trkpt lat="49.1154" lon="-0.39">
        <ele>5</ele>
        <time>2023-05-23T11:27:08Z</time>
      </trkpt>
      <trkpt lat="49.11534" lon="-0.38994">
        <ele>5.4</ele>
        <time>2023-05-23T11:27:09Z</time>
      </trkpt>
      <trkpt lat="49.11529" lon="-0.38989">
        <ele>5.6</ele>
        <time>2023-05-23T11:27:10Z</time>
      </trkpt>
      <trkpt lat="49.11524" lon="-0.38984">
        <ele>5.8</ele>
        <time>2023-05-23T11:27:11Z</time>
      </trkpt>
      <trkpt lat="49.11519" lon="-0.3898">
        <ele>6</ele>
        <time>2023-05-23T11:27:12Z</time>
      </trkpt>
      <trkpt lat="49.11515" lon="-0.38976">
        <ele>6.2</ele>
        <time>2023-05-23T11:27:13Z</time>
      </trkpt>
      <trkpt lat="49.11511" lon="-0.38973">
        <ele>6.4</ele>
        <time>2023-05-23T11:27:14Z</time>
      </trkpt>
      <trkpt lat="49.11508" lon="-0.38969">
        <ele>6.6</ele>
        <time>2023-05-23T11:27:15Z</time>
      </trkpt>
      <trkpt lat="49.11505" lon="-0.38967">
        <ele>6.6</ele>
        <time>2023-05-23T11:27:16Z</time>
      </trkpt>
      <trkpt lat="49.11502" lon="-0.38964">
        <ele>6.8</ele>
        <time>2023-05-23T11:27:17Z</time>
      </trkpt>
      <trkpt lat="49.11501" lon="-0.3896">
        <ele>7</ele>
        <time>2023-05-23T11:27:18Z</time>
      </trkpt>
      <trkpt lat="49.115" lon="-0.38954">
        <ele>7</ele>
        <time>2023-05-23T11:27:19Z</time>
      </trkpt>
      <trkpt lat="49.11501" lon="-0.38948">
        <ele>7.2</ele>
        <time>2023-05-23T11:27:20Z</time>
      </trkpt>
      <trkpt lat="49.11502" lon="-0.38942">
        <ele>7.4</ele>
        <time>2023-05-23T11:27:21Z</time>
      </trkpt>
      <trkpt lat="49.11504" lon="-0.38936">
        <ele>7.4</ele>
        <time>2023-05-23T11:27:22Z</time>
      </trkpt>
      <trkpt lat="49.11507" lon="-0.3893">
        <ele>7.6</ele>
        <time>2023-05-23T11:27:23Z</time>
      </trkpt>
      <trkpt lat="49.11509" lon="-0.38924">
        <ele>7.6</ele>
        <time>2023-05-23T11:27:24Z</time>
      </trkpt>
      <trkpt lat="49.11512" lon="-0.38918">
        <ele>7.6</ele>
        <time>2023-05-23T11:27:25Z</time>
      </trkpt>
      <trkpt lat="49.11514" lon="-0.38911">
        <ele>7.6</ele>
        <time>2023-05-23T11:27:26Z</time>
      </trkpt>
      <trkpt lat="49.11516" lon="-0.38905">
        <ele>7.4</ele>
        <time>2023-05-23T11:27:27Z</time>
      </trkpt>
      <trkpt lat="49.11518" lon="-0.38898">
        <ele>7.4</ele>
        <time>2023-05-23T11:27:28Z</time>
      </trkpt>
      <trkpt lat="49.1152" lon="-0.38891">
        <ele>7.4</ele>
        <time>2023-05-23T11:27:29Z</time>
      </trkpt>
      <trkpt lat="49.11522" lon="-0.38885">
        <ele>7.4</ele>
        <time>2023-05-23T11:27:30Z</time>
      </trkpt>
      <trkpt lat="49.11523" lon="-0.38878">
        <ele>7.4</ele>
        <time>2023-05-23T11:27:31Z</time>
      </trkpt>
      <trkpt lat="49.11525" lon="-0.38871">
        <ele>7.4</ele>
        <time>2023-05-23T11:27:32Z</time>
      </trkpt>
      <trkpt lat="49.11526" lon="-0.38864">
        <ele>7.4</ele>
        <time>2023-05-23T11:27:33Z</time>
      </trkpt>
      <trkpt lat="49.11528" lon="-0.38857">
        <ele>7.2</ele>
        <time>2023-05-23T11:27:34Z</time>
      </trkpt>
      <trkpt lat="49.11529" lon="-0.3885">
        <ele>7.2</ele>
        <time>2023-05-23T11:27:35Z</time>
      </trkpt>
      <trkpt lat="49.11531" lon="-0.38844">
        <ele>7.2</ele>
        <time>2023-05-23T11:27:36Z</time>
      </trkpt>
      <trkpt lat="49.11533" lon="-0.38837">
        <ele>7.2</ele>
        <time>2023-05-23T11:27:37Z</time>
      </trkpt>
      <trkpt lat="49.11534" lon="-0.38831">
        <ele>7.2</ele>
        <time>2023-05-23T11:27:38Z</time>
      </trkpt>
      <trkpt lat="49.11536" lon="-0.38825">
        <ele>7.2</ele>
        <time>2023-05-23T11:27:39Z</time>
      </trkpt>
      <trkpt lat="49.11537" lon="-0.38818">
        <ele>7.4</ele>
        <time>2023-05-23T11:27:40Z</time>
      </trkpt>
      <trkpt lat="49.11539" lon="-0.38812">
        <ele>7.4</ele>
        <time>2023-05-23T11:27:41Z</time>
      </trkpt>
      <trkpt lat="49.1154" lon="-0.38806">
        <ele>7.4</ele>
        <time>2023-05-23T11:27:42Z</time>
      </trkpt>
      <trkpt lat="49.11541" lon="-0.388">
        <ele>7.4</ele>
        <time>2023-05-23T11:27:43Z</time>
      </trkpt>
      <trkpt lat="49.11543" lon="-0.38794">
        <ele>7.4</ele>
        <time>2023-05-23T11:27:44Z</time>
      </trkpt>
      <trkpt lat="49.11544" lon="-0.38787">
        <ele>7.6</ele>
        <time>2023-05-23T11:27:45Z</time>
      </trkpt>
      <trkpt lat="49.11546" lon="-0.38781">
        <ele>7.6</ele>
        <time>2023-05-23T11:27:46Z</time>
      </trkpt>
      <trkpt lat="49.11547" lon="-0.38774">
        <ele>7.6</ele>
        <time>2023-05-23T11:27:47Z</time>
      </trkpt>
      <trkpt lat="49.11549" lon="-0.38767">
        <ele>7.6</ele>
        <time>2023-05-23T11:27:48Z</time>
      </trkpt>
      <trkpt lat="49.11551" lon="-0.38759">
        <ele>7.6</ele>
        <time>2023-05-23T11:27:49Z</time>
      </trkpt>
      <trkpt lat="49.11552" lon="-0.38752">
        <ele>7.6</ele>
        <time>2023-05-23T11:27:50Z</time>
      </trkpt>
      <trkpt lat="49.11554" lon="-0.38744">
        <ele>7.8</ele>
        <time>2023-05-23T11:27:51Z</time>
      </trkpt>
      <trkpt lat="49.11555" lon="-0.38736">
        <ele>8</ele>
        <time>2023-05-23T11:27:52Z</time>
      </trkpt>
      <trkpt lat="49.11557" lon="-0.38728">
        <ele>8.2</ele>
        <time>2023-05-23T11:27:53Z</time>
      </trkpt>
      <trkpt lat="49.11559" lon="-0.3872">
        <ele>8.2</ele>
        <time>2023-05-23T11:27:54Z</time>
      </trkpt>
      <trkpt lat="49.11562" lon="-0.38712">
        <ele>8.4</ele>
        <time>2023-05-23T11:27:55Z</time>
      </trkpt>
      <trkpt lat="49.11564" lon="-0.38703">
        <ele>8.6</ele>
        <time>2023-05-23T11:27:56Z</time>
      </trkpt>
      <trkpt lat="49.11567" lon="-0.38696">
        <ele>8.6</ele>
        <time>2023-05-23T11:27:57Z</time>
      </trkpt>
      <trkpt lat="49.1157" lon="-0.38688">
        <ele>8.6</ele>
        <time>2023-05-23T11:27:58Z</time>
      </trkpt>
      <trkpt lat="49.11574" lon="-0.3868">
        <ele>8.8</ele>
        <time>2023-05-23T11:27:59Z</time>
      </trkpt>
      <trkpt lat="49.11578" lon="-0.38672">
        <ele>8.8</ele>
        <time>2023-05-23T11:28:00Z</time>
      </trkpt>
      <trkpt lat="49.11582" lon="-0.38665">
        <ele>9.2</ele>
        <time>2023-05-23T11:28:01Z</time>
      </trkpt>
      <trkpt lat="49.11586" lon="-0.38659">
        <ele>9.6</ele>
        <time>2023-05-23T11:28:02Z</time>
      </trkpt>
      <trkpt lat="49.1159" lon="-0.38653">
        <ele>9.8</ele>
        <time>2023-05-23T11:28:03Z</time>
      </trkpt>
      <trkpt lat="49.11594" lon="-0.38647">
        <ele>10.2</ele>
        <time>2023-05-23T11:28:04Z</time>
      </trkpt>
      <trkpt lat="49.11598" lon="-0.38641">
        <ele>10.6</ele>
        <time>2023-05-23T11:28:05Z</time>
      </trkpt>
      <trkpt lat="49.11601" lon="-0.38635">
        <ele>10.8</ele>
        <time>2023-05-23T11:28:06Z</time>
      </trkpt>
      <trkpt lat="49.11605" lon="-0.38629">
        <ele>11.2</ele>
        <time>2023-05-23T11:28:07Z</time>
      </trkpt>
      <trkpt lat="49.11609" lon="-0.38623">
        <ele>11.6</ele>
        <time>2023-05-23T11:28:08Z</time>
      </trkpt>
      <trkpt lat="49.11613" lon="-0.38617">
        <ele>11.8</ele>
        <time>2023-05-23T11:28:09Z</time>
      </trkpt>
      <trkpt lat="49.11616" lon="-0.38612">
        <ele>12</ele>
        <time>2023-05-23T11:28:10Z</time>
      </trkpt>
      <trkpt lat="49.1162" lon="-0.38606">
        <ele>12.4</ele>
        <time>2023-05-23T11:28:11Z</time>
      </trkpt>
      <trkpt lat="49.11623" lon="-0.386">
        <ele>12.6</ele>
        <time>2023-05-23T11:28:12Z</time>
      </trkpt>
      <trkpt lat="49.11626" lon="-0.38594">
        <ele>12.8</ele>
        <time>2023-05-23T11:28:13Z</time>
      </trkpt>
      <trkpt lat="49.11629" lon="-0.38588">
        <ele>13.2</ele>
        <time>2023-05-23T11:28:14Z</time>
      </trkpt>
      <trkpt lat="49.11632" lon="-0.38582">
        <ele>13.4</ele>
        <time>2023-05-23T11:28:15Z</time>
      </trkpt>
      <trkpt lat="49.11634" lon="-0.38576">
        <ele>13.4</ele>
        <time>2023-05-23T11:28:16Z</time>
      </trkpt>
      <trkpt lat="49.11637" lon="-0.3857">
        <ele>13.6</ele>
        <time>2023-05-23T11:28:17Z</time>
      </trkpt>
      <trkpt lat="49.11639" lon="-0.38564">
        <ele>13.8</ele>
        <time>2023-05-23T11:28:18Z</time>
      </trkpt>
      <trkpt lat="49.1164" lon="-0.38558">
        <ele>14</ele>
        <time>2023-05-23T11:28:19Z</time>
      </trkpt>
      <trkpt lat="49.11641" lon="-0.38552">
        <ele>14.2</ele>
        <time>2023-05-23T11:28:20Z</time>
      </trkpt>
      <trkpt lat="49.11642" lon="-0.38546">
        <ele>14.4</ele>
        <time>2023-05-23T11:28:21Z</time>
      </trkpt>
      <trkpt lat="49.11643" lon="-0.3854">
        <ele>14.6</ele>
        <time>2023-05-23T11:28:22Z</time>
      </trkpt>
      <trkpt lat="49.11644" lon="-0.38534">
        <ele>14.8</ele>
        <time>2023-05-23T11:28:23Z</time>
      </trkpt>
      <trkpt lat="49.11645" lon="-0.38528">
        <ele>15.2</ele>
        <time>2023-05-23T11:28:24Z</time>
      </trkpt>
      <trkpt lat="49.11645" lon="-0.38522">
        <ele>15.4</ele>
        <time>2023-05-23T11:28:25Z</time>
      </trkpt>
      <trkpt lat="49.11645" lon="-0.38516">
        <ele>15.6</ele>
        <time>2023-05-23T11:28:26Z</time>
      </trkpt>
      <trkpt lat="49.11646" lon="-0.3851">
        <ele>15.8</ele>
        <time>2023-05-23T11:28:27Z</time>
      </trkpt>
      <trkpt lat="49.11646" lon="-0.38504">
        <ele>16.2</ele>
        <time>2023-05-23T11:28:28Z</time>
      </trkpt>
      <trkpt lat="49.11646" lon="-0.38498">
        <ele>16.2</ele>
        <time>2023-05-23T11:28:29Z</time>
      </trkpt>
      <trkpt lat="49.11646" lon="-0.38492">
        <ele>16.6</ele>
        <time>2023-05-23T11:28:30Z</time>
      </trkpt>
      <trkpt lat="49.11646" lon="-0.38486">
        <ele>16.6</ele>
        <time>2023-05-23T11:28:31Z</time>
      </trkpt>
      <trkpt lat="49.11646" lon="-0.3848">
        <ele>16.8</ele>
        <time>2023-05-23T11:28:32Z</time>
      </trkpt>
      <trkpt lat="49.11646" lon="-0.38474">
        <ele>16.8</ele>
        <time>2023-05-23T11:28:33Z</time>
      </trkpt>
      <trkpt lat="49.11646" lon="-0.38468">
        <ele>17.2</ele>
        <time>2023-05-23T11:28:34Z</time>
      </trkpt>
      <trkpt lat="49.11647" lon="-0.38462">
        <ele>17.2</ele>
        <time>2023-05-23T11:28:35Z</time>
      </trkpt>
      <trkpt lat="49.11647" lon="-0.38456">
        <ele>17.4</ele>
        <time>2023-05-23T11:28:36Z</time>
      </trkpt>
      <trkpt lat="49.11647" lon="-0.3845">
        <ele>17.6</ele>
        <time>2023-05-23T11:28:37Z</time>
      </trkpt>
      <trkpt lat="49.11647" lon="-0.38444">
        <ele>17.8</ele>
        <time>2023-05-23T11:28:38Z</time>
      </trkpt>
      <trkpt lat="49.11648" lon="-0.38438">
        <ele>18</ele>
        <time>2023-05-23T11:28:39Z</time>
      </trkpt>
      <trkpt lat="49.11648" lon="-0.38432">
        <ele>18.2</ele>
        <time>2023-05-23T11:28:40Z</time>
      </trkpt>
      <trkpt lat="49.11649" lon="-0.38425">
        <ele>18.2</ele>
        <time>2023-05-23T11:28:41Z</time>
      </trkpt>
      <trkpt lat="49.1165" lon="-0.38419">
        <ele>18.6</ele>
        <time>2023-05-23T11:28:42Z</time>
      </trkpt>
      <trkpt lat="49.1165" lon="-0.38413">
        <ele>18.8</ele>
        <time>2023-05-23T11:28:43Z</time>
      </trkpt>
      <trkpt lat="49.11649" lon="-0.38408">
        <ele>19</ele>
        <time>2023-05-23T11:28:44Z</time>
      </trkpt>
      <trkpt lat="49.11648" lon="-0.38402">
        <ele>19.2</ele>
        <time>2023-05-23T11:28:45Z</time>
      </trkpt>
      <trkpt lat="49.11645" lon="-0.38398">
        <ele>19.2</ele>
        <time>2023-05-23T11:28:46Z</time>
      </trkpt>
      <trkpt lat="49.11642" lon="-0.38394">
        <ele>19.4</ele>
        <time>2023-05-23T11:28:47Z</time>
      </trkpt>
      <trkpt lat="49.11639" lon="-0.38391">
        <ele>19.6</ele>
        <time>2023-05-23T11:28:48Z</time>
      </trkpt>
      <trkpt lat="49.11636" lon="-0.38387">
        <ele>19.6</ele>
        <time>2023-05-23T11:28:49Z</time>
      </trkpt>
      <trkpt lat="49.11632" lon="-0.38384">
        <ele>19.8</ele>
        <time>2023-05-23T11:28:50Z</time>
      </trkpt>
      <trkpt lat="49.11629" lon="-0.38381">
        <ele>19.8</ele>
        <time>2023-05-23T11:28:51Z</time>
      </trkpt>
      <trkpt lat="49.11626" lon="-0.38378">
        <ele>19.8</ele>
        <time>2023-05-23T11:28:52Z</time>
      </trkpt>
      <trkpt lat="49.11623" lon="-0.38375">
        <ele>20</ele>
        <time>2023-05-23T11:28:53Z</time>
      </trkpt>
      <trkpt lat="49.11619" lon="-0.38372">
        <ele>20.2</ele>
        <time>2023-05-23T11:28:54Z</time>
      </trkpt>
      <trkpt lat="49.11616" lon="-0.3837">
        <ele>20.2</ele>
        <time>2023-05-23T11:28:55Z</time>
      </trkpt>
      <trkpt lat="49.11613" lon="-0.38368">
        <ele>20.2</ele>
        <time>2023-05-23T11:28:56Z</time>
      </trkpt>
      <trkpt lat="49.1161" lon="-0.38366">
        <ele>20.2</ele>
        <time>2023-05-23T11:28:57Z</time>
      </trkpt>
      <trkpt lat="49.11606" lon="-0.38365">
        <ele>20.2</ele>
        <time>2023-05-23T11:28:58Z</time>
      </trkpt>
      <trkpt lat="49.11603" lon="-0.38364">
        <ele>20.4</ele>
        <time>2023-05-23T11:28:59Z</time>
      </trkpt>
      <trkpt lat="49.116" lon="-0.38362">
        <ele>20.4</ele>
        <time>2023-05-23T11:29:00Z</time>
      </trkpt>
      <trkpt lat="49.11597" lon="-0.38361">
        <ele>20.4</ele>
        <time>2023-05-23T11:29:01Z</time>
      </trkpt>
      <trkpt lat="49.11593" lon="-0.38361">
        <ele>20.4</ele>
        <time>2023-05-23T11:29:02Z</time>
      </trkpt>
      <trkpt lat="49.1159" lon="-0.3836">
        <ele>20.4</ele>
        <time>2023-05-23T11:29:03Z</time>
      </trkpt>
      <trkpt lat="49.11586" lon="-0.3836">
        <ele>20.6</ele>
        <time>2023-05-23T11:29:04Z</time>
      </trkpt>
      <trkpt lat="49.11583" lon="-0.38359">
        <ele>20.6</ele>
        <time>2023-05-23T11:29:05Z</time>
      </trkpt>
      <trkpt lat="49.11579" lon="-0.38359">
        <ele>20.6</ele>
        <time>2023-05-23T11:29:06Z</time>
      </trkpt>
      <trkpt lat="49.11576" lon="-0.38358">
        <ele>20.6</ele>
        <time>2023-05-23T11:29:07Z</time>
      </trkpt>
      <trkpt lat="49.11573" lon="-0.38358">
        <ele>20.6</ele>
        <time>2023-05-23T11:29:08Z</time>
      </trkpt>
      <trkpt lat="49.11569" lon="-0.38357">
        <ele>20.6</ele>
        <time>2023-05-23T11:29:09Z</time>
      </trkpt>
      <trkpt lat="49.11566" lon="-0.38357">
        <ele>20.8</ele>
        <time>2023-05-23T11:29:10Z</time>
      </trkpt>
      <trkpt lat="49.11562" lon="-0.38356">
        <ele>20.8</ele>
        <time>2023-05-23T11:29:11Z</time>
      </trkpt>
      <trkpt lat="49.11559" lon="-0.38356">
        <ele>20.8</ele>
        <time>2023-05-23T11:29:12Z</time>
      </trkpt>
      <trkpt lat="49.11555" lon="-0.38355">
        <ele>20.8</ele>
        <time>2023-05-23T11:29:13Z</time>
      </trkpt>
      <trkpt lat="49.11552" lon="-0.38354">
        <ele>20.8</ele>
        <time>2023-05-23T11:29:14Z</time>
      </trkpt>
      <trkpt lat="49.11548" lon="-0.38354">
        <ele>21</ele>
        <time>2023-05-23T11:29:15Z</time>
      </trkpt>
      <trkpt lat="49.11545" lon="-0.38353">
        <ele>21.2</ele>
        <time>2023-05-23T11:29:16Z</time>
      </trkpt>
      <trkpt lat="49.11541" lon="-0.38352">
        <ele>21.2</ele>
        <time>2023-05-23T11:29:17Z</time>
      </trkpt>
      <trkpt lat="49.11537" lon="-0.3835">
        <ele>21.2</ele>
        <time>2023-05-23T11:29:18Z</time>
      </trkpt>
      <trkpt lat="49.11534" lon="-0.38349">
        <ele>21.4</ele>
        <time>2023-05-23T11:29:19Z</time>
      </trkpt>
      <trkpt lat="49.1153" lon="-0.38347">
        <ele>21.6</ele>
        <time>2023-05-23T11:29:20Z</time>
      </trkpt>
      <trkpt lat="49.11526" lon="-0.38345">
        <ele>21.8</ele>
        <time>2023-05-23T11:29:21Z</time>
      </trkpt>
      <trkpt lat="49.11523" lon="-0.38343">
        <ele>21.8</ele>
        <time>2023-05-23T11:29:22Z</time>
      </trkpt>
      <trkpt lat="49.11519" lon="-0.38341">
        <ele>22.2</ele>
        <time>2023-05-23T11:29:23Z</time>
      </trkpt>
      <trkpt lat="49.11515" lon="-0.38338">
        <ele>22.4</ele>
        <time>2023-05-23T11:29:24Z</time>
      </trkpt>
      <trkpt lat="49.11511" lon="-0.38336">
        <ele>22.8</ele>
        <time>2023-05-23T11:29:25Z</time>
      </trkpt>
      <trkpt lat="49.11508" lon="-0.38333">
        <ele>22.8</ele>
        <time>2023-05-23T11:29:26Z</time>
      </trkpt>
      <trkpt lat="49.11504" lon="-0.38331">
        <ele>23.2</ele>
        <time>2023-05-23T11:29:27Z</time>
      </trkpt>
      <trkpt lat="49.115" lon="-0.38328">
        <ele>23.4</ele>
        <time>2023-05-23T11:29:28Z</time>
      </trkpt>
      <trkpt lat="49.11497" lon="-0.38326">
        <ele>23.6</ele>
        <time>2023-05-23T11:29:29Z</time>
      </trkpt>
      <trkpt lat="49.11493" lon="-0.38324">
        <ele>23.8</ele>
        <time>2023-05-23T11:29:30Z</time>
      </trkpt>
      <trkpt lat="49.1149" lon="-0.38322">
        <ele>23.8</ele>
        <time>2023-05-23T11:29:31Z</time>
      </trkpt>
      <trkpt lat="49.11486" lon="-0.3832">
        <ele>24</ele>
        <time>2023-05-23T11:29:32Z</time>
      </trkpt>
      <trkpt lat="49.11482" lon="-0.38318">
        <ele>24.2</ele>
        <time>2023-05-23T11:29:33Z</time>
      </trkpt>
      <trkpt lat="49.11479" lon="-0.38316">
        <ele>24.2</ele>
        <time>2023-05-23T11:29:34Z</time>
      </trkpt>
      <trkpt lat="49.11475" lon="-0.38314">
        <ele>24.6</ele>
        <time>2023-05-23T11:29:35Z</time>
      </trkpt>
      <trkpt lat="49.11472" lon="-0.38312">
        <ele>24.6</ele>
        <time>2023-05-23T11:29:36Z</time>
      </trkpt>
      <trkpt lat="49.11468" lon="-0.3831">
        <ele>24.8</ele>
        <time>2023-05-23T11:29:37Z</time>
      </trkpt>
      <trkpt lat="49.11465" lon="-0.38308">
        <ele>24.8</ele>
        <time>2023-05-23T11:29:38Z</time>
      </trkpt>
      <trkpt lat="49.11461" lon="-0.38307">
        <ele>25.2</ele>
        <time>2023-05-23T11:29:39Z</time>
      </trkpt>
      <trkpt lat="49.11458" lon="-0.38305">
        <ele>25.2</ele>
        <time>2023-05-23T11:29:40Z</time>
      </trkpt>
      <trkpt lat="49.11455" lon="-0.38303">
        <ele>25.4</ele>
        <time>2023-05-23T11:29:41Z</time>
      </trkpt>
      <trkpt lat="49.11451" lon="-0.38302">
        <ele>25.6</ele>
        <time>2023-05-23T11:29:42Z</time>
      </trkpt>
      <trkpt lat="49.11448" lon="-0.383">
        <ele>25.6</ele>
        <time>2023-05-23T11:29:43Z</time>
      </trkpt>
      <trkpt lat="49.11445" lon="-0.38299">
        <ele>25.8</ele>
        <time>2023-05-23T11:29:44Z</time>
      </trkpt>
      <trkpt lat="49.11442" lon="-0.38297">
        <ele>25.8</ele>
        <time>2023-05-23T11:29:45Z</time>
      </trkpt>
      <trkpt lat="49.11438" lon="-0.38296">
        <ele>26</ele>
        <time>2023-05-23T11:29:46Z</time>
      </trkpt>
      <trkpt lat="49.11435" lon="-0.38294">
        <ele>26.2</ele>
        <time>2023-05-23T11:29:47Z</time>
      </trkpt>
      <trkpt lat="49.11432" lon="-0.38293">
        <ele>26.2</ele>
        <time>2023-05-23T11:29:48Z</time>
      </trkpt>
      <trkpt lat="49.11429" lon="-0.38291">
        <ele>26.4</ele>
        <time>2023-05-23T11:29:49Z</time>
      </trkpt>
      <trkpt lat="49.11426" lon="-0.3829">
        <ele>26.6</ele>
        <time>2023-05-23T11:29:50Z</time>
      </trkpt>
      <trkpt lat="49.11423" lon="-0.38288">
        <ele>26.8</ele>
        <time>2023-05-23T11:29:51Z</time>
      </trkpt>
      <trkpt lat="49.11419" lon="-0.38287">
        <ele>26.8</ele>
        <time>2023-05-23T11:29:52Z</time>
      </trkpt>
      <trkpt lat="49.11416" lon="-0.38285">
        <ele>27</ele>
        <time>2023-05-23T11:29:53Z</time>
      </trkpt>
      <trkpt lat="49.11413" lon="-0.38283">
        <ele>27.2</ele>
        <time>2023-05-23T11:29:54Z</time>
      </trkpt>
      <trkpt lat="49.11409" lon="-0.38282">
        <ele>27.2</ele>
        <time>2023-05-23T11:29:55Z</time>
      </trkpt>
      <trkpt lat="49.11406" lon="-0.3828">
        <ele>27.2</ele>
        <time>2023-05-23T11:29:56Z</time>
      </trkpt>
      <trkpt lat="49.11403" lon="-0.38278">
        <ele>27.2</ele>
        <time>2023-05-23T11:29:57Z</time>
      </trkpt>
      <trkpt lat="49.11399" lon="-0.38276">
        <ele>27.4</ele>
        <time>2023-05-23T11:29:58Z</time>
      </trkpt>
      <trkpt lat="49.11396" lon="-0.38274">
        <ele>27.6</ele>
        <time>2023-05-23T11:29:59Z</time>
      </trkpt>
      <trkpt lat="49.11393" lon="-0.38272">
        <ele>27.6</ele>
        <time>2023-05-23T11:30:00Z</time>
      </trkpt>
      <trkpt lat="49.11389" lon="-0.3827">
        <ele>27.8</ele>
        <time>2023-05-23T11:30:01Z</time>
      </trkpt>
      <trkpt lat="49.11386" lon="-0.38268">
        <ele>27.8</ele>
        <time>2023-05-23T11:30:02Z</time>
      </trkpt>
      <trkpt lat="49.11383" lon="-0.38266">
        <ele>27.8</ele>
        <time>2023-05-23T11:30:03Z</time>
      </trkpt>
      <trkpt lat="49.1138" lon="-0.38265">
        <ele>28</ele>
        <time>2023-05-23T11:30:04Z</time>
      </trkpt>
      <trkpt lat="49.11377" lon="-0.38262">
        <ele>28.2</ele>
        <time>2023-05-23T11:30:05Z</time>
      </trkpt>
      <trkpt lat="49.11374" lon="-0.3826">
        <ele>28.4</ele>
        <time>2023-05-23T11:30:06Z</time>
      </trkpt>
      <trkpt lat="49.11371" lon="-0.38258">
        <ele>28.6</ele>
        <time>2023-05-23T11:30:07Z</time>
      </trkpt>
      <trkpt lat="49.11368" lon="-0.38256">
        <ele>28.8</ele>
        <time>2023-05-23T11:30:08Z</time>
      </trkpt>
      <trkpt lat="49.11365" lon="-0.38253">
        <ele>29</ele>
        <time>2023-05-23T11:30:09Z</time>
      </trkpt>
      <trkpt lat="49.11362" lon="-0.38251">
        <ele>29.2</ele>
        <time>2023-05-23T11:30:10Z</time>
      </trkpt>
      <trkpt lat="49.1136" lon="-0.38248">
        <ele>29.4</ele>
        <time>2023-05-23T11:30:11Z</time>
      </trkpt>
      <trkpt lat="49.11357" lon="-0.38245">
        <ele>29.6</ele>
        <time>2023-05-23T11:30:12Z</time>
      </trkpt>
      <trkpt lat="49.11354" lon="-0.38242">
        <ele>29.6</ele>
        <time>2023-05-23T11:30:13Z</time>
      </trkpt>
      <trkpt lat="49.11352" lon="-0.38239">
        <ele>29.6</ele>
        <time>2023-05-23T11:30:14Z</time>
      </trkpt>
      <trkpt lat="49.1135" lon="-0.38236">
        <ele>29.8</ele>
        <time>2023-05-23T11:30:15Z</time>
      </trkpt>
      <trkpt lat="49.11347" lon="-0.38233">
        <ele>29.8</ele>
        <time>2023-05-23T11:30:16Z</time>
      </trkpt>
      <trkpt lat="49.11345" lon="-0.38229">
        <ele>29.8</ele>
        <time>2023-05-23T11:30:17Z</time>
      </trkpt>
      <trkpt lat="49.11343" lon="-0.38225">
        <ele>30</ele>
        <time>2023-05-23T11:30:18Z</time>
      </trkpt>
      <trkpt lat="49.11341" lon="-0.38222">
        <ele>30.2</ele>
        <time>2023-05-23T11:30:19Z</time>
      </trkpt>
      <trkpt lat="49.11339" lon="-0.38218">
        <ele>30.2</ele>
        <time>2023-05-23T11:30:20Z</time>
      </trkpt>
      <trkpt lat="49.11337" lon="-0.38214">
        <ele>30.4</ele>
        <time>2023-05-23T11:30:21Z</time>
      </trkpt>
      <trkpt lat="49.11335" lon="-0.3821">
        <ele>30.6</ele>
        <time>2023-05-23T11:30:22Z</time>
      </trkpt>
      <trkpt lat="49.11333" lon="-0.38205">
        <ele>30.6</ele>
        <time>2023-05-23T11:30:23Z</time>
      </trkpt>
      <trkpt lat="49.1133" lon="-0.38201">
        <ele>30.8</ele>
        <time>2023-05-23T11:30:24Z</time>
      </trkpt>
      <trkpt lat="49.11328" lon="-0.38197">
        <ele>30.8</ele>
        <time>2023-05-23T11:30:25Z</time>
      </trkpt>
      <trkpt lat="49.11326" lon="-0.38192">
        <ele>31</ele>
        <time>2023-05-23T11:30:26Z</time>
      </trkpt>
      <trkpt lat="49.11324" lon="-0.38188">
        <ele>31.2</ele>
        <time>2023-05-23T11:30:27Z</time>
      </trkpt>
      <trkpt lat="49.11321" lon="-0.38184">
        <ele>31.4</ele>
        <time>2023-05-23T11:30:28Z</time>
      </trkpt>
      <trkpt lat="49.11319" lon="-0.38179">
        <ele>31.8</ele>
        <time>2023-05-23T11:30:29Z</time>
      </trkpt>
      <trkpt lat="49.11316" lon="-0.38174">
        <ele>32</ele>
        <time>2023-05-23T11:30:30Z</time>
      </trkpt>
      <trkpt lat="49.11314" lon="-0.3817">
        <ele>32.2</ele>
        <time>2023-05-23T11:30:31Z</time>
      </trkpt>
      <trkpt lat="49.11311" lon="-0.38165">
        <ele>32.6</ele>
        <time>2023-05-23T11:30:32Z</time>
      </trkpt>
      <trkpt lat="49.11308" lon="-0.3816">
        <ele>32.6</ele>
        <time>2023-05-23T11:30:33Z</time>
      </trkpt>
      <trkpt lat="49.11305" lon="-0.38154">
        <ele>32.8</ele>
        <time>2023-05-23T11:30:34Z</time>
      </trkpt>
      <trkpt lat="49.11302" lon="-0.38149">
        <ele>32.8</ele>
        <time>2023-05-23T11:30:35Z</time>
      </trkpt>
      <trkpt lat="49.11299" lon="-0.38144">
        <ele>33</ele>
        <time>2023-05-23T11:30:36Z</time>
      </trkpt>
      <trkpt lat="49.11296" lon="-0.38138">
        <ele>33</ele>
        <time>2023-05-23T11:30:37Z</time>
      </trkpt>
      <trkpt lat="49.11293" lon="-0.38133">
        <ele>33.2</ele>
        <time>2023-05-23T11:30:38Z</time>
      </trkpt>
      <trkpt lat="49.1129" lon="-0.38127">
        <ele>33.2</ele>
        <time>2023-05-23T11:30:39Z</time>
      </trkpt>
      <trkpt lat="49.11287" lon="-0.38122">
        <ele>33.4</ele>
        <time>2023-05-23T11:30:40Z</time>
      </trkpt>
      <trkpt lat="49.11284" lon="-0.38117">
        <ele>33.6</ele>
        <time>2023-05-23T11:30:41Z</time>
      </trkpt>
      <trkpt lat="49.1128" lon="-0.38113">
        <ele>33.8</ele>
        <time>2023-05-23T11:30:42Z</time>
      </trkpt>
      <trkpt lat="49.11277" lon="-0.38109">
        <ele>33.8</ele>
        <time>2023-05-23T11:30:43Z</time>
      </trkpt>
      <trkpt lat="49.11274" lon="-0.38105">
        <ele>34</ele>
        <time>2023-05-23T11:30:44Z</time>
      </trkpt>
      <trkpt lat="49.1127" lon="-0.38101">
        <ele>34</ele>
        <time>2023-05-23T11:30:45Z</time>
      </trkpt>
      <trkpt lat="49.11267" lon="-0.38098">
        <ele>34.2</ele>
        <time>2023-05-23T11:30:46Z</time>
      </trkpt>
      <trkpt lat="49.11263" lon="-0.38096">
        <ele>34.4</ele>
        <time>2023-05-23T11:30:47Z</time>
      </trkpt>
      <trkpt lat="49.11259" lon="-0.38093">
        <ele>34.6</ele>
        <time>2023-05-23T11:30:48Z</time>
      </trkpt>
      <trkpt lat="49.11255" lon="-0.38091">
        <ele>34.8</ele>
        <time>2023-05-23T11:30:49Z</time>
      </trkpt>
      <trkpt lat="49.11251" lon="-0.38088">
        <ele>35</ele>
        <time>2023-05-23T11:30:50Z</time>
      </trkpt>
      <trkpt lat="49.11247" lon="-0.38085">
        <ele>35.2</ele>
        <time>2023-05-23T11:30:51Z</time>
      </trkpt>
      <trkpt lat="49.11243" lon="-0.38083">
        <ele>35.6</ele>
        <time>2023-05-23T11:30:52Z</time>
      </trkpt>
      <trkpt lat="49.11239" lon="-0.3808">
        <ele>35.8</ele>
        <time>2023-05-23T11:30:53Z</time>
      </trkpt>
      <trkpt lat="49.11235" lon="-0.38077">
        <ele>36</ele>
        <time>2023-05-23T11:30:54Z</time>
      </trkpt>
      <trkpt lat="49.11231" lon="-0.38075">
        <ele>36</ele>
        <time>2023-05-23T11:30:55Z</time>
      </trkpt>
      <trkpt lat="49.11228" lon="-0.38072">
        <ele>36.2</ele>
        <time>2023-05-23T11:30:56Z</time>
      </trkpt>
      <trkpt lat="49.11224" lon="-0.38069">
        <ele>36.6</ele>
        <time>2023-05-23T11:30:57Z</time>
      </trkpt>
      <trkpt lat="49.11221" lon="-0.38067">
        <ele>36.6</ele>
        <time>2023-05-23T11:30:58Z</time>
      </trkpt>
      <trkpt lat="49.11217" lon="-0.38064">
        <ele>36.8</ele>
        <time>2023-05-23T11:30:59Z</time>
      </trkpt>
      <trkpt lat="49.11214" lon="-0.38062">
        <ele>37</ele>
        <time>2023-05-23T11:31:00Z</time>
      </trkpt>
      <trkpt lat="49.1121" lon="-0.38059">
        <ele>37.2</ele>
        <time>2023-05-23T11:31:01Z</time>
      </trkpt>
      <trkpt lat="49.11206" lon="-0.38057">
        <ele>37.4</ele>
        <time>2023-05-23T11:31:02Z</time>
      </trkpt>
      <trkpt lat="49.11202" lon="-0.38054">
        <ele>37.6</ele>
        <time>2023-05-23T11:31:03Z</time>
      </trkpt>
      <trkpt lat="49.11198" lon="-0.38051">
        <ele>37.8</ele>
        <time>2023-05-23T11:31:04Z</time>
      </trkpt>
      <trkpt lat="49.11193" lon="-0.38049">
        <ele>38</ele>
        <time>2023-05-23T11:31:05Z</time>
      </trkpt>
      <trkpt lat="49.11189" lon="-0.38046">
        <ele>38</ele>
        <time>2023-05-23T11:31:06Z</time>
      </trkpt>
      <trkpt lat="49.11185" lon="-0.38042">
        <ele>38.2</ele>
        <time>2023-05-23T11:31:07Z</time>
      </trkpt>
      <trkpt lat="49.11181" lon="-0.38039">
        <ele>38.6</ele>
        <time>2023-05-23T11:31:08Z</time>
      </trkpt>
      <trkpt lat="49.11176" lon="-0.38036">
        <ele>38.8</ele>
        <time>2023-05-23T11:31:09Z</time>
      </trkpt>
      <trkpt lat="49.11172" lon="-0.38033">
        <ele>38.8</ele>
        <time>2023-05-23T11:31:10Z</time>
      </trkpt>
      <trkpt lat="49.11168" lon="-0.3803">
        <ele>39</ele>
        <time>2023-05-23T11:31:11Z</time>
      </trkpt>
      <trkpt lat="49.11164" lon="-0.38026">
        <ele>39</ele>
        <time>2023-05-23T11:31:12Z</time>
      </trkpt>
      <trkpt lat="49.11159" lon="-0.38023">
        <ele>39</ele>
        <time>2023-05-23T11:31:13Z</time>
      </trkpt>
      <trkpt lat="49.11155" lon="-0.3802">
        <ele>39.2</ele>
        <time>2023-05-23T11:31:14Z</time>
      </trkpt>
      <trkpt lat="49.11151" lon="-0.38017">
        <ele>39.2</ele>
        <time>2023-05-23T11:31:15Z</time>
      </trkpt>
      <trkpt lat="49.11147" lon="-0.38014">
        <ele>39.4</ele>
        <time>2023-05-23T11:31:16Z</time>
      </trkpt>
      <trkpt lat="49.11143" lon="-0.38012">
        <ele>39.6</ele>
        <time>2023-05-23T11:31:17Z</time>
      </trkpt>
      <trkpt lat="49.11139" lon="-0.38009">
        <ele>39.8</ele>
        <time>2023-05-23T11:31:18Z</time>
      </trkpt>
      <trkpt lat="49.11134" lon="-0.38006">
        <ele>40</ele>
        <time>2023-05-23T11:31:19Z</time>
      </trkpt>
      <trkpt lat="49.1113" lon="-0.38003">
        <ele>40.2</ele>
        <time>2023-05-23T11:31:20Z</time>
      </trkpt>
      <trkpt lat="49.11127" lon="-0.38001">
        <ele>40.4</ele>
        <time>2023-05-23T11:31:21Z</time>
      </trkpt>
      <trkpt lat="49.11123" lon="-0.37998">
        <ele>40.6</ele>
        <time>2023-05-23T11:31:22Z</time>
      </trkpt>
      <trkpt lat="49.11119" lon="-0.37996">
        <ele>40.8</ele>
        <time>2023-05-23T11:31:23Z</time>
      </trkpt>
      <trkpt lat="49.11115" lon="-0.37993">
        <ele>41</ele>
        <time>2023-05-23T11:31:24Z</time>
      </trkpt>
      <trkpt lat="49.11111" lon="-0.3799">
        <ele>41</ele>
        <time>2023-05-23T11:31:25Z</time>
      </trkpt>
      <trkpt lat="49.11107" lon="-0.37988">
        <ele>41.2</ele>
        <time>2023-05-23T11:31:26Z</time>
      </trkpt>
      <trkpt lat="49.11103" lon="-0.37985">
        <ele>41.2</ele>
        <time>2023-05-23T11:31:27Z</time>
      </trkpt>
      <trkpt lat="49.11099" lon="-0.37983">
        <ele>41.6</ele>
        <time>2023-05-23T11:31:28Z</time>
      </trkpt>
      <trkpt lat="49.11095" lon="-0.3798">
        <ele>41.6</ele>
        <time>2023-05-23T11:31:29Z</time>
      </trkpt>
      <trkpt lat="49.11091" lon="-0.37978">
        <ele>41.8</ele>
        <time>2023-05-23T11:31:30Z</time>
      </trkpt>
      <trkpt lat="49.11086" lon="-0.37976">
        <ele>42</ele>
        <time>2023-05-23T11:31:31Z</time>
      </trkpt>
      <trkpt lat="49.11082" lon="-0.37974">
        <ele>42</ele>
        <time>2023-05-23T11:31:32Z</time>
      </trkpt>
      <trkpt lat="49.11077" lon="-0.37972">
        <ele>42</ele>
        <time>2023-05-23T11:31:33Z</time>
      </trkpt>
      <trkpt lat="49.11072" lon="-0.3797">
        <ele>41.8</ele>
        <time>2023-05-23T11:31:34Z</time>
      </trkpt>
      <trkpt lat="49.11067" lon="-0.37969">
        <ele>41.6</ele>
        <time>2023-05-23T11:31:35Z</time>
      </trkpt>
      <trkpt lat="49.11062" lon="-0.37967">
        <ele>41.6</ele>
        <time>2023-05-23T11:31:36Z</time>
      </trkpt>
      <trkpt lat="49.11057" lon="-0.37966">
        <ele>41.4</ele>
        <time>2023-05-23T11:31:37Z</time>
      </trkpt>
      <trkpt lat="49.11052" lon="-0.37965">
        <ele>41.2</ele>
        <time>2023-05-23T11:31:38Z</time>
      </trkpt>
      <trkpt lat="49.11047" lon="-0.37964">
        <ele>41.2</ele>
        <time>2023-05-23T11:31:39Z</time>
      </trkpt>
      <trkpt lat="49.11042" lon="-0.37963">
        <ele>41</ele>
        <time>2023-05-23T11:31:40Z</time>
      </trkpt>
      <trkpt lat="49.11037" lon="-0.37962">
        <ele>41</ele>
        <time>2023-05-23T11:31:41Z</time>
      </trkpt>
      <trkpt lat="49.11032" lon="-0.3796">
        <ele>41</ele>
        <time>2023-05-23T11:31:42Z</time>
      </trkpt>
      <trkpt lat="49.11026" lon="-0.37958">
        <ele>40.8</ele>
        <time>2023-05-23T11:31:43Z</time>
      </trkpt>
      <trkpt lat="49.1102" lon="-0.37956">
        <ele>40.8</ele>
        <time>2023-05-23T11:31:44Z</time>
      </trkpt>
      <trkpt lat="49.11015" lon="-0.37953">
        <ele>40.6</ele>
        <time>2023-05-23T11:31:45Z</time>
      </trkpt>
      <trkpt lat="49.11009" lon="-0.37951">
        <ele>40.6</ele>
        <time>2023-05-23T11:31:46Z</time>
      </trkpt>
      <trkpt lat="49.11004" lon="-0.3795">
        <ele>40.4</ele>
        <time>2023-05-23T11:31:47Z</time>
      </trkpt>
      <trkpt lat="49.10998" lon="-0.37948">
        <ele>40.2</ele>
        <time>2023-05-23T11:31:48Z</time>
      </trkpt>
      <trkpt lat="49.10993" lon="-0.37946">
        <ele>40</ele>
        <time>2023-05-23T11:31:49Z</time>
      </trkpt>
      <trkpt lat="49.10988" lon="-0.37945">
        <ele>39.8</ele>
        <time>2023-05-23T11:31:50Z</time>
      </trkpt>
      <trkpt lat="49.10983" lon="-0.37944">
        <ele>39.6</ele>
        <time>2023-05-23T11:31:51Z</time>
      </trkpt>
      <trkpt lat="49.10978" lon="-0.37943">
        <ele>39.2</ele>
        <time>2023-05-23T11:31:52Z</time>
      </trkpt>
      <trkpt lat="49.10972" lon="-0.37941">
        <ele>39</ele>
        <time>2023-05-23T11:31:53Z</time>
      </trkpt>
      <trkpt lat="49.10967" lon="-0.3794">
        <ele>38.8</ele>
        <time>2023-05-23T11:31:54Z</time>
      </trkpt>
      <trkpt lat="49.10961" lon="-0.37938">
        <ele>38.6</ele>
        <time>2023-05-23T11:31:55Z</time>
      </trkpt>
      <trkpt lat="49.10955" lon="-0.37936">
        <ele>38.2</ele>
        <time>2023-05-23T11:31:56Z</time>
      </trkpt>
      <trkpt lat="49.10949" lon="-0.37934">
        <ele>38</ele>
        <time>2023-05-23T11:31:57Z</time>
      </trkpt>
      <trkpt lat="49.10942" lon="-0.37931">
        <ele>37.8</ele>
        <time>2023-05-23T11:31:58Z</time>
      </trkpt>
      <trkpt lat="49.10935" lon="-0.37929">
        <ele>37.6</ele>
        <time>2023-05-23T11:31:59Z</time>
      </trkpt>
      <trkpt lat="49.10929" lon="-0.37926">
        <ele>37.2</ele>
        <time>2023-05-23T11:32:00Z</time>
      </trkpt>
      <trkpt lat="49.10922" lon="-0.37924">
        <ele>37</ele>
        <time>2023-05-23T11:32:01Z</time>
      </trkpt>
      <trkpt lat="49.10915" lon="-0.37922">
        <ele>37</ele>
        <time>2023-05-23T11:32:02Z</time>
      </trkpt>
      <trkpt lat="49.10909" lon="-0.3792">
        <ele>37</ele>
        <time>2023-05-23T11:32:03Z</time>
      </trkpt>
      <trkpt lat="49.10902" lon="-0.37918">
        <ele>37</ele>
        <time>2023-05-23T11:32:04Z</time>
      </trkpt>
      <trkpt lat="49.10896" lon="-0.37916">
        <ele>37.2</ele>
        <time>2023-05-23T11:32:05Z</time>
      </trkpt>
      <trkpt lat="49.10889" lon="-0.37914">
        <ele>37.2</ele>
        <time>2023-05-23T11:32:06Z</time>
      </trkpt>
      <trkpt lat="49.10883" lon="-0.37912">
        <ele>37.4</ele>
        <time>2023-05-23T11:32:07Z</time>
      </trkpt>
      <trkpt lat="49.10876" lon="-0.3791">
        <ele>37.4</ele>
        <time>2023-05-23T11:32:08Z</time>
      </trkpt>
      <trkpt lat="49.1087" lon="-0.37908">
        <ele>37.6</ele>
        <time>2023-05-23T11:32:09Z</time>
      </trkpt>
      <trkpt lat="49.10863" lon="-0.37905">
        <ele>37.6</ele>
        <time>2023-05-23T11:32:10Z</time>
      </trkpt>
      <trkpt lat="49.10857" lon="-0.37903">
        <ele>37.6</ele>
        <time>2023-05-23T11:32:11Z</time>
      </trkpt>
      <trkpt lat="49.1085" lon="-0.37901">
        <ele>37.6</ele>
        <time>2023-05-23T11:32:12Z</time>
      </trkpt>
      <trkpt lat="49.10843" lon="-0.37899">
        <ele>37.6</ele>
        <time>2023-05-23T11:32:13Z</time>
      </trkpt>
      <trkpt lat="49.10837" lon="-0.37897">
        <ele>37.6</ele>
        <time>2023-05-23T11:32:14Z</time>
      </trkpt>
      <trkpt lat="49.1083" lon="-0.37895">
        <ele>37.6</ele>
        <time>2023-05-23T11:32:15Z</time>
      </trkpt>
      <trkpt lat="49.10824" lon="-0.37893">
        <ele>37.6</ele>
        <time>2023-05-23T11:32:16Z</time>
      </trkpt>
      <trkpt lat="49.10817" lon="-0.37891">
        <ele>37.6</ele>
        <time>2023-05-23T11:32:17Z</time>
      </trkpt>
      <trkpt lat="49.10811" lon="-0.37889">
        <ele>37.6</ele>
        <time>2023-05-23T11:32:18Z</time>
      </trkpt>
      <trkpt lat="49.10804" lon="-0.37887">
        <ele>37.6</ele>
        <time>2023-05-23T11:32:19Z</time>
      </trkpt>
      <trkpt lat="49.10798" lon="-0.37885">
        <ele>37.8</ele>
        <time>2023-05-23T11:32:20Z</time>
      </trkpt>
      <trkpt lat="49.10792" lon="-0.37883">
        <ele>37.8</ele>
        <time>2023-05-23T11:32:21Z</time>
      </trkpt>
      <trkpt lat="49.10785" lon="-0.37881">
        <ele>37.8</ele>
        <time>2023-05-23T11:32:22Z</time>
      </trkpt>
      <trkpt lat="49.10779" lon="-0.37879">
        <ele>37.8</ele>
        <time>2023-05-23T11:32:23Z</time>
      </trkpt>
      <trkpt lat="49.10772" lon="-0.37877">
        <ele>37.8</ele>
        <time>2023-05-23T11:32:24Z</time>
      </trkpt>
      <trkpt lat="49.10766" lon="-0.37875">
        <ele>37.8</ele>
        <time>2023-05-23T11:32:25Z</time>
      </trkpt>
      <trkpt lat="49.1076" lon="-0.37873">
        <ele>37.8</ele>
        <time>2023-05-23T11:32:26Z</time>
      </trkpt>
      <trkpt lat="49.10754" lon="-0.37871">
        <ele>38</ele>
        <time>2023-05-23T11:32:27Z</time>
      </trkpt>
      <trkpt lat="49.10747" lon="-0.37869">
        <ele>38</ele>
        <time>2023-05-23T11:32:28Z</time>
      </trkpt>
      <trkpt lat="49.10741" lon="-0.37867">
        <ele>37.8</ele>
        <time>2023-05-23T11:32:29Z</time>
      </trkpt>
      <trkpt lat="49.10735" lon="-0.37865">
        <ele>37.8</ele>
        <time>2023-05-23T11:32:30Z</time>
      </trkpt>
      <trkpt lat="49.10728" lon="-0.37863">
        <ele>37.8</ele>
        <time>2023-05-23T11:32:31Z</time>
      </trkpt>
      <trkpt lat="49.10722" lon="-0.37861">
        <ele>37.8</ele>
        <time>2023-05-23T11:32:32Z</time>
      </trkpt>
      <trkpt lat="49.10716" lon="-0.37859">
        <ele>37.8</ele>
        <time>2023-05-23T11:32:33Z</time>
      </trkpt>
      <trkpt lat="49.10709" lon="-0.37857">
        <ele>37.8</ele>
        <time>2023-05-23T11:32:34Z</time>
      </trkpt>
      <trkpt lat="49.10703" lon="-0.37855">
        <ele>37.8</ele>
        <time>2023-05-23T11:32:35Z</time>
      </trkpt>
      <trkpt lat="49.10696" lon="-0.37853">
        <ele>37.8</ele>
        <time>2023-05-23T11:32:36Z</time>
      </trkpt>
      <trkpt lat="49.1069" lon="-0.37851">
        <ele>37.8</ele>
        <time>2023-05-23T11:32:37Z</time>
      </trkpt>
      <trkpt lat="49.10684" lon="-0.37849">
        <ele>38</ele>
        <time>2023-05-23T11:32:38Z</time>
      </trkpt>
      <trkpt lat="49.10677" lon="-0.37847">
        <ele>38</ele>
        <time>2023-05-23T11:32:39Z</time>
      </trkpt>
      <trkpt lat="49.10671" lon="-0.37845">
        <ele>38</ele>
        <time>2023-05-23T11:32:40Z</time>
      </trkpt>
      <trkpt lat="49.10664" lon="-0.37843">
        <ele>38</ele>
        <time>2023-05-23T11:32:41Z</time>
      </trkpt>
      <trkpt lat="49.10658" lon="-0.37841">
        <ele>38.2</ele>
        <time>2023-05-23T11:32:42Z</time>
      </trkpt>
      <trkpt lat="49.10651" lon="-0.37839">
        <ele>38.4</ele>
        <time>2023-05-23T11:32:43Z</time>
      </trkpt>
      <trkpt lat="49.10645" lon="-0.37837">
        <ele>38.6</ele>
        <time>2023-05-23T11:32:44Z</time>
      </trkpt>
      <trkpt lat="49.10638" lon="-0.37835">
        <ele>38.8</ele>
        <time>2023-05-23T11:32:45Z</time>
      </trkpt>
      <trkpt lat="49.10632" lon="-0.37833">
        <ele>38.8</ele>
        <time>2023-05-23T11:32:46Z</time>
      </trkpt>
      <trkpt lat="49.10626" lon="-0.37831">
        <ele>39</ele>
        <time>2023-05-23T11:32:47Z</time>
      </trkpt>
      <trkpt lat="49.1062" lon="-0.37829">
        <ele>39</ele>
        <time>2023-05-23T11:32:48Z</time>
      </trkpt>
      <trkpt lat="49.10613" lon="-0.37827">
        <ele>39.2</ele>
        <time>2023-05-23T11:32:49Z</time>
      </trkpt>
      <trkpt lat="49.10607" lon="-0.37825">
        <ele>39.4</ele>
        <time>2023-05-23T11:32:50Z</time>
      </trkpt>
      <trkpt lat="49.10601" lon="-0.37823">
        <ele>39.6</ele>
        <time>2023-05-23T11:32:51Z</time>
      </trkpt>
      <trkpt lat="49.10595" lon="-0.37821">
        <ele>39.6</ele>
        <time>2023-05-23T11:32:52Z</time>
      </trkpt>
      <trkpt lat="49.10589" lon="-0.37819">
        <ele>39.8</ele>
        <time>2023-05-23T11:32:53Z</time>
      </trkpt>
      <trkpt lat="49.10583" lon="-0.37817">
        <ele>40</ele>
        <time>2023-05-23T11:32:54Z</time>
      </trkpt>
      <trkpt lat="49.10577" lon="-0.37815">
        <ele>40.6</ele>
        <time>2023-05-23T11:32:55Z</time>
      </trkpt>
      <trkpt lat="49.10571" lon="-0.37812">
        <ele>41.2</ele>
        <time>2023-05-23T11:32:56Z</time>
      </trkpt>
      <trkpt lat="49.10565" lon="-0.3781">
        <ele>41.8</ele>
        <time>2023-05-23T11:32:57Z</time>
      </trkpt>
      <trkpt lat="49.1056" lon="-0.37807">
        <ele>42.2</ele>
        <time>2023-05-23T11:32:58Z</time>
      </trkpt>
      <trkpt lat="49.10555" lon="-0.37804">
        <ele>42.8</ele>
        <time>2023-05-23T11:32:59Z</time>
      </trkpt>
      <trkpt lat="49.1055" lon="-0.378">
        <ele>43.2</ele>
        <time>2023-05-23T11:33:00Z</time>
      </trkpt>
      <trkpt lat="49.10545" lon="-0.37795">
        <ele>43.8</ele>
        <time>2023-05-23T11:33:01Z</time>
      </trkpt>
      <trkpt lat="49.1054" lon="-0.3779">
        <ele>44</ele>
        <time>2023-05-23T11:33:02Z</time>
      </trkpt>
      <trkpt lat="49.10536" lon="-0.37784">
        <ele>44.4</ele>
        <time>2023-05-23T11:33:03Z</time>
      </trkpt>
      <trkpt lat="49.10532" lon="-0.37777">
        <ele>44.8</ele>
        <time>2023-05-23T11:33:04Z</time>
      </trkpt>
      <trkpt lat="49.10528" lon="-0.37771">
        <ele>45</ele>
        <time>2023-05-23T11:33:05Z</time>
      </trkpt>
      <trkpt lat="49.10524" lon="-0.37764">
        <ele>45</ele>
        <time>2023-05-23T11:33:06Z</time>
      </trkpt>
      <trkpt lat="49.1052" lon="-0.37758">
        <ele>45.2</ele>
        <time>2023-05-23T11:33:07Z</time>
      </trkpt>
      <trkpt lat="49.10516" lon="-0.37751">
        <ele>45.6</ele>
        <time>2023-05-23T11:33:08Z</time>
      </trkpt>
      <trkpt lat="49.10513" lon="-0.37744">
        <ele>45.6</ele>
        <time>2023-05-23T11:33:09Z</time>
      </trkpt>
      <trkpt lat="49.10509" lon="-0.37738">
        <ele>45.8</ele>
        <time>2023-05-23T11:33:10Z</time>
      </trkpt>
      <trkpt lat="49.10505" lon="-0.37731">
        <ele>46</ele>
        <time>2023-05-23T11:33:11Z</time>
      </trkpt>
      <trkpt lat="49.10501" lon="-0.37725">
        <ele>46</ele>
        <time>2023-05-23T11:33:12Z</time>
      </trkpt>
      <trkpt lat="49.10497" lon="-0.37718">
        <ele>46</ele>
        <time>2023-05-23T11:33:13Z</time>
      </trkpt>
      <trkpt lat="49.10493" lon="-0.37712">
        <ele>46</ele>
        <time>2023-05-23T11:33:14Z</time>
      </trkpt>
      <trkpt lat="49.1049" lon="-0.37706">
        <ele>46.2</ele>
        <time>2023-05-23T11:33:15Z</time>
      </trkpt>
      <trkpt lat="49.10486" lon="-0.377">
        <ele>46.2</ele>
        <time>2023-05-23T11:33:16Z</time>
      </trkpt>
      <trkpt lat="49.10482" lon="-0.37693">
        <ele>46.4</ele>
        <time>2023-05-23T11:33:17Z</time>
      </trkpt>
      <trkpt lat="49.10479" lon="-0.37687">
        <ele>46.6</ele>
        <time>2023-05-23T11:33:18Z</time>
      </trkpt>
      <trkpt lat="49.10475" lon="-0.37682">
        <ele>46.8</ele>
        <time>2023-05-23T11:33:19Z</time>
      </trkpt>
      <trkpt lat="49.10472" lon="-0.37676">
        <ele>47</ele>
        <time>2023-05-23T11:33:20Z</time>
      </trkpt>
      <trkpt lat="49.10469" lon="-0.3767">
        <ele>47</ele>
        <time>2023-05-23T11:33:21Z</time>
      </trkpt>
      <trkpt lat="49.10465" lon="-0.37665">
        <ele>47.2</ele>
        <time>2023-05-23T11:33:22Z</time>
      </trkpt>
      <trkpt lat="49.10462" lon="-0.37659">
        <ele>47.6</ele>
        <time>2023-05-23T11:33:23Z</time>
      </trkpt>
      <trkpt lat="49.10459" lon="-0.37653">
        <ele>47.8</ele>
        <time>2023-05-23T11:33:24Z</time>
      </trkpt>
      <trkpt lat="49.10455" lon="-0.37648">
        <ele>48</ele>
        <time>2023-05-23T11:33:25Z</time>
      </trkpt>
      <trkpt lat="49.10452" lon="-0.37642">
        <ele>48.2</ele>
        <time>2023-05-23T11:33:26Z</time>
      </trkpt>
      <trkpt lat="49.10448" lon="-0.37636">
        <ele>48.4</ele>
        <time>2023-05-23T11:33:27Z</time>
      </trkpt>
      <trkpt lat="49.10445" lon="-0.37631">
        <ele>48.6</ele>
        <time>2023-05-23T11:33:28Z</time>
      </trkpt>
      <trkpt lat="49.10442" lon="-0.37625">
        <ele>48.8</ele>
        <time>2023-05-23T11:33:29Z</time>
      </trkpt>
      <trkpt lat="49.10438" lon="-0.37619">
        <ele>48.8</ele>
        <time>2023-05-23T11:33:30Z</time>
      </trkpt>
      <trkpt lat="49.10435" lon="-0.37614">
        <ele>49</ele>
        <time>2023-05-23T11:33:31Z</time>
      </trkpt>
      <trkpt lat="49.10432" lon="-0.37609">
        <ele>49</ele>
        <time>2023-05-23T11:33:32Z</time>
      </trkpt>
      <trkpt lat="49.10428" lon="-0.37604">
        <ele>49</ele>
        <time>2023-05-23T11:33:33Z</time>
      </trkpt>
      <trkpt lat="49.10424" lon="-0.37599">
        <ele>49</ele>
        <time>2023-05-23T11:33:34Z</time>
      </trkpt>
      <trkpt lat="49.10421" lon="-0.37595">
        <ele>49.2</ele>
        <time>2023-05-23T11:33:35Z</time>
      </trkpt>
      <trkpt lat="49.10417" lon="-0.37591">
        <ele>49.2</ele>
        <time>2023-05-23T11:33:36Z</time>
      </trkpt>
      <trkpt lat="49.10413" lon="-0.37587">
        <ele>49.2</ele>
        <time>2023-05-23T11:33:37Z</time>
      </trkpt>
      <trkpt lat="49.10409" lon="-0.37583">
        <ele>49.4</ele>
        <time>2023-05-23T11:33:38Z</time>
      </trkpt>
      <trkpt lat="49.10405" lon="-0.3758">
        <ele>49.6</ele>
        <time>2023-05-23T11:33:39Z</time>
      </trkpt>
      <trkpt lat="49.10401" lon="-0.37576">
        <ele>50</ele>
        <time>2023-05-23T11:33:40Z</time>
      </trkpt>
      <trkpt lat="49.10396" lon="-0.37573">
        <ele>50</ele>
        <time>2023-05-23T11:33:41Z</time>
      </trkpt>
      <trkpt lat="49.10392" lon="-0.3757">
        <ele>50.2</ele>
        <time>2023-05-23T11:33:42Z</time>
      </trkpt>
      <trkpt lat="49.10388" lon="-0.37567">
        <ele>50.6</ele>
        <time>2023-05-23T11:33:43Z</time>
      </trkpt>
      <trkpt lat="49.10383" lon="-0.37564">
        <ele>50.8</ele>
        <time>2023-05-23T11:33:44Z</time>
      </trkpt>
      <trkpt lat="49.10379" lon="-0.37562">
        <ele>51</ele>
        <time>2023-05-23T11:33:45Z</time>
      </trkpt>
      <trkpt lat="49.10375" lon="-0.3756">
        <ele>51.2</ele>
        <time>2023-05-23T11:33:46Z</time>
      </trkpt>
      <trkpt lat="49.1037" lon="-0.37558">
        <ele>51.6</ele>
        <time>2023-05-23T11:33:47Z</time>
      </trkpt>
      <trkpt lat="49.10366" lon="-0.37556">
        <ele>51.8</ele>
        <time>2023-05-23T11:33:48Z</time>
      </trkpt>
      <trkpt lat="49.10362" lon="-0.37555">
        <ele>52</ele>
        <time>2023-05-23T11:33:49Z</time>
      </trkpt>
      <trkpt lat="49.10358" lon="-0.37554">
        <ele>52.2</ele>
        <time>2023-05-23T11:33:50Z</time>
      </trkpt>
      <trkpt lat="49.10353" lon="-0.37553">
        <ele>52.4</ele>
        <time>2023-05-23T11:33:51Z</time>
      </trkpt>
      <trkpt lat="49.10349" lon="-0.37552">
        <ele>52.6</ele>
        <time>2023-05-23T11:33:52Z</time>
      </trkpt>
      <trkpt lat="49.10345" lon="-0.37552">
        <ele>52.8</ele>
        <time>2023-05-23T11:33:53Z</time>
      </trkpt>
      <trkpt lat="49.1034" lon="-0.37551">
        <ele>53</ele>
        <time>2023-05-23T11:33:54Z</time>
      </trkpt>
      <trkpt lat="49.10336" lon="-0.37551">
        <ele>53.2</ele>
        <time>2023-05-23T11:33:55Z</time>
      </trkpt>
      <trkpt lat="49.10332" lon="-0.37551">
        <ele>53.4</ele>
        <time>2023-05-23T11:33:56Z</time>
      </trkpt>
      <trkpt lat="49.10328" lon="-0.37551">
        <ele>53.6</ele>
        <time>2023-05-23T11:33:57Z</time>
      </trkpt>
      <trkpt lat="49.10324" lon="-0.37552">
        <ele>53.6</ele>
        <time>2023-05-23T11:33:58Z</time>
      </trkpt>
      <trkpt lat="49.10319" lon="-0.37552">
        <ele>53.8</ele>
        <time>2023-05-23T11:33:59Z</time>
      </trkpt>
      <trkpt lat="49.10315" lon="-0.37553">
        <ele>53.8</ele>
        <time>2023-05-23T11:34:00Z</time>
      </trkpt>
      <trkpt lat="49.10311" lon="-0.37554">
        <ele>54</ele>
        <time>2023-05-23T11:34:01Z</time>
      </trkpt>
      <trkpt lat="49.10307" lon="-0.37555">
        <ele>54</ele>
        <time>2023-05-23T11:34:02Z</time>
      </trkpt>
      <trkpt lat="49.10303" lon="-0.37556">
        <ele>54</ele>
        <time>2023-05-23T11:34:03Z</time>
      </trkpt>
      <trkpt lat="49.10299" lon="-0.37558">
        <ele>54</ele>
        <time>2023-05-23T11:34:04Z</time>
      </trkpt>
      <trkpt lat="49.10295" lon="-0.3756">
        <ele>54.2</ele>
        <time>2023-05-23T11:34:05Z</time>
      </trkpt>
      <trkpt lat="49.10291" lon="-0.37562">
        <ele>54.2</ele>
        <time>2023-05-23T11:34:06Z</time>
      </trkpt>
      <trkpt lat="49.10287" lon="-0.37564">
        <ele>54.2</ele>
        <time>2023-05-23T11:34:07Z</time>
      </trkpt>
      <trkpt lat="49.10283" lon="-0.37566">
        <ele>54.4</ele>
        <time>2023-05-23T11:34:08Z</time>
      </trkpt>
      <trkpt lat="49.10279" lon="-0.37568">
        <ele>54.6</ele>
        <time>2023-05-23T11:34:09Z</time>
      </trkpt>
      <trkpt lat="49.10275" lon="-0.3757">
        <ele>54.6</ele>
        <time>2023-05-23T11:34:10Z</time>
      </trkpt>
      <trkpt lat="49.10271" lon="-0.37572">
        <ele>54.6</ele>
        <time>2023-05-23T11:34:11Z</time>
      </trkpt>
      <trkpt lat="49.10267" lon="-0.37574">
        <ele>54.8</ele>
        <time>2023-05-23T11:34:12Z</time>
      </trkpt>
      <trkpt lat="49.10263" lon="-0.37576">
        <ele>54.8</ele>
        <time>2023-05-23T11:34:13Z</time>
      </trkpt>
      <trkpt lat="49.10259" lon="-0.37578">
        <ele>54.8</ele>
        <time>2023-05-23T11:34:14Z</time>
      </trkpt>
      <trkpt lat="49.10255" lon="-0.37579">
        <ele>55</ele>
        <time>2023-05-23T11:34:15Z</time>
      </trkpt>
      <trkpt lat="49.10251" lon="-0.3758">
        <ele>55</ele>
        <time>2023-05-23T11:34:16Z</time>
      </trkpt>
      <trkpt lat="49.10247" lon="-0.37581">
        <ele>55</ele>
        <time>2023-05-23T11:34:17Z</time>
      </trkpt>
      <trkpt lat="49.10243" lon="-0.37582">
        <ele>55.2</ele>
        <time>2023-05-23T11:34:18Z</time>
      </trkpt>
      <trkpt lat="49.10239" lon="-0.37583">
        <ele>55.2</ele>
        <time>2023-05-23T11:34:19Z</time>
      </trkpt>
      <trkpt lat="49.10235" lon="-0.37583">
        <ele>55.4</ele>
        <time>2023-05-23T11:34:20Z</time>
      </trkpt>
      <trkpt lat="49.1023" lon="-0.37583">
        <ele>55.6</ele>
        <time>2023-05-23T11:34:21Z</time>
      </trkpt>
      <trkpt lat="49.10226" lon="-0.37583">
        <ele>55.6</ele>
        <time>2023-05-23T11:34:22Z</time>
      </trkpt>
      <trkpt lat="49.10222" lon="-0.37582">
        <ele>55.8</ele>
        <time>2023-05-23T11:34:23Z</time>
      </trkpt>
      <trkpt lat="49.10218" lon="-0.37582">
        <ele>55.8</ele>
        <time>2023-05-23T11:34:24Z</time>
      </trkpt>
      <trkpt lat="49.10215" lon="-0.3758">
        <ele>56</ele>
        <time>2023-05-23T11:34:25Z</time>
      </trkpt>
      <trkpt lat="49.10211" lon="-0.37578">
        <ele>56</ele>
        <time>2023-05-23T11:34:26Z</time>
      </trkpt>
      <trkpt lat="49.10208" lon="-0.37576">
        <ele>56</ele>
        <time>2023-05-23T11:34:27Z</time>
      </trkpt>
      <trkpt lat="49.10204" lon="-0.37573">
        <ele>56.2</ele>
        <time>2023-05-23T11:34:28Z</time>
      </trkpt>
      <trkpt lat="49.10201" lon="-0.3757">
        <ele>56.2</ele>
        <time>2023-05-23T11:34:29Z</time>
      </trkpt>
      <trkpt lat="49.10198" lon="-0.37567">
        <ele>56.2</ele>
        <time>2023-05-23T11:34:30Z</time>
      </trkpt>
      <trkpt lat="49.10194" lon="-0.37564">
        <ele>56.4</ele>
        <time>2023-05-23T11:34:31Z</time>
      </trkpt>
      <trkpt lat="49.10191" lon="-0.3756">
        <ele>56.6</ele>
        <time>2023-05-23T11:34:32Z</time>
      </trkpt>
      <trkpt lat="49.10188" lon="-0.37556">
        <ele>56.6</ele>
        <time>2023-05-23T11:34:33Z</time>
      </trkpt>
      <trkpt lat="49.10184" lon="-0.37552">
        <ele>56.8</ele>
        <time>2023-05-23T11:34:34Z</time>
      </trkpt>
      <trkpt lat="49.10181" lon="-0.37548">
        <ele>56.8</ele>
        <time>2023-05-23T11:34:35Z</time>
      </trkpt>
      <trkpt lat="49.10177" lon="-0.37543">
        <ele>56.8</ele>
        <time>2023-05-23T11:34:36Z</time>
      </trkpt>
      <trkpt lat="49.10174" lon="-0.37539">
        <ele>57</ele>
        <time>2023-05-23T11:34:37Z</time>
      </trkpt>
      <trkpt lat="49.1017" lon="-0.37535">
        <ele>57</ele>
        <time>2023-05-23T11:34:38Z</time>
      </trkpt>
      <trkpt lat="49.10166" lon="-0.3753">
        <ele>57</ele>
        <time>2023-05-23T11:34:39Z</time>
      </trkpt>
      <trkpt lat="49.10162" lon="-0.37525">
        <ele>57</ele>
        <time>2023-05-23T11:34:40Z</time>
      </trkpt>
      <trkpt lat="49.10159" lon="-0.3752">
        <ele>57.2</ele>
        <time>2023-05-23T11:34:41Z</time>
      </trkpt>
      <trkpt lat="49.10155" lon="-0.37514">
        <ele>57.2</ele>
        <time>2023-05-23T11:34:42Z</time>
      </trkpt>
      <trkpt lat="49.10151" lon="-0.37508">
        <ele>57.2</ele>
        <time>2023-05-23T11:34:43Z</time>
      </trkpt>
      <trkpt lat="49.10148" lon="-0.37502">
        <ele>57.4</ele>
        <time>2023-05-23T11:34:44Z</time>
      </trkpt>
      <trkpt lat="49.10145" lon="-0.37496">
        <ele>57.6</ele>
        <time>2023-05-23T11:34:45Z</time>
      </trkpt>
      <trkpt lat="49.10142" lon="-0.37489">
        <ele>57.8</ele>
        <time>2023-05-23T11:34:46Z</time>
      </trkpt>
      <trkpt lat="49.10139" lon="-0.37482">
        <ele>58</ele>
        <time>2023-05-23T11:34:47Z</time>
      </trkpt>
      <trkpt lat="49.10136" lon="-0.37476">
        <ele>58</ele>
        <time>2023-05-23T11:34:48Z</time>
      </trkpt>
      <trkpt lat="49.10134" lon="-0.3747">
        <ele>58.2</ele>
        <time>2023-05-23T11:34:49Z</time>
      </trkpt>
      <trkpt lat="49.10133" lon="-0.37464">
        <ele>58.2</ele>
        <time>2023-05-23T11:34:50Z</time>
      </trkpt>
      <trkpt lat="49.10132" lon="-0.3746">
        <ele>58.4</ele>
        <time>2023-05-23T11:34:51Z</time>
      </trkpt>
      <trkpt lat="49.10131" lon="-0.37457">
        <ele>58.6</ele>
        <time>2023-05-23T11:34:52Z</time>
      </trkpt>
      <trkpt lat="49.1013" lon="-0.37455">
        <ele>58.6</ele>
        <time>2023-05-23T11:34:53Z</time>
      </trkpt>
      <trkpt lat="49.1013" lon="-0.37453">
        <ele>58.6</ele>
        <time>2023-05-23T11:34:54Z</time>
      </trkpt>
      <trkpt lat="49.1013" lon="-0.37452">
        <ele>58.6</ele>
        <time>2023-05-23T11:34:55Z</time>
      </trkpt>
      <trkpt lat="49.10129" lon="-0.3745">
        <ele>58.6</ele>
        <time>2023-05-23T11:34:56Z</time>
      </trkpt>
      <trkpt lat="49.10129" lon="-0.37447">
        <ele>58.6</ele>
        <time>2023-05-23T11:34:57Z</time>
      </trkpt>
      <trkpt lat="49.10128" lon="-0.37443">
        <ele>58.8</ele>
        <time>2023-05-23T11:34:58Z</time>
      </trkpt>
      <trkpt lat="49.10127" lon="-0.37439">
        <ele>58.8</ele>
        <time>2023-05-23T11:34:59Z</time>
      </trkpt>
      <trkpt lat="49.10126" lon="-0.37433">
        <ele>58.8</ele>
        <time>2023-05-23T11:35:00Z</time>
      </trkpt>
      <trkpt lat="49.10125" lon="-0.37427">
        <ele>59</ele>
        <time>2023-05-23T11:35:01Z</time>
      </trkpt>
      <trkpt lat="49.10125" lon="-0.37421">
        <ele>59</ele>
        <time>2023-05-23T11:35:02Z</time>
      </trkpt>
      <trkpt lat="49.10125" lon="-0.37415">
        <ele>59</ele>
        <time>2023-05-23T11:35:03Z</time>
      </trkpt>
      <trkpt lat="49.10126" lon="-0.37409">
        <ele>59</ele>
        <time>2023-05-23T11:35:04Z</time>
      </trkpt>
      <trkpt lat="49.10128" lon="-0.37403">
        <ele>59</ele>
        <time>2023-05-23T11:35:05Z</time>
      </trkpt>
      <trkpt lat="49.10129" lon="-0.37397">
        <ele>59</ele>
        <time>2023-05-23T11:35:06Z</time>
      </trkpt>
      <trkpt lat="49.1013" lon="-0.3739">
        <ele>59</ele>
        <time>2023-05-23T11:35:07Z</time>
      </trkpt>
      <trkpt lat="49.10129" lon="-0.37384">
        <ele>59</ele>
        <time>2023-05-23T11:35:08Z</time>
      </trkpt>
      <trkpt lat="49.10128" lon="-0.37377">
        <ele>59</ele>
        <time>2023-05-23T11:35:09Z</time>
      </trkpt>
      <trkpt lat="49.10125" lon="-0.37371">
        <ele>59</ele>
        <time>2023-05-23T11:35:10Z</time>
      </trkpt>
      <trkpt lat="49.10123" lon="-0.37364">
        <ele>59</ele>
        <time>2023-05-23T11:35:11Z</time>
      </trkpt>
      <trkpt lat="49.10122" lon="-0.37358">
        <ele>59</ele>
        <time>2023-05-23T11:35:12Z</time>
      </trkpt>
      <trkpt lat="49.1012" lon="-0.37352">
        <ele>59</ele>
        <time>2023-05-23T11:35:13Z</time>
      </trkpt>
      <trkpt lat="49.10118" lon="-0.37345">
        <ele>59</ele>
        <time>2023-05-23T11:35:14Z</time>
      </trkpt>
      <trkpt lat="49.10116" lon="-0.37338">
        <ele>59</ele>
        <time>2023-05-23T11:35:15Z</time>
      </trkpt>
      <trkpt lat="49.10115" lon="-0.37331">
        <ele>59</ele>
        <time>2023-05-23T11:35:16Z</time>
      </trkpt>
      <trkpt lat="49.10113" lon="-0.37325">
        <ele>59</ele>
        <time>2023-05-23T11:35:17Z</time>
      </trkpt>
      <trkpt lat="49.10111" lon="-0.37318">
        <ele>59</ele>
        <time>2023-05-23T11:35:18Z</time>
      </trkpt>
      <trkpt lat="49.10109" lon="-0.37311">
        <ele>59</ele>
        <time>2023-05-23T11:35:19Z</time>
      </trkpt>
      <trkpt lat="49.10107" lon="-0.37304">
        <ele>59</ele>
        <time>2023-05-23T11:35:20Z</time>
      </trkpt>
      <trkpt lat="49.10106" lon="-0.37297">
        <ele>59.2</ele>
        <time>2023-05-23T11:35:21Z</time>
      </trkpt>
      <trkpt lat="49.10104" lon="-0.3729">
        <ele>59.2</ele>
        <time>2023-05-23T11:35:22Z</time>
      </trkpt>
      <trkpt lat="49.10102" lon="-0.37283">
        <ele>59.2</ele>
        <time>2023-05-23T11:35:23Z</time>
      </trkpt>
      <trkpt lat="49.101" lon="-0.37276">
        <ele>59.4</ele>
        <time>2023-05-23T11:35:24Z</time>
      </trkpt>
      <trkpt lat="49.10098" lon="-0.37269">
        <ele>59.6</ele>
        <time>2023-05-23T11:35:25Z</time>
      </trkpt>
      <trkpt lat="49.10096" lon="-0.37262">
        <ele>59.6</ele>
        <time>2023-05-23T11:35:26Z</time>
      </trkpt>
      <trkpt lat="49.10094" lon="-0.37255">
        <ele>59.8</ele>
        <time>2023-05-23T11:35:27Z</time>
      </trkpt>
      <trkpt lat="49.10092" lon="-0.37248">
        <ele>59.8</ele>
        <time>2023-05-23T11:35:28Z</time>
      </trkpt>
      <trkpt lat="49.1009" lon="-0.3724">
        <ele>60</ele>
        <time>2023-05-23T11:35:29Z</time>
      </trkpt>
      <trkpt lat="49.10088" lon="-0.37233">
        <ele>60</ele>
        <time>2023-05-23T11:35:30Z</time>
      </trkpt>
      <trkpt lat="49.10086" lon="-0.37226">
        <ele>60.2</ele>
        <time>2023-05-23T11:35:31Z</time>
      </trkpt>
      <trkpt lat="49.10084" lon="-0.37219">
        <ele>60.4</ele>
        <time>2023-05-23T11:35:32Z</time>
      </trkpt>
      <trkpt lat="49.10082" lon="-0.37212">
        <ele>60.4</ele>
        <time>2023-05-23T11:35:33Z</time>
      </trkpt>
      <trkpt lat="49.1008" lon="-0.37205">
        <ele>60.6</ele>
        <time>2023-05-23T11:35:34Z</time>
      </trkpt>
      <trkpt lat="49.10078" lon="-0.37198">
        <ele>60.6</ele>
        <time>2023-05-23T11:35:35Z</time>
      </trkpt>
      <trkpt lat="49.10076" lon="-0.37191">
        <ele>60.6</ele>
        <time>2023-05-23T11:35:36Z</time>
      </trkpt>
      <trkpt lat="49.10075" lon="-0.37184">
        <ele>60.8</ele>
        <time>2023-05-23T11:35:37Z</time>
      </trkpt>
      <trkpt lat="49.10072" lon="-0.37177">
        <ele>60.8</ele>
        <time>2023-05-23T11:35:38Z</time>
      </trkpt>
      <trkpt lat="49.1007" lon="-0.3717">
        <ele>60.8</ele>
        <time>2023-05-23T11:35:39Z</time>
      </trkpt>
      <trkpt lat="49.10068" lon="-0.37163">
        <ele>60.8</ele>
        <time>2023-05-23T11:35:40Z</time>
      </trkpt>
      <trkpt lat="49.10066" lon="-0.37156">
        <ele>60.8</ele>
        <time>2023-05-23T11:35:41Z</time>
      </trkpt>
      <trkpt lat="49.10063" lon="-0.37149">
        <ele>61</ele>
        <time>2023-05-23T11:35:42Z</time>
      </trkpt>
      <trkpt lat="49.10061" lon="-0.37142">
        <ele>61</ele>
        <time>2023-05-23T11:35:43Z</time>
      </trkpt>
      <trkpt lat="49.10059" lon="-0.37135">
        <ele>61</ele>
        <time>2023-05-23T11:35:44Z</time>
      </trkpt>
      <trkpt lat="49.10056" lon="-0.37128">
        <ele>61</ele>
        <time>2023-05-23T11:35:45Z</time>
      </trkpt>
      <trkpt lat="49.10053" lon="-0.37121">
        <ele>61</ele>
        <time>2023-05-23T11:35:46Z</time>
      </trkpt>
      <trkpt lat="49.1005" lon="-0.37114">
        <ele>61</ele>
        <time>2023-05-23T11:35:47Z</time>
      </trkpt>
      <trkpt lat="49.10047" lon="-0.37107">
        <ele>61.2</ele>
        <time>2023-05-23T11:35:48Z</time>
      </trkpt>
      <trkpt lat="49.10044" lon="-0.37101">
        <ele>61.2</ele>
        <time>2023-05-23T11:35:49Z</time>
      </trkpt>
      <trkpt lat="49.10041" lon="-0.37094">
        <ele>61.4</ele>
        <time>2023-05-23T11:35:50Z</time>
      </trkpt>
      <trkpt lat="49.10038" lon="-0.37088">
        <ele>61.6</ele>
        <time>2023-05-23T11:35:51Z</time>
      </trkpt>
      <trkpt lat="49.10035" lon="-0.37081">
        <ele>61.6</ele>
        <time>2023-05-23T11:35:52Z</time>
      </trkpt>
      <trkpt lat="49.10031" lon="-0.37075">
        <ele>61.6</ele>
        <time>2023-05-23T11:35:53Z</time>
      </trkpt>
      <trkpt lat="49.10028" lon="-0.37069">
        <ele>61.6</ele>
        <time>2023-05-23T11:35:54Z</time>
      </trkpt>
      <trkpt lat="49.10024" lon="-0.37063">
        <ele>61.6</ele>
        <time>2023-05-23T11:35:55Z</time>
      </trkpt>
      <trkpt lat="49.10021" lon="-0.37057">
        <ele>61.8</ele>
        <time>2023-05-23T11:35:56Z</time>
      </trkpt>
      <trkpt lat="49.10018" lon="-0.3705">
        <ele>61.8</ele>
        <time>2023-05-23T11:35:57Z</time>
      </trkpt>
      <trkpt lat="49.10014" lon="-0.37044">
        <ele>61.8</ele>
        <time>2023-05-23T11:35:58Z</time>
      </trkpt>
      <trkpt lat="49.10011" lon="-0.37038">
        <ele>61.8</ele>
        <time>2023-05-23T11:35:59Z</time>
      </trkpt>
      <trkpt lat="49.10007" lon="-0.37032">
        <ele>62</ele>
        <time>2023-05-23T11:36:00Z</time>
      </trkpt>
      <trkpt lat="49.10004" lon="-0.37026">
        <ele>62</ele>
        <time>2023-05-23T11:36:01Z</time>
      </trkpt>
      <trkpt lat="49.10001" lon="-0.3702">
        <ele>62</ele>
        <time>2023-05-23T11:36:02Z</time>
      </trkpt>
      <trkpt lat="49.09997" lon="-0.37014">
        <ele>62</ele>
        <time>2023-05-23T11:36:03Z</time>
      </trkpt>
      <trkpt lat="49.09994" lon="-0.37008">
        <ele>62</ele>
        <time>2023-05-23T11:36:04Z</time>
      </trkpt>
      <trkpt lat="49.0999" lon="-0.37002">
        <ele>62</ele>
        <time>2023-05-23T11:36:05Z</time>
      </trkpt>
      <trkpt lat="49.09987" lon="-0.36996">
        <ele>62.2</ele>
        <time>2023-05-23T11:36:06Z</time>
      </trkpt>
      <trkpt lat="49.09983" lon="-0.3699">
        <ele>62.2</ele>
        <time>2023-05-23T11:36:07Z</time>
      </trkpt>
      <trkpt lat="49.09979" lon="-0.36984">
        <ele>62.4</ele>
        <time>2023-05-23T11:36:08Z</time>
      </trkpt>
      <trkpt lat="49.09976" lon="-0.36978">
        <ele>62.6</ele>
        <time>2023-05-23T11:36:09Z</time>
      </trkpt>
      <trkpt lat="49.09972" lon="-0.36973">
        <ele>62.8</ele>
        <time>2023-05-23T11:36:10Z</time>
      </trkpt>
      <trkpt lat="49.09968" lon="-0.36967">
        <ele>62.8</ele>
        <time>2023-05-23T11:36:11Z</time>
      </trkpt>
      <trkpt lat="49.09964" lon="-0.36961">
        <ele>63</ele>
        <time>2023-05-23T11:36:12Z</time>
      </trkpt>
      <trkpt lat="49.0996" lon="-0.36956">
        <ele>63</ele>
        <time>2023-05-23T11:36:13Z</time>
      </trkpt>
      <trkpt lat="49.09956" lon="-0.3695">
        <ele>63</ele>
        <time>2023-05-23T11:36:14Z</time>
      </trkpt>
      <trkpt lat="49.09952" lon="-0.36945">
        <ele>63.2</ele>
        <time>2023-05-23T11:36:15Z</time>
      </trkpt>
      <trkpt lat="49.09948" lon="-0.3694">
        <ele>63.2</ele>
        <time>2023-05-23T11:36:16Z</time>
      </trkpt>
      <trkpt lat="49.09944" lon="-0.36935">
        <ele>63.6</ele>
        <time>2023-05-23T11:36:17Z</time>
      </trkpt>
      <trkpt lat="49.09939" lon="-0.36929">
        <ele>63.6</ele>
        <time>2023-05-23T11:36:18Z</time>
      </trkpt>
      <trkpt lat="49.09935" lon="-0.36924">
        <ele>63.8</ele>
        <time>2023-05-23T11:36:19Z</time>
      </trkpt>
      <trkpt lat="49.09931" lon="-0.36919">
        <ele>63.8</ele>
        <time>2023-05-23T11:36:20Z</time>
      </trkpt>
      <trkpt lat="49.09927" lon="-0.36914">
        <ele>64</ele>
        <time>2023-05-23T11:36:21Z</time>
      </trkpt>
      <trkpt lat="49.09922" lon="-0.36909">
        <ele>64</ele>
        <time>2023-05-23T11:36:22Z</time>
      </trkpt>
      <trkpt lat="49.09918" lon="-0.36904">
        <ele>64</ele>
        <time>2023-05-23T11:36:23Z</time>
      </trkpt>
      <trkpt lat="49.09914" lon="-0.369">
        <ele>64.2</ele>
        <time>2023-05-23T11:36:24Z</time>
      </trkpt>
      <trkpt lat="49.0991" lon="-0.36895">
        <ele>64.4</ele>
        <time>2023-05-23T11:36:25Z</time>
      </trkpt>
      <trkpt lat="49.09906" lon="-0.3689">
        <ele>64.4</ele>
        <time>2023-05-23T11:36:26Z</time>
      </trkpt>
      <trkpt lat="49.09902" lon="-0.36886">
        <ele>64.6</ele>
        <time>2023-05-23T11:36:27Z</time>
      </trkpt>
      <trkpt lat="49.09899" lon="-0.36881">
        <ele>64.6</ele>
        <time>2023-05-23T11:36:28Z</time>
      </trkpt>
      <trkpt lat="49.09895" lon="-0.36876">
        <ele>64.6</ele>
        <time>2023-05-23T11:36:29Z</time>
      </trkpt>
      <trkpt lat="49.09891" lon="-0.36872">
        <ele>64.6</ele>
        <time>2023-05-23T11:36:30Z</time>
      </trkpt>
      <trkpt lat="49.09887" lon="-0.36867">
        <ele>64.6</ele>
        <time>2023-05-23T11:36:31Z</time>
      </trkpt>
      <trkpt lat="49.09883" lon="-0.36863">
        <ele>64.8</ele>
        <time>2023-05-23T11:36:32Z</time>
      </trkpt>
      <trkpt lat="49.09879" lon="-0.36858">
        <ele>64.8</ele>
        <time>2023-05-23T11:36:33Z</time>
      </trkpt>
      <trkpt lat="49.09875" lon="-0.36854">
        <ele>65</ele>
        <time>2023-05-23T11:36:34Z</time>
      </trkpt>
      <trkpt lat="49.09871" lon="-0.36849">
        <ele>65</ele>
        <time>2023-05-23T11:36:35Z</time>
      </trkpt>
      <trkpt lat="49.09867" lon="-0.36845">
        <ele>65</ele>
        <time>2023-05-23T11:36:36Z</time>
      </trkpt>
      <trkpt lat="49.09863" lon="-0.3684">
        <ele>65</ele>
        <time>2023-05-23T11:36:37Z</time>
      </trkpt>
      <trkpt lat="49.09858" lon="-0.36835">
        <ele>65</ele>
        <time>2023-05-23T11:36:38Z</time>
      </trkpt>
      <trkpt lat="49.09854" lon="-0.36831">
        <ele>65</ele>
        <time>2023-05-23T11:36:39Z</time>
      </trkpt>
      <trkpt lat="49.0985" lon="-0.36826">
        <ele>65</ele>
        <time>2023-05-23T11:36:40Z</time>
      </trkpt>
      <trkpt lat="49.09846" lon="-0.36821">
        <ele>65.4</ele>
        <time>2023-05-23T11:36:41Z</time>
      </trkpt>
      <trkpt lat="49.09842" lon="-0.36816">
        <ele>65.4</ele>
        <time>2023-05-23T11:36:42Z</time>
      </trkpt>
      <trkpt lat="49.09838" lon="-0.36811">
        <ele>65.6</ele>
        <time>2023-05-23T11:36:43Z</time>
      </trkpt>
      <trkpt lat="49.09834" lon="-0.36806">
        <ele>65.6</ele>
        <time>2023-05-23T11:36:44Z</time>
      </trkpt>
      <trkpt lat="49.0983" lon="-0.36801">
        <ele>65.8</ele>
        <time>2023-05-23T11:36:45Z</time>
      </trkpt>
      <trkpt lat="49.09826" lon="-0.36796">
        <ele>66</ele>
        <time>2023-05-23T11:36:46Z</time>
      </trkpt>
      <trkpt lat="49.09822" lon="-0.36791">
        <ele>66</ele>
        <time>2023-05-23T11:36:47Z</time>
      </trkpt>
      <trkpt lat="49.09818" lon="-0.36786">
        <ele>66.2</ele>
        <time>2023-05-23T11:36:48Z</time>
      </trkpt>
      <trkpt lat="49.09814" lon="-0.36782">
        <ele>66.4</ele>
        <time>2023-05-23T11:36:49Z</time>
      </trkpt>
      <trkpt lat="49.0981" lon="-0.36777">
        <ele>66.4</ele>
        <time>2023-05-23T11:36:50Z</time>
      </trkpt>
      <trkpt lat="49.09805" lon="-0.36773">
        <ele>66.6</ele>
        <time>2023-05-23T11:36:51Z</time>
      </trkpt>
      <trkpt lat="49.09801" lon="-0.36768">
        <ele>66.6</ele>
        <time>2023-05-23T11:36:52Z</time>
      </trkpt>
      <trkpt lat="49.09797" lon="-0.36763">
        <ele>66.6</ele>
        <time>2023-05-23T11:36:53Z</time>
      </trkpt>
      <trkpt lat="49.09793" lon="-0.36759">
        <ele>66.8</ele>
        <time>2023-05-23T11:36:54Z</time>
      </trkpt>
      <trkpt lat="49.09789" lon="-0.36754">
        <ele>67</ele>
        <time>2023-05-23T11:36:55Z</time>
      </trkpt>
      <trkpt lat="49.09785" lon="-0.36749">
        <ele>67</ele>
        <time>2023-05-23T11:36:56Z</time>
      </trkpt>
      <trkpt lat="49.09782" lon="-0.36744">
        <ele>67</ele>
        <time>2023-05-23T11:36:57Z</time>
      </trkpt>
      <trkpt lat="49.09778" lon="-0.36739">
        <ele>67</ele>
        <time>2023-05-23T11:36:58Z</time>
      </trkpt>
      <trkpt lat="49.09775" lon="-0.36734">
        <ele>67</ele>
        <time>2023-05-23T11:36:59Z</time>
      </trkpt>
      <trkpt lat="49.09772" lon="-0.36729">
        <ele>67</ele>
        <time>2023-05-23T11:37:00Z</time>
      </trkpt>
      <trkpt lat="49.0977" lon="-0.36723">
        <ele>67</ele>
        <time>2023-05-23T11:37:01Z</time>
      </trkpt>
      <trkpt lat="49.09767" lon="-0.36717">
        <ele>67</ele>
        <time>2023-05-23T11:37:02Z</time>
      </trkpt>
      <trkpt lat="49.09764" lon="-0.3671">
        <ele>67</ele>
        <time>2023-05-23T11:37:03Z</time>
      </trkpt>
      <trkpt lat="49.09761" lon="-0.36704">
        <ele>67</ele>
        <time>2023-05-23T11:37:04Z</time>
      </trkpt>
      <trkpt lat="49.09758" lon="-0.36699">
        <ele>67</ele>
        <time>2023-05-23T11:37:05Z</time>
      </trkpt>
      <trkpt lat="49.09755" lon="-0.36693">
        <ele>67</ele>
        <time>2023-05-23T11:37:06Z</time>
      </trkpt>
      <trkpt lat="49.09751" lon="-0.36688">
        <ele>67</ele>
        <time>2023-05-23T11:37:07Z</time>
      </trkpt>
      <trkpt lat="49.09747" lon="-0.36683">
        <ele>67</ele>
        <time>2023-05-23T11:37:08Z</time>
      </trkpt>
      <trkpt lat="49.09744" lon="-0.36677">
        <ele>67</ele>
        <time>2023-05-23T11:37:09Z</time>
      </trkpt>
      <trkpt lat="49.0974" lon="-0.36672">
        <ele>67</ele>
        <time>2023-05-23T11:37:10Z</time>
      </trkpt>
      <trkpt lat="49.09736" lon="-0.36667">
        <ele>67.2</ele>
        <time>2023-05-23T11:37:11Z</time>
      </trkpt>
      <trkpt lat="49.09733" lon="-0.36662">
        <ele>67.2</ele>
        <time>2023-05-23T11:37:12Z</time>
      </trkpt>
      <trkpt lat="49.09729" lon="-0.36657">
        <ele>67.4</ele>
        <time>2023-05-23T11:37:13Z</time>
      </trkpt>
      <trkpt lat="49.09725" lon="-0.36651">
        <ele>67.4</ele>
        <time>2023-05-23T11:37:14Z</time>
      </trkpt>
      <trkpt lat="49.09722" lon="-0.36646">
        <ele>67.4</ele>
        <time>2023-05-23T11:37:15Z</time>
      </trkpt>
      <trkpt lat="49.09718" lon="-0.36641">
        <ele>67.4</ele>
        <time>2023-05-23T11:37:16Z</time>
      </trkpt>
      <trkpt lat="49.09714" lon="-0.36636">
        <ele>67.4</ele>
        <time>2023-05-23T11:37:17Z</time>
      </trkpt>
      <trkpt lat="49.09711" lon="-0.36631">
        <ele>67.6</ele>
        <time>2023-05-23T11:37:18Z</time>
      </trkpt>
      <trkpt lat="49.09707" lon="-0.36625">
        <ele>67.6</ele>
        <time>2023-05-23T11:37:19Z</time>
      </trkpt>
      <trkpt lat="49.09703" lon="-0.3662">
        <ele>67.6</ele>
        <time>2023-05-23T11:37:20Z</time>
      </trkpt>
      <trkpt lat="49.097" lon="-0.36615">
        <ele>67.6</ele>
        <time>2023-05-23T11:37:21Z</time>
      </trkpt>
      <trkpt lat="49.09696" lon="-0.36609">
        <ele>67.6</ele>
        <time>2023-05-23T11:37:22Z</time>
      </trkpt>
      <trkpt lat="49.09692" lon="-0.36604">
        <ele>67.6</ele>
        <time>2023-05-23T11:37:23Z</time>
      </trkpt>
      <trkpt lat="49.09688" lon="-0.36598">
        <ele>67.6</ele>
        <time>2023-05-23T11:37:24Z</time>
      </trkpt>
      <trkpt lat="49.09685" lon="-0.36592">
        <ele>67.8</ele>
        <time>2023-05-23T11:37:25Z</time>
      </trkpt>
      <trkpt lat="49.09681" lon="-0.36587">
        <ele>67.8</ele>
        <time>2023-05-23T11:37:26Z</time>
      </trkpt>
      <trkpt lat="49.09677" lon="-0.36582">
        <ele>68</ele>
        <time>2023-05-23T11:37:27Z</time>
      </trkpt>
      <trkpt lat="49.09673" lon="-0.36576">
        <ele>68</ele>
        <time>2023-05-23T11:37:28Z</time>
      </trkpt>
      <trkpt lat="49.09669" lon="-0.36571">
        <ele>68</ele>
        <time>2023-05-23T11:37:29Z</time>
      </trkpt>
      <trkpt lat="49.09664" lon="-0.36565">
        <ele>68.2</ele>
        <time>2023-05-23T11:37:30Z</time>
      </trkpt>
      <trkpt lat="49.0966" lon="-0.3656">
        <ele>68.2</ele>
        <time>2023-05-23T11:37:31Z</time>
      </trkpt>
      <trkpt lat="49.09656" lon="-0.36555">
        <ele>68.2</ele>
        <time>2023-05-23T11:37:32Z</time>
      </trkpt>
      <trkpt lat="49.09651" lon="-0.36549">
        <ele>68.2</ele>
        <time>2023-05-23T11:37:33Z</time>
      </trkpt>
      <trkpt lat="49.09646" lon="-0.36544">
        <ele>68.2</ele>
        <time>2023-05-23T11:37:34Z</time>
      </trkpt>
      <trkpt lat="49.09642" lon="-0.36538">
        <ele>68.2</ele>
        <time>2023-05-23T11:37:35Z</time>
      </trkpt>
      <trkpt lat="49.09637" lon="-0.36533">
        <ele>68.2</ele>
        <time>2023-05-23T11:37:36Z</time>
      </trkpt>
      <trkpt lat="49.09632" lon="-0.36528">
        <ele>68.4</ele>
        <time>2023-05-23T11:37:37Z</time>
      </trkpt>
      <trkpt lat="49.09627" lon="-0.36523">
        <ele>68.4</ele>
        <time>2023-05-23T11:37:38Z</time>
      </trkpt>
      <trkpt lat="49.09623" lon="-0.36517">
        <ele>68.4</ele>
        <time>2023-05-23T11:37:39Z</time>
      </trkpt>
      <trkpt lat="49.09618" lon="-0.36512">
        <ele>68.4</ele>
        <time>2023-05-23T11:37:40Z</time>
      </trkpt>
      <trkpt lat="49.09613" lon="-0.36507">
        <ele>68.4</ele>
        <time>2023-05-23T11:37:41Z</time>
      </trkpt>
      <trkpt lat="49.09608" lon="-0.36501">
        <ele>68.4</ele>
        <time>2023-05-23T11:37:42Z</time>
      </trkpt>
      <trkpt lat="49.09603" lon="-0.36496">
        <ele>68.2</ele>
        <time>2023-05-23T11:37:43Z</time>
      </trkpt>
      <trkpt lat="49.09598" lon="-0.3649">
        <ele>68</ele>
        <time>2023-05-23T11:37:44Z</time>
      </trkpt>
      <trkpt lat="49.09594" lon="-0.36485">
        <ele>68</ele>
        <time>2023-05-23T11:37:45Z</time>
      </trkpt>
      <trkpt lat="49.09588" lon="-0.36479">
        <ele>67.8</ele>
        <time>2023-05-23T11:37:46Z</time>
      </trkpt>
      <trkpt lat="49.09584" lon="-0.36474">
        <ele>67.6</ele>
        <time>2023-05-23T11:37:47Z</time>
      </trkpt>
      <trkpt lat="49.09578" lon="-0.36468">
        <ele>67.6</ele>
        <time>2023-05-23T11:37:48Z</time>
      </trkpt>
      <trkpt lat="49.09573" lon="-0.36462">
        <ele>67.4</ele>
        <time>2023-05-23T11:37:49Z</time>
      </trkpt>
      <trkpt lat="49.09568" lon="-0.36457">
        <ele>67.2</ele>
        <time>2023-05-23T11:37:50Z</time>
      </trkpt>
      <trkpt lat="49.09563" lon="-0.36451">
        <ele>67</ele>
        <time>2023-05-23T11:37:51Z</time>
      </trkpt>
      <trkpt lat="49.09558" lon="-0.36445">
        <ele>66.8</ele>
        <time>2023-05-23T11:37:52Z</time>
      </trkpt>
      <trkpt lat="49.09552" lon="-0.3644">
        <ele>66.6</ele>
        <time>2023-05-23T11:37:53Z</time>
      </trkpt>
      <trkpt lat="49.09547" lon="-0.36434">
        <ele>66.4</ele>
        <time>2023-05-23T11:37:54Z</time>
      </trkpt>
      <trkpt lat="49.09542" lon="-0.36428">
        <ele>66.2</ele>
        <time>2023-05-23T11:37:55Z</time>
      </trkpt>
      <trkpt lat="49.09536" lon="-0.36422">
        <ele>66</ele>
        <time>2023-05-23T11:37:56Z</time>
      </trkpt>
      <trkpt lat="49.09531" lon="-0.36416">
        <ele>65.6</ele>
        <time>2023-05-23T11:37:57Z</time>
      </trkpt>
      <trkpt lat="49.09525" lon="-0.3641">
        <ele>65.6</ele>
        <time>2023-05-23T11:37:58Z</time>
      </trkpt>
      <trkpt lat="49.0952" lon="-0.36404">
        <ele>65.6</ele>
        <time>2023-05-23T11:37:59Z</time>
      </trkpt>
      <trkpt lat="49.09514" lon="-0.36398">
        <ele>65.4</ele>
        <time>2023-05-23T11:38:00Z</time>
      </trkpt>
      <trkpt lat="49.09509" lon="-0.36392">
        <ele>65.2</ele>
        <time>2023-05-23T11:38:01Z</time>
      </trkpt>
      <trkpt lat="49.09503" lon="-0.36386">
        <ele>65</ele>
        <time>2023-05-23T11:38:02Z</time>
      </trkpt>
      <trkpt lat="49.09497" lon="-0.3638">
        <ele>65</ele>
        <time>2023-05-23T11:38:03Z</time>
      </trkpt>
      <trkpt lat="49.09492" lon="-0.36373">
        <ele>64.8</ele>
        <time>2023-05-23T11:38:04Z</time>
      </trkpt>
      <trkpt lat="49.09486" lon="-0.36367">
        <ele>64.6</ele>
        <time>2023-05-23T11:38:05Z</time>
      </trkpt>
      <trkpt lat="49.0948" lon="-0.3636">
        <ele>64.6</ele>
        <time>2023-05-23T11:38:06Z</time>
      </trkpt>
      <trkpt lat="49.09474" lon="-0.36353">
        <ele>64.4</ele>
        <time>2023-05-23T11:38:07Z</time>
      </trkpt>
      <trkpt lat="49.09468" lon="-0.36346">
        <ele>64.4</ele>
        <time>2023-05-23T11:38:08Z</time>
      </trkpt>
      <trkpt lat="49.09461" lon="-0.36339">
        <ele>64</ele>
        <time>2023-05-23T11:38:09Z</time>
      </trkpt>
      <trkpt lat="49.09455" lon="-0.36332">
        <ele>64</ele>
        <time>2023-05-23T11:38:10Z</time>
      </trkpt>
      <trkpt lat="49.09449" lon="-0.36324">
        <ele>63.8</ele>
        <time>2023-05-23T11:38:11Z</time>
      </trkpt>
      <trkpt lat="49.09443" lon="-0.36316">
        <ele>63.6</ele>
        <time>2023-05-23T11:38:12Z</time>
      </trkpt>
      <trkpt lat="49.09437" lon="-0.36308">
        <ele>63.2</ele>
        <time>2023-05-23T11:38:13Z</time>
      </trkpt>
      <trkpt lat="49.09431" lon="-0.363">
        <ele>63</ele>
        <time>2023-05-23T11:38:14Z</time>
      </trkpt>
      <trkpt lat="49.09425" lon="-0.36292">
        <ele>62.8</ele>
        <time>2023-05-23T11:38:15Z</time>
      </trkpt>
      <trkpt lat="49.09419" lon="-0.36284">
        <ele>62.6</ele>
        <time>2023-05-23T11:38:16Z</time>
      </trkpt>
      <trkpt lat="49.09413" lon="-0.36276">
        <ele>62.2</ele>
        <time>2023-05-23T11:38:17Z</time>
      </trkpt>
      <trkpt lat="49.09407" lon="-0.36268">
        <ele>62</ele>
        <time>2023-05-23T11:38:18Z</time>
      </trkpt>
      <trkpt lat="49.09401" lon="-0.3626">
        <ele>62</ele>
        <time>2023-05-23T11:38:19Z</time>
      </trkpt>
      <trkpt lat="49.09396" lon="-0.36251">
        <ele>61.8</ele>
        <time>2023-05-23T11:38:20Z</time>
      </trkpt>
      <trkpt lat="49.0939" lon="-0.36243">
        <ele>61.6</ele>
        <time>2023-05-23T11:38:21Z</time>
      </trkpt>
      <trkpt lat="49.09384" lon="-0.36235">
        <ele>61.4</ele>
        <time>2023-05-23T11:38:22Z</time>
      </trkpt>
      <trkpt lat="49.09378" lon="-0.36226">
        <ele>61.2</ele>
        <time>2023-05-23T11:38:23Z</time>
      </trkpt>
      <trkpt lat="49.09372" lon="-0.36218">
        <ele>61</ele>
        <time>2023-05-23T11:38:24Z</time>
      </trkpt>
      <trkpt lat="49.09367" lon="-0.36209">
        <ele>61</ele>
        <time>2023-05-23T11:38:25Z</time>
      </trkpt>
      <trkpt lat="49.09361" lon="-0.362">
        <ele>60.8</ele>
        <time>2023-05-23T11:38:26Z</time>
      </trkpt>
      <trkpt lat="49.09356" lon="-0.3619">
        <ele>60.6</ele>
        <time>2023-05-23T11:38:27Z</time>
      </trkpt>
      <trkpt lat="49.09351" lon="-0.36181">
        <ele>60.4</ele>
        <time>2023-05-23T11:38:28Z</time>
      </trkpt>
      <trkpt lat="49.09346" lon="-0.36171">
        <ele>60.2</ele>
        <time>2023-05-23T11:38:29Z</time>
      </trkpt>
      <trkpt lat="49.09341" lon="-0.36161">
        <ele>60</ele>
        <time>2023-05-23T11:38:30Z</time>
      </trkpt>
      <trkpt lat="49.09337" lon="-0.36151">
        <ele>60</ele>
        <time>2023-05-23T11:38:31Z</time>
      </trkpt>
      <trkpt lat="49.09332" lon="-0.36142">
        <ele>59.8</ele>
        <time>2023-05-23T11:38:32Z</time>
      </trkpt>
      <trkpt lat="49.09328" lon="-0.36132">
        <ele>59.4</ele>
        <time>2023-05-23T11:38:33Z</time>
      </trkpt>
      <trkpt lat="49.09324" lon="-0.36122">
        <ele>59.2</ele>
        <time>2023-05-23T11:38:34Z</time>
      </trkpt>
      <trkpt lat="49.09319" lon="-0.36112">
        <ele>59</ele>
        <time>2023-05-23T11:38:35Z</time>
      </trkpt>
      <trkpt lat="49.09315" lon="-0.36102">
        <ele>58.6</ele>
        <time>2023-05-23T11:38:36Z</time>
      </trkpt>
      <trkpt lat="49.09309" lon="-0.36093">
        <ele>58.2</ele>
        <time>2023-05-23T11:38:37Z</time>
      </trkpt>
      <trkpt lat="49.09303" lon="-0.36086">
        <ele>58</ele>
        <time>2023-05-23T11:38:38Z</time>
      </trkpt>
      <trkpt lat="49.09295" lon="-0.36081">
        <ele>57.6</ele>
        <time>2023-05-23T11:38:39Z</time>
      </trkpt>
      <trkpt lat="49.09288" lon="-0.36076">
        <ele>57.2</ele>
        <time>2023-05-23T11:38:40Z</time>
      </trkpt>
      <trkpt lat="49.0928" lon="-0.36072">
        <ele>57</ele>
        <time>2023-05-23T11:38:41Z</time>
      </trkpt>
      <trkpt lat="49.09271" lon="-0.36067">
        <ele>56.6</ele>
        <time>2023-05-23T11:38:42Z</time>
      </trkpt>
      <trkpt lat="49.09263" lon="-0.36062">
        <ele>56.2</ele>
        <time>2023-05-23T11:38:43Z</time>
      </trkpt>
      <trkpt lat="49.09254" lon="-0.36057">
        <ele>55.8</ele>
        <time>2023-05-23T11:38:44Z</time>
      </trkpt>
      <trkpt lat="49.09245" lon="-0.36052">
        <ele>55.6</ele>
        <time>2023-05-23T11:38:45Z</time>
      </trkpt>
      <trkpt lat="49.09236" lon="-0.36047">
        <ele>55.2</ele>
        <time>2023-05-23T11:38:46Z</time>
      </trkpt>
      <trkpt lat="49.09228" lon="-0.36042">
        <ele>54.8</ele>
        <time>2023-05-23T11:38:47Z</time>
      </trkpt>
      <trkpt lat="49.09219" lon="-0.36037">
        <ele>54.6</ele>
        <time>2023-05-23T11:38:48Z</time>
      </trkpt>
      <trkpt lat="49.09211" lon="-0.36031">
        <ele>54</ele>
        <time>2023-05-23T11:38:49Z</time>
      </trkpt>
      <trkpt lat="49.09202" lon="-0.36025">
        <ele>53.8</ele>
        <time>2023-05-23T11:38:50Z</time>
      </trkpt>
      <trkpt lat="49.09194" lon="-0.36018">
        <ele>53.2</ele>
        <time>2023-05-23T11:38:51Z</time>
      </trkpt>
      <trkpt lat="49.09186" lon="-0.3601">
        <ele>53</ele>
        <time>2023-05-23T11:38:52Z</time>
      </trkpt>
      <trkpt lat="49.09178" lon="-0.36002">
        <ele>52.4</ele>
        <time>2023-05-23T11:38:53Z</time>
      </trkpt>
      <trkpt lat="49.0917" lon="-0.35994">
        <ele>52</ele>
        <time>2023-05-23T11:38:54Z</time>
      </trkpt>
      <trkpt lat="49.09162" lon="-0.35985">
        <ele>51.8</ele>
        <time>2023-05-23T11:38:55Z</time>
      </trkpt>
      <trkpt lat="49.09155" lon="-0.35978">
        <ele>51.2</ele>
        <time>2023-05-23T11:38:56Z</time>
      </trkpt>
      <trkpt lat="49.09148" lon="-0.35971">
        <ele>51</ele>
        <time>2023-05-23T11:38:57Z</time>
      </trkpt>
      <trkpt lat="49.09142" lon="-0.35965">
        <ele>50.6</ele>
        <time>2023-05-23T11:38:58Z</time>
      </trkpt>
      <trkpt lat="49.09137" lon="-0.35957">
        <ele>50.2</ele>
        <time>2023-05-23T11:38:59Z</time>
      </trkpt>
      <trkpt lat="49.09134" lon="-0.35949">
        <ele>50</ele>
        <time>2023-05-23T11:39:00Z</time>
      </trkpt>
      <trkpt lat="49.09132" lon="-0.35939">
        <ele>50</ele>
        <time>2023-05-23T11:39:01Z</time>
      </trkpt>
      <trkpt lat="49.09131" lon="-0.35929">
        <ele>49.8</ele>
        <time>2023-05-23T11:39:02Z</time>
      </trkpt>
      <trkpt lat="49.0913" lon="-0.35919">
        <ele>49.8</ele>
        <time>2023-05-23T11:39:03Z</time>
      </trkpt>
      <trkpt lat="49.09129" lon="-0.35909">
        <ele>49.6</ele>
        <time>2023-05-23T11:39:04Z</time>
      </trkpt>
      <trkpt lat="49.09128" lon="-0.35899">
        <ele>49.6</ele>
        <time>2023-05-23T11:39:05Z</time>
      </trkpt>
      <trkpt lat="49.09127" lon="-0.35889">
        <ele>49.2</ele>
        <time>2023-05-23T11:39:06Z</time>
      </trkpt>
      <trkpt lat="49.09127" lon="-0.3588">
        <ele>49.2</ele>
        <time>2023-05-23T11:39:07Z</time>
      </trkpt>
      <trkpt lat="49.09126" lon="-0.3587">
        <ele>49</ele>
        <time>2023-05-23T11:39:08Z</time>
      </trkpt>
      <trkpt lat="49.09126" lon="-0.3586">
        <ele>49</ele>
        <time>2023-05-23T11:39:09Z</time>
      </trkpt>
      <trkpt lat="49.09126" lon="-0.3585">
        <ele>48.8</ele>
        <time>2023-05-23T11:39:10Z</time>
      </trkpt>
      <trkpt lat="49.09125" lon="-0.3584">
        <ele>48.6</ele>
        <time>2023-05-23T11:39:11Z</time>
      </trkpt>
      <trkpt lat="49.09125" lon="-0.35831">
        <ele>48.6</ele>
        <time>2023-05-23T11:39:12Z</time>
      </trkpt>
      <trkpt lat="49.09125" lon="-0.35821">
        <ele>48.8</ele>
        <time>2023-05-23T11:39:13Z</time>
      </trkpt>
      <trkpt lat="49.09125" lon="-0.35812">
        <ele>48.8</ele>
        <time>2023-05-23T11:39:14Z</time>
      </trkpt>
      <trkpt lat="49.09125" lon="-0.35803">
        <ele>49</ele>
        <time>2023-05-23T11:39:15Z</time>
      </trkpt>
      <trkpt lat="49.09125" lon="-0.35794">
        <ele>49</ele>
        <time>2023-05-23T11:39:16Z</time>
      </trkpt>
      <trkpt lat="49.09126" lon="-0.35785">
        <ele>49</ele>
        <time>2023-05-23T11:39:17Z</time>
      </trkpt>
      <trkpt lat="49.09126" lon="-0.35776">
        <ele>49.2</ele>
        <time>2023-05-23T11:39:18Z</time>
      </trkpt>
      <trkpt lat="49.09127" lon="-0.35767">
        <ele>49.4</ele>
        <time>2023-05-23T11:39:19Z</time>
      </trkpt>
      <trkpt lat="49.09127" lon="-0.35758">
        <ele>49.6</ele>
        <time>2023-05-23T11:39:20Z</time>
      </trkpt>
      <trkpt lat="49.09128" lon="-0.35749">
        <ele>49.8</ele>
        <time>2023-05-23T11:39:21Z</time>
      </trkpt>
      <trkpt lat="49.09128" lon="-0.35741">
        <ele>49.6</ele>
        <time>2023-05-23T11:39:22Z</time>
      </trkpt>
      <trkpt lat="49.09129" lon="-0.35732">
        <ele>49.6</ele>
        <time>2023-05-23T11:39:23Z</time>
      </trkpt>
      <trkpt lat="49.0913" lon="-0.35723">
        <ele>49.4</ele>
        <time>2023-05-23T11:39:24Z</time>
      </trkpt>
      <trkpt lat="49.09131" lon="-0.35714">
        <ele>49.4</ele>
        <time>2023-05-23T11:39:25Z</time>
      </trkpt>
      <trkpt lat="49.09133" lon="-0.35706">
        <ele>49.2</ele>
        <time>2023-05-23T11:39:26Z</time>
      </trkpt>
      <trkpt lat="49.09135" lon="-0.35697">
        <ele>49.2</ele>
        <time>2023-05-23T11:39:27Z</time>
      </trkpt>
      <trkpt lat="49.09137" lon="-0.35689">
        <ele>49.2</ele>
        <time>2023-05-23T11:39:28Z</time>
      </trkpt>
      <trkpt lat="49.09139" lon="-0.3568">
        <ele>49.2</ele>
        <time>2023-05-23T11:39:29Z</time>
      </trkpt>
      <trkpt lat="49.09142" lon="-0.35672">
        <ele>49.2</ele>
        <time>2023-05-23T11:39:30Z</time>
      </trkpt>
      <trkpt lat="49.09145" lon="-0.35664">
        <ele>49.2</ele>
        <time>2023-05-23T11:39:31Z</time>
      </trkpt>
      <trkpt lat="49.09149" lon="-0.35656">
        <ele>49.2</ele>
        <time>2023-05-23T11:39:32Z</time>
      </trkpt>
      <trkpt lat="49.09152" lon="-0.35648">
        <ele>49</ele>
        <time>2023-05-23T11:39:33Z</time>
      </trkpt>
      <trkpt lat="49.09156" lon="-0.35641">
        <ele>49</ele>
        <time>2023-05-23T11:39:34Z</time>
      </trkpt>
      <trkpt lat="49.0916" lon="-0.35634">
        <ele>49</ele>
        <time>2023-05-23T11:39:35Z</time>
      </trkpt>
      <trkpt lat="49.09164" lon="-0.35627">
        <ele>49</ele>
        <time>2023-05-23T11:39:36Z</time>
      </trkpt>
      <trkpt lat="49.09169" lon="-0.35621">
        <ele>49</ele>
        <time>2023-05-23T11:39:37Z</time>
      </trkpt>
      <trkpt lat="49.09173" lon="-0.35615">
        <ele>49</ele>
        <time>2023-05-23T11:39:38Z</time>
      </trkpt>
      <trkpt lat="49.09177" lon="-0.35609">
        <ele>49</ele>
        <time>2023-05-23T11:39:39Z</time>
      </trkpt>
      <trkpt lat="49.09181" lon="-0.35604">
        <ele>49</ele>
        <time>2023-05-23T11:39:40Z</time>
      </trkpt>
      <trkpt lat="49.09184" lon="-0.35598">
        <ele>49.2</ele>
        <time>2023-05-23T11:39:41Z</time>
      </trkpt>
      <trkpt lat="49.09188" lon="-0.35592">
        <ele>49.2</ele>
        <time>2023-05-23T11:39:42Z</time>
      </trkpt>
      <trkpt lat="49.09191" lon="-0.35586">
        <ele>49.2</ele>
        <time>2023-05-23T11:39:43Z</time>
      </trkpt>
      <trkpt lat="49.09194" lon="-0.35579">
        <ele>49.2</ele>
        <time>2023-05-23T11:39:44Z</time>
      </trkpt>
      <trkpt lat="49.09197" lon="-0.35572">
        <ele>49.6</ele>
        <time>2023-05-23T11:39:45Z</time>
      </trkpt>
      <trkpt lat="49.092" lon="-0.35566">
        <ele>49.8</ele>
        <time>2023-05-23T11:39:46Z</time>
      </trkpt>
      <trkpt lat="49.09203" lon="-0.3556">
        <ele>50</ele>
        <time>2023-05-23T11:39:47Z</time>
      </trkpt>
      <trkpt lat="49.09207" lon="-0.35554">
        <ele>50</ele>
        <time>2023-05-23T11:39:48Z</time>
      </trkpt>
      <trkpt lat="49.09211" lon="-0.35548">
        <ele>50.4</ele>
        <time>2023-05-23T11:39:49Z</time>
      </trkpt>
      <trkpt lat="49.09215" lon="-0.35543">
        <ele>50.6</ele>
        <time>2023-05-23T11:39:50Z</time>
      </trkpt>
      <trkpt lat="49.09219" lon="-0.35537">
        <ele>51</ele>
        <time>2023-05-23T11:39:51Z</time>
      </trkpt>
      <trkpt lat="49.09223" lon="-0.35532">
        <ele>51</ele>
        <time>2023-05-23T11:39:52Z</time>
      </trkpt>
      <trkpt lat="49.09226" lon="-0.35526">
        <ele>51.2</ele>
        <time>2023-05-23T11:39:53Z</time>
      </trkpt>
      <trkpt lat="49.09228" lon="-0.35521">
        <ele>51.6</ele>
        <time>2023-05-23T11:39:54Z</time>
      </trkpt>
      <trkpt lat="49.09229" lon="-0.35516">
        <ele>51.6</ele>
        <time>2023-05-23T11:39:55Z</time>
      </trkpt>
      <trkpt lat="49.0923" lon="-0.35511">
        <ele>51.8</ele>
        <time>2023-05-23T11:39:56Z</time>
      </trkpt>
      <trkpt lat="49.09231" lon="-0.35508">
        <ele>51.8</ele>
        <time>2023-05-23T11:39:57Z</time>
      </trkpt>
      <trkpt lat="49.09232" lon="-0.35506">
        <ele>52</ele>
        <time>2023-05-23T11:39:58Z</time>
      </trkpt>
      <trkpt lat="49.09233" lon="-0.35506">
        <ele>52</ele>
        <time>2023-05-23T11:39:59Z</time>
      </trkpt>
      <trkpt lat="49.09233" lon="-0.35505">
        <ele>52</ele>
        <time>2023-05-23T11:40:00Z</time>
      </trkpt>
      <trkpt lat="49.09234" lon="-0.35505">
        <ele>52</ele>
        <time>2023-05-23T11:40:01Z</time>
      </trkpt>
      <trkpt lat="49.09234" lon="-0.35505">
        <ele>52</ele>
        <time>2023-05-23T11:40:02Z</time>
      </trkpt>
      <trkpt lat="49.09234" lon="-0.35505">
        <ele>52</ele>
        <time>2023-05-23T11:40:03Z</time>
      </trkpt>
      <trkpt lat="49.09234" lon="-0.35505">
        <ele>52</ele>
        <time>2023-05-23T11:40:04Z</time>
      </trkpt>
      <trkpt lat="49.09234" lon="-0.35505">
        <ele>52</ele>
        <time>2023-05-23T11:40:05Z</time>
      </trkpt>
      <trkpt lat="49.09234" lon="-0.35505">
        <ele>52</ele>
        <time>2023-05-23T11:40:06Z</time>
      </trkpt>
      <trkpt lat="49.09234" lon="-0.35505">
        <ele>52</ele>
        <time>2023-05-23T11:40:07Z</time>
      </trkpt>
      <trkpt lat="49.09234" lon="-0.35505">
        <ele>52</ele>
        <time>2023-05-23T11:40:08Z</time>
      </trkpt>
      <trkpt lat="49.09234" lon="-0.35505">
        <ele>52</ele>
        <time>2023-05-23T11:40:09Z</time>
      </trkpt>
      <trkpt lat="49.09234" lon="-0.35505">
        <ele>52</ele>
        <time>2023-05-23T11:40:10Z</time>
      </trkpt>
      <trkpt lat="49.09234" lon="-0.35505">
        <ele>52</ele>
        <time>2023-05-23T11:40:11Z</time>
      </trkpt>
      <trkpt lat="49.09234" lon="-0.35505">
        <ele>52</ele>
        <time>2023-05-23T11:40:12Z</time>
      </trkpt>
      <trkpt lat="49.09234" lon="-0.35505">
        <ele>52</ele>
        <time>2023-05-23T11:40:13Z</time>
      </trkpt>
      <trkpt lat="49.09234" lon="-0.35505">
        <ele>52</ele>
        <time>2023-05-23T11:40:14Z</time>
      </trkpt>
      <trkpt lat="49.09234" lon="-0.35505">
        <ele>52</ele>
        <time>2023-05-23T11:40:15Z</time>
      </trkpt>
      <trkpt lat="49.09235" lon="-0.35505">
        <ele>52</ele>
        <time>2023-05-23T11:40:16Z</time>
      </trkpt>
      <trkpt lat="49.09236" lon="-0.35505">
        <ele>52</ele>
        <time>2023-05-23T11:40:17Z</time>
      </trkpt>
      <trkpt lat="49.09238" lon="-0.35505">
        <ele>52.2</ele>
        <time>2023-05-23T11:40:18Z</time>
      </trkpt>
      <trkpt lat="49.09239" lon="-0.35505">
        <ele>52.2</ele>
        <time>2023-05-23T11:40:19Z</time>
      </trkpt>
      <trkpt lat="49.09241" lon="-0.35502">
        <ele>52.4</ele>
        <time>2023-05-23T11:40:20Z</time>
      </trkpt>
      <trkpt lat="49.09242" lon="-0.35499">
        <ele>52.6</ele>
        <time>2023-05-23T11:40:21Z</time>
      </trkpt>
      <trkpt lat="49.09244" lon="-0.35495">
        <ele>52.6</ele>
        <time>2023-05-23T11:40:22Z</time>
      </trkpt>
      <trkpt lat="49.09246" lon="-0.3549">
        <ele>52.6</ele>
        <time>2023-05-23T11:40:23Z</time>
      </trkpt>
      <trkpt lat="49.09249" lon="-0.35485">
        <ele>52.6</ele>
        <time>2023-05-23T11:40:24Z</time>
      </trkpt>
      <trkpt lat="49.09251" lon="-0.3548">
        <ele>52.6</ele>
        <time>2023-05-23T11:40:25Z</time>
      </trkpt>
      <trkpt lat="49.09253" lon="-0.35475">
        <ele>52.6</ele>
        <time>2023-05-23T11:40:26Z</time>
      </trkpt>
      <trkpt lat="49.09256" lon="-0.35469">
        <ele>52.6</ele>
        <time>2023-05-23T11:40:27Z</time>
      </trkpt>
      <trkpt lat="49.09259" lon="-0.35464">
        <ele>52.4</ele>
        <time>2023-05-23T11:40:28Z</time>
      </trkpt>
      <trkpt lat="49.09262" lon="-0.35458">
        <ele>52.2</ele>
        <time>2023-05-23T11:40:29Z</time>
      </trkpt>
      <trkpt lat="49.09265" lon="-0.35451">
        <ele>52.2</ele>
        <time>2023-05-23T11:40:30Z</time>
      </trkpt>
      <trkpt lat="49.09268" lon="-0.35445">
        <ele>52.2</ele>
        <time>2023-05-23T11:40:31Z</time>
      </trkpt>
      <trkpt lat="49.09271" lon="-0.35438">
        <ele>52</ele>
        <time>2023-05-23T11:40:32Z</time>
      </trkpt>
      <trkpt lat="49.09274" lon="-0.35431">
        <ele>52</ele>
        <time>2023-05-23T11:40:33Z</time>
      </trkpt>
      <trkpt lat="49.09277" lon="-0.35424">
        <ele>51.8</ele>
        <time>2023-05-23T11:40:34Z</time>
      </trkpt>
      <trkpt lat="49.0928" lon="-0.35416">
        <ele>51.8</ele>
        <time>2023-05-23T11:40:35Z</time>
      </trkpt>
      <trkpt lat="49.09283" lon="-0.35409">
        <ele>51.8</ele>
        <time>2023-05-23T11:40:36Z</time>
      </trkpt>
      <trkpt lat="49.09286" lon="-0.35402">
        <ele>51.8</ele>
        <time>2023-05-23T11:40:37Z</time>
      </trkpt>
      <trkpt lat="49.09289" lon="-0.35395">
        <ele>51.8</ele>
        <time>2023-05-23T11:40:38Z</time>
      </trkpt>
      <trkpt lat="49.09291" lon="-0.35388">
        <ele>51.8</ele>
        <time>2023-05-23T11:40:39Z</time>
      </trkpt>
      <trkpt lat="49.09294" lon="-0.35381">
        <ele>52</ele>
        <time>2023-05-23T11:40:40Z</time>
      </trkpt>
      <trkpt lat="49.09297" lon="-0.35374">
        <ele>52</ele>
        <time>2023-05-23T11:40:41Z</time>
      </trkpt>
      <trkpt lat="49.093" lon="-0.35367">
        <ele>52</ele>
        <time>2023-05-23T11:40:42Z</time>
      </trkpt>
      <trkpt lat="49.09302" lon="-0.35361">
        <ele>52</ele>
        <time>2023-05-23T11:40:43Z</time>
      </trkpt>
      <trkpt lat="49.09301" lon="-0.35354">
        <ele>52</ele>
        <time>2023-05-23T11:40:44Z</time>
      </trkpt>
      <trkpt lat="49.09299" lon="-0.35349">
        <ele>51.8</ele>
        <time>2023-05-23T11:40:45Z</time>
      </trkpt>
      <trkpt lat="49.09295" lon="-0.35345">
        <ele>51.8</ele>
        <time>2023-05-23T11:40:46Z</time>
      </trkpt>
      <trkpt lat="49.0929" lon="-0.35341">
        <ele>51.6</ele>
        <time>2023-05-23T11:40:47Z</time>
      </trkpt>
      <trkpt lat="49.09285" lon="-0.35336">
        <ele>51.2</ele>
        <time>2023-05-23T11:40:48Z</time>
      </trkpt>
      <trkpt lat="49.0928" lon="-0.35331">
        <ele>51</ele>
        <time>2023-05-23T11:40:49Z</time>
      </trkpt>
      <trkpt lat="49.09274" lon="-0.35325">
        <ele>51</ele>
        <time>2023-05-23T11:40:50Z</time>
      </trkpt>
      <trkpt lat="49.09269" lon="-0.3532">
        <ele>50.8</ele>
        <time>2023-05-23T11:40:51Z</time>
      </trkpt>
      <trkpt lat="49.09263" lon="-0.35314">
        <ele>50.6</ele>
        <time>2023-05-23T11:40:52Z</time>
      </trkpt>
      <trkpt lat="49.09258" lon="-0.35308">
        <ele>50.2</ele>
        <time>2023-05-23T11:40:53Z</time>
      </trkpt>
      <trkpt lat="49.09252" lon="-0.35302">
        <ele>50</ele>
        <time>2023-05-23T11:40:54Z</time>
      </trkpt>
      <trkpt lat="49.09247" lon="-0.35295">
        <ele>50</ele>
        <time>2023-05-23T11:40:55Z</time>
      </trkpt>
      <trkpt lat="49.09242" lon="-0.35288">
        <ele>50</ele>
        <time>2023-05-23T11:40:56Z</time>
      </trkpt>
      <trkpt lat="49.09237" lon="-0.3528">
        <ele>50</ele>
        <time>2023-05-23T11:40:57Z</time>
      </trkpt>
      <trkpt lat="49.09233" lon="-0.35273">
        <ele>50</ele>
        <time>2023-05-23T11:40:58Z</time>
      </trkpt>
      <trkpt lat="49.09229" lon="-0.35265">
        <ele>50</ele>
        <time>2023-05-23T11:40:59Z</time>
      </trkpt>
      <trkpt lat="49.09225" lon="-0.35257">
        <ele>50</ele>
        <time>2023-05-23T11:41:00Z</time>
      </trkpt>
      <trkpt lat="49.09222" lon="-0.35249">
        <ele>50</ele>
        <time>2023-05-23T11:41:01Z</time>
      </trkpt>
      <trkpt lat="49.09219" lon="-0.35241">
        <ele>50</ele>
        <time>2023-05-23T11:41:02Z</time>
      </trkpt>
      <trkpt lat="49.09216" lon="-0.35233">
        <ele>50</ele>
        <time>2023-05-23T11:41:03Z</time>
      </trkpt>
      <trkpt lat="49.09213" lon="-0.35225">
        <ele>50</ele>
        <time>2023-05-23T11:41:04Z</time>
      </trkpt>
      <trkpt lat="49.0921" lon="-0.35217">
        <ele>50.2</ele>
        <time>2023-05-23T11:41:05Z</time>
      </trkpt>
      <trkpt lat="49.09206" lon="-0.3521">
        <ele>50.2</ele>
        <time>2023-05-23T11:41:06Z</time>
      </trkpt>
      <trkpt lat="49.09203" lon="-0.35203">
        <ele>50.2</ele>
        <time>2023-05-23T11:41:07Z</time>
      </trkpt>
      <trkpt lat="49.09199" lon="-0.35195">
        <ele>50.4</ele>
        <time>2023-05-23T11:41:08Z</time>
      </trkpt>
      <trkpt lat="49.09196" lon="-0.35188">
        <ele>50.6</ele>
        <time>2023-05-23T11:41:09Z</time>
      </trkpt>
      <trkpt lat="49.09192" lon="-0.35181">
        <ele>50.6</ele>
        <time>2023-05-23T11:41:10Z</time>
      </trkpt>
      <trkpt lat="49.09188" lon="-0.35174">
        <ele>50.8</ele>
        <time>2023-05-23T11:41:11Z</time>
      </trkpt>
      <trkpt lat="49.09184" lon="-0.35167">
        <ele>50.8</ele>
        <time>2023-05-23T11:41:12Z</time>
      </trkpt>
      <trkpt lat="49.09181" lon="-0.35161">
        <ele>50.8</ele>
        <time>2023-05-23T11:41:13Z</time>
      </trkpt>
      <trkpt lat="49.09177" lon="-0.35154">
        <ele>51</ele>
        <time>2023-05-23T11:41:14Z</time>
      </trkpt>
      <trkpt lat="49.09173" lon="-0.35147">
        <ele>51</ele>
        <time>2023-05-23T11:41:15Z</time>
      </trkpt>
      <trkpt lat="49.0917" lon="-0.3514">
        <ele>51</ele>
        <time>2023-05-23T11:41:16Z</time>
      </trkpt>
      <trkpt lat="49.09166" lon="-0.35133">
        <ele>51</ele>
        <time>2023-05-23T11:41:17Z</time>
      </trkpt>
      <trkpt lat="49.09163" lon="-0.35126">
        <ele>51</ele>
        <time>2023-05-23T11:41:18Z</time>
      </trkpt>
      <trkpt lat="49.0916" lon="-0.35119">
        <ele>51.2</ele>
        <time>2023-05-23T11:41:19Z</time>
      </trkpt>
      <trkpt lat="49.09157" lon="-0.35112">
        <ele>51.2</ele>
        <time>2023-05-23T11:41:20Z</time>
      </trkpt>
      <trkpt lat="49.09153" lon="-0.35105">
        <ele>51.4</ele>
        <time>2023-05-23T11:41:21Z</time>
      </trkpt>
      <trkpt lat="49.0915" lon="-0.35098">
        <ele>51.4</ele>
        <time>2023-05-23T11:41:22Z</time>
      </trkpt>
      <trkpt lat="49.09146" lon="-0.35092">
        <ele>51.6</ele>
        <time>2023-05-23T11:41:23Z</time>
      </trkpt>
      <trkpt lat="49.09143" lon="-0.35085">
        <ele>51.6</ele>
        <time>2023-05-23T11:41:24Z</time>
      </trkpt>
      <trkpt lat="49.09141" lon="-0.35078">
        <ele>51.8</ele>
        <time>2023-05-23T11:41:25Z</time>
      </trkpt>
      <trkpt lat="49.0914" lon="-0.35072">
        <ele>51.8</ele>
        <time>2023-05-23T11:41:26Z</time>
      </trkpt>
      <trkpt lat="49.09139" lon="-0.35065">
        <ele>51.8</ele>
        <time>2023-05-23T11:41:27Z</time>
      </trkpt>
      <trkpt lat="49.09136" lon="-0.35061">
        <ele>52</ele>
        <time>2023-05-23T11:41:28Z</time>
      </trkpt>
      <trkpt lat="49.09132" lon="-0.35058">
        <ele>52</ele>
        <time>2023-05-23T11:41:29Z</time>
      </trkpt>
      <trkpt lat="49.09127" lon="-0.35056">
        <ele>52</ele>
        <time>2023-05-23T11:41:30Z</time>
      </trkpt>
      <trkpt lat="49.09122" lon="-0.35053">
        <ele>52.2</ele>
        <time>2023-05-23T11:41:31Z</time>
      </trkpt>
      <trkpt lat="49.09116" lon="-0.35048">
        <ele>52.4</ele>
        <time>2023-05-23T11:41:32Z</time>
      </trkpt>
      <trkpt lat="49.09111" lon="-0.35044">
        <ele>52.6</ele>
        <time>2023-05-23T11:41:33Z</time>
      </trkpt>
      <trkpt lat="49.09105" lon="-0.35039">
        <ele>52.6</ele>
        <time>2023-05-23T11:41:34Z</time>
      </trkpt>
      <trkpt lat="49.091" lon="-0.35035">
        <ele>52.8</ele>
        <time>2023-05-23T11:41:35Z</time>
      </trkpt>
      <trkpt lat="49.09094" lon="-0.35031">
        <ele>52.8</ele>
        <time>2023-05-23T11:41:36Z</time>
      </trkpt>
      <trkpt lat="49.09089" lon="-0.35028">
        <ele>53</ele>
        <time>2023-05-23T11:41:37Z</time>
      </trkpt>
      <trkpt lat="49.09084" lon="-0.35024">
        <ele>53</ele>
        <time>2023-05-23T11:41:38Z</time>
      </trkpt>
      <trkpt lat="49.09078" lon="-0.35019">
        <ele>53</ele>
        <time>2023-05-23T11:41:39Z</time>
      </trkpt>
      <trkpt lat="49.09073" lon="-0.35015">
        <ele>53.2</ele>
        <time>2023-05-23T11:41:40Z</time>
      </trkpt>
      <trkpt lat="49.09068" lon="-0.35011">
        <ele>53.4</ele>
        <time>2023-05-23T11:41:41Z</time>
      </trkpt>
      <trkpt lat="49.09063" lon="-0.35008">
        <ele>53.6</ele>
        <time>2023-05-23T11:41:42Z</time>
      </trkpt>
      <trkpt lat="49.09057" lon="-0.35005">
        <ele>53.6</ele>
        <time>2023-05-23T11:41:43Z</time>
      </trkpt>
      <trkpt lat="49.09052" lon="-0.35002">
        <ele>53.8</ele>
        <time>2023-05-23T11:41:44Z</time>
      </trkpt>
      <trkpt lat="49.09046" lon="-0.34999">
        <ele>54</ele>
        <time>2023-05-23T11:41:45Z</time>
      </trkpt>
      <trkpt lat="49.09041" lon="-0.34996">
        <ele>54</ele>
        <time>2023-05-23T11:41:46Z</time>
      </trkpt>
      <trkpt lat="49.09036" lon="-0.34993">
        <ele>54.2</ele>
        <time>2023-05-23T11:41:47Z</time>
      </trkpt>
      <trkpt lat="49.0903" lon="-0.3499">
        <ele>54.6</ele>
        <time>2023-05-23T11:41:48Z</time>
      </trkpt>
      <trkpt lat="49.09025" lon="-0.34987">
        <ele>54.8</ele>
        <time>2023-05-23T11:41:49Z</time>
      </trkpt>
      <trkpt lat="49.0902" lon="-0.34983">
        <ele>55</ele>
        <time>2023-05-23T11:41:50Z</time>
      </trkpt>
      <trkpt lat="49.09014" lon="-0.3498">
        <ele>55</ele>
        <time>2023-05-23T11:41:51Z</time>
      </trkpt>
      <trkpt lat="49.09009" lon="-0.34977">
        <ele>55.2</ele>
        <time>2023-05-23T11:41:52Z</time>
      </trkpt>
      <trkpt lat="49.09004" lon="-0.34974">
        <ele>55.6</ele>
        <time>2023-05-23T11:41:53Z</time>
      </trkpt>
      <trkpt lat="49.08998" lon="-0.34971">
        <ele>55.8</ele>
        <time>2023-05-23T11:41:54Z</time>
      </trkpt>
      <trkpt lat="49.08993" lon="-0.34968">
        <ele>56</ele>
        <time>2023-05-23T11:41:55Z</time>
      </trkpt>
      <trkpt lat="49.08987" lon="-0.34965">
        <ele>56</ele>
        <time>2023-05-23T11:41:56Z</time>
      </trkpt>
      <trkpt lat="49.08982" lon="-0.34961">
        <ele>56</ele>
        <time>2023-05-23T11:41:57Z</time>
      </trkpt>
      <trkpt lat="49.08977" lon="-0.34958">
        <ele>56.2</ele>
        <time>2023-05-23T11:41:58Z</time>
      </trkpt>
      <trkpt lat="49.08971" lon="-0.34955">
        <ele>56.4</ele>
        <time>2023-05-23T11:41:59Z</time>
      </trkpt>
      <trkpt lat="49.08966" lon="-0.34952">
        <ele>56.6</ele>
        <time>2023-05-23T11:42:00Z</time>
      </trkpt>
      <trkpt lat="49.08961" lon="-0.34948">
        <ele>56.8</ele>
        <time>2023-05-23T11:42:01Z</time>
      </trkpt>
      <trkpt lat="49.08956" lon="-0.34944">
        <ele>57</ele>
        <time>2023-05-23T11:42:02Z</time>
      </trkpt>
      <trkpt lat="49.08951" lon="-0.34941">
        <ele>57</ele>
        <time>2023-05-23T11:42:03Z</time>
      </trkpt>
      <trkpt lat="49.08947" lon="-0.34937">
        <ele>57.2</ele>
        <time>2023-05-23T11:42:04Z</time>
      </trkpt>
      <trkpt lat="49.08942" lon="-0.34933">
        <ele>57.2</ele>
        <time>2023-05-23T11:42:05Z</time>
      </trkpt>
      <trkpt lat="49.08937" lon="-0.34929">
        <ele>57.6</ele>
        <time>2023-05-23T11:42:06Z</time>
      </trkpt>
      <trkpt lat="49.08933" lon="-0.34925">
        <ele>57.6</ele>
        <time>2023-05-23T11:42:07Z</time>
      </trkpt>
      <trkpt lat="49.08928" lon="-0.34921">
        <ele>57.8</ele>
        <time>2023-05-23T11:42:08Z</time>
      </trkpt>
      <trkpt lat="49.08924" lon="-0.34918">
        <ele>58</ele>
        <time>2023-05-23T11:42:09Z</time>
      </trkpt>
      <trkpt lat="49.08919" lon="-0.34914">
        <ele>58</ele>
        <time>2023-05-23T11:42:10Z</time>
      </trkpt>
      <trkpt lat="49.08914" lon="-0.3491">
        <ele>58</ele>
        <time>2023-05-23T11:42:11Z</time>
      </trkpt>
      <trkpt lat="49.0891" lon="-0.34906">
        <ele>58</ele>
        <time>2023-05-23T11:42:12Z</time>
      </trkpt>
      <trkpt lat="49.08905" lon="-0.34902">
        <ele>58</ele>
        <time>2023-05-23T11:42:13Z</time>
      </trkpt>
      <trkpt lat="49.08901" lon="-0.34898">
        <ele>58</ele>
        <time>2023-05-23T11:42:14Z</time>
      </trkpt>
      <trkpt lat="49.08896" lon="-0.34894">
        <ele>58</ele>
        <time>2023-05-23T11:42:15Z</time>
      </trkpt>
      <trkpt lat="49.08892" lon="-0.34891">
        <ele>58</ele>
        <time>2023-05-23T11:42:16Z</time>
      </trkpt>
      <trkpt lat="49.08887" lon="-0.34887">
        <ele>58</ele>
        <time>2023-05-23T11:42:17Z</time>
      </trkpt>
      <trkpt lat="49.08883" lon="-0.34882">
        <ele>58</ele>
        <time>2023-05-23T11:42:18Z</time>
      </trkpt>
      <trkpt lat="49.08878" lon="-0.34878">
        <ele>58</ele>
        <time>2023-05-23T11:42:19Z</time>
      </trkpt>
      <trkpt lat="49.08873" lon="-0.34874">
        <ele>58</ele>
        <time>2023-05-23T11:42:20Z</time>
      </trkpt>
      <trkpt lat="49.08868" lon="-0.3487">
        <ele>58</ele>
        <time>2023-05-23T11:42:21Z</time>
      </trkpt>
      <trkpt lat="49.08864" lon="-0.34866">
        <ele>58</ele>
        <time>2023-05-23T11:42:22Z</time>
      </trkpt>
      <trkpt lat="49.08858" lon="-0.34861">
        <ele>58</ele>
        <time>2023-05-23T11:42:23Z</time>
      </trkpt>
      <trkpt lat="49.08853" lon="-0.34857">
        <ele>58</ele>
        <time>2023-05-23T11:42:24Z</time>
      </trkpt>
      <trkpt lat="49.08848" lon="-0.34852">
        <ele>58</ele>
        <time>2023-05-23T11:42:25Z</time>
      </trkpt>
      <trkpt lat="49.08843" lon="-0.34848">
        <ele>58</ele>
        <time>2023-05-23T11:42:26Z</time>
      </trkpt>
      <trkpt lat="49.08838" lon="-0.34843">
        <ele>58</ele>
        <time>2023-05-23T11:42:27Z</time>
      </trkpt>
      <trkpt lat="49.08833" lon="-0.34839">
        <ele>58</ele>
        <time>2023-05-23T11:42:28Z</time>
      </trkpt>
      <trkpt lat="49.08828" lon="-0.34835">
        <ele>58</ele>
        <time>2023-05-23T11:42:29Z</time>
      </trkpt>
      <trkpt lat="49.08823" lon="-0.34831">
        <ele>58</ele>
        <time>2023-05-23T11:42:30Z</time>
      </trkpt>
      <trkpt lat="49.08818" lon="-0.34826">
        <ele>58.2</ele>
        <time>2023-05-23T11:42:31Z</time>
      </trkpt>
      <trkpt lat="49.08813" lon="-0.34822">
        <ele>58.2</ele>
        <time>2023-05-23T11:42:32Z</time>
      </trkpt>
      <trkpt lat="49.08808" lon="-0.34818">
        <ele>58.2</ele>
        <time>2023-05-23T11:42:33Z</time>
      </trkpt>
      <trkpt lat="49.08803" lon="-0.34813">
        <ele>58.4</ele>
        <time>2023-05-23T11:42:34Z</time>
      </trkpt>
      <trkpt lat="49.08797" lon="-0.34809">
        <ele>58.4</ele>
        <time>2023-05-23T11:42:35Z</time>
      </trkpt>
      <trkpt lat="49.08792" lon="-0.34805">
        <ele>58.6</ele>
        <time>2023-05-23T11:42:36Z</time>
      </trkpt>
      <trkpt lat="49.08787" lon="-0.348">
        <ele>58.6</ele>
        <time>2023-05-23T11:42:37Z</time>
      </trkpt>
      <trkpt lat="49.08782" lon="-0.34796">
        <ele>58.6</ele>
        <time>2023-05-23T11:42:38Z</time>
      </trkpt>
      <trkpt lat="49.08777" lon="-0.34791">
        <ele>58.8</ele>
        <time>2023-05-23T11:42:39Z</time>
      </trkpt>
      <trkpt lat="49.08771" lon="-0.34787">
        <ele>58.8</ele>
        <time>2023-05-23T11:42:40Z</time>
      </trkpt>
      <trkpt lat="49.08766" lon="-0.34782">
        <ele>58.8</ele>
        <time>2023-05-23T11:42:41Z</time>
      </trkpt>
      <trkpt lat="49.08761" lon="-0.34777">
        <ele>59</ele>
        <time>2023-05-23T11:42:42Z</time>
      </trkpt>
      <trkpt lat="49.08756" lon="-0.34773">
        <ele>59</ele>
        <time>2023-05-23T11:42:43Z</time>
      </trkpt>
      <trkpt lat="49.0875" lon="-0.34768">
        <ele>59</ele>
        <time>2023-05-23T11:42:44Z</time>
      </trkpt>
      <trkpt lat="49.08745" lon="-0.34764">
        <ele>59</ele>
        <time>2023-05-23T11:42:45Z</time>
      </trkpt>
      <trkpt lat="49.0874" lon="-0.34759">
        <ele>59.2</ele>
        <time>2023-05-23T11:42:46Z</time>
      </trkpt>
      <trkpt lat="49.08734" lon="-0.34754">
        <ele>59.4</ele>
        <time>2023-05-23T11:42:47Z</time>
      </trkpt>
      <trkpt lat="49.08729" lon="-0.3475">
        <ele>59.6</ele>
        <time>2023-05-23T11:42:48Z</time>
      </trkpt>
      <trkpt lat="49.08723" lon="-0.34745">
        <ele>59.8</ele>
        <time>2023-05-23T11:42:49Z</time>
      </trkpt>
      <trkpt lat="49.08718" lon="-0.3474">
        <ele>59.8</ele>
        <time>2023-05-23T11:42:50Z</time>
      </trkpt>
      <trkpt lat="49.08712" lon="-0.34736">
        <ele>60</ele>
        <time>2023-05-23T11:42:51Z</time>
      </trkpt>
      <trkpt lat="49.08707" lon="-0.34731">
        <ele>60</ele>
        <time>2023-05-23T11:42:52Z</time>
      </trkpt>
      <trkpt lat="49.08701" lon="-0.34726">
        <ele>60.2</ele>
        <time>2023-05-23T11:42:53Z</time>
      </trkpt>
      <trkpt lat="49.08696" lon="-0.34721">
        <ele>60.4</ele>
        <time>2023-05-23T11:42:54Z</time>
      </trkpt>
      <trkpt lat="49.08691" lon="-0.34716">
        <ele>60.6</ele>
        <time>2023-05-23T11:42:55Z</time>
      </trkpt>
      <trkpt lat="49.08685" lon="-0.34711">
        <ele>60.8</ele>
        <time>2023-05-23T11:42:56Z</time>
      </trkpt>
      <trkpt lat="49.0868" lon="-0.34706">
        <ele>60.8</ele>
        <time>2023-05-23T11:42:57Z</time>
      </trkpt>
      <trkpt lat="49.08675" lon="-0.34701">
        <ele>61</ele>
        <time>2023-05-23T11:42:58Z</time>
      </trkpt>
      <trkpt lat="49.0867" lon="-0.34696">
        <ele>61</ele>
        <time>2023-05-23T11:42:59Z</time>
      </trkpt>
      <trkpt lat="49.08665" lon="-0.3469">
        <ele>61</ele>
        <time>2023-05-23T11:43:00Z</time>
      </trkpt>
      <trkpt lat="49.0866" lon="-0.34685">
        <ele>61</ele>
        <time>2023-05-23T11:43:01Z</time>
      </trkpt>
      <trkpt lat="49.08655" lon="-0.34679">
        <ele>61</ele>
        <time>2023-05-23T11:43:02Z</time>
      </trkpt>
      <trkpt lat="49.08651" lon="-0.34674">
        <ele>61.2</ele>
        <time>2023-05-23T11:43:03Z</time>
      </trkpt>
      <trkpt lat="49.08646" lon="-0.34668">
        <ele>61.2</ele>
        <time>2023-05-23T11:43:04Z</time>
      </trkpt>
      <trkpt lat="49.08641" lon="-0.34663">
        <ele>61.2</ele>
        <time>2023-05-23T11:43:05Z</time>
      </trkpt>
      <trkpt lat="49.08636" lon="-0.34657">
        <ele>61.4</ele>
        <time>2023-05-23T11:43:06Z</time>
      </trkpt>
      <trkpt lat="49.08631" lon="-0.34652">
        <ele>61.4</ele>
        <time>2023-05-23T11:43:07Z</time>
      </trkpt>
      <trkpt lat="49.08626" lon="-0.34646">
        <ele>61.6</ele>
        <time>2023-05-23T11:43:08Z</time>
      </trkpt>
      <trkpt lat="49.08621" lon="-0.34641">
        <ele>61.6</ele>
        <time>2023-05-23T11:43:09Z</time>
      </trkpt>
      <trkpt lat="49.08616" lon="-0.34636">
        <ele>61.6</ele>
        <time>2023-05-23T11:43:10Z</time>
      </trkpt>
      <trkpt lat="49.08612" lon="-0.34631">
        <ele>61.8</ele>
        <time>2023-05-23T11:43:11Z</time>
      </trkpt>
      <trkpt lat="49.08607" lon="-0.34625">
        <ele>61.8</ele>
        <time>2023-05-23T11:43:12Z</time>
      </trkpt>
      <trkpt lat="49.08602" lon="-0.3462">
        <ele>61.8</ele>
        <time>2023-05-23T11:43:13Z</time>
      </trkpt>
      <trkpt lat="49.08597" lon="-0.34615">
        <ele>61.8</ele>
        <time>2023-05-23T11:43:14Z</time>
      </trkpt>
      <trkpt lat="49.08593" lon="-0.3461">
        <ele>62</ele>
        <time>2023-05-23T11:43:15Z</time>
      </trkpt>
      <trkpt lat="49.08588" lon="-0.34606">
        <ele>62</ele>
        <time>2023-05-23T11:43:16Z</time>
      </trkpt>
      <trkpt lat="49.08584" lon="-0.34601">
        <ele>62</ele>
        <time>2023-05-23T11:43:17Z</time>
      </trkpt>
      <trkpt lat="49.0858" lon="-0.34596">
        <ele>62</ele>
        <time>2023-05-23T11:43:18Z</time>
      </trkpt>
      <trkpt lat="49.08576" lon="-0.34592">
        <ele>62</ele>
        <time>2023-05-23T11:43:19Z</time>
      </trkpt>
      <trkpt lat="49.08572" lon="-0.34587">
        <ele>62</ele>
        <time>2023-05-23T11:43:20Z</time>
      </trkpt>
      <trkpt lat="49.08568" lon="-0.34583">
        <ele>62</ele>
        <time>2023-05-23T11:43:21Z</time>
      </trkpt>
      <trkpt lat="49.08564" lon="-0.34579">
        <ele>62</ele>
        <time>2023-05-23T11:43:22Z</time>
      </trkpt>
      <trkpt lat="49.0856" lon="-0.34576">
        <ele>62</ele>
        <time>2023-05-23T11:43:23Z</time>
      </trkpt>
      <trkpt lat="49.08556" lon="-0.34572">
        <ele>62</ele>
        <time>2023-05-23T11:43:24Z</time>
      </trkpt>
      <trkpt lat="49.08552" lon="-0.34569">
        <ele>62.2</ele>
        <time>2023-05-23T11:43:25Z</time>
      </trkpt>
      <trkpt lat="49.08548" lon="-0.34567">
        <ele>62.2</ele>
        <time>2023-05-23T11:43:26Z</time>
      </trkpt>
      <trkpt lat="49.08543" lon="-0.34567">
        <ele>62.2</ele>
        <time>2023-05-23T11:43:27Z</time>
      </trkpt>
      <trkpt lat="49.08539" lon="-0.34567">
        <ele>62.2</ele>
        <time>2023-05-23T11:43:28Z</time>
      </trkpt>
      <trkpt lat="49.08534" lon="-0.34568">
        <ele>62.2</ele>
        <time>2023-05-23T11:43:29Z</time>
      </trkpt>
      <trkpt lat="49.08529" lon="-0.34568">
        <ele>62.2</ele>
        <time>2023-05-23T11:43:30Z</time>
      </trkpt>
      <trkpt lat="49.08524" lon="-0.34567">
        <ele>62.2</ele>
        <time>2023-05-23T11:43:31Z</time>
      </trkpt>
      <trkpt lat="49.08519" lon="-0.34565">
        <ele>62.2</ele>
        <time>2023-05-23T11:43:32Z</time>
      </trkpt>
      <trkpt lat="49.08515" lon="-0.34561">
        <ele>62.2</ele>
        <time>2023-05-23T11:43:33Z</time>
      </trkpt>
      <trkpt lat="49.08511" lon="-0.34556">
        <ele>62.2</ele>
        <time>2023-05-23T11:43:34Z</time>
      </trkpt>
      <trkpt lat="49.08509" lon="-0.3455">
        <ele>62.4</ele>
        <time>2023-05-23T11:43:35Z</time>
      </trkpt>
      <trkpt lat="49.08507" lon="-0.34543">
        <ele>62.6</ele>
        <time>2023-05-23T11:43:36Z</time>
      </trkpt>
      <trkpt lat="49.08505" lon="-0.34535">
        <ele>62.6</ele>
        <time>2023-05-23T11:43:37Z</time>
      </trkpt>
      <trkpt lat="49.08504" lon="-0.34528">
        <ele>62.8</ele>
        <time>2023-05-23T11:43:38Z</time>
      </trkpt>
      <trkpt lat="49.08503" lon="-0.3452">
        <ele>62.8</ele>
        <time>2023-05-23T11:43:39Z</time>
      </trkpt>
      <trkpt lat="49.08501" lon="-0.34514">
        <ele>62.8</ele>
        <time>2023-05-23T11:43:40Z</time>
      </trkpt>
      <trkpt lat="49.08498" lon="-0.34507">
        <ele>63</ele>
        <time>2023-05-23T11:43:41Z</time>
      </trkpt>
      <trkpt lat="49.08494" lon="-0.34501">
        <ele>63</ele>
        <time>2023-05-23T11:43:42Z</time>
      </trkpt>
      <trkpt lat="49.0849" lon="-0.34496">
        <ele>63.2</ele>
        <time>2023-05-23T11:43:43Z</time>
      </trkpt>
      <trkpt lat="49.08486" lon="-0.34491">
        <ele>63.2</ele>
        <time>2023-05-23T11:43:44Z</time>
      </trkpt>
      <trkpt lat="49.08481" lon="-0.34486">
        <ele>63.4</ele>
        <time>2023-05-23T11:43:45Z</time>
      </trkpt>
      <trkpt lat="49.08477" lon="-0.34481">
        <ele>63.4</ele>
        <time>2023-05-23T11:43:46Z</time>
      </trkpt>
      <trkpt lat="49.08473" lon="-0.34477">
        <ele>63.6</ele>
        <time>2023-05-23T11:43:47Z</time>
      </trkpt>
      <trkpt lat="49.08469" lon="-0.34472">
        <ele>63.6</ele>
        <time>2023-05-23T11:43:48Z</time>
      </trkpt>
      <trkpt lat="49.08465" lon="-0.34468">
        <ele>63.6</ele>
        <time>2023-05-23T11:43:49Z</time>
      </trkpt>
      <trkpt lat="49.08461" lon="-0.34464">
        <ele>63.8</ele>
        <time>2023-05-23T11:43:50Z</time>
      </trkpt>
      <trkpt lat="49.08457" lon="-0.3446">
        <ele>63.8</ele>
        <time>2023-05-23T11:43:51Z</time>
      </trkpt>
      <trkpt lat="49.08453" lon="-0.34455">
        <ele>63.8</ele>
        <time>2023-05-23T11:43:52Z</time>
      </trkpt>
      <trkpt lat="49.08449" lon="-0.34451">
        <ele>63.8</ele>
        <time>2023-05-23T11:43:53Z</time>
      </trkpt>
      <trkpt lat="49.08445" lon="-0.34447">
        <ele>64</ele>
        <time>2023-05-23T11:43:54Z</time>
      </trkpt>
      <trkpt lat="49.08442" lon="-0.34443">
        <ele>64</ele>
        <time>2023-05-23T11:43:55Z</time>
      </trkpt>
      <trkpt lat="49.08438" lon="-0.34439">
        <ele>64</ele>
        <time>2023-05-23T11:43:56Z</time>
      </trkpt>
      <trkpt lat="49.08434" lon="-0.34435">
        <ele>64</ele>
        <time>2023-05-23T11:43:57Z</time>
      </trkpt>
      <trkpt lat="49.0843" lon="-0.34431">
        <ele>64</ele>
        <time>2023-05-23T11:43:58Z</time>
      </trkpt>
      <trkpt lat="49.08426" lon="-0.34427">
        <ele>64</ele>
        <time>2023-05-23T11:43:59Z</time>
      </trkpt>
      <trkpt lat="49.08422" lon="-0.34423">
        <ele>64</ele>
        <time>2023-05-23T11:44:00Z</time>
      </trkpt>
      <trkpt lat="49.08418" lon="-0.34419">
        <ele>64</ele>
        <time>2023-05-23T11:44:01Z</time>
      </trkpt>
      <trkpt lat="49.08413" lon="-0.34414">
        <ele>64</ele>
        <time>2023-05-23T11:44:02Z</time>
      </trkpt>
      <trkpt lat="49.08409" lon="-0.3441">
        <ele>64</ele>
        <time>2023-05-23T11:44:03Z</time>
      </trkpt>
      <trkpt lat="49.08404" lon="-0.34405">
        <ele>64</ele>
        <time>2023-05-23T11:44:04Z</time>
      </trkpt>
      <trkpt lat="49.084" lon="-0.34401">
        <ele>64.2</ele>
        <time>2023-05-23T11:44:05Z</time>
      </trkpt>
      <trkpt lat="49.08395" lon="-0.34396">
        <ele>64.2</ele>
        <time>2023-05-23T11:44:06Z</time>
      </trkpt>
      <trkpt lat="49.0839" lon="-0.34391">
        <ele>64.2</ele>
        <time>2023-05-23T11:44:07Z</time>
      </trkpt>
      <trkpt lat="49.08385" lon="-0.34386">
        <ele>64.2</ele>
        <time>2023-05-23T11:44:08Z</time>
      </trkpt>
      <trkpt lat="49.0838" lon="-0.3438">
        <ele>64.2</ele>
        <time>2023-05-23T11:44:09Z</time>
      </trkpt>
      <trkpt lat="49.08375" lon="-0.34375">
        <ele>64.4</ele>
        <time>2023-05-23T11:44:10Z</time>
      </trkpt>
      <trkpt lat="49.08369" lon="-0.3437">
        <ele>64.2</ele>
        <time>2023-05-23T11:44:11Z</time>
      </trkpt>
      <trkpt lat="49.08364" lon="-0.34365">
        <ele>64.2</ele>
        <time>2023-05-23T11:44:12Z</time>
      </trkpt>
      <trkpt lat="49.08358" lon="-0.3436">
        <ele>64.2</ele>
        <time>2023-05-23T11:44:13Z</time>
      </trkpt>
      <trkpt lat="49.08352" lon="-0.34355">
        <ele>64.2</ele>
        <time>2023-05-23T11:44:14Z</time>
      </trkpt>
      <trkpt lat="49.08346" lon="-0.34352">
        <ele>64.2</ele>
        <time>2023-05-23T11:44:15Z</time>
      </trkpt>
      <trkpt lat="49.0834" lon="-0.34351">
        <ele>64.2</ele>
        <time>2023-05-23T11:44:16Z</time>
      </trkpt>
      <trkpt lat="49.08333" lon="-0.34351">
        <ele>64.2</ele>
        <time>2023-05-23T11:44:17Z</time>
      </trkpt>
      <trkpt lat="49.08327" lon="-0.3435">
        <ele>64.4</ele>
        <time>2023-05-23T11:44:18Z</time>
      </trkpt>
      <trkpt lat="49.0832" lon="-0.34347">
        <ele>64.4</ele>
        <time>2023-05-23T11:44:19Z</time>
      </trkpt>
      <trkpt lat="49.08315" lon="-0.34342">
        <ele>64.6</ele>
        <time>2023-05-23T11:44:20Z</time>
      </trkpt>
      <trkpt lat="49.0831" lon="-0.34335">
        <ele>64.6</ele>
        <time>2023-05-23T11:44:21Z</time>
      </trkpt>
      <trkpt lat="49.08306" lon="-0.34326">
        <ele>64.6</ele>
        <time>2023-05-23T11:44:22Z</time>
      </trkpt>
      <trkpt lat="49.08303" lon="-0.34316">
        <ele>64.6</ele>
        <time>2023-05-23T11:44:23Z</time>
      </trkpt>
      <trkpt lat="49.08299" lon="-0.34307">
        <ele>64.6</ele>
        <time>2023-05-23T11:44:24Z</time>
      </trkpt>
      <trkpt lat="49.08294" lon="-0.34298">
        <ele>64.6</ele>
        <time>2023-05-23T11:44:25Z</time>
      </trkpt>
      <trkpt lat="49.08289" lon="-0.34291">
        <ele>64.8</ele>
        <time>2023-05-23T11:44:26Z</time>
      </trkpt>
      <trkpt lat="49.08283" lon="-0.34284">
        <ele>65</ele>
        <time>2023-05-23T11:44:27Z</time>
      </trkpt>
      <trkpt lat="49.08277" lon="-0.34278">
        <ele>65</ele>
        <time>2023-05-23T11:44:28Z</time>
      </trkpt>
      <trkpt lat="49.0827" lon="-0.34273">
        <ele>65</ele>
        <time>2023-05-23T11:44:29Z</time>
      </trkpt>
      <trkpt lat="49.08264" lon="-0.34267">
        <ele>65</ele>
        <time>2023-05-23T11:44:30Z</time>
      </trkpt>
      <trkpt lat="49.08257" lon="-0.34261">
        <ele>65</ele>
        <time>2023-05-23T11:44:31Z</time>
      </trkpt>
      <trkpt lat="49.08251" lon="-0.34255">
        <ele>65</ele>
        <time>2023-05-23T11:44:32Z</time>
      </trkpt>
      <trkpt lat="49.08244" lon="-0.34249">
        <ele>65</ele>
        <time>2023-05-23T11:44:33Z</time>
      </trkpt>
      <trkpt lat="49.08238" lon="-0.34244">
        <ele>65</ele>
        <time>2023-05-23T11:44:34Z</time>
      </trkpt>
      <trkpt lat="49.08231" lon="-0.34238">
        <ele>65</ele>
        <time>2023-05-23T11:44:35Z</time>
      </trkpt>
      <trkpt lat="49.08225" lon="-0.34232">
        <ele>65</ele>
        <time>2023-05-23T11:44:36Z</time>
      </trkpt>
      <trkpt lat="49.08218" lon="-0.34227">
        <ele>65</ele>
        <time>2023-05-23T11:44:37Z</time>
      </trkpt>
      <trkpt lat="49.08212" lon="-0.34221">
        <ele>65</ele>
        <time>2023-05-23T11:44:38Z</time>
      </trkpt>
      <trkpt lat="49.08205" lon="-0.34215">
        <ele>65</ele>
        <time>2023-05-23T11:44:39Z</time>
      </trkpt>
      <trkpt lat="49.08199" lon="-0.3421">
        <ele>65</ele>
        <time>2023-05-23T11:44:40Z</time>
      </trkpt>
      <trkpt lat="49.08192" lon="-0.34204">
        <ele>65.2</ele>
        <time>2023-05-23T11:44:41Z</time>
      </trkpt>
      <trkpt lat="49.08186" lon="-0.34199">
        <ele>65.4</ele>
        <time>2023-05-23T11:44:42Z</time>
      </trkpt>
      <trkpt lat="49.08179" lon="-0.34193">
        <ele>65.6</ele>
        <time>2023-05-23T11:44:43Z</time>
      </trkpt>
      <trkpt lat="49.08173" lon="-0.34187">
        <ele>65.6</ele>
        <time>2023-05-23T11:44:44Z</time>
      </trkpt>
      <trkpt lat="49.08167" lon="-0.34182">
        <ele>65.8</ele>
        <time>2023-05-23T11:44:45Z</time>
      </trkpt>
      <trkpt lat="49.0816" lon="-0.34176">
        <ele>66</ele>
        <time>2023-05-23T11:44:46Z</time>
      </trkpt>
      <trkpt lat="49.08154" lon="-0.3417">
        <ele>66</ele>
        <time>2023-05-23T11:44:47Z</time>
      </trkpt>
      <trkpt lat="49.08148" lon="-0.34165">
        <ele>66.2</ele>
        <time>2023-05-23T11:44:48Z</time>
      </trkpt>
      <trkpt lat="49.08141" lon="-0.34159">
        <ele>66.4</ele>
        <time>2023-05-23T11:44:49Z</time>
      </trkpt>
      <trkpt lat="49.08135" lon="-0.34154">
        <ele>66.4</ele>
        <time>2023-05-23T11:44:50Z</time>
      </trkpt>
      <trkpt lat="49.08128" lon="-0.34148">
        <ele>66.6</ele>
        <time>2023-05-23T11:44:51Z</time>
      </trkpt>
      <trkpt lat="49.08122" lon="-0.34142">
        <ele>66.6</ele>
        <time>2023-05-23T11:44:52Z</time>
      </trkpt>
      <trkpt lat="49.08115" lon="-0.34137">
        <ele>66.6</ele>
        <time>2023-05-23T11:44:53Z</time>
      </trkpt>
      <trkpt lat="49.08109" lon="-0.34131">
        <ele>66.6</ele>
        <time>2023-05-23T11:44:54Z</time>
      </trkpt>
      <trkpt lat="49.08102" lon="-0.34125">
        <ele>66.8</ele>
        <time>2023-05-23T11:44:55Z</time>
      </trkpt>
      <trkpt lat="49.08095" lon="-0.34119">
        <ele>67</ele>
        <time>2023-05-23T11:44:56Z</time>
      </trkpt>
      <trkpt lat="49.08089" lon="-0.34113">
        <ele>67</ele>
        <time>2023-05-23T11:44:57Z</time>
      </trkpt>
      <trkpt lat="49.08082" lon="-0.34107">
        <ele>67</ele>
        <time>2023-05-23T11:44:58Z</time>
      </trkpt>
      <trkpt lat="49.08076" lon="-0.34101">
        <ele>67</ele>
        <time>2023-05-23T11:44:59Z</time>
      </trkpt>
      <trkpt lat="49.0807" lon="-0.34095">
        <ele>67</ele>
        <time>2023-05-23T11:45:00Z</time>
      </trkpt>
      <trkpt lat="49.08063" lon="-0.34089">
        <ele>67</ele>
        <time>2023-05-23T11:45:01Z</time>
      </trkpt>
      <trkpt lat="49.08057" lon="-0.34083">
        <ele>67</ele>
        <time>2023-05-23T11:45:02Z</time>
      </trkpt>
      <trkpt lat="49.08051" lon="-0.34077">
        <ele>67</ele>
        <time>2023-05-23T11:45:03Z</time>
      </trkpt>
      <trkpt lat="49.08044" lon="-0.34071">
        <ele>66.8</ele>
        <time>2023-05-23T11:45:04Z</time>
      </trkpt>
      <trkpt lat="49.08038" lon="-0.34064">
        <ele>66.6</ele>
        <time>2023-05-23T11:45:05Z</time>
      </trkpt>
      <trkpt lat="49.08031" lon="-0.34058">
        <ele>66.6</ele>
        <time>2023-05-23T11:45:06Z</time>
      </trkpt>
      <trkpt lat="49.08025" lon="-0.34052">
        <ele>66.4</ele>
        <time>2023-05-23T11:45:07Z</time>
      </trkpt>
      <trkpt lat="49.08019" lon="-0.34046">
        <ele>66.2</ele>
        <time>2023-05-23T11:45:08Z</time>
      </trkpt>
      <trkpt lat="49.08012" lon="-0.3404">
        <ele>66</ele>
        <time>2023-05-23T11:45:09Z</time>
      </trkpt>
      <trkpt lat="49.08006" lon="-0.34033">
        <ele>65.8</ele>
        <time>2023-05-23T11:45:10Z</time>
      </trkpt>
      <trkpt lat="49.07999" lon="-0.34027">
        <ele>65.6</ele>
        <time>2023-05-23T11:45:11Z</time>
      </trkpt>
      <trkpt lat="49.07992" lon="-0.34021">
        <ele>65.6</ele>
        <time>2023-05-23T11:45:12Z</time>
      </trkpt>
      <trkpt lat="49.07986" lon="-0.34015">
        <ele>65.6</ele>
        <time>2023-05-23T11:45:13Z</time>
      </trkpt>
      <trkpt lat="49.07979" lon="-0.34009">
        <ele>65.6</ele>
        <time>2023-05-23T11:45:14Z</time>
      </trkpt>
      <trkpt lat="49.07973" lon="-0.34002">
        <ele>65.6</ele>
        <time>2023-05-23T11:45:15Z</time>
      </trkpt>
      <trkpt lat="49.07966" lon="-0.33996">
        <ele>65.8</ele>
        <time>2023-05-23T11:45:16Z</time>
      </trkpt>
      <trkpt lat="49.07959" lon="-0.3399">
        <ele>66</ele>
        <time>2023-05-23T11:45:17Z</time>
      </trkpt>
      <trkpt lat="49.07952" lon="-0.33984">
        <ele>66.2</ele>
        <time>2023-05-23T11:45:18Z</time>
      </trkpt>
      <trkpt lat="49.07946" lon="-0.33978">
        <ele>66.4</ele>
        <time>2023-05-23T11:45:19Z</time>
      </trkpt>
      <trkpt lat="49.07939" lon="-0.33972">
        <ele>66.6</ele>
        <time>2023-05-23T11:45:20Z</time>
      </trkpt>
      <trkpt lat="49.07932" lon="-0.33965">
        <ele>66.6</ele>
        <time>2023-05-23T11:45:21Z</time>
      </trkpt>
      <trkpt lat="49.07926" lon="-0.33959">
        <ele>66.8</ele>
        <time>2023-05-23T11:45:22Z</time>
      </trkpt>
      <trkpt lat="49.07919" lon="-0.33953">
        <ele>67</ele>
        <time>2023-05-23T11:45:23Z</time>
      </trkpt>
      <trkpt lat="49.07912" lon="-0.33947">
        <ele>67</ele>
        <time>2023-05-23T11:45:24Z</time>
      </trkpt>
      <trkpt lat="49.07905" lon="-0.33941">
        <ele>67</ele>
        <time>2023-05-23T11:45:25Z</time>
      </trkpt>
      <trkpt lat="49.07898" lon="-0.33935">
        <ele>67.2</ele>
        <time>2023-05-23T11:45:26Z</time>
      </trkpt>
      <trkpt lat="49.07891" lon="-0.3393">
        <ele>67.4</ele>
        <time>2023-05-23T11:45:27Z</time>
      </trkpt>
      <trkpt lat="49.07884" lon="-0.33924">
        <ele>67.4</ele>
        <time>2023-05-23T11:45:28Z</time>
      </trkpt>
      <trkpt lat="49.07878" lon="-0.33918">
        <ele>67.6</ele>
        <time>2023-05-23T11:45:29Z</time>
      </trkpt>
      <trkpt lat="49.07871" lon="-0.33913">
        <ele>67.6</ele>
        <time>2023-05-23T11:45:30Z</time>
      </trkpt>
      <trkpt lat="49.07864" lon="-0.33907">
        <ele>67.6</ele>
        <time>2023-05-23T11:45:31Z</time>
      </trkpt>
      <trkpt lat="49.07857" lon="-0.33902">
        <ele>68</ele>
        <time>2023-05-23T11:45:32Z</time>
      </trkpt>
      <trkpt lat="49.0785" lon="-0.33896">
        <ele>68</ele>
        <time>2023-05-23T11:45:33Z</time>
      </trkpt>
      <trkpt lat="49.07844" lon="-0.33891">
        <ele>68.2</ele>
        <time>2023-05-23T11:45:34Z</time>
      </trkpt>
      <trkpt lat="49.07837" lon="-0.33886">
        <ele>68.4</ele>
        <time>2023-05-23T11:45:35Z</time>
      </trkpt>
      <trkpt lat="49.0783" lon="-0.3388">
        <ele>68.6</ele>
        <time>2023-05-23T11:45:36Z</time>
      </trkpt>
      <trkpt lat="49.07824" lon="-0.33875">
        <ele>68.6</ele>
        <time>2023-05-23T11:45:37Z</time>
      </trkpt>
      <trkpt lat="49.07817" lon="-0.33869">
        <ele>68.6</ele>
        <time>2023-05-23T11:45:38Z</time>
      </trkpt>
      <trkpt lat="49.07811" lon="-0.33864">
        <ele>68.6</ele>
        <time>2023-05-23T11:45:39Z</time>
      </trkpt>
      <trkpt lat="49.07804" lon="-0.33859">
        <ele>68.8</ele>
        <time>2023-05-23T11:45:40Z</time>
      </trkpt>
      <trkpt lat="49.07797" lon="-0.33854">
        <ele>69</ele>
        <time>2023-05-23T11:45:41Z</time>
      </trkpt>
      <trkpt lat="49.07791" lon="-0.33849">
        <ele>69</ele>
        <time>2023-05-23T11:45:42Z</time>
      </trkpt>
      <trkpt lat="49.07784" lon="-0.33844">
        <ele>69</ele>
        <time>2023-05-23T11:45:43Z</time>
      </trkpt>
      <trkpt lat="49.07778" lon="-0.33839">
        <ele>69</ele>
        <time>2023-05-23T11:45:44Z</time>
      </trkpt>
      <trkpt lat="49.07771" lon="-0.33834">
        <ele>69</ele>
        <time>2023-05-23T11:45:45Z</time>
      </trkpt>
      <trkpt lat="49.07765" lon="-0.33828">
        <ele>69</ele>
        <time>2023-05-23T11:45:46Z</time>
      </trkpt>
      <trkpt lat="49.07758" lon="-0.33824">
        <ele>69</ele>
        <time>2023-05-23T11:45:47Z</time>
      </trkpt>
      <trkpt lat="49.07752" lon="-0.33818">
        <ele>69.2</ele>
        <time>2023-05-23T11:45:48Z</time>
      </trkpt>
      <trkpt lat="49.07745" lon="-0.33813">
        <ele>69.4</ele>
        <time>2023-05-23T11:45:49Z</time>
      </trkpt>
      <trkpt lat="49.07739" lon="-0.33808">
        <ele>69.6</ele>
        <time>2023-05-23T11:45:50Z</time>
      </trkpt>
      <trkpt lat="49.07732" lon="-0.33803">
        <ele>69.8</ele>
        <time>2023-05-23T11:45:51Z</time>
      </trkpt>
      <trkpt lat="49.07726" lon="-0.33798">
        <ele>70</ele>
        <time>2023-05-23T11:45:52Z</time>
      </trkpt>
      <trkpt lat="49.07719" lon="-0.33793">
        <ele>70.2</ele>
        <time>2023-05-23T11:45:53Z</time>
      </trkpt>
      <trkpt lat="49.07713" lon="-0.33787">
        <ele>70.4</ele>
        <time>2023-05-23T11:45:54Z</time>
      </trkpt>
      <trkpt lat="49.07707" lon="-0.33782">
        <ele>70.6</ele>
        <time>2023-05-23T11:45:55Z</time>
      </trkpt>
      <trkpt lat="49.077" lon="-0.33776">
        <ele>71</ele>
        <time>2023-05-23T11:45:56Z</time>
      </trkpt>
      <trkpt lat="49.07694" lon="-0.33771">
        <ele>71</ele>
        <time>2023-05-23T11:45:57Z</time>
      </trkpt>
      <trkpt lat="49.07688" lon="-0.33765">
        <ele>71.4</ele>
        <time>2023-05-23T11:45:58Z</time>
      </trkpt>
      <trkpt lat="49.07682" lon="-0.33759">
        <ele>71.6</ele>
        <time>2023-05-23T11:45:59Z</time>
      </trkpt>
      <trkpt lat="49.07675" lon="-0.33753">
        <ele>71.8</ele>
        <time>2023-05-23T11:46:00Z</time>
      </trkpt>
      <trkpt lat="49.07669" lon="-0.33747">
        <ele>72</ele>
        <time>2023-05-23T11:46:01Z</time>
      </trkpt>
      <trkpt lat="49.07663" lon="-0.33741">
        <ele>72</ele>
        <time>2023-05-23T11:46:02Z</time>
      </trkpt>
      <trkpt lat="49.07657" lon="-0.33735">
        <ele>72</ele>
        <time>2023-05-23T11:46:03Z</time>
      </trkpt>
      <trkpt lat="49.0765" lon="-0.33728">
        <ele>72</ele>
        <time>2023-05-23T11:46:04Z</time>
      </trkpt>
      <trkpt lat="49.07644" lon="-0.33722">
        <ele>72.2</ele>
        <time>2023-05-23T11:46:05Z</time>
      </trkpt>
      <trkpt lat="49.07638" lon="-0.33716">
        <ele>72.4</ele>
        <time>2023-05-23T11:46:06Z</time>
      </trkpt>
      <trkpt lat="49.07632" lon="-0.33709">
        <ele>72.4</ele>
        <time>2023-05-23T11:46:07Z</time>
      </trkpt>
      <trkpt lat="49.07625" lon="-0.33703">
        <ele>72.6</ele>
        <time>2023-05-23T11:46:08Z</time>
      </trkpt>
      <trkpt lat="49.07619" lon="-0.33697">
        <ele>72.6</ele>
        <time>2023-05-23T11:46:09Z</time>
      </trkpt>
      <trkpt lat="49.07613" lon="-0.33691">
        <ele>73</ele>
        <time>2023-05-23T11:46:10Z</time>
      </trkpt>
      <trkpt lat="49.07606" lon="-0.33685">
        <ele>73</ele>
        <time>2023-05-23T11:46:11Z</time>
      </trkpt>
      <trkpt lat="49.076" lon="-0.33679">
        <ele>73.4</ele>
        <time>2023-05-23T11:46:12Z</time>
      </trkpt>
      <trkpt lat="49.07593" lon="-0.33673">
        <ele>73.6</ele>
        <time>2023-05-23T11:46:13Z</time>
      </trkpt>
      <trkpt lat="49.07587" lon="-0.33667">
        <ele>74</ele>
        <time>2023-05-23T11:46:14Z</time>
      </trkpt>
      <trkpt lat="49.0758" lon="-0.33662">
        <ele>74</ele>
        <time>2023-05-23T11:46:15Z</time>
      </trkpt>
      <trkpt lat="49.07574" lon="-0.33656">
        <ele>74</ele>
        <time>2023-05-23T11:46:16Z</time>
      </trkpt>
      <trkpt lat="49.07567" lon="-0.33651">
        <ele>74</ele>
        <time>2023-05-23T11:46:17Z</time>
      </trkpt>
      <trkpt lat="49.0756" lon="-0.33646">
        <ele>74</ele>
        <time>2023-05-23T11:46:18Z</time>
      </trkpt>
      <trkpt lat="49.07553" lon="-0.33641">
        <ele>74</ele>
        <time>2023-05-23T11:46:19Z</time>
      </trkpt>
      <trkpt lat="49.07547" lon="-0.33636">
        <ele>74</ele>
        <time>2023-05-23T11:46:20Z</time>
      </trkpt>
      <trkpt lat="49.0754" lon="-0.33632">
        <ele>74</ele>
        <time>2023-05-23T11:46:21Z</time>
      </trkpt>
      <trkpt lat="49.07533" lon="-0.33627">
        <ele>74</ele>
        <time>2023-05-23T11:46:22Z</time>
      </trkpt>
      <trkpt lat="49.07526" lon="-0.33623">
        <ele>74</ele>
        <time>2023-05-23T11:46:23Z</time>
      </trkpt>
      <trkpt lat="49.0752" lon="-0.33618">
        <ele>74</ele>
        <time>2023-05-23T11:46:24Z</time>
      </trkpt>
      <trkpt lat="49.07513" lon="-0.33614">
        <ele>74</ele>
        <time>2023-05-23T11:46:25Z</time>
      </trkpt>
      <trkpt lat="49.07506" lon="-0.3361">
        <ele>74</ele>
        <time>2023-05-23T11:46:26Z</time>
      </trkpt>
      <trkpt lat="49.07499" lon="-0.33606">
        <ele>74</ele>
        <time>2023-05-23T11:46:27Z</time>
      </trkpt>
      <trkpt lat="49.07493" lon="-0.33602">
        <ele>74</ele>
        <time>2023-05-23T11:46:28Z</time>
      </trkpt>
      <trkpt lat="49.07486" lon="-0.33599">
        <ele>74</ele>
        <time>2023-05-23T11:46:29Z</time>
      </trkpt>
      <trkpt lat="49.07479" lon="-0.33595">
        <ele>74</ele>
        <time>2023-05-23T11:46:30Z</time>
      </trkpt>
      <trkpt lat="49.07472" lon="-0.33591">
        <ele>74</ele>
        <time>2023-05-23T11:46:31Z</time>
      </trkpt>
      <trkpt lat="49.07466" lon="-0.33588">
        <ele>74</ele>
        <time>2023-05-23T11:46:32Z</time>
      </trkpt>
      <trkpt lat="49.07459" lon="-0.33585">
        <ele>74</ele>
        <time>2023-05-23T11:46:33Z</time>
      </trkpt>
      <trkpt lat="49.07452" lon="-0.33582">
        <ele>74</ele>
        <time>2023-05-23T11:46:34Z</time>
      </trkpt>
      <trkpt lat="49.07445" lon="-0.33579">
        <ele>74</ele>
        <time>2023-05-23T11:46:35Z</time>
      </trkpt>
      <trkpt lat="49.07438" lon="-0.33576">
        <ele>74</ele>
        <time>2023-05-23T11:46:36Z</time>
      </trkpt>
      <trkpt lat="49.0743" lon="-0.33573">
        <ele>74</ele>
        <time>2023-05-23T11:46:37Z</time>
      </trkpt>
      <trkpt lat="49.07423" lon="-0.3357">
        <ele>74</ele>
        <time>2023-05-23T11:46:38Z</time>
      </trkpt>
      <trkpt lat="49.07416" lon="-0.33568">
        <ele>74</ele>
        <time>2023-05-23T11:46:39Z</time>
      </trkpt>
      <trkpt lat="49.07409" lon="-0.33565">
        <ele>74</ele>
        <time>2023-05-23T11:46:40Z</time>
      </trkpt>
      <trkpt lat="49.07401" lon="-0.33563">
        <ele>74</ele>
        <time>2023-05-23T11:46:41Z</time>
      </trkpt>
      <trkpt lat="49.07394" lon="-0.3356">
        <ele>74</ele>
        <time>2023-05-23T11:46:42Z</time>
      </trkpt>
      <trkpt lat="49.07386" lon="-0.33558">
        <ele>74</ele>
        <time>2023-05-23T11:46:43Z</time>
      </trkpt>
      <trkpt lat="49.07379" lon="-0.33555">
        <ele>74</ele>
        <time>2023-05-23T11:46:44Z</time>
      </trkpt>
      <trkpt lat="49.07372" lon="-0.33552">
        <ele>74</ele>
        <time>2023-05-23T11:46:45Z</time>
      </trkpt>
      <trkpt lat="49.07364" lon="-0.3355">
        <ele>74</ele>
        <time>2023-05-23T11:46:46Z</time>
      </trkpt>
      <trkpt lat="49.07357" lon="-0.33547">
        <ele>74</ele>
        <time>2023-05-23T11:46:47Z</time>
      </trkpt>
      <trkpt lat="49.07349" lon="-0.33544">
        <ele>74</ele>
        <time>2023-05-23T11:46:48Z</time>
      </trkpt>
      <trkpt lat="49.07342" lon="-0.33541">
        <ele>74</ele>
        <time>2023-05-23T11:46:49Z</time>
      </trkpt>
      <trkpt lat="49.07335" lon="-0.33538">
        <ele>74</ele>
        <time>2023-05-23T11:46:50Z</time>
      </trkpt>
      <trkpt lat="49.07327" lon="-0.33534">
        <ele>74</ele>
        <time>2023-05-23T11:46:51Z</time>
      </trkpt>
      <trkpt lat="49.0732" lon="-0.3353">
        <ele>74.2</ele>
        <time>2023-05-23T11:46:52Z</time>
      </trkpt>
      <trkpt lat="49.07312" lon="-0.33526">
        <ele>74.4</ele>
        <time>2023-05-23T11:46:53Z</time>
      </trkpt>
      <trkpt lat="49.07305" lon="-0.33522">
        <ele>74.4</ele>
        <time>2023-05-23T11:46:54Z</time>
      </trkpt>
      <trkpt lat="49.07298" lon="-0.33518">
        <ele>74.4</ele>
        <time>2023-05-23T11:46:55Z</time>
      </trkpt>
      <trkpt lat="49.07291" lon="-0.33514">
        <ele>74.6</ele>
        <time>2023-05-23T11:46:56Z</time>
      </trkpt>
      <trkpt lat="49.07284" lon="-0.3351">
        <ele>74.6</ele>
        <time>2023-05-23T11:46:57Z</time>
      </trkpt>
      <trkpt lat="49.07276" lon="-0.33506">
        <ele>74.6</ele>
        <time>2023-05-23T11:46:58Z</time>
      </trkpt>
      <trkpt lat="49.07269" lon="-0.33502">
        <ele>74.8</ele>
        <time>2023-05-23T11:46:59Z</time>
      </trkpt>
      <trkpt lat="49.07262" lon="-0.33498">
        <ele>75</ele>
        <time>2023-05-23T11:47:00Z</time>
      </trkpt>
      <trkpt lat="49.07255" lon="-0.33494">
        <ele>75</ele>
        <time>2023-05-23T11:47:01Z</time>
      </trkpt>
      <trkpt lat="49.07248" lon="-0.3349">
        <ele>75</ele>
        <time>2023-05-23T11:47:02Z</time>
      </trkpt>
      <trkpt lat="49.0724" lon="-0.33486">
        <ele>75</ele>
        <time>2023-05-23T11:47:03Z</time>
      </trkpt>
      <trkpt lat="49.07233" lon="-0.33482">
        <ele>74.8</ele>
        <time>2023-05-23T11:47:04Z</time>
      </trkpt>
      <trkpt lat="49.07226" lon="-0.33478">
        <ele>74.6</ele>
        <time>2023-05-23T11:47:05Z</time>
      </trkpt>
      <trkpt lat="49.07218" lon="-0.33474">
        <ele>74.6</ele>
        <time>2023-05-23T11:47:06Z</time>
      </trkpt>
      <trkpt lat="49.07211" lon="-0.3347">
        <ele>74.6</ele>
        <time>2023-05-23T11:47:07Z</time>
      </trkpt>
      <trkpt lat="49.07203" lon="-0.33466">
        <ele>74.4</ele>
        <time>2023-05-23T11:47:08Z</time>
      </trkpt>
      <trkpt lat="49.07196" lon="-0.33461">
        <ele>74.4</ele>
        <time>2023-05-23T11:47:09Z</time>
      </trkpt>
      <trkpt lat="49.07188" lon="-0.33457">
        <ele>74.4</ele>
        <time>2023-05-23T11:47:10Z</time>
      </trkpt>
      <trkpt lat="49.07181" lon="-0.33453">
        <ele>74.2</ele>
        <time>2023-05-23T11:47:11Z</time>
      </trkpt>
      <trkpt lat="49.07173" lon="-0.33449">
        <ele>74</ele>
        <time>2023-05-23T11:47:12Z</time>
      </trkpt>
      <trkpt lat="49.07165" lon="-0.33444">
        <ele>74</ele>
        <time>2023-05-23T11:47:13Z</time>
      </trkpt>
      <trkpt lat="49.07158" lon="-0.3344">
        <ele>74</ele>
        <time>2023-05-23T11:47:14Z</time>
      </trkpt>
      <trkpt lat="49.0715" lon="-0.33436">
        <ele>74.2</ele>
        <time>2023-05-23T11:47:15Z</time>
      </trkpt>
      <trkpt lat="49.07143" lon="-0.33431">
        <ele>74.4</ele>
        <time>2023-05-23T11:47:16Z</time>
      </trkpt>
      <trkpt lat="49.07135" lon="-0.33427">
        <ele>74.4</ele>
        <time>2023-05-23T11:47:17Z</time>
      </trkpt>
      <trkpt lat="49.07127" lon="-0.33423">
        <ele>74.6</ele>
        <time>2023-05-23T11:47:18Z</time>
      </trkpt>
      <trkpt lat="49.07119" lon="-0.33418">
        <ele>74.6</ele>
        <time>2023-05-23T11:47:19Z</time>
      </trkpt>
      <trkpt lat="49.07112" lon="-0.33414">
        <ele>74.6</ele>
        <time>2023-05-23T11:47:20Z</time>
      </trkpt>
      <trkpt lat="49.07104" lon="-0.3341">
        <ele>74.6</ele>
        <time>2023-05-23T11:47:21Z</time>
      </trkpt>
      <trkpt lat="49.07096" lon="-0.33406">
        <ele>74.6</ele>
        <time>2023-05-23T11:47:22Z</time>
      </trkpt>
      <trkpt lat="49.07089" lon="-0.33401">
        <ele>74.6</ele>
        <time>2023-05-23T11:47:23Z</time>
      </trkpt>
      <trkpt lat="49.07081" lon="-0.33397">
        <ele>74.6</ele>
        <time>2023-05-23T11:47:24Z</time>
      </trkpt>
      <trkpt lat="49.07073" lon="-0.33393">
        <ele>74.2</ele>
        <time>2023-05-23T11:47:25Z</time>
      </trkpt>
      <trkpt lat="49.07066" lon="-0.33388">
        <ele>74</ele>
        <time>2023-05-23T11:47:26Z</time>
      </trkpt>
      <trkpt lat="49.07058" lon="-0.33384">
        <ele>73.6</ele>
        <time>2023-05-23T11:47:27Z</time>
      </trkpt>
      <trkpt lat="49.0705" lon="-0.33379">
        <ele>73.6</ele>
        <time>2023-05-23T11:47:28Z</time>
      </trkpt>
      <trkpt lat="49.07042" lon="-0.33375">
        <ele>73.4</ele>
        <time>2023-05-23T11:47:29Z</time>
      </trkpt>
      <trkpt lat="49.07034" lon="-0.3337">
        <ele>73</ele>
        <time>2023-05-23T11:47:30Z</time>
      </trkpt>
      <trkpt lat="49.07026" lon="-0.33366">
        <ele>72.8</ele>
        <time>2023-05-23T11:47:31Z</time>
      </trkpt>
      <trkpt lat="49.07018" lon="-0.33361">
        <ele>72.6</ele>
        <time>2023-05-23T11:47:32Z</time>
      </trkpt>
      <trkpt lat="49.0701" lon="-0.33356">
        <ele>72.4</ele>
        <time>2023-05-23T11:47:33Z</time>
      </trkpt>
      <trkpt lat="49.07002" lon="-0.33351">
        <ele>72.2</ele>
        <time>2023-05-23T11:47:34Z</time>
      </trkpt>
      <trkpt lat="49.06993" lon="-0.33346">
        <ele>72</ele>
        <time>2023-05-23T11:47:35Z</time>
      </trkpt>
      <trkpt lat="49.06985" lon="-0.33342">
        <ele>72</ele>
        <time>2023-05-23T11:47:36Z</time>
      </trkpt>
      <trkpt lat="49.06977" lon="-0.33337">
        <ele>71.8</ele>
        <time>2023-05-23T11:47:37Z</time>
      </trkpt>
      <trkpt lat="49.06968" lon="-0.33332">
        <ele>71.6</ele>
        <time>2023-05-23T11:47:38Z</time>
      </trkpt>
      <trkpt lat="49.0696" lon="-0.33327">
        <ele>71.6</ele>
        <time>2023-05-23T11:47:39Z</time>
      </trkpt>
      <trkpt lat="49.06951" lon="-0.33322">
        <ele>71.4</ele>
        <time>2023-05-23T11:47:40Z</time>
      </trkpt>
      <trkpt lat="49.06943" lon="-0.33317">
        <ele>71.4</ele>
        <time>2023-05-23T11:47:41Z</time>
      </trkpt>
      <trkpt lat="49.06934" lon="-0.33312">
        <ele>71.4</ele>
        <time>2023-05-23T11:47:42Z</time>
      </trkpt>
      <trkpt lat="49.06926" lon="-0.33307">
        <ele>71.4</ele>
        <time>2023-05-23T11:47:43Z</time>
      </trkpt>
      <trkpt lat="49.06917" lon="-0.33302">
        <ele>71.4</ele>
        <time>2023-05-23T11:47:44Z</time>
      </trkpt>
      <trkpt lat="49.06909" lon="-0.33298">
        <ele>71.6</ele>
        <time>2023-05-23T11:47:45Z</time>
      </trkpt>
      <trkpt lat="49.06901" lon="-0.33294">
        <ele>71.6</ele>
        <time>2023-05-23T11:47:46Z</time>
      </trkpt>
      <trkpt lat="49.06892" lon="-0.33291">
        <ele>72</ele>
        <time>2023-05-23T11:47:47Z</time>
      </trkpt>
      <trkpt lat="49.06884" lon="-0.33288">
        <ele>72.2</ele>
        <time>2023-05-23T11:47:48Z</time>
      </trkpt>
      <trkpt lat="49.06876" lon="-0.33286">
        <ele>72.4</ele>
        <time>2023-05-23T11:47:49Z</time>
      </trkpt>
      <trkpt lat="49.06868" lon="-0.33284">
        <ele>72.6</ele>
        <time>2023-05-23T11:47:50Z</time>
      </trkpt>
      <trkpt lat="49.06861" lon="-0.33283">
        <ele>72.8</ele>
        <time>2023-05-23T11:47:51Z</time>
      </trkpt>
      <trkpt lat="49.06853" lon="-0.33282">
        <ele>73</ele>
        <time>2023-05-23T11:47:52Z</time>
      </trkpt>
      <trkpt lat="49.06846" lon="-0.33281">
        <ele>73.2</ele>
        <time>2023-05-23T11:47:53Z</time>
      </trkpt>
      <trkpt lat="49.06838" lon="-0.33281">
        <ele>73.4</ele>
        <time>2023-05-23T11:47:54Z</time>
      </trkpt>
      <trkpt lat="49.06831" lon="-0.33281">
        <ele>73.6</ele>
        <time>2023-05-23T11:47:55Z</time>
      </trkpt>
      <trkpt lat="49.06824" lon="-0.3328">
        <ele>73.6</ele>
        <time>2023-05-23T11:47:56Z</time>
      </trkpt>
      <trkpt lat="49.06817" lon="-0.3328">
        <ele>74</ele>
        <time>2023-05-23T11:47:57Z</time>
      </trkpt>
      <trkpt lat="49.0681" lon="-0.3328">
        <ele>74</ele>
        <time>2023-05-23T11:47:58Z</time>
      </trkpt>
      <trkpt lat="49.06804" lon="-0.3328">
        <ele>74.2</ele>
        <time>2023-05-23T11:47:59Z</time>
      </trkpt>
      <trkpt lat="49.06797" lon="-0.3328">
        <ele>74.4</ele>
        <time>2023-05-23T11:48:00Z</time>
      </trkpt>
      <trkpt lat="49.06791" lon="-0.33279">
        <ele>74.6</ele>
        <time>2023-05-23T11:48:01Z</time>
      </trkpt>
      <trkpt lat="49.06785" lon="-0.33279">
        <ele>74.6</ele>
        <time>2023-05-23T11:48:02Z</time>
      </trkpt>
      <trkpt lat="49.06778" lon="-0.33279">
        <ele>74.6</ele>
        <time>2023-05-23T11:48:03Z</time>
      </trkpt>
      <trkpt lat="49.06773" lon="-0.33278">
        <ele>75</ele>
        <time>2023-05-23T11:48:04Z</time>
      </trkpt>
      <trkpt lat="49.06767" lon="-0.33278">
        <ele>75</ele>
        <time>2023-05-23T11:48:05Z</time>
      </trkpt>
      <trkpt lat="49.06761" lon="-0.33278">
        <ele>75</ele>
        <time>2023-05-23T11:48:06Z</time>
      </trkpt>
      <trkpt lat="49.06755" lon="-0.33277">
        <ele>75.2</ele>
        <time>2023-05-23T11:48:07Z</time>
      </trkpt>
      <trkpt lat="49.0675" lon="-0.33277">
        <ele>75.4</ele>
        <time>2023-05-23T11:48:08Z</time>
      </trkpt>
      <trkpt lat="49.06744" lon="-0.33277">
        <ele>75.4</ele>
        <time>2023-05-23T11:48:09Z</time>
      </trkpt>
      <trkpt lat="49.06738" lon="-0.33277">
        <ele>75.4</ele>
        <time>2023-05-23T11:48:10Z</time>
      </trkpt>
      <trkpt lat="49.06733" lon="-0.33277">
        <ele>75.4</ele>
        <time>2023-05-23T11:48:11Z</time>
      </trkpt>
      <trkpt lat="49.06727" lon="-0.33276">
        <ele>75.4</ele>
        <time>2023-05-23T11:48:12Z</time>
      </trkpt>
      <trkpt lat="49.06721" lon="-0.33276">
        <ele>75.4</ele>
        <time>2023-05-23T11:48:13Z</time>
      </trkpt>
      <trkpt lat="49.06715" lon="-0.33276">
        <ele>75.4</ele>
        <time>2023-05-23T11:48:14Z</time>
      </trkpt>
      <trkpt lat="49.06708" lon="-0.33275">
        <ele>75.2</ele>
        <time>2023-05-23T11:48:15Z</time>
      </trkpt>
      <trkpt lat="49.06702" lon="-0.33275">
        <ele>75.2</ele>
        <time>2023-05-23T11:48:16Z</time>
      </trkpt>
      <trkpt lat="49.06695" lon="-0.33274">
        <ele>75.2</ele>
        <time>2023-05-23T11:48:17Z</time>
      </trkpt>
      <trkpt lat="49.06689" lon="-0.33274">
        <ele>75.2</ele>
        <time>2023-05-23T11:48:18Z</time>
      </trkpt>
      <trkpt lat="49.06682" lon="-0.33274">
        <ele>75.2</ele>
        <time>2023-05-23T11:48:19Z</time>
      </trkpt>
      <trkpt lat="49.06675" lon="-0.33273">
        <ele>75.2</ele>
        <time>2023-05-23T11:48:20Z</time>
      </trkpt>
      <trkpt lat="49.06668" lon="-0.33273">
        <ele>75.2</ele>
        <time>2023-05-23T11:48:21Z</time>
      </trkpt>
      <trkpt lat="49.06661" lon="-0.33273">
        <ele>75.4</ele>
        <time>2023-05-23T11:48:22Z</time>
      </trkpt>
      <trkpt lat="49.06654" lon="-0.33272">
        <ele>75.4</ele>
        <time>2023-05-23T11:48:23Z</time>
      </trkpt>
      <trkpt lat="49.06647" lon="-0.33272">
        <ele>75.6</ele>
        <time>2023-05-23T11:48:24Z</time>
      </trkpt>
      <trkpt lat="49.0664" lon="-0.33272">
        <ele>75.6</ele>
        <time>2023-05-23T11:48:25Z</time>
      </trkpt>
      <trkpt lat="49.06633" lon="-0.33271">
        <ele>75.6</ele>
        <time>2023-05-23T11:48:26Z</time>
      </trkpt>
      <trkpt lat="49.06626" lon="-0.33271">
        <ele>76</ele>
        <time>2023-05-23T11:48:27Z</time>
      </trkpt>
      <trkpt lat="49.06619" lon="-0.3327">
        <ele>76</ele>
        <time>2023-05-23T11:48:28Z</time>
      </trkpt>
      <trkpt lat="49.06613" lon="-0.3327">
        <ele>76</ele>
        <time>2023-05-23T11:48:29Z</time>
      </trkpt>
      <trkpt lat="49.06606" lon="-0.3327">
        <ele>76.2</ele>
        <time>2023-05-23T11:48:30Z</time>
      </trkpt>
      <trkpt lat="49.066" lon="-0.3327">
        <ele>76.4</ele>
        <time>2023-05-23T11:48:31Z</time>
      </trkpt>
      <trkpt lat="49.06593" lon="-0.33269">
        <ele>76.4</ele>
        <time>2023-05-23T11:48:32Z</time>
      </trkpt>
      <trkpt lat="49.06587" lon="-0.33269">
        <ele>76.6</ele>
        <time>2023-05-23T11:48:33Z</time>
      </trkpt>
      <trkpt lat="49.0658" lon="-0.33269">
        <ele>76.6</ele>
        <time>2023-05-23T11:48:34Z</time>
      </trkpt>
      <trkpt lat="49.06574" lon="-0.33268">
        <ele>76.6</ele>
        <time>2023-05-23T11:48:35Z</time>
      </trkpt>
      <trkpt lat="49.06568" lon="-0.33268">
        <ele>76.8</ele>
        <time>2023-05-23T11:48:36Z</time>
      </trkpt>
      <trkpt lat="49.06562" lon="-0.33267">
        <ele>77</ele>
        <time>2023-05-23T11:48:37Z</time>
      </trkpt>
      <trkpt lat="49.06556" lon="-0.33266">
        <ele>77</ele>
        <time>2023-05-23T11:48:38Z</time>
      </trkpt>
      <trkpt lat="49.0655" lon="-0.33265">
        <ele>77</ele>
        <time>2023-05-23T11:48:39Z</time>
      </trkpt>
      <trkpt lat="49.06544" lon="-0.33263">
        <ele>77.2</ele>
        <time>2023-05-23T11:48:40Z</time>
      </trkpt>
      <trkpt lat="49.06539" lon="-0.33262">
        <ele>77.4</ele>
        <time>2023-05-23T11:48:41Z</time>
      </trkpt>
      <trkpt lat="49.06534" lon="-0.33259">
        <ele>77.4</ele>
        <time>2023-05-23T11:48:42Z</time>
      </trkpt>
      <trkpt lat="49.06528" lon="-0.33257">
        <ele>77.6</ele>
        <time>2023-05-23T11:48:43Z</time>
      </trkpt>
      <trkpt lat="49.06523" lon="-0.33253">
        <ele>77.6</ele>
        <time>2023-05-23T11:48:44Z</time>
      </trkpt>
      <trkpt lat="49.06518" lon="-0.3325">
        <ele>77.8</ele>
        <time>2023-05-23T11:48:45Z</time>
      </trkpt>
      <trkpt lat="49.06514" lon="-0.33246">
        <ele>78</ele>
        <time>2023-05-23T11:48:46Z</time>
      </trkpt>
      <trkpt lat="49.06509" lon="-0.33242">
        <ele>78</ele>
        <time>2023-05-23T11:48:47Z</time>
      </trkpt>
      <trkpt lat="49.06505" lon="-0.33237">
        <ele>78.2</ele>
        <time>2023-05-23T11:48:48Z</time>
      </trkpt>
      <trkpt lat="49.06501" lon="-0.33232">
        <ele>78.4</ele>
        <time>2023-05-23T11:48:49Z</time>
      </trkpt>
      <trkpt lat="49.06498" lon="-0.33227">
        <ele>78.6</ele>
        <time>2023-05-23T11:48:50Z</time>
      </trkpt>
      <trkpt lat="49.06494" lon="-0.33222">
        <ele>78.8</ele>
        <time>2023-05-23T11:48:51Z</time>
      </trkpt>
      <trkpt lat="49.0649" lon="-0.33217">
        <ele>79</ele>
        <time>2023-05-23T11:48:52Z</time>
      </trkpt>
      <trkpt lat="49.06486" lon="-0.33211">
        <ele>79.2</ele>
        <time>2023-05-23T11:48:53Z</time>
      </trkpt>
      <trkpt lat="49.06483" lon="-0.33206">
        <ele>79.4</ele>
        <time>2023-05-23T11:48:54Z</time>
      </trkpt>
      <trkpt lat="49.06479" lon="-0.33201">
        <ele>79.6</ele>
        <time>2023-05-23T11:48:55Z</time>
      </trkpt>
      <trkpt lat="49.06475" lon="-0.33195">
        <ele>79.6</ele>
        <time>2023-05-23T11:48:56Z</time>
      </trkpt>
      <trkpt lat="49.06472" lon="-0.3319">
        <ele>80</ele>
        <time>2023-05-23T11:48:57Z</time>
      </trkpt>
      <trkpt lat="49.06468" lon="-0.33185">
        <ele>80</ele>
        <time>2023-05-23T11:48:58Z</time>
      </trkpt>
      <trkpt lat="49.06464" lon="-0.33179">
        <ele>80.2</ele>
        <time>2023-05-23T11:48:59Z</time>
      </trkpt>
      <trkpt lat="49.0646" lon="-0.33174">
        <ele>80.4</ele>
        <time>2023-05-23T11:49:00Z</time>
      </trkpt>
      <trkpt lat="49.06456" lon="-0.33168">
        <ele>80.6</ele>
        <time>2023-05-23T11:49:01Z</time>
      </trkpt>
      <trkpt lat="49.06453" lon="-0.33162">
        <ele>80.6</ele>
        <time>2023-05-23T11:49:02Z</time>
      </trkpt>
      <trkpt lat="49.06449" lon="-0.33157">
        <ele>80.6</ele>
        <time>2023-05-23T11:49:03Z</time>
      </trkpt>
      <trkpt lat="49.06445" lon="-0.33152">
        <ele>80.8</ele>
        <time>2023-05-23T11:49:04Z</time>
      </trkpt>
      <trkpt lat="49.0644" lon="-0.33147">
        <ele>81</ele>
        <time>2023-05-23T11:49:05Z</time>
      </trkpt>
      <trkpt lat="49.06436" lon="-0.33143">
        <ele>81</ele>
        <time>2023-05-23T11:49:06Z</time>
      </trkpt>
      <trkpt lat="49.06431" lon="-0.33139">
        <ele>81.2</ele>
        <time>2023-05-23T11:49:07Z</time>
      </trkpt>
      <trkpt lat="49.06427" lon="-0.33135">
        <ele>81.4</ele>
        <time>2023-05-23T11:49:08Z</time>
      </trkpt>
      <trkpt lat="49.06422" lon="-0.33132">
        <ele>81.4</ele>
        <time>2023-05-23T11:49:09Z</time>
      </trkpt>
      <trkpt lat="49.06417" lon="-0.33129">
        <ele>81.4</ele>
        <time>2023-05-23T11:49:10Z</time>
      </trkpt>
      <trkpt lat="49.06412" lon="-0.33126">
        <ele>81.6</ele>
        <time>2023-05-23T11:49:11Z</time>
      </trkpt>
      <trkpt lat="49.06407" lon="-0.33123">
        <ele>81.6</ele>
        <time>2023-05-23T11:49:12Z</time>
      </trkpt>
      <trkpt lat="49.06402" lon="-0.3312">
        <ele>81.6</ele>
        <time>2023-05-23T11:49:13Z</time>
      </trkpt>
      <trkpt lat="49.06397" lon="-0.33118">
        <ele>81.8</ele>
        <time>2023-05-23T11:49:14Z</time>
      </trkpt>
      <trkpt lat="49.06392" lon="-0.33115">
        <ele>82</ele>
        <time>2023-05-23T11:49:15Z</time>
      </trkpt>
      <trkpt lat="49.06386" lon="-0.33113">
        <ele>82</ele>
        <time>2023-05-23T11:49:16Z</time>
      </trkpt>
      <trkpt lat="49.06381" lon="-0.3311">
        <ele>82</ele>
        <time>2023-05-23T11:49:17Z</time>
      </trkpt>
      <trkpt lat="49.06376" lon="-0.33108">
        <ele>82.2</ele>
        <time>2023-05-23T11:49:18Z</time>
      </trkpt>
      <trkpt lat="49.0637" lon="-0.33105">
        <ele>82.4</ele>
        <time>2023-05-23T11:49:19Z</time>
      </trkpt>
      <trkpt lat="49.06365" lon="-0.33103">
        <ele>82.4</ele>
        <time>2023-05-23T11:49:20Z</time>
      </trkpt>
      <trkpt lat="49.06359" lon="-0.331">
        <ele>82.6</ele>
        <time>2023-05-23T11:49:21Z</time>
      </trkpt>
      <trkpt lat="49.06354" lon="-0.33098">
        <ele>82.6</ele>
        <time>2023-05-23T11:49:22Z</time>
      </trkpt>
      <trkpt lat="49.06348" lon="-0.33095">
        <ele>82.6</ele>
        <time>2023-05-23T11:49:23Z</time>
      </trkpt>
      <trkpt lat="49.06343" lon="-0.33093">
        <ele>82.8</ele>
        <time>2023-05-23T11:49:24Z</time>
      </trkpt>
      <trkpt lat="49.06337" lon="-0.3309">
        <ele>83</ele>
        <time>2023-05-23T11:49:25Z</time>
      </trkpt>
      <trkpt lat="49.06331" lon="-0.33087">
        <ele>83</ele>
        <time>2023-05-23T11:49:26Z</time>
      </trkpt>
      <trkpt lat="49.06326" lon="-0.33085">
        <ele>83</ele>
        <time>2023-05-23T11:49:27Z</time>
      </trkpt>
      <trkpt lat="49.0632" lon="-0.33082">
        <ele>82.8</ele>
        <time>2023-05-23T11:49:28Z</time>
      </trkpt>
      <trkpt lat="49.06314" lon="-0.33079">
        <ele>82.8</ele>
        <time>2023-05-23T11:49:29Z</time>
      </trkpt>
      <trkpt lat="49.06308" lon="-0.33077">
        <ele>82.6</ele>
        <time>2023-05-23T11:49:30Z</time>
      </trkpt>
      <trkpt lat="49.06302" lon="-0.33074">
        <ele>82.6</ele>
        <time>2023-05-23T11:49:31Z</time>
      </trkpt>
      <trkpt lat="49.06297" lon="-0.33071">
        <ele>82.6</ele>
        <time>2023-05-23T11:49:32Z</time>
      </trkpt>
      <trkpt lat="49.06291" lon="-0.33069">
        <ele>82.6</ele>
        <time>2023-05-23T11:49:33Z</time>
      </trkpt>
      <trkpt lat="49.06285" lon="-0.33066">
        <ele>82.6</ele>
        <time>2023-05-23T11:49:34Z</time>
      </trkpt>
      <trkpt lat="49.06279" lon="-0.33062">
        <ele>82.6</ele>
        <time>2023-05-23T11:49:35Z</time>
      </trkpt>
      <trkpt lat="49.06274" lon="-0.33059">
        <ele>82.6</ele>
        <time>2023-05-23T11:49:36Z</time>
      </trkpt>
      <trkpt lat="49.06269" lon="-0.33055">
        <ele>82.8</ele>
        <time>2023-05-23T11:49:37Z</time>
      </trkpt>
      <trkpt lat="49.06264" lon="-0.3305">
        <ele>82.8</ele>
        <time>2023-05-23T11:49:38Z</time>
      </trkpt>
      <trkpt lat="49.06259" lon="-0.33046">
        <ele>83</ele>
        <time>2023-05-23T11:49:39Z</time>
      </trkpt>
      <trkpt lat="49.06254" lon="-0.33041">
        <ele>83</ele>
        <time>2023-05-23T11:49:40Z</time>
      </trkpt>
      <trkpt lat="49.06249" lon="-0.33036">
        <ele>83.2</ele>
        <time>2023-05-23T11:49:41Z</time>
      </trkpt>
      <trkpt lat="49.06244" lon="-0.3303">
        <ele>83.4</ele>
        <time>2023-05-23T11:49:42Z</time>
      </trkpt>
      <trkpt lat="49.0624" lon="-0.33025">
        <ele>83.6</ele>
        <time>2023-05-23T11:49:43Z</time>
      </trkpt>
      <trkpt lat="49.06235" lon="-0.3302">
        <ele>83.6</ele>
        <time>2023-05-23T11:49:44Z</time>
      </trkpt>
      <trkpt lat="49.06231" lon="-0.33015">
        <ele>83.6</ele>
        <time>2023-05-23T11:49:45Z</time>
      </trkpt>
      <trkpt lat="49.06226" lon="-0.33009">
        <ele>83.8</ele>
        <time>2023-05-23T11:49:46Z</time>
      </trkpt>
      <trkpt lat="49.06222" lon="-0.33004">
        <ele>84</ele>
        <time>2023-05-23T11:49:47Z</time>
      </trkpt>
      <trkpt lat="49.06217" lon="-0.32999">
        <ele>84</ele>
        <time>2023-05-23T11:49:48Z</time>
      </trkpt>
      <trkpt lat="49.06213" lon="-0.32994">
        <ele>84</ele>
        <time>2023-05-23T11:49:49Z</time>
      </trkpt>
      <trkpt lat="49.06208" lon="-0.32989">
        <ele>84</ele>
        <time>2023-05-23T11:49:50Z</time>
      </trkpt>
      <trkpt lat="49.06204" lon="-0.32984">
        <ele>84</ele>
        <time>2023-05-23T11:49:51Z</time>
      </trkpt>
      <trkpt lat="49.06199" lon="-0.3298">
        <ele>84</ele>
        <time>2023-05-23T11:49:52Z</time>
      </trkpt>
      <trkpt lat="49.06194" lon="-0.32975">
        <ele>84</ele>
        <time>2023-05-23T11:49:53Z</time>
      </trkpt>
      <trkpt lat="49.0619" lon="-0.3297">
        <ele>84</ele>
        <time>2023-05-23T11:49:54Z</time>
      </trkpt>
      <trkpt lat="49.06185" lon="-0.32965">
        <ele>84</ele>
        <time>2023-05-23T11:49:55Z</time>
      </trkpt>
      <trkpt lat="49.0618" lon="-0.3296">
        <ele>84</ele>
        <time>2023-05-23T11:49:56Z</time>
      </trkpt>
      <trkpt lat="49.06176" lon="-0.32955">
        <ele>84</ele>
        <time>2023-05-23T11:49:57Z</time>
      </trkpt>
      <trkpt lat="49.06171" lon="-0.3295">
        <ele>84</ele>
        <time>2023-05-23T11:49:58Z</time>
      </trkpt>
      <trkpt lat="49.06166" lon="-0.32945">
        <ele>84</ele>
        <time>2023-05-23T11:49:59Z</time>
      </trkpt>
      <trkpt lat="49.06162" lon="-0.32941">
        <ele>84</ele>
        <time>2023-05-23T11:50:00Z</time>
      </trkpt>
      <trkpt lat="49.06157" lon="-0.32936">
        <ele>84.2</ele>
        <time>2023-05-23T11:50:01Z</time>
      </trkpt>
      <trkpt lat="49.06153" lon="-0.32931">
        <ele>84.4</ele>
        <time>2023-05-23T11:50:02Z</time>
      </trkpt>
      <trkpt lat="49.06148" lon="-0.32926">
        <ele>84.4</ele>
        <time>2023-05-23T11:50:03Z</time>
      </trkpt>
      <trkpt lat="49.06144" lon="-0.32921">
        <ele>84.6</ele>
        <time>2023-05-23T11:50:04Z</time>
      </trkpt>
      <trkpt lat="49.06139" lon="-0.32916">
        <ele>84.6</ele>
        <time>2023-05-23T11:50:05Z</time>
      </trkpt>
      <trkpt lat="49.06134" lon="-0.32911">
        <ele>84.8</ele>
        <time>2023-05-23T11:50:06Z</time>
      </trkpt>
      <trkpt lat="49.0613" lon="-0.32906">
        <ele>85</ele>
        <time>2023-05-23T11:50:07Z</time>
      </trkpt>
      <trkpt lat="49.06125" lon="-0.32902">
        <ele>85</ele>
        <time>2023-05-23T11:50:08Z</time>
      </trkpt>
      <trkpt lat="49.06121" lon="-0.32897">
        <ele>85.2</ele>
        <time>2023-05-23T11:50:09Z</time>
      </trkpt>
      <trkpt lat="49.06116" lon="-0.32892">
        <ele>85.4</ele>
        <time>2023-05-23T11:50:10Z</time>
      </trkpt>
      <trkpt lat="49.06111" lon="-0.32887">
        <ele>85.4</ele>
        <time>2023-05-23T11:50:11Z</time>
      </trkpt>
      <trkpt lat="49.06107" lon="-0.32882">
        <ele>85.6</ele>
        <time>2023-05-23T11:50:12Z</time>
      </trkpt>
      <trkpt lat="49.06102" lon="-0.32877">
        <ele>85.6</ele>
        <time>2023-05-23T11:50:13Z</time>
      </trkpt>
      <trkpt lat="49.06097" lon="-0.32872">
        <ele>85.8</ele>
        <time>2023-05-23T11:50:14Z</time>
      </trkpt>
      <trkpt lat="49.06092" lon="-0.32866">
        <ele>86</ele>
        <time>2023-05-23T11:50:15Z</time>
      </trkpt>
      <trkpt lat="49.06087" lon="-0.32861">
        <ele>86</ele>
        <time>2023-05-23T11:50:16Z</time>
      </trkpt>
      <trkpt lat="49.06083" lon="-0.32856">
        <ele>86</ele>
        <time>2023-05-23T11:50:17Z</time>
      </trkpt>
      <trkpt lat="49.06078" lon="-0.32851">
        <ele>86</ele>
        <time>2023-05-23T11:50:18Z</time>
      </trkpt>
      <trkpt lat="49.06073" lon="-0.32846">
        <ele>86</ele>
        <time>2023-05-23T11:50:19Z</time>
      </trkpt>
      <trkpt lat="49.06068" lon="-0.32841">
        <ele>86.2</ele>
        <time>2023-05-23T11:50:20Z</time>
      </trkpt>
      <trkpt lat="49.06064" lon="-0.32836">
        <ele>86.2</ele>
        <time>2023-05-23T11:50:21Z</time>
      </trkpt>
      <trkpt lat="49.06059" lon="-0.32831">
        <ele>86.4</ele>
        <time>2023-05-23T11:50:22Z</time>
      </trkpt>
      <trkpt lat="49.06054" lon="-0.32826">
        <ele>86.4</ele>
        <time>2023-05-23T11:50:23Z</time>
      </trkpt>
      <trkpt lat="49.06049" lon="-0.32821">
        <ele>86.4</ele>
        <time>2023-05-23T11:50:24Z</time>
      </trkpt>
      <trkpt lat="49.06044" lon="-0.32816">
        <ele>86.6</ele>
        <time>2023-05-23T11:50:25Z</time>
      </trkpt>
      <trkpt lat="49.06039" lon="-0.32811">
        <ele>86.6</ele>
        <time>2023-05-23T11:50:26Z</time>
      </trkpt>
      <trkpt lat="49.06034" lon="-0.32805">
        <ele>86.6</ele>
        <time>2023-05-23T11:50:27Z</time>
      </trkpt>
      <trkpt lat="49.06029" lon="-0.328">
        <ele>86.6</ele>
        <time>2023-05-23T11:50:28Z</time>
      </trkpt>
      <trkpt lat="49.06025" lon="-0.32795">
        <ele>86.6</ele>
        <time>2023-05-23T11:50:29Z</time>
      </trkpt>
      <trkpt lat="49.06019" lon="-0.3279">
        <ele>86.8</ele>
        <time>2023-05-23T11:50:30Z</time>
      </trkpt>
      <trkpt lat="49.06015" lon="-0.32785">
        <ele>86.8</ele>
        <time>2023-05-23T11:50:31Z</time>
      </trkpt>
      <trkpt lat="49.0601" lon="-0.3278">
        <ele>87</ele>
        <time>2023-05-23T11:50:32Z</time>
      </trkpt>
      <trkpt lat="49.06005" lon="-0.32774">
        <ele>87</ele>
        <time>2023-05-23T11:50:33Z</time>
      </trkpt>
      <trkpt lat="49.06" lon="-0.32769">
        <ele>87</ele>
        <time>2023-05-23T11:50:34Z</time>
      </trkpt>
      <trkpt lat="49.05995" lon="-0.32764">
        <ele>87</ele>
        <time>2023-05-23T11:50:35Z</time>
      </trkpt>
      <trkpt lat="49.0599" lon="-0.32759">
        <ele>87</ele>
        <time>2023-05-23T11:50:36Z</time>
      </trkpt>
      <trkpt lat="49.05985" lon="-0.32754">
        <ele>87.2</ele>
        <time>2023-05-23T11:50:37Z</time>
      </trkpt>
      <trkpt lat="49.0598" lon="-0.32748">
        <ele>87.4</ele>
        <time>2023-05-23T11:50:38Z</time>
      </trkpt>
      <trkpt lat="49.05975" lon="-0.32743">
        <ele>87.4</ele>
        <time>2023-05-23T11:50:39Z</time>
      </trkpt>
      <trkpt lat="49.0597" lon="-0.32738">
        <ele>87.6</ele>
        <time>2023-05-23T11:50:40Z</time>
      </trkpt>
      <trkpt lat="49.05965" lon="-0.32733">
        <ele>87.6</ele>
        <time>2023-05-23T11:50:41Z</time>
      </trkpt>
      <trkpt lat="49.0596" lon="-0.32728">
        <ele>87.6</ele>
        <time>2023-05-23T11:50:42Z</time>
      </trkpt>
      <trkpt lat="49.05956" lon="-0.32722">
        <ele>88</ele>
        <time>2023-05-23T11:50:43Z</time>
      </trkpt>
      <trkpt lat="49.05951" lon="-0.32717">
        <ele>88</ele>
        <time>2023-05-23T11:50:44Z</time>
      </trkpt>
      <trkpt lat="49.05946" lon="-0.32712">
        <ele>88</ele>
        <time>2023-05-23T11:50:45Z</time>
      </trkpt>
      <trkpt lat="49.05941" lon="-0.32707">
        <ele>88.2</ele>
        <time>2023-05-23T11:50:46Z</time>
      </trkpt>
      <trkpt lat="49.05936" lon="-0.32702">
        <ele>88.4</ele>
        <time>2023-05-23T11:50:47Z</time>
      </trkpt>
      <trkpt lat="49.05931" lon="-0.32697">
        <ele>88.6</ele>
        <time>2023-05-23T11:50:48Z</time>
      </trkpt>
      <trkpt lat="49.05926" lon="-0.32692">
        <ele>88.6</ele>
        <time>2023-05-23T11:50:49Z</time>
      </trkpt>
      <trkpt lat="49.05922" lon="-0.32687">
        <ele>88.6</ele>
        <time>2023-05-23T11:50:50Z</time>
      </trkpt>
      <trkpt lat="49.05917" lon="-0.32682">
        <ele>88.8</ele>
        <time>2023-05-23T11:50:51Z</time>
      </trkpt>
      <trkpt lat="49.05912" lon="-0.32677">
        <ele>89</ele>
        <time>2023-05-23T11:50:52Z</time>
      </trkpt>
      <trkpt lat="49.05907" lon="-0.32672">
        <ele>89.4</ele>
        <time>2023-05-23T11:50:53Z</time>
      </trkpt>
      <trkpt lat="49.05903" lon="-0.32667">
        <ele>89.6</ele>
        <time>2023-05-23T11:50:54Z</time>
      </trkpt>
      <trkpt lat="49.05898" lon="-0.32662">
        <ele>89.6</ele>
        <time>2023-05-23T11:50:55Z</time>
      </trkpt>
      <trkpt lat="49.05893" lon="-0.32656">
        <ele>90</ele>
        <time>2023-05-23T11:50:56Z</time>
      </trkpt>
      <trkpt lat="49.05889" lon="-0.32651">
        <ele>90</ele>
        <time>2023-05-23T11:50:57Z</time>
      </trkpt>
      <trkpt lat="49.05885" lon="-0.32645">
        <ele>90.4</ele>
        <time>2023-05-23T11:50:58Z</time>
      </trkpt>
      <trkpt lat="49.05881" lon="-0.32639">
        <ele>90.6</ele>
        <time>2023-05-23T11:50:59Z</time>
      </trkpt>
      <trkpt lat="49.05876" lon="-0.32633">
        <ele>90.6</ele>
        <time>2023-05-23T11:51:00Z</time>
      </trkpt>
      <trkpt lat="49.05872" lon="-0.32627">
        <ele>90.8</ele>
        <time>2023-05-23T11:51:01Z</time>
      </trkpt>
      <trkpt lat="49.05869" lon="-0.3262">
        <ele>91</ele>
        <time>2023-05-23T11:51:02Z</time>
      </trkpt>
      <trkpt lat="49.05865" lon="-0.32614">
        <ele>91</ele>
        <time>2023-05-23T11:51:03Z</time>
      </trkpt>
      <trkpt lat="49.05861" lon="-0.32607">
        <ele>91.2</ele>
        <time>2023-05-23T11:51:04Z</time>
      </trkpt>
      <trkpt lat="49.05857" lon="-0.326">
        <ele>91.4</ele>
        <time>2023-05-23T11:51:05Z</time>
      </trkpt>
      <trkpt lat="49.05854" lon="-0.32593">
        <ele>91.6</ele>
        <time>2023-05-23T11:51:06Z</time>
      </trkpt>
      <trkpt lat="49.0585" lon="-0.32586">
        <ele>91.6</ele>
        <time>2023-05-23T11:51:07Z</time>
      </trkpt>
      <trkpt lat="49.05847" lon="-0.32579">
        <ele>91.6</ele>
        <time>2023-05-23T11:51:08Z</time>
      </trkpt>
      <trkpt lat="49.05843" lon="-0.32571">
        <ele>91.8</ele>
        <time>2023-05-23T11:51:09Z</time>
      </trkpt>
      <trkpt lat="49.0584" lon="-0.32564">
        <ele>92</ele>
        <time>2023-05-23T11:51:10Z</time>
      </trkpt>
      <trkpt lat="49.05836" lon="-0.32557">
        <ele>92</ele>
        <time>2023-05-23T11:51:11Z</time>
      </trkpt>
      <trkpt lat="49.05833" lon="-0.32549">
        <ele>92</ele>
        <time>2023-05-23T11:51:12Z</time>
      </trkpt>
      <trkpt lat="49.05829" lon="-0.32542">
        <ele>92</ele>
        <time>2023-05-23T11:51:13Z</time>
      </trkpt>
      <trkpt lat="49.05826" lon="-0.32534">
        <ele>92</ele>
        <time>2023-05-23T11:51:14Z</time>
      </trkpt>
      <trkpt lat="49.05822" lon="-0.32527">
        <ele>92</ele>
        <time>2023-05-23T11:51:15Z</time>
      </trkpt>
      <trkpt lat="49.05819" lon="-0.32519">
        <ele>92.2</ele>
        <time>2023-05-23T11:51:16Z</time>
      </trkpt>
      <trkpt lat="49.05815" lon="-0.32512">
        <ele>92.2</ele>
        <time>2023-05-23T11:51:17Z</time>
      </trkpt>
      <trkpt lat="49.05812" lon="-0.32505">
        <ele>92.4</ele>
        <time>2023-05-23T11:51:18Z</time>
      </trkpt>
      <trkpt lat="49.05808" lon="-0.32498">
        <ele>92.4</ele>
        <time>2023-05-23T11:51:19Z</time>
      </trkpt>
      <trkpt lat="49.05804" lon="-0.32491">
        <ele>92.4</ele>
        <time>2023-05-23T11:51:20Z</time>
      </trkpt>
      <trkpt lat="49.058" lon="-0.32485">
        <ele>92.6</ele>
        <time>2023-05-23T11:51:21Z</time>
      </trkpt>
      <trkpt lat="49.05797" lon="-0.32478">
        <ele>92.6</ele>
        <time>2023-05-23T11:51:22Z</time>
      </trkpt>
      <trkpt lat="49.05793" lon="-0.32472">
        <ele>92.6</ele>
        <time>2023-05-23T11:51:23Z</time>
      </trkpt>
      <trkpt lat="49.05789" lon="-0.32465">
        <ele>92.6</ele>
        <time>2023-05-23T11:51:24Z</time>
      </trkpt>
      <trkpt lat="49.05784" lon="-0.32459">
        <ele>92.8</ele>
        <time>2023-05-23T11:51:25Z</time>
      </trkpt>
      <trkpt lat="49.0578" lon="-0.32453">
        <ele>92.8</ele>
        <time>2023-05-23T11:51:26Z</time>
      </trkpt>
      <trkpt lat="49.05775" lon="-0.32448">
        <ele>93</ele>
        <time>2023-05-23T11:51:27Z</time>
      </trkpt>
      <trkpt lat="49.05771" lon="-0.32442">
        <ele>93</ele>
        <time>2023-05-23T11:51:28Z</time>
      </trkpt>
      <trkpt lat="49.05766" lon="-0.32436">
        <ele>93</ele>
        <time>2023-05-23T11:51:29Z</time>
      </trkpt>
      <trkpt lat="49.05761" lon="-0.32431">
        <ele>93</ele>
        <time>2023-05-23T11:51:30Z</time>
      </trkpt>
      <trkpt lat="49.05756" lon="-0.32426">
        <ele>93</ele>
        <time>2023-05-23T11:51:31Z</time>
      </trkpt>
      <trkpt lat="49.05751" lon="-0.32422">
        <ele>93</ele>
        <time>2023-05-23T11:51:32Z</time>
      </trkpt>
      <trkpt lat="49.05746" lon="-0.32417">
        <ele>93</ele>
        <time>2023-05-23T11:51:33Z</time>
      </trkpt>
      <trkpt lat="49.05741" lon="-0.32413">
        <ele>93.2</ele>
        <time>2023-05-23T11:51:34Z</time>
      </trkpt>
      <trkpt lat="49.05736" lon="-0.32408">
        <ele>93.4</ele>
        <time>2023-05-23T11:51:35Z</time>
      </trkpt>
      <trkpt lat="49.0573" lon="-0.32404">
        <ele>93.4</ele>
        <time>2023-05-23T11:51:36Z</time>
      </trkpt>
      <trkpt lat="49.05725" lon="-0.324">
        <ele>93.6</ele>
        <time>2023-05-23T11:51:37Z</time>
      </trkpt>
      <trkpt lat="49.0572" lon="-0.32396">
        <ele>93.6</ele>
        <time>2023-05-23T11:51:38Z</time>
      </trkpt>
      <trkpt lat="49.05715" lon="-0.32391">
        <ele>93.6</ele>
        <time>2023-05-23T11:51:39Z</time>
      </trkpt>
      <trkpt lat="49.0571" lon="-0.32387">
        <ele>93.8</ele>
        <time>2023-05-23T11:51:40Z</time>
      </trkpt>
      <trkpt lat="49.05705" lon="-0.32383">
        <ele>94</ele>
        <time>2023-05-23T11:51:41Z</time>
      </trkpt>
      <trkpt lat="49.05699" lon="-0.32378">
        <ele>94</ele>
        <time>2023-05-23T11:51:42Z</time>
      </trkpt>
      <trkpt lat="49.05694" lon="-0.32374">
        <ele>94</ele>
        <time>2023-05-23T11:51:43Z</time>
      </trkpt>
      <trkpt lat="49.05689" lon="-0.3237">
        <ele>94</ele>
        <time>2023-05-23T11:51:44Z</time>
      </trkpt>
      <trkpt lat="49.05684" lon="-0.32366">
        <ele>94</ele>
        <time>2023-05-23T11:51:45Z</time>
      </trkpt>
      <trkpt lat="49.05678" lon="-0.32362">
        <ele>94.2</ele>
        <time>2023-05-23T11:51:46Z</time>
      </trkpt>
      <trkpt lat="49.05673" lon="-0.32358">
        <ele>94.2</ele>
        <time>2023-05-23T11:51:47Z</time>
      </trkpt>
      <trkpt lat="49.05668" lon="-0.32354">
        <ele>94.2</ele>
        <time>2023-05-23T11:51:48Z</time>
      </trkpt>
      <trkpt lat="49.05663" lon="-0.3235">
        <ele>94.2</ele>
        <time>2023-05-23T11:51:49Z</time>
      </trkpt>
      <trkpt lat="49.05658" lon="-0.32346">
        <ele>94.2</ele>
        <time>2023-05-23T11:51:50Z</time>
      </trkpt>
      <trkpt lat="49.05653" lon="-0.32341">
        <ele>94.4</ele>
        <time>2023-05-23T11:51:51Z</time>
      </trkpt>
      <trkpt lat="49.05647" lon="-0.32337">
        <ele>94.4</ele>
        <time>2023-05-23T11:51:52Z</time>
      </trkpt>
      <trkpt lat="49.05642" lon="-0.32333">
        <ele>94.4</ele>
        <time>2023-05-23T11:51:53Z</time>
      </trkpt>
      <trkpt lat="49.05637" lon="-0.32329">
        <ele>94.4</ele>
        <time>2023-05-23T11:51:54Z</time>
      </trkpt>
      <trkpt lat="49.05632" lon="-0.32325">
        <ele>94.6</ele>
        <time>2023-05-23T11:51:55Z</time>
      </trkpt>
      <trkpt lat="49.05627" lon="-0.32321">
        <ele>94.6</ele>
        <time>2023-05-23T11:51:56Z</time>
      </trkpt>
      <trkpt lat="49.05622" lon="-0.32317">
        <ele>94.6</ele>
        <time>2023-05-23T11:51:57Z</time>
      </trkpt>
      <trkpt lat="49.05617" lon="-0.32313">
        <ele>94.6</ele>
        <time>2023-05-23T11:51:58Z</time>
      </trkpt>
      <trkpt lat="49.05612" lon="-0.32309">
        <ele>95</ele>
        <time>2023-05-23T11:51:59Z</time>
      </trkpt>
      <trkpt lat="49.05607" lon="-0.32305">
        <ele>95</ele>
        <time>2023-05-23T11:52:00Z</time>
      </trkpt>
      <trkpt lat="49.05602" lon="-0.32301">
        <ele>95</ele>
        <time>2023-05-23T11:52:01Z</time>
      </trkpt>
      <trkpt lat="49.05596" lon="-0.32297">
        <ele>95.2</ele>
        <time>2023-05-23T11:52:02Z</time>
      </trkpt>
      <trkpt lat="49.05591" lon="-0.32292">
        <ele>95.4</ele>
        <time>2023-05-23T11:52:03Z</time>
      </trkpt>
      <trkpt lat="49.05586" lon="-0.32288">
        <ele>95.6</ele>
        <time>2023-05-23T11:52:04Z</time>
      </trkpt>
      <trkpt lat="49.05581" lon="-0.32284">
        <ele>95.6</ele>
        <time>2023-05-23T11:52:05Z</time>
      </trkpt>
      <trkpt lat="49.05576" lon="-0.3228">
        <ele>96</ele>
        <time>2023-05-23T11:52:06Z</time>
      </trkpt>
      <trkpt lat="49.0557" lon="-0.32275">
        <ele>96</ele>
        <time>2023-05-23T11:52:07Z</time>
      </trkpt>
      <trkpt lat="49.05565" lon="-0.32271">
        <ele>96.2</ele>
        <time>2023-05-23T11:52:08Z</time>
      </trkpt>
      <trkpt lat="49.0556" lon="-0.32267">
        <ele>96.4</ele>
        <time>2023-05-23T11:52:09Z</time>
      </trkpt>
      <trkpt lat="49.05555" lon="-0.32263">
        <ele>96.6</ele>
        <time>2023-05-23T11:52:10Z</time>
      </trkpt>
      <trkpt lat="49.0555" lon="-0.32259">
        <ele>96.6</ele>
        <time>2023-05-23T11:52:11Z</time>
      </trkpt>
      <trkpt lat="49.05544" lon="-0.32255">
        <ele>97</ele>
        <time>2023-05-23T11:52:12Z</time>
      </trkpt>
      <trkpt lat="49.05539" lon="-0.32251">
        <ele>97</ele>
        <time>2023-05-23T11:52:13Z</time>
      </trkpt>
      <trkpt lat="49.05534" lon="-0.32246">
        <ele>97</ele>
        <time>2023-05-23T11:52:14Z</time>
      </trkpt>
      <trkpt lat="49.05528" lon="-0.32242">
        <ele>97.2</ele>
        <time>2023-05-23T11:52:15Z</time>
      </trkpt>
      <trkpt lat="49.05523" lon="-0.32237">
        <ele>97.2</ele>
        <time>2023-05-23T11:52:16Z</time>
      </trkpt>
      <trkpt lat="49.05517" lon="-0.32232">
        <ele>97.2</ele>
        <time>2023-05-23T11:52:17Z</time>
      </trkpt>
      <trkpt lat="49.05511" lon="-0.32228">
        <ele>97.2</ele>
        <time>2023-05-23T11:52:18Z</time>
      </trkpt>
      <trkpt lat="49.05506" lon="-0.32223">
        <ele>97.2</ele>
        <time>2023-05-23T11:52:19Z</time>
      </trkpt>
      <trkpt lat="49.055" lon="-0.32219">
        <ele>97.2</ele>
        <time>2023-05-23T11:52:20Z</time>
      </trkpt>
      <trkpt lat="49.05494" lon="-0.32214">
        <ele>97.2</ele>
        <time>2023-05-23T11:52:21Z</time>
      </trkpt>
      <trkpt lat="49.05489" lon="-0.32209">
        <ele>97.2</ele>
        <time>2023-05-23T11:52:22Z</time>
      </trkpt>
      <trkpt lat="49.05483" lon="-0.32205">
        <ele>97.2</ele>
        <time>2023-05-23T11:52:23Z</time>
      </trkpt>
      <trkpt lat="49.05478" lon="-0.322">
        <ele>97.2</ele>
        <time>2023-05-23T11:52:24Z</time>
      </trkpt>
      <trkpt lat="49.05472" lon="-0.32195">
        <ele>97.2</ele>
        <time>2023-05-23T11:52:25Z</time>
      </trkpt>
      <trkpt lat="49.05467" lon="-0.3219">
        <ele>97.4</ele>
        <time>2023-05-23T11:52:26Z</time>
      </trkpt>
      <trkpt lat="49.05461" lon="-0.32185">
        <ele>97.4</ele>
        <time>2023-05-23T11:52:27Z</time>
      </trkpt>
      <trkpt lat="49.05455" lon="-0.3218">
        <ele>97.6</ele>
        <time>2023-05-23T11:52:28Z</time>
      </trkpt>
      <trkpt lat="49.0545" lon="-0.32175">
        <ele>97.8</ele>
        <time>2023-05-23T11:52:29Z</time>
      </trkpt>
      <trkpt lat="49.05444" lon="-0.3217">
        <ele>98</ele>
        <time>2023-05-23T11:52:30Z</time>
      </trkpt>
      <trkpt lat="49.05438" lon="-0.32165">
        <ele>98.2</ele>
        <time>2023-05-23T11:52:31Z</time>
      </trkpt>
      <trkpt lat="49.05432" lon="-0.3216">
        <ele>98.4</ele>
        <time>2023-05-23T11:52:32Z</time>
      </trkpt>
      <trkpt lat="49.05426" lon="-0.32155">
        <ele>98.6</ele>
        <time>2023-05-23T11:52:33Z</time>
      </trkpt>
      <trkpt lat="49.0542" lon="-0.3215">
        <ele>98.6</ele>
        <time>2023-05-23T11:52:34Z</time>
      </trkpt>
      <trkpt lat="49.05415" lon="-0.32144">
        <ele>98.6</ele>
        <time>2023-05-23T11:52:35Z</time>
      </trkpt>
      <trkpt lat="49.05409" lon="-0.32139">
        <ele>98.6</ele>
        <time>2023-05-23T11:52:36Z</time>
      </trkpt>
      <trkpt lat="49.05403" lon="-0.32133">
        <ele>98.6</ele>
        <time>2023-05-23T11:52:37Z</time>
      </trkpt>
      <trkpt lat="49.05398" lon="-0.32126">
        <ele>98.6</ele>
        <time>2023-05-23T11:52:38Z</time>
      </trkpt>
      <trkpt lat="49.05393" lon="-0.32118">
        <ele>98.8</ele>
        <time>2023-05-23T11:52:39Z</time>
      </trkpt>
      <trkpt lat="49.05388" lon="-0.32111">
        <ele>98.8</ele>
        <time>2023-05-23T11:52:40Z</time>
      </trkpt>
      <trkpt lat="49.05382" lon="-0.32102">
        <ele>99</ele>
        <time>2023-05-23T11:52:41Z</time>
      </trkpt>
      <trkpt lat="49.05378" lon="-0.32094">
        <ele>99</ele>
        <time>2023-05-23T11:52:42Z</time>
      </trkpt>
      <trkpt lat="49.05373" lon="-0.32084">
        <ele>99</ele>
        <time>2023-05-23T11:52:43Z</time>
      </trkpt>
      <trkpt lat="49.05368" lon="-0.32075">
        <ele>99</ele>
        <time>2023-05-23T11:52:44Z</time>
      </trkpt>
      <trkpt lat="49.05363" lon="-0.32064">
        <ele>98.8</ele>
        <time>2023-05-23T11:52:45Z</time>
      </trkpt>
      <trkpt lat="49.05359" lon="-0.32054">
        <ele>98.6</ele>
        <time>2023-05-23T11:52:46Z</time>
      </trkpt>
      <trkpt lat="49.05355" lon="-0.32042">
        <ele>98.6</ele>
        <time>2023-05-23T11:52:47Z</time>
      </trkpt>
      <trkpt lat="49.0535" lon="-0.32031">
        <ele>98.4</ele>
        <time>2023-05-23T11:52:48Z</time>
      </trkpt>
      <trkpt lat="49.05346" lon="-0.32019">
        <ele>98</ele>
        <time>2023-05-23T11:52:49Z</time>
      </trkpt>
      <trkpt lat="49.05342" lon="-0.32006">
        <ele>98</ele>
        <time>2023-05-23T11:52:50Z</time>
      </trkpt>
      <trkpt lat="49.05338" lon="-0.31993">
        <ele>97.6</ele>
        <time>2023-05-23T11:52:51Z</time>
      </trkpt>
      <trkpt lat="49.05333" lon="-0.3198">
        <ele>97.4</ele>
        <time>2023-05-23T11:52:52Z</time>
      </trkpt>
      <trkpt lat="49.05329" lon="-0.31966">
        <ele>96.6</ele>
        <time>2023-05-23T11:52:53Z</time>
      </trkpt>
      <trkpt lat="49.05324" lon="-0.31953">
        <ele>96.2</ele>
        <time>2023-05-23T11:52:54Z</time>
      </trkpt>
      <trkpt lat="49.05318" lon="-0.31939">
        <ele>95.8</ele>
        <time>2023-05-23T11:52:55Z</time>
      </trkpt>
      <trkpt lat="49.05313" lon="-0.31926">
        <ele>95.4</ele>
        <time>2023-05-23T11:52:56Z</time>
      </trkpt>
      <trkpt lat="49.05307" lon="-0.31914">
        <ele>95</ele>
        <time>2023-05-23T11:52:57Z</time>
      </trkpt>
      <trkpt lat="49.05301" lon="-0.31901">
        <ele>94.4</ele>
        <time>2023-05-23T11:52:58Z</time>
      </trkpt>
      <trkpt lat="49.05295" lon="-0.31888">
        <ele>94</ele>
        <time>2023-05-23T11:52:59Z</time>
      </trkpt>
      <trkpt lat="49.05289" lon="-0.31876">
        <ele>93.6</ele>
        <time>2023-05-23T11:53:00Z</time>
      </trkpt>
      <trkpt lat="49.05283" lon="-0.31865">
        <ele>93</ele>
        <time>2023-05-23T11:53:01Z</time>
      </trkpt>
      <trkpt lat="49.05277" lon="-0.31854">
        <ele>92.8</ele>
        <time>2023-05-23T11:53:02Z</time>
      </trkpt>
      <trkpt lat="49.05273" lon="-0.31845">
        <ele>92.4</ele>
        <time>2023-05-23T11:53:03Z</time>
      </trkpt>
      <trkpt lat="49.05268" lon="-0.31837">
        <ele>92</ele>
        <time>2023-05-23T11:53:04Z</time>
      </trkpt>
      <trkpt lat="49.05265" lon="-0.31829">
        <ele>92</ele>
        <time>2023-05-23T11:53:05Z</time>
      </trkpt>
      <trkpt lat="49.05261" lon="-0.31822">
        <ele>92</ele>
        <time>2023-05-23T11:53:06Z</time>
      </trkpt>
      <trkpt lat="49.05258" lon="-0.31817">
        <ele>92</ele>
        <time>2023-05-23T11:53:07Z</time>
      </trkpt>
      <trkpt lat="49.05254" lon="-0.31813">
        <ele>92</ele>
        <time>2023-05-23T11:53:08Z</time>
      </trkpt>
      <trkpt lat="49.05249" lon="-0.31812">
        <ele>92</ele>
        <time>2023-05-23T11:53:09Z</time>
      </trkpt>
      <trkpt lat="49.05244" lon="-0.31812">
        <ele>92</ele>
        <time>2023-05-23T11:53:10Z</time>
      </trkpt>
      <trkpt lat="49.05237" lon="-0.31813">
        <ele>92</ele>
        <time>2023-05-23T11:53:11Z</time>
      </trkpt>
      <trkpt lat="49.0523" lon="-0.31815">
        <ele>92</ele>
        <time>2023-05-23T11:53:12Z</time>
      </trkpt>
      <trkpt lat="49.05222" lon="-0.31816">
        <ele>92</ele>
        <time>2023-05-23T11:53:13Z</time>
      </trkpt>
      <trkpt lat="49.05214" lon="-0.31816">
        <ele>92</ele>
        <time>2023-05-23T11:53:14Z</time>
      </trkpt>
      <trkpt lat="49.05206" lon="-0.31816">
        <ele>92</ele>
        <time>2023-05-23T11:53:15Z</time>
      </trkpt>
      <trkpt lat="49.05197" lon="-0.31816">
        <ele>92</ele>
        <time>2023-05-23T11:53:16Z</time>
      </trkpt>
      <trkpt lat="49.05188" lon="-0.31816">
        <ele>92</ele>
        <time>2023-05-23T11:53:17Z</time>
      </trkpt>
      <trkpt lat="49.05178" lon="-0.31816">
        <ele>91.8</ele>
        <time>2023-05-23T11:53:18Z</time>
      </trkpt>
      <trkpt lat="49.05169" lon="-0.31817">
        <ele>91.8</ele>
        <time>2023-05-23T11:53:19Z</time>
      </trkpt>
      <trkpt lat="49.05159" lon="-0.31818">
        <ele>90.6</ele>
        <time>2023-05-23T11:53:20Z</time>
      </trkpt>
      <trkpt lat="49.05148" lon="-0.31819">
        <ele>89</ele>
        <time>2023-05-23T11:53:21Z</time>
      </trkpt>
      <trkpt lat="49.05139" lon="-0.3182">
        <ele>87.6</ele>
        <time>2023-05-23T11:53:22Z</time>
      </trkpt>
      <trkpt lat="49.05129" lon="-0.31822">
        <ele>86.2</ele>
        <time>2023-05-23T11:53:23Z</time>
      </trkpt>
      <trkpt lat="49.05119" lon="-0.31825">
        <ele>84.6</ele>
        <time>2023-05-23T11:53:24Z</time>
      </trkpt>
      <trkpt lat="49.0511" lon="-0.3183">
        <ele>83</ele>
        <time>2023-05-23T11:53:25Z</time>
      </trkpt>
      <trkpt lat="49.05102" lon="-0.31835">
        <ele>81.6</ele>
        <time>2023-05-23T11:53:26Z</time>
      </trkpt>
      <trkpt lat="49.05094" lon="-0.3184">
        <ele>80.6</ele>
        <time>2023-05-23T11:53:27Z</time>
      </trkpt>
      <trkpt lat="49.05087" lon="-0.31843">
        <ele>79.6</ele>
        <time>2023-05-23T11:53:28Z</time>
      </trkpt>
      <trkpt lat="49.05081" lon="-0.31844">
        <ele>79</ele>
        <time>2023-05-23T11:53:29Z</time>
      </trkpt>
      <trkpt lat="49.05076" lon="-0.31842">
        <ele>78.8</ele>
        <time>2023-05-23T11:53:30Z</time>
      </trkpt>
      <trkpt lat="49.05073" lon="-0.31836">
        <ele>78.6</ele>
        <time>2023-05-23T11:53:31Z</time>
      </trkpt>
      <trkpt lat="49.0507" lon="-0.31828">
        <ele>79</ele>
        <time>2023-05-23T11:53:32Z</time>
      </trkpt>
      <trkpt lat="49.05068" lon="-0.31819">
        <ele>79.4</ele>
        <time>2023-05-23T11:53:33Z</time>
      </trkpt>
      <trkpt lat="49.05065" lon="-0.31812">
        <ele>79.8</ele>
        <time>2023-05-23T11:53:34Z</time>
      </trkpt>
      <trkpt lat="49.05062" lon="-0.31804">
        <ele>80</ele>
        <time>2023-05-23T11:53:35Z</time>
      </trkpt>
      <trkpt lat="49.05059" lon="-0.31797">
        <ele>80.4</ele>
        <time>2023-05-23T11:53:36Z</time>
      </trkpt>
      <trkpt lat="49.05057" lon="-0.3179">
        <ele>80.6</ele>
        <time>2023-05-23T11:53:37Z</time>
      </trkpt>
      <trkpt lat="49.05054" lon="-0.31783">
        <ele>80.6</ele>
        <time>2023-05-23T11:53:38Z</time>
      </trkpt>
      <trkpt lat="49.0505" lon="-0.31776">
        <ele>80.6</ele>
        <time>2023-05-23T11:53:39Z</time>
      </trkpt>
      <trkpt lat="49.05046" lon="-0.31772">
        <ele>80.6</ele>
        <time>2023-05-23T11:53:40Z</time>
      </trkpt>
      <trkpt lat="49.05041" lon="-0.31769">
        <ele>80.4</ele>
        <time>2023-05-23T11:53:41Z</time>
      </trkpt>
      <trkpt lat="49.05036" lon="-0.31766">
        <ele>80</ele>
        <time>2023-05-23T11:53:42Z</time>
      </trkpt>
      <trkpt lat="49.05031" lon="-0.31765">
        <ele>79.6</ele>
        <time>2023-05-23T11:53:43Z</time>
      </trkpt>
      <trkpt lat="49.05026" lon="-0.31765">
        <ele>79.2</ele>
        <time>2023-05-23T11:53:44Z</time>
      </trkpt>
      <trkpt lat="49.05021" lon="-0.31765">
        <ele>78.8</ele>
        <time>2023-05-23T11:53:45Z</time>
      </trkpt>
      <trkpt lat="49.05016" lon="-0.31766">
        <ele>78.4</ele>
        <time>2023-05-23T11:53:46Z</time>
      </trkpt>
      <trkpt lat="49.05012" lon="-0.31768">
        <ele>78</ele>
        <time>2023-05-23T11:53:47Z</time>
      </trkpt>
      <trkpt lat="49.05007" lon="-0.31769">
        <ele>77.6</ele>
        <time>2023-05-23T11:53:48Z</time>
      </trkpt>
      <trkpt lat="49.05003" lon="-0.31771">
        <ele>77.2</ele>
        <time>2023-05-23T11:53:49Z</time>
      </trkpt>
      <trkpt lat="49.04999" lon="-0.31773">
        <ele>77</ele>
        <time>2023-05-23T11:53:50Z</time>
      </trkpt>
      <trkpt lat="49.04995" lon="-0.31775">
        <ele>77.4</ele>
        <time>2023-05-23T11:53:51Z</time>
      </trkpt>
      <trkpt lat="49.04991" lon="-0.31777">
        <ele>77.6</ele>
        <time>2023-05-23T11:53:52Z</time>
      </trkpt>
      <trkpt lat="49.04986" lon="-0.31779">
        <ele>78</ele>
        <time>2023-05-23T11:53:53Z</time>
      </trkpt>
      <trkpt lat="49.04983" lon="-0.31783">
        <ele>78.2</ele>
        <time>2023-05-23T11:53:54Z</time>
      </trkpt>
      <trkpt lat="49.04979" lon="-0.31787">
        <ele>78.6</ele>
        <time>2023-05-23T11:53:55Z</time>
      </trkpt>
      <trkpt lat="49.04975" lon="-0.31792">
        <ele>78.8</ele>
        <time>2023-05-23T11:53:56Z</time>
      </trkpt>
      <trkpt lat="49.04971" lon="-0.31797">
        <ele>79.2</ele>
        <time>2023-05-23T11:53:57Z</time>
      </trkpt>
      <trkpt lat="49.04967" lon="-0.31802">
        <ele>79.6</ele>
        <time>2023-05-23T11:53:58Z</time>
      </trkpt>
      <trkpt lat="49.04963" lon="-0.31807">
        <ele>79.8</ele>
        <time>2023-05-23T11:53:59Z</time>
      </trkpt>
      <trkpt lat="49.04959" lon="-0.31812">
        <ele>80.2</ele>
        <time>2023-05-23T11:54:00Z</time>
      </trkpt>
      <trkpt lat="49.04955" lon="-0.31817">
        <ele>80.6</ele>
        <time>2023-05-23T11:54:01Z</time>
      </trkpt>
      <trkpt lat="49.04952" lon="-0.31822">
        <ele>81</ele>
        <time>2023-05-23T11:54:02Z</time>
      </trkpt>
      <trkpt lat="49.04948" lon="-0.31827">
        <ele>81.4</ele>
        <time>2023-05-23T11:54:03Z</time>
      </trkpt>
      <trkpt lat="49.04944" lon="-0.31832">
        <ele>81.6</ele>
        <time>2023-05-23T11:54:04Z</time>
      </trkpt>
      <trkpt lat="49.0494" lon="-0.31837">
        <ele>82</ele>
        <time>2023-05-23T11:54:05Z</time>
      </trkpt>
      <trkpt lat="49.04937" lon="-0.31842">
        <ele>82</ele>
        <time>2023-05-23T11:54:06Z</time>
      </trkpt>
      <trkpt lat="49.04933" lon="-0.31847">
        <ele>82.2</ele>
        <time>2023-05-23T11:54:07Z</time>
      </trkpt>
      <trkpt lat="49.04929" lon="-0.31852">
        <ele>82.4</ele>
        <time>2023-05-23T11:54:08Z</time>
      </trkpt>
      <trkpt lat="49.04925" lon="-0.31856">
        <ele>82.6</ele>
        <time>2023-05-23T11:54:09Z</time>
      </trkpt>
      <trkpt lat="49.04921" lon="-0.31861">
        <ele>82.6</ele>
        <time>2023-05-23T11:54:10Z</time>
      </trkpt>
      <trkpt lat="49.04916" lon="-0.31865">
        <ele>83</ele>
        <time>2023-05-23T11:54:11Z</time>
      </trkpt>
      <trkpt lat="49.04913" lon="-0.31869">
        <ele>83</ele>
        <time>2023-05-23T11:54:12Z</time>
      </trkpt>
      <trkpt lat="49.04909" lon="-0.31873">
        <ele>83</ele>
        <time>2023-05-23T11:54:13Z</time>
      </trkpt>
      <trkpt lat="49.04904" lon="-0.31877">
        <ele>83</ele>
        <time>2023-05-23T11:54:14Z</time>
      </trkpt>
      <trkpt lat="49.049" lon="-0.3188">
        <ele>83.2</ele>
        <time>2023-05-23T11:54:15Z</time>
      </trkpt>
      <trkpt lat="49.04896" lon="-0.31884">
        <ele>83.4</ele>
        <time>2023-05-23T11:54:16Z</time>
      </trkpt>
      <trkpt lat="49.04892" lon="-0.31888">
        <ele>83.4</ele>
        <time>2023-05-23T11:54:17Z</time>
      </trkpt>
      <trkpt lat="49.04888" lon="-0.31891">
        <ele>83.6</ele>
        <time>2023-05-23T11:54:18Z</time>
      </trkpt>
      <trkpt lat="49.04884" lon="-0.31895">
        <ele>83.6</ele>
        <time>2023-05-23T11:54:19Z</time>
      </trkpt>
      <trkpt lat="49.04879" lon="-0.31899">
        <ele>83.8</ele>
        <time>2023-05-23T11:54:20Z</time>
      </trkpt>
      <trkpt lat="49.04875" lon="-0.31902">
        <ele>84</ele>
        <time>2023-05-23T11:54:21Z</time>
      </trkpt>
      <trkpt lat="49.04871" lon="-0.31906">
        <ele>84</ele>
        <time>2023-05-23T11:54:22Z</time>
      </trkpt>
      <trkpt lat="49.04867" lon="-0.3191">
        <ele>84.2</ele>
        <time>2023-05-23T11:54:23Z</time>
      </trkpt>
      <trkpt lat="49.04863" lon="-0.31914">
        <ele>84.4</ele>
        <time>2023-05-23T11:54:24Z</time>
      </trkpt>
      <trkpt lat="49.04859" lon="-0.31917">
        <ele>84.6</ele>
        <time>2023-05-23T11:54:25Z</time>
      </trkpt>
      <trkpt lat="49.04855" lon="-0.31921">
        <ele>84.6</ele>
        <time>2023-05-23T11:54:26Z</time>
      </trkpt>
      <trkpt lat="49.04851" lon="-0.31925">
        <ele>84.6</ele>
        <time>2023-05-23T11:54:27Z</time>
      </trkpt>
      <trkpt lat="49.04847" lon="-0.31929">
        <ele>84.6</ele>
        <time>2023-05-23T11:54:28Z</time>
      </trkpt>
      <trkpt lat="49.04844" lon="-0.31933">
        <ele>84.8</ele>
        <time>2023-05-23T11:54:29Z</time>
      </trkpt>
      <trkpt lat="49.0484" lon="-0.31937">
        <ele>85</ele>
        <time>2023-05-23T11:54:30Z</time>
      </trkpt>
      <trkpt lat="49.04836" lon="-0.31941">
        <ele>85</ele>
        <time>2023-05-23T11:54:31Z</time>
      </trkpt>
      <trkpt lat="49.04832" lon="-0.31944">
        <ele>85</ele>
        <time>2023-05-23T11:54:32Z</time>
      </trkpt>
      <trkpt lat="49.04828" lon="-0.31947">
        <ele>85</ele>
        <time>2023-05-23T11:54:33Z</time>
      </trkpt>
      <trkpt lat="49.04824" lon="-0.31948">
        <ele>85.4</ele>
        <time>2023-05-23T11:54:34Z</time>
      </trkpt>
      <trkpt lat="49.04819" lon="-0.31948">
        <ele>85.6</ele>
        <time>2023-05-23T11:54:35Z</time>
      </trkpt>
      <trkpt lat="49.04815" lon="-0.31948">
        <ele>85.6</ele>
        <time>2023-05-23T11:54:36Z</time>
      </trkpt>
      <trkpt lat="49.0481" lon="-0.31948">
        <ele>85.8</ele>
        <time>2023-05-23T11:54:37Z</time>
      </trkpt>
      <trkpt lat="49.04806" lon="-0.31948">
        <ele>86</ele>
        <time>2023-05-23T11:54:38Z</time>
      </trkpt>
      <trkpt lat="49.04801" lon="-0.31949">
        <ele>86</ele>
        <time>2023-05-23T11:54:39Z</time>
      </trkpt>
      <trkpt lat="49.04797" lon="-0.31949">
        <ele>86.4</ele>
        <time>2023-05-23T11:54:40Z</time>
      </trkpt>
      <trkpt lat="49.04793" lon="-0.31949">
        <ele>86.6</ele>
        <time>2023-05-23T11:54:41Z</time>
      </trkpt>
      <trkpt lat="49.04788" lon="-0.31949">
        <ele>86.6</ele>
        <time>2023-05-23T11:54:42Z</time>
      </trkpt>
      <trkpt lat="49.04784" lon="-0.31948">
        <ele>87</ele>
        <time>2023-05-23T11:54:43Z</time>
      </trkpt>
      <trkpt lat="49.04779" lon="-0.31948">
        <ele>87</ele>
        <time>2023-05-23T11:54:44Z</time>
      </trkpt>
      <trkpt lat="49.04775" lon="-0.31948">
        <ele>87.4</ele>
        <time>2023-05-23T11:54:45Z</time>
      </trkpt>
      <trkpt lat="49.0477" lon="-0.31947">
        <ele>87.6</ele>
        <time>2023-05-23T11:54:46Z</time>
      </trkpt>
      <trkpt lat="49.04765" lon="-0.31947">
        <ele>87.6</ele>
        <time>2023-05-23T11:54:47Z</time>
      </trkpt>
      <trkpt lat="49.0476" lon="-0.31946">
        <ele>88</ele>
        <time>2023-05-23T11:54:48Z</time>
      </trkpt>
      <trkpt lat="49.04756" lon="-0.31945">
        <ele>88</ele>
        <time>2023-05-23T11:54:49Z</time>
      </trkpt>
      <trkpt lat="49.04751" lon="-0.31944">
        <ele>88.4</ele>
        <time>2023-05-23T11:54:50Z</time>
      </trkpt>
      <trkpt lat="49.04746" lon="-0.31943">
        <ele>88.4</ele>
        <time>2023-05-23T11:54:51Z</time>
      </trkpt>
      <trkpt lat="49.04741" lon="-0.31942">
        <ele>88.6</ele>
        <time>2023-05-23T11:54:52Z</time>
      </trkpt>
      <trkpt lat="49.04735" lon="-0.31941">
        <ele>88.6</ele>
        <time>2023-05-23T11:54:53Z</time>
      </trkpt>
      <trkpt lat="49.0473" lon="-0.3194">
        <ele>88.6</ele>
        <time>2023-05-23T11:54:54Z</time>
      </trkpt>
      <trkpt lat="49.04725" lon="-0.31938">
        <ele>89</ele>
        <time>2023-05-23T11:54:55Z</time>
      </trkpt>
      <trkpt lat="49.0472" lon="-0.31936">
        <ele>89</ele>
        <time>2023-05-23T11:54:56Z</time>
      </trkpt>
      <trkpt lat="49.04715" lon="-0.31934">
        <ele>89</ele>
        <time>2023-05-23T11:54:57Z</time>
      </trkpt>
      <trkpt lat="49.0471" lon="-0.31931">
        <ele>89.2</ele>
        <time>2023-05-23T11:54:58Z</time>
      </trkpt>
      <trkpt lat="49.04705" lon="-0.31928">
        <ele>89.4</ele>
        <time>2023-05-23T11:54:59Z</time>
      </trkpt>
      <trkpt lat="49.047" lon="-0.31925">
        <ele>89.6</ele>
        <time>2023-05-23T11:55:00Z</time>
      </trkpt>
      <trkpt lat="49.04695" lon="-0.31922">
        <ele>89.6</ele>
        <time>2023-05-23T11:55:01Z</time>
      </trkpt>
      <trkpt lat="49.0469" lon="-0.31919">
        <ele>89.6</ele>
        <time>2023-05-23T11:55:02Z</time>
      </trkpt>
      <trkpt lat="49.04685" lon="-0.31916">
        <ele>89.8</ele>
        <time>2023-05-23T11:55:03Z</time>
      </trkpt>
      <trkpt lat="49.0468" lon="-0.31912">
        <ele>89.8</ele>
        <time>2023-05-23T11:55:04Z</time>
      </trkpt>
      <trkpt lat="49.04675" lon="-0.31908">
        <ele>89.8</ele>
        <time>2023-05-23T11:55:05Z</time>
      </trkpt>
      <trkpt lat="49.0467" lon="-0.31905">
        <ele>89.8</ele>
        <time>2023-05-23T11:55:06Z</time>
      </trkpt>
      <trkpt lat="49.04665" lon="-0.31903">
        <ele>89.8</ele>
        <time>2023-05-23T11:55:07Z</time>
      </trkpt>
      <trkpt lat="49.0466" lon="-0.319">
        <ele>89.8</ele>
        <time>2023-05-23T11:55:08Z</time>
      </trkpt>
      <trkpt lat="49.04654" lon="-0.31898">
        <ele>89.8</ele>
        <time>2023-05-23T11:55:09Z</time>
      </trkpt>
      <trkpt lat="49.04649" lon="-0.31895">
        <ele>89.8</ele>
        <time>2023-05-23T11:55:10Z</time>
      </trkpt>
      <trkpt lat="49.04644" lon="-0.31891">
        <ele>90</ele>
        <time>2023-05-23T11:55:11Z</time>
      </trkpt>
      <trkpt lat="49.04639" lon="-0.31888">
        <ele>90</ele>
        <time>2023-05-23T11:55:12Z</time>
      </trkpt>
      <trkpt lat="49.04633" lon="-0.31884">
        <ele>90</ele>
        <time>2023-05-23T11:55:13Z</time>
      </trkpt>
      <trkpt lat="49.04628" lon="-0.3188">
        <ele>90</ele>
        <time>2023-05-23T11:55:14Z</time>
      </trkpt>
      <trkpt lat="49.04623" lon="-0.31876">
        <ele>90</ele>
        <time>2023-05-23T11:55:15Z</time>
      </trkpt>
      <trkpt lat="49.04618" lon="-0.31871">
        <ele>90</ele>
        <time>2023-05-23T11:55:16Z</time>
      </trkpt>
      <trkpt lat="49.04613" lon="-0.31867">
        <ele>90.2</ele>
        <time>2023-05-23T11:55:17Z</time>
      </trkpt>
      <trkpt lat="49.04608" lon="-0.31863">
        <ele>90.4</ele>
        <time>2023-05-23T11:55:18Z</time>
      </trkpt>
      <trkpt lat="49.04603" lon="-0.31859">
        <ele>90.4</ele>
        <time>2023-05-23T11:55:19Z</time>
      </trkpt>
      <trkpt lat="49.04598" lon="-0.31855">
        <ele>90.6</ele>
        <time>2023-05-23T11:55:20Z</time>
      </trkpt>
      <trkpt lat="49.04593" lon="-0.31851">
        <ele>90.6</ele>
        <time>2023-05-23T11:55:21Z</time>
      </trkpt>
      <trkpt lat="49.04588" lon="-0.31847">
        <ele>90.6</ele>
        <time>2023-05-23T11:55:22Z</time>
      </trkpt>
      <trkpt lat="49.04583" lon="-0.31844">
        <ele>91</ele>
        <time>2023-05-23T11:55:23Z</time>
      </trkpt>
      <trkpt lat="49.04578" lon="-0.3184">
        <ele>91</ele>
        <time>2023-05-23T11:55:24Z</time>
      </trkpt>
      <trkpt lat="49.04572" lon="-0.31836">
        <ele>91</ele>
        <time>2023-05-23T11:55:25Z</time>
      </trkpt>
      <trkpt lat="49.04567" lon="-0.31833">
        <ele>91</ele>
        <time>2023-05-23T11:55:26Z</time>
      </trkpt>
      <trkpt lat="49.04562" lon="-0.31829">
        <ele>91</ele>
        <time>2023-05-23T11:55:27Z</time>
      </trkpt>
      <trkpt lat="49.04557" lon="-0.31826">
        <ele>91</ele>
        <time>2023-05-23T11:55:28Z</time>
      </trkpt>
      <trkpt lat="49.04552" lon="-0.31823">
        <ele>91</ele>
        <time>2023-05-23T11:55:29Z</time>
      </trkpt>
      <trkpt lat="49.04548" lon="-0.31819">
        <ele>91</ele>
        <time>2023-05-23T11:55:30Z</time>
      </trkpt>
      <trkpt lat="49.04543" lon="-0.31816">
        <ele>91</ele>
        <time>2023-05-23T11:55:31Z</time>
      </trkpt>
      <trkpt lat="49.04538" lon="-0.31812">
        <ele>91</ele>
        <time>2023-05-23T11:55:32Z</time>
      </trkpt>
      <trkpt lat="49.04533" lon="-0.31809">
        <ele>91.2</ele>
        <time>2023-05-23T11:55:33Z</time>
      </trkpt>
      <trkpt lat="49.04528" lon="-0.31806">
        <ele>91.2</ele>
        <time>2023-05-23T11:55:34Z</time>
      </trkpt>
      <trkpt lat="49.04523" lon="-0.31802">
        <ele>91.4</ele>
        <time>2023-05-23T11:55:35Z</time>
      </trkpt>
      <trkpt lat="49.04518" lon="-0.31799">
        <ele>91.4</ele>
        <time>2023-05-23T11:55:36Z</time>
      </trkpt>
      <trkpt lat="49.04513" lon="-0.31796">
        <ele>91.4</ele>
        <time>2023-05-23T11:55:37Z</time>
      </trkpt>
      <trkpt lat="49.04508" lon="-0.31793">
        <ele>91.4</ele>
        <time>2023-05-23T11:55:38Z</time>
      </trkpt>
      <trkpt lat="49.04503" lon="-0.31789">
        <ele>91.6</ele>
        <time>2023-05-23T11:55:39Z</time>
      </trkpt>
      <trkpt lat="49.04498" lon="-0.31786">
        <ele>91.6</ele>
        <time>2023-05-23T11:55:40Z</time>
      </trkpt>
      <trkpt lat="49.04493" lon="-0.31783">
        <ele>91.6</ele>
        <time>2023-05-23T11:55:41Z</time>
      </trkpt>
      <trkpt lat="49.04488" lon="-0.3178">
        <ele>91.8</ele>
        <time>2023-05-23T11:55:42Z</time>
      </trkpt>
      <trkpt lat="49.04483" lon="-0.31777">
        <ele>92</ele>
        <time>2023-05-23T11:55:43Z</time>
      </trkpt>
      <trkpt lat="49.04477" lon="-0.31774">
        <ele>92</ele>
        <time>2023-05-23T11:55:44Z</time>
      </trkpt>
      <trkpt lat="49.04472" lon="-0.31772">
        <ele>92.2</ele>
        <time>2023-05-23T11:55:45Z</time>
      </trkpt>
      <trkpt lat="49.04467" lon="-0.31769">
        <ele>92.4</ele>
        <time>2023-05-23T11:55:46Z</time>
      </trkpt>
      <trkpt lat="49.04461" lon="-0.31766">
        <ele>92.4</ele>
        <time>2023-05-23T11:55:47Z</time>
      </trkpt>
      <trkpt lat="49.04456" lon="-0.31763">
        <ele>92.6</ele>
        <time>2023-05-23T11:55:48Z</time>
      </trkpt>
      <trkpt lat="49.0445" lon="-0.3176">
        <ele>92.6</ele>
        <time>2023-05-23T11:55:49Z</time>
      </trkpt>
      <trkpt lat="49.04445" lon="-0.31757">
        <ele>92.6</ele>
        <time>2023-05-23T11:55:50Z</time>
      </trkpt>
      <trkpt lat="49.0444" lon="-0.31754">
        <ele>92.6</ele>
        <time>2023-05-23T11:55:51Z</time>
      </trkpt>
      <trkpt lat="49.04434" lon="-0.31751">
        <ele>92.8</ele>
        <time>2023-05-23T11:55:52Z</time>
      </trkpt>
      <trkpt lat="49.04429" lon="-0.31747">
        <ele>92.8</ele>
        <time>2023-05-23T11:55:53Z</time>
      </trkpt>
      <trkpt lat="49.04424" lon="-0.31743">
        <ele>93</ele>
        <time>2023-05-23T11:55:54Z</time>
      </trkpt>
      <trkpt lat="49.04419" lon="-0.31738">
        <ele>93</ele>
        <time>2023-05-23T11:55:55Z</time>
      </trkpt>
      <trkpt lat="49.04415" lon="-0.31733">
        <ele>93</ele>
        <time>2023-05-23T11:55:56Z</time>
      </trkpt>
      <trkpt lat="49.0441" lon="-0.31727">
        <ele>93</ele>
        <time>2023-05-23T11:55:57Z</time>
      </trkpt>
      <trkpt lat="49.04406" lon="-0.3172">
        <ele>93</ele>
        <time>2023-05-23T11:55:58Z</time>
      </trkpt>
      <trkpt lat="49.04402" lon="-0.31714">
        <ele>93</ele>
        <time>2023-05-23T11:55:59Z</time>
      </trkpt>
      <trkpt lat="49.04398" lon="-0.31707">
        <ele>93</ele>
        <time>2023-05-23T11:56:00Z</time>
      </trkpt>
      <trkpt lat="49.04394" lon="-0.317">
        <ele>93</ele>
        <time>2023-05-23T11:56:01Z</time>
      </trkpt>
      <trkpt lat="49.04391" lon="-0.31693">
        <ele>93</ele>
        <time>2023-05-23T11:56:02Z</time>
      </trkpt>
      <trkpt lat="49.04387" lon="-0.31686">
        <ele>93</ele>
        <time>2023-05-23T11:56:03Z</time>
      </trkpt>
      <trkpt lat="49.04384" lon="-0.31679">
        <ele>93</ele>
        <time>2023-05-23T11:56:04Z</time>
      </trkpt>
      <trkpt lat="49.04381" lon="-0.31671">
        <ele>93</ele>
        <time>2023-05-23T11:56:05Z</time>
      </trkpt>
      <trkpt lat="49.04378" lon="-0.31664">
        <ele>93</ele>
        <time>2023-05-23T11:56:06Z</time>
      </trkpt>
      <trkpt lat="49.04374" lon="-0.31657">
        <ele>93</ele>
        <time>2023-05-23T11:56:07Z</time>
      </trkpt>
      <trkpt lat="49.04371" lon="-0.31649">
        <ele>93.2</ele>
        <time>2023-05-23T11:56:08Z</time>
      </trkpt>
      <trkpt lat="49.04369" lon="-0.31642">
        <ele>93.4</ele>
        <time>2023-05-23T11:56:09Z</time>
      </trkpt>
      <trkpt lat="49.04367" lon="-0.31634">
        <ele>93.4</ele>
        <time>2023-05-23T11:56:10Z</time>
      </trkpt>
      <trkpt lat="49.04367" lon="-0.31627">
        <ele>93.6</ele>
        <time>2023-05-23T11:56:11Z</time>
      </trkpt>
      <trkpt lat="49.04369" lon="-0.31621">
        <ele>93.6</ele>
        <time>2023-05-23T11:56:12Z</time>
      </trkpt>
      <trkpt lat="49.04372" lon="-0.31616">
        <ele>93.6</ele>
        <time>2023-05-23T11:56:13Z</time>
      </trkpt>
      <trkpt lat="49.04376" lon="-0.31611">
        <ele>93.6</ele>
        <time>2023-05-23T11:56:14Z</time>
      </trkpt>
      <trkpt lat="49.0438" lon="-0.31606">
        <ele>93.6</ele>
        <time>2023-05-23T11:56:15Z</time>
      </trkpt>
      <trkpt lat="49.04384" lon="-0.31601">
        <ele>93.8</ele>
        <time>2023-05-23T11:56:16Z</time>
      </trkpt>
      <trkpt lat="49.04388" lon="-0.31596">
        <ele>93.8</ele>
        <time>2023-05-23T11:56:17Z</time>
      </trkpt>
      <trkpt lat="49.04392" lon="-0.31591">
        <ele>94</ele>
        <time>2023-05-23T11:56:18Z</time>
      </trkpt>
      <trkpt lat="49.04395" lon="-0.31586">
        <ele>94</ele>
        <time>2023-05-23T11:56:19Z</time>
      </trkpt>
      <trkpt lat="49.04399" lon="-0.31579">
        <ele>94</ele>
        <time>2023-05-23T11:56:20Z</time>
      </trkpt>
      <trkpt lat="49.04402" lon="-0.31573">
        <ele>94.4</ele>
        <time>2023-05-23T11:56:21Z</time>
      </trkpt>
      <trkpt lat="49.04405" lon="-0.31566">
        <ele>94.4</ele>
        <time>2023-05-23T11:56:22Z</time>
      </trkpt>
      <trkpt lat="49.04408" lon="-0.3156">
        <ele>94.6</ele>
        <time>2023-05-23T11:56:23Z</time>
      </trkpt>
      <trkpt lat="49.04411" lon="-0.31553">
        <ele>94.8</ele>
        <time>2023-05-23T11:56:24Z</time>
      </trkpt>
      <trkpt lat="49.04414" lon="-0.31546">
        <ele>95</ele>
        <time>2023-05-23T11:56:25Z</time>
      </trkpt>
      <trkpt lat="49.04416" lon="-0.31539">
        <ele>95</ele>
        <time>2023-05-23T11:56:26Z</time>
      </trkpt>
      <trkpt lat="49.04419" lon="-0.31532">
        <ele>95.2</ele>
        <time>2023-05-23T11:56:27Z</time>
      </trkpt>
      <trkpt lat="49.04422" lon="-0.31524">
        <ele>95.4</ele>
        <time>2023-05-23T11:56:28Z</time>
      </trkpt>
      <trkpt lat="49.04425" lon="-0.31517">
        <ele>95.6</ele>
        <time>2023-05-23T11:56:29Z</time>
      </trkpt>
      <trkpt lat="49.04428" lon="-0.3151">
        <ele>95.8</ele>
        <time>2023-05-23T11:56:30Z</time>
      </trkpt>
      <trkpt lat="49.04431" lon="-0.31503">
        <ele>96</ele>
        <time>2023-05-23T11:56:31Z</time>
      </trkpt>
      <trkpt lat="49.04434" lon="-0.31495">
        <ele>96</ele>
        <time>2023-05-23T11:56:32Z</time>
      </trkpt>
      <trkpt lat="49.04437" lon="-0.31488">
        <ele>96</ele>
        <time>2023-05-23T11:56:33Z</time>
      </trkpt>
      <trkpt lat="49.04439" lon="-0.31481">
        <ele>96</ele>
        <time>2023-05-23T11:56:34Z</time>
      </trkpt>
      <trkpt lat="49.04442" lon="-0.31474">
        <ele>96</ele>
        <time>2023-05-23T11:56:35Z</time>
      </trkpt>
      <trkpt lat="49.04446" lon="-0.31467">
        <ele>96</ele>
        <time>2023-05-23T11:56:36Z</time>
      </trkpt>
      <trkpt lat="49.04448" lon="-0.3146">
        <ele>95.8</ele>
        <time>2023-05-23T11:56:37Z</time>
      </trkpt>
      <trkpt lat="49.04448" lon="-0.31452">
        <ele>95.8</ele>
        <time>2023-05-23T11:56:38Z</time>
      </trkpt>
      <trkpt lat="49.04446" lon="-0.31446">
        <ele>95.8</ele>
        <time>2023-05-23T11:56:39Z</time>
      </trkpt>
      <trkpt lat="49.04443" lon="-0.31442">
        <ele>95.8</ele>
        <time>2023-05-23T11:56:40Z</time>
      </trkpt>
      <trkpt lat="49.04439" lon="-0.31438">
        <ele>95.8</ele>
        <time>2023-05-23T11:56:41Z</time>
      </trkpt>
      <trkpt lat="49.04434" lon="-0.31434">
        <ele>95.8</ele>
        <time>2023-05-23T11:56:42Z</time>
      </trkpt>
      <trkpt lat="49.04429" lon="-0.3143">
        <ele>96</ele>
        <time>2023-05-23T11:56:43Z</time>
      </trkpt>
      <trkpt lat="49.04424" lon="-0.31426">
        <ele>96</ele>
        <time>2023-05-23T11:56:44Z</time>
      </trkpt>
      <trkpt lat="49.04419" lon="-0.31422">
        <ele>96</ele>
        <time>2023-05-23T11:56:45Z</time>
      </trkpt>
      <trkpt lat="49.04413" lon="-0.31418">
        <ele>96</ele>
        <time>2023-05-23T11:56:46Z</time>
      </trkpt>
      <trkpt lat="49.04408" lon="-0.31414">
        <ele>96.4</ele>
        <time>2023-05-23T11:56:47Z</time>
      </trkpt>
      <trkpt lat="49.04403" lon="-0.3141">
        <ele>96.6</ele>
        <time>2023-05-23T11:56:48Z</time>
      </trkpt>
      <trkpt lat="49.04398" lon="-0.31406">
        <ele>96.6</ele>
        <time>2023-05-23T11:56:49Z</time>
      </trkpt>
      <trkpt lat="49.04394" lon="-0.31403">
        <ele>96.8</ele>
        <time>2023-05-23T11:56:50Z</time>
      </trkpt>
      <trkpt lat="49.04389" lon="-0.31399">
        <ele>97</ele>
        <time>2023-05-23T11:56:51Z</time>
      </trkpt>
      <trkpt lat="49.04386" lon="-0.31397">
        <ele>97</ele>
        <time>2023-05-23T11:56:52Z</time>
      </trkpt>
      <trkpt lat="49.04383" lon="-0.31394">
        <ele>97.2</ele>
        <time>2023-05-23T11:56:53Z</time>
      </trkpt>
      <trkpt lat="49.04382" lon="-0.31391">
        <ele>97.4</ele>
        <time>2023-05-23T11:56:54Z</time>
      </trkpt>
      <trkpt lat="49.04382" lon="-0.3139">
        <ele>97.4</ele>
        <time>2023-05-23T11:56:55Z</time>
      </trkpt>
      <trkpt lat="49.04383" lon="-0.3139">
        <ele>97.4</ele>
        <time>2023-05-23T11:56:56Z</time>
      </trkpt>
      <trkpt lat="49.04383" lon="-0.31391">
        <ele>97.4</ele>
        <time>2023-05-23T11:56:57Z</time>
      </trkpt>
      <trkpt lat="49.04383" lon="-0.31392">
        <ele>97.4</ele>
        <time>2023-05-23T11:56:58Z</time>
      </trkpt>
      <trkpt lat="49.04383" lon="-0.31392">
        <ele>97.4</ele>
        <time>2023-05-23T11:56:59Z</time>
      </trkpt>
      <trkpt lat="49.04383" lon="-0.31392">
        <ele>97.4</ele>
        <time>2023-05-23T11:57:00Z</time>
      </trkpt>
      <trkpt lat="49.04383" lon="-0.31392">
        <ele>97.4</ele>
        <time>2023-05-23T11:57:01Z</time>
      </trkpt>
      <trkpt lat="49.04383" lon="-0.31392">
        <ele>97.4</ele>
        <time>2023-05-23T11:57:02Z</time>
      </trkpt>
      <trkpt lat="49.04383" lon="-0.31392">
        <ele>97.4</ele>
        <time>2023-05-23T11:57:03Z</time>
      </trkpt>
      <trkpt lat="49.04389" lon="-0.3134">
        <ele>98.2</ele>
        <time>2023-05-23T12:40:17Z</time>
      </trkpt>
      <trkpt lat="49.04389" lon="-0.3134">
        <ele>98.2</ele>
        <time>2023-05-23T12:40:18Z</time>
      </trkpt>
      <trkpt lat="49.04389" lon="-0.31338">
        <ele>98.2</ele>
        <time>2023-05-23T12:40:19Z</time>
      </trkpt>
      <trkpt lat="49.0439" lon="-0.31337">
        <ele>98.2</ele>
        <time>2023-05-23T12:40:20Z</time>
      </trkpt>
      <trkpt lat="49.0439" lon="-0.31337">
        <ele>98.4</ele>
        <time>2023-05-23T12:40:21Z</time>
      </trkpt>
      <trkpt lat="49.0439" lon="-0.31336">
        <ele>98.4</ele>
        <time>2023-05-23T12:40:22Z</time>
      </trkpt>
      <trkpt lat="49.0439" lon="-0.31336">
        <ele>98.4</ele>
        <time>2023-05-23T12:40:23Z</time>
      </trkpt>
      <trkpt lat="49.0439" lon="-0.31338">
        <ele>98.2</ele>
        <time>2023-05-23T12:40:24Z</time>
      </trkpt>
      <trkpt lat="49.0439" lon="-0.31338">
        <ele>98.2</ele>
        <time>2023-05-23T12:40:25Z</time>
      </trkpt>
      <trkpt lat="49.04389" lon="-0.31339">
        <ele>98.2</ele>
        <time>2023-05-23T12:40:26Z</time>
      </trkpt>
      <trkpt lat="49.04389" lon="-0.31339">
        <ele>98.2</ele>
        <time>2023-05-23T12:40:27Z</time>
      </trkpt>
      <trkpt lat="49.04389" lon="-0.31339">
        <ele>98.2</ele>
        <time>2023-05-23T12:40:28Z</time>
      </trkpt>
      <trkpt lat="49.04389" lon="-0.31339">
        <ele>98.2</ele>
        <time>2023-05-23T12:40:29Z</time>
      </trkpt>
      <trkpt lat="49.04389" lon="-0.31339">
        <ele>98.2</ele>
        <time>2023-05-23T12:40:30Z</time>
      </trkpt>
      <trkpt lat="49.04389" lon="-0.31339">
        <ele>98.2</ele>
        <time>2023-05-23T12:40:31Z</time>
      </trkpt>
      <trkpt lat="49.04389" lon="-0.31339">
        <ele>98.2</ele>
        <time>2023-05-23T12:40:32Z</time>
      </trkpt>
      <trkpt lat="49.04389" lon="-0.31339">
        <ele>98.2</ele>
        <time>2023-05-23T12:40:33Z</time>
      </trkpt>
      <trkpt lat="49.04389" lon="-0.31339">
        <ele>98.2</ele>
        <time>2023-05-23T12:40:34Z</time>
      </trkpt>
      <trkpt lat="49.04389" lon="-0.31339">
        <ele>98.2</ele>
        <time>2023-05-23T12:40:35Z</time>
      </trkpt>
      <trkpt lat="49.04389" lon="-0.31339">
        <ele>98.2</ele>
        <time>2023-05-23T12:40:36Z</time>
      </trkpt>
      <trkpt lat="49.04389" lon="-0.31339">
        <ele>98.2</ele>
        <time>2023-05-23T12:40:37Z</time>
      </trkpt>
      <trkpt lat="49.04389" lon="-0.31339">
        <ele>98.2</ele>
        <time>2023-05-23T12:40:38Z</time>
      </trkpt>
      <trkpt lat="49.04389" lon="-0.3134">
        <ele>98.2</ele>
        <time>2023-05-23T12:40:39Z</time>
      </trkpt>
      <trkpt lat="49.04388" lon="-0.31341">
        <ele>98.2</ele>
        <time>2023-05-23T12:40:40Z</time>
      </trkpt>
      <trkpt lat="49.04388" lon="-0.31343">
        <ele>98.2</ele>
        <time>2023-05-23T12:40:41Z</time>
      </trkpt>
      <trkpt lat="49.04387" lon="-0.31345">
        <ele>98</ele>
        <time>2023-05-23T12:40:42Z</time>
      </trkpt>
      <trkpt lat="49.04387" lon="-0.31347">
        <ele>98</ele>
        <time>2023-05-23T12:40:43Z</time>
      </trkpt>
      <trkpt lat="49.04386" lon="-0.31349">
        <ele>98</ele>
        <time>2023-05-23T12:40:44Z</time>
      </trkpt>
      <trkpt lat="49.04385" lon="-0.31351">
        <ele>98</ele>
        <time>2023-05-23T12:40:45Z</time>
      </trkpt>
      <trkpt lat="49.04383" lon="-0.31351">
        <ele>98</ele>
        <time>2023-05-23T12:40:46Z</time>
      </trkpt>
      <trkpt lat="49.04382" lon="-0.31351">
        <ele>98</ele>
        <time>2023-05-23T12:40:47Z</time>
      </trkpt>
      <trkpt lat="49.04381" lon="-0.3135">
        <ele>98</ele>
        <time>2023-05-23T12:40:48Z</time>
      </trkpt>
      <trkpt lat="49.0438" lon="-0.3135">
        <ele>98</ele>
        <time>2023-05-23T12:40:49Z</time>
      </trkpt>
      <trkpt lat="49.0438" lon="-0.31349">
        <ele>98</ele>
        <time>2023-05-23T12:40:50Z</time>
      </trkpt>
      <trkpt lat="49.04379" lon="-0.31349">
        <ele>98.2</ele>
        <time>2023-05-23T12:40:51Z</time>
      </trkpt>
      <trkpt lat="49.04379" lon="-0.31349">
        <ele>98.2</ele>
        <time>2023-05-23T12:40:52Z</time>
      </trkpt>
      <trkpt lat="49.04379" lon="-0.31348">
        <ele>98.2</ele>
        <time>2023-05-23T12:40:53Z</time>
      </trkpt>
      <trkpt lat="49.04379" lon="-0.31348">
        <ele>98.2</ele>
        <time>2023-05-23T12:40:54Z</time>
      </trkpt>
      <trkpt lat="49.04379" lon="-0.31348">
        <ele>98.2</ele>
        <time>2023-05-23T12:40:55Z</time>
      </trkpt>
      <trkpt lat="49.04379" lon="-0.31348">
        <ele>98.2</ele>
        <time>2023-05-23T12:40:56Z</time>
      </trkpt>
      <trkpt lat="49.04379" lon="-0.31348">
        <ele>98.2</ele>
        <time>2023-05-23T12:40:57Z</time>
      </trkpt>
      <trkpt lat="49.04379" lon="-0.31348">
        <ele>98.2</ele>
        <time>2023-05-23T12:40:58Z</time>
      </trkpt>
      <trkpt lat="49.04379" lon="-0.31348">
        <ele>98.2</ele>
        <time>2023-05-23T12:40:59Z</time>
      </trkpt>
      <trkpt lat="49.04379" lon="-0.31348">
        <ele>98.2</ele>
        <time>2023-05-23T12:41:00Z</time>
      </trkpt>
      <trkpt lat="49.04379" lon="-0.31348">
        <ele>98.2</ele>
        <time>2023-05-23T12:41:01Z</time>
      </trkpt>
      <trkpt lat="49.04379" lon="-0.31348">
        <ele>98.2</ele>
        <time>2023-05-23T12:41:02Z</time>
      </trkpt>
      <trkpt lat="49.04379" lon="-0.31348">
        <ele>98.2</ele>
        <time>2023-05-23T12:41:03Z</time>
      </trkpt>
      <trkpt lat="49.04379" lon="-0.31348">
        <ele>98.2</ele>
        <time>2023-05-23T12:41:04Z</time>
      </trkpt>
      <trkpt lat="49.04379" lon="-0.31348">
        <ele>98.2</ele>
        <time>2023-05-23T12:41:05Z</time>
      </trkpt>
      <trkpt lat="49.04379" lon="-0.31348">
        <ele>98.2</ele>
        <time>2023-05-23T12:41:06Z</time>
      </trkpt>
      <trkpt lat="49.04379" lon="-0.31348">
        <ele>98.2</ele>
        <time>2023-05-23T12:41:07Z</time>
      </trkpt>
      <trkpt lat="49.04379" lon="-0.31348">
        <ele>98.2</ele>
        <time>2023-05-23T12:41:08Z</time>
      </trkpt>
      <trkpt lat="49.04379" lon="-0.31348">
        <ele>98.2</ele>
        <time>2023-05-23T12:41:09Z</time>
      </trkpt>
      <trkpt lat="49.04379" lon="-0.31348">
        <ele>98.2</ele>
        <time>2023-05-23T12:41:10Z</time>
      </trkpt>
      <trkpt lat="49.04379" lon="-0.31348">
        <ele>98.2</ele>
        <time>2023-05-23T12:41:11Z</time>
      </trkpt>
      <trkpt lat="49.04379" lon="-0.31348">
        <ele>98.2</ele>
        <time>2023-05-23T12:41:12Z</time>
      </trkpt>
      <trkpt lat="49.04379" lon="-0.31348">
        <ele>98.2</ele>
        <time>2023-05-23T12:41:13Z</time>
      </trkpt>
      <trkpt lat="49.04379" lon="-0.31348">
        <ele>98.2</ele>
        <time>2023-05-23T12:41:14Z</time>
      </trkpt>
      <trkpt lat="49.04379" lon="-0.31348">
        <ele>98.2</ele>
        <time>2023-05-23T12:41:15Z</time>
      </trkpt>
      <trkpt lat="49.04379" lon="-0.31348">
        <ele>98.2</ele>
        <time>2023-05-23T12:41:16Z</time>
      </trkpt>
      <trkpt lat="49.04379" lon="-0.31348">
        <ele>98.2</ele>
        <time>2023-05-23T12:41:17Z</time>
      </trkpt>
      <trkpt lat="49.04379" lon="-0.31348">
        <ele>98.2</ele>
        <time>2023-05-23T12:41:18Z</time>
      </trkpt>
      <trkpt lat="49.04379" lon="-0.31348">
        <ele>98.2</ele>
        <time>2023-05-23T12:41:19Z</time>
      </trkpt>
      <trkpt lat="49.04379" lon="-0.31348">
        <ele>98.2</ele>
        <time>2023-05-23T12:41:20Z</time>
      </trkpt>
      <trkpt lat="49.04379" lon="-0.31348">
        <ele>98.2</ele>
        <time>2023-05-23T12:41:21Z</time>
      </trkpt>
      <trkpt lat="49.04379" lon="-0.31348">
        <ele>98.2</ele>
        <time>2023-05-23T12:41:22Z</time>
      </trkpt>
      <trkpt lat="49.04379" lon="-0.31348">
        <ele>98.2</ele>
        <time>2023-05-23T12:41:23Z</time>
      </trkpt>
      <trkpt lat="49.04379" lon="-0.31348">
        <ele>98.2</ele>
        <time>2023-05-23T12:41:24Z</time>
      </trkpt>
      <trkpt lat="49.04379" lon="-0.31348">
        <ele>98.2</ele>
        <time>2023-05-23T12:41:25Z</time>
      </trkpt>
      <trkpt lat="49.04379" lon="-0.31348">
        <ele>98.2</ele>
        <time>2023-05-23T12:41:26Z</time>
      </trkpt>
      <trkpt lat="49.04379" lon="-0.31348">
        <ele>98.2</ele>
        <time>2023-05-23T12:41:27Z</time>
      </trkpt>
      <trkpt lat="49.04379" lon="-0.31348">
        <ele>98.2</ele>
        <time>2023-05-23T12:41:28Z</time>
      </trkpt>
      <trkpt lat="49.04379" lon="-0.31348">
        <ele>98.2</ele>
        <time>2023-05-23T12:41:29Z</time>
      </trkpt>
      <trkpt lat="49.04379" lon="-0.31348">
        <ele>98.2</ele>
        <time>2023-05-23T12:41:30Z</time>
      </trkpt>
      <trkpt lat="49.04379" lon="-0.31348">
        <ele>98.2</ele>
        <time>2023-05-23T12:41:31Z</time>
      </trkpt>
      <trkpt lat="49.04379" lon="-0.31348">
        <ele>98.2</ele>
        <time>2023-05-23T12:41:32Z</time>
      </trkpt>
      <trkpt lat="49.04379" lon="-0.31348">
        <ele>98.2</ele>
        <time>2023-05-23T12:41:33Z</time>
      </trkpt>
      <trkpt lat="49.04379" lon="-0.31348">
        <ele>98.2</ele>
        <time>2023-05-23T12:41:34Z</time>
      </trkpt>
      <trkpt lat="49.04379" lon="-0.31348">
        <ele>98.2</ele>
        <time>2023-05-23T12:41:35Z</time>
      </trkpt>
      <trkpt lat="49.04379" lon="-0.31348">
        <ele>98.2</ele>
        <time>2023-05-23T12:41:36Z</time>
      </trkpt>
      <trkpt lat="49.04379" lon="-0.31348">
        <ele>98.2</ele>
        <time>2023-05-23T12:41:37Z</time>
      </trkpt>
      <trkpt lat="49.04379" lon="-0.31348">
        <ele>98.2</ele>
        <time>2023-05-23T12:41:38Z</time>
      </trkpt>
      <trkpt lat="49.04379" lon="-0.31348">
        <ele>98.2</ele>
        <time>2023-05-23T12:41:39Z</time>
      </trkpt>
      <trkpt lat="49.04378" lon="-0.31349">
        <ele>98.2</ele>
        <time>2023-05-23T12:41:40Z</time>
      </trkpt>
      <trkpt lat="49.04378" lon="-0.31351">
        <ele>98</ele>
        <time>2023-05-23T12:41:41Z</time>
      </trkpt>
      <trkpt lat="49.04378" lon="-0.31353">
        <ele>98</ele>
        <time>2023-05-23T12:41:42Z</time>
      </trkpt>
      <trkpt lat="49.04378" lon="-0.31356">
        <ele>98</ele>
        <time>2023-05-23T12:41:43Z</time>
      </trkpt>
      <trkpt lat="49.04377" lon="-0.3136">
        <ele>98</ele>
        <time>2023-05-23T12:41:44Z</time>
      </trkpt>
      <trkpt lat="49.04376" lon="-0.31365">
        <ele>98</ele>
        <time>2023-05-23T12:41:45Z</time>
      </trkpt>
      <trkpt lat="49.04375" lon="-0.3137">
        <ele>97.8</ele>
        <time>2023-05-23T12:41:46Z</time>
      </trkpt>
      <trkpt lat="49.04375" lon="-0.31376">
        <ele>97.6</ele>
        <time>2023-05-23T12:41:47Z</time>
      </trkpt>
      <trkpt lat="49.04377" lon="-0.31381">
        <ele>97.6</ele>
        <time>2023-05-23T12:41:48Z</time>
      </trkpt>
      <trkpt lat="49.0438" lon="-0.31386">
        <ele>97.6</ele>
        <time>2023-05-23T12:41:49Z</time>
      </trkpt>
      <trkpt lat="49.04384" lon="-0.3139">
        <ele>97.4</ele>
        <time>2023-05-23T12:41:50Z</time>
      </trkpt>
      <trkpt lat="49.04389" lon="-0.31394">
        <ele>97</ele>
        <time>2023-05-23T12:41:51Z</time>
      </trkpt>
      <trkpt lat="49.04395" lon="-0.31399">
        <ele>97</ele>
        <time>2023-05-23T12:41:52Z</time>
      </trkpt>
      <trkpt lat="49.04401" lon="-0.31403">
        <ele>96.6</ele>
        <time>2023-05-23T12:41:53Z</time>
      </trkpt>
      <trkpt lat="49.04406" lon="-0.31407">
        <ele>96.6</ele>
        <time>2023-05-23T12:41:54Z</time>
      </trkpt>
      <trkpt lat="49.04412" lon="-0.31412">
        <ele>96.2</ele>
        <time>2023-05-23T12:41:55Z</time>
      </trkpt>
      <trkpt lat="49.04417" lon="-0.31416">
        <ele>96</ele>
        <time>2023-05-23T12:41:56Z</time>
      </trkpt>
      <trkpt lat="49.04422" lon="-0.3142">
        <ele>96</ele>
        <time>2023-05-23T12:41:57Z</time>
      </trkpt>
      <trkpt lat="49.04428" lon="-0.31425">
        <ele>96</ele>
        <time>2023-05-23T12:41:58Z</time>
      </trkpt>
      <trkpt lat="49.04433" lon="-0.31428">
        <ele>95.8</ele>
        <time>2023-05-23T12:41:59Z</time>
      </trkpt>
      <trkpt lat="49.04438" lon="-0.31432">
        <ele>95.8</ele>
        <time>2023-05-23T12:42:00Z</time>
      </trkpt>
      <trkpt lat="49.04443" lon="-0.31435">
        <ele>95.8</ele>
        <time>2023-05-23T12:42:01Z</time>
      </trkpt>
      <trkpt lat="49.04447" lon="-0.3144">
        <ele>95.6</ele>
        <time>2023-05-23T12:42:02Z</time>
      </trkpt>
      <trkpt lat="49.0445" lon="-0.31445">
        <ele>95.6</ele>
        <time>2023-05-23T12:42:03Z</time>
      </trkpt>
      <trkpt lat="49.04452" lon="-0.31451">
        <ele>95.8</ele>
        <time>2023-05-23T12:42:04Z</time>
      </trkpt>
      <trkpt lat="49.04451" lon="-0.31457">
        <ele>95.8</ele>
        <time>2023-05-23T12:42:05Z</time>
      </trkpt>
      <trkpt lat="49.04449" lon="-0.31464">
        <ele>95.8</ele>
        <time>2023-05-23T12:42:06Z</time>
      </trkpt>
      <trkpt lat="49.04446" lon="-0.31471">
        <ele>96</ele>
        <time>2023-05-23T12:42:07Z</time>
      </trkpt>
      <trkpt lat="49.04443" lon="-0.31478">
        <ele>96</ele>
        <time>2023-05-23T12:42:08Z</time>
      </trkpt>
      <trkpt lat="49.0444" lon="-0.31485">
        <ele>96</ele>
        <time>2023-05-23T12:42:09Z</time>
      </trkpt>
      <trkpt lat="49.04437" lon="-0.31493">
        <ele>96</ele>
        <time>2023-05-23T12:42:10Z</time>
      </trkpt>
      <trkpt lat="49.04434" lon="-0.315">
        <ele>96</ele>
        <time>2023-05-23T12:42:11Z</time>
      </trkpt>
      <trkpt lat="49.04431" lon="-0.31508">
        <ele>95.8</ele>
        <time>2023-05-23T12:42:12Z</time>
      </trkpt>
      <trkpt lat="49.04428" lon="-0.31515">
        <ele>95.6</ele>
        <time>2023-05-23T12:42:13Z</time>
      </trkpt>
      <trkpt lat="49.04425" lon="-0.31523">
        <ele>95.6</ele>
        <time>2023-05-23T12:42:14Z</time>
      </trkpt>
      <trkpt lat="49.04422" lon="-0.3153">
        <ele>95.4</ele>
        <time>2023-05-23T12:42:15Z</time>
      </trkpt>
      <trkpt lat="49.0442" lon="-0.31538">
        <ele>95</ele>
        <time>2023-05-23T12:42:16Z</time>
      </trkpt>
      <trkpt lat="49.04417" lon="-0.31545">
        <ele>95</ele>
        <time>2023-05-23T12:42:17Z</time>
      </trkpt>
      <trkpt lat="49.04414" lon="-0.31553">
        <ele>94.8</ele>
        <time>2023-05-23T12:42:18Z</time>
      </trkpt>
      <trkpt lat="49.04411" lon="-0.3156">
        <ele>94.6</ele>
        <time>2023-05-23T12:42:19Z</time>
      </trkpt>
      <trkpt lat="49.04408" lon="-0.31567">
        <ele>94.4</ele>
        <time>2023-05-23T12:42:20Z</time>
      </trkpt>
      <trkpt lat="49.04404" lon="-0.31574">
        <ele>94.2</ele>
        <time>2023-05-23T12:42:21Z</time>
      </trkpt>
      <trkpt lat="49.04401" lon="-0.31581">
        <ele>94</ele>
        <time>2023-05-23T12:42:22Z</time>
      </trkpt>
      <trkpt lat="49.04397" lon="-0.31587">
        <ele>94</ele>
        <time>2023-05-23T12:42:23Z</time>
      </trkpt>
      <trkpt lat="49.04393" lon="-0.31592">
        <ele>94</ele>
        <time>2023-05-23T12:42:24Z</time>
      </trkpt>
      <trkpt lat="49.04388" lon="-0.31597">
        <ele>93.8</ele>
        <time>2023-05-23T12:42:25Z</time>
      </trkpt>
      <trkpt lat="49.04384" lon="-0.31601">
        <ele>93.8</ele>
        <time>2023-05-23T12:42:26Z</time>
      </trkpt>
      <trkpt lat="49.0438" lon="-0.31606">
        <ele>93.6</ele>
        <time>2023-05-23T12:42:27Z</time>
      </trkpt>
      <trkpt lat="49.04376" lon="-0.31611">
        <ele>93.6</ele>
        <time>2023-05-23T12:42:28Z</time>
      </trkpt>
      <trkpt lat="49.04372" lon="-0.31615">
        <ele>93.6</ele>
        <time>2023-05-23T12:42:29Z</time>
      </trkpt>
      <trkpt lat="49.04368" lon="-0.31618">
        <ele>93.6</ele>
        <time>2023-05-23T12:42:30Z</time>
      </trkpt>
      <trkpt lat="49.04364" lon="-0.31621">
        <ele>93.6</ele>
        <time>2023-05-23T12:42:31Z</time>
      </trkpt>
      <trkpt lat="49.0436" lon="-0.31625">
        <ele>93.6</ele>
        <time>2023-05-23T12:42:32Z</time>
      </trkpt>
      <trkpt lat="49.04356" lon="-0.31629">
        <ele>93.4</ele>
        <time>2023-05-23T12:42:33Z</time>
      </trkpt>
      <trkpt lat="49.04352" lon="-0.31635">
        <ele>93.4</ele>
        <time>2023-05-23T12:42:34Z</time>
      </trkpt>
      <trkpt lat="49.04348" lon="-0.31642">
        <ele>93.4</ele>
        <time>2023-05-23T12:42:35Z</time>
      </trkpt>
      <trkpt lat="49.04346" lon="-0.3165">
        <ele>93.2</ele>
        <time>2023-05-23T12:42:36Z</time>
      </trkpt>
      <trkpt lat="49.04343" lon="-0.31659">
        <ele>93</ele>
        <time>2023-05-23T12:42:37Z</time>
      </trkpt>
      <trkpt lat="49.04341" lon="-0.31668">
        <ele>93</ele>
        <time>2023-05-23T12:42:38Z</time>
      </trkpt>
      <trkpt lat="49.04339" lon="-0.31676">
        <ele>93</ele>
        <time>2023-05-23T12:42:39Z</time>
      </trkpt>
      <trkpt lat="49.04336" lon="-0.31685">
        <ele>93.2</ele>
        <time>2023-05-23T12:42:40Z</time>
      </trkpt>
      <trkpt lat="49.04334" lon="-0.31693">
        <ele>93.4</ele>
        <time>2023-05-23T12:42:41Z</time>
      </trkpt>
      <trkpt lat="49.04332" lon="-0.31702">
        <ele>93.4</ele>
        <time>2023-05-23T12:42:42Z</time>
      </trkpt>
      <trkpt lat="49.04329" lon="-0.3171">
        <ele>93.6</ele>
        <time>2023-05-23T12:42:43Z</time>
      </trkpt>
      <trkpt lat="49.04327" lon="-0.31719">
        <ele>93.6</ele>
        <time>2023-05-23T12:42:44Z</time>
      </trkpt>
      <trkpt lat="49.04324" lon="-0.31727">
        <ele>93.8</ele>
        <time>2023-05-23T12:42:45Z</time>
      </trkpt>
      <trkpt lat="49.04321" lon="-0.31735">
        <ele>94</ele>
        <time>2023-05-23T12:42:46Z</time>
      </trkpt>
      <trkpt lat="49.04317" lon="-0.31741">
        <ele>94</ele>
        <time>2023-05-23T12:42:47Z</time>
      </trkpt>
      <trkpt lat="49.04313" lon="-0.31747">
        <ele>94.2</ele>
        <time>2023-05-23T12:42:48Z</time>
      </trkpt>
      <trkpt lat="49.04311" lon="-0.31754">
        <ele>94.4</ele>
        <time>2023-05-23T12:42:49Z</time>
      </trkpt>
      <trkpt lat="49.0431" lon="-0.3176">
        <ele>94.4</ele>
        <time>2023-05-23T12:42:50Z</time>
      </trkpt>
      <trkpt lat="49.0431" lon="-0.31767">
        <ele>94.4</ele>
        <time>2023-05-23T12:42:51Z</time>
      </trkpt>
      <trkpt lat="49.04311" lon="-0.31775">
        <ele>94.4</ele>
        <time>2023-05-23T12:42:52Z</time>
      </trkpt>
      <trkpt lat="49.04312" lon="-0.31782">
        <ele>94.4</ele>
        <time>2023-05-23T12:42:53Z</time>
      </trkpt>
      <trkpt lat="49.04313" lon="-0.3179">
        <ele>94.2</ele>
        <time>2023-05-23T12:42:54Z</time>
      </trkpt>
      <trkpt lat="49.04314" lon="-0.31798">
        <ele>94.2</ele>
        <time>2023-05-23T12:42:55Z</time>
      </trkpt>
      <trkpt lat="49.04315" lon="-0.31806">
        <ele>94.2</ele>
        <time>2023-05-23T12:42:56Z</time>
      </trkpt>
      <trkpt lat="49.04317" lon="-0.31815">
        <ele>94.2</ele>
        <time>2023-05-23T12:42:57Z</time>
      </trkpt>
      <trkpt lat="49.04318" lon="-0.31823">
        <ele>94.2</ele>
        <time>2023-05-23T12:42:58Z</time>
      </trkpt>
      <trkpt lat="49.04319" lon="-0.31832">
        <ele>94.2</ele>
        <time>2023-05-23T12:42:59Z</time>
      </trkpt>
      <trkpt lat="49.04321" lon="-0.31841">
        <ele>94</ele>
        <time>2023-05-23T12:43:00Z</time>
      </trkpt>
      <trkpt lat="49.04322" lon="-0.3185">
        <ele>94</ele>
        <time>2023-05-23T12:43:01Z</time>
      </trkpt>
      <trkpt lat="49.04323" lon="-0.31859">
        <ele>93.8</ele>
        <time>2023-05-23T12:43:02Z</time>
      </trkpt>
      <trkpt lat="49.04324" lon="-0.31868">
        <ele>93.6</ele>
        <time>2023-05-23T12:43:03Z</time>
      </trkpt>
      <trkpt lat="49.04325" lon="-0.31877">
        <ele>93.6</ele>
        <time>2023-05-23T12:43:04Z</time>
      </trkpt>
      <trkpt lat="49.04326" lon="-0.31886">
        <ele>93.6</ele>
        <time>2023-05-23T12:43:05Z</time>
      </trkpt>
      <trkpt lat="49.04327" lon="-0.31894">
        <ele>93.4</ele>
        <time>2023-05-23T12:43:06Z</time>
      </trkpt>
      <trkpt lat="49.04329" lon="-0.31903">
        <ele>93.2</ele>
        <time>2023-05-23T12:43:07Z</time>
      </trkpt>
      <trkpt lat="49.04331" lon="-0.31911">
        <ele>93</ele>
        <time>2023-05-23T12:43:08Z</time>
      </trkpt>
      <trkpt lat="49.04335" lon="-0.31918">
        <ele>93</ele>
        <time>2023-05-23T12:43:09Z</time>
      </trkpt>
      <trkpt lat="49.04339" lon="-0.31924">
        <ele>93</ele>
        <time>2023-05-23T12:43:10Z</time>
      </trkpt>
      <trkpt lat="49.04343" lon="-0.31931">
        <ele>93</ele>
        <time>2023-05-23T12:43:11Z</time>
      </trkpt>
      <trkpt lat="49.04347" lon="-0.31937">
        <ele>93</ele>
        <time>2023-05-23T12:43:12Z</time>
      </trkpt>
      <trkpt lat="49.0435" lon="-0.31944">
        <ele>93</ele>
        <time>2023-05-23T12:43:13Z</time>
      </trkpt>
      <trkpt lat="49.04352" lon="-0.31953">
        <ele>93</ele>
        <time>2023-05-23T12:43:14Z</time>
      </trkpt>
      <trkpt lat="49.04352" lon="-0.31961">
        <ele>93</ele>
        <time>2023-05-23T12:43:15Z</time>
      </trkpt>
      <trkpt lat="49.04351" lon="-0.31968">
        <ele>93</ele>
        <time>2023-05-23T12:43:16Z</time>
      </trkpt>
      <trkpt lat="49.04347" lon="-0.31975">
        <ele>93</ele>
        <time>2023-05-23T12:43:17Z</time>
      </trkpt>
      <trkpt lat="49.04343" lon="-0.3198">
        <ele>93</ele>
        <time>2023-05-23T12:43:18Z</time>
      </trkpt>
      <trkpt lat="49.0434" lon="-0.31987">
        <ele>93</ele>
        <time>2023-05-23T12:43:19Z</time>
      </trkpt>
      <trkpt lat="49.0434" lon="-0.31995">
        <ele>93</ele>
        <time>2023-05-23T12:43:20Z</time>
      </trkpt>
      <trkpt lat="49.0434" lon="-0.32004">
        <ele>93</ele>
        <time>2023-05-23T12:43:21Z</time>
      </trkpt>
      <trkpt lat="49.04342" lon="-0.32012">
        <ele>93</ele>
        <time>2023-05-23T12:43:22Z</time>
      </trkpt>
      <trkpt lat="49.04343" lon="-0.32021">
        <ele>92.8</ele>
        <time>2023-05-23T12:43:23Z</time>
      </trkpt>
      <trkpt lat="49.04344" lon="-0.3203">
        <ele>92.6</ele>
        <time>2023-05-23T12:43:24Z</time>
      </trkpt>
      <trkpt lat="49.04344" lon="-0.32039">
        <ele>92.6</ele>
        <time>2023-05-23T12:43:25Z</time>
      </trkpt>
      <trkpt lat="49.04345" lon="-0.32048">
        <ele>92.4</ele>
        <time>2023-05-23T12:43:26Z</time>
      </trkpt>
      <trkpt lat="49.04346" lon="-0.32058">
        <ele>92.4</ele>
        <time>2023-05-23T12:43:27Z</time>
      </trkpt>
      <trkpt lat="49.04347" lon="-0.32068">
        <ele>92.2</ele>
        <time>2023-05-23T12:43:28Z</time>
      </trkpt>
      <trkpt lat="49.04348" lon="-0.32077">
        <ele>92</ele>
        <time>2023-05-23T12:43:29Z</time>
      </trkpt>
      <trkpt lat="49.0435" lon="-0.32087">
        <ele>92</ele>
        <time>2023-05-23T12:43:30Z</time>
      </trkpt>
      <trkpt lat="49.04352" lon="-0.32096">
        <ele>91.6</ele>
        <time>2023-05-23T12:43:31Z</time>
      </trkpt>
      <trkpt lat="49.04354" lon="-0.32106">
        <ele>91.2</ele>
        <time>2023-05-23T12:43:32Z</time>
      </trkpt>
      <trkpt lat="49.04356" lon="-0.32115">
        <ele>91</ele>
        <time>2023-05-23T12:43:33Z</time>
      </trkpt>
      <trkpt lat="49.04358" lon="-0.32125">
        <ele>90.6</ele>
        <time>2023-05-23T12:43:34Z</time>
      </trkpt>
      <trkpt lat="49.04361" lon="-0.32134">
        <ele>90.2</ele>
        <time>2023-05-23T12:43:35Z</time>
      </trkpt>
      <trkpt lat="49.04363" lon="-0.32144">
        <ele>89.8</ele>
        <time>2023-05-23T12:43:36Z</time>
      </trkpt>
      <trkpt lat="49.04365" lon="-0.32153">
        <ele>89.6</ele>
        <time>2023-05-23T12:43:37Z</time>
      </trkpt>
      <trkpt lat="49.04367" lon="-0.32163">
        <ele>89</ele>
        <time>2023-05-23T12:43:38Z</time>
      </trkpt>
      <trkpt lat="49.04369" lon="-0.32172">
        <ele>89</ele>
        <time>2023-05-23T12:43:39Z</time>
      </trkpt>
      <trkpt lat="49.04371" lon="-0.32181">
        <ele>88.6</ele>
        <time>2023-05-23T12:43:40Z</time>
      </trkpt>
      <trkpt lat="49.04373" lon="-0.3219">
        <ele>88.4</ele>
        <time>2023-05-23T12:43:41Z</time>
      </trkpt>
      <trkpt lat="49.04375" lon="-0.32199">
        <ele>88.2</ele>
        <time>2023-05-23T12:43:42Z</time>
      </trkpt>
      <trkpt lat="49.04378" lon="-0.32208">
        <ele>88</ele>
        <time>2023-05-23T12:43:43Z</time>
      </trkpt>
      <trkpt lat="49.04381" lon="-0.32216">
        <ele>88</ele>
        <time>2023-05-23T12:43:44Z</time>
      </trkpt>
      <trkpt lat="49.04384" lon="-0.32225">
        <ele>87.8</ele>
        <time>2023-05-23T12:43:45Z</time>
      </trkpt>
      <trkpt lat="49.04389" lon="-0.32233">
        <ele>87.6</ele>
        <time>2023-05-23T12:43:46Z</time>
      </trkpt>
      <trkpt lat="49.04394" lon="-0.3224">
        <ele>87.6</ele>
        <time>2023-05-23T12:43:47Z</time>
      </trkpt>
      <trkpt lat="49.044" lon="-0.32246">
        <ele>87.6</ele>
        <time>2023-05-23T12:43:48Z</time>
      </trkpt>
      <trkpt lat="49.04406" lon="-0.32251">
        <ele>87.6</ele>
        <time>2023-05-23T12:43:49Z</time>
      </trkpt>
      <trkpt lat="49.04412" lon="-0.32256">
        <ele>87.6</ele>
        <time>2023-05-23T12:43:50Z</time>
      </trkpt>
      <trkpt lat="49.04419" lon="-0.3226">
        <ele>87.6</ele>
        <time>2023-05-23T12:43:51Z</time>
      </trkpt>
      <trkpt lat="49.04426" lon="-0.32263">
        <ele>87.4</ele>
        <time>2023-05-23T12:43:52Z</time>
      </trkpt>
      <trkpt lat="49.04432" lon="-0.32266">
        <ele>87</ele>
        <time>2023-05-23T12:43:53Z</time>
      </trkpt>
      <trkpt lat="49.04439" lon="-0.32268">
        <ele>87</ele>
        <time>2023-05-23T12:43:54Z</time>
      </trkpt>
      <trkpt lat="49.04446" lon="-0.32268">
        <ele>86.8</ele>
        <time>2023-05-23T12:43:55Z</time>
      </trkpt>
      <trkpt lat="49.04453" lon="-0.32269">
        <ele>86.6</ele>
        <time>2023-05-23T12:43:56Z</time>
      </trkpt>
      <trkpt lat="49.0446" lon="-0.32269">
        <ele>86.6</ele>
        <time>2023-05-23T12:43:57Z</time>
      </trkpt>
      <trkpt lat="49.04466" lon="-0.32268">
        <ele>86.6</ele>
        <time>2023-05-23T12:43:58Z</time>
      </trkpt>
      <trkpt lat="49.04473" lon="-0.32267">
        <ele>86.6</ele>
        <time>2023-05-23T12:43:59Z</time>
      </trkpt>
      <trkpt lat="49.0448" lon="-0.32266">
        <ele>86.6</ele>
        <time>2023-05-23T12:44:00Z</time>
      </trkpt>
      <trkpt lat="49.04486" lon="-0.32264">
        <ele>86.6</ele>
        <time>2023-05-23T12:44:01Z</time>
      </trkpt>
      <trkpt lat="49.04492" lon="-0.32262">
        <ele>86.6</ele>
        <time>2023-05-23T12:44:02Z</time>
      </trkpt>
      <trkpt lat="49.04499" lon="-0.32261">
        <ele>86.6</ele>
        <time>2023-05-23T12:44:03Z</time>
      </trkpt>
      <trkpt lat="49.04505" lon="-0.32259">
        <ele>86.6</ele>
        <time>2023-05-23T12:44:04Z</time>
      </trkpt>
      <trkpt lat="49.04511" lon="-0.32257">
        <ele>86.4</ele>
        <time>2023-05-23T12:44:05Z</time>
      </trkpt>
      <trkpt lat="49.04518" lon="-0.32256">
        <ele>86.4</ele>
        <time>2023-05-23T12:44:06Z</time>
      </trkpt>
      <trkpt lat="49.04524" lon="-0.32254">
        <ele>86.2</ele>
        <time>2023-05-23T12:44:07Z</time>
      </trkpt>
      <trkpt lat="49.0453" lon="-0.32253">
        <ele>86</ele>
        <time>2023-05-23T12:44:08Z</time>
      </trkpt>
      <trkpt lat="49.04537" lon="-0.32253">
        <ele>86</ele>
        <time>2023-05-23T12:44:09Z</time>
      </trkpt>
      <trkpt lat="49.04543" lon="-0.32253">
        <ele>86</ele>
        <time>2023-05-23T12:44:10Z</time>
      </trkpt>
      <trkpt lat="49.0455" lon="-0.32253">
        <ele>85.6</ele>
        <time>2023-05-23T12:44:11Z</time>
      </trkpt>
      <trkpt lat="49.04557" lon="-0.32255">
        <ele>85.6</ele>
        <time>2023-05-23T12:44:12Z</time>
      </trkpt>
      <trkpt lat="49.04564" lon="-0.32257">
        <ele>85.4</ele>
        <time>2023-05-23T12:44:13Z</time>
      </trkpt>
      <trkpt lat="49.0457" lon="-0.3226">
        <ele>85</ele>
        <time>2023-05-23T12:44:14Z</time>
      </trkpt>
      <trkpt lat="49.04577" lon="-0.32263">
        <ele>84.8</ele>
        <time>2023-05-23T12:44:15Z</time>
      </trkpt>
      <trkpt lat="49.04583" lon="-0.32268">
        <ele>84.6</ele>
        <time>2023-05-23T12:44:16Z</time>
      </trkpt>
      <trkpt lat="49.0459" lon="-0.32273">
        <ele>84</ele>
        <time>2023-05-23T12:44:17Z</time>
      </trkpt>
      <trkpt lat="49.04596" lon="-0.32279">
        <ele>83.6</ele>
        <time>2023-05-23T12:44:18Z</time>
      </trkpt>
      <trkpt lat="49.04601" lon="-0.32286">
        <ele>83</ele>
        <time>2023-05-23T12:44:19Z</time>
      </trkpt>
      <trkpt lat="49.04607" lon="-0.32293">
        <ele>82.6</ele>
        <time>2023-05-23T12:44:20Z</time>
      </trkpt>
      <trkpt lat="49.04612" lon="-0.32301">
        <ele>82</ele>
        <time>2023-05-23T12:44:21Z</time>
      </trkpt>
      <trkpt lat="49.04616" lon="-0.32309">
        <ele>81.6</ele>
        <time>2023-05-23T12:44:22Z</time>
      </trkpt>
      <trkpt lat="49.0462" lon="-0.32317">
        <ele>81.2</ele>
        <time>2023-05-23T12:44:23Z</time>
      </trkpt>
      <trkpt lat="49.04624" lon="-0.32324">
        <ele>80.8</ele>
        <time>2023-05-23T12:44:24Z</time>
      </trkpt>
      <trkpt lat="49.04627" lon="-0.3233">
        <ele>80.4</ele>
        <time>2023-05-23T12:44:25Z</time>
      </trkpt>
      <trkpt lat="49.04631" lon="-0.32335">
        <ele>80</ele>
        <time>2023-05-23T12:44:26Z</time>
      </trkpt>
      <trkpt lat="49.04634" lon="-0.32338">
        <ele>79.6</ele>
        <time>2023-05-23T12:44:27Z</time>
      </trkpt>
      <trkpt lat="49.04636" lon="-0.3234">
        <ele>79.4</ele>
        <time>2023-05-23T12:44:28Z</time>
      </trkpt>
      <trkpt lat="49.04637" lon="-0.32343">
        <ele>79.2</ele>
        <time>2023-05-23T12:44:29Z</time>
      </trkpt>
      <trkpt lat="49.04638" lon="-0.32348">
        <ele>78.8</ele>
        <time>2023-05-23T12:44:30Z</time>
      </trkpt>
      <trkpt lat="49.04638" lon="-0.32355">
        <ele>78.4</ele>
        <time>2023-05-23T12:44:31Z</time>
      </trkpt>
      <trkpt lat="49.04636" lon="-0.32362">
        <ele>78</ele>
        <time>2023-05-23T12:44:32Z</time>
      </trkpt>
      <trkpt lat="49.04634" lon="-0.3237">
        <ele>77.6</ele>
        <time>2023-05-23T12:44:33Z</time>
      </trkpt>
      <trkpt lat="49.04632" lon="-0.32379">
        <ele>77.4</ele>
        <time>2023-05-23T12:44:34Z</time>
      </trkpt>
      <trkpt lat="49.0463" lon="-0.3239">
        <ele>76.8</ele>
        <time>2023-05-23T12:44:35Z</time>
      </trkpt>
      <trkpt lat="49.04627" lon="-0.324">
        <ele>76.4</ele>
        <time>2023-05-23T12:44:36Z</time>
      </trkpt>
      <trkpt lat="49.04624" lon="-0.32412">
        <ele>75.8</ele>
        <time>2023-05-23T12:44:37Z</time>
      </trkpt>
      <trkpt lat="49.0462" lon="-0.32424">
        <ele>75</ele>
        <time>2023-05-23T12:44:38Z</time>
      </trkpt>
      <trkpt lat="49.04616" lon="-0.32437">
        <ele>74.2</ele>
        <time>2023-05-23T12:44:39Z</time>
      </trkpt>
      <trkpt lat="49.04611" lon="-0.3245">
        <ele>73.4</ele>
        <time>2023-05-23T12:44:40Z</time>
      </trkpt>
      <trkpt lat="49.04605" lon="-0.32462">
        <ele>72.4</ele>
        <time>2023-05-23T12:44:41Z</time>
      </trkpt>
      <trkpt lat="49.04598" lon="-0.32474">
        <ele>71.6</ele>
        <time>2023-05-23T12:44:42Z</time>
      </trkpt>
      <trkpt lat="49.0459" lon="-0.32485">
        <ele>71</ele>
        <time>2023-05-23T12:44:43Z</time>
      </trkpt>
      <trkpt lat="49.04581" lon="-0.32496">
        <ele>70.4</ele>
        <time>2023-05-23T12:44:44Z</time>
      </trkpt>
      <trkpt lat="49.04572" lon="-0.32506">
        <ele>69.4</ele>
        <time>2023-05-23T12:44:45Z</time>
      </trkpt>
      <trkpt lat="49.04562" lon="-0.32515">
        <ele>68.4</ele>
        <time>2023-05-23T12:44:46Z</time>
      </trkpt>
      <trkpt lat="49.04552" lon="-0.32523">
        <ele>67.6</ele>
        <time>2023-05-23T12:44:47Z</time>
      </trkpt>
      <trkpt lat="49.0454" lon="-0.32531">
        <ele>66.6</ele>
        <time>2023-05-23T12:44:48Z</time>
      </trkpt>
      <trkpt lat="49.04528" lon="-0.32537">
        <ele>66</ele>
        <time>2023-05-23T12:44:49Z</time>
      </trkpt>
      <trkpt lat="49.04516" lon="-0.32543">
        <ele>65.4</ele>
        <time>2023-05-23T12:44:50Z</time>
      </trkpt>
      <trkpt lat="49.04504" lon="-0.32549">
        <ele>64.6</ele>
        <time>2023-05-23T12:44:51Z</time>
      </trkpt>
      <trkpt lat="49.04491" lon="-0.32555">
        <ele>64</ele>
        <time>2023-05-23T12:44:52Z</time>
      </trkpt>
      <trkpt lat="49.04478" lon="-0.3256">
        <ele>63.4</ele>
        <time>2023-05-23T12:44:53Z</time>
      </trkpt>
      <trkpt lat="49.04466" lon="-0.32564">
        <ele>62.8</ele>
        <time>2023-05-23T12:44:54Z</time>
      </trkpt>
      <trkpt lat="49.04453" lon="-0.32567">
        <ele>62.2</ele>
        <time>2023-05-23T12:44:55Z</time>
      </trkpt>
      <trkpt lat="49.0444" lon="-0.3257">
        <ele>61.8</ele>
        <time>2023-05-23T12:44:56Z</time>
      </trkpt>
      <trkpt lat="49.04427" lon="-0.32572">
        <ele>61.6</ele>
        <time>2023-05-23T12:44:57Z</time>
      </trkpt>
      <trkpt lat="49.04414" lon="-0.32572">
        <ele>61.2</ele>
        <time>2023-05-23T12:44:58Z</time>
      </trkpt>
      <trkpt lat="49.04402" lon="-0.32571">
        <ele>61</ele>
        <time>2023-05-23T12:44:59Z</time>
      </trkpt>
      <trkpt lat="49.0439" lon="-0.32568">
        <ele>61</ele>
        <time>2023-05-23T12:45:00Z</time>
      </trkpt>
      <trkpt lat="49.0438" lon="-0.32563">
        <ele>61.2</ele>
        <time>2023-05-23T12:45:01Z</time>
      </trkpt>
      <trkpt lat="49.04369" lon="-0.32556">
        <ele>61.6</ele>
        <time>2023-05-23T12:45:02Z</time>
      </trkpt>
      <trkpt lat="49.04359" lon="-0.32548">
        <ele>62</ele>
        <time>2023-05-23T12:45:03Z</time>
      </trkpt>
      <trkpt lat="49.0435" lon="-0.32539">
        <ele>62.4</ele>
        <time>2023-05-23T12:45:04Z</time>
      </trkpt>
      <trkpt lat="49.04341" lon="-0.3253">
        <ele>63</ele>
        <time>2023-05-23T12:45:05Z</time>
      </trkpt>
      <trkpt lat="49.04332" lon="-0.3252">
        <ele>63.2</ele>
        <time>2023-05-23T12:45:06Z</time>
      </trkpt>
      <trkpt lat="49.04324" lon="-0.32511">
        <ele>63.6</ele>
        <time>2023-05-23T12:45:07Z</time>
      </trkpt>
      <trkpt lat="49.04316" lon="-0.32502">
        <ele>63.6</ele>
        <time>2023-05-23T12:45:08Z</time>
      </trkpt>
      <trkpt lat="49.04309" lon="-0.32495">
        <ele>64</ele>
        <time>2023-05-23T12:45:09Z</time>
      </trkpt>
      <trkpt lat="49.04303" lon="-0.32487">
        <ele>64</ele>
        <time>2023-05-23T12:45:10Z</time>
      </trkpt>
      <trkpt lat="49.04297" lon="-0.32481">
        <ele>64.2</ele>
        <time>2023-05-23T12:45:11Z</time>
      </trkpt>
      <trkpt lat="49.04292" lon="-0.32478">
        <ele>64</ele>
        <time>2023-05-23T12:45:12Z</time>
      </trkpt>
      <trkpt lat="49.04286" lon="-0.32479">
        <ele>63.4</ele>
        <time>2023-05-23T12:45:13Z</time>
      </trkpt>
      <trkpt lat="49.04283" lon="-0.32484">
        <ele>62.8</ele>
        <time>2023-05-23T12:45:14Z</time>
      </trkpt>
      <trkpt lat="49.04283" lon="-0.3249">
        <ele>62.2</ele>
        <time>2023-05-23T12:45:15Z</time>
      </trkpt>
      <trkpt lat="49.04284" lon="-0.32496">
        <ele>61.8</ele>
        <time>2023-05-23T12:45:16Z</time>
      </trkpt>
      <trkpt lat="49.04286" lon="-0.32503">
        <ele>61.6</ele>
        <time>2023-05-23T12:45:17Z</time>
      </trkpt>
      <trkpt lat="49.04287" lon="-0.3251">
        <ele>61.6</ele>
        <time>2023-05-23T12:45:18Z</time>
      </trkpt>
      <trkpt lat="49.04289" lon="-0.32517">
        <ele>61.6</ele>
        <time>2023-05-23T12:45:19Z</time>
      </trkpt>
      <trkpt lat="49.04291" lon="-0.32525">
        <ele>61.4</ele>
        <time>2023-05-23T12:45:20Z</time>
      </trkpt>
      <trkpt lat="49.04294" lon="-0.32532">
        <ele>61.2</ele>
        <time>2023-05-23T12:45:21Z</time>
      </trkpt>
      <trkpt lat="49.04297" lon="-0.32539">
        <ele>61</ele>
        <time>2023-05-23T12:45:22Z</time>
      </trkpt>
      <trkpt lat="49.043" lon="-0.32546">
        <ele>61</ele>
        <time>2023-05-23T12:45:23Z</time>
      </trkpt>
      <trkpt lat="49.04304" lon="-0.32553">
        <ele>60.8</ele>
        <time>2023-05-23T12:45:24Z</time>
      </trkpt>
      <trkpt lat="49.04308" lon="-0.32559">
        <ele>60.4</ele>
        <time>2023-05-23T12:45:25Z</time>
      </trkpt>
      <trkpt lat="49.04312" lon="-0.32565">
        <ele>60</ele>
        <time>2023-05-23T12:45:26Z</time>
      </trkpt>
      <trkpt lat="49.04317" lon="-0.32571">
        <ele>59.6</ele>
        <time>2023-05-23T12:45:27Z</time>
      </trkpt>
      <trkpt lat="49.04321" lon="-0.32577">
        <ele>59</ele>
        <time>2023-05-23T12:45:28Z</time>
      </trkpt>
      <trkpt lat="49.04326" lon="-0.32583">
        <ele>58.4</ele>
        <time>2023-05-23T12:45:29Z</time>
      </trkpt>
      <trkpt lat="49.0433" lon="-0.32589">
        <ele>58.2</ele>
        <time>2023-05-23T12:45:30Z</time>
      </trkpt>
      <trkpt lat="49.04334" lon="-0.32594">
        <ele>58.2</ele>
        <time>2023-05-23T12:45:31Z</time>
      </trkpt>
      <trkpt lat="49.04339" lon="-0.326">
        <ele>58.6</ele>
        <time>2023-05-23T12:45:32Z</time>
      </trkpt>
      <trkpt lat="49.04343" lon="-0.32606">
        <ele>58.6</ele>
        <time>2023-05-23T12:45:33Z</time>
      </trkpt>
      <trkpt lat="49.04348" lon="-0.32611">
        <ele>58.8</ele>
        <time>2023-05-23T12:45:34Z</time>
      </trkpt>
      <trkpt lat="49.04353" lon="-0.32616">
        <ele>58.8</ele>
        <time>2023-05-23T12:45:35Z</time>
      </trkpt>
      <trkpt lat="49.04357" lon="-0.3262">
        <ele>58.8</ele>
        <time>2023-05-23T12:45:36Z</time>
      </trkpt>
      <trkpt lat="49.04361" lon="-0.32624">
        <ele>58.8</ele>
        <time>2023-05-23T12:45:37Z</time>
      </trkpt>
      <trkpt lat="49.04365" lon="-0.32628">
        <ele>58.6</ele>
        <time>2023-05-23T12:45:38Z</time>
      </trkpt>
      <trkpt lat="49.04368" lon="-0.3263">
        <ele>58.6</ele>
        <time>2023-05-23T12:45:39Z</time>
      </trkpt>
      <trkpt lat="49.04371" lon="-0.32632">
        <ele>58.6</ele>
        <time>2023-05-23T12:45:40Z</time>
      </trkpt>
      <trkpt lat="49.04372" lon="-0.32634">
        <ele>58.4</ele>
        <time>2023-05-23T12:45:41Z</time>
      </trkpt>
      <trkpt lat="49.04372" lon="-0.32636">
        <ele>58.4</ele>
        <time>2023-05-23T12:45:42Z</time>
      </trkpt>
      <trkpt lat="49.04371" lon="-0.32639">
        <ele>58.4</ele>
        <time>2023-05-23T12:45:43Z</time>
      </trkpt>
      <trkpt lat="49.04369" lon="-0.32642">
        <ele>58.6</ele>
        <time>2023-05-23T12:45:44Z</time>
      </trkpt>
      <trkpt lat="49.04367" lon="-0.32646">
        <ele>58.6</ele>
        <time>2023-05-23T12:45:45Z</time>
      </trkpt>
      <trkpt lat="49.04365" lon="-0.3265">
        <ele>58.6</ele>
        <time>2023-05-23T12:45:46Z</time>
      </trkpt>
      <trkpt lat="49.04363" lon="-0.32656">
        <ele>58.6</ele>
        <time>2023-05-23T12:45:47Z</time>
      </trkpt>
      <trkpt lat="49.04361" lon="-0.32661">
        <ele>58.8</ele>
        <time>2023-05-23T12:45:48Z</time>
      </trkpt>
      <trkpt lat="49.0436" lon="-0.32667">
        <ele>58.8</ele>
        <time>2023-05-23T12:45:49Z</time>
      </trkpt>
      <trkpt lat="49.04358" lon="-0.32673">
        <ele>58.8</ele>
        <time>2023-05-23T12:45:50Z</time>
      </trkpt>
      <trkpt lat="49.04356" lon="-0.32679">
        <ele>59</ele>
        <time>2023-05-23T12:45:51Z</time>
      </trkpt>
      <trkpt lat="49.04355" lon="-0.32685">
        <ele>59</ele>
        <time>2023-05-23T12:45:52Z</time>
      </trkpt>
      <trkpt lat="49.04353" lon="-0.32692">
        <ele>59</ele>
        <time>2023-05-23T12:45:53Z</time>
      </trkpt>
      <trkpt lat="49.04351" lon="-0.32698">
        <ele>59.2</ele>
        <time>2023-05-23T12:45:54Z</time>
      </trkpt>
      <trkpt lat="49.04349" lon="-0.32704">
        <ele>59.2</ele>
        <time>2023-05-23T12:45:55Z</time>
      </trkpt>
      <trkpt lat="49.04348" lon="-0.32711">
        <ele>59.4</ele>
        <time>2023-05-23T12:45:56Z</time>
      </trkpt>
      <trkpt lat="49.04346" lon="-0.32717">
        <ele>59.6</ele>
        <time>2023-05-23T12:45:57Z</time>
      </trkpt>
      <trkpt lat="49.04345" lon="-0.32722">
        <ele>59.6</ele>
        <time>2023-05-23T12:45:58Z</time>
      </trkpt>
      <trkpt lat="49.04344" lon="-0.32727">
        <ele>59.6</ele>
        <time>2023-05-23T12:45:59Z</time>
      </trkpt>
      <trkpt lat="49.04343" lon="-0.3273">
        <ele>59.6</ele>
        <time>2023-05-23T12:46:00Z</time>
      </trkpt>
      <trkpt lat="49.04341" lon="-0.32734">
        <ele>59.8</ele>
        <time>2023-05-23T12:46:01Z</time>
      </trkpt>
      <trkpt lat="49.04339" lon="-0.32737">
        <ele>59.8</ele>
        <time>2023-05-23T12:46:02Z</time>
      </trkpt>
      <trkpt lat="49.04336" lon="-0.3274">
        <ele>60</ele>
        <time>2023-05-23T12:46:03Z</time>
      </trkpt>
      <trkpt lat="49.04332" lon="-0.32742">
        <ele>60</ele>
        <time>2023-05-23T12:46:04Z</time>
      </trkpt>
      <trkpt lat="49.04328" lon="-0.32744">
        <ele>60.6</ele>
        <time>2023-05-23T12:46:05Z</time>
      </trkpt>
      <trkpt lat="49.04323" lon="-0.32745">
        <ele>61</ele>
        <time>2023-05-23T12:46:06Z</time>
      </trkpt>
      <trkpt lat="49.04319" lon="-0.32746">
        <ele>61.4</ele>
        <time>2023-05-23T12:46:07Z</time>
      </trkpt>
      <trkpt lat="49.04315" lon="-0.32747">
        <ele>61.8</ele>
        <time>2023-05-23T12:46:08Z</time>
      </trkpt>
      <trkpt lat="49.04311" lon="-0.32749">
        <ele>62.2</ele>
        <time>2023-05-23T12:46:09Z</time>
      </trkpt>
      <trkpt lat="49.04307" lon="-0.3275">
        <ele>62.6</ele>
        <time>2023-05-23T12:46:10Z</time>
      </trkpt>
      <trkpt lat="49.04303" lon="-0.32752">
        <ele>63</ele>
        <time>2023-05-23T12:46:11Z</time>
      </trkpt>
      <trkpt lat="49.04299" lon="-0.32754">
        <ele>63.2</ele>
        <time>2023-05-23T12:46:12Z</time>
      </trkpt>
      <trkpt lat="49.04296" lon="-0.32756">
        <ele>63.6</ele>
        <time>2023-05-23T12:46:13Z</time>
      </trkpt>
      <trkpt lat="49.04292" lon="-0.32757">
        <ele>64</ele>
        <time>2023-05-23T12:46:14Z</time>
      </trkpt>
      <trkpt lat="49.04289" lon="-0.32759">
        <ele>64.2</ele>
        <time>2023-05-23T12:46:15Z</time>
      </trkpt>
      <trkpt lat="49.04286" lon="-0.32761">
        <ele>64.4</ele>
        <time>2023-05-23T12:46:16Z</time>
      </trkpt>
      <trkpt lat="49.04282" lon="-0.32763">
        <ele>64.6</ele>
        <time>2023-05-23T12:46:17Z</time>
      </trkpt>
      <trkpt lat="49.04279" lon="-0.32765">
        <ele>65</ele>
        <time>2023-05-23T12:46:18Z</time>
      </trkpt>
      <trkpt lat="49.04276" lon="-0.32766">
        <ele>65</ele>
        <time>2023-05-23T12:46:19Z</time>
      </trkpt>
      <trkpt lat="49.04273" lon="-0.32768">
        <ele>65.4</ele>
        <time>2023-05-23T12:46:20Z</time>
      </trkpt>
      <trkpt lat="49.0427" lon="-0.3277">
        <ele>65.6</ele>
        <time>2023-05-23T12:46:21Z</time>
      </trkpt>
      <trkpt lat="49.04267" lon="-0.32771">
        <ele>65.6</ele>
        <time>2023-05-23T12:46:22Z</time>
      </trkpt>
      <trkpt lat="49.04264" lon="-0.32773">
        <ele>66</ele>
        <time>2023-05-23T12:46:23Z</time>
      </trkpt>
      <trkpt lat="49.04261" lon="-0.32775">
        <ele>66</ele>
        <time>2023-05-23T12:46:24Z</time>
      </trkpt>
      <trkpt lat="49.04258" lon="-0.32777">
        <ele>66.2</ele>
        <time>2023-05-23T12:46:25Z</time>
      </trkpt>
      <trkpt lat="49.04255" lon="-0.32778">
        <ele>66.4</ele>
        <time>2023-05-23T12:46:26Z</time>
      </trkpt>
      <trkpt lat="49.04252" lon="-0.3278">
        <ele>66.4</ele>
        <time>2023-05-23T12:46:27Z</time>
      </trkpt>
      <trkpt lat="49.04249" lon="-0.32782">
        <ele>66.6</ele>
        <time>2023-05-23T12:46:28Z</time>
      </trkpt>
      <trkpt lat="49.04247" lon="-0.32783">
        <ele>66.6</ele>
        <time>2023-05-23T12:46:29Z</time>
      </trkpt>
      <trkpt lat="49.04244" lon="-0.32785">
        <ele>66.8</ele>
        <time>2023-05-23T12:46:30Z</time>
      </trkpt>
      <trkpt lat="49.04241" lon="-0.32787">
        <ele>67</ele>
        <time>2023-05-23T12:46:31Z</time>
      </trkpt>
      <trkpt lat="49.04239" lon="-0.3279">
        <ele>67</ele>
        <time>2023-05-23T12:46:32Z</time>
      </trkpt>
      <trkpt lat="49.04236" lon="-0.32792">
        <ele>67</ele>
        <time>2023-05-23T12:46:33Z</time>
      </trkpt>
      <trkpt lat="49.04233" lon="-0.32794">
        <ele>67.2</ele>
        <time>2023-05-23T12:46:34Z</time>
      </trkpt>
      <trkpt lat="49.0423" lon="-0.32797">
        <ele>67.4</ele>
        <time>2023-05-23T12:46:35Z</time>
      </trkpt>
      <trkpt lat="49.04227" lon="-0.32799">
        <ele>67.6</ele>
        <time>2023-05-23T12:46:36Z</time>
      </trkpt>
      <trkpt lat="49.04224" lon="-0.32802">
        <ele>67.6</ele>
        <time>2023-05-23T12:46:37Z</time>
      </trkpt>
      <trkpt lat="49.04221" lon="-0.32805">
        <ele>67.8</ele>
        <time>2023-05-23T12:46:38Z</time>
      </trkpt>
      <trkpt lat="49.04218" lon="-0.32807">
        <ele>68</ele>
        <time>2023-05-23T12:46:39Z</time>
      </trkpt>
      <trkpt lat="49.04215" lon="-0.3281">
        <ele>68</ele>
        <time>2023-05-23T12:46:40Z</time>
      </trkpt>
      <trkpt lat="49.04212" lon="-0.32813">
        <ele>68.4</ele>
        <time>2023-05-23T12:46:41Z</time>
      </trkpt>
      <trkpt lat="49.04209" lon="-0.32817">
        <ele>68.4</ele>
        <time>2023-05-23T12:46:42Z</time>
      </trkpt>
      <trkpt lat="49.04206" lon="-0.3282">
        <ele>68.6</ele>
        <time>2023-05-23T12:46:43Z</time>
      </trkpt>
      <trkpt lat="49.04203" lon="-0.32823">
        <ele>68.8</ele>
        <time>2023-05-23T12:46:44Z</time>
      </trkpt>
      <trkpt lat="49.042" lon="-0.32826">
        <ele>69</ele>
        <time>2023-05-23T12:46:45Z</time>
      </trkpt>
      <trkpt lat="49.04197" lon="-0.3283">
        <ele>69.2</ele>
        <time>2023-05-23T12:46:46Z</time>
      </trkpt>
      <trkpt lat="49.04194" lon="-0.32833">
        <ele>69.4</ele>
        <time>2023-05-23T12:46:47Z</time>
      </trkpt>
      <trkpt lat="49.04191" lon="-0.32836">
        <ele>69.6</ele>
        <time>2023-05-23T12:46:48Z</time>
      </trkpt>
      <trkpt lat="49.04188" lon="-0.32839">
        <ele>69.8</ele>
        <time>2023-05-23T12:46:49Z</time>
      </trkpt>
      <trkpt lat="49.04186" lon="-0.32843">
        <ele>70</ele>
        <time>2023-05-23T12:46:50Z</time>
      </trkpt>
      <trkpt lat="49.04183" lon="-0.32846">
        <ele>70</ele>
        <time>2023-05-23T12:46:51Z</time>
      </trkpt>
      <trkpt lat="49.0418" lon="-0.3285">
        <ele>70.4</ele>
        <time>2023-05-23T12:46:52Z</time>
      </trkpt>
      <trkpt lat="49.04177" lon="-0.32853">
        <ele>70.4</ele>
        <time>2023-05-23T12:46:53Z</time>
      </trkpt>
      <trkpt lat="49.04175" lon="-0.32857">
        <ele>70.6</ele>
        <time>2023-05-23T12:46:54Z</time>
      </trkpt>
      <trkpt lat="49.04172" lon="-0.3286">
        <ele>70.6</ele>
        <time>2023-05-23T12:46:55Z</time>
      </trkpt>
      <trkpt lat="49.0417" lon="-0.32864">
        <ele>70.6</ele>
        <time>2023-05-23T12:46:56Z</time>
      </trkpt>
      <trkpt lat="49.04168" lon="-0.32868">
        <ele>70.6</ele>
        <time>2023-05-23T12:46:57Z</time>
      </trkpt>
      <trkpt lat="49.04165" lon="-0.32871">
        <ele>70.8</ele>
        <time>2023-05-23T12:46:58Z</time>
      </trkpt>
      <trkpt lat="49.04163" lon="-0.32875">
        <ele>71</ele>
        <time>2023-05-23T12:46:59Z</time>
      </trkpt>
      <trkpt lat="49.04161" lon="-0.32878">
        <ele>71</ele>
        <time>2023-05-23T12:47:00Z</time>
      </trkpt>
      <trkpt lat="49.04158" lon="-0.32882">
        <ele>71.2</ele>
        <time>2023-05-23T12:47:01Z</time>
      </trkpt>
      <trkpt lat="49.04155" lon="-0.32885">
        <ele>71.4</ele>
        <time>2023-05-23T12:47:02Z</time>
      </trkpt>
      <trkpt lat="49.04153" lon="-0.32888">
        <ele>71.6</ele>
        <time>2023-05-23T12:47:03Z</time>
      </trkpt>
      <trkpt lat="49.0415" lon="-0.32891">
        <ele>72</ele>
        <time>2023-05-23T12:47:04Z</time>
      </trkpt>
      <trkpt lat="49.04148" lon="-0.32894">
        <ele>72</ele>
        <time>2023-05-23T12:47:05Z</time>
      </trkpt>
      <trkpt lat="49.04145" lon="-0.32896">
        <ele>72.4</ele>
        <time>2023-05-23T12:47:06Z</time>
      </trkpt>
      <trkpt lat="49.04143" lon="-0.32899">
        <ele>72.6</ele>
        <time>2023-05-23T12:47:07Z</time>
      </trkpt>
      <trkpt lat="49.04141" lon="-0.32902">
        <ele>72.6</ele>
        <time>2023-05-23T12:47:08Z</time>
      </trkpt>
      <trkpt lat="49.04139" lon="-0.32905">
        <ele>73</ele>
        <time>2023-05-23T12:47:09Z</time>
      </trkpt>
      <trkpt lat="49.04137" lon="-0.32908">
        <ele>73</ele>
        <time>2023-05-23T12:47:10Z</time>
      </trkpt>
      <trkpt lat="49.04135" lon="-0.32912">
        <ele>73.4</ele>
        <time>2023-05-23T12:47:11Z</time>
      </trkpt>
      <trkpt lat="49.04133" lon="-0.32915">
        <ele>73.6</ele>
        <time>2023-05-23T12:47:12Z</time>
      </trkpt>
      <trkpt lat="49.0413" lon="-0.32918">
        <ele>73.8</ele>
        <time>2023-05-23T12:47:13Z</time>
      </trkpt>
      <trkpt lat="49.04128" lon="-0.32921">
        <ele>74</ele>
        <time>2023-05-23T12:47:14Z</time>
      </trkpt>
      <trkpt lat="49.04126" lon="-0.32924">
        <ele>74.4</ele>
        <time>2023-05-23T12:47:15Z</time>
      </trkpt>
      <trkpt lat="49.04123" lon="-0.32927">
        <ele>74.6</ele>
        <time>2023-05-23T12:47:16Z</time>
      </trkpt>
      <trkpt lat="49.04121" lon="-0.3293">
        <ele>75</ele>
        <time>2023-05-23T12:47:17Z</time>
      </trkpt>
      <trkpt lat="49.04118" lon="-0.32933">
        <ele>75.4</ele>
        <time>2023-05-23T12:47:18Z</time>
      </trkpt>
      <trkpt lat="49.04115" lon="-0.32936">
        <ele>75.6</ele>
        <time>2023-05-23T12:47:19Z</time>
      </trkpt>
      <trkpt lat="49.04113" lon="-0.32938">
        <ele>76</ele>
        <time>2023-05-23T12:47:20Z</time>
      </trkpt>
      <trkpt lat="49.0411" lon="-0.32941">
        <ele>76.2</ele>
        <time>2023-05-23T12:47:21Z</time>
      </trkpt>
      <trkpt lat="49.04107" lon="-0.32943">
        <ele>76.6</ele>
        <time>2023-05-23T12:47:22Z</time>
      </trkpt>
      <trkpt lat="49.04104" lon="-0.32945">
        <ele>76.6</ele>
        <time>2023-05-23T12:47:23Z</time>
      </trkpt>
      <trkpt lat="49.04102" lon="-0.32948">
        <ele>77</ele>
        <time>2023-05-23T12:47:24Z</time>
      </trkpt>
      <trkpt lat="49.04099" lon="-0.3295">
        <ele>77.2</ele>
        <time>2023-05-23T12:47:25Z</time>
      </trkpt>
      <trkpt lat="49.04096" lon="-0.32952">
        <ele>77.4</ele>
        <time>2023-05-23T12:47:26Z</time>
      </trkpt>
      <trkpt lat="49.04093" lon="-0.32955">
        <ele>77.6</ele>
        <time>2023-05-23T12:47:27Z</time>
      </trkpt>
      <trkpt lat="49.0409" lon="-0.32957">
        <ele>78</ele>
        <time>2023-05-23T12:47:28Z</time>
      </trkpt>
      <trkpt lat="49.04087" lon="-0.3296">
        <ele>78</ele>
        <time>2023-05-23T12:47:29Z</time>
      </trkpt>
      <trkpt lat="49.04084" lon="-0.32962">
        <ele>78.4</ele>
        <time>2023-05-23T12:47:30Z</time>
      </trkpt>
      <trkpt lat="49.0408" lon="-0.32965">
        <ele>78.4</ele>
        <time>2023-05-23T12:47:31Z</time>
      </trkpt>
      <trkpt lat="49.04077" lon="-0.32967">
        <ele>78.4</ele>
        <time>2023-05-23T12:47:32Z</time>
      </trkpt>
      <trkpt lat="49.04073" lon="-0.3297">
        <ele>78.4</ele>
        <time>2023-05-23T12:47:33Z</time>
      </trkpt>
      <trkpt lat="49.04069" lon="-0.32973">
        <ele>78.4</ele>
        <time>2023-05-23T12:47:34Z</time>
      </trkpt>
      <trkpt lat="49.04066" lon="-0.32975">
        <ele>78.4</ele>
        <time>2023-05-23T12:47:35Z</time>
      </trkpt>
      <trkpt lat="49.04062" lon="-0.32978">
        <ele>78.4</ele>
        <time>2023-05-23T12:47:36Z</time>
      </trkpt>
      <trkpt lat="49.04059" lon="-0.32982">
        <ele>78.4</ele>
        <time>2023-05-23T12:47:37Z</time>
      </trkpt>
      <trkpt lat="49.04055" lon="-0.32985">
        <ele>78.4</ele>
        <time>2023-05-23T12:47:38Z</time>
      </trkpt>
      <trkpt lat="49.04051" lon="-0.32988">
        <ele>78.4</ele>
        <time>2023-05-23T12:47:39Z</time>
      </trkpt>
      <trkpt lat="49.04048" lon="-0.32991">
        <ele>78.4</ele>
        <time>2023-05-23T12:47:40Z</time>
      </trkpt>
      <trkpt lat="49.04044" lon="-0.32993">
        <ele>78.4</ele>
        <time>2023-05-23T12:47:41Z</time>
      </trkpt>
      <trkpt lat="49.0404" lon="-0.32996">
        <ele>78.2</ele>
        <time>2023-05-23T12:47:42Z</time>
      </trkpt>
      <trkpt lat="49.04036" lon="-0.32998">
        <ele>78.2</ele>
        <time>2023-05-23T12:47:43Z</time>
      </trkpt>
      <trkpt lat="49.04032" lon="-0.33001">
        <ele>78.2</ele>
        <time>2023-05-23T12:47:44Z</time>
      </trkpt>
      <trkpt lat="49.04028" lon="-0.33003">
        <ele>78.4</ele>
        <time>2023-05-23T12:47:45Z</time>
      </trkpt>
      <trkpt lat="49.04024" lon="-0.33005">
        <ele>78.4</ele>
        <time>2023-05-23T12:47:46Z</time>
      </trkpt>
      <trkpt lat="49.0402" lon="-0.33007">
        <ele>78.6</ele>
        <time>2023-05-23T12:47:47Z</time>
      </trkpt>
      <trkpt lat="49.04016" lon="-0.3301">
        <ele>78.6</ele>
        <time>2023-05-23T12:47:48Z</time>
      </trkpt>
      <trkpt lat="49.04012" lon="-0.33012">
        <ele>78.6</ele>
        <time>2023-05-23T12:47:49Z</time>
      </trkpt>
      <trkpt lat="49.04009" lon="-0.33014">
        <ele>78.6</ele>
        <time>2023-05-23T12:47:50Z</time>
      </trkpt>
      <trkpt lat="49.04005" lon="-0.33016">
        <ele>78.8</ele>
        <time>2023-05-23T12:47:51Z</time>
      </trkpt>
      <trkpt lat="49.04001" lon="-0.33017">
        <ele>78.8</ele>
        <time>2023-05-23T12:47:52Z</time>
      </trkpt>
      <trkpt lat="49.03997" lon="-0.33019">
        <ele>79</ele>
        <time>2023-05-23T12:47:53Z</time>
      </trkpt>
      <trkpt lat="49.03993" lon="-0.33021">
        <ele>79.2</ele>
        <time>2023-05-23T12:47:54Z</time>
      </trkpt>
      <trkpt lat="49.03989" lon="-0.33023">
        <ele>79.6</ele>
        <time>2023-05-23T12:47:55Z</time>
      </trkpt>
      <trkpt lat="49.03985" lon="-0.33025">
        <ele>79.6</ele>
        <time>2023-05-23T12:47:56Z</time>
      </trkpt>
      <trkpt lat="49.03981" lon="-0.33026">
        <ele>80</ele>
        <time>2023-05-23T12:47:57Z</time>
      </trkpt>
      <trkpt lat="49.03977" lon="-0.33028">
        <ele>80</ele>
        <time>2023-05-23T12:47:58Z</time>
      </trkpt>
      <trkpt lat="49.03973" lon="-0.3303">
        <ele>80.4</ele>
        <time>2023-05-23T12:47:59Z</time>
      </trkpt>
      <trkpt lat="49.0397" lon="-0.33031">
        <ele>80.6</ele>
        <time>2023-05-23T12:48:00Z</time>
      </trkpt>
      <trkpt lat="49.03966" lon="-0.33033">
        <ele>80.6</ele>
        <time>2023-05-23T12:48:01Z</time>
      </trkpt>
      <trkpt lat="49.03962" lon="-0.33034">
        <ele>80.8</ele>
        <time>2023-05-23T12:48:02Z</time>
      </trkpt>
      <trkpt lat="49.03958" lon="-0.33036">
        <ele>81</ele>
        <time>2023-05-23T12:48:03Z</time>
      </trkpt>
      <trkpt lat="49.03954" lon="-0.33038">
        <ele>81.2</ele>
        <time>2023-05-23T12:48:04Z</time>
      </trkpt>
      <trkpt lat="49.03951" lon="-0.33039">
        <ele>81.4</ele>
        <time>2023-05-23T12:48:05Z</time>
      </trkpt>
      <trkpt lat="49.03947" lon="-0.33041">
        <ele>81.4</ele>
        <time>2023-05-23T12:48:06Z</time>
      </trkpt>
      <trkpt lat="49.03943" lon="-0.33042">
        <ele>81.6</ele>
        <time>2023-05-23T12:48:07Z</time>
      </trkpt>
      <trkpt lat="49.0394" lon="-0.33044">
        <ele>81.6</ele>
        <time>2023-05-23T12:48:08Z</time>
      </trkpt>
      <trkpt lat="49.03936" lon="-0.33045">
        <ele>81.8</ele>
        <time>2023-05-23T12:48:09Z</time>
      </trkpt>
      <trkpt lat="49.03932" lon="-0.33047">
        <ele>82</ele>
        <time>2023-05-23T12:48:10Z</time>
      </trkpt>
      <trkpt lat="49.03928" lon="-0.33049">
        <ele>82</ele>
        <time>2023-05-23T12:48:11Z</time>
      </trkpt>
      <trkpt lat="49.03925" lon="-0.33051">
        <ele>82</ele>
        <time>2023-05-23T12:48:12Z</time>
      </trkpt>
      <trkpt lat="49.03921" lon="-0.33053">
        <ele>82</ele>
        <time>2023-05-23T12:48:13Z</time>
      </trkpt>
      <trkpt lat="49.03917" lon="-0.33055">
        <ele>82</ele>
        <time>2023-05-23T12:48:14Z</time>
      </trkpt>
      <trkpt lat="49.03914" lon="-0.33057">
        <ele>82</ele>
        <time>2023-05-23T12:48:15Z</time>
      </trkpt>
      <trkpt lat="49.0391" lon="-0.3306">
        <ele>82.4</ele>
        <time>2023-05-23T12:48:16Z</time>
      </trkpt>
      <trkpt lat="49.03906" lon="-0.33063">
        <ele>82.4</ele>
        <time>2023-05-23T12:48:17Z</time>
      </trkpt>
      <trkpt lat="49.03902" lon="-0.33065">
        <ele>82.6</ele>
        <time>2023-05-23T12:48:18Z</time>
      </trkpt>
      <trkpt lat="49.03899" lon="-0.33068">
        <ele>82.6</ele>
        <time>2023-05-23T12:48:19Z</time>
      </trkpt>
      <trkpt lat="49.03895" lon="-0.33071">
        <ele>83</ele>
        <time>2023-05-23T12:48:20Z</time>
      </trkpt>
      <trkpt lat="49.03892" lon="-0.33074">
        <ele>83</ele>
        <time>2023-05-23T12:48:21Z</time>
      </trkpt>
      <trkpt lat="49.03888" lon="-0.33076">
        <ele>83.2</ele>
        <time>2023-05-23T12:48:22Z</time>
      </trkpt>
      <trkpt lat="49.03885" lon="-0.33079">
        <ele>83.4</ele>
        <time>2023-05-23T12:48:23Z</time>
      </trkpt>
      <trkpt lat="49.03881" lon="-0.33082">
        <ele>83.6</ele>
        <time>2023-05-23T12:48:24Z</time>
      </trkpt>
      <trkpt lat="49.03877" lon="-0.33085">
        <ele>83.6</ele>
        <time>2023-05-23T12:48:25Z</time>
      </trkpt>
      <trkpt lat="49.03874" lon="-0.33088">
        <ele>84</ele>
        <time>2023-05-23T12:48:26Z</time>
      </trkpt>
      <trkpt lat="49.0387" lon="-0.3309">
        <ele>84.4</ele>
        <time>2023-05-23T12:48:27Z</time>
      </trkpt>
      <trkpt lat="49.03867" lon="-0.33093">
        <ele>84.6</ele>
        <time>2023-05-23T12:48:28Z</time>
      </trkpt>
      <trkpt lat="49.03863" lon="-0.33096">
        <ele>84.8</ele>
        <time>2023-05-23T12:48:29Z</time>
      </trkpt>
      <trkpt lat="49.0386" lon="-0.33099">
        <ele>85</ele>
        <time>2023-05-23T12:48:30Z</time>
      </trkpt>
      <trkpt lat="49.03856" lon="-0.33101">
        <ele>85.4</ele>
        <time>2023-05-23T12:48:31Z</time>
      </trkpt>
      <trkpt lat="49.03853" lon="-0.33104">
        <ele>85.6</ele>
        <time>2023-05-23T12:48:32Z</time>
      </trkpt>
      <trkpt lat="49.03849" lon="-0.33107">
        <ele>85.8</ele>
        <time>2023-05-23T12:48:33Z</time>
      </trkpt>
      <trkpt lat="49.03846" lon="-0.33109">
        <ele>86</ele>
        <time>2023-05-23T12:48:34Z</time>
      </trkpt>
      <trkpt lat="49.03842" lon="-0.33112">
        <ele>86.2</ele>
        <time>2023-05-23T12:48:35Z</time>
      </trkpt>
      <trkpt lat="49.03838" lon="-0.33115">
        <ele>86.4</ele>
        <time>2023-05-23T12:48:36Z</time>
      </trkpt>
      <trkpt lat="49.03835" lon="-0.33117">
        <ele>86.6</ele>
        <time>2023-05-23T12:48:37Z</time>
      </trkpt>
      <trkpt lat="49.03831" lon="-0.3312">
        <ele>86.8</ele>
        <time>2023-05-23T12:48:38Z</time>
      </trkpt>
      <trkpt lat="49.03828" lon="-0.33122">
        <ele>87</ele>
        <time>2023-05-23T12:48:39Z</time>
      </trkpt>
      <trkpt lat="49.03824" lon="-0.33125">
        <ele>87</ele>
        <time>2023-05-23T12:48:40Z</time>
      </trkpt>
      <trkpt lat="49.03821" lon="-0.33127">
        <ele>87</ele>
        <time>2023-05-23T12:48:41Z</time>
      </trkpt>
      <trkpt lat="49.03817" lon="-0.3313">
        <ele>87.2</ele>
        <time>2023-05-23T12:48:42Z</time>
      </trkpt>
      <trkpt lat="49.03814" lon="-0.33132">
        <ele>87.4</ele>
        <time>2023-05-23T12:48:43Z</time>
      </trkpt>
      <trkpt lat="49.0381" lon="-0.33135">
        <ele>87.4</ele>
        <time>2023-05-23T12:48:44Z</time>
      </trkpt>
      <trkpt lat="49.03807" lon="-0.33137">
        <ele>87.6</ele>
        <time>2023-05-23T12:48:45Z</time>
      </trkpt>
      <trkpt lat="49.03803" lon="-0.3314">
        <ele>87.6</ele>
        <time>2023-05-23T12:48:46Z</time>
      </trkpt>
      <trkpt lat="49.038" lon="-0.33142">
        <ele>87.8</ele>
        <time>2023-05-23T12:48:47Z</time>
      </trkpt>
      <trkpt lat="49.03796" lon="-0.33145">
        <ele>88</ele>
        <time>2023-05-23T12:48:48Z</time>
      </trkpt>
      <trkpt lat="49.03792" lon="-0.33148">
        <ele>88</ele>
        <time>2023-05-23T12:48:49Z</time>
      </trkpt>
      <trkpt lat="49.03789" lon="-0.3315">
        <ele>88.2</ele>
        <time>2023-05-23T12:48:50Z</time>
      </trkpt>
      <trkpt lat="49.03785" lon="-0.33153">
        <ele>88.4</ele>
        <time>2023-05-23T12:48:51Z</time>
      </trkpt>
      <trkpt lat="49.03781" lon="-0.33155">
        <ele>88.4</ele>
        <time>2023-05-23T12:48:52Z</time>
      </trkpt>
      <trkpt lat="49.03778" lon="-0.33158">
        <ele>88.6</ele>
        <time>2023-05-23T12:48:53Z</time>
      </trkpt>
      <trkpt lat="49.03774" lon="-0.33161">
        <ele>88.6</ele>
        <time>2023-05-23T12:48:54Z</time>
      </trkpt>
      <trkpt lat="49.03771" lon="-0.33163">
        <ele>89</ele>
        <time>2023-05-23T12:48:55Z</time>
      </trkpt>
      <trkpt lat="49.03767" lon="-0.33166">
        <ele>89</ele>
        <time>2023-05-23T12:48:56Z</time>
      </trkpt>
      <trkpt lat="49.03763" lon="-0.33168">
        <ele>89.2</ele>
        <time>2023-05-23T12:48:57Z</time>
      </trkpt>
      <trkpt lat="49.0376" lon="-0.33171">
        <ele>89.4</ele>
        <time>2023-05-23T12:48:58Z</time>
      </trkpt>
      <trkpt lat="49.03756" lon="-0.33174">
        <ele>89.4</ele>
        <time>2023-05-23T12:48:59Z</time>
      </trkpt>
      <trkpt lat="49.03752" lon="-0.33176">
        <ele>89.6</ele>
        <time>2023-05-23T12:49:00Z</time>
      </trkpt>
      <trkpt lat="49.03748" lon="-0.33179">
        <ele>89.6</ele>
        <time>2023-05-23T12:49:01Z</time>
      </trkpt>
      <trkpt lat="49.03745" lon="-0.33181">
        <ele>89.8</ele>
        <time>2023-05-23T12:49:02Z</time>
      </trkpt>
      <trkpt lat="49.03741" lon="-0.33184">
        <ele>90</ele>
        <time>2023-05-23T12:49:03Z</time>
      </trkpt>
      <trkpt lat="49.03737" lon="-0.33186">
        <ele>90</ele>
        <time>2023-05-23T12:49:04Z</time>
      </trkpt>
      <trkpt lat="49.03734" lon="-0.33188">
        <ele>90</ele>
        <time>2023-05-23T12:49:05Z</time>
      </trkpt>
      <trkpt lat="49.0373" lon="-0.33191">
        <ele>90.2</ele>
        <time>2023-05-23T12:49:06Z</time>
      </trkpt>
      <trkpt lat="49.03726" lon="-0.33193">
        <ele>90.4</ele>
        <time>2023-05-23T12:49:07Z</time>
      </trkpt>
      <trkpt lat="49.03722" lon="-0.33196">
        <ele>90.6</ele>
        <time>2023-05-23T12:49:08Z</time>
      </trkpt>
      <trkpt lat="49.03719" lon="-0.33199">
        <ele>90.6</ele>
        <time>2023-05-23T12:49:09Z</time>
      </trkpt>
      <trkpt lat="49.03715" lon="-0.33201">
        <ele>90.8</ele>
        <time>2023-05-23T12:49:10Z</time>
      </trkpt>
      <trkpt lat="49.03711" lon="-0.33204">
        <ele>91</ele>
        <time>2023-05-23T12:49:11Z</time>
      </trkpt>
      <trkpt lat="49.03707" lon="-0.33206">
        <ele>91</ele>
        <time>2023-05-23T12:49:12Z</time>
      </trkpt>
      <trkpt lat="49.03703" lon="-0.33208">
        <ele>91.4</ele>
        <time>2023-05-23T12:49:13Z</time>
      </trkpt>
      <trkpt lat="49.03699" lon="-0.33211">
        <ele>91.6</ele>
        <time>2023-05-23T12:49:14Z</time>
      </trkpt>
      <trkpt lat="49.03695" lon="-0.33212">
        <ele>91.6</ele>
        <time>2023-05-23T12:49:15Z</time>
      </trkpt>
      <trkpt lat="49.03691" lon="-0.33214">
        <ele>92</ele>
        <time>2023-05-23T12:49:16Z</time>
      </trkpt>
      <trkpt lat="49.03687" lon="-0.33215">
        <ele>92.2</ele>
        <time>2023-05-23T12:49:17Z</time>
      </trkpt>
      <trkpt lat="49.03682" lon="-0.33216">
        <ele>92.4</ele>
        <time>2023-05-23T12:49:18Z</time>
      </trkpt>
      <trkpt lat="49.03678" lon="-0.33217">
        <ele>92.6</ele>
        <time>2023-05-23T12:49:19Z</time>
      </trkpt>
      <trkpt lat="49.03674" lon="-0.33217">
        <ele>93</ele>
        <time>2023-05-23T12:49:20Z</time>
      </trkpt>
      <trkpt lat="49.0367" lon="-0.33218">
        <ele>93.2</ele>
        <time>2023-05-23T12:49:21Z</time>
      </trkpt>
      <trkpt lat="49.03666" lon="-0.33218">
        <ele>93.4</ele>
        <time>2023-05-23T12:49:22Z</time>
      </trkpt>
      <trkpt lat="49.03662" lon="-0.33218">
        <ele>93.6</ele>
        <time>2023-05-23T12:49:23Z</time>
      </trkpt>
      <trkpt lat="49.03658" lon="-0.33219">
        <ele>93.6</ele>
        <time>2023-05-23T12:49:24Z</time>
      </trkpt>
      <trkpt lat="49.03653" lon="-0.33219">
        <ele>93.6</ele>
        <time>2023-05-23T12:49:25Z</time>
      </trkpt>
      <trkpt lat="49.03649" lon="-0.33219">
        <ele>94</ele>
        <time>2023-05-23T12:49:26Z</time>
      </trkpt>
      <trkpt lat="49.03646" lon="-0.33219">
        <ele>94</ele>
        <time>2023-05-23T12:49:27Z</time>
      </trkpt>
      <trkpt lat="49.03641" lon="-0.33219">
        <ele>94</ele>
        <time>2023-05-23T12:49:28Z</time>
      </trkpt>
      <trkpt lat="49.03637" lon="-0.33219">
        <ele>94.2</ele>
        <time>2023-05-23T12:49:29Z</time>
      </trkpt>
      <trkpt lat="49.03633" lon="-0.33219">
        <ele>94.4</ele>
        <time>2023-05-23T12:49:30Z</time>
      </trkpt>
      <trkpt lat="49.03629" lon="-0.33219">
        <ele>94.4</ele>
        <time>2023-05-23T12:49:31Z</time>
      </trkpt>
      <trkpt lat="49.03625" lon="-0.33219">
        <ele>94.6</ele>
        <time>2023-05-23T12:49:32Z</time>
      </trkpt>
      <trkpt lat="49.03622" lon="-0.33219">
        <ele>94.6</ele>
        <time>2023-05-23T12:49:33Z</time>
      </trkpt>
      <trkpt lat="49.03617" lon="-0.33219">
        <ele>94.8</ele>
        <time>2023-05-23T12:49:34Z</time>
      </trkpt>
      <trkpt lat="49.03614" lon="-0.33219">
        <ele>95</ele>
        <time>2023-05-23T12:49:35Z</time>
      </trkpt>
      <trkpt lat="49.0361" lon="-0.33218">
        <ele>95</ele>
        <time>2023-05-23T12:49:36Z</time>
      </trkpt>
      <trkpt lat="49.03606" lon="-0.33219">
        <ele>95</ele>
        <time>2023-05-23T12:49:37Z</time>
      </trkpt>
      <trkpt lat="49.03602" lon="-0.33219">
        <ele>95.2</ele>
        <time>2023-05-23T12:49:38Z</time>
      </trkpt>
      <trkpt lat="49.03598" lon="-0.33219">
        <ele>95.4</ele>
        <time>2023-05-23T12:49:39Z</time>
      </trkpt>
      <trkpt lat="49.03595" lon="-0.33219">
        <ele>95.4</ele>
        <time>2023-05-23T12:49:40Z</time>
      </trkpt>
      <trkpt lat="49.03591" lon="-0.33219">
        <ele>95.6</ele>
        <time>2023-05-23T12:49:41Z</time>
      </trkpt>
      <trkpt lat="49.03587" lon="-0.33219">
        <ele>95.6</ele>
        <time>2023-05-23T12:49:42Z</time>
      </trkpt>
      <trkpt lat="49.03583" lon="-0.33219">
        <ele>95.6</ele>
        <time>2023-05-23T12:49:43Z</time>
      </trkpt>
      <trkpt lat="49.0358" lon="-0.33219">
        <ele>95.8</ele>
        <time>2023-05-23T12:49:44Z</time>
      </trkpt>
      <trkpt lat="49.03576" lon="-0.3322">
        <ele>96</ele>
        <time>2023-05-23T12:49:45Z</time>
      </trkpt>
      <trkpt lat="49.03572" lon="-0.3322">
        <ele>96</ele>
        <time>2023-05-23T12:49:46Z</time>
      </trkpt>
      <trkpt lat="49.03569" lon="-0.33221">
        <ele>96.2</ele>
        <time>2023-05-23T12:49:47Z</time>
      </trkpt>
      <trkpt lat="49.03565" lon="-0.33221">
        <ele>96.4</ele>
        <time>2023-05-23T12:49:48Z</time>
      </trkpt>
      <trkpt lat="49.03561" lon="-0.33222">
        <ele>96.4</ele>
        <time>2023-05-23T12:49:49Z</time>
      </trkpt>
      <trkpt lat="49.03558" lon="-0.33223">
        <ele>96.6</ele>
        <time>2023-05-23T12:49:50Z</time>
      </trkpt>
      <trkpt lat="49.03554" lon="-0.33224">
        <ele>96.6</ele>
        <time>2023-05-23T12:49:51Z</time>
      </trkpt>
      <trkpt lat="49.0355" lon="-0.33225">
        <ele>96.6</ele>
        <time>2023-05-23T12:49:52Z</time>
      </trkpt>
      <trkpt lat="49.03546" lon="-0.33226">
        <ele>96.8</ele>
        <time>2023-05-23T12:49:53Z</time>
      </trkpt>
      <trkpt lat="49.03542" lon="-0.33227">
        <ele>97</ele>
        <time>2023-05-23T12:49:54Z</time>
      </trkpt>
      <trkpt lat="49.03538" lon="-0.33228">
        <ele>97</ele>
        <time>2023-05-23T12:49:55Z</time>
      </trkpt>
      <trkpt lat="49.03534" lon="-0.3323">
        <ele>97</ele>
        <time>2023-05-23T12:49:56Z</time>
      </trkpt>
      <trkpt lat="49.0353" lon="-0.33231">
        <ele>97.2</ele>
        <time>2023-05-23T12:49:57Z</time>
      </trkpt>
      <trkpt lat="49.03526" lon="-0.33232">
        <ele>97.4</ele>
        <time>2023-05-23T12:49:58Z</time>
      </trkpt>
      <trkpt lat="49.03521" lon="-0.33233">
        <ele>97.6</ele>
        <time>2023-05-23T12:49:59Z</time>
      </trkpt>
      <trkpt lat="49.03517" lon="-0.33234">
        <ele>97.6</ele>
        <time>2023-05-23T12:50:00Z</time>
      </trkpt>
      <trkpt lat="49.03513" lon="-0.33236">
        <ele>97.6</ele>
        <time>2023-05-23T12:50:01Z</time>
      </trkpt>
      <trkpt lat="49.03509" lon="-0.33237">
        <ele>97.8</ele>
        <time>2023-05-23T12:50:02Z</time>
      </trkpt>
      <trkpt lat="49.03505" lon="-0.33238">
        <ele>98</ele>
        <time>2023-05-23T12:50:03Z</time>
      </trkpt>
      <trkpt lat="49.03501" lon="-0.3324">
        <ele>98</ele>
        <time>2023-05-23T12:50:04Z</time>
      </trkpt>
      <trkpt lat="49.03497" lon="-0.33241">
        <ele>98.2</ele>
        <time>2023-05-23T12:50:05Z</time>
      </trkpt>
      <trkpt lat="49.03492" lon="-0.33242">
        <ele>98.4</ele>
        <time>2023-05-23T12:50:06Z</time>
      </trkpt>
      <trkpt lat="49.03488" lon="-0.33244">
        <ele>98.4</ele>
        <time>2023-05-23T12:50:07Z</time>
      </trkpt>
      <trkpt lat="49.03484" lon="-0.33245">
        <ele>98.4</ele>
        <time>2023-05-23T12:50:08Z</time>
      </trkpt>
      <trkpt lat="49.0348" lon="-0.33246">
        <ele>98.6</ele>
        <time>2023-05-23T12:50:09Z</time>
      </trkpt>
      <trkpt lat="49.03475" lon="-0.33248">
        <ele>98.6</ele>
        <time>2023-05-23T12:50:10Z</time>
      </trkpt>
      <trkpt lat="49.03471" lon="-0.33249">
        <ele>98.6</ele>
        <time>2023-05-23T12:50:11Z</time>
      </trkpt>
      <trkpt lat="49.03467" lon="-0.33251">
        <ele>98.8</ele>
        <time>2023-05-23T12:50:12Z</time>
      </trkpt>
      <trkpt lat="49.03462" lon="-0.33252">
        <ele>99</ele>
        <time>2023-05-23T12:50:13Z</time>
      </trkpt>
      <trkpt lat="49.03458" lon="-0.33254">
        <ele>99</ele>
        <time>2023-05-23T12:50:14Z</time>
      </trkpt>
      <trkpt lat="49.03454" lon="-0.33256">
        <ele>99</ele>
        <time>2023-05-23T12:50:15Z</time>
      </trkpt>
      <trkpt lat="49.03449" lon="-0.33257">
        <ele>99</ele>
        <time>2023-05-23T12:50:16Z</time>
      </trkpt>
      <trkpt lat="49.03445" lon="-0.33259">
        <ele>99.2</ele>
        <time>2023-05-23T12:50:17Z</time>
      </trkpt>
      <trkpt lat="49.03441" lon="-0.33261">
        <ele>99.4</ele>
        <time>2023-05-23T12:50:18Z</time>
      </trkpt>
      <trkpt lat="49.03436" lon="-0.33263">
        <ele>99.6</ele>
        <time>2023-05-23T12:50:19Z</time>
      </trkpt>
      <trkpt lat="49.03432" lon="-0.33265">
        <ele>99.6</ele>
        <time>2023-05-23T12:50:20Z</time>
      </trkpt>
      <trkpt lat="49.03428" lon="-0.33267">
        <ele>99.6</ele>
        <time>2023-05-23T12:50:21Z</time>
      </trkpt>
      <trkpt lat="49.03423" lon="-0.3327">
        <ele>99.8</ele>
        <time>2023-05-23T12:50:22Z</time>
      </trkpt>
      <trkpt lat="49.03419" lon="-0.33272">
        <ele>100</ele>
        <time>2023-05-23T12:50:23Z</time>
      </trkpt>
      <trkpt lat="49.03414" lon="-0.33274">
        <ele>100</ele>
        <time>2023-05-23T12:50:24Z</time>
      </trkpt>
      <trkpt lat="49.0341" lon="-0.33277">
        <ele>100.4</ele>
        <time>2023-05-23T12:50:25Z</time>
      </trkpt>
      <trkpt lat="49.03405" lon="-0.33279">
        <ele>100.6</ele>
        <time>2023-05-23T12:50:26Z</time>
      </trkpt>
      <trkpt lat="49.03401" lon="-0.33282">
        <ele>100.8</ele>
        <time>2023-05-23T12:50:27Z</time>
      </trkpt>
      <trkpt lat="49.03396" lon="-0.33284">
        <ele>101</ele>
        <time>2023-05-23T12:50:28Z</time>
      </trkpt>
      <trkpt lat="49.03392" lon="-0.33287">
        <ele>101.2</ele>
        <time>2023-05-23T12:50:29Z</time>
      </trkpt>
      <trkpt lat="49.03388" lon="-0.33289">
        <ele>101.4</ele>
        <time>2023-05-23T12:50:30Z</time>
      </trkpt>
      <trkpt lat="49.03383" lon="-0.33292">
        <ele>101.6</ele>
        <time>2023-05-23T12:50:31Z</time>
      </trkpt>
      <trkpt lat="49.03379" lon="-0.33294">
        <ele>101.8</ele>
        <time>2023-05-23T12:50:32Z</time>
      </trkpt>
      <trkpt lat="49.03375" lon="-0.33297">
        <ele>102</ele>
        <time>2023-05-23T12:50:33Z</time>
      </trkpt>
      <trkpt lat="49.03371" lon="-0.33299">
        <ele>102.2</ele>
        <time>2023-05-23T12:50:34Z</time>
      </trkpt>
      <trkpt lat="49.03367" lon="-0.33302">
        <ele>102.4</ele>
        <time>2023-05-23T12:50:35Z</time>
      </trkpt>
      <trkpt lat="49.03363" lon="-0.33304">
        <ele>102.6</ele>
        <time>2023-05-23T12:50:36Z</time>
      </trkpt>
      <trkpt lat="49.03359" lon="-0.33307">
        <ele>102.8</ele>
        <time>2023-05-23T12:50:37Z</time>
      </trkpt>
      <trkpt lat="49.03354" lon="-0.3331">
        <ele>103</ele>
        <time>2023-05-23T12:50:38Z</time>
      </trkpt>
      <trkpt lat="49.0335" lon="-0.33312">
        <ele>103.2</ele>
        <time>2023-05-23T12:50:39Z</time>
      </trkpt>
      <trkpt lat="49.03346" lon="-0.33315">
        <ele>103.4</ele>
        <time>2023-05-23T12:50:40Z</time>
      </trkpt>
      <trkpt lat="49.03341" lon="-0.33318">
        <ele>103.6</ele>
        <time>2023-05-23T12:50:41Z</time>
      </trkpt>
      <trkpt lat="49.03337" lon="-0.3332">
        <ele>103.8</ele>
        <time>2023-05-23T12:50:42Z</time>
      </trkpt>
      <trkpt lat="49.03333" lon="-0.33323">
        <ele>104</ele>
        <time>2023-05-23T12:50:43Z</time>
      </trkpt>
      <trkpt lat="49.03328" lon="-0.33326">
        <ele>104.2</ele>
        <time>2023-05-23T12:50:44Z</time>
      </trkpt>
      <trkpt lat="49.03324" lon="-0.33329">
        <ele>104.4</ele>
        <time>2023-05-23T12:50:45Z</time>
      </trkpt>
      <trkpt lat="49.0332" lon="-0.33331">
        <ele>104.6</ele>
        <time>2023-05-23T12:50:46Z</time>
      </trkpt>
      <trkpt lat="49.03316" lon="-0.33334">
        <ele>104.6</ele>
        <time>2023-05-23T12:50:47Z</time>
      </trkpt>
      <trkpt lat="49.03311" lon="-0.33337">
        <ele>104.6</ele>
        <time>2023-05-23T12:50:48Z</time>
      </trkpt>
      <trkpt lat="49.03307" lon="-0.3334">
        <ele>104.8</ele>
        <time>2023-05-23T12:50:49Z</time>
      </trkpt>
      <trkpt lat="49.03303" lon="-0.33342">
        <ele>105</ele>
        <time>2023-05-23T12:50:50Z</time>
      </trkpt>
      <trkpt lat="49.03299" lon="-0.33345">
        <ele>105</ele>
        <time>2023-05-23T12:50:51Z</time>
      </trkpt>
      <trkpt lat="49.03295" lon="-0.33348">
        <ele>105</ele>
        <time>2023-05-23T12:50:52Z</time>
      </trkpt>
      <trkpt lat="49.0329" lon="-0.33351">
        <ele>105.2</ele>
        <time>2023-05-23T12:50:53Z</time>
      </trkpt>
      <trkpt lat="49.03286" lon="-0.33354">
        <ele>105.4</ele>
        <time>2023-05-23T12:50:54Z</time>
      </trkpt>
      <trkpt lat="49.03282" lon="-0.33356">
        <ele>105.4</ele>
        <time>2023-05-23T12:50:55Z</time>
      </trkpt>
      <trkpt lat="49.03278" lon="-0.33359">
        <ele>105.6</ele>
        <time>2023-05-23T12:50:56Z</time>
      </trkpt>
      <trkpt lat="49.03274" lon="-0.33362">
        <ele>105.6</ele>
        <time>2023-05-23T12:50:57Z</time>
      </trkpt>
      <trkpt lat="49.0327" lon="-0.33364">
        <ele>105.6</ele>
        <time>2023-05-23T12:50:58Z</time>
      </trkpt>
      <trkpt lat="49.03265" lon="-0.33367">
        <ele>105.6</ele>
        <time>2023-05-23T12:50:59Z</time>
      </trkpt>
      <trkpt lat="49.03261" lon="-0.3337">
        <ele>105.8</ele>
        <time>2023-05-23T12:51:00Z</time>
      </trkpt>
      <trkpt lat="49.03257" lon="-0.33372">
        <ele>105.8</ele>
        <time>2023-05-23T12:51:01Z</time>
      </trkpt>
      <trkpt lat="49.03253" lon="-0.33375">
        <ele>106</ele>
        <time>2023-05-23T12:51:02Z</time>
      </trkpt>
      <trkpt lat="49.03249" lon="-0.33378">
        <ele>106</ele>
        <time>2023-05-23T12:51:03Z</time>
      </trkpt>
      <trkpt lat="49.03245" lon="-0.3338">
        <ele>106</ele>
        <time>2023-05-23T12:51:04Z</time>
      </trkpt>
      <trkpt lat="49.03241" lon="-0.33383">
        <ele>106</ele>
        <time>2023-05-23T12:51:05Z</time>
      </trkpt>
      <trkpt lat="49.03237" lon="-0.33385">
        <ele>106</ele>
        <time>2023-05-23T12:51:06Z</time>
      </trkpt>
      <trkpt lat="49.03233" lon="-0.33388">
        <ele>106</ele>
        <time>2023-05-23T12:51:07Z</time>
      </trkpt>
      <trkpt lat="49.03229" lon="-0.33391">
        <ele>106</ele>
        <time>2023-05-23T12:51:08Z</time>
      </trkpt>
      <trkpt lat="49.03224" lon="-0.33394">
        <ele>106</ele>
        <time>2023-05-23T12:51:09Z</time>
      </trkpt>
      <trkpt lat="49.0322" lon="-0.33396">
        <ele>106</ele>
        <time>2023-05-23T12:51:10Z</time>
      </trkpt>
      <trkpt lat="49.03216" lon="-0.33399">
        <ele>106</ele>
        <time>2023-05-23T12:51:11Z</time>
      </trkpt>
      <trkpt lat="49.03211" lon="-0.33402">
        <ele>106</ele>
        <time>2023-05-23T12:51:12Z</time>
      </trkpt>
      <trkpt lat="49.03207" lon="-0.33405">
        <ele>106.2</ele>
        <time>2023-05-23T12:51:13Z</time>
      </trkpt>
      <trkpt lat="49.03203" lon="-0.33408">
        <ele>106.2</ele>
        <time>2023-05-23T12:51:14Z</time>
      </trkpt>
      <trkpt lat="49.03198" lon="-0.33411">
        <ele>106.4</ele>
        <time>2023-05-23T12:51:15Z</time>
      </trkpt>
      <trkpt lat="49.03194" lon="-0.33414">
        <ele>106.4</ele>
        <time>2023-05-23T12:51:16Z</time>
      </trkpt>
      <trkpt lat="49.03189" lon="-0.33417">
        <ele>106.6</ele>
        <time>2023-05-23T12:51:17Z</time>
      </trkpt>
      <trkpt lat="49.03185" lon="-0.3342">
        <ele>106.6</ele>
        <time>2023-05-23T12:51:18Z</time>
      </trkpt>
      <trkpt lat="49.0318" lon="-0.33423">
        <ele>106.6</ele>
        <time>2023-05-23T12:51:19Z</time>
      </trkpt>
      <trkpt lat="49.03176" lon="-0.33426">
        <ele>106.8</ele>
        <time>2023-05-23T12:51:20Z</time>
      </trkpt>
      <trkpt lat="49.03172" lon="-0.33429">
        <ele>107</ele>
        <time>2023-05-23T12:51:21Z</time>
      </trkpt>
      <trkpt lat="49.03167" lon="-0.33431">
        <ele>107</ele>
        <time>2023-05-23T12:51:22Z</time>
      </trkpt>
      <trkpt lat="49.03163" lon="-0.33434">
        <ele>107</ele>
        <time>2023-05-23T12:51:23Z</time>
      </trkpt>
      <trkpt lat="49.03158" lon="-0.33437">
        <ele>107.4</ele>
        <time>2023-05-23T12:51:24Z</time>
      </trkpt>
      <trkpt lat="49.03154" lon="-0.3344">
        <ele>107.6</ele>
        <time>2023-05-23T12:51:25Z</time>
      </trkpt>
      <trkpt lat="49.03149" lon="-0.33443">
        <ele>107.6</ele>
        <time>2023-05-23T12:51:26Z</time>
      </trkpt>
      <trkpt lat="49.03145" lon="-0.33446">
        <ele>107.8</ele>
        <time>2023-05-23T12:51:27Z</time>
      </trkpt>
      <trkpt lat="49.0314" lon="-0.33449">
        <ele>108</ele>
        <time>2023-05-23T12:51:28Z</time>
      </trkpt>
      <trkpt lat="49.03136" lon="-0.33452">
        <ele>108</ele>
        <time>2023-05-23T12:51:29Z</time>
      </trkpt>
      <trkpt lat="49.03132" lon="-0.33455">
        <ele>108.4</ele>
        <time>2023-05-23T12:51:30Z</time>
      </trkpt>
      <trkpt lat="49.03127" lon="-0.33458">
        <ele>108.4</ele>
        <time>2023-05-23T12:51:31Z</time>
      </trkpt>
      <trkpt lat="49.03123" lon="-0.3346">
        <ele>108.6</ele>
        <time>2023-05-23T12:51:32Z</time>
      </trkpt>
      <trkpt lat="49.03118" lon="-0.33463">
        <ele>108.6</ele>
        <time>2023-05-23T12:51:33Z</time>
      </trkpt>
      <trkpt lat="49.03114" lon="-0.33466">
        <ele>109</ele>
        <time>2023-05-23T12:51:34Z</time>
      </trkpt>
      <trkpt lat="49.0311" lon="-0.33469">
        <ele>109</ele>
        <time>2023-05-23T12:51:35Z</time>
      </trkpt>
      <trkpt lat="49.03105" lon="-0.33472">
        <ele>109.2</ele>
        <time>2023-05-23T12:51:36Z</time>
      </trkpt>
      <trkpt lat="49.03101" lon="-0.33475">
        <ele>109.4</ele>
        <time>2023-05-23T12:51:37Z</time>
      </trkpt>
      <trkpt lat="49.03096" lon="-0.33478">
        <ele>109.6</ele>
        <time>2023-05-23T12:51:38Z</time>
      </trkpt>
      <trkpt lat="49.03092" lon="-0.33481">
        <ele>109.6</ele>
        <time>2023-05-23T12:51:39Z</time>
      </trkpt>
      <trkpt lat="49.03087" lon="-0.33484">
        <ele>110</ele>
        <time>2023-05-23T12:51:40Z</time>
      </trkpt>
      <trkpt lat="49.03083" lon="-0.33487">
        <ele>110</ele>
        <time>2023-05-23T12:51:41Z</time>
      </trkpt>
      <trkpt lat="49.03078" lon="-0.3349">
        <ele>110.2</ele>
        <time>2023-05-23T12:51:42Z</time>
      </trkpt>
      <trkpt lat="49.03074" lon="-0.33493">
        <ele>110.4</ele>
        <time>2023-05-23T12:51:43Z</time>
      </trkpt>
      <trkpt lat="49.0307" lon="-0.33495">
        <ele>110.6</ele>
        <time>2023-05-23T12:51:44Z</time>
      </trkpt>
      <trkpt lat="49.03065" lon="-0.33498">
        <ele>110.6</ele>
        <time>2023-05-23T12:51:45Z</time>
      </trkpt>
      <trkpt lat="49.03061" lon="-0.33501">
        <ele>110.8</ele>
        <time>2023-05-23T12:51:46Z</time>
      </trkpt>
      <trkpt lat="49.03057" lon="-0.33504">
        <ele>111</ele>
        <time>2023-05-23T12:51:47Z</time>
      </trkpt>
      <trkpt lat="49.03053" lon="-0.33507">
        <ele>111.2</ele>
        <time>2023-05-23T12:51:48Z</time>
      </trkpt>
      <trkpt lat="49.03048" lon="-0.33509">
        <ele>111.4</ele>
        <time>2023-05-23T12:51:49Z</time>
      </trkpt>
      <trkpt lat="49.03044" lon="-0.33512">
        <ele>111.6</ele>
        <time>2023-05-23T12:51:50Z</time>
      </trkpt>
      <trkpt lat="49.0304" lon="-0.33515">
        <ele>111.6</ele>
        <time>2023-05-23T12:51:51Z</time>
      </trkpt>
      <trkpt lat="49.03036" lon="-0.33518">
        <ele>112</ele>
        <time>2023-05-23T12:51:52Z</time>
      </trkpt>
      <trkpt lat="49.03032" lon="-0.3352">
        <ele>112</ele>
        <time>2023-05-23T12:51:53Z</time>
      </trkpt>
      <trkpt lat="49.03028" lon="-0.33523">
        <ele>112.4</ele>
        <time>2023-05-23T12:51:54Z</time>
      </trkpt>
      <trkpt lat="49.03024" lon="-0.33525">
        <ele>112.4</ele>
        <time>2023-05-23T12:51:55Z</time>
      </trkpt>
      <trkpt lat="49.03021" lon="-0.33528">
        <ele>112.6</ele>
        <time>2023-05-23T12:51:56Z</time>
      </trkpt>
      <trkpt lat="49.03017" lon="-0.3353">
        <ele>112.8</ele>
        <time>2023-05-23T12:51:57Z</time>
      </trkpt>
      <trkpt lat="49.03013" lon="-0.33533">
        <ele>113</ele>
        <time>2023-05-23T12:51:58Z</time>
      </trkpt>
      <trkpt lat="49.03009" lon="-0.33536">
        <ele>113</ele>
        <time>2023-05-23T12:51:59Z</time>
      </trkpt>
      <trkpt lat="49.03005" lon="-0.33538">
        <ele>113.4</ele>
        <time>2023-05-23T12:52:00Z</time>
      </trkpt>
      <trkpt lat="49.03001" lon="-0.33541">
        <ele>113.6</ele>
        <time>2023-05-23T12:52:01Z</time>
      </trkpt>
      <trkpt lat="49.02997" lon="-0.33543">
        <ele>113.6</ele>
        <time>2023-05-23T12:52:02Z</time>
      </trkpt>
      <trkpt lat="49.02993" lon="-0.33546">
        <ele>113.8</ele>
        <time>2023-05-23T12:52:03Z</time>
      </trkpt>
      <trkpt lat="49.02989" lon="-0.33548">
        <ele>114</ele>
        <time>2023-05-23T12:52:04Z</time>
      </trkpt>
      <trkpt lat="49.02985" lon="-0.33551">
        <ele>114</ele>
        <time>2023-05-23T12:52:05Z</time>
      </trkpt>
      <trkpt lat="49.02981" lon="-0.33553">
        <ele>114.2</ele>
        <time>2023-05-23T12:52:06Z</time>
      </trkpt>
      <trkpt lat="49.02977" lon="-0.33556">
        <ele>114.4</ele>
        <time>2023-05-23T12:52:07Z</time>
      </trkpt>
      <trkpt lat="49.02973" lon="-0.33558">
        <ele>114.4</ele>
        <time>2023-05-23T12:52:08Z</time>
      </trkpt>
      <trkpt lat="49.02969" lon="-0.33561">
        <ele>114.6</ele>
        <time>2023-05-23T12:52:09Z</time>
      </trkpt>
      <trkpt lat="49.02965" lon="-0.33563">
        <ele>114.6</ele>
        <time>2023-05-23T12:52:10Z</time>
      </trkpt>
      <trkpt lat="49.02961" lon="-0.33566">
        <ele>114.8</ele>
        <time>2023-05-23T12:52:11Z</time>
      </trkpt>
      <trkpt lat="49.02957" lon="-0.33568">
        <ele>115</ele>
        <time>2023-05-23T12:52:12Z</time>
      </trkpt>
      <trkpt lat="49.02953" lon="-0.33571">
        <ele>115</ele>
        <time>2023-05-23T12:52:13Z</time>
      </trkpt>
      <trkpt lat="49.02949" lon="-0.33573">
        <ele>115.2</ele>
        <time>2023-05-23T12:52:14Z</time>
      </trkpt>
      <trkpt lat="49.02944" lon="-0.33576">
        <ele>115.4</ele>
        <time>2023-05-23T12:52:15Z</time>
      </trkpt>
      <trkpt lat="49.0294" lon="-0.33578">
        <ele>115.4</ele>
        <time>2023-05-23T12:52:16Z</time>
      </trkpt>
      <trkpt lat="49.02936" lon="-0.33581">
        <ele>115.6</ele>
        <time>2023-05-23T12:52:17Z</time>
      </trkpt>
      <trkpt lat="49.02932" lon="-0.33583">
        <ele>115.6</ele>
        <time>2023-05-23T12:52:18Z</time>
      </trkpt>
      <trkpt lat="49.02927" lon="-0.33585">
        <ele>115.6</ele>
        <time>2023-05-23T12:52:19Z</time>
      </trkpt>
      <trkpt lat="49.02923" lon="-0.33588">
        <ele>116</ele>
        <time>2023-05-23T12:52:20Z</time>
      </trkpt>
      <trkpt lat="49.02918" lon="-0.3359">
        <ele>116</ele>
        <time>2023-05-23T12:52:21Z</time>
      </trkpt>
      <trkpt lat="49.02914" lon="-0.33592">
        <ele>116</ele>
        <time>2023-05-23T12:52:22Z</time>
      </trkpt>
      <trkpt lat="49.02909" lon="-0.33595">
        <ele>116</ele>
        <time>2023-05-23T12:52:23Z</time>
      </trkpt>
      <trkpt lat="49.02905" lon="-0.33597">
        <ele>116</ele>
        <time>2023-05-23T12:52:24Z</time>
      </trkpt>
      <trkpt lat="49.029" lon="-0.33599">
        <ele>116.2</ele>
        <time>2023-05-23T12:52:25Z</time>
      </trkpt>
      <trkpt lat="49.02896" lon="-0.33602">
        <ele>116.4</ele>
        <time>2023-05-23T12:52:26Z</time>
      </trkpt>
      <trkpt lat="49.02891" lon="-0.33604">
        <ele>116.4</ele>
        <time>2023-05-23T12:52:27Z</time>
      </trkpt>
      <trkpt lat="49.02887" lon="-0.33606">
        <ele>116.4</ele>
        <time>2023-05-23T12:52:28Z</time>
      </trkpt>
      <trkpt lat="49.02882" lon="-0.33608">
        <ele>116.4</ele>
        <time>2023-05-23T12:52:29Z</time>
      </trkpt>
      <trkpt lat="49.02877" lon="-0.33611">
        <ele>116.6</ele>
        <time>2023-05-23T12:52:30Z</time>
      </trkpt>
      <trkpt lat="49.02872" lon="-0.33613">
        <ele>116.6</ele>
        <time>2023-05-23T12:52:31Z</time>
      </trkpt>
      <trkpt lat="49.02868" lon="-0.33615">
        <ele>116.6</ele>
        <time>2023-05-23T12:52:32Z</time>
      </trkpt>
      <trkpt lat="49.02862" lon="-0.33617">
        <ele>116.6</ele>
        <time>2023-05-23T12:52:33Z</time>
      </trkpt>
      <trkpt lat="49.02857" lon="-0.3362">
        <ele>116.6</ele>
        <time>2023-05-23T12:52:34Z</time>
      </trkpt>
      <trkpt lat="49.02852" lon="-0.33622">
        <ele>116.8</ele>
        <time>2023-05-23T12:52:35Z</time>
      </trkpt>
      <trkpt lat="49.02847" lon="-0.33624">
        <ele>116.8</ele>
        <time>2023-05-23T12:52:36Z</time>
      </trkpt>
      <trkpt lat="49.02842" lon="-0.33627">
        <ele>117</ele>
        <time>2023-05-23T12:52:37Z</time>
      </trkpt>
      <trkpt lat="49.02836" lon="-0.33629">
        <ele>117</ele>
        <time>2023-05-23T12:52:38Z</time>
      </trkpt>
      <trkpt lat="49.02831" lon="-0.33631">
        <ele>117</ele>
        <time>2023-05-23T12:52:39Z</time>
      </trkpt>
      <trkpt lat="49.02825" lon="-0.33634">
        <ele>117</ele>
        <time>2023-05-23T12:52:40Z</time>
      </trkpt>
      <trkpt lat="49.0282" lon="-0.33636">
        <ele>117</ele>
        <time>2023-05-23T12:52:41Z</time>
      </trkpt>
      <trkpt lat="49.02814" lon="-0.33638">
        <ele>117</ele>
        <time>2023-05-23T12:52:42Z</time>
      </trkpt>
      <trkpt lat="49.02808" lon="-0.33641">
        <ele>117</ele>
        <time>2023-05-23T12:52:43Z</time>
      </trkpt>
      <trkpt lat="49.02803" lon="-0.33644">
        <ele>117.2</ele>
        <time>2023-05-23T12:52:44Z</time>
      </trkpt>
      <trkpt lat="49.02797" lon="-0.33646">
        <ele>117.2</ele>
        <time>2023-05-23T12:52:45Z</time>
      </trkpt>
      <trkpt lat="49.02791" lon="-0.33649">
        <ele>117.4</ele>
        <time>2023-05-23T12:52:46Z</time>
      </trkpt>
      <trkpt lat="49.02786" lon="-0.33651">
        <ele>117.4</ele>
        <time>2023-05-23T12:52:47Z</time>
      </trkpt>
      <trkpt lat="49.0278" lon="-0.33654">
        <ele>117.4</ele>
        <time>2023-05-23T12:52:48Z</time>
      </trkpt>
      <trkpt lat="49.02774" lon="-0.33656">
        <ele>117.6</ele>
        <time>2023-05-23T12:52:49Z</time>
      </trkpt>
      <trkpt lat="49.02768" lon="-0.33659">
        <ele>117.6</ele>
        <time>2023-05-23T12:52:50Z</time>
      </trkpt>
      <trkpt lat="49.02762" lon="-0.33661">
        <ele>117.6</ele>
        <time>2023-05-23T12:52:51Z</time>
      </trkpt>
      <trkpt lat="49.02757" lon="-0.33664">
        <ele>118</ele>
        <time>2023-05-23T12:52:52Z</time>
      </trkpt>
      <trkpt lat="49.02751" lon="-0.33666">
        <ele>118</ele>
        <time>2023-05-23T12:52:53Z</time>
      </trkpt>
      <trkpt lat="49.02745" lon="-0.33669">
        <ele>118</ele>
        <time>2023-05-23T12:52:54Z</time>
      </trkpt>
      <trkpt lat="49.0274" lon="-0.33671">
        <ele>118.2</ele>
        <time>2023-05-23T12:52:55Z</time>
      </trkpt>
      <trkpt lat="49.02734" lon="-0.33674">
        <ele>118.4</ele>
        <time>2023-05-23T12:52:56Z</time>
      </trkpt>
      <trkpt lat="49.02728" lon="-0.33676">
        <ele>118.4</ele>
        <time>2023-05-23T12:52:57Z</time>
      </trkpt>
      <trkpt lat="49.02722" lon="-0.33679">
        <ele>118.6</ele>
        <time>2023-05-23T12:52:58Z</time>
      </trkpt>
      <trkpt lat="49.02716" lon="-0.33681">
        <ele>118.6</ele>
        <time>2023-05-23T12:52:59Z</time>
      </trkpt>
      <trkpt lat="49.0271" lon="-0.33684">
        <ele>118.6</ele>
        <time>2023-05-23T12:53:00Z</time>
      </trkpt>
      <trkpt lat="49.02705" lon="-0.33687">
        <ele>118.8</ele>
        <time>2023-05-23T12:53:01Z</time>
      </trkpt>
      <trkpt lat="49.02699" lon="-0.3369">
        <ele>119</ele>
        <time>2023-05-23T12:53:02Z</time>
      </trkpt>
      <trkpt lat="49.02693" lon="-0.33692">
        <ele>119</ele>
        <time>2023-05-23T12:53:03Z</time>
      </trkpt>
      <trkpt lat="49.02687" lon="-0.33695">
        <ele>119</ele>
        <time>2023-05-23T12:53:04Z</time>
      </trkpt>
      <trkpt lat="49.02681" lon="-0.33698">
        <ele>119.2</ele>
        <time>2023-05-23T12:53:05Z</time>
      </trkpt>
      <trkpt lat="49.02676" lon="-0.337">
        <ele>119.4</ele>
        <time>2023-05-23T12:53:06Z</time>
      </trkpt>
      <trkpt lat="49.02671" lon="-0.33703">
        <ele>119.4</ele>
        <time>2023-05-23T12:53:07Z</time>
      </trkpt>
      <trkpt lat="49.02665" lon="-0.33706">
        <ele>119.6</ele>
        <time>2023-05-23T12:53:08Z</time>
      </trkpt>
      <trkpt lat="49.0266" lon="-0.33708">
        <ele>119.6</ele>
        <time>2023-05-23T12:53:09Z</time>
      </trkpt>
      <trkpt lat="49.02655" lon="-0.33711">
        <ele>119.6</ele>
        <time>2023-05-23T12:53:10Z</time>
      </trkpt>
      <trkpt lat="49.02649" lon="-0.33714">
        <ele>119.6</ele>
        <time>2023-05-23T12:53:11Z</time>
      </trkpt>
      <trkpt lat="49.02644" lon="-0.33717">
        <ele>119.8</ele>
        <time>2023-05-23T12:53:12Z</time>
      </trkpt>
      <trkpt lat="49.02638" lon="-0.33719">
        <ele>119.8</ele>
        <time>2023-05-23T12:53:13Z</time>
      </trkpt>
      <trkpt lat="49.02633" lon="-0.33722">
        <ele>120</ele>
        <time>2023-05-23T12:53:14Z</time>
      </trkpt>
      <trkpt lat="49.02627" lon="-0.33725">
        <ele>120</ele>
        <time>2023-05-23T12:53:15Z</time>
      </trkpt>
      <trkpt lat="49.02622" lon="-0.33728">
        <ele>120</ele>
        <time>2023-05-23T12:53:16Z</time>
      </trkpt>
      <trkpt lat="49.02617" lon="-0.33731">
        <ele>120.2</ele>
        <time>2023-05-23T12:53:17Z</time>
      </trkpt>
      <trkpt lat="49.02611" lon="-0.33734">
        <ele>120.4</ele>
        <time>2023-05-23T12:53:18Z</time>
      </trkpt>
      <trkpt lat="49.02606" lon="-0.33737">
        <ele>120.6</ele>
        <time>2023-05-23T12:53:19Z</time>
      </trkpt>
      <trkpt lat="49.02601" lon="-0.3374">
        <ele>120.6</ele>
        <time>2023-05-23T12:53:20Z</time>
      </trkpt>
      <trkpt lat="49.02595" lon="-0.33743">
        <ele>120.6</ele>
        <time>2023-05-23T12:53:21Z</time>
      </trkpt>
      <trkpt lat="49.0259" lon="-0.33746">
        <ele>120.8</ele>
        <time>2023-05-23T12:53:22Z</time>
      </trkpt>
      <trkpt lat="49.02585" lon="-0.33749">
        <ele>121</ele>
        <time>2023-05-23T12:53:23Z</time>
      </trkpt>
      <trkpt lat="49.02579" lon="-0.33752">
        <ele>121</ele>
        <time>2023-05-23T12:53:24Z</time>
      </trkpt>
      <trkpt lat="49.02574" lon="-0.33756">
        <ele>121.2</ele>
        <time>2023-05-23T12:53:25Z</time>
      </trkpt>
      <trkpt lat="49.02569" lon="-0.33759">
        <ele>121.4</ele>
        <time>2023-05-23T12:53:26Z</time>
      </trkpt>
      <trkpt lat="49.02563" lon="-0.33763">
        <ele>121.4</ele>
        <time>2023-05-23T12:53:27Z</time>
      </trkpt>
      <trkpt lat="49.02558" lon="-0.33766">
        <ele>121.6</ele>
        <time>2023-05-23T12:53:28Z</time>
      </trkpt>
      <trkpt lat="49.02553" lon="-0.3377">
        <ele>121.6</ele>
        <time>2023-05-23T12:53:29Z</time>
      </trkpt>
      <trkpt lat="49.02548" lon="-0.33774">
        <ele>121.8</ele>
        <time>2023-05-23T12:53:30Z</time>
      </trkpt>
      <trkpt lat="49.02542" lon="-0.33777">
        <ele>122</ele>
        <time>2023-05-23T12:53:31Z</time>
      </trkpt>
      <trkpt lat="49.02537" lon="-0.33781">
        <ele>122</ele>
        <time>2023-05-23T12:53:32Z</time>
      </trkpt>
      <trkpt lat="49.02532" lon="-0.33785">
        <ele>122.4</ele>
        <time>2023-05-23T12:53:33Z</time>
      </trkpt>
      <trkpt lat="49.02527" lon="-0.33788">
        <ele>122.6</ele>
        <time>2023-05-23T12:53:34Z</time>
      </trkpt>
      <trkpt lat="49.02522" lon="-0.33792">
        <ele>122.6</ele>
        <time>2023-05-23T12:53:35Z</time>
      </trkpt>
      <trkpt lat="49.02516" lon="-0.33796">
        <ele>122.8</ele>
        <time>2023-05-23T12:53:36Z</time>
      </trkpt>
      <trkpt lat="49.02511" lon="-0.338">
        <ele>123</ele>
        <time>2023-05-23T12:53:37Z</time>
      </trkpt>
      <trkpt lat="49.02506" lon="-0.33804">
        <ele>123.2</ele>
        <time>2023-05-23T12:53:38Z</time>
      </trkpt>
      <trkpt lat="49.02501" lon="-0.33807">
        <ele>123.4</ele>
        <time>2023-05-23T12:53:39Z</time>
      </trkpt>
      <trkpt lat="49.02496" lon="-0.33811">
        <ele>123.6</ele>
        <time>2023-05-23T12:53:40Z</time>
      </trkpt>
      <trkpt lat="49.02491" lon="-0.33815">
        <ele>124</ele>
        <time>2023-05-23T12:53:41Z</time>
      </trkpt>
      <trkpt lat="49.02486" lon="-0.33819">
        <ele>124</ele>
        <time>2023-05-23T12:53:42Z</time>
      </trkpt>
      <trkpt lat="49.0248" lon="-0.33823">
        <ele>124.4</ele>
        <time>2023-05-23T12:53:43Z</time>
      </trkpt>
      <trkpt lat="49.02475" lon="-0.33827">
        <ele>124.6</ele>
        <time>2023-05-23T12:53:44Z</time>
      </trkpt>
      <trkpt lat="49.0247" lon="-0.33831">
        <ele>125</ele>
        <time>2023-05-23T12:53:45Z</time>
      </trkpt>
      <trkpt lat="49.02465" lon="-0.33834">
        <ele>125.4</ele>
        <time>2023-05-23T12:53:46Z</time>
      </trkpt>
      <trkpt lat="49.0246" lon="-0.33839">
        <ele>125.4</ele>
        <time>2023-05-23T12:53:47Z</time>
      </trkpt>
      <trkpt lat="49.02455" lon="-0.33843">
        <ele>125.6</ele>
        <time>2023-05-23T12:53:48Z</time>
      </trkpt>
      <trkpt lat="49.02451" lon="-0.33847">
        <ele>125.8</ele>
        <time>2023-05-23T12:53:49Z</time>
      </trkpt>
      <trkpt lat="49.02446" lon="-0.33852">
        <ele>126</ele>
        <time>2023-05-23T12:53:50Z</time>
      </trkpt>
      <trkpt lat="49.02441" lon="-0.33856">
        <ele>126</ele>
        <time>2023-05-23T12:53:51Z</time>
      </trkpt>
      <trkpt lat="49.02436" lon="-0.33861">
        <ele>126.4</ele>
        <time>2023-05-23T12:53:52Z</time>
      </trkpt>
      <trkpt lat="49.02431" lon="-0.33866">
        <ele>126.6</ele>
        <time>2023-05-23T12:53:53Z</time>
      </trkpt>
      <trkpt lat="49.02427" lon="-0.33871">
        <ele>126.6</ele>
        <time>2023-05-23T12:53:54Z</time>
      </trkpt>
      <trkpt lat="49.02422" lon="-0.33876">
        <ele>126.8</ele>
        <time>2023-05-23T12:53:55Z</time>
      </trkpt>
      <trkpt lat="49.02417" lon="-0.33881">
        <ele>127</ele>
        <time>2023-05-23T12:53:56Z</time>
      </trkpt>
      <trkpt lat="49.02412" lon="-0.33886">
        <ele>127</ele>
        <time>2023-05-23T12:53:57Z</time>
      </trkpt>
      <trkpt lat="49.02407" lon="-0.33891">
        <ele>127</ele>
        <time>2023-05-23T12:53:58Z</time>
      </trkpt>
      <trkpt lat="49.02402" lon="-0.33896">
        <ele>127</ele>
        <time>2023-05-23T12:53:59Z</time>
      </trkpt>
      <trkpt lat="49.02398" lon="-0.33901">
        <ele>127</ele>
        <time>2023-05-23T12:54:00Z</time>
      </trkpt>
      <trkpt lat="49.02393" lon="-0.33906">
        <ele>127</ele>
        <time>2023-05-23T12:54:01Z</time>
      </trkpt>
      <trkpt lat="49.02388" lon="-0.33911">
        <ele>127</ele>
        <time>2023-05-23T12:54:02Z</time>
      </trkpt>
      <trkpt lat="49.02384" lon="-0.33916">
        <ele>127</ele>
        <time>2023-05-23T12:54:03Z</time>
      </trkpt>
      <trkpt lat="49.02379" lon="-0.33921">
        <ele>127</ele>
        <time>2023-05-23T12:54:04Z</time>
      </trkpt>
      <trkpt lat="49.02375" lon="-0.33926">
        <ele>127.2</ele>
        <time>2023-05-23T12:54:05Z</time>
      </trkpt>
      <trkpt lat="49.02371" lon="-0.33931">
        <ele>127.4</ele>
        <time>2023-05-23T12:54:06Z</time>
      </trkpt>
      <trkpt lat="49.02367" lon="-0.33936">
        <ele>127.6</ele>
        <time>2023-05-23T12:54:07Z</time>
      </trkpt>
      <trkpt lat="49.02363" lon="-0.3394">
        <ele>127.6</ele>
        <time>2023-05-23T12:54:08Z</time>
      </trkpt>
      <trkpt lat="49.02359" lon="-0.33945">
        <ele>127.8</ele>
        <time>2023-05-23T12:54:09Z</time>
      </trkpt>
      <trkpt lat="49.02355" lon="-0.3395">
        <ele>128</ele>
        <time>2023-05-23T12:54:10Z</time>
      </trkpt>
      <trkpt lat="49.02351" lon="-0.33955">
        <ele>128.2</ele>
        <time>2023-05-23T12:54:11Z</time>
      </trkpt>
      <trkpt lat="49.02347" lon="-0.3396">
        <ele>128.4</ele>
        <time>2023-05-23T12:54:12Z</time>
      </trkpt>
      <trkpt lat="49.02343" lon="-0.33965">
        <ele>128.6</ele>
        <time>2023-05-23T12:54:13Z</time>
      </trkpt>
      <trkpt lat="49.0234" lon="-0.3397">
        <ele>128.8</ele>
        <time>2023-05-23T12:54:14Z</time>
      </trkpt>
      <trkpt lat="49.02336" lon="-0.33975">
        <ele>129.2</ele>
        <time>2023-05-23T12:54:15Z</time>
      </trkpt>
      <trkpt lat="49.02333" lon="-0.3398">
        <ele>129.4</ele>
        <time>2023-05-23T12:54:16Z</time>
      </trkpt>
      <trkpt lat="49.02329" lon="-0.33985">
        <ele>129.6</ele>
        <time>2023-05-23T12:54:17Z</time>
      </trkpt>
      <trkpt lat="49.02326" lon="-0.3399">
        <ele>129.6</ele>
        <time>2023-05-23T12:54:18Z</time>
      </trkpt>
      <trkpt lat="49.02322" lon="-0.33996">
        <ele>130</ele>
        <time>2023-05-23T12:54:19Z</time>
      </trkpt>
      <trkpt lat="49.02319" lon="-0.34001">
        <ele>130.2</ele>
        <time>2023-05-23T12:54:20Z</time>
      </trkpt>
      <trkpt lat="49.02315" lon="-0.34006">
        <ele>130.4</ele>
        <time>2023-05-23T12:54:21Z</time>
      </trkpt>
      <trkpt lat="49.02311" lon="-0.34012">
        <ele>130.4</ele>
        <time>2023-05-23T12:54:22Z</time>
      </trkpt>
      <trkpt lat="49.02308" lon="-0.34017">
        <ele>130.4</ele>
        <time>2023-05-23T12:54:23Z</time>
      </trkpt>
      <trkpt lat="49.02304" lon="-0.34022">
        <ele>130.6</ele>
        <time>2023-05-23T12:54:24Z</time>
      </trkpt>
      <trkpt lat="49.023" lon="-0.34028">
        <ele>130.6</ele>
        <time>2023-05-23T12:54:25Z</time>
      </trkpt>
      <trkpt lat="49.02297" lon="-0.34033">
        <ele>130.8</ele>
        <time>2023-05-23T12:54:26Z</time>
      </trkpt>
      <trkpt lat="49.02293" lon="-0.34039">
        <ele>130.8</ele>
        <time>2023-05-23T12:54:27Z</time>
      </trkpt>
      <trkpt lat="49.0229" lon="-0.34044">
        <ele>131.2</ele>
        <time>2023-05-23T12:54:28Z</time>
      </trkpt>
      <trkpt lat="49.02286" lon="-0.34049">
        <ele>131.2</ele>
        <time>2023-05-23T12:54:29Z</time>
      </trkpt>
      <trkpt lat="49.02282" lon="-0.34054">
        <ele>131.4</ele>
        <time>2023-05-23T12:54:30Z</time>
      </trkpt>
      <trkpt lat="49.02278" lon="-0.3406">
        <ele>131.6</ele>
        <time>2023-05-23T12:54:31Z</time>
      </trkpt>
      <trkpt lat="49.02275" lon="-0.34065">
        <ele>131.8</ele>
        <time>2023-05-23T12:54:32Z</time>
      </trkpt>
      <trkpt lat="49.02271" lon="-0.3407">
        <ele>132</ele>
        <time>2023-05-23T12:54:33Z</time>
      </trkpt>
      <trkpt lat="49.02267" lon="-0.34075">
        <ele>132.2</ele>
        <time>2023-05-23T12:54:34Z</time>
      </trkpt>
      <trkpt lat="49.02263" lon="-0.3408">
        <ele>132.6</ele>
        <time>2023-05-23T12:54:35Z</time>
      </trkpt>
      <trkpt lat="49.02259" lon="-0.34085">
        <ele>132.6</ele>
        <time>2023-05-23T12:54:36Z</time>
      </trkpt>
      <trkpt lat="49.02254" lon="-0.3409">
        <ele>132.8</ele>
        <time>2023-05-23T12:54:37Z</time>
      </trkpt>
      <trkpt lat="49.0225" lon="-0.34094">
        <ele>133</ele>
        <time>2023-05-23T12:54:38Z</time>
      </trkpt>
      <trkpt lat="49.02246" lon="-0.34099">
        <ele>132.8</ele>
        <time>2023-05-23T12:54:39Z</time>
      </trkpt>
      <trkpt lat="49.02241" lon="-0.34104">
        <ele>132.8</ele>
        <time>2023-05-23T12:54:40Z</time>
      </trkpt>
      <trkpt lat="49.02237" lon="-0.34109">
        <ele>132.8</ele>
        <time>2023-05-23T12:54:41Z</time>
      </trkpt>
      <trkpt lat="49.02232" lon="-0.34114">
        <ele>132.8</ele>
        <time>2023-05-23T12:54:42Z</time>
      </trkpt>
      <trkpt lat="49.02228" lon="-0.34119">
        <ele>132.8</ele>
        <time>2023-05-23T12:54:43Z</time>
      </trkpt>
      <trkpt lat="49.02223" lon="-0.34123">
        <ele>132.8</ele>
        <time>2023-05-23T12:54:44Z</time>
      </trkpt>
      <trkpt lat="49.02219" lon="-0.34128">
        <ele>132.8</ele>
        <time>2023-05-23T12:54:45Z</time>
      </trkpt>
      <trkpt lat="49.02215" lon="-0.34133">
        <ele>132.8</ele>
        <time>2023-05-23T12:54:46Z</time>
      </trkpt>
      <trkpt lat="49.0221" lon="-0.34138">
        <ele>133</ele>
        <time>2023-05-23T12:54:47Z</time>
      </trkpt>
      <trkpt lat="49.02206" lon="-0.34143">
        <ele>133.2</ele>
        <time>2023-05-23T12:54:48Z</time>
      </trkpt>
      <trkpt lat="49.02201" lon="-0.34148">
        <ele>133.2</ele>
        <time>2023-05-23T12:54:49Z</time>
      </trkpt>
      <trkpt lat="49.02197" lon="-0.34152">
        <ele>133.4</ele>
        <time>2023-05-23T12:54:50Z</time>
      </trkpt>
      <trkpt lat="49.02192" lon="-0.34157">
        <ele>133.4</ele>
        <time>2023-05-23T12:54:51Z</time>
      </trkpt>
      <trkpt lat="49.02188" lon="-0.34162">
        <ele>133.6</ele>
        <time>2023-05-23T12:54:52Z</time>
      </trkpt>
      <trkpt lat="49.02184" lon="-0.34166">
        <ele>133.8</ele>
        <time>2023-05-23T12:54:53Z</time>
      </trkpt>
      <trkpt lat="49.02179" lon="-0.34171">
        <ele>133.8</ele>
        <time>2023-05-23T12:54:54Z</time>
      </trkpt>
      <trkpt lat="49.02175" lon="-0.34176">
        <ele>134</ele>
        <time>2023-05-23T12:54:55Z</time>
      </trkpt>
      <trkpt lat="49.0217" lon="-0.34181">
        <ele>134.2</ele>
        <time>2023-05-23T12:54:56Z</time>
      </trkpt>
      <trkpt lat="49.02165" lon="-0.34186">
        <ele>134.2</ele>
        <time>2023-05-23T12:54:57Z</time>
      </trkpt>
      <trkpt lat="49.02161" lon="-0.34191">
        <ele>134.2</ele>
        <time>2023-05-23T12:54:58Z</time>
      </trkpt>
      <trkpt lat="49.02156" lon="-0.34196">
        <ele>134</ele>
        <time>2023-05-23T12:54:59Z</time>
      </trkpt>
      <trkpt lat="49.02151" lon="-0.34201">
        <ele>133.8</ele>
        <time>2023-05-23T12:55:00Z</time>
      </trkpt>
      <trkpt lat="49.02146" lon="-0.34206">
        <ele>133.6</ele>
        <time>2023-05-23T12:55:01Z</time>
      </trkpt>
      <trkpt lat="49.02142" lon="-0.34211">
        <ele>133.6</ele>
        <time>2023-05-23T12:55:02Z</time>
      </trkpt>
      <trkpt lat="49.02137" lon="-0.34216">
        <ele>133.6</ele>
        <time>2023-05-23T12:55:03Z</time>
      </trkpt>
      <trkpt lat="49.02132" lon="-0.34221">
        <ele>133.4</ele>
        <time>2023-05-23T12:55:04Z</time>
      </trkpt>
      <trkpt lat="49.02127" lon="-0.34226">
        <ele>133.4</ele>
        <time>2023-05-23T12:55:05Z</time>
      </trkpt>
      <trkpt lat="49.02123" lon="-0.34231">
        <ele>133.2</ele>
        <time>2023-05-23T12:55:06Z</time>
      </trkpt>
      <trkpt lat="49.02118" lon="-0.34236">
        <ele>133.2</ele>
        <time>2023-05-23T12:55:07Z</time>
      </trkpt>
      <trkpt lat="49.02113" lon="-0.34241">
        <ele>133</ele>
        <time>2023-05-23T12:55:08Z</time>
      </trkpt>
      <trkpt lat="49.02108" lon="-0.34246">
        <ele>132.8</ele>
        <time>2023-05-23T12:55:09Z</time>
      </trkpt>
      <trkpt lat="49.02103" lon="-0.34251">
        <ele>132.6</ele>
        <time>2023-05-23T12:55:10Z</time>
      </trkpt>
      <trkpt lat="49.02098" lon="-0.34257">
        <ele>132.6</ele>
        <time>2023-05-23T12:55:11Z</time>
      </trkpt>
      <trkpt lat="49.02093" lon="-0.34262">
        <ele>132.6</ele>
        <time>2023-05-23T12:55:12Z</time>
      </trkpt>
      <trkpt lat="49.02088" lon="-0.34267">
        <ele>132.6</ele>
        <time>2023-05-23T12:55:13Z</time>
      </trkpt>
      <trkpt lat="49.02083" lon="-0.34272">
        <ele>132.6</ele>
        <time>2023-05-23T12:55:14Z</time>
      </trkpt>
      <trkpt lat="49.02078" lon="-0.34277">
        <ele>132.6</ele>
        <time>2023-05-23T12:55:15Z</time>
      </trkpt>
      <trkpt lat="49.02073" lon="-0.34282">
        <ele>132.8</ele>
        <time>2023-05-23T12:55:16Z</time>
      </trkpt>
      <trkpt lat="49.02068" lon="-0.34288">
        <ele>133.2</ele>
        <time>2023-05-23T12:55:17Z</time>
      </trkpt>
      <trkpt lat="49.02063" lon="-0.34293">
        <ele>133.4</ele>
        <time>2023-05-23T12:55:18Z</time>
      </trkpt>
      <trkpt lat="49.02058" lon="-0.34298">
        <ele>133.6</ele>
        <time>2023-05-23T12:55:19Z</time>
      </trkpt>
      <trkpt lat="49.02053" lon="-0.34303">
        <ele>133.6</ele>
        <time>2023-05-23T12:55:20Z</time>
      </trkpt>
      <trkpt lat="49.02048" lon="-0.34308">
        <ele>133.8</ele>
        <time>2023-05-23T12:55:21Z</time>
      </trkpt>
      <trkpt lat="49.02042" lon="-0.34313">
        <ele>134</ele>
        <time>2023-05-23T12:55:22Z</time>
      </trkpt>
      <trkpt lat="49.02037" lon="-0.34318">
        <ele>134.2</ele>
        <time>2023-05-23T12:55:23Z</time>
      </trkpt>
      <trkpt lat="49.02032" lon="-0.34323">
        <ele>134.4</ele>
        <time>2023-05-23T12:55:24Z</time>
      </trkpt>
      <trkpt lat="49.02027" lon="-0.34328">
        <ele>134.6</ele>
        <time>2023-05-23T12:55:25Z</time>
      </trkpt>
      <trkpt lat="49.02021" lon="-0.34333">
        <ele>134.6</ele>
        <time>2023-05-23T12:55:26Z</time>
      </trkpt>
      <trkpt lat="49.02016" lon="-0.34338">
        <ele>135</ele>
        <time>2023-05-23T12:55:27Z</time>
      </trkpt>
      <trkpt lat="49.02011" lon="-0.34343">
        <ele>135.2</ele>
        <time>2023-05-23T12:55:28Z</time>
      </trkpt>
      <trkpt lat="49.02005" lon="-0.34347">
        <ele>135.4</ele>
        <time>2023-05-23T12:55:29Z</time>
      </trkpt>
      <trkpt lat="49.02" lon="-0.34352">
        <ele>135.6</ele>
        <time>2023-05-23T12:55:30Z</time>
      </trkpt>
      <trkpt lat="49.01995" lon="-0.34357">
        <ele>135.8</ele>
        <time>2023-05-23T12:55:31Z</time>
      </trkpt>
      <trkpt lat="49.0199" lon="-0.34361">
        <ele>135.8</ele>
        <time>2023-05-23T12:55:32Z</time>
      </trkpt>
      <trkpt lat="49.01984" lon="-0.34366">
        <ele>136</ele>
        <time>2023-05-23T12:55:33Z</time>
      </trkpt>
      <trkpt lat="49.01979" lon="-0.3437">
        <ele>136.2</ele>
        <time>2023-05-23T12:55:34Z</time>
      </trkpt>
      <trkpt lat="49.01974" lon="-0.34375">
        <ele>136.2</ele>
        <time>2023-05-23T12:55:35Z</time>
      </trkpt>
      <trkpt lat="49.01969" lon="-0.34379">
        <ele>136.2</ele>
        <time>2023-05-23T12:55:36Z</time>
      </trkpt>
      <trkpt lat="49.01963" lon="-0.34384">
        <ele>136.4</ele>
        <time>2023-05-23T12:55:37Z</time>
      </trkpt>
      <trkpt lat="49.01958" lon="-0.34388">
        <ele>136.4</ele>
        <time>2023-05-23T12:55:38Z</time>
      </trkpt>
      <trkpt lat="49.01953" lon="-0.34393">
        <ele>136.4</ele>
        <time>2023-05-23T12:55:39Z</time>
      </trkpt>
      <trkpt lat="49.01948" lon="-0.34397">
        <ele>136.4</ele>
        <time>2023-05-23T12:55:40Z</time>
      </trkpt>
      <trkpt lat="49.01943" lon="-0.34402">
        <ele>136.4</ele>
        <time>2023-05-23T12:55:41Z</time>
      </trkpt>
      <trkpt lat="49.01938" lon="-0.34406">
        <ele>136.4</ele>
        <time>2023-05-23T12:55:42Z</time>
      </trkpt>
      <trkpt lat="49.01932" lon="-0.34411">
        <ele>136.4</ele>
        <time>2023-05-23T12:55:43Z</time>
      </trkpt>
      <trkpt lat="49.01927" lon="-0.34415">
        <ele>136.2</ele>
        <time>2023-05-23T12:55:44Z</time>
      </trkpt>
      <trkpt lat="49.01922" lon="-0.3442">
        <ele>136.2</ele>
        <time>2023-05-23T12:55:45Z</time>
      </trkpt>
      <trkpt lat="49.01917" lon="-0.34424">
        <ele>136</ele>
        <time>2023-05-23T12:55:46Z</time>
      </trkpt>
      <trkpt lat="49.01912" lon="-0.34428">
        <ele>136</ele>
        <time>2023-05-23T12:55:47Z</time>
      </trkpt>
      <trkpt lat="49.01907" lon="-0.34433">
        <ele>136.2</ele>
        <time>2023-05-23T12:55:48Z</time>
      </trkpt>
      <trkpt lat="49.01902" lon="-0.34437">
        <ele>136.2</ele>
        <time>2023-05-23T12:55:49Z</time>
      </trkpt>
      <trkpt lat="49.01897" lon="-0.34441">
        <ele>136.2</ele>
        <time>2023-05-23T12:55:50Z</time>
      </trkpt>
      <trkpt lat="49.01892" lon="-0.34445">
        <ele>136.2</ele>
        <time>2023-05-23T12:55:51Z</time>
      </trkpt>
      <trkpt lat="49.01887" lon="-0.3445">
        <ele>136.2</ele>
        <time>2023-05-23T12:55:52Z</time>
      </trkpt>
      <trkpt lat="49.01882" lon="-0.34454">
        <ele>136.2</ele>
        <time>2023-05-23T12:55:53Z</time>
      </trkpt>
      <trkpt lat="49.01877" lon="-0.34458">
        <ele>136.2</ele>
        <time>2023-05-23T12:55:54Z</time>
      </trkpt>
      <trkpt lat="49.01872" lon="-0.34463">
        <ele>136.2</ele>
        <time>2023-05-23T12:55:55Z</time>
      </trkpt>
      <trkpt lat="49.01867" lon="-0.34467">
        <ele>136.2</ele>
        <time>2023-05-23T12:55:56Z</time>
      </trkpt>
      <trkpt lat="49.01862" lon="-0.34471">
        <ele>136.2</ele>
        <time>2023-05-23T12:55:57Z</time>
      </trkpt>
      <trkpt lat="49.01857" lon="-0.34476">
        <ele>136.2</ele>
        <time>2023-05-23T12:55:58Z</time>
      </trkpt>
      <trkpt lat="49.01852" lon="-0.3448">
        <ele>136.2</ele>
        <time>2023-05-23T12:55:59Z</time>
      </trkpt>
      <trkpt lat="49.01847" lon="-0.34484">
        <ele>136.2</ele>
        <time>2023-05-23T12:56:00Z</time>
      </trkpt>
      <trkpt lat="49.01842" lon="-0.34489">
        <ele>136.2</ele>
        <time>2023-05-23T12:56:01Z</time>
      </trkpt>
      <trkpt lat="49.01837" lon="-0.34493">
        <ele>136.2</ele>
        <time>2023-05-23T12:56:02Z</time>
      </trkpt>
      <trkpt lat="49.01831" lon="-0.34497">
        <ele>136.2</ele>
        <time>2023-05-23T12:56:03Z</time>
      </trkpt>
      <trkpt lat="49.01826" lon="-0.34501">
        <ele>136.2</ele>
        <time>2023-05-23T12:56:04Z</time>
      </trkpt>
      <trkpt lat="49.01821" lon="-0.34505">
        <ele>136.2</ele>
        <time>2023-05-23T12:56:05Z</time>
      </trkpt>
      <trkpt lat="49.01816" lon="-0.34509">
        <ele>136.4</ele>
        <time>2023-05-23T12:56:06Z</time>
      </trkpt>
      <trkpt lat="49.01811" lon="-0.34513">
        <ele>136.4</ele>
        <time>2023-05-23T12:56:07Z</time>
      </trkpt>
      <trkpt lat="49.01806" lon="-0.34516">
        <ele>136.6</ele>
        <time>2023-05-23T12:56:08Z</time>
      </trkpt>
      <trkpt lat="49.01801" lon="-0.3452">
        <ele>136.6</ele>
        <time>2023-05-23T12:56:09Z</time>
      </trkpt>
      <trkpt lat="49.01796" lon="-0.34523">
        <ele>136.6</ele>
        <time>2023-05-23T12:56:10Z</time>
      </trkpt>
      <trkpt lat="49.0179" lon="-0.34527">
        <ele>136.8</ele>
        <time>2023-05-23T12:56:11Z</time>
      </trkpt>
      <trkpt lat="49.01785" lon="-0.3453">
        <ele>136.8</ele>
        <time>2023-05-23T12:56:12Z</time>
      </trkpt>
      <trkpt lat="49.0178" lon="-0.34533">
        <ele>137</ele>
        <time>2023-05-23T12:56:13Z</time>
      </trkpt>
      <trkpt lat="49.01775" lon="-0.34537">
        <ele>137.2</ele>
        <time>2023-05-23T12:56:14Z</time>
      </trkpt>
      <trkpt lat="49.01769" lon="-0.3454">
        <ele>137.2</ele>
        <time>2023-05-23T12:56:15Z</time>
      </trkpt>
      <trkpt lat="49.01764" lon="-0.34543">
        <ele>137.4</ele>
        <time>2023-05-23T12:56:16Z</time>
      </trkpt>
      <trkpt lat="49.01758" lon="-0.34546">
        <ele>137.4</ele>
        <time>2023-05-23T12:56:17Z</time>
      </trkpt>
      <trkpt lat="49.01753" lon="-0.34549">
        <ele>137.6</ele>
        <time>2023-05-23T12:56:18Z</time>
      </trkpt>
      <trkpt lat="49.01747" lon="-0.34552">
        <ele>137.6</ele>
        <time>2023-05-23T12:56:19Z</time>
      </trkpt>
      <trkpt lat="49.01742" lon="-0.34555">
        <ele>137.6</ele>
        <time>2023-05-23T12:56:20Z</time>
      </trkpt>
      <trkpt lat="49.01736" lon="-0.34557">
        <ele>137.6</ele>
        <time>2023-05-23T12:56:21Z</time>
      </trkpt>
      <trkpt lat="49.0173" lon="-0.3456">
        <ele>137.6</ele>
        <time>2023-05-23T12:56:22Z</time>
      </trkpt>
      <trkpt lat="49.01724" lon="-0.34563">
        <ele>137.6</ele>
        <time>2023-05-23T12:56:23Z</time>
      </trkpt>
      <trkpt lat="49.01718" lon="-0.34566">
        <ele>137.6</ele>
        <time>2023-05-23T12:56:24Z</time>
      </trkpt>
      <trkpt lat="49.01712" lon="-0.34569">
        <ele>137.8</ele>
        <time>2023-05-23T12:56:25Z</time>
      </trkpt>
      <trkpt lat="49.01706" lon="-0.34572">
        <ele>137.8</ele>
        <time>2023-05-23T12:56:26Z</time>
      </trkpt>
      <trkpt lat="49.017" lon="-0.34575">
        <ele>137.8</ele>
        <time>2023-05-23T12:56:27Z</time>
      </trkpt>
      <trkpt lat="49.01694" lon="-0.34578">
        <ele>137.8</ele>
        <time>2023-05-23T12:56:28Z</time>
      </trkpt>
      <trkpt lat="49.01688" lon="-0.3458">
        <ele>137.8</ele>
        <time>2023-05-23T12:56:29Z</time>
      </trkpt>
      <trkpt lat="49.01682" lon="-0.34583">
        <ele>138</ele>
        <time>2023-05-23T12:56:30Z</time>
      </trkpt>
      <trkpt lat="49.01675" lon="-0.34586">
        <ele>138</ele>
        <time>2023-05-23T12:56:31Z</time>
      </trkpt>
      <trkpt lat="49.01669" lon="-0.34588">
        <ele>138</ele>
        <time>2023-05-23T12:56:32Z</time>
      </trkpt>
      <trkpt lat="49.01663" lon="-0.34591">
        <ele>137.8</ele>
        <time>2023-05-23T12:56:33Z</time>
      </trkpt>
      <trkpt lat="49.01657" lon="-0.34593">
        <ele>137.8</ele>
        <time>2023-05-23T12:56:34Z</time>
      </trkpt>
      <trkpt lat="49.0165" lon="-0.34596">
        <ele>137.6</ele>
        <time>2023-05-23T12:56:35Z</time>
      </trkpt>
      <trkpt lat="49.01644" lon="-0.34598">
        <ele>137.6</ele>
        <time>2023-05-23T12:56:36Z</time>
      </trkpt>
      <trkpt lat="49.01637" lon="-0.346">
        <ele>137.4</ele>
        <time>2023-05-23T12:56:37Z</time>
      </trkpt>
      <trkpt lat="49.01631" lon="-0.34602">
        <ele>137.2</ele>
        <time>2023-05-23T12:56:38Z</time>
      </trkpt>
      <trkpt lat="49.01625" lon="-0.34604">
        <ele>137.2</ele>
        <time>2023-05-23T12:56:39Z</time>
      </trkpt>
      <trkpt lat="49.01618" lon="-0.34607">
        <ele>137</ele>
        <time>2023-05-23T12:56:40Z</time>
      </trkpt>
      <trkpt lat="49.01612" lon="-0.3461">
        <ele>136.8</ele>
        <time>2023-05-23T12:56:41Z</time>
      </trkpt>
      <trkpt lat="49.01606" lon="-0.34612">
        <ele>136.8</ele>
        <time>2023-05-23T12:56:42Z</time>
      </trkpt>
      <trkpt lat="49.016" lon="-0.34615">
        <ele>136.6</ele>
        <time>2023-05-23T12:56:43Z</time>
      </trkpt>
      <trkpt lat="49.01593" lon="-0.34617">
        <ele>136.6</ele>
        <time>2023-05-23T12:56:44Z</time>
      </trkpt>
      <trkpt lat="49.01587" lon="-0.34619">
        <ele>136.6</ele>
        <time>2023-05-23T12:56:45Z</time>
      </trkpt>
      <trkpt lat="49.01581" lon="-0.34621">
        <ele>136.6</ele>
        <time>2023-05-23T12:56:46Z</time>
      </trkpt>
      <trkpt lat="49.01574" lon="-0.34622">
        <ele>136.6</ele>
        <time>2023-05-23T12:56:47Z</time>
      </trkpt>
      <trkpt lat="49.01567" lon="-0.34624">
        <ele>136.6</ele>
        <time>2023-05-23T12:56:48Z</time>
      </trkpt>
      <trkpt lat="49.01561" lon="-0.34626">
        <ele>136.6</ele>
        <time>2023-05-23T12:56:49Z</time>
      </trkpt>
      <trkpt lat="49.01554" lon="-0.34628">
        <ele>136.6</ele>
        <time>2023-05-23T12:56:50Z</time>
      </trkpt>
      <trkpt lat="49.01548" lon="-0.34631">
        <ele>136.8</ele>
        <time>2023-05-23T12:56:51Z</time>
      </trkpt>
      <trkpt lat="49.01541" lon="-0.34633">
        <ele>136.8</ele>
        <time>2023-05-23T12:56:52Z</time>
      </trkpt>
      <trkpt lat="49.01535" lon="-0.34636">
        <ele>136.8</ele>
        <time>2023-05-23T12:56:53Z</time>
      </trkpt>
      <trkpt lat="49.01528" lon="-0.34639">
        <ele>136.8</ele>
        <time>2023-05-23T12:56:54Z</time>
      </trkpt>
      <trkpt lat="49.01522" lon="-0.34643">
        <ele>136.8</ele>
        <time>2023-05-23T12:56:55Z</time>
      </trkpt>
      <trkpt lat="49.01515" lon="-0.34646">
        <ele>137</ele>
        <time>2023-05-23T12:56:56Z</time>
      </trkpt>
      <trkpt lat="49.01509" lon="-0.3465">
        <ele>137</ele>
        <time>2023-05-23T12:56:57Z</time>
      </trkpt>
      <trkpt lat="49.01503" lon="-0.34654">
        <ele>137</ele>
        <time>2023-05-23T12:56:58Z</time>
      </trkpt>
      <trkpt lat="49.01496" lon="-0.34658">
        <ele>137.2</ele>
        <time>2023-05-23T12:56:59Z</time>
      </trkpt>
      <trkpt lat="49.0149" lon="-0.34662">
        <ele>137.4</ele>
        <time>2023-05-23T12:57:00Z</time>
      </trkpt>
      <trkpt lat="49.01483" lon="-0.34666">
        <ele>137.6</ele>
        <time>2023-05-23T12:57:01Z</time>
      </trkpt>
      <trkpt lat="49.01477" lon="-0.3467">
        <ele>137.8</ele>
        <time>2023-05-23T12:57:02Z</time>
      </trkpt>
      <trkpt lat="49.01471" lon="-0.34674">
        <ele>138.2</ele>
        <time>2023-05-23T12:57:03Z</time>
      </trkpt>
      <trkpt lat="49.01464" lon="-0.34678">
        <ele>138.4</ele>
        <time>2023-05-23T12:57:04Z</time>
      </trkpt>
      <trkpt lat="49.01458" lon="-0.34683">
        <ele>138.6</ele>
        <time>2023-05-23T12:57:05Z</time>
      </trkpt>
      <trkpt lat="49.01452" lon="-0.34687">
        <ele>138.8</ele>
        <time>2023-05-23T12:57:06Z</time>
      </trkpt>
      <trkpt lat="49.01445" lon="-0.34691">
        <ele>139.2</ele>
        <time>2023-05-23T12:57:07Z</time>
      </trkpt>
      <trkpt lat="49.01439" lon="-0.34695">
        <ele>139.4</ele>
        <time>2023-05-23T12:57:08Z</time>
      </trkpt>
      <trkpt lat="49.01432" lon="-0.34699">
        <ele>139.6</ele>
        <time>2023-05-23T12:57:09Z</time>
      </trkpt>
      <trkpt lat="49.01426" lon="-0.34702">
        <ele>139.8</ele>
        <time>2023-05-23T12:57:10Z</time>
      </trkpt>
      <trkpt lat="49.0142" lon="-0.34705">
        <ele>139.8</ele>
        <time>2023-05-23T12:57:11Z</time>
      </trkpt>
      <trkpt lat="49.01413" lon="-0.34708">
        <ele>140.2</ele>
        <time>2023-05-23T12:57:12Z</time>
      </trkpt>
      <trkpt lat="49.01407" lon="-0.34711">
        <ele>140.2</ele>
        <time>2023-05-23T12:57:13Z</time>
      </trkpt>
      <trkpt lat="49.014" lon="-0.34713">
        <ele>140.4</ele>
        <time>2023-05-23T12:57:14Z</time>
      </trkpt>
      <trkpt lat="49.01394" lon="-0.34715">
        <ele>140.6</ele>
        <time>2023-05-23T12:57:15Z</time>
      </trkpt>
      <trkpt lat="49.01387" lon="-0.34718">
        <ele>140.6</ele>
        <time>2023-05-23T12:57:16Z</time>
      </trkpt>
      <trkpt lat="49.01381" lon="-0.3472">
        <ele>140.8</ele>
        <time>2023-05-23T12:57:17Z</time>
      </trkpt>
      <trkpt lat="49.01375" lon="-0.34723">
        <ele>141</ele>
        <time>2023-05-23T12:57:18Z</time>
      </trkpt>
      <trkpt lat="49.01369" lon="-0.34726">
        <ele>141.2</ele>
        <time>2023-05-23T12:57:19Z</time>
      </trkpt>
      <trkpt lat="49.01363" lon="-0.3473">
        <ele>141.4</ele>
        <time>2023-05-23T12:57:20Z</time>
      </trkpt>
      <trkpt lat="49.01358" lon="-0.34735">
        <ele>141.4</ele>
        <time>2023-05-23T12:57:21Z</time>
      </trkpt>
      <trkpt lat="49.01353" lon="-0.34741">
        <ele>141.6</ele>
        <time>2023-05-23T12:57:22Z</time>
      </trkpt>
      <trkpt lat="49.01349" lon="-0.34748">
        <ele>141.6</ele>
        <time>2023-05-23T12:57:23Z</time>
      </trkpt>
      <trkpt lat="49.01345" lon="-0.34755">
        <ele>141.6</ele>
        <time>2023-05-23T12:57:24Z</time>
      </trkpt>
      <trkpt lat="49.01342" lon="-0.34763">
        <ele>141.6</ele>
        <time>2023-05-23T12:57:25Z</time>
      </trkpt>
      <trkpt lat="49.0134" lon="-0.34771">
        <ele>141.6</ele>
        <time>2023-05-23T12:57:26Z</time>
      </trkpt>
      <trkpt lat="49.01337" lon="-0.3478">
        <ele>141.6</ele>
        <time>2023-05-23T12:57:27Z</time>
      </trkpt>
      <trkpt lat="49.01334" lon="-0.34788">
        <ele>141.6</ele>
        <time>2023-05-23T12:57:28Z</time>
      </trkpt>
      <trkpt lat="49.01332" lon="-0.34796">
        <ele>141.6</ele>
        <time>2023-05-23T12:57:29Z</time>
      </trkpt>
      <trkpt lat="49.01329" lon="-0.34805">
        <ele>141.6</ele>
        <time>2023-05-23T12:57:30Z</time>
      </trkpt>
      <trkpt lat="49.01326" lon="-0.34813">
        <ele>141.6</ele>
        <time>2023-05-23T12:57:31Z</time>
      </trkpt>
      <trkpt lat="49.01323" lon="-0.34821">
        <ele>141.6</ele>
        <time>2023-05-23T12:57:32Z</time>
      </trkpt>
      <trkpt lat="49.01321" lon="-0.34829">
        <ele>141.6</ele>
        <time>2023-05-23T12:57:33Z</time>
      </trkpt>
      <trkpt lat="49.01318" lon="-0.34838">
        <ele>141.6</ele>
        <time>2023-05-23T12:57:34Z</time>
      </trkpt>
      <trkpt lat="49.01315" lon="-0.34846">
        <ele>141.6</ele>
        <time>2023-05-23T12:57:35Z</time>
      </trkpt>
      <trkpt lat="49.01312" lon="-0.34854">
        <ele>141.6</ele>
        <time>2023-05-23T12:57:36Z</time>
      </trkpt>
      <trkpt lat="49.01309" lon="-0.34862">
        <ele>141.6</ele>
        <time>2023-05-23T12:57:37Z</time>
      </trkpt>
      <trkpt lat="49.01306" lon="-0.3487">
        <ele>141.6</ele>
        <time>2023-05-23T12:57:38Z</time>
      </trkpt>
      <trkpt lat="49.01302" lon="-0.34877">
        <ele>141.6</ele>
        <time>2023-05-23T12:57:39Z</time>
      </trkpt>
      <trkpt lat="49.01299" lon="-0.34885">
        <ele>141.6</ele>
        <time>2023-05-23T12:57:40Z</time>
      </trkpt>
      <trkpt lat="49.01295" lon="-0.34892">
        <ele>141.6</ele>
        <time>2023-05-23T12:57:41Z</time>
      </trkpt>
      <trkpt lat="49.01291" lon="-0.34898">
        <ele>141.8</ele>
        <time>2023-05-23T12:57:42Z</time>
      </trkpt>
      <trkpt lat="49.01286" lon="-0.34905">
        <ele>141.8</ele>
        <time>2023-05-23T12:57:43Z</time>
      </trkpt>
      <trkpt lat="49.01282" lon="-0.34911">
        <ele>141.8</ele>
        <time>2023-05-23T12:57:44Z</time>
      </trkpt>
      <trkpt lat="49.01277" lon="-0.34917">
        <ele>142</ele>
        <time>2023-05-23T12:57:45Z</time>
      </trkpt>
      <trkpt lat="49.01272" lon="-0.34922">
        <ele>142.2</ele>
        <time>2023-05-23T12:57:46Z</time>
      </trkpt>
      <trkpt lat="49.01267" lon="-0.34927">
        <ele>142.4</ele>
        <time>2023-05-23T12:57:47Z</time>
      </trkpt>
      <trkpt lat="49.01261" lon="-0.34931">
        <ele>142.4</ele>
        <time>2023-05-23T12:57:48Z</time>
      </trkpt>
      <trkpt lat="49.01256" lon="-0.34936">
        <ele>142.6</ele>
        <time>2023-05-23T12:57:49Z</time>
      </trkpt>
      <trkpt lat="49.0125" lon="-0.3494">
        <ele>142.6</ele>
        <time>2023-05-23T12:57:50Z</time>
      </trkpt>
      <trkpt lat="49.01245" lon="-0.34944">
        <ele>142.8</ele>
        <time>2023-05-23T12:57:51Z</time>
      </trkpt>
      <trkpt lat="49.0124" lon="-0.34947">
        <ele>142.8</ele>
        <time>2023-05-23T12:57:52Z</time>
      </trkpt>
      <trkpt lat="49.01234" lon="-0.34951">
        <ele>143</ele>
        <time>2023-05-23T12:57:53Z</time>
      </trkpt>
      <trkpt lat="49.01229" lon="-0.34954">
        <ele>143.2</ele>
        <time>2023-05-23T12:57:54Z</time>
      </trkpt>
      <trkpt lat="49.01223" lon="-0.34958">
        <ele>143.2</ele>
        <time>2023-05-23T12:57:55Z</time>
      </trkpt>
      <trkpt lat="49.01218" lon="-0.34961">
        <ele>143.2</ele>
        <time>2023-05-23T12:57:56Z</time>
      </trkpt>
      <trkpt lat="49.01212" lon="-0.34965">
        <ele>143.4</ele>
        <time>2023-05-23T12:57:57Z</time>
      </trkpt>
      <trkpt lat="49.01207" lon="-0.34968">
        <ele>143.4</ele>
        <time>2023-05-23T12:57:58Z</time>
      </trkpt>
      <trkpt lat="49.01202" lon="-0.34972">
        <ele>143.6</ele>
        <time>2023-05-23T12:57:59Z</time>
      </trkpt>
      <trkpt lat="49.01197" lon="-0.34975">
        <ele>143.6</ele>
        <time>2023-05-23T12:58:00Z</time>
      </trkpt>
      <trkpt lat="49.01192" lon="-0.34978">
        <ele>143.6</ele>
        <time>2023-05-23T12:58:01Z</time>
      </trkpt>
      <trkpt lat="49.01187" lon="-0.34981">
        <ele>143.6</ele>
        <time>2023-05-23T12:58:02Z</time>
      </trkpt>
      <trkpt lat="49.01181" lon="-0.34984">
        <ele>143.8</ele>
        <time>2023-05-23T12:58:03Z</time>
      </trkpt>
      <trkpt lat="49.01177" lon="-0.34987">
        <ele>143.8</ele>
        <time>2023-05-23T12:58:04Z</time>
      </trkpt>
      <trkpt lat="49.01171" lon="-0.34991">
        <ele>144</ele>
        <time>2023-05-23T12:58:05Z</time>
      </trkpt>
      <trkpt lat="49.01167" lon="-0.34994">
        <ele>144.2</ele>
        <time>2023-05-23T12:58:06Z</time>
      </trkpt>
      <trkpt lat="49.01161" lon="-0.34997">
        <ele>144.4</ele>
        <time>2023-05-23T12:58:07Z</time>
      </trkpt>
      <trkpt lat="49.01157" lon="-0.35">
        <ele>144.6</ele>
        <time>2023-05-23T12:58:08Z</time>
      </trkpt>
      <trkpt lat="49.01152" lon="-0.35004">
        <ele>144.6</ele>
        <time>2023-05-23T12:58:09Z</time>
      </trkpt>
      <trkpt lat="49.01147" lon="-0.35007">
        <ele>144.8</ele>
        <time>2023-05-23T12:58:10Z</time>
      </trkpt>
      <trkpt lat="49.01142" lon="-0.35011">
        <ele>145.2</ele>
        <time>2023-05-23T12:58:11Z</time>
      </trkpt>
      <trkpt lat="49.01137" lon="-0.35014">
        <ele>145.4</ele>
        <time>2023-05-23T12:58:12Z</time>
      </trkpt>
      <trkpt lat="49.01132" lon="-0.35018">
        <ele>145.6</ele>
        <time>2023-05-23T12:58:13Z</time>
      </trkpt>
      <trkpt lat="49.01128" lon="-0.35022">
        <ele>145.6</ele>
        <time>2023-05-23T12:58:14Z</time>
      </trkpt>
      <trkpt lat="49.01123" lon="-0.35025">
        <ele>146</ele>
        <time>2023-05-23T12:58:15Z</time>
      </trkpt>
      <trkpt lat="49.01118" lon="-0.35029">
        <ele>146.2</ele>
        <time>2023-05-23T12:58:16Z</time>
      </trkpt>
      <trkpt lat="49.01114" lon="-0.35033">
        <ele>146.4</ele>
        <time>2023-05-23T12:58:17Z</time>
      </trkpt>
      <trkpt lat="49.01109" lon="-0.35037">
        <ele>146.6</ele>
        <time>2023-05-23T12:58:18Z</time>
      </trkpt>
      <trkpt lat="49.01105" lon="-0.3504">
        <ele>146.8</ele>
        <time>2023-05-23T12:58:19Z</time>
      </trkpt>
      <trkpt lat="49.01101" lon="-0.35044">
        <ele>147.2</ele>
        <time>2023-05-23T12:58:20Z</time>
      </trkpt>
      <trkpt lat="49.01096" lon="-0.35048">
        <ele>147.4</ele>
        <time>2023-05-23T12:58:21Z</time>
      </trkpt>
      <trkpt lat="49.01092" lon="-0.35052">
        <ele>147.6</ele>
        <time>2023-05-23T12:58:22Z</time>
      </trkpt>
      <trkpt lat="49.01088" lon="-0.35056">
        <ele>147.6</ele>
        <time>2023-05-23T12:58:23Z</time>
      </trkpt>
      <trkpt lat="49.01084" lon="-0.3506">
        <ele>148</ele>
        <time>2023-05-23T12:58:24Z</time>
      </trkpt>
      <trkpt lat="49.0108" lon="-0.35063">
        <ele>148.2</ele>
        <time>2023-05-23T12:58:25Z</time>
      </trkpt>
      <trkpt lat="49.01076" lon="-0.35067">
        <ele>148.4</ele>
        <time>2023-05-23T12:58:26Z</time>
      </trkpt>
      <trkpt lat="49.01072" lon="-0.35071">
        <ele>148.6</ele>
        <time>2023-05-23T12:58:27Z</time>
      </trkpt>
      <trkpt lat="49.01068" lon="-0.35075">
        <ele>148.6</ele>
        <time>2023-05-23T12:58:28Z</time>
      </trkpt>
      <trkpt lat="49.01064" lon="-0.35079">
        <ele>148.8</ele>
        <time>2023-05-23T12:58:29Z</time>
      </trkpt>
      <trkpt lat="49.0106" lon="-0.35082">
        <ele>149.2</ele>
        <time>2023-05-23T12:58:30Z</time>
      </trkpt>
      <trkpt lat="49.01056" lon="-0.35086">
        <ele>149.4</ele>
        <time>2023-05-23T12:58:31Z</time>
      </trkpt>
      <trkpt lat="49.01053" lon="-0.3509">
        <ele>149.6</ele>
        <time>2023-05-23T12:58:32Z</time>
      </trkpt>
      <trkpt lat="49.01049" lon="-0.35094">
        <ele>149.6</ele>
        <time>2023-05-23T12:58:33Z</time>
      </trkpt>
      <trkpt lat="49.01045" lon="-0.35099">
        <ele>149.8</ele>
        <time>2023-05-23T12:58:34Z</time>
      </trkpt>
      <trkpt lat="49.01042" lon="-0.35103">
        <ele>150.2</ele>
        <time>2023-05-23T12:58:35Z</time>
      </trkpt>
      <trkpt lat="49.01038" lon="-0.35107">
        <ele>150.4</ele>
        <time>2023-05-23T12:58:36Z</time>
      </trkpt>
      <trkpt lat="49.01034" lon="-0.35112">
        <ele>150.6</ele>
        <time>2023-05-23T12:58:37Z</time>
      </trkpt>
      <trkpt lat="49.01031" lon="-0.35117">
        <ele>150.6</ele>
        <time>2023-05-23T12:58:38Z</time>
      </trkpt>
      <trkpt lat="49.01028" lon="-0.35121">
        <ele>150.8</ele>
        <time>2023-05-23T12:58:39Z</time>
      </trkpt>
      <trkpt lat="49.01024" lon="-0.35127">
        <ele>151</ele>
        <time>2023-05-23T12:58:40Z</time>
      </trkpt>
      <trkpt lat="49.01021" lon="-0.35132">
        <ele>151.2</ele>
        <time>2023-05-23T12:58:41Z</time>
      </trkpt>
      <trkpt lat="49.01018" lon="-0.35137">
        <ele>151.4</ele>
        <time>2023-05-23T12:58:42Z</time>
      </trkpt>
      <trkpt lat="49.01015" lon="-0.35143">
        <ele>151.4</ele>
        <time>2023-05-23T12:58:43Z</time>
      </trkpt>
      <trkpt lat="49.01012" lon="-0.35148">
        <ele>151.6</ele>
        <time>2023-05-23T12:58:44Z</time>
      </trkpt>
      <trkpt lat="49.01009" lon="-0.35153">
        <ele>151.6</ele>
        <time>2023-05-23T12:58:45Z</time>
      </trkpt>
      <trkpt lat="49.01006" lon="-0.35158">
        <ele>151.8</ele>
        <time>2023-05-23T12:58:46Z</time>
      </trkpt>
      <trkpt lat="49.01003" lon="-0.35164">
        <ele>151.8</ele>
        <time>2023-05-23T12:58:47Z</time>
      </trkpt>
      <trkpt lat="49.01" lon="-0.35169">
        <ele>152</ele>
        <time>2023-05-23T12:58:48Z</time>
      </trkpt>
      <trkpt lat="49.00997" lon="-0.35174">
        <ele>152.2</ele>
        <time>2023-05-23T12:58:49Z</time>
      </trkpt>
      <trkpt lat="49.00994" lon="-0.3518">
        <ele>152.2</ele>
        <time>2023-05-23T12:58:50Z</time>
      </trkpt>
      <trkpt lat="49.00992" lon="-0.35186">
        <ele>152.4</ele>
        <time>2023-05-23T12:58:51Z</time>
      </trkpt>
      <trkpt lat="49.0099" lon="-0.35191">
        <ele>152.4</ele>
        <time>2023-05-23T12:58:52Z</time>
      </trkpt>
      <trkpt lat="49.00988" lon="-0.35198">
        <ele>152.4</ele>
        <time>2023-05-23T12:58:53Z</time>
      </trkpt>
      <trkpt lat="49.00986" lon="-0.35204">
        <ele>152.6</ele>
        <time>2023-05-23T12:58:54Z</time>
      </trkpt>
      <trkpt lat="49.00984" lon="-0.3521">
        <ele>152.6</ele>
        <time>2023-05-23T12:58:55Z</time>
      </trkpt>
      <trkpt lat="49.00982" lon="-0.35217">
        <ele>152.6</ele>
        <time>2023-05-23T12:58:56Z</time>
      </trkpt>
      <trkpt lat="49.0098" lon="-0.35224">
        <ele>152.6</ele>
        <time>2023-05-23T12:58:57Z</time>
      </trkpt>
      <trkpt lat="49.00978" lon="-0.35231">
        <ele>152.8</ele>
        <time>2023-05-23T12:58:58Z</time>
      </trkpt>
      <trkpt lat="49.00976" lon="-0.35238">
        <ele>152.8</ele>
        <time>2023-05-23T12:58:59Z</time>
      </trkpt>
      <trkpt lat="49.00974" lon="-0.35245">
        <ele>152.8</ele>
        <time>2023-05-23T12:59:00Z</time>
      </trkpt>
      <trkpt lat="49.00972" lon="-0.35252">
        <ele>153</ele>
        <time>2023-05-23T12:59:01Z</time>
      </trkpt>
      <trkpt lat="49.0097" lon="-0.35259">
        <ele>153</ele>
        <time>2023-05-23T12:59:02Z</time>
      </trkpt>
      <trkpt lat="49.00968" lon="-0.35266">
        <ele>153</ele>
        <time>2023-05-23T12:59:03Z</time>
      </trkpt>
      <trkpt lat="49.00966" lon="-0.35273">
        <ele>153</ele>
        <time>2023-05-23T12:59:04Z</time>
      </trkpt>
      <trkpt lat="49.00963" lon="-0.35281">
        <ele>152.8</ele>
        <time>2023-05-23T12:59:05Z</time>
      </trkpt>
      <trkpt lat="49.00961" lon="-0.35288">
        <ele>152.8</ele>
        <time>2023-05-23T12:59:06Z</time>
      </trkpt>
      <trkpt lat="49.00959" lon="-0.35296">
        <ele>152.8</ele>
        <time>2023-05-23T12:59:07Z</time>
      </trkpt>
      <trkpt lat="49.00957" lon="-0.35304">
        <ele>152.8</ele>
        <time>2023-05-23T12:59:08Z</time>
      </trkpt>
      <trkpt lat="49.00955" lon="-0.35312">
        <ele>152.8</ele>
        <time>2023-05-23T12:59:09Z</time>
      </trkpt>
      <trkpt lat="49.00953" lon="-0.3532">
        <ele>152.8</ele>
        <time>2023-05-23T12:59:10Z</time>
      </trkpt>
      <trkpt lat="49.00951" lon="-0.35328">
        <ele>152.8</ele>
        <time>2023-05-23T12:59:11Z</time>
      </trkpt>
      <trkpt lat="49.00948" lon="-0.35336">
        <ele>152.8</ele>
        <time>2023-05-23T12:59:12Z</time>
      </trkpt>
      <trkpt lat="49.00947" lon="-0.35344">
        <ele>152.8</ele>
        <time>2023-05-23T12:59:13Z</time>
      </trkpt>
      <trkpt lat="49.00945" lon="-0.35352">
        <ele>153</ele>
        <time>2023-05-23T12:59:14Z</time>
      </trkpt>
      <trkpt lat="49.00943" lon="-0.3536">
        <ele>153.2</ele>
        <time>2023-05-23T12:59:15Z</time>
      </trkpt>
      <trkpt lat="49.00941" lon="-0.35368">
        <ele>153.2</ele>
        <time>2023-05-23T12:59:16Z</time>
      </trkpt>
      <trkpt lat="49.00939" lon="-0.35376">
        <ele>153.2</ele>
        <time>2023-05-23T12:59:17Z</time>
      </trkpt>
      <trkpt lat="49.00937" lon="-0.35383">
        <ele>153.4</ele>
        <time>2023-05-23T12:59:18Z</time>
      </trkpt>
      <trkpt lat="49.00935" lon="-0.35391">
        <ele>153.4</ele>
        <time>2023-05-23T12:59:19Z</time>
      </trkpt>
      <trkpt lat="49.00932" lon="-0.35398">
        <ele>153.4</ele>
        <time>2023-05-23T12:59:20Z</time>
      </trkpt>
      <trkpt lat="49.00929" lon="-0.35404">
        <ele>153.6</ele>
        <time>2023-05-23T12:59:21Z</time>
      </trkpt>
      <trkpt lat="49.00925" lon="-0.3541">
        <ele>153.6</ele>
        <time>2023-05-23T12:59:22Z</time>
      </trkpt>
      <trkpt lat="49.0092" lon="-0.35413">
        <ele>153.8</ele>
        <time>2023-05-23T12:59:23Z</time>
      </trkpt>
      <trkpt lat="49.00915" lon="-0.35416">
        <ele>154</ele>
        <time>2023-05-23T12:59:24Z</time>
      </trkpt>
      <trkpt lat="49.0091" lon="-0.35419">
        <ele>154.2</ele>
        <time>2023-05-23T12:59:25Z</time>
      </trkpt>
      <trkpt lat="49.00905" lon="-0.35422">
        <ele>154.2</ele>
        <time>2023-05-23T12:59:26Z</time>
      </trkpt>
      <trkpt lat="49.009" lon="-0.35425">
        <ele>154.2</ele>
        <time>2023-05-23T12:59:27Z</time>
      </trkpt>
      <trkpt lat="49.00895" lon="-0.35428">
        <ele>154.2</ele>
        <time>2023-05-23T12:59:28Z</time>
      </trkpt>
      <trkpt lat="49.0089" lon="-0.35431">
        <ele>154.2</ele>
        <time>2023-05-23T12:59:29Z</time>
      </trkpt>
      <trkpt lat="49.00885" lon="-0.35434">
        <ele>154.4</ele>
        <time>2023-05-23T12:59:30Z</time>
      </trkpt>
      <trkpt lat="49.0088" lon="-0.35437">
        <ele>154.4</ele>
        <time>2023-05-23T12:59:31Z</time>
      </trkpt>
      <trkpt lat="49.00875" lon="-0.3544">
        <ele>154.4</ele>
        <time>2023-05-23T12:59:32Z</time>
      </trkpt>
      <trkpt lat="49.00869" lon="-0.35443">
        <ele>154.4</ele>
        <time>2023-05-23T12:59:33Z</time>
      </trkpt>
      <trkpt lat="49.00864" lon="-0.35446">
        <ele>154.4</ele>
        <time>2023-05-23T12:59:34Z</time>
      </trkpt>
      <trkpt lat="49.00859" lon="-0.35449">
        <ele>154.4</ele>
        <time>2023-05-23T12:59:35Z</time>
      </trkpt>
      <trkpt lat="49.00854" lon="-0.35452">
        <ele>154.4</ele>
        <time>2023-05-23T12:59:36Z</time>
      </trkpt>
      <trkpt lat="49.00848" lon="-0.35456">
        <ele>154.4</ele>
        <time>2023-05-23T12:59:37Z</time>
      </trkpt>
      <trkpt lat="49.00843" lon="-0.35459">
        <ele>154.4</ele>
        <time>2023-05-23T12:59:38Z</time>
      </trkpt>
      <trkpt lat="49.00838" lon="-0.35461">
        <ele>154.4</ele>
        <time>2023-05-23T12:59:39Z</time>
      </trkpt>
      <trkpt lat="49.00832" lon="-0.35464">
        <ele>154.4</ele>
        <time>2023-05-23T12:59:40Z</time>
      </trkpt>
      <trkpt lat="49.00827" lon="-0.35467">
        <ele>154.6</ele>
        <time>2023-05-23T12:59:41Z</time>
      </trkpt>
      <trkpt lat="49.00822" lon="-0.3547">
        <ele>154.6</ele>
        <time>2023-05-23T12:59:42Z</time>
      </trkpt>
      <trkpt lat="49.00816" lon="-0.35473">
        <ele>154.6</ele>
        <time>2023-05-23T12:59:43Z</time>
      </trkpt>
      <trkpt lat="49.00811" lon="-0.35476">
        <ele>154.8</ele>
        <time>2023-05-23T12:59:44Z</time>
      </trkpt>
      <trkpt lat="49.00806" lon="-0.35479">
        <ele>155</ele>
        <time>2023-05-23T12:59:45Z</time>
      </trkpt>
      <trkpt lat="49.008" lon="-0.35482">
        <ele>155.2</ele>
        <time>2023-05-23T12:59:46Z</time>
      </trkpt>
      <trkpt lat="49.00795" lon="-0.35485">
        <ele>155.4</ele>
        <time>2023-05-23T12:59:47Z</time>
      </trkpt>
      <trkpt lat="49.0079" lon="-0.35488">
        <ele>155.6</ele>
        <time>2023-05-23T12:59:48Z</time>
      </trkpt>
      <trkpt lat="49.00784" lon="-0.35491">
        <ele>155.6</ele>
        <time>2023-05-23T12:59:49Z</time>
      </trkpt>
      <trkpt lat="49.00779" lon="-0.35495">
        <ele>155.8</ele>
        <time>2023-05-23T12:59:50Z</time>
      </trkpt>
      <trkpt lat="49.00774" lon="-0.35498">
        <ele>155.8</ele>
        <time>2023-05-23T12:59:51Z</time>
      </trkpt>
      <trkpt lat="49.00769" lon="-0.35502">
        <ele>156</ele>
        <time>2023-05-23T12:59:52Z</time>
      </trkpt>
      <trkpt lat="49.00764" lon="-0.35506">
        <ele>156.2</ele>
        <time>2023-05-23T12:59:53Z</time>
      </trkpt>
      <trkpt lat="49.00759" lon="-0.3551">
        <ele>156.2</ele>
        <time>2023-05-23T12:59:54Z</time>
      </trkpt>
      <trkpt lat="49.00754" lon="-0.35515">
        <ele>156.4</ele>
        <time>2023-05-23T12:59:55Z</time>
      </trkpt>
      <trkpt lat="49.00749" lon="-0.35519">
        <ele>156.4</ele>
        <time>2023-05-23T12:59:56Z</time>
      </trkpt>
      <trkpt lat="49.00744" lon="-0.35524">
        <ele>156.4</ele>
        <time>2023-05-23T12:59:57Z</time>
      </trkpt>
      <trkpt lat="49.0074" lon="-0.35529">
        <ele>156.4</ele>
        <time>2023-05-23T12:59:58Z</time>
      </trkpt>
      <trkpt lat="49.00735" lon="-0.35534">
        <ele>156.4</ele>
        <time>2023-05-23T12:59:59Z</time>
      </trkpt>
      <trkpt lat="49.00731" lon="-0.35539">
        <ele>156.6</ele>
        <time>2023-05-23T13:00:00Z</time>
      </trkpt>
      <trkpt lat="49.00727" lon="-0.35544">
        <ele>156.6</ele>
        <time>2023-05-23T13:00:01Z</time>
      </trkpt>
      <trkpt lat="49.00722" lon="-0.35549">
        <ele>156.6</ele>
        <time>2023-05-23T13:00:02Z</time>
      </trkpt>
      <trkpt lat="49.00718" lon="-0.35554">
        <ele>156.6</ele>
        <time>2023-05-23T13:00:03Z</time>
      </trkpt>
      <trkpt lat="49.00714" lon="-0.3556">
        <ele>156.8</ele>
        <time>2023-05-23T13:00:04Z</time>
      </trkpt>
      <trkpt lat="49.00709" lon="-0.35565">
        <ele>156.8</ele>
        <time>2023-05-23T13:00:05Z</time>
      </trkpt>
      <trkpt lat="49.00705" lon="-0.3557">
        <ele>157</ele>
        <time>2023-05-23T13:00:06Z</time>
      </trkpt>
      <trkpt lat="49.007" lon="-0.35575">
        <ele>157.2</ele>
        <time>2023-05-23T13:00:07Z</time>
      </trkpt>
      <trkpt lat="49.00696" lon="-0.3558">
        <ele>157.4</ele>
        <time>2023-05-23T13:00:08Z</time>
      </trkpt>
      <trkpt lat="49.00692" lon="-0.35586">
        <ele>157.6</ele>
        <time>2023-05-23T13:00:09Z</time>
      </trkpt>
      <trkpt lat="49.00687" lon="-0.35591">
        <ele>157.8</ele>
        <time>2023-05-23T13:00:10Z</time>
      </trkpt>
      <trkpt lat="49.00683" lon="-0.35596">
        <ele>158.2</ele>
        <time>2023-05-23T13:00:11Z</time>
      </trkpt>
      <trkpt lat="49.00678" lon="-0.35601">
        <ele>158.4</ele>
        <time>2023-05-23T13:00:12Z</time>
      </trkpt>
      <trkpt lat="49.00674" lon="-0.35607">
        <ele>158.6</ele>
        <time>2023-05-23T13:00:13Z</time>
      </trkpt>
      <trkpt lat="49.0067" lon="-0.35612">
        <ele>158.8</ele>
        <time>2023-05-23T13:00:14Z</time>
      </trkpt>
      <trkpt lat="49.00665" lon="-0.35617">
        <ele>159.2</ele>
        <time>2023-05-23T13:00:15Z</time>
      </trkpt>
      <trkpt lat="49.00661" lon="-0.35622">
        <ele>159.2</ele>
        <time>2023-05-23T13:00:16Z</time>
      </trkpt>
      <trkpt lat="49.00656" lon="-0.35627">
        <ele>159.4</ele>
        <time>2023-05-23T13:00:17Z</time>
      </trkpt>
      <trkpt lat="49.00652" lon="-0.35633">
        <ele>159.6</ele>
        <time>2023-05-23T13:00:18Z</time>
      </trkpt>
      <trkpt lat="49.00648" lon="-0.35638">
        <ele>159.8</ele>
        <time>2023-05-23T13:00:19Z</time>
      </trkpt>
      <trkpt lat="49.00643" lon="-0.35643">
        <ele>159.8</ele>
        <time>2023-05-23T13:00:20Z</time>
      </trkpt>
      <trkpt lat="49.00639" lon="-0.35648">
        <ele>160.2</ele>
        <time>2023-05-23T13:00:21Z</time>
      </trkpt>
      <trkpt lat="49.00635" lon="-0.35653">
        <ele>160.2</ele>
        <time>2023-05-23T13:00:22Z</time>
      </trkpt>
      <trkpt lat="49.00631" lon="-0.35658">
        <ele>160.4</ele>
        <time>2023-05-23T13:00:23Z</time>
      </trkpt>
      <trkpt lat="49.00626" lon="-0.35663">
        <ele>160.6</ele>
        <time>2023-05-23T13:00:24Z</time>
      </trkpt>
      <trkpt lat="49.00622" lon="-0.35667">
        <ele>160.6</ele>
        <time>2023-05-23T13:00:25Z</time>
      </trkpt>
      <trkpt lat="49.00618" lon="-0.35672">
        <ele>160.8</ele>
        <time>2023-05-23T13:00:26Z</time>
      </trkpt>
      <trkpt lat="49.00614" lon="-0.35677">
        <ele>161.2</ele>
        <time>2023-05-23T13:00:27Z</time>
      </trkpt>
      <trkpt lat="49.0061" lon="-0.35682">
        <ele>161.4</ele>
        <time>2023-05-23T13:00:28Z</time>
      </trkpt>
      <trkpt lat="49.00606" lon="-0.35686">
        <ele>161.6</ele>
        <time>2023-05-23T13:00:29Z</time>
      </trkpt>
      <trkpt lat="49.00602" lon="-0.35691">
        <ele>161.6</ele>
        <time>2023-05-23T13:00:30Z</time>
      </trkpt>
      <trkpt lat="49.00598" lon="-0.35695">
        <ele>161.8</ele>
        <time>2023-05-23T13:00:31Z</time>
      </trkpt>
      <trkpt lat="49.00594" lon="-0.35699">
        <ele>162</ele>
        <time>2023-05-23T13:00:32Z</time>
      </trkpt>
      <trkpt lat="49.0059" lon="-0.35703">
        <ele>162.2</ele>
        <time>2023-05-23T13:00:33Z</time>
      </trkpt>
      <trkpt lat="49.00586" lon="-0.35706">
        <ele>162.4</ele>
        <time>2023-05-23T13:00:34Z</time>
      </trkpt>
      <trkpt lat="49.00582" lon="-0.3571">
        <ele>162.6</ele>
        <time>2023-05-23T13:00:35Z</time>
      </trkpt>
      <trkpt lat="49.00578" lon="-0.35713">
        <ele>162.8</ele>
        <time>2023-05-23T13:00:36Z</time>
      </trkpt>
      <trkpt lat="49.00574" lon="-0.35715">
        <ele>163</ele>
        <time>2023-05-23T13:00:37Z</time>
      </trkpt>
      <trkpt lat="49.0057" lon="-0.35718">
        <ele>163.4</ele>
        <time>2023-05-23T13:00:38Z</time>
      </trkpt>
      <trkpt lat="49.00565" lon="-0.3572">
        <ele>163.6</ele>
        <time>2023-05-23T13:00:39Z</time>
      </trkpt>
      <trkpt lat="49.00561" lon="-0.35722">
        <ele>163.6</ele>
        <time>2023-05-23T13:00:40Z</time>
      </trkpt>
      <trkpt lat="49.00557" lon="-0.35724">
        <ele>164</ele>
        <time>2023-05-23T13:00:41Z</time>
      </trkpt>
      <trkpt lat="49.00552" lon="-0.35726">
        <ele>164.2</ele>
        <time>2023-05-23T13:00:42Z</time>
      </trkpt>
      <trkpt lat="49.00548" lon="-0.35728">
        <ele>164.4</ele>
        <time>2023-05-23T13:00:43Z</time>
      </trkpt>
      <trkpt lat="49.00543" lon="-0.35729">
        <ele>164.6</ele>
        <time>2023-05-23T13:00:44Z</time>
      </trkpt>
      <trkpt lat="49.00539" lon="-0.35731">
        <ele>164.8</ele>
        <time>2023-05-23T13:00:45Z</time>
      </trkpt>
      <trkpt lat="49.00534" lon="-0.35732">
        <ele>165.2</ele>
        <time>2023-05-23T13:00:46Z</time>
      </trkpt>
      <trkpt lat="49.0053" lon="-0.35734">
        <ele>165.4</ele>
        <time>2023-05-23T13:00:47Z</time>
      </trkpt>
      <trkpt lat="49.00525" lon="-0.35735">
        <ele>165.6</ele>
        <time>2023-05-23T13:00:48Z</time>
      </trkpt>
      <trkpt lat="49.00521" lon="-0.35736">
        <ele>165.8</ele>
        <time>2023-05-23T13:00:49Z</time>
      </trkpt>
      <trkpt lat="49.00516" lon="-0.35738">
        <ele>166.2</ele>
        <time>2023-05-23T13:00:50Z</time>
      </trkpt>
      <trkpt lat="49.00512" lon="-0.35739">
        <ele>166.4</ele>
        <time>2023-05-23T13:00:51Z</time>
      </trkpt>
      <trkpt lat="49.00508" lon="-0.3574">
        <ele>166.6</ele>
        <time>2023-05-23T13:00:52Z</time>
      </trkpt>
      <trkpt lat="49.00503" lon="-0.35742">
        <ele>166.8</ele>
        <time>2023-05-23T13:00:53Z</time>
      </trkpt>
      <trkpt lat="49.00499" lon="-0.35743">
        <ele>167</ele>
        <time>2023-05-23T13:00:54Z</time>
      </trkpt>
      <trkpt lat="49.00494" lon="-0.35744">
        <ele>167.2</ele>
        <time>2023-05-23T13:00:55Z</time>
      </trkpt>
      <trkpt lat="49.0049" lon="-0.35745">
        <ele>167.4</ele>
        <time>2023-05-23T13:00:56Z</time>
      </trkpt>
      <trkpt lat="49.00486" lon="-0.35747">
        <ele>167.6</ele>
        <time>2023-05-23T13:00:57Z</time>
      </trkpt>
      <trkpt lat="49.00481" lon="-0.35748">
        <ele>167.6</ele>
        <time>2023-05-23T13:00:58Z</time>
      </trkpt>
      <trkpt lat="49.00477" lon="-0.35749">
        <ele>167.8</ele>
        <time>2023-05-23T13:00:59Z</time>
      </trkpt>
      <trkpt lat="49.00473" lon="-0.3575">
        <ele>168</ele>
        <time>2023-05-23T13:01:00Z</time>
      </trkpt>
      <trkpt lat="49.00468" lon="-0.35751">
        <ele>168.2</ele>
        <time>2023-05-23T13:01:01Z</time>
      </trkpt>
      <trkpt lat="49.00464" lon="-0.35752">
        <ele>168.4</ele>
        <time>2023-05-23T13:01:02Z</time>
      </trkpt>
      <trkpt lat="49.0046" lon="-0.35753">
        <ele>168.6</ele>
        <time>2023-05-23T13:01:03Z</time>
      </trkpt>
      <trkpt lat="49.00456" lon="-0.35755">
        <ele>168.6</ele>
        <time>2023-05-23T13:01:04Z</time>
      </trkpt>
      <trkpt lat="49.00452" lon="-0.35756">
        <ele>168.8</ele>
        <time>2023-05-23T13:01:05Z</time>
      </trkpt>
      <trkpt lat="49.00447" lon="-0.35757">
        <ele>169</ele>
        <time>2023-05-23T13:01:06Z</time>
      </trkpt>
      <trkpt lat="49.00443" lon="-0.35758">
        <ele>169.2</ele>
        <time>2023-05-23T13:01:07Z</time>
      </trkpt>
      <trkpt lat="49.00439" lon="-0.3576">
        <ele>169.4</ele>
        <time>2023-05-23T13:01:08Z</time>
      </trkpt>
      <trkpt lat="49.00435" lon="-0.35761">
        <ele>169.6</ele>
        <time>2023-05-23T13:01:09Z</time>
      </trkpt>
      <trkpt lat="49.0043" lon="-0.35762">
        <ele>169.6</ele>
        <time>2023-05-23T13:01:10Z</time>
      </trkpt>
      <trkpt lat="49.00426" lon="-0.35764">
        <ele>169.8</ele>
        <time>2023-05-23T13:01:11Z</time>
      </trkpt>
      <trkpt lat="49.00422" lon="-0.35765">
        <ele>170</ele>
        <time>2023-05-23T13:01:12Z</time>
      </trkpt>
      <trkpt lat="49.00417" lon="-0.35766">
        <ele>170.2</ele>
        <time>2023-05-23T13:01:13Z</time>
      </trkpt>
      <trkpt lat="49.00413" lon="-0.35768">
        <ele>170.4</ele>
        <time>2023-05-23T13:01:14Z</time>
      </trkpt>
      <trkpt lat="49.00409" lon="-0.35769">
        <ele>170.4</ele>
        <time>2023-05-23T13:01:15Z</time>
      </trkpt>
      <trkpt lat="49.00405" lon="-0.3577">
        <ele>170.6</ele>
        <time>2023-05-23T13:01:16Z</time>
      </trkpt>
      <trkpt lat="49.004" lon="-0.35772">
        <ele>170.6</ele>
        <time>2023-05-23T13:01:17Z</time>
      </trkpt>
      <trkpt lat="49.00396" lon="-0.35773">
        <ele>170.8</ele>
        <time>2023-05-23T13:01:18Z</time>
      </trkpt>
      <trkpt lat="49.00392" lon="-0.35775">
        <ele>170.8</ele>
        <time>2023-05-23T13:01:19Z</time>
      </trkpt>
      <trkpt lat="49.00388" lon="-0.35776">
        <ele>171</ele>
        <time>2023-05-23T13:01:20Z</time>
      </trkpt>
      <trkpt lat="49.00383" lon="-0.35778">
        <ele>171.2</ele>
        <time>2023-05-23T13:01:21Z</time>
      </trkpt>
      <trkpt lat="49.00379" lon="-0.35779">
        <ele>171.2</ele>
        <time>2023-05-23T13:01:22Z</time>
      </trkpt>
      <trkpt lat="49.00375" lon="-0.35781">
        <ele>171.4</ele>
        <time>2023-05-23T13:01:23Z</time>
      </trkpt>
      <trkpt lat="49.0037" lon="-0.35783">
        <ele>171.6</ele>
        <time>2023-05-23T13:01:24Z</time>
      </trkpt>
      <trkpt lat="49.00366" lon="-0.35784">
        <ele>171.6</ele>
        <time>2023-05-23T13:01:25Z</time>
      </trkpt>
      <trkpt lat="49.00362" lon="-0.35786">
        <ele>171.8</ele>
        <time>2023-05-23T13:01:26Z</time>
      </trkpt>
      <trkpt lat="49.00357" lon="-0.35788">
        <ele>171.8</ele>
        <time>2023-05-23T13:01:27Z</time>
      </trkpt>
      <trkpt lat="49.00353" lon="-0.3579">
        <ele>172</ele>
        <time>2023-05-23T13:01:28Z</time>
      </trkpt>
      <trkpt lat="49.00349" lon="-0.35792">
        <ele>172.2</ele>
        <time>2023-05-23T13:01:29Z</time>
      </trkpt>
      <trkpt lat="49.00344" lon="-0.35794">
        <ele>172.4</ele>
        <time>2023-05-23T13:01:30Z</time>
      </trkpt>
      <trkpt lat="49.0034" lon="-0.35797">
        <ele>172.4</ele>
        <time>2023-05-23T13:01:31Z</time>
      </trkpt>
      <trkpt lat="49.00335" lon="-0.35799">
        <ele>172.6</ele>
        <time>2023-05-23T13:01:32Z</time>
      </trkpt>
      <trkpt lat="49.00331" lon="-0.35801">
        <ele>172.6</ele>
        <time>2023-05-23T13:01:33Z</time>
      </trkpt>
      <trkpt lat="49.00326" lon="-0.35804">
        <ele>172.6</ele>
        <time>2023-05-23T13:01:34Z</time>
      </trkpt>
      <trkpt lat="49.00322" lon="-0.35806">
        <ele>172.6</ele>
        <time>2023-05-23T13:01:35Z</time>
      </trkpt>
      <trkpt lat="49.00317" lon="-0.35809">
        <ele>172.8</ele>
        <time>2023-05-23T13:01:36Z</time>
      </trkpt>
      <trkpt lat="49.00313" lon="-0.35812">
        <ele>172.8</ele>
        <time>2023-05-23T13:01:37Z</time>
      </trkpt>
      <trkpt lat="49.00308" lon="-0.35814">
        <ele>172.8</ele>
        <time>2023-05-23T13:01:38Z</time>
      </trkpt>
      <trkpt lat="49.00304" lon="-0.35817">
        <ele>172.8</ele>
        <time>2023-05-23T13:01:39Z</time>
      </trkpt>
      <trkpt lat="49.00299" lon="-0.3582">
        <ele>172.8</ele>
        <time>2023-05-23T13:01:40Z</time>
      </trkpt>
      <trkpt lat="49.00295" lon="-0.35823">
        <ele>172.8</ele>
        <time>2023-05-23T13:01:41Z</time>
      </trkpt>
      <trkpt lat="49.0029" lon="-0.35827">
        <ele>173</ele>
        <time>2023-05-23T13:01:42Z</time>
      </trkpt>
      <trkpt lat="49.00286" lon="-0.3583">
        <ele>173</ele>
        <time>2023-05-23T13:01:43Z</time>
      </trkpt>
      <trkpt lat="49.00281" lon="-0.35833">
        <ele>173</ele>
        <time>2023-05-23T13:01:44Z</time>
      </trkpt>
      <trkpt lat="49.00277" lon="-0.35837">
        <ele>173</ele>
        <time>2023-05-23T13:01:45Z</time>
      </trkpt>
      <trkpt lat="49.00272" lon="-0.3584">
        <ele>173.2</ele>
        <time>2023-05-23T13:01:46Z</time>
      </trkpt>
      <trkpt lat="49.00268" lon="-0.35844">
        <ele>173.2</ele>
        <time>2023-05-23T13:01:47Z</time>
      </trkpt>
      <trkpt lat="49.00263" lon="-0.35848">
        <ele>173.2</ele>
        <time>2023-05-23T13:01:48Z</time>
      </trkpt>
      <trkpt lat="49.00259" lon="-0.35852">
        <ele>173.2</ele>
        <time>2023-05-23T13:01:49Z</time>
      </trkpt>
      <trkpt lat="49.00254" lon="-0.35856">
        <ele>173.4</ele>
        <time>2023-05-23T13:01:50Z</time>
      </trkpt>
      <trkpt lat="49.00249" lon="-0.3586">
        <ele>173.4</ele>
        <time>2023-05-23T13:01:51Z</time>
      </trkpt>
      <trkpt lat="49.00245" lon="-0.35864">
        <ele>173.4</ele>
        <time>2023-05-23T13:01:52Z</time>
      </trkpt>
      <trkpt lat="49.0024" lon="-0.35869">
        <ele>173.4</ele>
        <time>2023-05-23T13:01:53Z</time>
      </trkpt>
      <trkpt lat="49.00235" lon="-0.35873">
        <ele>173.6</ele>
        <time>2023-05-23T13:01:54Z</time>
      </trkpt>
      <trkpt lat="49.0023" lon="-0.35878">
        <ele>173.6</ele>
        <time>2023-05-23T13:01:55Z</time>
      </trkpt>
      <trkpt lat="49.00225" lon="-0.35883">
        <ele>173.6</ele>
        <time>2023-05-23T13:01:56Z</time>
      </trkpt>
      <trkpt lat="49.0022" lon="-0.35888">
        <ele>173.6</ele>
        <time>2023-05-23T13:01:57Z</time>
      </trkpt>
      <trkpt lat="49.00215" lon="-0.35892">
        <ele>173.6</ele>
        <time>2023-05-23T13:01:58Z</time>
      </trkpt>
      <trkpt lat="49.0021" lon="-0.35897">
        <ele>173.8</ele>
        <time>2023-05-23T13:01:59Z</time>
      </trkpt>
      <trkpt lat="49.00205" lon="-0.35902">
        <ele>173.8</ele>
        <time>2023-05-23T13:02:00Z</time>
      </trkpt>
      <trkpt lat="49.00199" lon="-0.35907">
        <ele>173.8</ele>
        <time>2023-05-23T13:02:01Z</time>
      </trkpt>
      <trkpt lat="49.00194" lon="-0.35912">
        <ele>173.8</ele>
        <time>2023-05-23T13:02:02Z</time>
      </trkpt>
      <trkpt lat="49.00189" lon="-0.35918">
        <ele>174</ele>
        <time>2023-05-23T13:02:03Z</time>
      </trkpt>
      <trkpt lat="49.00183" lon="-0.35922">
        <ele>173.8</ele>
        <time>2023-05-23T13:02:04Z</time>
      </trkpt>
      <trkpt lat="49.00178" lon="-0.35928">
        <ele>173.8</ele>
        <time>2023-05-23T13:02:05Z</time>
      </trkpt>
      <trkpt lat="49.00172" lon="-0.35933">
        <ele>173.8</ele>
        <time>2023-05-23T13:02:06Z</time>
      </trkpt>
      <trkpt lat="49.00166" lon="-0.35938">
        <ele>173.6</ele>
        <time>2023-05-23T13:02:07Z</time>
      </trkpt>
      <trkpt lat="49.0016" lon="-0.35942">
        <ele>173.6</ele>
        <time>2023-05-23T13:02:08Z</time>
      </trkpt>
      <trkpt lat="49.00155" lon="-0.35947">
        <ele>173.6</ele>
        <time>2023-05-23T13:02:09Z</time>
      </trkpt>
      <trkpt lat="49.00149" lon="-0.35952">
        <ele>173.6</ele>
        <time>2023-05-23T13:02:10Z</time>
      </trkpt>
      <trkpt lat="49.00143" lon="-0.35957">
        <ele>173.6</ele>
        <time>2023-05-23T13:02:11Z</time>
      </trkpt>
      <trkpt lat="49.00137" lon="-0.35961">
        <ele>173.6</ele>
        <time>2023-05-23T13:02:12Z</time>
      </trkpt>
      <trkpt lat="49.0013" lon="-0.35965">
        <ele>173.6</ele>
        <time>2023-05-23T13:02:13Z</time>
      </trkpt>
      <trkpt lat="49.00124" lon="-0.35969">
        <ele>173.6</ele>
        <time>2023-05-23T13:02:14Z</time>
      </trkpt>
      <trkpt lat="49.00117" lon="-0.35973">
        <ele>173.6</ele>
        <time>2023-05-23T13:02:15Z</time>
      </trkpt>
      <trkpt lat="49.00111" lon="-0.35976">
        <ele>173.8</ele>
        <time>2023-05-23T13:02:16Z</time>
      </trkpt>
      <trkpt lat="49.00104" lon="-0.3598">
        <ele>173.8</ele>
        <time>2023-05-23T13:02:17Z</time>
      </trkpt>
      <trkpt lat="49.00097" lon="-0.35984">
        <ele>173.8</ele>
        <time>2023-05-23T13:02:18Z</time>
      </trkpt>
      <trkpt lat="49.00091" lon="-0.35988">
        <ele>173.8</ele>
        <time>2023-05-23T13:02:19Z</time>
      </trkpt>
      <trkpt lat="49.00084" lon="-0.35991">
        <ele>174</ele>
        <time>2023-05-23T13:02:20Z</time>
      </trkpt>
      <trkpt lat="49.00077" lon="-0.35995">
        <ele>173.8</ele>
        <time>2023-05-23T13:02:21Z</time>
      </trkpt>
      <trkpt lat="49.0007" lon="-0.35998">
        <ele>173.8</ele>
        <time>2023-05-23T13:02:22Z</time>
      </trkpt>
      <trkpt lat="49.00063" lon="-0.36002">
        <ele>173.6</ele>
        <time>2023-05-23T13:02:23Z</time>
      </trkpt>
      <trkpt lat="49.00056" lon="-0.36006">
        <ele>173.6</ele>
        <time>2023-05-23T13:02:24Z</time>
      </trkpt>
      <trkpt lat="49.00049" lon="-0.36009">
        <ele>173.6</ele>
        <time>2023-05-23T13:02:25Z</time>
      </trkpt>
      <trkpt lat="49.00042" lon="-0.36013">
        <ele>173.4</ele>
        <time>2023-05-23T13:02:26Z</time>
      </trkpt>
      <trkpt lat="49.00035" lon="-0.36017">
        <ele>173.4</ele>
        <time>2023-05-23T13:02:27Z</time>
      </trkpt>
      <trkpt lat="49.00028" lon="-0.3602">
        <ele>173.4</ele>
        <time>2023-05-23T13:02:28Z</time>
      </trkpt>
      <trkpt lat="49.00021" lon="-0.36024">
        <ele>173.2</ele>
        <time>2023-05-23T13:02:29Z</time>
      </trkpt>
      <trkpt lat="49.00014" lon="-0.36028">
        <ele>173.2</ele>
        <time>2023-05-23T13:02:30Z</time>
      </trkpt>
      <trkpt lat="49.00006" lon="-0.36032">
        <ele>173</ele>
        <time>2023-05-23T13:02:31Z</time>
      </trkpt>
      <trkpt lat="48.99999" lon="-0.36036">
        <ele>173</ele>
        <time>2023-05-23T13:02:32Z</time>
      </trkpt>
      <trkpt lat="48.99992" lon="-0.3604">
        <ele>173</ele>
        <time>2023-05-23T13:02:33Z</time>
      </trkpt>
      <trkpt lat="48.99986" lon="-0.36044">
        <ele>173</ele>
        <time>2023-05-23T13:02:34Z</time>
      </trkpt>
      <trkpt lat="48.99979" lon="-0.36048">
        <ele>173</ele>
        <time>2023-05-23T13:02:35Z</time>
      </trkpt>
      <trkpt lat="48.99972" lon="-0.36052">
        <ele>172.8</ele>
        <time>2023-05-23T13:02:36Z</time>
      </trkpt>
      <trkpt lat="48.99965" lon="-0.36056">
        <ele>172.8</ele>
        <time>2023-05-23T13:02:37Z</time>
      </trkpt>
      <trkpt lat="48.99958" lon="-0.36061">
        <ele>172.8</ele>
        <time>2023-05-23T13:02:38Z</time>
      </trkpt>
      <trkpt lat="48.99952" lon="-0.36066">
        <ele>172.6</ele>
        <time>2023-05-23T13:02:39Z</time>
      </trkpt>
      <trkpt lat="48.99945" lon="-0.3607">
        <ele>172.6</ele>
        <time>2023-05-23T13:02:40Z</time>
      </trkpt>
      <trkpt lat="48.99938" lon="-0.36076">
        <ele>172.4</ele>
        <time>2023-05-23T13:02:41Z</time>
      </trkpt>
      <trkpt lat="48.99932" lon="-0.36081">
        <ele>172.2</ele>
        <time>2023-05-23T13:02:42Z</time>
      </trkpt>
      <trkpt lat="48.99925" lon="-0.36087">
        <ele>172.2</ele>
        <time>2023-05-23T13:02:43Z</time>
      </trkpt>
      <trkpt lat="48.99918" lon="-0.36094">
        <ele>171.8</ele>
        <time>2023-05-23T13:02:44Z</time>
      </trkpt>
      <trkpt lat="48.99911" lon="-0.361">
        <ele>171.6</ele>
        <time>2023-05-23T13:02:45Z</time>
      </trkpt>
      <trkpt lat="48.99904" lon="-0.36107">
        <ele>171.4</ele>
        <time>2023-05-23T13:02:46Z</time>
      </trkpt>
      <trkpt lat="48.99897" lon="-0.36114">
        <ele>171.2</ele>
        <time>2023-05-23T13:02:47Z</time>
      </trkpt>
      <trkpt lat="48.99889" lon="-0.36121">
        <ele>170.8</ele>
        <time>2023-05-23T13:02:48Z</time>
      </trkpt>
      <trkpt lat="48.99881" lon="-0.36128">
        <ele>170.6</ele>
        <time>2023-05-23T13:02:49Z</time>
      </trkpt>
      <trkpt lat="48.99873" lon="-0.36136">
        <ele>170.4</ele>
        <time>2023-05-23T13:02:50Z</time>
      </trkpt>
      <trkpt lat="48.99865" lon="-0.36143">
        <ele>170</ele>
        <time>2023-05-23T13:02:51Z</time>
      </trkpt>
      <trkpt lat="48.99857" lon="-0.3615">
        <ele>169.8</ele>
        <time>2023-05-23T13:02:52Z</time>
      </trkpt>
      <trkpt lat="48.99848" lon="-0.36158">
        <ele>169.6</ele>
        <time>2023-05-23T13:02:53Z</time>
      </trkpt>
      <trkpt lat="48.9984" lon="-0.36165">
        <ele>169.2</ele>
        <time>2023-05-23T13:02:54Z</time>
      </trkpt>
      <trkpt lat="48.99832" lon="-0.36173">
        <ele>168.8</ele>
        <time>2023-05-23T13:02:55Z</time>
      </trkpt>
      <trkpt lat="48.99824" lon="-0.36182">
        <ele>168.2</ele>
        <time>2023-05-23T13:02:56Z</time>
      </trkpt>
      <trkpt lat="48.99816" lon="-0.36192">
        <ele>167.6</ele>
        <time>2023-05-23T13:02:57Z</time>
      </trkpt>
      <trkpt lat="48.99809" lon="-0.36204">
        <ele>167</ele>
        <time>2023-05-23T13:02:58Z</time>
      </trkpt>
      <trkpt lat="48.99803" lon="-0.36216">
        <ele>166.4</ele>
        <time>2023-05-23T13:02:59Z</time>
      </trkpt>
      <trkpt lat="48.99797" lon="-0.3623">
        <ele>165.6</ele>
        <time>2023-05-23T13:03:00Z</time>
      </trkpt>
      <trkpt lat="48.99792" lon="-0.36244">
        <ele>165.2</ele>
        <time>2023-05-23T13:03:01Z</time>
      </trkpt>
      <trkpt lat="48.99787" lon="-0.36258">
        <ele>164.6</ele>
        <time>2023-05-23T13:03:02Z</time>
      </trkpt>
      <trkpt lat="48.99782" lon="-0.36273">
        <ele>164.2</ele>
        <time>2023-05-23T13:03:03Z</time>
      </trkpt>
      <trkpt lat="48.99778" lon="-0.36288">
        <ele>163.6</ele>
        <time>2023-05-23T13:03:04Z</time>
      </trkpt>
      <trkpt lat="48.99772" lon="-0.36302">
        <ele>163.2</ele>
        <time>2023-05-23T13:03:05Z</time>
      </trkpt>
      <trkpt lat="48.99766" lon="-0.36316">
        <ele>162.8</ele>
        <time>2023-05-23T13:03:06Z</time>
      </trkpt>
      <trkpt lat="48.99759" lon="-0.36329">
        <ele>162.4</ele>
        <time>2023-05-23T13:03:07Z</time>
      </trkpt>
      <trkpt lat="48.99751" lon="-0.36342">
        <ele>161.8</ele>
        <time>2023-05-23T13:03:08Z</time>
      </trkpt>
      <trkpt lat="48.99742" lon="-0.36352">
        <ele>161.4</ele>
        <time>2023-05-23T13:03:09Z</time>
      </trkpt>
      <trkpt lat="48.99732" lon="-0.36361">
        <ele>160.8</ele>
        <time>2023-05-23T13:03:10Z</time>
      </trkpt>
      <trkpt lat="48.99722" lon="-0.36369">
        <ele>160.4</ele>
        <time>2023-05-23T13:03:11Z</time>
      </trkpt>
      <trkpt lat="48.99712" lon="-0.36375">
        <ele>159.8</ele>
        <time>2023-05-23T13:03:12Z</time>
      </trkpt>
      <trkpt lat="48.99701" lon="-0.3638">
        <ele>159.4</ele>
        <time>2023-05-23T13:03:13Z</time>
      </trkpt>
      <trkpt lat="48.99691" lon="-0.36384">
        <ele>159</ele>
        <time>2023-05-23T13:03:14Z</time>
      </trkpt>
      <trkpt lat="48.9968" lon="-0.36388">
        <ele>158.6</ele>
        <time>2023-05-23T13:03:15Z</time>
      </trkpt>
      <trkpt lat="48.9967" lon="-0.36392">
        <ele>158.2</ele>
        <time>2023-05-23T13:03:16Z</time>
      </trkpt>
      <trkpt lat="48.9966" lon="-0.36397">
        <ele>158</ele>
        <time>2023-05-23T13:03:17Z</time>
      </trkpt>
      <trkpt lat="48.9965" lon="-0.36402">
        <ele>157.8</ele>
        <time>2023-05-23T13:03:18Z</time>
      </trkpt>
      <trkpt lat="48.9964" lon="-0.36408">
        <ele>157.8</ele>
        <time>2023-05-23T13:03:19Z</time>
      </trkpt>
      <trkpt lat="48.9963" lon="-0.36414">
        <ele>158</ele>
        <time>2023-05-23T13:03:20Z</time>
      </trkpt>
      <trkpt lat="48.99621" lon="-0.36421">
        <ele>158.2</ele>
        <time>2023-05-23T13:03:21Z</time>
      </trkpt>
      <trkpt lat="48.99612" lon="-0.36428">
        <ele>158.2</ele>
        <time>2023-05-23T13:03:22Z</time>
      </trkpt>
      <trkpt lat="48.99603" lon="-0.36436">
        <ele>158.4</ele>
        <time>2023-05-23T13:03:23Z</time>
      </trkpt>
      <trkpt lat="48.99595" lon="-0.36444">
        <ele>158.6</ele>
        <time>2023-05-23T13:03:24Z</time>
      </trkpt>
      <trkpt lat="48.99586" lon="-0.36452">
        <ele>158.8</ele>
        <time>2023-05-23T13:03:25Z</time>
      </trkpt>
      <trkpt lat="48.99578" lon="-0.36459">
        <ele>159</ele>
        <time>2023-05-23T13:03:26Z</time>
      </trkpt>
      <trkpt lat="48.9957" lon="-0.36467">
        <ele>159.2</ele>
        <time>2023-05-23T13:03:27Z</time>
      </trkpt>
      <trkpt lat="48.99562" lon="-0.36474">
        <ele>159.4</ele>
        <time>2023-05-23T13:03:28Z</time>
      </trkpt>
      <trkpt lat="48.99554" lon="-0.36481">
        <ele>159.4</ele>
        <time>2023-05-23T13:03:29Z</time>
      </trkpt>
      <trkpt lat="48.99547" lon="-0.36489">
        <ele>159.4</ele>
        <time>2023-05-23T13:03:30Z</time>
      </trkpt>
      <trkpt lat="48.99539" lon="-0.36496">
        <ele>159.4</ele>
        <time>2023-05-23T13:03:31Z</time>
      </trkpt>
      <trkpt lat="48.99532" lon="-0.36503">
        <ele>159.4</ele>
        <time>2023-05-23T13:03:32Z</time>
      </trkpt>
      <trkpt lat="48.99524" lon="-0.36511">
        <ele>159.6</ele>
        <time>2023-05-23T13:03:33Z</time>
      </trkpt>
      <trkpt lat="48.99516" lon="-0.36518">
        <ele>159.6</ele>
        <time>2023-05-23T13:03:34Z</time>
      </trkpt>
      <trkpt lat="48.99509" lon="-0.36525">
        <ele>159.4</ele>
        <time>2023-05-23T13:03:35Z</time>
      </trkpt>
      <trkpt lat="48.99502" lon="-0.36533">
        <ele>159.4</ele>
        <time>2023-05-23T13:03:36Z</time>
      </trkpt>
      <trkpt lat="48.99494" lon="-0.3654">
        <ele>159.6</ele>
        <time>2023-05-23T13:03:37Z</time>
      </trkpt>
      <trkpt lat="48.99487" lon="-0.36547">
        <ele>159.6</ele>
        <time>2023-05-23T13:03:38Z</time>
      </trkpt>
      <trkpt lat="48.9948" lon="-0.36555">
        <ele>159.6</ele>
        <time>2023-05-23T13:03:39Z</time>
      </trkpt>
      <trkpt lat="48.99473" lon="-0.36562">
        <ele>159.6</ele>
        <time>2023-05-23T13:03:40Z</time>
      </trkpt>
      <trkpt lat="48.99466" lon="-0.3657">
        <ele>159.6</ele>
        <time>2023-05-23T13:03:41Z</time>
      </trkpt>
      <trkpt lat="48.99459" lon="-0.36577">
        <ele>159.6</ele>
        <time>2023-05-23T13:03:42Z</time>
      </trkpt>
      <trkpt lat="48.99452" lon="-0.36585">
        <ele>159.4</ele>
        <time>2023-05-23T13:03:43Z</time>
      </trkpt>
      <trkpt lat="48.99445" lon="-0.36593">
        <ele>159.4</ele>
        <time>2023-05-23T13:03:44Z</time>
      </trkpt>
      <trkpt lat="48.99439" lon="-0.36601">
        <ele>159.4</ele>
        <time>2023-05-23T13:03:45Z</time>
      </trkpt>
      <trkpt lat="48.99432" lon="-0.36609">
        <ele>159.4</ele>
        <time>2023-05-23T13:03:46Z</time>
      </trkpt>
      <trkpt lat="48.99426" lon="-0.36618">
        <ele>159.6</ele>
        <time>2023-05-23T13:03:47Z</time>
      </trkpt>
      <trkpt lat="48.9942" lon="-0.36626">
        <ele>159.6</ele>
        <time>2023-05-23T13:03:48Z</time>
      </trkpt>
      <trkpt lat="48.99414" lon="-0.36634">
        <ele>159.6</ele>
        <time>2023-05-23T13:03:49Z</time>
      </trkpt>
      <trkpt lat="48.99408" lon="-0.36643">
        <ele>160</ele>
        <time>2023-05-23T13:03:50Z</time>
      </trkpt>
      <trkpt lat="48.99401" lon="-0.36651">
        <ele>160.2</ele>
        <time>2023-05-23T13:03:51Z</time>
      </trkpt>
      <trkpt lat="48.99395" lon="-0.3666">
        <ele>160.4</ele>
        <time>2023-05-23T13:03:52Z</time>
      </trkpt>
      <trkpt lat="48.99389" lon="-0.36668">
        <ele>160.6</ele>
        <time>2023-05-23T13:03:53Z</time>
      </trkpt>
      <trkpt lat="48.99384" lon="-0.36676">
        <ele>160.8</ele>
        <time>2023-05-23T13:03:54Z</time>
      </trkpt>
      <trkpt lat="48.99378" lon="-0.36684">
        <ele>161.2</ele>
        <time>2023-05-23T13:03:55Z</time>
      </trkpt>
      <trkpt lat="48.99372" lon="-0.36693">
        <ele>161.4</ele>
        <time>2023-05-23T13:03:56Z</time>
      </trkpt>
      <trkpt lat="48.99366" lon="-0.36701">
        <ele>161.6</ele>
        <time>2023-05-23T13:03:57Z</time>
      </trkpt>
      <trkpt lat="48.9936" lon="-0.36709">
        <ele>161.6</ele>
        <time>2023-05-23T13:03:58Z</time>
      </trkpt>
      <trkpt lat="48.99355" lon="-0.36717">
        <ele>161.8</ele>
        <time>2023-05-23T13:03:59Z</time>
      </trkpt>
      <trkpt lat="48.99349" lon="-0.36726">
        <ele>161.8</ele>
        <time>2023-05-23T13:04:00Z</time>
      </trkpt>
      <trkpt lat="48.99343" lon="-0.36734">
        <ele>162</ele>
        <time>2023-05-23T13:04:01Z</time>
      </trkpt>
      <trkpt lat="48.99338" lon="-0.36742">
        <ele>162</ele>
        <time>2023-05-23T13:04:02Z</time>
      </trkpt>
      <trkpt lat="48.99332" lon="-0.3675">
        <ele>162</ele>
        <time>2023-05-23T13:04:03Z</time>
      </trkpt>
      <trkpt lat="48.99327" lon="-0.36758">
        <ele>162.4</ele>
        <time>2023-05-23T13:04:04Z</time>
      </trkpt>
      <trkpt lat="48.99321" lon="-0.36766">
        <ele>162.6</ele>
        <time>2023-05-23T13:04:05Z</time>
      </trkpt>
      <trkpt lat="48.99316" lon="-0.36773">
        <ele>162.8</ele>
        <time>2023-05-23T13:04:06Z</time>
      </trkpt>
      <trkpt lat="48.9931" lon="-0.36781">
        <ele>163</ele>
        <time>2023-05-23T13:04:07Z</time>
      </trkpt>
      <trkpt lat="48.99305" lon="-0.36789">
        <ele>163.2</ele>
        <time>2023-05-23T13:04:08Z</time>
      </trkpt>
      <trkpt lat="48.993" lon="-0.36797">
        <ele>163.4</ele>
        <time>2023-05-23T13:04:09Z</time>
      </trkpt>
      <trkpt lat="48.99294" lon="-0.36805">
        <ele>163.4</ele>
        <time>2023-05-23T13:04:10Z</time>
      </trkpt>
      <trkpt lat="48.99289" lon="-0.36813">
        <ele>163.6</ele>
        <time>2023-05-23T13:04:11Z</time>
      </trkpt>
      <trkpt lat="48.99284" lon="-0.3682">
        <ele>163.6</ele>
        <time>2023-05-23T13:04:12Z</time>
      </trkpt>
      <trkpt lat="48.99279" lon="-0.36828">
        <ele>163.6</ele>
        <time>2023-05-23T13:04:13Z</time>
      </trkpt>
      <trkpt lat="48.99273" lon="-0.36836">
        <ele>163.6</ele>
        <time>2023-05-23T13:04:14Z</time>
      </trkpt>
      <trkpt lat="48.99268" lon="-0.36843">
        <ele>163.8</ele>
        <time>2023-05-23T13:04:15Z</time>
      </trkpt>
      <trkpt lat="48.99263" lon="-0.36851">
        <ele>163.8</ele>
        <time>2023-05-23T13:04:16Z</time>
      </trkpt>
      <trkpt lat="48.99258" lon="-0.36859">
        <ele>164</ele>
        <time>2023-05-23T13:04:17Z</time>
      </trkpt>
      <trkpt lat="48.99253" lon="-0.36866">
        <ele>164</ele>
        <time>2023-05-23T13:04:18Z</time>
      </trkpt>
      <trkpt lat="48.99248" lon="-0.36874">
        <ele>164.2</ele>
        <time>2023-05-23T13:04:19Z</time>
      </trkpt>
      <trkpt lat="48.99243" lon="-0.36882">
        <ele>164.2</ele>
        <time>2023-05-23T13:04:20Z</time>
      </trkpt>
      <trkpt lat="48.99237" lon="-0.36889">
        <ele>164.4</ele>
        <time>2023-05-23T13:04:21Z</time>
      </trkpt>
      <trkpt lat="48.99232" lon="-0.36897">
        <ele>164.6</ele>
        <time>2023-05-23T13:04:22Z</time>
      </trkpt>
      <trkpt lat="48.99227" lon="-0.36904">
        <ele>164.6</ele>
        <time>2023-05-23T13:04:23Z</time>
      </trkpt>
      <trkpt lat="48.99222" lon="-0.36912">
        <ele>164.6</ele>
        <time>2023-05-23T13:04:24Z</time>
      </trkpt>
      <trkpt lat="48.99217" lon="-0.36919">
        <ele>164.8</ele>
        <time>2023-05-23T13:04:25Z</time>
      </trkpt>
      <trkpt lat="48.99212" lon="-0.36926">
        <ele>165</ele>
        <time>2023-05-23T13:04:26Z</time>
      </trkpt>
      <trkpt lat="48.99207" lon="-0.36934">
        <ele>165.2</ele>
        <time>2023-05-23T13:04:27Z</time>
      </trkpt>
      <trkpt lat="48.99201" lon="-0.36941">
        <ele>165.4</ele>
        <time>2023-05-23T13:04:28Z</time>
      </trkpt>
      <trkpt lat="48.99196" lon="-0.36948">
        <ele>165.6</ele>
        <time>2023-05-23T13:04:29Z</time>
      </trkpt>
      <trkpt lat="48.99191" lon="-0.36955">
        <ele>165.6</ele>
        <time>2023-05-23T13:04:30Z</time>
      </trkpt>
      <trkpt lat="48.99185" lon="-0.36962">
        <ele>165.8</ele>
        <time>2023-05-23T13:04:31Z</time>
      </trkpt>
      <trkpt lat="48.9918" lon="-0.36968">
        <ele>165.8</ele>
        <time>2023-05-23T13:04:32Z</time>
      </trkpt>
      <trkpt lat="48.99174" lon="-0.36975">
        <ele>165.8</ele>
        <time>2023-05-23T13:04:33Z</time>
      </trkpt>
      <trkpt lat="48.99168" lon="-0.36981">
        <ele>166</ele>
        <time>2023-05-23T13:04:34Z</time>
      </trkpt>
      <trkpt lat="48.99163" lon="-0.36986">
        <ele>166.2</ele>
        <time>2023-05-23T13:04:35Z</time>
      </trkpt>
      <trkpt lat="48.99157" lon="-0.36991">
        <ele>166.6</ele>
        <time>2023-05-23T13:04:36Z</time>
      </trkpt>
      <trkpt lat="48.99152" lon="-0.36996">
        <ele>166.6</ele>
        <time>2023-05-23T13:04:37Z</time>
      </trkpt>
      <trkpt lat="48.99146" lon="-0.37001">
        <ele>167</ele>
        <time>2023-05-23T13:04:38Z</time>
      </trkpt>
      <trkpt lat="48.99141" lon="-0.37005">
        <ele>167.4</ele>
        <time>2023-05-23T13:04:39Z</time>
      </trkpt>
      <trkpt lat="48.99136" lon="-0.37009">
        <ele>167.8</ele>
        <time>2023-05-23T13:04:40Z</time>
      </trkpt>
      <trkpt lat="48.99131" lon="-0.37012">
        <ele>168.2</ele>
        <time>2023-05-23T13:04:41Z</time>
      </trkpt>
      <trkpt lat="48.99126" lon="-0.37016">
        <ele>168.6</ele>
        <time>2023-05-23T13:04:42Z</time>
      </trkpt>
      <trkpt lat="48.99122" lon="-0.37019">
        <ele>169</ele>
        <time>2023-05-23T13:04:43Z</time>
      </trkpt>
      <trkpt lat="48.99117" lon="-0.37022">
        <ele>169.4</ele>
        <time>2023-05-23T13:04:44Z</time>
      </trkpt>
      <trkpt lat="48.99113" lon="-0.37025">
        <ele>169.6</ele>
        <time>2023-05-23T13:04:45Z</time>
      </trkpt>
      <trkpt lat="48.99109" lon="-0.37028">
        <ele>170</ele>
        <time>2023-05-23T13:04:46Z</time>
      </trkpt>
      <trkpt lat="48.99105" lon="-0.37031">
        <ele>170.4</ele>
        <time>2023-05-23T13:04:47Z</time>
      </trkpt>
      <trkpt lat="48.991" lon="-0.37033">
        <ele>170.6</ele>
        <time>2023-05-23T13:04:48Z</time>
      </trkpt>
      <trkpt lat="48.99096" lon="-0.37036">
        <ele>171.2</ele>
        <time>2023-05-23T13:04:49Z</time>
      </trkpt>
      <trkpt lat="48.99092" lon="-0.37039">
        <ele>171.4</ele>
        <time>2023-05-23T13:04:50Z</time>
      </trkpt>
      <trkpt lat="48.99087" lon="-0.37042">
        <ele>171.8</ele>
        <time>2023-05-23T13:04:51Z</time>
      </trkpt>
      <trkpt lat="48.99083" lon="-0.37044">
        <ele>172.2</ele>
        <time>2023-05-23T13:04:52Z</time>
      </trkpt>
      <trkpt lat="48.99079" lon="-0.37047">
        <ele>172.6</ele>
        <time>2023-05-23T13:04:53Z</time>
      </trkpt>
      <trkpt lat="48.99074" lon="-0.3705">
        <ele>172.8</ele>
        <time>2023-05-23T13:04:54Z</time>
      </trkpt>
      <trkpt lat="48.9907" lon="-0.37052">
        <ele>173.4</ele>
        <time>2023-05-23T13:04:55Z</time>
      </trkpt>
      <trkpt lat="48.99066" lon="-0.37055">
        <ele>173.6</ele>
        <time>2023-05-23T13:04:56Z</time>
      </trkpt>
      <trkpt lat="48.99062" lon="-0.37058">
        <ele>174</ele>
        <time>2023-05-23T13:04:57Z</time>
      </trkpt>
      <trkpt lat="48.99058" lon="-0.37061">
        <ele>174.4</ele>
        <time>2023-05-23T13:04:58Z</time>
      </trkpt>
      <trkpt lat="48.99054" lon="-0.37064">
        <ele>174.6</ele>
        <time>2023-05-23T13:04:59Z</time>
      </trkpt>
      <trkpt lat="48.9905" lon="-0.37067">
        <ele>175.2</ele>
        <time>2023-05-23T13:05:00Z</time>
      </trkpt>
      <trkpt lat="48.99045" lon="-0.37069">
        <ele>175.4</ele>
        <time>2023-05-23T13:05:01Z</time>
      </trkpt>
      <trkpt lat="48.9904" lon="-0.37071">
        <ele>175.6</ele>
        <time>2023-05-23T13:05:02Z</time>
      </trkpt>
      <trkpt lat="48.99036" lon="-0.37073">
        <ele>176</ele>
        <time>2023-05-23T13:05:03Z</time>
      </trkpt>
      <trkpt lat="48.99031" lon="-0.37075">
        <ele>176.4</ele>
        <time>2023-05-23T13:05:04Z</time>
      </trkpt>
      <trkpt lat="48.99027" lon="-0.37078">
        <ele>176.6</ele>
        <time>2023-05-23T13:05:05Z</time>
      </trkpt>
      <trkpt lat="48.99023" lon="-0.37081">
        <ele>176.8</ele>
        <time>2023-05-23T13:05:06Z</time>
      </trkpt>
      <trkpt lat="48.99019" lon="-0.37085">
        <ele>177.2</ele>
        <time>2023-05-23T13:05:07Z</time>
      </trkpt>
      <trkpt lat="48.99015" lon="-0.37088">
        <ele>177.4</ele>
        <time>2023-05-23T13:05:08Z</time>
      </trkpt>
      <trkpt lat="48.99012" lon="-0.37091">
        <ele>177.6</ele>
        <time>2023-05-23T13:05:09Z</time>
      </trkpt>
      <trkpt lat="48.99008" lon="-0.37094">
        <ele>177.6</ele>
        <time>2023-05-23T13:05:10Z</time>
      </trkpt>
      <trkpt lat="48.99005" lon="-0.37097">
        <ele>177.8</ele>
        <time>2023-05-23T13:05:11Z</time>
      </trkpt>
      <trkpt lat="48.99002" lon="-0.37101">
        <ele>178.2</ele>
        <time>2023-05-23T13:05:12Z</time>
      </trkpt>
      <trkpt lat="48.98999" lon="-0.37104">
        <ele>178.4</ele>
        <time>2023-05-23T13:05:13Z</time>
      </trkpt>
      <trkpt lat="48.98996" lon="-0.37107">
        <ele>178.4</ele>
        <time>2023-05-23T13:05:14Z</time>
      </trkpt>
      <trkpt lat="48.98993" lon="-0.37111">
        <ele>178.4</ele>
        <time>2023-05-23T13:05:15Z</time>
      </trkpt>
      <trkpt lat="48.9899" lon="-0.37114">
        <ele>178.6</ele>
        <time>2023-05-23T13:05:16Z</time>
      </trkpt>
      <trkpt lat="48.98987" lon="-0.37117">
        <ele>178.6</ele>
        <time>2023-05-23T13:05:17Z</time>
      </trkpt>
      <trkpt lat="48.98984" lon="-0.37121">
        <ele>178.6</ele>
        <time>2023-05-23T13:05:18Z</time>
      </trkpt>
      <trkpt lat="48.98982" lon="-0.37125">
        <ele>178.6</ele>
        <time>2023-05-23T13:05:19Z</time>
      </trkpt>
      <trkpt lat="48.98979" lon="-0.37128">
        <ele>178.8</ele>
        <time>2023-05-23T13:05:20Z</time>
      </trkpt>
      <trkpt lat="48.98977" lon="-0.37132">
        <ele>178.8</ele>
        <time>2023-05-23T13:05:21Z</time>
      </trkpt>
      <trkpt lat="48.98974" lon="-0.37136">
        <ele>178.8</ele>
        <time>2023-05-23T13:05:22Z</time>
      </trkpt>
      <trkpt lat="48.98971" lon="-0.37139">
        <ele>179</ele>
        <time>2023-05-23T13:05:23Z</time>
      </trkpt>
      <trkpt lat="48.98969" lon="-0.37143">
        <ele>179.2</ele>
        <time>2023-05-23T13:05:24Z</time>
      </trkpt>
      <trkpt lat="48.98966" lon="-0.37147">
        <ele>179.2</ele>
        <time>2023-05-23T13:05:25Z</time>
      </trkpt>
      <trkpt lat="48.98964" lon="-0.37151">
        <ele>179.2</ele>
        <time>2023-05-23T13:05:26Z</time>
      </trkpt>
      <trkpt lat="48.98961" lon="-0.37155">
        <ele>179.4</ele>
        <time>2023-05-23T13:05:27Z</time>
      </trkpt>
      <trkpt lat="48.98959" lon="-0.37159">
        <ele>179.4</ele>
        <time>2023-05-23T13:05:28Z</time>
      </trkpt>
      <trkpt lat="48.98957" lon="-0.37163">
        <ele>179.6</ele>
        <time>2023-05-23T13:05:29Z</time>
      </trkpt>
      <trkpt lat="48.98954" lon="-0.37167">
        <ele>179.6</ele>
        <time>2023-05-23T13:05:30Z</time>
      </trkpt>
      <trkpt lat="48.98952" lon="-0.37171">
        <ele>179.6</ele>
        <time>2023-05-23T13:05:31Z</time>
      </trkpt>
      <trkpt lat="48.9895" lon="-0.37175">
        <ele>179.8</ele>
        <time>2023-05-23T13:05:32Z</time>
      </trkpt>
      <trkpt lat="48.98948" lon="-0.37179">
        <ele>179.8</ele>
        <time>2023-05-23T13:05:33Z</time>
      </trkpt>
      <trkpt lat="48.98945" lon="-0.37183">
        <ele>180</ele>
        <time>2023-05-23T13:05:34Z</time>
      </trkpt>
      <trkpt lat="48.98943" lon="-0.37187">
        <ele>180.2</ele>
        <time>2023-05-23T13:05:35Z</time>
      </trkpt>
      <trkpt lat="48.98941" lon="-0.37191">
        <ele>180.2</ele>
        <time>2023-05-23T13:05:36Z</time>
      </trkpt>
      <trkpt lat="48.98939" lon="-0.37195">
        <ele>180.4</ele>
        <time>2023-05-23T13:05:37Z</time>
      </trkpt>
      <trkpt lat="48.98937" lon="-0.372">
        <ele>180.6</ele>
        <time>2023-05-23T13:05:38Z</time>
      </trkpt>
      <trkpt lat="48.98934" lon="-0.37204">
        <ele>180.6</ele>
        <time>2023-05-23T13:05:39Z</time>
      </trkpt>
      <trkpt lat="48.98932" lon="-0.37209">
        <ele>180.6</ele>
        <time>2023-05-23T13:05:40Z</time>
      </trkpt>
      <trkpt lat="48.9893" lon="-0.37213">
        <ele>180.8</ele>
        <time>2023-05-23T13:05:41Z</time>
      </trkpt>
      <trkpt lat="48.98928" lon="-0.37217">
        <ele>181</ele>
        <time>2023-05-23T13:05:42Z</time>
      </trkpt>
      <trkpt lat="48.98926" lon="-0.37222">
        <ele>181.2</ele>
        <time>2023-05-23T13:05:43Z</time>
      </trkpt>
      <trkpt lat="48.98923" lon="-0.37226">
        <ele>181.4</ele>
        <time>2023-05-23T13:05:44Z</time>
      </trkpt>
      <trkpt lat="48.98921" lon="-0.37231">
        <ele>181.4</ele>
        <time>2023-05-23T13:05:45Z</time>
      </trkpt>
      <trkpt lat="48.98919" lon="-0.37235">
        <ele>181.6</ele>
        <time>2023-05-23T13:05:46Z</time>
      </trkpt>
      <trkpt lat="48.98917" lon="-0.3724">
        <ele>181.6</ele>
        <time>2023-05-23T13:05:47Z</time>
      </trkpt>
      <trkpt lat="48.98915" lon="-0.37244">
        <ele>181.8</ele>
        <time>2023-05-23T13:05:48Z</time>
      </trkpt>
      <trkpt lat="48.98913" lon="-0.37248">
        <ele>182</ele>
        <time>2023-05-23T13:05:49Z</time>
      </trkpt>
      <trkpt lat="48.9891" lon="-0.37253">
        <ele>182</ele>
        <time>2023-05-23T13:05:50Z</time>
      </trkpt>
      <trkpt lat="48.98908" lon="-0.37257">
        <ele>182.2</ele>
        <time>2023-05-23T13:05:51Z</time>
      </trkpt>
      <trkpt lat="48.98906" lon="-0.37261">
        <ele>182.2</ele>
        <time>2023-05-23T13:05:52Z</time>
      </trkpt>
      <trkpt lat="48.98903" lon="-0.37265">
        <ele>182.2</ele>
        <time>2023-05-23T13:05:53Z</time>
      </trkpt>
      <trkpt lat="48.98901" lon="-0.3727">
        <ele>182.4</ele>
        <time>2023-05-23T13:05:54Z</time>
      </trkpt>
      <trkpt lat="48.98898" lon="-0.37274">
        <ele>182.4</ele>
        <time>2023-05-23T13:05:55Z</time>
      </trkpt>
      <trkpt lat="48.98896" lon="-0.37278">
        <ele>182.4</ele>
        <time>2023-05-23T13:05:56Z</time>
      </trkpt>
      <trkpt lat="48.98893" lon="-0.37282">
        <ele>182.6</ele>
        <time>2023-05-23T13:05:57Z</time>
      </trkpt>
      <trkpt lat="48.9889" lon="-0.37287">
        <ele>182.6</ele>
        <time>2023-05-23T13:05:58Z</time>
      </trkpt>
      <trkpt lat="48.98887" lon="-0.37291">
        <ele>182.6</ele>
        <time>2023-05-23T13:05:59Z</time>
      </trkpt>
      <trkpt lat="48.98884" lon="-0.37295">
        <ele>182.6</ele>
        <time>2023-05-23T13:06:00Z</time>
      </trkpt>
      <trkpt lat="48.98881" lon="-0.37299">
        <ele>182.8</ele>
        <time>2023-05-23T13:06:01Z</time>
      </trkpt>
      <trkpt lat="48.98878" lon="-0.37303">
        <ele>182.8</ele>
        <time>2023-05-23T13:06:02Z</time>
      </trkpt>
      <trkpt lat="48.98875" lon="-0.37306">
        <ele>183</ele>
        <time>2023-05-23T13:06:03Z</time>
      </trkpt>
      <trkpt lat="48.98871" lon="-0.3731">
        <ele>183.2</ele>
        <time>2023-05-23T13:06:04Z</time>
      </trkpt>
      <trkpt lat="48.98867" lon="-0.37314">
        <ele>183.2</ele>
        <time>2023-05-23T13:06:05Z</time>
      </trkpt>
      <trkpt lat="48.98863" lon="-0.37317">
        <ele>183.4</ele>
        <time>2023-05-23T13:06:06Z</time>
      </trkpt>
      <trkpt lat="48.98859" lon="-0.37321">
        <ele>183.4</ele>
        <time>2023-05-23T13:06:07Z</time>
      </trkpt>
      <trkpt lat="48.98855" lon="-0.37325">
        <ele>183.6</ele>
        <time>2023-05-23T13:06:08Z</time>
      </trkpt>
      <trkpt lat="48.98851" lon="-0.37328">
        <ele>183.6</ele>
        <time>2023-05-23T13:06:09Z</time>
      </trkpt>
      <trkpt lat="48.98847" lon="-0.37332">
        <ele>183.8</ele>
        <time>2023-05-23T13:06:10Z</time>
      </trkpt>
      <trkpt lat="48.98843" lon="-0.37335">
        <ele>183.8</ele>
        <time>2023-05-23T13:06:11Z</time>
      </trkpt>
      <trkpt lat="48.98838" lon="-0.37339">
        <ele>184</ele>
        <time>2023-05-23T13:06:12Z</time>
      </trkpt>
      <trkpt lat="48.98834" lon="-0.37343">
        <ele>184.2</ele>
        <time>2023-05-23T13:06:13Z</time>
      </trkpt>
      <trkpt lat="48.9883" lon="-0.37346">
        <ele>184.2</ele>
        <time>2023-05-23T13:06:14Z</time>
      </trkpt>
      <trkpt lat="48.98826" lon="-0.3735">
        <ele>184</ele>
        <time>2023-05-23T13:06:15Z</time>
      </trkpt>
      <trkpt lat="48.98822" lon="-0.37354">
        <ele>184</ele>
        <time>2023-05-23T13:06:16Z</time>
      </trkpt>
      <trkpt lat="48.98818" lon="-0.37359">
        <ele>183.8</ele>
        <time>2023-05-23T13:06:17Z</time>
      </trkpt>
      <trkpt lat="48.98814" lon="-0.37363">
        <ele>183.8</ele>
        <time>2023-05-23T13:06:18Z</time>
      </trkpt>
      <trkpt lat="48.9881" lon="-0.37367">
        <ele>183.8</ele>
        <time>2023-05-23T13:06:19Z</time>
      </trkpt>
      <trkpt lat="48.98806" lon="-0.37372">
        <ele>183.8</ele>
        <time>2023-05-23T13:06:20Z</time>
      </trkpt>
      <trkpt lat="48.98803" lon="-0.37376">
        <ele>183.8</ele>
        <time>2023-05-23T13:06:21Z</time>
      </trkpt>
      <trkpt lat="48.98799" lon="-0.37381">
        <ele>183.8</ele>
        <time>2023-05-23T13:06:22Z</time>
      </trkpt>
      <trkpt lat="48.98796" lon="-0.37387">
        <ele>183.6</ele>
        <time>2023-05-23T13:06:23Z</time>
      </trkpt>
      <trkpt lat="48.98792" lon="-0.37392">
        <ele>183.6</ele>
        <time>2023-05-23T13:06:24Z</time>
      </trkpt>
      <trkpt lat="48.98789" lon="-0.37398">
        <ele>183.6</ele>
        <time>2023-05-23T13:06:25Z</time>
      </trkpt>
      <trkpt lat="48.98787" lon="-0.37403">
        <ele>183.6</ele>
        <time>2023-05-23T13:06:26Z</time>
      </trkpt>
      <trkpt lat="48.98784" lon="-0.37409">
        <ele>183.6</ele>
        <time>2023-05-23T13:06:27Z</time>
      </trkpt>
      <trkpt lat="48.98781" lon="-0.37416">
        <ele>183.6</ele>
        <time>2023-05-23T13:06:28Z</time>
      </trkpt>
      <trkpt lat="48.98779" lon="-0.37423">
        <ele>183.8</ele>
        <time>2023-05-23T13:06:29Z</time>
      </trkpt>
      <trkpt lat="48.98777" lon="-0.3743">
        <ele>183.8</ele>
        <time>2023-05-23T13:06:30Z</time>
      </trkpt>
      <trkpt lat="48.98775" lon="-0.37438">
        <ele>184</ele>
        <time>2023-05-23T13:06:31Z</time>
      </trkpt>
      <trkpt lat="48.98774" lon="-0.37445">
        <ele>184.2</ele>
        <time>2023-05-23T13:06:32Z</time>
      </trkpt>
      <trkpt lat="48.98773" lon="-0.37453">
        <ele>184.4</ele>
        <time>2023-05-23T13:06:33Z</time>
      </trkpt>
      <trkpt lat="48.98772" lon="-0.37461">
        <ele>184.6</ele>
        <time>2023-05-23T13:06:34Z</time>
      </trkpt>
      <trkpt lat="48.98772" lon="-0.37469">
        <ele>184.6</ele>
        <time>2023-05-23T13:06:35Z</time>
      </trkpt>
      <trkpt lat="48.98771" lon="-0.37477">
        <ele>184.8</ele>
        <time>2023-05-23T13:06:36Z</time>
      </trkpt>
      <trkpt lat="48.9877" lon="-0.37484">
        <ele>184.8</ele>
        <time>2023-05-23T13:06:37Z</time>
      </trkpt>
      <trkpt lat="48.98769" lon="-0.37492">
        <ele>185.2</ele>
        <time>2023-05-23T13:06:38Z</time>
      </trkpt>
      <trkpt lat="48.98768" lon="-0.375">
        <ele>185.2</ele>
        <time>2023-05-23T13:06:39Z</time>
      </trkpt>
      <trkpt lat="48.98767" lon="-0.37507">
        <ele>185.4</ele>
        <time>2023-05-23T13:06:40Z</time>
      </trkpt>
      <trkpt lat="48.98766" lon="-0.37515">
        <ele>185.4</ele>
        <time>2023-05-23T13:06:41Z</time>
      </trkpt>
      <trkpt lat="48.98765" lon="-0.37523">
        <ele>185.4</ele>
        <time>2023-05-23T13:06:42Z</time>
      </trkpt>
      <trkpt lat="48.98763" lon="-0.3753">
        <ele>185.6</ele>
        <time>2023-05-23T13:06:43Z</time>
      </trkpt>
      <trkpt lat="48.98761" lon="-0.37538">
        <ele>185.6</ele>
        <time>2023-05-23T13:06:44Z</time>
      </trkpt>
      <trkpt lat="48.9876" lon="-0.37546">
        <ele>185.6</ele>
        <time>2023-05-23T13:06:45Z</time>
      </trkpt>
      <trkpt lat="48.98758" lon="-0.37553">
        <ele>185.6</ele>
        <time>2023-05-23T13:06:46Z</time>
      </trkpt>
      <trkpt lat="48.98756" lon="-0.37561">
        <ele>185.6</ele>
        <time>2023-05-23T13:06:47Z</time>
      </trkpt>
      <trkpt lat="48.98754" lon="-0.37568">
        <ele>185.8</ele>
        <time>2023-05-23T13:06:48Z</time>
      </trkpt>
      <trkpt lat="48.98752" lon="-0.37576">
        <ele>185.8</ele>
        <time>2023-05-23T13:06:49Z</time>
      </trkpt>
      <trkpt lat="48.98751" lon="-0.37583">
        <ele>186</ele>
        <time>2023-05-23T13:06:50Z</time>
      </trkpt>
      <trkpt lat="48.98749" lon="-0.37591">
        <ele>186.2</ele>
        <time>2023-05-23T13:06:51Z</time>
      </trkpt>
      <trkpt lat="48.98747" lon="-0.37598">
        <ele>186.2</ele>
        <time>2023-05-23T13:06:52Z</time>
      </trkpt>
      <trkpt lat="48.98745" lon="-0.37605">
        <ele>186.4</ele>
        <time>2023-05-23T13:06:53Z</time>
      </trkpt>
      <trkpt lat="48.98743" lon="-0.37612">
        <ele>186.6</ele>
        <time>2023-05-23T13:06:54Z</time>
      </trkpt>
      <trkpt lat="48.98741" lon="-0.37619">
        <ele>186.6</ele>
        <time>2023-05-23T13:06:55Z</time>
      </trkpt>
      <trkpt lat="48.98739" lon="-0.37626">
        <ele>186.6</ele>
        <time>2023-05-23T13:06:56Z</time>
      </trkpt>
      <trkpt lat="48.98738" lon="-0.37633">
        <ele>186.6</ele>
        <time>2023-05-23T13:06:57Z</time>
      </trkpt>
      <trkpt lat="48.98736" lon="-0.3764">
        <ele>186.8</ele>
        <time>2023-05-23T13:06:58Z</time>
      </trkpt>
      <trkpt lat="48.98734" lon="-0.37646">
        <ele>186.8</ele>
        <time>2023-05-23T13:06:59Z</time>
      </trkpt>
      <trkpt lat="48.98731" lon="-0.37653">
        <ele>186.8</ele>
        <time>2023-05-23T13:07:00Z</time>
      </trkpt>
      <trkpt lat="48.98728" lon="-0.37659">
        <ele>187</ele>
        <time>2023-05-23T13:07:01Z</time>
      </trkpt>
      <trkpt lat="48.98725" lon="-0.37664">
        <ele>187</ele>
        <time>2023-05-23T13:07:02Z</time>
      </trkpt>
      <trkpt lat="48.98721" lon="-0.3767">
        <ele>187</ele>
        <time>2023-05-23T13:07:03Z</time>
      </trkpt>
      <trkpt lat="48.98718" lon="-0.37675">
        <ele>187</ele>
        <time>2023-05-23T13:07:04Z</time>
      </trkpt>
      <trkpt lat="48.98714" lon="-0.37681">
        <ele>187.2</ele>
        <time>2023-05-23T13:07:05Z</time>
      </trkpt>
      <trkpt lat="48.9871" lon="-0.37686">
        <ele>187.2</ele>
        <time>2023-05-23T13:07:06Z</time>
      </trkpt>
      <trkpt lat="48.98706" lon="-0.37691">
        <ele>187.2</ele>
        <time>2023-05-23T13:07:07Z</time>
      </trkpt>
      <trkpt lat="48.98702" lon="-0.37697">
        <ele>187.2</ele>
        <time>2023-05-23T13:07:08Z</time>
      </trkpt>
      <trkpt lat="48.98699" lon="-0.37702">
        <ele>187.4</ele>
        <time>2023-05-23T13:07:09Z</time>
      </trkpt>
      <trkpt lat="48.98695" lon="-0.37708">
        <ele>187.4</ele>
        <time>2023-05-23T13:07:10Z</time>
      </trkpt>
      <trkpt lat="48.98691" lon="-0.37713">
        <ele>187.4</ele>
        <time>2023-05-23T13:07:11Z</time>
      </trkpt>
      <trkpt lat="48.98687" lon="-0.37719">
        <ele>187.6</ele>
        <time>2023-05-23T13:07:12Z</time>
      </trkpt>
      <trkpt lat="48.98683" lon="-0.37724">
        <ele>187.6</ele>
        <time>2023-05-23T13:07:13Z</time>
      </trkpt>
      <trkpt lat="48.98678" lon="-0.3773">
        <ele>187.6</ele>
        <time>2023-05-23T13:07:14Z</time>
      </trkpt>
      <trkpt lat="48.98674" lon="-0.37735">
        <ele>187.6</ele>
        <time>2023-05-23T13:07:15Z</time>
      </trkpt>
      <trkpt lat="48.9867" lon="-0.37741">
        <ele>187.8</ele>
        <time>2023-05-23T13:07:16Z</time>
      </trkpt>
      <trkpt lat="48.98666" lon="-0.37747">
        <ele>188</ele>
        <time>2023-05-23T13:07:17Z</time>
      </trkpt>
      <trkpt lat="48.98661" lon="-0.37753">
        <ele>188</ele>
        <time>2023-05-23T13:07:18Z</time>
      </trkpt>
      <trkpt lat="48.98657" lon="-0.37758">
        <ele>188</ele>
        <time>2023-05-23T13:07:19Z</time>
      </trkpt>
      <trkpt lat="48.98653" lon="-0.37764">
        <ele>188</ele>
        <time>2023-05-23T13:07:20Z</time>
      </trkpt>
      <trkpt lat="48.98648" lon="-0.3777">
        <ele>188</ele>
        <time>2023-05-23T13:07:21Z</time>
      </trkpt>
      <trkpt lat="48.98644" lon="-0.37776">
        <ele>188</ele>
        <time>2023-05-23T13:07:22Z</time>
      </trkpt>
      <trkpt lat="48.9864" lon="-0.37782">
        <ele>188</ele>
        <time>2023-05-23T13:07:23Z</time>
      </trkpt>
      <trkpt lat="48.98636" lon="-0.37787">
        <ele>188</ele>
        <time>2023-05-23T13:07:24Z</time>
      </trkpt>
      <trkpt lat="48.98631" lon="-0.37793">
        <ele>188</ele>
        <time>2023-05-23T13:07:25Z</time>
      </trkpt>
      <trkpt lat="48.98627" lon="-0.37799">
        <ele>188</ele>
        <time>2023-05-23T13:07:26Z</time>
      </trkpt>
      <trkpt lat="48.98623" lon="-0.37805">
        <ele>188</ele>
        <time>2023-05-23T13:07:27Z</time>
      </trkpt>
      <trkpt lat="48.98618" lon="-0.37811">
        <ele>188</ele>
        <time>2023-05-23T13:07:28Z</time>
      </trkpt>
      <trkpt lat="48.98614" lon="-0.37817">
        <ele>188</ele>
        <time>2023-05-23T13:07:29Z</time>
      </trkpt>
      <trkpt lat="48.98609" lon="-0.37823">
        <ele>188</ele>
        <time>2023-05-23T13:07:30Z</time>
      </trkpt>
      <trkpt lat="48.98604" lon="-0.37829">
        <ele>188</ele>
        <time>2023-05-23T13:07:31Z</time>
      </trkpt>
      <trkpt lat="48.986" lon="-0.37835">
        <ele>188</ele>
        <time>2023-05-23T13:07:32Z</time>
      </trkpt>
      <trkpt lat="48.98595" lon="-0.3784">
        <ele>188</ele>
        <time>2023-05-23T13:07:33Z</time>
      </trkpt>
      <trkpt lat="48.9859" lon="-0.37846">
        <ele>188</ele>
        <time>2023-05-23T13:07:34Z</time>
      </trkpt>
      <trkpt lat="48.98585" lon="-0.37852">
        <ele>188</ele>
        <time>2023-05-23T13:07:35Z</time>
      </trkpt>
      <trkpt lat="48.98581" lon="-0.37859">
        <ele>188</ele>
        <time>2023-05-23T13:07:36Z</time>
      </trkpt>
      <trkpt lat="48.98576" lon="-0.37866">
        <ele>187.8</ele>
        <time>2023-05-23T13:07:37Z</time>
      </trkpt>
      <trkpt lat="48.98571" lon="-0.37873">
        <ele>187.8</ele>
        <time>2023-05-23T13:07:38Z</time>
      </trkpt>
      <trkpt lat="48.98567" lon="-0.3788">
        <ele>187.8</ele>
        <time>2023-05-23T13:07:39Z</time>
      </trkpt>
      <trkpt lat="48.98562" lon="-0.37887">
        <ele>187.6</ele>
        <time>2023-05-23T13:07:40Z</time>
      </trkpt>
      <trkpt lat="48.98557" lon="-0.37894">
        <ele>187.6</ele>
        <time>2023-05-23T13:07:41Z</time>
      </trkpt>
      <trkpt lat="48.98552" lon="-0.37901">
        <ele>187.6</ele>
        <time>2023-05-23T13:07:42Z</time>
      </trkpt>
      <trkpt lat="48.98547" lon="-0.37908">
        <ele>187.6</ele>
        <time>2023-05-23T13:07:43Z</time>
      </trkpt>
      <trkpt lat="48.98542" lon="-0.37914">
        <ele>187.6</ele>
        <time>2023-05-23T13:07:44Z</time>
      </trkpt>
      <trkpt lat="48.98537" lon="-0.37921">
        <ele>187.4</ele>
        <time>2023-05-23T13:07:45Z</time>
      </trkpt>
      <trkpt lat="48.98532" lon="-0.37927">
        <ele>187.4</ele>
        <time>2023-05-23T13:07:46Z</time>
      </trkpt>
      <trkpt lat="48.98527" lon="-0.37933">
        <ele>187.4</ele>
        <time>2023-05-23T13:07:47Z</time>
      </trkpt>
      <trkpt lat="48.98522" lon="-0.3794">
        <ele>187.2</ele>
        <time>2023-05-23T13:07:48Z</time>
      </trkpt>
      <trkpt lat="48.98517" lon="-0.37946">
        <ele>187.2</ele>
        <time>2023-05-23T13:07:49Z</time>
      </trkpt>
      <trkpt lat="48.98512" lon="-0.37952">
        <ele>187.2</ele>
        <time>2023-05-23T13:07:50Z</time>
      </trkpt>
      <trkpt lat="48.98507" lon="-0.37958">
        <ele>187</ele>
        <time>2023-05-23T13:07:51Z</time>
      </trkpt>
      <trkpt lat="48.98502" lon="-0.37964">
        <ele>187</ele>
        <time>2023-05-23T13:07:52Z</time>
      </trkpt>
      <trkpt lat="48.98496" lon="-0.37969">
        <ele>187</ele>
        <time>2023-05-23T13:07:53Z</time>
      </trkpt>
      <trkpt lat="48.98491" lon="-0.37975">
        <ele>186.8</ele>
        <time>2023-05-23T13:07:54Z</time>
      </trkpt>
      <trkpt lat="48.98486" lon="-0.37981">
        <ele>186.8</ele>
        <time>2023-05-23T13:07:55Z</time>
      </trkpt>
      <trkpt lat="48.9848" lon="-0.37987">
        <ele>186.8</ele>
        <time>2023-05-23T13:07:56Z</time>
      </trkpt>
      <trkpt lat="48.98475" lon="-0.37993">
        <ele>186.6</ele>
        <time>2023-05-23T13:07:57Z</time>
      </trkpt>
      <trkpt lat="48.9847" lon="-0.37998">
        <ele>186.6</ele>
        <time>2023-05-23T13:07:58Z</time>
      </trkpt>
      <trkpt lat="48.98464" lon="-0.38004">
        <ele>186.6</ele>
        <time>2023-05-23T13:07:59Z</time>
      </trkpt>
      <trkpt lat="48.98459" lon="-0.3801">
        <ele>186.4</ele>
        <time>2023-05-23T13:08:00Z</time>
      </trkpt>
      <trkpt lat="48.98453" lon="-0.38015">
        <ele>186.4</ele>
        <time>2023-05-23T13:08:01Z</time>
      </trkpt>
      <trkpt lat="48.98448" lon="-0.38021">
        <ele>186.2</ele>
        <time>2023-05-23T13:08:02Z</time>
      </trkpt>
      <trkpt lat="48.98443" lon="-0.38027">
        <ele>186</ele>
        <time>2023-05-23T13:08:03Z</time>
      </trkpt>
      <trkpt lat="48.98438" lon="-0.38032">
        <ele>185.8</ele>
        <time>2023-05-23T13:08:04Z</time>
      </trkpt>
      <trkpt lat="48.98433" lon="-0.38038">
        <ele>185.6</ele>
        <time>2023-05-23T13:08:05Z</time>
      </trkpt>
      <trkpt lat="48.98427" lon="-0.38043">
        <ele>185.6</ele>
        <time>2023-05-23T13:08:06Z</time>
      </trkpt>
      <trkpt lat="48.98422" lon="-0.38049">
        <ele>185.6</ele>
        <time>2023-05-23T13:08:07Z</time>
      </trkpt>
      <trkpt lat="48.98418" lon="-0.38054">
        <ele>185.4</ele>
        <time>2023-05-23T13:08:08Z</time>
      </trkpt>
      <trkpt lat="48.98413" lon="-0.38058">
        <ele>185.2</ele>
        <time>2023-05-23T13:08:09Z</time>
      </trkpt>
      <trkpt lat="48.98409" lon="-0.38063">
        <ele>185.2</ele>
        <time>2023-05-23T13:08:10Z</time>
      </trkpt>
      <trkpt lat="48.98404" lon="-0.38068">
        <ele>185</ele>
        <time>2023-05-23T13:08:11Z</time>
      </trkpt>
      <trkpt lat="48.984" lon="-0.38073">
        <ele>184.8</ele>
        <time>2023-05-23T13:08:12Z</time>
      </trkpt>
      <trkpt lat="48.98394" lon="-0.38078">
        <ele>184.8</ele>
        <time>2023-05-23T13:08:13Z</time>
      </trkpt>
      <trkpt lat="48.98389" lon="-0.38083">
        <ele>184.6</ele>
        <time>2023-05-23T13:08:14Z</time>
      </trkpt>
      <trkpt lat="48.98384" lon="-0.38089">
        <ele>184.6</ele>
        <time>2023-05-23T13:08:15Z</time>
      </trkpt>
      <trkpt lat="48.98378" lon="-0.38094">
        <ele>184.6</ele>
        <time>2023-05-23T13:08:16Z</time>
      </trkpt>
      <trkpt lat="48.98373" lon="-0.381">
        <ele>184.6</ele>
        <time>2023-05-23T13:08:17Z</time>
      </trkpt>
      <trkpt lat="48.98368" lon="-0.38105">
        <ele>184.6</ele>
        <time>2023-05-23T13:08:18Z</time>
      </trkpt>
      <trkpt lat="48.98362" lon="-0.38111">
        <ele>184.6</ele>
        <time>2023-05-23T13:08:19Z</time>
      </trkpt>
      <trkpt lat="48.98357" lon="-0.38117">
        <ele>184.6</ele>
        <time>2023-05-23T13:08:20Z</time>
      </trkpt>
      <trkpt lat="48.98351" lon="-0.38123">
        <ele>184.6</ele>
        <time>2023-05-23T13:08:21Z</time>
      </trkpt>
      <trkpt lat="48.98346" lon="-0.38129">
        <ele>184.6</ele>
        <time>2023-05-23T13:08:22Z</time>
      </trkpt>
      <trkpt lat="48.98341" lon="-0.38135">
        <ele>184.6</ele>
        <time>2023-05-23T13:08:23Z</time>
      </trkpt>
      <trkpt lat="48.98335" lon="-0.38141">
        <ele>184.6</ele>
        <time>2023-05-23T13:08:24Z</time>
      </trkpt>
      <trkpt lat="48.9833" lon="-0.38147">
        <ele>184.8</ele>
        <time>2023-05-23T13:08:25Z</time>
      </trkpt>
      <trkpt lat="48.98324" lon="-0.38153">
        <ele>184.8</ele>
        <time>2023-05-23T13:08:26Z</time>
      </trkpt>
      <trkpt lat="48.98319" lon="-0.3816">
        <ele>184.8</ele>
        <time>2023-05-23T13:08:27Z</time>
      </trkpt>
      <trkpt lat="48.98314" lon="-0.38166">
        <ele>185</ele>
        <time>2023-05-23T13:08:28Z</time>
      </trkpt>
      <trkpt lat="48.98308" lon="-0.38172">
        <ele>185</ele>
        <time>2023-05-23T13:08:29Z</time>
      </trkpt>
      <trkpt lat="48.98303" lon="-0.38179">
        <ele>184.8</ele>
        <time>2023-05-23T13:08:30Z</time>
      </trkpt>
      <trkpt lat="48.98298" lon="-0.38186">
        <ele>184.8</ele>
        <time>2023-05-23T13:08:31Z</time>
      </trkpt>
      <trkpt lat="48.98293" lon="-0.38192">
        <ele>184.8</ele>
        <time>2023-05-23T13:08:32Z</time>
      </trkpt>
      <trkpt lat="48.98288" lon="-0.38199">
        <ele>184.8</ele>
        <time>2023-05-23T13:08:33Z</time>
      </trkpt>
      <trkpt lat="48.98282" lon="-0.38205">
        <ele>184.8</ele>
        <time>2023-05-23T13:08:34Z</time>
      </trkpt>
      <trkpt lat="48.98277" lon="-0.38212">
        <ele>184.8</ele>
        <time>2023-05-23T13:08:35Z</time>
      </trkpt>
      <trkpt lat="48.98272" lon="-0.38219">
        <ele>184.8</ele>
        <time>2023-05-23T13:08:36Z</time>
      </trkpt>
      <trkpt lat="48.98267" lon="-0.38225">
        <ele>184.8</ele>
        <time>2023-05-23T13:08:37Z</time>
      </trkpt>
      <trkpt lat="48.98262" lon="-0.38232">
        <ele>184.8</ele>
        <time>2023-05-23T13:08:38Z</time>
      </trkpt>
      <trkpt lat="48.98257" lon="-0.38239">
        <ele>184.8</ele>
        <time>2023-05-23T13:08:39Z</time>
      </trkpt>
      <trkpt lat="48.98252" lon="-0.38245">
        <ele>185</ele>
        <time>2023-05-23T13:08:40Z</time>
      </trkpt>
      <trkpt lat="48.98246" lon="-0.38252">
        <ele>185</ele>
        <time>2023-05-23T13:08:41Z</time>
      </trkpt>
      <trkpt lat="48.98241" lon="-0.38258">
        <ele>184.8</ele>
        <time>2023-05-23T13:08:42Z</time>
      </trkpt>
      <trkpt lat="48.98236" lon="-0.38265">
        <ele>184.8</ele>
        <time>2023-05-23T13:08:43Z</time>
      </trkpt>
      <trkpt lat="48.98231" lon="-0.38271">
        <ele>184.8</ele>
        <time>2023-05-23T13:08:44Z</time>
      </trkpt>
      <trkpt lat="48.98226" lon="-0.38278">
        <ele>184.8</ele>
        <time>2023-05-23T13:08:45Z</time>
      </trkpt>
      <trkpt lat="48.98221" lon="-0.38285">
        <ele>184.6</ele>
        <time>2023-05-23T13:08:46Z</time>
      </trkpt>
      <trkpt lat="48.98216" lon="-0.38292">
        <ele>184.6</ele>
        <time>2023-05-23T13:08:47Z</time>
      </trkpt>
      <trkpt lat="48.9821" lon="-0.38298">
        <ele>184.6</ele>
        <time>2023-05-23T13:08:48Z</time>
      </trkpt>
      <trkpt lat="48.98205" lon="-0.38305">
        <ele>184.6</ele>
        <time>2023-05-23T13:08:49Z</time>
      </trkpt>
      <trkpt lat="48.982" lon="-0.38311">
        <ele>184.6</ele>
        <time>2023-05-23T13:08:50Z</time>
      </trkpt>
      <trkpt lat="48.98195" lon="-0.38318">
        <ele>184.6</ele>
        <time>2023-05-23T13:08:51Z</time>
      </trkpt>
      <trkpt lat="48.9819" lon="-0.38324">
        <ele>184.6</ele>
        <time>2023-05-23T13:08:52Z</time>
      </trkpt>
      <trkpt lat="48.98185" lon="-0.38331">
        <ele>184.8</ele>
        <time>2023-05-23T13:08:53Z</time>
      </trkpt>
      <trkpt lat="48.9818" lon="-0.38337">
        <ele>184.8</ele>
        <time>2023-05-23T13:08:54Z</time>
      </trkpt>
      <trkpt lat="48.98175" lon="-0.38343">
        <ele>184.8</ele>
        <time>2023-05-23T13:08:55Z</time>
      </trkpt>
      <trkpt lat="48.9817" lon="-0.3835">
        <ele>184.8</ele>
        <time>2023-05-23T13:08:56Z</time>
      </trkpt>
      <trkpt lat="48.98164" lon="-0.38356">
        <ele>184.6</ele>
        <time>2023-05-23T13:08:57Z</time>
      </trkpt>
      <trkpt lat="48.98159" lon="-0.38362">
        <ele>184.6</ele>
        <time>2023-05-23T13:08:58Z</time>
      </trkpt>
      <trkpt lat="48.98154" lon="-0.38368">
        <ele>184.6</ele>
        <time>2023-05-23T13:08:59Z</time>
      </trkpt>
      <trkpt lat="48.98149" lon="-0.38374">
        <ele>184.6</ele>
        <time>2023-05-23T13:09:00Z</time>
      </trkpt>
      <trkpt lat="48.98143" lon="-0.3838">
        <ele>184.6</ele>
        <time>2023-05-23T13:09:01Z</time>
      </trkpt>
      <trkpt lat="48.98138" lon="-0.38386">
        <ele>184.6</ele>
        <time>2023-05-23T13:09:02Z</time>
      </trkpt>
      <trkpt lat="48.98133" lon="-0.38392">
        <ele>184.6</ele>
        <time>2023-05-23T13:09:03Z</time>
      </trkpt>
      <trkpt lat="48.98127" lon="-0.38397">
        <ele>184.6</ele>
        <time>2023-05-23T13:09:04Z</time>
      </trkpt>
      <trkpt lat="48.98122" lon="-0.38403">
        <ele>184.6</ele>
        <time>2023-05-23T13:09:05Z</time>
      </trkpt>
      <trkpt lat="48.98116" lon="-0.38409">
        <ele>184.6</ele>
        <time>2023-05-23T13:09:06Z</time>
      </trkpt>
      <trkpt lat="48.98111" lon="-0.38415">
        <ele>184.6</ele>
        <time>2023-05-23T13:09:07Z</time>
      </trkpt>
      <trkpt lat="48.98105" lon="-0.38421">
        <ele>184.6</ele>
        <time>2023-05-23T13:09:08Z</time>
      </trkpt>
      <trkpt lat="48.98099" lon="-0.38427">
        <ele>184.6</ele>
        <time>2023-05-23T13:09:09Z</time>
      </trkpt>
      <trkpt lat="48.98094" lon="-0.38433">
        <ele>184.6</ele>
        <time>2023-05-23T13:09:10Z</time>
      </trkpt>
      <trkpt lat="48.98088" lon="-0.38439">
        <ele>184.6</ele>
        <time>2023-05-23T13:09:11Z</time>
      </trkpt>
      <trkpt lat="48.98082" lon="-0.38445">
        <ele>184.6</ele>
        <time>2023-05-23T13:09:12Z</time>
      </trkpt>
      <trkpt lat="48.98077" lon="-0.3845">
        <ele>184.6</ele>
        <time>2023-05-23T13:09:13Z</time>
      </trkpt>
      <trkpt lat="48.98071" lon="-0.38456">
        <ele>184.6</ele>
        <time>2023-05-23T13:09:14Z</time>
      </trkpt>
      <trkpt lat="48.98065" lon="-0.38462">
        <ele>184.6</ele>
        <time>2023-05-23T13:09:15Z</time>
      </trkpt>
      <trkpt lat="48.98059" lon="-0.38468">
        <ele>184.6</ele>
        <time>2023-05-23T13:09:16Z</time>
      </trkpt>
      <trkpt lat="48.98054" lon="-0.38474">
        <ele>184.8</ele>
        <time>2023-05-23T13:09:17Z</time>
      </trkpt>
      <trkpt lat="48.98048" lon="-0.3848">
        <ele>184.8</ele>
        <time>2023-05-23T13:09:18Z</time>
      </trkpt>
      <trkpt lat="48.98042" lon="-0.38486">
        <ele>185</ele>
        <time>2023-05-23T13:09:19Z</time>
      </trkpt>
      <trkpt lat="48.98036" lon="-0.38492">
        <ele>185.2</ele>
        <time>2023-05-23T13:09:20Z</time>
      </trkpt>
      <trkpt lat="48.98031" lon="-0.38498">
        <ele>185.4</ele>
        <time>2023-05-23T13:09:21Z</time>
      </trkpt>
      <trkpt lat="48.98025" lon="-0.38504">
        <ele>185.4</ele>
        <time>2023-05-23T13:09:22Z</time>
      </trkpt>
      <trkpt lat="48.98019" lon="-0.3851">
        <ele>185.4</ele>
        <time>2023-05-23T13:09:23Z</time>
      </trkpt>
      <trkpt lat="48.98013" lon="-0.38516">
        <ele>185.6</ele>
        <time>2023-05-23T13:09:24Z</time>
      </trkpt>
      <trkpt lat="48.98007" lon="-0.38522">
        <ele>185.6</ele>
        <time>2023-05-23T13:09:25Z</time>
      </trkpt>
      <trkpt lat="48.98001" lon="-0.38529">
        <ele>185.6</ele>
        <time>2023-05-23T13:09:26Z</time>
      </trkpt>
      <trkpt lat="48.97995" lon="-0.38535">
        <ele>185.4</ele>
        <time>2023-05-23T13:09:27Z</time>
      </trkpt>
      <trkpt lat="48.9799" lon="-0.38541">
        <ele>185.2</ele>
        <time>2023-05-23T13:09:28Z</time>
      </trkpt>
      <trkpt lat="48.97984" lon="-0.38547">
        <ele>185</ele>
        <time>2023-05-23T13:09:29Z</time>
      </trkpt>
      <trkpt lat="48.97978" lon="-0.38554">
        <ele>184.6</ele>
        <time>2023-05-23T13:09:30Z</time>
      </trkpt>
      <trkpt lat="48.97972" lon="-0.3856">
        <ele>184.6</ele>
        <time>2023-05-23T13:09:31Z</time>
      </trkpt>
      <trkpt lat="48.97966" lon="-0.38566">
        <ele>184.4</ele>
        <time>2023-05-23T13:09:32Z</time>
      </trkpt>
      <trkpt lat="48.9796" lon="-0.38573">
        <ele>184.2</ele>
        <time>2023-05-23T13:09:33Z</time>
      </trkpt>
      <trkpt lat="48.97954" lon="-0.38579">
        <ele>183.8</ele>
        <time>2023-05-23T13:09:34Z</time>
      </trkpt>
      <trkpt lat="48.97948" lon="-0.38586">
        <ele>183.8</ele>
        <time>2023-05-23T13:09:35Z</time>
      </trkpt>
      <trkpt lat="48.97943" lon="-0.38593">
        <ele>183.6</ele>
        <time>2023-05-23T13:09:36Z</time>
      </trkpt>
      <trkpt lat="48.97937" lon="-0.38599">
        <ele>183.6</ele>
        <time>2023-05-23T13:09:37Z</time>
      </trkpt>
      <trkpt lat="48.97931" lon="-0.38606">
        <ele>183.6</ele>
        <time>2023-05-23T13:09:38Z</time>
      </trkpt>
      <trkpt lat="48.97925" lon="-0.38613">
        <ele>183.6</ele>
        <time>2023-05-23T13:09:39Z</time>
      </trkpt>
      <trkpt lat="48.97919" lon="-0.3862">
        <ele>183.6</ele>
        <time>2023-05-23T13:09:40Z</time>
      </trkpt>
      <trkpt lat="48.97913" lon="-0.38627">
        <ele>183.6</ele>
        <time>2023-05-23T13:09:41Z</time>
      </trkpt>
      <trkpt lat="48.97908" lon="-0.38634">
        <ele>183.6</ele>
        <time>2023-05-23T13:09:42Z</time>
      </trkpt>
      <trkpt lat="48.97901" lon="-0.38641">
        <ele>183.6</ele>
        <time>2023-05-23T13:09:43Z</time>
      </trkpt>
      <trkpt lat="48.97895" lon="-0.38648">
        <ele>183.8</ele>
        <time>2023-05-23T13:09:44Z</time>
      </trkpt>
      <trkpt lat="48.97889" lon="-0.38655">
        <ele>183.8</ele>
        <time>2023-05-23T13:09:45Z</time>
      </trkpt>
      <trkpt lat="48.97883" lon="-0.38662">
        <ele>184</ele>
        <time>2023-05-23T13:09:46Z</time>
      </trkpt>
      <trkpt lat="48.97877" lon="-0.38669">
        <ele>184</ele>
        <time>2023-05-23T13:09:47Z</time>
      </trkpt>
      <trkpt lat="48.97871" lon="-0.38676">
        <ele>183.8</ele>
        <time>2023-05-23T13:09:48Z</time>
      </trkpt>
      <trkpt lat="48.97865" lon="-0.38684">
        <ele>183.8</ele>
        <time>2023-05-23T13:09:49Z</time>
      </trkpt>
      <trkpt lat="48.97859" lon="-0.38691">
        <ele>183.6</ele>
        <time>2023-05-23T13:09:50Z</time>
      </trkpt>
      <trkpt lat="48.97853" lon="-0.38699">
        <ele>183.6</ele>
        <time>2023-05-23T13:09:51Z</time>
      </trkpt>
      <trkpt lat="48.97847" lon="-0.38706">
        <ele>183.6</ele>
        <time>2023-05-23T13:09:52Z</time>
      </trkpt>
      <trkpt lat="48.97841" lon="-0.38714">
        <ele>183.4</ele>
        <time>2023-05-23T13:09:53Z</time>
      </trkpt>
      <trkpt lat="48.97836" lon="-0.38722">
        <ele>183.4</ele>
        <time>2023-05-23T13:09:54Z</time>
      </trkpt>
      <trkpt lat="48.9783" lon="-0.38729">
        <ele>183.2</ele>
        <time>2023-05-23T13:09:55Z</time>
      </trkpt>
      <trkpt lat="48.97825" lon="-0.38738">
        <ele>183.2</ele>
        <time>2023-05-23T13:09:56Z</time>
      </trkpt>
      <trkpt lat="48.97819" lon="-0.38746">
        <ele>183</ele>
        <time>2023-05-23T13:09:57Z</time>
      </trkpt>
      <trkpt lat="48.97814" lon="-0.38754">
        <ele>183</ele>
        <time>2023-05-23T13:09:58Z</time>
      </trkpt>
      <trkpt lat="48.97809" lon="-0.38763">
        <ele>183</ele>
        <time>2023-05-23T13:09:59Z</time>
      </trkpt>
      <trkpt lat="48.97804" lon="-0.38772">
        <ele>182.8</ele>
        <time>2023-05-23T13:10:00Z</time>
      </trkpt>
      <trkpt lat="48.97799" lon="-0.38781">
        <ele>182.8</ele>
        <time>2023-05-23T13:10:01Z</time>
      </trkpt>
      <trkpt lat="48.97794" lon="-0.3879">
        <ele>182.8</ele>
        <time>2023-05-23T13:10:02Z</time>
      </trkpt>
      <trkpt lat="48.9779" lon="-0.38799">
        <ele>182.6</ele>
        <time>2023-05-23T13:10:03Z</time>
      </trkpt>
      <trkpt lat="48.97785" lon="-0.38808">
        <ele>182.6</ele>
        <time>2023-05-23T13:10:04Z</time>
      </trkpt>
      <trkpt lat="48.9778" lon="-0.38817">
        <ele>182.6</ele>
        <time>2023-05-23T13:10:05Z</time>
      </trkpt>
      <trkpt lat="48.97775" lon="-0.38826">
        <ele>182.4</ele>
        <time>2023-05-23T13:10:06Z</time>
      </trkpt>
      <trkpt lat="48.9777" lon="-0.38835">
        <ele>182.2</ele>
        <time>2023-05-23T13:10:07Z</time>
      </trkpt>
      <trkpt lat="48.97764" lon="-0.38844">
        <ele>182.2</ele>
        <time>2023-05-23T13:10:08Z</time>
      </trkpt>
      <trkpt lat="48.97759" lon="-0.38853">
        <ele>182.2</ele>
        <time>2023-05-23T13:10:09Z</time>
      </trkpt>
      <trkpt lat="48.97754" lon="-0.38862">
        <ele>182</ele>
        <time>2023-05-23T13:10:10Z</time>
      </trkpt>
      <trkpt lat="48.97749" lon="-0.3887">
        <ele>182</ele>
        <time>2023-05-23T13:10:11Z</time>
      </trkpt>
      <trkpt lat="48.97744" lon="-0.38879">
        <ele>181.8</ele>
        <time>2023-05-23T13:10:12Z</time>
      </trkpt>
      <trkpt lat="48.97738" lon="-0.38887">
        <ele>181.8</ele>
        <time>2023-05-23T13:10:13Z</time>
      </trkpt>
      <trkpt lat="48.97733" lon="-0.38895">
        <ele>181.6</ele>
        <time>2023-05-23T13:10:14Z</time>
      </trkpt>
      <trkpt lat="48.97727" lon="-0.38903">
        <ele>181.6</ele>
        <time>2023-05-23T13:10:15Z</time>
      </trkpt>
      <trkpt lat="48.97722" lon="-0.38911">
        <ele>181.6</ele>
        <time>2023-05-23T13:10:16Z</time>
      </trkpt>
      <trkpt lat="48.97717" lon="-0.38918">
        <ele>181.6</ele>
        <time>2023-05-23T13:10:17Z</time>
      </trkpt>
      <trkpt lat="48.97711" lon="-0.38925">
        <ele>181.6</ele>
        <time>2023-05-23T13:10:18Z</time>
      </trkpt>
      <trkpt lat="48.97705" lon="-0.38932">
        <ele>181.6</ele>
        <time>2023-05-23T13:10:19Z</time>
      </trkpt>
      <trkpt lat="48.977" lon="-0.38939">
        <ele>181.6</ele>
        <time>2023-05-23T13:10:20Z</time>
      </trkpt>
      <trkpt lat="48.97694" lon="-0.38946">
        <ele>181.6</ele>
        <time>2023-05-23T13:10:21Z</time>
      </trkpt>
      <trkpt lat="48.97688" lon="-0.38953">
        <ele>181.6</ele>
        <time>2023-05-23T13:10:22Z</time>
      </trkpt>
      <trkpt lat="48.97683" lon="-0.3896">
        <ele>181.6</ele>
        <time>2023-05-23T13:10:23Z</time>
      </trkpt>
      <trkpt lat="48.97677" lon="-0.38967">
        <ele>181.6</ele>
        <time>2023-05-23T13:10:24Z</time>
      </trkpt>
      <trkpt lat="48.97671" lon="-0.38974">
        <ele>181.6</ele>
        <time>2023-05-23T13:10:25Z</time>
      </trkpt>
      <trkpt lat="48.97665" lon="-0.38981">
        <ele>181.8</ele>
        <time>2023-05-23T13:10:26Z</time>
      </trkpt>
      <trkpt lat="48.97659" lon="-0.38987">
        <ele>181.8</ele>
        <time>2023-05-23T13:10:27Z</time>
      </trkpt>
      <trkpt lat="48.97653" lon="-0.38994">
        <ele>182.2</ele>
        <time>2023-05-23T13:10:28Z</time>
      </trkpt>
      <trkpt lat="48.97647" lon="-0.39">
        <ele>182.2</ele>
        <time>2023-05-23T13:10:29Z</time>
      </trkpt>
      <trkpt lat="48.97641" lon="-0.39007">
        <ele>182.4</ele>
        <time>2023-05-23T13:10:30Z</time>
      </trkpt>
      <trkpt lat="48.97635" lon="-0.39013">
        <ele>182.4</ele>
        <time>2023-05-23T13:10:31Z</time>
      </trkpt>
      <trkpt lat="48.97628" lon="-0.39019">
        <ele>182.4</ele>
        <time>2023-05-23T13:10:32Z</time>
      </trkpt>
      <trkpt lat="48.97621" lon="-0.39025">
        <ele>182.4</ele>
        <time>2023-05-23T13:10:33Z</time>
      </trkpt>
      <trkpt lat="48.97615" lon="-0.39032">
        <ele>182.4</ele>
        <time>2023-05-23T13:10:34Z</time>
      </trkpt>
      <trkpt lat="48.97608" lon="-0.39038">
        <ele>182.4</ele>
        <time>2023-05-23T13:10:35Z</time>
      </trkpt>
      <trkpt lat="48.97602" lon="-0.39044">
        <ele>182.4</ele>
        <time>2023-05-23T13:10:36Z</time>
      </trkpt>
      <trkpt lat="48.97595" lon="-0.3905">
        <ele>182.4</ele>
        <time>2023-05-23T13:10:37Z</time>
      </trkpt>
      <trkpt lat="48.97588" lon="-0.39056">
        <ele>182.4</ele>
        <time>2023-05-23T13:10:38Z</time>
      </trkpt>
      <trkpt lat="48.97582" lon="-0.39062">
        <ele>182.2</ele>
        <time>2023-05-23T13:10:39Z</time>
      </trkpt>
      <trkpt lat="48.97575" lon="-0.39068">
        <ele>182.2</ele>
        <time>2023-05-23T13:10:40Z</time>
      </trkpt>
      <trkpt lat="48.97568" lon="-0.39074">
        <ele>181.8</ele>
        <time>2023-05-23T13:10:41Z</time>
      </trkpt>
      <trkpt lat="48.97562" lon="-0.39081">
        <ele>181.8</ele>
        <time>2023-05-23T13:10:42Z</time>
      </trkpt>
      <trkpt lat="48.97555" lon="-0.39087">
        <ele>181.6</ele>
        <time>2023-05-23T13:10:43Z</time>
      </trkpt>
      <trkpt lat="48.97548" lon="-0.39093">
        <ele>181.6</ele>
        <time>2023-05-23T13:10:44Z</time>
      </trkpt>
      <trkpt lat="48.97541" lon="-0.39099">
        <ele>181.6</ele>
        <time>2023-05-23T13:10:45Z</time>
      </trkpt>
      <trkpt lat="48.97534" lon="-0.39105">
        <ele>181.6</ele>
        <time>2023-05-23T13:10:46Z</time>
      </trkpt>
      <trkpt lat="48.97527" lon="-0.39112">
        <ele>181.8</ele>
        <time>2023-05-23T13:10:47Z</time>
      </trkpt>
      <trkpt lat="48.97521" lon="-0.39118">
        <ele>181.8</ele>
        <time>2023-05-23T13:10:48Z</time>
      </trkpt>
      <trkpt lat="48.97514" lon="-0.39124">
        <ele>182</ele>
        <time>2023-05-23T13:10:49Z</time>
      </trkpt>
      <trkpt lat="48.97507" lon="-0.39131">
        <ele>182.2</ele>
        <time>2023-05-23T13:10:50Z</time>
      </trkpt>
      <trkpt lat="48.975" lon="-0.39137">
        <ele>182.4</ele>
        <time>2023-05-23T13:10:51Z</time>
      </trkpt>
      <trkpt lat="48.97494" lon="-0.39144">
        <ele>182.4</ele>
        <time>2023-05-23T13:10:52Z</time>
      </trkpt>
      <trkpt lat="48.97487" lon="-0.3915">
        <ele>182.4</ele>
        <time>2023-05-23T13:10:53Z</time>
      </trkpt>
      <trkpt lat="48.97481" lon="-0.39157">
        <ele>182.6</ele>
        <time>2023-05-23T13:10:54Z</time>
      </trkpt>
      <trkpt lat="48.97474" lon="-0.39164">
        <ele>182.6</ele>
        <time>2023-05-23T13:10:55Z</time>
      </trkpt>
      <trkpt lat="48.97468" lon="-0.39171">
        <ele>182.6</ele>
        <time>2023-05-23T13:10:56Z</time>
      </trkpt>
      <trkpt lat="48.97461" lon="-0.39178">
        <ele>182.6</ele>
        <time>2023-05-23T13:10:57Z</time>
      </trkpt>
      <trkpt lat="48.97455" lon="-0.39186">
        <ele>182.6</ele>
        <time>2023-05-23T13:10:58Z</time>
      </trkpt>
      <trkpt lat="48.97449" lon="-0.39193">
        <ele>182.8</ele>
        <time>2023-05-23T13:10:59Z</time>
      </trkpt>
      <trkpt lat="48.97443" lon="-0.39201">
        <ele>182.8</ele>
        <time>2023-05-23T13:11:00Z</time>
      </trkpt>
      <trkpt lat="48.97437" lon="-0.3921">
        <ele>183</ele>
        <time>2023-05-23T13:11:01Z</time>
      </trkpt>
      <trkpt lat="48.97432" lon="-0.39218">
        <ele>183.2</ele>
        <time>2023-05-23T13:11:02Z</time>
      </trkpt>
      <trkpt lat="48.97426" lon="-0.39227">
        <ele>183.4</ele>
        <time>2023-05-23T13:11:03Z</time>
      </trkpt>
      <trkpt lat="48.97421" lon="-0.39236">
        <ele>183.6</ele>
        <time>2023-05-23T13:11:04Z</time>
      </trkpt>
      <trkpt lat="48.97416" lon="-0.39246">
        <ele>183.8</ele>
        <time>2023-05-23T13:11:05Z</time>
      </trkpt>
      <trkpt lat="48.97411" lon="-0.39255">
        <ele>183.8</ele>
        <time>2023-05-23T13:11:06Z</time>
      </trkpt>
      <trkpt lat="48.97406" lon="-0.39264">
        <ele>184</ele>
        <time>2023-05-23T13:11:07Z</time>
      </trkpt>
      <trkpt lat="48.97402" lon="-0.39274">
        <ele>184</ele>
        <time>2023-05-23T13:11:08Z</time>
      </trkpt>
      <trkpt lat="48.97398" lon="-0.39283">
        <ele>184.2</ele>
        <time>2023-05-23T13:11:09Z</time>
      </trkpt>
      <trkpt lat="48.97393" lon="-0.39293">
        <ele>184.2</ele>
        <time>2023-05-23T13:11:10Z</time>
      </trkpt>
      <trkpt lat="48.97389" lon="-0.39302">
        <ele>184.4</ele>
        <time>2023-05-23T13:11:11Z</time>
      </trkpt>
      <trkpt lat="48.97385" lon="-0.39311">
        <ele>184.6</ele>
        <time>2023-05-23T13:11:12Z</time>
      </trkpt>
      <trkpt lat="48.97381" lon="-0.3932">
        <ele>184.6</ele>
        <time>2023-05-23T13:11:13Z</time>
      </trkpt>
      <trkpt lat="48.97377" lon="-0.3933">
        <ele>184.8</ele>
        <time>2023-05-23T13:11:14Z</time>
      </trkpt>
      <trkpt lat="48.97373" lon="-0.39339">
        <ele>185</ele>
        <time>2023-05-23T13:11:15Z</time>
      </trkpt>
      <trkpt lat="48.97369" lon="-0.39348">
        <ele>184.8</ele>
        <time>2023-05-23T13:11:16Z</time>
      </trkpt>
      <trkpt lat="48.97365" lon="-0.39358">
        <ele>184.8</ele>
        <time>2023-05-23T13:11:17Z</time>
      </trkpt>
      <trkpt lat="48.97361" lon="-0.39367">
        <ele>184.8</ele>
        <time>2023-05-23T13:11:18Z</time>
      </trkpt>
      <trkpt lat="48.97357" lon="-0.39376">
        <ele>184.8</ele>
        <time>2023-05-23T13:11:19Z</time>
      </trkpt>
      <trkpt lat="48.97353" lon="-0.39385">
        <ele>184.8</ele>
        <time>2023-05-23T13:11:20Z</time>
      </trkpt>
      <trkpt lat="48.9735" lon="-0.39394">
        <ele>184.8</ele>
        <time>2023-05-23T13:11:21Z</time>
      </trkpt>
      <trkpt lat="48.97346" lon="-0.39403">
        <ele>184.8</ele>
        <time>2023-05-23T13:11:22Z</time>
      </trkpt>
      <trkpt lat="48.97342" lon="-0.39412">
        <ele>184.8</ele>
        <time>2023-05-23T13:11:23Z</time>
      </trkpt>
      <trkpt lat="48.97338" lon="-0.39421">
        <ele>185</ele>
        <time>2023-05-23T13:11:24Z</time>
      </trkpt>
      <trkpt lat="48.97334" lon="-0.3943">
        <ele>185.2</ele>
        <time>2023-05-23T13:11:25Z</time>
      </trkpt>
      <trkpt lat="48.9733" lon="-0.39439">
        <ele>185.4</ele>
        <time>2023-05-23T13:11:26Z</time>
      </trkpt>
      <trkpt lat="48.97326" lon="-0.39448">
        <ele>185.6</ele>
        <time>2023-05-23T13:11:27Z</time>
      </trkpt>
      <trkpt lat="48.97322" lon="-0.39457">
        <ele>185.6</ele>
        <time>2023-05-23T13:11:28Z</time>
      </trkpt>
      <trkpt lat="48.97318" lon="-0.39465">
        <ele>185.8</ele>
        <time>2023-05-23T13:11:29Z</time>
      </trkpt>
      <trkpt lat="48.97314" lon="-0.39473">
        <ele>185.8</ele>
        <time>2023-05-23T13:11:30Z</time>
      </trkpt>
      <trkpt lat="48.9731" lon="-0.39482">
        <ele>186.2</ele>
        <time>2023-05-23T13:11:31Z</time>
      </trkpt>
      <trkpt lat="48.97306" lon="-0.3949">
        <ele>186.2</ele>
        <time>2023-05-23T13:11:32Z</time>
      </trkpt>
      <trkpt lat="48.97302" lon="-0.39498">
        <ele>186.4</ele>
        <time>2023-05-23T13:11:33Z</time>
      </trkpt>
      <trkpt lat="48.97298" lon="-0.39506">
        <ele>186.6</ele>
        <time>2023-05-23T13:11:34Z</time>
      </trkpt>
      <trkpt lat="48.97293" lon="-0.39513">
        <ele>186.6</ele>
        <time>2023-05-23T13:11:35Z</time>
      </trkpt>
      <trkpt lat="48.97289" lon="-0.39521">
        <ele>186.6</ele>
        <time>2023-05-23T13:11:36Z</time>
      </trkpt>
      <trkpt lat="48.97285" lon="-0.39528">
        <ele>186.8</ele>
        <time>2023-05-23T13:11:37Z</time>
      </trkpt>
      <trkpt lat="48.9728" lon="-0.39536">
        <ele>186.8</ele>
        <time>2023-05-23T13:11:38Z</time>
      </trkpt>
      <trkpt lat="48.97276" lon="-0.39543">
        <ele>187</ele>
        <time>2023-05-23T13:11:39Z</time>
      </trkpt>
      <trkpt lat="48.97272" lon="-0.39551">
        <ele>187.2</ele>
        <time>2023-05-23T13:11:40Z</time>
      </trkpt>
      <trkpt lat="48.97267" lon="-0.39558">
        <ele>187.4</ele>
        <time>2023-05-23T13:11:41Z</time>
      </trkpt>
      <trkpt lat="48.97263" lon="-0.39565">
        <ele>187.6</ele>
        <time>2023-05-23T13:11:42Z</time>
      </trkpt>
      <trkpt lat="48.97258" lon="-0.39572">
        <ele>187.6</ele>
        <time>2023-05-23T13:11:43Z</time>
      </trkpt>
      <trkpt lat="48.97254" lon="-0.39579">
        <ele>187.8</ele>
        <time>2023-05-23T13:11:44Z</time>
      </trkpt>
      <trkpt lat="48.9725" lon="-0.39586">
        <ele>188</ele>
        <time>2023-05-23T13:11:45Z</time>
      </trkpt>
      <trkpt lat="48.97245" lon="-0.39594">
        <ele>188.2</ele>
        <time>2023-05-23T13:11:46Z</time>
      </trkpt>
      <trkpt lat="48.97241" lon="-0.39601">
        <ele>188.2</ele>
        <time>2023-05-23T13:11:47Z</time>
      </trkpt>
      <trkpt lat="48.97236" lon="-0.39607">
        <ele>188.4</ele>
        <time>2023-05-23T13:11:48Z</time>
      </trkpt>
      <trkpt lat="48.97232" lon="-0.39614">
        <ele>188.6</ele>
        <time>2023-05-23T13:11:49Z</time>
      </trkpt>
      <trkpt lat="48.97228" lon="-0.39621">
        <ele>188.6</ele>
        <time>2023-05-23T13:11:50Z</time>
      </trkpt>
      <trkpt lat="48.97223" lon="-0.39628">
        <ele>188.6</ele>
        <time>2023-05-23T13:11:51Z</time>
      </trkpt>
      <trkpt lat="48.97219" lon="-0.39634">
        <ele>188.8</ele>
        <time>2023-05-23T13:11:52Z</time>
      </trkpt>
      <trkpt lat="48.97215" lon="-0.39641">
        <ele>189</ele>
        <time>2023-05-23T13:11:53Z</time>
      </trkpt>
      <trkpt lat="48.9721" lon="-0.39648">
        <ele>189.2</ele>
        <time>2023-05-23T13:11:54Z</time>
      </trkpt>
      <trkpt lat="48.97206" lon="-0.39654">
        <ele>189.4</ele>
        <time>2023-05-23T13:11:55Z</time>
      </trkpt>
      <trkpt lat="48.97201" lon="-0.3966">
        <ele>189.6</ele>
        <time>2023-05-23T13:11:56Z</time>
      </trkpt>
      <trkpt lat="48.97197" lon="-0.39666">
        <ele>189.6</ele>
        <time>2023-05-23T13:11:57Z</time>
      </trkpt>
      <trkpt lat="48.97192" lon="-0.39673">
        <ele>189.6</ele>
        <time>2023-05-23T13:11:58Z</time>
      </trkpt>
      <trkpt lat="48.97188" lon="-0.39678">
        <ele>189.6</ele>
        <time>2023-05-23T13:11:59Z</time>
      </trkpt>
      <trkpt lat="48.97183" lon="-0.39684">
        <ele>189.8</ele>
        <time>2023-05-23T13:12:00Z</time>
      </trkpt>
      <trkpt lat="48.97178" lon="-0.3969">
        <ele>189.8</ele>
        <time>2023-05-23T13:12:01Z</time>
      </trkpt>
      <trkpt lat="48.97174" lon="-0.39696">
        <ele>189.8</ele>
        <time>2023-05-23T13:12:02Z</time>
      </trkpt>
      <trkpt lat="48.97169" lon="-0.39702">
        <ele>190</ele>
        <time>2023-05-23T13:12:03Z</time>
      </trkpt>
      <trkpt lat="48.97164" lon="-0.39707">
        <ele>190</ele>
        <time>2023-05-23T13:12:04Z</time>
      </trkpt>
      <trkpt lat="48.97159" lon="-0.39713">
        <ele>190.2</ele>
        <time>2023-05-23T13:12:05Z</time>
      </trkpt>
      <trkpt lat="48.97155" lon="-0.39718">
        <ele>190.2</ele>
        <time>2023-05-23T13:12:06Z</time>
      </trkpt>
      <trkpt lat="48.9715" lon="-0.39724">
        <ele>190.2</ele>
        <time>2023-05-23T13:12:07Z</time>
      </trkpt>
      <trkpt lat="48.97145" lon="-0.39729">
        <ele>190.4</ele>
        <time>2023-05-23T13:12:08Z</time>
      </trkpt>
      <trkpt lat="48.9714" lon="-0.39735">
        <ele>190.6</ele>
        <time>2023-05-23T13:12:09Z</time>
      </trkpt>
      <trkpt lat="48.97135" lon="-0.3974">
        <ele>190.6</ele>
        <time>2023-05-23T13:12:10Z</time>
      </trkpt>
      <trkpt lat="48.9713" lon="-0.39745">
        <ele>190.8</ele>
        <time>2023-05-23T13:12:11Z</time>
      </trkpt>
      <trkpt lat="48.97125" lon="-0.3975">
        <ele>191</ele>
        <time>2023-05-23T13:12:12Z</time>
      </trkpt>
      <trkpt lat="48.9712" lon="-0.39756">
        <ele>191.2</ele>
        <time>2023-05-23T13:12:13Z</time>
      </trkpt>
      <trkpt lat="48.97116" lon="-0.39761">
        <ele>191.6</ele>
        <time>2023-05-23T13:12:14Z</time>
      </trkpt>
      <trkpt lat="48.97111" lon="-0.39766">
        <ele>191.6</ele>
        <time>2023-05-23T13:12:15Z</time>
      </trkpt>
      <trkpt lat="48.97106" lon="-0.39771">
        <ele>192</ele>
        <time>2023-05-23T13:12:16Z</time>
      </trkpt>
      <trkpt lat="48.97101" lon="-0.39776">
        <ele>192.2</ele>
        <time>2023-05-23T13:12:17Z</time>
      </trkpt>
      <trkpt lat="48.97097" lon="-0.39781">
        <ele>192.4</ele>
        <time>2023-05-23T13:12:18Z</time>
      </trkpt>
      <trkpt lat="48.97092" lon="-0.39786">
        <ele>192.6</ele>
        <time>2023-05-23T13:12:19Z</time>
      </trkpt>
      <trkpt lat="48.97087" lon="-0.39792">
        <ele>192.8</ele>
        <time>2023-05-23T13:12:20Z</time>
      </trkpt>
      <trkpt lat="48.97082" lon="-0.39797">
        <ele>193.2</ele>
        <time>2023-05-23T13:12:21Z</time>
      </trkpt>
      <trkpt lat="48.97077" lon="-0.39802">
        <ele>193.2</ele>
        <time>2023-05-23T13:12:22Z</time>
      </trkpt>
      <trkpt lat="48.97073" lon="-0.39807">
        <ele>193.2</ele>
        <time>2023-05-23T13:12:23Z</time>
      </trkpt>
      <trkpt lat="48.97068" lon="-0.39812">
        <ele>193.4</ele>
        <time>2023-05-23T13:12:24Z</time>
      </trkpt>
      <trkpt lat="48.97063" lon="-0.39817">
        <ele>193.4</ele>
        <time>2023-05-23T13:12:25Z</time>
      </trkpt>
      <trkpt lat="48.97058" lon="-0.39823">
        <ele>193.4</ele>
        <time>2023-05-23T13:12:26Z</time>
      </trkpt>
      <trkpt lat="48.97054" lon="-0.39828">
        <ele>193.6</ele>
        <time>2023-05-23T13:12:27Z</time>
      </trkpt>
      <trkpt lat="48.97049" lon="-0.39833">
        <ele>193.6</ele>
        <time>2023-05-23T13:12:28Z</time>
      </trkpt>
      <trkpt lat="48.97045" lon="-0.39839">
        <ele>193.6</ele>
        <time>2023-05-23T13:12:29Z</time>
      </trkpt>
      <trkpt lat="48.9704" lon="-0.39844">
        <ele>193.6</ele>
        <time>2023-05-23T13:12:30Z</time>
      </trkpt>
      <trkpt lat="48.97035" lon="-0.3985">
        <ele>193.6</ele>
        <time>2023-05-23T13:12:31Z</time>
      </trkpt>
      <trkpt lat="48.97031" lon="-0.39856">
        <ele>193.4</ele>
        <time>2023-05-23T13:12:32Z</time>
      </trkpt>
      <trkpt lat="48.97027" lon="-0.39861">
        <ele>193.4</ele>
        <time>2023-05-23T13:12:33Z</time>
      </trkpt>
      <trkpt lat="48.97022" lon="-0.39867">
        <ele>193.6</ele>
        <time>2023-05-23T13:12:34Z</time>
      </trkpt>
      <trkpt lat="48.97018" lon="-0.39873">
        <ele>193.6</ele>
        <time>2023-05-23T13:12:35Z</time>
      </trkpt>
      <trkpt lat="48.97013" lon="-0.39879">
        <ele>193.6</ele>
        <time>2023-05-23T13:12:36Z</time>
      </trkpt>
      <trkpt lat="48.97009" lon="-0.39885">
        <ele>193.6</ele>
        <time>2023-05-23T13:12:37Z</time>
      </trkpt>
      <trkpt lat="48.97005" lon="-0.39891">
        <ele>193.6</ele>
        <time>2023-05-23T13:12:38Z</time>
      </trkpt>
      <trkpt lat="48.97" lon="-0.39897">
        <ele>193.8</ele>
        <time>2023-05-23T13:12:39Z</time>
      </trkpt>
      <trkpt lat="48.96996" lon="-0.39903">
        <ele>193.8</ele>
        <time>2023-05-23T13:12:40Z</time>
      </trkpt>
      <trkpt lat="48.96991" lon="-0.39908">
        <ele>193.8</ele>
        <time>2023-05-23T13:12:41Z</time>
      </trkpt>
      <trkpt lat="48.96987" lon="-0.39914">
        <ele>194</ele>
        <time>2023-05-23T13:12:42Z</time>
      </trkpt>
      <trkpt lat="48.96982" lon="-0.3992">
        <ele>194</ele>
        <time>2023-05-23T13:12:43Z</time>
      </trkpt>
      <trkpt lat="48.96977" lon="-0.39926">
        <ele>194.2</ele>
        <time>2023-05-23T13:12:44Z</time>
      </trkpt>
      <trkpt lat="48.96973" lon="-0.39931">
        <ele>194.2</ele>
        <time>2023-05-23T13:12:45Z</time>
      </trkpt>
      <trkpt lat="48.96968" lon="-0.39937">
        <ele>194.2</ele>
        <time>2023-05-23T13:12:46Z</time>
      </trkpt>
      <trkpt lat="48.96963" lon="-0.39942">
        <ele>194.4</ele>
        <time>2023-05-23T13:12:47Z</time>
      </trkpt>
      <trkpt lat="48.96959" lon="-0.39947">
        <ele>194.4</ele>
        <time>2023-05-23T13:12:48Z</time>
      </trkpt>
      <trkpt lat="48.96954" lon="-0.39952">
        <ele>194.4</ele>
        <time>2023-05-23T13:12:49Z</time>
      </trkpt>
      <trkpt lat="48.96949" lon="-0.39958">
        <ele>194.6</ele>
        <time>2023-05-23T13:12:50Z</time>
      </trkpt>
      <trkpt lat="48.96945" lon="-0.39963">
        <ele>194.6</ele>
        <time>2023-05-23T13:12:51Z</time>
      </trkpt>
      <trkpt lat="48.9694" lon="-0.39968">
        <ele>194.6</ele>
        <time>2023-05-23T13:12:52Z</time>
      </trkpt>
      <trkpt lat="48.96935" lon="-0.39973">
        <ele>194.6</ele>
        <time>2023-05-23T13:12:53Z</time>
      </trkpt>
      <trkpt lat="48.9693" lon="-0.39978">
        <ele>194.6</ele>
        <time>2023-05-23T13:12:54Z</time>
      </trkpt>
      <trkpt lat="48.96925" lon="-0.39983">
        <ele>194.8</ele>
        <time>2023-05-23T13:12:55Z</time>
      </trkpt>
      <trkpt lat="48.9692" lon="-0.39988">
        <ele>194.8</ele>
        <time>2023-05-23T13:12:56Z</time>
      </trkpt>
      <trkpt lat="48.96916" lon="-0.39993">
        <ele>194.8</ele>
        <time>2023-05-23T13:12:57Z</time>
      </trkpt>
      <trkpt lat="48.9691" lon="-0.39998">
        <ele>195</ele>
        <time>2023-05-23T13:12:58Z</time>
      </trkpt>
      <trkpt lat="48.96906" lon="-0.40003">
        <ele>195</ele>
        <time>2023-05-23T13:12:59Z</time>
      </trkpt>
      <trkpt lat="48.96901" lon="-0.40009">
        <ele>195.2</ele>
        <time>2023-05-23T13:13:00Z</time>
      </trkpt>
      <trkpt lat="48.96896" lon="-0.40014">
        <ele>195.2</ele>
        <time>2023-05-23T13:13:01Z</time>
      </trkpt>
      <trkpt lat="48.9689" lon="-0.40019">
        <ele>195.2</ele>
        <time>2023-05-23T13:13:02Z</time>
      </trkpt>
      <trkpt lat="48.96886" lon="-0.40024">
        <ele>195.4</ele>
        <time>2023-05-23T13:13:03Z</time>
      </trkpt>
      <trkpt lat="48.9688" lon="-0.40029">
        <ele>195.4</ele>
        <time>2023-05-23T13:13:04Z</time>
      </trkpt>
      <trkpt lat="48.96875" lon="-0.40034">
        <ele>195.4</ele>
        <time>2023-05-23T13:13:05Z</time>
      </trkpt>
      <trkpt lat="48.9687" lon="-0.4004">
        <ele>195.6</ele>
        <time>2023-05-23T13:13:06Z</time>
      </trkpt>
      <trkpt lat="48.96865" lon="-0.40045">
        <ele>195.6</ele>
        <time>2023-05-23T13:13:07Z</time>
      </trkpt>
      <trkpt lat="48.9686" lon="-0.4005">
        <ele>195.6</ele>
        <time>2023-05-23T13:13:08Z</time>
      </trkpt>
      <trkpt lat="48.96855" lon="-0.40055">
        <ele>195.6</ele>
        <time>2023-05-23T13:13:09Z</time>
      </trkpt>
      <trkpt lat="48.9685" lon="-0.40061">
        <ele>195.6</ele>
        <time>2023-05-23T13:13:10Z</time>
      </trkpt>
      <trkpt lat="48.96844" lon="-0.40066">
        <ele>195.8</ele>
        <time>2023-05-23T13:13:11Z</time>
      </trkpt>
      <trkpt lat="48.96839" lon="-0.40071">
        <ele>195.8</ele>
        <time>2023-05-23T13:13:12Z</time>
      </trkpt>
      <trkpt lat="48.96834" lon="-0.40077">
        <ele>195.8</ele>
        <time>2023-05-23T13:13:13Z</time>
      </trkpt>
      <trkpt lat="48.96829" lon="-0.40082">
        <ele>196</ele>
        <time>2023-05-23T13:13:14Z</time>
      </trkpt>
      <trkpt lat="48.96824" lon="-0.40087">
        <ele>196.4</ele>
        <time>2023-05-23T13:13:15Z</time>
      </trkpt>
      <trkpt lat="48.96819" lon="-0.40093">
        <ele>196.6</ele>
        <time>2023-05-23T13:13:16Z</time>
      </trkpt>
      <trkpt lat="48.96814" lon="-0.40098">
        <ele>196.6</ele>
        <time>2023-05-23T13:13:17Z</time>
      </trkpt>
      <trkpt lat="48.96808" lon="-0.40103">
        <ele>196.8</ele>
        <time>2023-05-23T13:13:18Z</time>
      </trkpt>
      <trkpt lat="48.96803" lon="-0.40109">
        <ele>197.2</ele>
        <time>2023-05-23T13:13:19Z</time>
      </trkpt>
      <trkpt lat="48.96798" lon="-0.40114">
        <ele>197.4</ele>
        <time>2023-05-23T13:13:20Z</time>
      </trkpt>
      <trkpt lat="48.96793" lon="-0.40119">
        <ele>197.6</ele>
        <time>2023-05-23T13:13:21Z</time>
      </trkpt>
      <trkpt lat="48.96788" lon="-0.40125">
        <ele>197.8</ele>
        <time>2023-05-23T13:13:22Z</time>
      </trkpt>
      <trkpt lat="48.96783" lon="-0.4013">
        <ele>198</ele>
        <time>2023-05-23T13:13:23Z</time>
      </trkpt>
      <trkpt lat="48.96778" lon="-0.40135">
        <ele>198.2</ele>
        <time>2023-05-23T13:13:24Z</time>
      </trkpt>
      <trkpt lat="48.96772" lon="-0.40141">
        <ele>198.4</ele>
        <time>2023-05-23T13:13:25Z</time>
      </trkpt>
      <trkpt lat="48.96767" lon="-0.40146">
        <ele>198.6</ele>
        <time>2023-05-23T13:13:26Z</time>
      </trkpt>
      <trkpt lat="48.96762" lon="-0.40151">
        <ele>198.6</ele>
        <time>2023-05-23T13:13:27Z</time>
      </trkpt>
      <trkpt lat="48.96758" lon="-0.40156">
        <ele>198.6</ele>
        <time>2023-05-23T13:13:28Z</time>
      </trkpt>
      <trkpt lat="48.96753" lon="-0.40161">
        <ele>198.8</ele>
        <time>2023-05-23T13:13:29Z</time>
      </trkpt>
      <trkpt lat="48.96748" lon="-0.40166">
        <ele>199</ele>
        <time>2023-05-23T13:13:30Z</time>
      </trkpt>
      <trkpt lat="48.96743" lon="-0.40171">
        <ele>199.2</ele>
        <time>2023-05-23T13:13:31Z</time>
      </trkpt>
      <trkpt lat="48.96739" lon="-0.40175">
        <ele>199.2</ele>
        <time>2023-05-23T13:13:32Z</time>
      </trkpt>
      <trkpt lat="48.96735" lon="-0.40179">
        <ele>199.4</ele>
        <time>2023-05-23T13:13:33Z</time>
      </trkpt>
      <trkpt lat="48.9673" lon="-0.40184">
        <ele>199.6</ele>
        <time>2023-05-23T13:13:34Z</time>
      </trkpt>
      <trkpt lat="48.96726" lon="-0.40188">
        <ele>199.6</ele>
        <time>2023-05-23T13:13:35Z</time>
      </trkpt>
      <trkpt lat="48.96721" lon="-0.40193">
        <ele>199.6</ele>
        <time>2023-05-23T13:13:36Z</time>
      </trkpt>
      <trkpt lat="48.96717" lon="-0.40198">
        <ele>199.8</ele>
        <time>2023-05-23T13:13:37Z</time>
      </trkpt>
      <trkpt lat="48.96713" lon="-0.40202">
        <ele>200</ele>
        <time>2023-05-23T13:13:38Z</time>
      </trkpt>
      <trkpt lat="48.96708" lon="-0.40207">
        <ele>200.2</ele>
        <time>2023-05-23T13:13:39Z</time>
      </trkpt>
      <trkpt lat="48.96704" lon="-0.40211">
        <ele>200.4</ele>
        <time>2023-05-23T13:13:40Z</time>
      </trkpt>
      <trkpt lat="48.967" lon="-0.40215">
        <ele>200.6</ele>
        <time>2023-05-23T13:13:41Z</time>
      </trkpt>
      <trkpt lat="48.96697" lon="-0.40219">
        <ele>200.6</ele>
        <time>2023-05-23T13:13:42Z</time>
      </trkpt>
      <trkpt lat="48.96694" lon="-0.40224">
        <ele>200.8</ele>
        <time>2023-05-23T13:13:43Z</time>
      </trkpt>
      <trkpt lat="48.96692" lon="-0.40229">
        <ele>201</ele>
        <time>2023-05-23T13:13:44Z</time>
      </trkpt>
      <trkpt lat="48.96692" lon="-0.40234">
        <ele>201.2</ele>
        <time>2023-05-23T13:13:45Z</time>
      </trkpt>
      <trkpt lat="48.96693" lon="-0.4024">
        <ele>201.4</ele>
        <time>2023-05-23T13:13:46Z</time>
      </trkpt>
      <trkpt lat="48.96693" lon="-0.40246">
        <ele>201.6</ele>
        <time>2023-05-23T13:13:47Z</time>
      </trkpt>
      <trkpt lat="48.96694" lon="-0.40253">
        <ele>201.6</ele>
        <time>2023-05-23T13:13:48Z</time>
      </trkpt>
      <trkpt lat="48.96695" lon="-0.4026">
        <ele>201.6</ele>
        <time>2023-05-23T13:13:49Z</time>
      </trkpt>
      <trkpt lat="48.96696" lon="-0.40267">
        <ele>201.6</ele>
        <time>2023-05-23T13:13:50Z</time>
      </trkpt>
      <trkpt lat="48.96697" lon="-0.40274">
        <ele>201.6</ele>
        <time>2023-05-23T13:13:51Z</time>
      </trkpt>
      <trkpt lat="48.96697" lon="-0.4028">
        <ele>201.8</ele>
        <time>2023-05-23T13:13:52Z</time>
      </trkpt>
      <trkpt lat="48.96698" lon="-0.40287">
        <ele>201.8</ele>
        <time>2023-05-23T13:13:53Z</time>
      </trkpt>
      <trkpt lat="48.96698" lon="-0.40294">
        <ele>201.8</ele>
        <time>2023-05-23T13:13:54Z</time>
      </trkpt>
      <trkpt lat="48.96699" lon="-0.40301">
        <ele>201.8</ele>
        <time>2023-05-23T13:13:55Z</time>
      </trkpt>
      <trkpt lat="48.967" lon="-0.40308">
        <ele>201.8</ele>
        <time>2023-05-23T13:13:56Z</time>
      </trkpt>
      <trkpt lat="48.967" lon="-0.40315">
        <ele>201.8</ele>
        <time>2023-05-23T13:13:57Z</time>
      </trkpt>
      <trkpt lat="48.96701" lon="-0.40322">
        <ele>201.8</ele>
        <time>2023-05-23T13:13:58Z</time>
      </trkpt>
      <trkpt lat="48.96702" lon="-0.40329">
        <ele>202</ele>
        <time>2023-05-23T13:13:59Z</time>
      </trkpt>
      <trkpt lat="48.96702" lon="-0.40336">
        <ele>202.2</ele>
        <time>2023-05-23T13:14:00Z</time>
      </trkpt>
      <trkpt lat="48.96703" lon="-0.40343">
        <ele>202.4</ele>
        <time>2023-05-23T13:14:01Z</time>
      </trkpt>
      <trkpt lat="48.96703" lon="-0.40351">
        <ele>202.4</ele>
        <time>2023-05-23T13:14:02Z</time>
      </trkpt>
      <trkpt lat="48.96704" lon="-0.40358">
        <ele>202.6</ele>
        <time>2023-05-23T13:14:03Z</time>
      </trkpt>
      <trkpt lat="48.96705" lon="-0.40366">
        <ele>202.8</ele>
        <time>2023-05-23T13:14:04Z</time>
      </trkpt>
      <trkpt lat="48.96705" lon="-0.40373">
        <ele>203</ele>
        <time>2023-05-23T13:14:05Z</time>
      </trkpt>
      <trkpt lat="48.96706" lon="-0.40381">
        <ele>203.2</ele>
        <time>2023-05-23T13:14:06Z</time>
      </trkpt>
      <trkpt lat="48.96707" lon="-0.40388">
        <ele>203.4</ele>
        <time>2023-05-23T13:14:07Z</time>
      </trkpt>
      <trkpt lat="48.96707" lon="-0.40396">
        <ele>203.6</ele>
        <time>2023-05-23T13:14:08Z</time>
      </trkpt>
      <trkpt lat="48.96708" lon="-0.40403">
        <ele>203.6</ele>
        <time>2023-05-23T13:14:09Z</time>
      </trkpt>
      <trkpt lat="48.96709" lon="-0.40411">
        <ele>203.8</ele>
        <time>2023-05-23T13:14:10Z</time>
      </trkpt>
      <trkpt lat="48.96709" lon="-0.40419">
        <ele>204</ele>
        <time>2023-05-23T13:14:11Z</time>
      </trkpt>
      <trkpt lat="48.9671" lon="-0.40426">
        <ele>203.8</ele>
        <time>2023-05-23T13:14:12Z</time>
      </trkpt>
      <trkpt lat="48.9671" lon="-0.40434">
        <ele>203.8</ele>
        <time>2023-05-23T13:14:13Z</time>
      </trkpt>
      <trkpt lat="48.96711" lon="-0.40442">
        <ele>203.8</ele>
        <time>2023-05-23T13:14:14Z</time>
      </trkpt>
      <trkpt lat="48.96712" lon="-0.40449">
        <ele>203.6</ele>
        <time>2023-05-23T13:14:15Z</time>
      </trkpt>
      <trkpt lat="48.96713" lon="-0.40457">
        <ele>203.6</ele>
        <time>2023-05-23T13:14:16Z</time>
      </trkpt>
      <trkpt lat="48.96713" lon="-0.40465">
        <ele>203.6</ele>
        <time>2023-05-23T13:14:17Z</time>
      </trkpt>
      <trkpt lat="48.96714" lon="-0.40472">
        <ele>203.6</ele>
        <time>2023-05-23T13:14:18Z</time>
      </trkpt>
      <trkpt lat="48.96714" lon="-0.4048">
        <ele>203.6</ele>
        <time>2023-05-23T13:14:19Z</time>
      </trkpt>
      <trkpt lat="48.96715" lon="-0.40488">
        <ele>203.6</ele>
        <time>2023-05-23T13:14:20Z</time>
      </trkpt>
      <trkpt lat="48.96716" lon="-0.40495">
        <ele>203.4</ele>
        <time>2023-05-23T13:14:21Z</time>
      </trkpt>
      <trkpt lat="48.96716" lon="-0.40503">
        <ele>203.4</ele>
        <time>2023-05-23T13:14:22Z</time>
      </trkpt>
      <trkpt lat="48.96717" lon="-0.40511">
        <ele>203.6</ele>
        <time>2023-05-23T13:14:23Z</time>
      </trkpt>
      <trkpt lat="48.96718" lon="-0.40518">
        <ele>203.6</ele>
        <time>2023-05-23T13:14:24Z</time>
      </trkpt>
      <trkpt lat="48.96719" lon="-0.40526">
        <ele>203.8</ele>
        <time>2023-05-23T13:14:25Z</time>
      </trkpt>
      <trkpt lat="48.96719" lon="-0.40534">
        <ele>203.8</ele>
        <time>2023-05-23T13:14:26Z</time>
      </trkpt>
      <trkpt lat="48.9672" lon="-0.40542">
        <ele>204</ele>
        <time>2023-05-23T13:14:27Z</time>
      </trkpt>
      <trkpt lat="48.96721" lon="-0.4055">
        <ele>204.2</ele>
        <time>2023-05-23T13:14:28Z</time>
      </trkpt>
      <trkpt lat="48.96721" lon="-0.40557">
        <ele>204.2</ele>
        <time>2023-05-23T13:14:29Z</time>
      </trkpt>
      <trkpt lat="48.96722" lon="-0.40565">
        <ele>204.4</ele>
        <time>2023-05-23T13:14:30Z</time>
      </trkpt>
      <trkpt lat="48.96723" lon="-0.40573">
        <ele>204.6</ele>
        <time>2023-05-23T13:14:31Z</time>
      </trkpt>
      <trkpt lat="48.96723" lon="-0.40581">
        <ele>204.6</ele>
        <time>2023-05-23T13:14:32Z</time>
      </trkpt>
      <trkpt lat="48.96724" lon="-0.40589">
        <ele>204.8</ele>
        <time>2023-05-23T13:14:33Z</time>
      </trkpt>
      <trkpt lat="48.96725" lon="-0.40597">
        <ele>204.8</ele>
        <time>2023-05-23T13:14:34Z</time>
      </trkpt>
      <trkpt lat="48.96726" lon="-0.40606">
        <ele>205</ele>
        <time>2023-05-23T13:14:35Z</time>
      </trkpt>
      <trkpt lat="48.96726" lon="-0.40614">
        <ele>205.2</ele>
        <time>2023-05-23T13:14:36Z</time>
      </trkpt>
      <trkpt lat="48.96727" lon="-0.40622">
        <ele>205.2</ele>
        <time>2023-05-23T13:14:37Z</time>
      </trkpt>
      <trkpt lat="48.96728" lon="-0.4063">
        <ele>205.4</ele>
        <time>2023-05-23T13:14:38Z</time>
      </trkpt>
      <trkpt lat="48.96728" lon="-0.40639">
        <ele>205.4</ele>
        <time>2023-05-23T13:14:39Z</time>
      </trkpt>
      <trkpt lat="48.96729" lon="-0.40647">
        <ele>205.6</ele>
        <time>2023-05-23T13:14:40Z</time>
      </trkpt>
      <trkpt lat="48.9673" lon="-0.40655">
        <ele>205.6</ele>
        <time>2023-05-23T13:14:41Z</time>
      </trkpt>
      <trkpt lat="48.96731" lon="-0.40664">
        <ele>205.6</ele>
        <time>2023-05-23T13:14:42Z</time>
      </trkpt>
      <trkpt lat="48.96731" lon="-0.40672">
        <ele>205.6</ele>
        <time>2023-05-23T13:14:43Z</time>
      </trkpt>
      <trkpt lat="48.96732" lon="-0.40681">
        <ele>205.6</ele>
        <time>2023-05-23T13:14:44Z</time>
      </trkpt>
      <trkpt lat="48.96733" lon="-0.40689">
        <ele>205.4</ele>
        <time>2023-05-23T13:14:45Z</time>
      </trkpt>
      <trkpt lat="48.96733" lon="-0.40697">
        <ele>205.4</ele>
        <time>2023-05-23T13:14:46Z</time>
      </trkpt>
      <trkpt lat="48.96734" lon="-0.40706">
        <ele>205.2</ele>
        <time>2023-05-23T13:14:47Z</time>
      </trkpt>
      <trkpt lat="48.96735" lon="-0.40714">
        <ele>205</ele>
        <time>2023-05-23T13:14:48Z</time>
      </trkpt>
      <trkpt lat="48.96736" lon="-0.40722">
        <ele>204.8</ele>
        <time>2023-05-23T13:14:49Z</time>
      </trkpt>
      <trkpt lat="48.96736" lon="-0.40731">
        <ele>204.6</ele>
        <time>2023-05-23T13:14:50Z</time>
      </trkpt>
      <trkpt lat="48.96737" lon="-0.40739">
        <ele>204.6</ele>
        <time>2023-05-23T13:14:51Z</time>
      </trkpt>
      <trkpt lat="48.96738" lon="-0.40748">
        <ele>204.4</ele>
        <time>2023-05-23T13:14:52Z</time>
      </trkpt>
      <trkpt lat="48.96739" lon="-0.40756">
        <ele>204.4</ele>
        <time>2023-05-23T13:14:53Z</time>
      </trkpt>
      <trkpt lat="48.96739" lon="-0.40765">
        <ele>204.2</ele>
        <time>2023-05-23T13:14:54Z</time>
      </trkpt>
      <trkpt lat="48.9674" lon="-0.40773">
        <ele>204.2</ele>
        <time>2023-05-23T13:14:55Z</time>
      </trkpt>
      <trkpt lat="48.96741" lon="-0.40782">
        <ele>204.2</ele>
        <time>2023-05-23T13:14:56Z</time>
      </trkpt>
      <trkpt lat="48.96742" lon="-0.40791">
        <ele>204.2</ele>
        <time>2023-05-23T13:14:57Z</time>
      </trkpt>
      <trkpt lat="48.96743" lon="-0.408">
        <ele>204.2</ele>
        <time>2023-05-23T13:14:58Z</time>
      </trkpt>
      <trkpt lat="48.96743" lon="-0.40809">
        <ele>204.2</ele>
        <time>2023-05-23T13:14:59Z</time>
      </trkpt>
      <trkpt lat="48.96744" lon="-0.40818">
        <ele>204.2</ele>
        <time>2023-05-23T13:15:00Z</time>
      </trkpt>
      <trkpt lat="48.96745" lon="-0.40828">
        <ele>204.2</ele>
        <time>2023-05-23T13:15:01Z</time>
      </trkpt>
      <trkpt lat="48.96746" lon="-0.40837">
        <ele>204</ele>
        <time>2023-05-23T13:15:02Z</time>
      </trkpt>
      <trkpt lat="48.96747" lon="-0.40847">
        <ele>204</ele>
        <time>2023-05-23T13:15:03Z</time>
      </trkpt>
      <trkpt lat="48.96747" lon="-0.40856">
        <ele>204</ele>
        <time>2023-05-23T13:15:04Z</time>
      </trkpt>
      <trkpt lat="48.96748" lon="-0.40866">
        <ele>204</ele>
        <time>2023-05-23T13:15:05Z</time>
      </trkpt>
      <trkpt lat="48.96749" lon="-0.40875">
        <ele>204</ele>
        <time>2023-05-23T13:15:06Z</time>
      </trkpt>
      <trkpt lat="48.9675" lon="-0.40885">
        <ele>204</ele>
        <time>2023-05-23T13:15:07Z</time>
      </trkpt>
      <trkpt lat="48.96751" lon="-0.40894">
        <ele>204</ele>
        <time>2023-05-23T13:15:08Z</time>
      </trkpt>
      <trkpt lat="48.96752" lon="-0.40904">
        <ele>204</ele>
        <time>2023-05-23T13:15:09Z</time>
      </trkpt>
      <trkpt lat="48.96752" lon="-0.40914">
        <ele>204</ele>
        <time>2023-05-23T13:15:10Z</time>
      </trkpt>
      <trkpt lat="48.96753" lon="-0.40924">
        <ele>204</ele>
        <time>2023-05-23T13:15:11Z</time>
      </trkpt>
      <trkpt lat="48.96754" lon="-0.40933">
        <ele>203.8</ele>
        <time>2023-05-23T13:15:12Z</time>
      </trkpt>
      <trkpt lat="48.96755" lon="-0.40943">
        <ele>203.8</ele>
        <time>2023-05-23T13:15:13Z</time>
      </trkpt>
      <trkpt lat="48.96756" lon="-0.40953">
        <ele>203.8</ele>
        <time>2023-05-23T13:15:14Z</time>
      </trkpt>
      <trkpt lat="48.96757" lon="-0.40963">
        <ele>203.8</ele>
        <time>2023-05-23T13:15:15Z</time>
      </trkpt>
      <trkpt lat="48.96758" lon="-0.40973">
        <ele>203.8</ele>
        <time>2023-05-23T13:15:16Z</time>
      </trkpt>
      <trkpt lat="48.96759" lon="-0.40983">
        <ele>203.8</ele>
        <time>2023-05-23T13:15:17Z</time>
      </trkpt>
      <trkpt lat="48.96759" lon="-0.40993">
        <ele>203.8</ele>
        <time>2023-05-23T13:15:18Z</time>
      </trkpt>
      <trkpt lat="48.9676" lon="-0.41002">
        <ele>203.8</ele>
        <time>2023-05-23T13:15:19Z</time>
      </trkpt>
      <trkpt lat="48.96761" lon="-0.41012">
        <ele>203.6</ele>
        <time>2023-05-23T13:15:20Z</time>
      </trkpt>
      <trkpt lat="48.96762" lon="-0.41022">
        <ele>203.6</ele>
        <time>2023-05-23T13:15:21Z</time>
      </trkpt>
      <trkpt lat="48.96763" lon="-0.41033">
        <ele>203.4</ele>
        <time>2023-05-23T13:15:22Z</time>
      </trkpt>
      <trkpt lat="48.96764" lon="-0.41043">
        <ele>203.2</ele>
        <time>2023-05-23T13:15:23Z</time>
      </trkpt>
      <trkpt lat="48.96765" lon="-0.41053">
        <ele>203.2</ele>
        <time>2023-05-23T13:15:24Z</time>
      </trkpt>
      <trkpt lat="48.96766" lon="-0.41063">
        <ele>202.8</ele>
        <time>2023-05-23T13:15:25Z</time>
      </trkpt>
      <trkpt lat="48.96766" lon="-0.41073">
        <ele>202.8</ele>
        <time>2023-05-23T13:15:26Z</time>
      </trkpt>
      <trkpt lat="48.96767" lon="-0.41083">
        <ele>202.6</ele>
        <time>2023-05-23T13:15:27Z</time>
      </trkpt>
      <trkpt lat="48.96768" lon="-0.41093">
        <ele>202.6</ele>
        <time>2023-05-23T13:15:28Z</time>
      </trkpt>
      <trkpt lat="48.96769" lon="-0.41103">
        <ele>202.6</ele>
        <time>2023-05-23T13:15:29Z</time>
      </trkpt>
      <trkpt lat="48.9677" lon="-0.41114">
        <ele>202.6</ele>
        <time>2023-05-23T13:15:30Z</time>
      </trkpt>
      <trkpt lat="48.96771" lon="-0.41124">
        <ele>202.6</ele>
        <time>2023-05-23T13:15:31Z</time>
      </trkpt>
      <trkpt lat="48.96772" lon="-0.41134">
        <ele>202.6</ele>
        <time>2023-05-23T13:15:32Z</time>
      </trkpt>
      <trkpt lat="48.96773" lon="-0.41144">
        <ele>202.6</ele>
        <time>2023-05-23T13:15:33Z</time>
      </trkpt>
      <trkpt lat="48.96774" lon="-0.41154">
        <ele>202.4</ele>
        <time>2023-05-23T13:15:34Z</time>
      </trkpt>
      <trkpt lat="48.96775" lon="-0.41165">
        <ele>202.4</ele>
        <time>2023-05-23T13:15:35Z</time>
      </trkpt>
      <trkpt lat="48.96775" lon="-0.41175">
        <ele>202.4</ele>
        <time>2023-05-23T13:15:36Z</time>
      </trkpt>
      <trkpt lat="48.96776" lon="-0.41186">
        <ele>202.2</ele>
        <time>2023-05-23T13:15:37Z</time>
      </trkpt>
      <trkpt lat="48.96777" lon="-0.41196">
        <ele>202.2</ele>
        <time>2023-05-23T13:15:38Z</time>
      </trkpt>
      <trkpt lat="48.96778" lon="-0.41206">
        <ele>202</ele>
        <time>2023-05-23T13:15:39Z</time>
      </trkpt>
      <trkpt lat="48.96779" lon="-0.41217">
        <ele>201.8</ele>
        <time>2023-05-23T13:15:40Z</time>
      </trkpt>
      <trkpt lat="48.9678" lon="-0.41227">
        <ele>201.8</ele>
        <time>2023-05-23T13:15:41Z</time>
      </trkpt>
      <trkpt lat="48.96781" lon="-0.41237">
        <ele>201.6</ele>
        <time>2023-05-23T13:15:42Z</time>
      </trkpt>
      <trkpt lat="48.96782" lon="-0.41248">
        <ele>201.6</ele>
        <time>2023-05-23T13:15:43Z</time>
      </trkpt>
      <trkpt lat="48.96783" lon="-0.41258">
        <ele>201.6</ele>
        <time>2023-05-23T13:15:44Z</time>
      </trkpt>
      <trkpt lat="48.96784" lon="-0.41268">
        <ele>201.8</ele>
        <time>2023-05-23T13:15:45Z</time>
      </trkpt>
      <trkpt lat="48.96785" lon="-0.41279">
        <ele>201.8</ele>
        <time>2023-05-23T13:15:46Z</time>
      </trkpt>
      <trkpt lat="48.96785" lon="-0.41289">
        <ele>202</ele>
        <time>2023-05-23T13:15:47Z</time>
      </trkpt>
      <trkpt lat="48.96786" lon="-0.41299">
        <ele>202.2</ele>
        <time>2023-05-23T13:15:48Z</time>
      </trkpt>
      <trkpt lat="48.96787" lon="-0.41309">
        <ele>202.4</ele>
        <time>2023-05-23T13:15:49Z</time>
      </trkpt>
      <trkpt lat="48.96788" lon="-0.41319">
        <ele>202.4</ele>
        <time>2023-05-23T13:15:50Z</time>
      </trkpt>
      <trkpt lat="48.96789" lon="-0.41329">
        <ele>202.6</ele>
        <time>2023-05-23T13:15:51Z</time>
      </trkpt>
      <trkpt lat="48.9679" lon="-0.41339">
        <ele>202.6</ele>
        <time>2023-05-23T13:15:52Z</time>
      </trkpt>
      <trkpt lat="48.96791" lon="-0.41349">
        <ele>202.6</ele>
        <time>2023-05-23T13:15:53Z</time>
      </trkpt>
      <trkpt lat="48.96792" lon="-0.41358">
        <ele>202.6</ele>
        <time>2023-05-23T13:15:54Z</time>
      </trkpt>
      <trkpt lat="48.96792" lon="-0.41368">
        <ele>202.6</ele>
        <time>2023-05-23T13:15:55Z</time>
      </trkpt>
      <trkpt lat="48.96793" lon="-0.41378">
        <ele>202.6</ele>
        <time>2023-05-23T13:15:56Z</time>
      </trkpt>
      <trkpt lat="48.96794" lon="-0.41388">
        <ele>202.6</ele>
        <time>2023-05-23T13:15:57Z</time>
      </trkpt>
      <trkpt lat="48.96795" lon="-0.41397">
        <ele>202.6</ele>
        <time>2023-05-23T13:15:58Z</time>
      </trkpt>
      <trkpt lat="48.96796" lon="-0.41407">
        <ele>202.6</ele>
        <time>2023-05-23T13:15:59Z</time>
      </trkpt>
      <trkpt lat="48.96797" lon="-0.41416">
        <ele>202.6</ele>
        <time>2023-05-23T13:16:00Z</time>
      </trkpt>
      <trkpt lat="48.96798" lon="-0.41426">
        <ele>202.6</ele>
        <time>2023-05-23T13:16:01Z</time>
      </trkpt>
      <trkpt lat="48.96798" lon="-0.41436">
        <ele>202.4</ele>
        <time>2023-05-23T13:16:02Z</time>
      </trkpt>
      <trkpt lat="48.96799" lon="-0.41445">
        <ele>202.4</ele>
        <time>2023-05-23T13:16:03Z</time>
      </trkpt>
      <trkpt lat="48.968" lon="-0.41455">
        <ele>202.4</ele>
        <time>2023-05-23T13:16:04Z</time>
      </trkpt>
      <trkpt lat="48.96801" lon="-0.41464">
        <ele>202.4</ele>
        <time>2023-05-23T13:16:05Z</time>
      </trkpt>
      <trkpt lat="48.96802" lon="-0.41474">
        <ele>202.2</ele>
        <time>2023-05-23T13:16:06Z</time>
      </trkpt>
      <trkpt lat="48.96802" lon="-0.41483">
        <ele>202.2</ele>
        <time>2023-05-23T13:16:07Z</time>
      </trkpt>
      <trkpt lat="48.96803" lon="-0.41493">
        <ele>202.2</ele>
        <time>2023-05-23T13:16:08Z</time>
      </trkpt>
      <trkpt lat="48.96804" lon="-0.41502">
        <ele>202</ele>
        <time>2023-05-23T13:16:09Z</time>
      </trkpt>
      <trkpt lat="48.96805" lon="-0.41512">
        <ele>201.8</ele>
        <time>2023-05-23T13:16:10Z</time>
      </trkpt>
      <trkpt lat="48.96806" lon="-0.41522">
        <ele>201.8</ele>
        <time>2023-05-23T13:16:11Z</time>
      </trkpt>
      <trkpt lat="48.96807" lon="-0.41532">
        <ele>201.6</ele>
        <time>2023-05-23T13:16:12Z</time>
      </trkpt>
      <trkpt lat="48.96808" lon="-0.41542">
        <ele>201.6</ele>
        <time>2023-05-23T13:16:13Z</time>
      </trkpt>
      <trkpt lat="48.96808" lon="-0.41551">
        <ele>201.6</ele>
        <time>2023-05-23T13:16:14Z</time>
      </trkpt>
      <trkpt lat="48.96809" lon="-0.41561">
        <ele>201.6</ele>
        <time>2023-05-23T13:16:15Z</time>
      </trkpt>
      <trkpt lat="48.9681" lon="-0.41571">
        <ele>201.4</ele>
        <time>2023-05-23T13:16:16Z</time>
      </trkpt>
      <trkpt lat="48.96811" lon="-0.41582">
        <ele>201.4</ele>
        <time>2023-05-23T13:16:17Z</time>
      </trkpt>
      <trkpt lat="48.96812" lon="-0.41592">
        <ele>201.2</ele>
        <time>2023-05-23T13:16:18Z</time>
      </trkpt>
      <trkpt lat="48.96813" lon="-0.41602">
        <ele>200.8</ele>
        <time>2023-05-23T13:16:19Z</time>
      </trkpt>
      <trkpt lat="48.96814" lon="-0.41613">
        <ele>200.6</ele>
        <time>2023-05-23T13:16:20Z</time>
      </trkpt>
      <trkpt lat="48.96815" lon="-0.41623">
        <ele>200.4</ele>
        <time>2023-05-23T13:16:21Z</time>
      </trkpt>
      <trkpt lat="48.96815" lon="-0.41634">
        <ele>200.2</ele>
        <time>2023-05-23T13:16:22Z</time>
      </trkpt>
      <trkpt lat="48.96817" lon="-0.41644">
        <ele>199.8</ele>
        <time>2023-05-23T13:16:23Z</time>
      </trkpt>
      <trkpt lat="48.96818" lon="-0.41655">
        <ele>199.6</ele>
        <time>2023-05-23T13:16:24Z</time>
      </trkpt>
      <trkpt lat="48.96819" lon="-0.41666">
        <ele>199.4</ele>
        <time>2023-05-23T13:16:25Z</time>
      </trkpt>
      <trkpt lat="48.9682" lon="-0.41677">
        <ele>199.2</ele>
        <time>2023-05-23T13:16:26Z</time>
      </trkpt>
      <trkpt lat="48.96821" lon="-0.41688">
        <ele>199</ele>
        <time>2023-05-23T13:16:27Z</time>
      </trkpt>
      <trkpt lat="48.96822" lon="-0.41699">
        <ele>198.8</ele>
        <time>2023-05-23T13:16:28Z</time>
      </trkpt>
      <trkpt lat="48.96824" lon="-0.4171">
        <ele>198.6</ele>
        <time>2023-05-23T13:16:29Z</time>
      </trkpt>
      <trkpt lat="48.96827" lon="-0.41721">
        <ele>198.6</ele>
        <time>2023-05-23T13:16:30Z</time>
      </trkpt>
      <trkpt lat="48.9683" lon="-0.41731">
        <ele>198.4</ele>
        <time>2023-05-23T13:16:31Z</time>
      </trkpt>
      <trkpt lat="48.96833" lon="-0.41742">
        <ele>198.2</ele>
        <time>2023-05-23T13:16:32Z</time>
      </trkpt>
      <trkpt lat="48.96837" lon="-0.41752">
        <ele>197.8</ele>
        <time>2023-05-23T13:16:33Z</time>
      </trkpt>
      <trkpt lat="48.96841" lon="-0.41763">
        <ele>197.4</ele>
        <time>2023-05-23T13:16:34Z</time>
      </trkpt>
      <trkpt lat="48.96845" lon="-0.41773">
        <ele>196.8</ele>
        <time>2023-05-23T13:16:35Z</time>
      </trkpt>
      <trkpt lat="48.9685" lon="-0.41784">
        <ele>196.4</ele>
        <time>2023-05-23T13:16:36Z</time>
      </trkpt>
      <trkpt lat="48.96855" lon="-0.41794">
        <ele>195.8</ele>
        <time>2023-05-23T13:16:37Z</time>
      </trkpt>
      <trkpt lat="48.9686" lon="-0.41805">
        <ele>195.4</ele>
        <time>2023-05-23T13:16:38Z</time>
      </trkpt>
      <trkpt lat="48.96865" lon="-0.41817">
        <ele>194.8</ele>
        <time>2023-05-23T13:16:39Z</time>
      </trkpt>
      <trkpt lat="48.96869" lon="-0.41828">
        <ele>194.4</ele>
        <time>2023-05-23T13:16:40Z</time>
      </trkpt>
      <trkpt lat="48.96873" lon="-0.4184">
        <ele>193.6</ele>
        <time>2023-05-23T13:16:41Z</time>
      </trkpt>
      <trkpt lat="48.96877" lon="-0.41853">
        <ele>193.2</ele>
        <time>2023-05-23T13:16:42Z</time>
      </trkpt>
      <trkpt lat="48.96879" lon="-0.41867">
        <ele>192.6</ele>
        <time>2023-05-23T13:16:43Z</time>
      </trkpt>
      <trkpt lat="48.96881" lon="-0.41881">
        <ele>191.8</ele>
        <time>2023-05-23T13:16:44Z</time>
      </trkpt>
      <trkpt lat="48.96883" lon="-0.41896">
        <ele>191.4</ele>
        <time>2023-05-23T13:16:45Z</time>
      </trkpt>
      <trkpt lat="48.96884" lon="-0.4191">
        <ele>190.6</ele>
        <time>2023-05-23T13:16:46Z</time>
      </trkpt>
      <trkpt lat="48.96886" lon="-0.41925">
        <ele>190.2</ele>
        <time>2023-05-23T13:16:47Z</time>
      </trkpt>
      <trkpt lat="48.96887" lon="-0.4194">
        <ele>189.8</ele>
        <time>2023-05-23T13:16:48Z</time>
      </trkpt>
      <trkpt lat="48.96888" lon="-0.41955">
        <ele>189.4</ele>
        <time>2023-05-23T13:16:49Z</time>
      </trkpt>
      <trkpt lat="48.96889" lon="-0.4197">
        <ele>189.2</ele>
        <time>2023-05-23T13:16:50Z</time>
      </trkpt>
      <trkpt lat="48.9689" lon="-0.41985">
        <ele>188.6</ele>
        <time>2023-05-23T13:16:51Z</time>
      </trkpt>
      <trkpt lat="48.96892" lon="-0.42">
        <ele>188.4</ele>
        <time>2023-05-23T13:16:52Z</time>
      </trkpt>
      <trkpt lat="48.96894" lon="-0.42015">
        <ele>187.8</ele>
        <time>2023-05-23T13:16:53Z</time>
      </trkpt>
      <trkpt lat="48.96897" lon="-0.42031">
        <ele>187.6</ele>
        <time>2023-05-23T13:16:54Z</time>
      </trkpt>
      <trkpt lat="48.969" lon="-0.42047">
        <ele>187.2</ele>
        <time>2023-05-23T13:16:55Z</time>
      </trkpt>
      <trkpt lat="48.96903" lon="-0.42062">
        <ele>186.6</ele>
        <time>2023-05-23T13:16:56Z</time>
      </trkpt>
      <trkpt lat="48.96907" lon="-0.42078">
        <ele>186.2</ele>
        <time>2023-05-23T13:16:57Z</time>
      </trkpt>
      <trkpt lat="48.96911" lon="-0.42094">
        <ele>185.6</ele>
        <time>2023-05-23T13:16:58Z</time>
      </trkpt>
      <trkpt lat="48.96915" lon="-0.42109">
        <ele>184.8</ele>
        <time>2023-05-23T13:16:59Z</time>
      </trkpt>
      <trkpt lat="48.9692" lon="-0.42125">
        <ele>183.8</ele>
        <time>2023-05-23T13:17:00Z</time>
      </trkpt>
      <trkpt lat="48.96926" lon="-0.4214">
        <ele>183</ele>
        <time>2023-05-23T13:17:01Z</time>
      </trkpt>
      <trkpt lat="48.96931" lon="-0.42155">
        <ele>182</ele>
        <time>2023-05-23T13:17:02Z</time>
      </trkpt>
      <trkpt lat="48.96936" lon="-0.42171">
        <ele>181.2</ele>
        <time>2023-05-23T13:17:03Z</time>
      </trkpt>
      <trkpt lat="48.96942" lon="-0.42187">
        <ele>180.2</ele>
        <time>2023-05-23T13:17:04Z</time>
      </trkpt>
      <trkpt lat="48.96947" lon="-0.42202">
        <ele>179.4</ele>
        <time>2023-05-23T13:17:05Z</time>
      </trkpt>
      <trkpt lat="48.96953" lon="-0.42218">
        <ele>178.6</ele>
        <time>2023-05-23T13:17:06Z</time>
      </trkpt>
      <trkpt lat="48.96959" lon="-0.42234">
        <ele>177.6</ele>
        <time>2023-05-23T13:17:07Z</time>
      </trkpt>
      <trkpt lat="48.96964" lon="-0.4225">
        <ele>176.8</ele>
        <time>2023-05-23T13:17:08Z</time>
      </trkpt>
      <trkpt lat="48.96969" lon="-0.42266">
        <ele>176.2</ele>
        <time>2023-05-23T13:17:09Z</time>
      </trkpt>
      <trkpt lat="48.96975" lon="-0.42282">
        <ele>175.6</ele>
        <time>2023-05-23T13:17:10Z</time>
      </trkpt>
      <trkpt lat="48.9698" lon="-0.42298">
        <ele>174.8</ele>
        <time>2023-05-23T13:17:11Z</time>
      </trkpt>
      <trkpt lat="48.96985" lon="-0.42314">
        <ele>174.2</ele>
        <time>2023-05-23T13:17:12Z</time>
      </trkpt>
      <trkpt lat="48.9699" lon="-0.4233">
        <ele>173.4</ele>
        <time>2023-05-23T13:17:13Z</time>
      </trkpt>
      <trkpt lat="48.96995" lon="-0.42346">
        <ele>172.8</ele>
        <time>2023-05-23T13:17:14Z</time>
      </trkpt>
      <trkpt lat="48.97" lon="-0.42362">
        <ele>172.4</ele>
        <time>2023-05-23T13:17:15Z</time>
      </trkpt>
      <trkpt lat="48.97005" lon="-0.42378">
        <ele>171.8</ele>
        <time>2023-05-23T13:17:16Z</time>
      </trkpt>
      <trkpt lat="48.97009" lon="-0.42394">
        <ele>171.4</ele>
        <time>2023-05-23T13:17:17Z</time>
      </trkpt>
      <trkpt lat="48.97014" lon="-0.4241">
        <ele>171</ele>
        <time>2023-05-23T13:17:18Z</time>
      </trkpt>
      <trkpt lat="48.97018" lon="-0.42426">
        <ele>170.6</ele>
        <time>2023-05-23T13:17:19Z</time>
      </trkpt>
      <trkpt lat="48.97022" lon="-0.42442">
        <ele>169.8</ele>
        <time>2023-05-23T13:17:20Z</time>
      </trkpt>
      <trkpt lat="48.97026" lon="-0.42458">
        <ele>169.2</ele>
        <time>2023-05-23T13:17:21Z</time>
      </trkpt>
      <trkpt lat="48.9703" lon="-0.42474">
        <ele>168.6</ele>
        <time>2023-05-23T13:17:22Z</time>
      </trkpt>
      <trkpt lat="48.97034" lon="-0.4249">
        <ele>168</ele>
        <time>2023-05-23T13:17:23Z</time>
      </trkpt>
      <trkpt lat="48.97038" lon="-0.42506">
        <ele>167.4</ele>
        <time>2023-05-23T13:17:24Z</time>
      </trkpt>
      <trkpt lat="48.97041" lon="-0.42523">
        <ele>167.2</ele>
        <time>2023-05-23T13:17:25Z</time>
      </trkpt>
      <trkpt lat="48.97045" lon="-0.42539">
        <ele>166.6</ele>
        <time>2023-05-23T13:17:26Z</time>
      </trkpt>
      <trkpt lat="48.97048" lon="-0.42556">
        <ele>166.4</ele>
        <time>2023-05-23T13:17:27Z</time>
      </trkpt>
      <trkpt lat="48.97051" lon="-0.42572">
        <ele>166</ele>
        <time>2023-05-23T13:17:28Z</time>
      </trkpt>
      <trkpt lat="48.97055" lon="-0.42589">
        <ele>165.4</ele>
        <time>2023-05-23T13:17:29Z</time>
      </trkpt>
      <trkpt lat="48.97058" lon="-0.42606">
        <ele>164.4</ele>
        <time>2023-05-23T13:17:30Z</time>
      </trkpt>
      <trkpt lat="48.97061" lon="-0.42623">
        <ele>163.4</ele>
        <time>2023-05-23T13:17:31Z</time>
      </trkpt>
      <trkpt lat="48.97064" lon="-0.4264">
        <ele>162.4</ele>
        <time>2023-05-23T13:17:32Z</time>
      </trkpt>
      <trkpt lat="48.97067" lon="-0.42656">
        <ele>161.2</ele>
        <time>2023-05-23T13:17:33Z</time>
      </trkpt>
      <trkpt lat="48.9707" lon="-0.42673">
        <ele>160.4</ele>
        <time>2023-05-23T13:17:34Z</time>
      </trkpt>
      <trkpt lat="48.97072" lon="-0.4269">
        <ele>159.6</ele>
        <time>2023-05-23T13:17:35Z</time>
      </trkpt>
      <trkpt lat="48.97075" lon="-0.42706">
        <ele>158.8</ele>
        <time>2023-05-23T13:17:36Z</time>
      </trkpt>
      <trkpt lat="48.97078" lon="-0.42723">
        <ele>158.2</ele>
        <time>2023-05-23T13:17:37Z</time>
      </trkpt>
      <trkpt lat="48.97081" lon="-0.42739">
        <ele>157.6</ele>
        <time>2023-05-23T13:17:38Z</time>
      </trkpt>
      <trkpt lat="48.97085" lon="-0.42755">
        <ele>156.8</ele>
        <time>2023-05-23T13:17:39Z</time>
      </trkpt>
      <trkpt lat="48.97088" lon="-0.42772">
        <ele>156.4</ele>
        <time>2023-05-23T13:17:40Z</time>
      </trkpt>
      <trkpt lat="48.97091" lon="-0.42788">
        <ele>155.8</ele>
        <time>2023-05-23T13:17:41Z</time>
      </trkpt>
      <trkpt lat="48.97094" lon="-0.42804">
        <ele>155.2</ele>
        <time>2023-05-23T13:17:42Z</time>
      </trkpt>
      <trkpt lat="48.97096" lon="-0.42821">
        <ele>154.6</ele>
        <time>2023-05-23T13:17:43Z</time>
      </trkpt>
      <trkpt lat="48.97099" lon="-0.42837">
        <ele>154.2</ele>
        <time>2023-05-23T13:17:44Z</time>
      </trkpt>
      <trkpt lat="48.97101" lon="-0.42854">
        <ele>153.6</ele>
        <time>2023-05-23T13:17:45Z</time>
      </trkpt>
      <trkpt lat="48.97104" lon="-0.4287">
        <ele>153</ele>
        <time>2023-05-23T13:17:46Z</time>
      </trkpt>
      <trkpt lat="48.97106" lon="-0.42887">
        <ele>152.4</ele>
        <time>2023-05-23T13:17:47Z</time>
      </trkpt>
      <trkpt lat="48.97108" lon="-0.42904">
        <ele>151.8</ele>
        <time>2023-05-23T13:17:48Z</time>
      </trkpt>
      <trkpt lat="48.9711" lon="-0.42922">
        <ele>151.2</ele>
        <time>2023-05-23T13:17:49Z</time>
      </trkpt>
      <trkpt lat="48.97113" lon="-0.42939">
        <ele>150.6</ele>
        <time>2023-05-23T13:17:50Z</time>
      </trkpt>
      <trkpt lat="48.97114" lon="-0.42957">
        <ele>150</ele>
        <time>2023-05-23T13:17:51Z</time>
      </trkpt>
      <trkpt lat="48.97116" lon="-0.42975">
        <ele>149.4</ele>
        <time>2023-05-23T13:17:52Z</time>
      </trkpt>
      <trkpt lat="48.97118" lon="-0.42993">
        <ele>148.6</ele>
        <time>2023-05-23T13:17:53Z</time>
      </trkpt>
      <trkpt lat="48.97119" lon="-0.43011">
        <ele>148.2</ele>
        <time>2023-05-23T13:17:54Z</time>
      </trkpt>
      <trkpt lat="48.9712" lon="-0.43029">
        <ele>147.4</ele>
        <time>2023-05-23T13:17:55Z</time>
      </trkpt>
      <trkpt lat="48.9712" lon="-0.43047">
        <ele>146.6</ele>
        <time>2023-05-23T13:17:56Z</time>
      </trkpt>
      <trkpt lat="48.9712" lon="-0.43065">
        <ele>146</ele>
        <time>2023-05-23T13:17:57Z</time>
      </trkpt>
      <trkpt lat="48.9712" lon="-0.43083">
        <ele>145.4</ele>
        <time>2023-05-23T13:17:58Z</time>
      </trkpt>
      <trkpt lat="48.97119" lon="-0.43101">
        <ele>145</ele>
        <time>2023-05-23T13:17:59Z</time>
      </trkpt>
      <trkpt lat="48.97119" lon="-0.43118">
        <ele>144.6</ele>
        <time>2023-05-23T13:18:00Z</time>
      </trkpt>
      <trkpt lat="48.97119" lon="-0.43136">
        <ele>144.2</ele>
        <time>2023-05-23T13:18:01Z</time>
      </trkpt>
      <trkpt lat="48.97118" lon="-0.43154">
        <ele>143.8</ele>
        <time>2023-05-23T13:18:02Z</time>
      </trkpt>
      <trkpt lat="48.97118" lon="-0.43171">
        <ele>143.4</ele>
        <time>2023-05-23T13:18:03Z</time>
      </trkpt>
      <trkpt lat="48.97117" lon="-0.43189">
        <ele>143</ele>
        <time>2023-05-23T13:18:04Z</time>
      </trkpt>
      <trkpt lat="48.97117" lon="-0.43206">
        <ele>142.6</ele>
        <time>2023-05-23T13:18:05Z</time>
      </trkpt>
      <trkpt lat="48.97117" lon="-0.43223">
        <ele>142.4</ele>
        <time>2023-05-23T13:18:06Z</time>
      </trkpt>
      <trkpt lat="48.97116" lon="-0.4324">
        <ele>141.8</ele>
        <time>2023-05-23T13:18:07Z</time>
      </trkpt>
      <trkpt lat="48.97116" lon="-0.43257">
        <ele>141.4</ele>
        <time>2023-05-23T13:18:08Z</time>
      </trkpt>
      <trkpt lat="48.97116" lon="-0.43274">
        <ele>140.6</ele>
        <time>2023-05-23T13:18:09Z</time>
      </trkpt>
      <trkpt lat="48.97115" lon="-0.43291">
        <ele>140</ele>
        <time>2023-05-23T13:18:10Z</time>
      </trkpt>
      <trkpt lat="48.97115" lon="-0.43308">
        <ele>139.4</ele>
        <time>2023-05-23T13:18:11Z</time>
      </trkpt>
      <trkpt lat="48.97115" lon="-0.43325">
        <ele>138.6</ele>
        <time>2023-05-23T13:18:12Z</time>
      </trkpt>
      <trkpt lat="48.97114" lon="-0.43343">
        <ele>138.2</ele>
        <time>2023-05-23T13:18:13Z</time>
      </trkpt>
      <trkpt lat="48.97114" lon="-0.4336">
        <ele>137.6</ele>
        <time>2023-05-23T13:18:14Z</time>
      </trkpt>
      <trkpt lat="48.97113" lon="-0.43377">
        <ele>136.8</ele>
        <time>2023-05-23T13:18:15Z</time>
      </trkpt>
      <trkpt lat="48.97113" lon="-0.43394">
        <ele>136.4</ele>
        <time>2023-05-23T13:18:16Z</time>
      </trkpt>
      <trkpt lat="48.97112" lon="-0.43411">
        <ele>135.8</ele>
        <time>2023-05-23T13:18:17Z</time>
      </trkpt>
      <trkpt lat="48.9711" lon="-0.43428">
        <ele>134.8</ele>
        <time>2023-05-23T13:18:18Z</time>
      </trkpt>
      <trkpt lat="48.97108" lon="-0.43443">
        <ele>133.8</ele>
        <time>2023-05-23T13:18:19Z</time>
      </trkpt>
      <trkpt lat="48.97105" lon="-0.43459">
        <ele>133</ele>
        <time>2023-05-23T13:18:20Z</time>
      </trkpt>
      <trkpt lat="48.97101" lon="-0.43473">
        <ele>132.2</ele>
        <time>2023-05-23T13:18:21Z</time>
      </trkpt>
      <trkpt lat="48.97096" lon="-0.43486">
        <ele>131.6</ele>
        <time>2023-05-23T13:18:22Z</time>
      </trkpt>
      <trkpt lat="48.9709" lon="-0.43496">
        <ele>131</ele>
        <time>2023-05-23T13:18:23Z</time>
      </trkpt>
      <trkpt lat="48.97082" lon="-0.43504">
        <ele>130.2</ele>
        <time>2023-05-23T13:18:24Z</time>
      </trkpt>
      <trkpt lat="48.97074" lon="-0.4351">
        <ele>128.8</ele>
        <time>2023-05-23T13:18:25Z</time>
      </trkpt>
      <trkpt lat="48.97066" lon="-0.43513">
        <ele>128</ele>
        <time>2023-05-23T13:18:26Z</time>
      </trkpt>
      <trkpt lat="48.97057" lon="-0.43514">
        <ele>127.4</ele>
        <time>2023-05-23T13:18:27Z</time>
      </trkpt>
      <trkpt lat="48.97048" lon="-0.43514">
        <ele>127</ele>
        <time>2023-05-23T13:18:28Z</time>
      </trkpt>
      <trkpt lat="48.9704" lon="-0.43512">
        <ele>127</ele>
        <time>2023-05-23T13:18:29Z</time>
      </trkpt>
      <trkpt lat="48.97032" lon="-0.43508">
        <ele>127.2</ele>
        <time>2023-05-23T13:18:30Z</time>
      </trkpt>
      <trkpt lat="48.97024" lon="-0.43504">
        <ele>127.6</ele>
        <time>2023-05-23T13:18:31Z</time>
      </trkpt>
      <trkpt lat="48.97015" lon="-0.43499">
        <ele>128</ele>
        <time>2023-05-23T13:18:32Z</time>
      </trkpt>
      <trkpt lat="48.97007" lon="-0.43493">
        <ele>128.2</ele>
        <time>2023-05-23T13:18:33Z</time>
      </trkpt>
      <trkpt lat="48.96999" lon="-0.43487">
        <ele>128.4</ele>
        <time>2023-05-23T13:18:34Z</time>
      </trkpt>
      <trkpt lat="48.9699" lon="-0.43481">
        <ele>128.2</ele>
        <time>2023-05-23T13:18:35Z</time>
      </trkpt>
      <trkpt lat="48.96981" lon="-0.43476">
        <ele>128</ele>
        <time>2023-05-23T13:18:36Z</time>
      </trkpt>
      <trkpt lat="48.96972" lon="-0.4347">
        <ele>127.8</ele>
        <time>2023-05-23T13:18:37Z</time>
      </trkpt>
      <trkpt lat="48.96963" lon="-0.43465">
        <ele>127.6</ele>
        <time>2023-05-23T13:18:38Z</time>
      </trkpt>
      <trkpt lat="48.96954" lon="-0.4346">
        <ele>127.4</ele>
        <time>2023-05-23T13:18:39Z</time>
      </trkpt>
      <trkpt lat="48.96944" lon="-0.43456">
        <ele>127</ele>
        <time>2023-05-23T13:18:40Z</time>
      </trkpt>
      <trkpt lat="48.96935" lon="-0.43453">
        <ele>126.4</ele>
        <time>2023-05-23T13:18:41Z</time>
      </trkpt>
      <trkpt lat="48.96924" lon="-0.43451">
        <ele>125.8</ele>
        <time>2023-05-23T13:18:42Z</time>
      </trkpt>
      <trkpt lat="48.96914" lon="-0.4345">
        <ele>125</ele>
        <time>2023-05-23T13:18:43Z</time>
      </trkpt>
      <trkpt lat="48.96903" lon="-0.43449">
        <ele>124.2</ele>
        <time>2023-05-23T13:18:44Z</time>
      </trkpt>
      <trkpt lat="48.96893" lon="-0.43449">
        <ele>123.4</ele>
        <time>2023-05-23T13:18:45Z</time>
      </trkpt>
      <trkpt lat="48.96882" lon="-0.43448">
        <ele>122.6</ele>
        <time>2023-05-23T13:18:46Z</time>
      </trkpt>
      <trkpt lat="48.96872" lon="-0.43447">
        <ele>121.8</ele>
        <time>2023-05-23T13:18:47Z</time>
      </trkpt>
      <trkpt lat="48.96862" lon="-0.43444">
        <ele>121.2</ele>
        <time>2023-05-23T13:18:48Z</time>
      </trkpt>
      <trkpt lat="48.96853" lon="-0.43441">
        <ele>120.8</ele>
        <time>2023-05-23T13:18:49Z</time>
      </trkpt>
      <trkpt lat="48.96844" lon="-0.43436">
        <ele>120.4</ele>
        <time>2023-05-23T13:18:50Z</time>
      </trkpt>
      <trkpt lat="48.96836" lon="-0.4343">
        <ele>120</ele>
        <time>2023-05-23T13:18:51Z</time>
      </trkpt>
      <trkpt lat="48.96827" lon="-0.43423">
        <ele>120</ele>
        <time>2023-05-23T13:18:52Z</time>
      </trkpt>
      <trkpt lat="48.96819" lon="-0.43416">
        <ele>120.2</ele>
        <time>2023-05-23T13:18:53Z</time>
      </trkpt>
      <trkpt lat="48.96811" lon="-0.43408">
        <ele>120.6</ele>
        <time>2023-05-23T13:18:54Z</time>
      </trkpt>
      <trkpt lat="48.96803" lon="-0.434">
        <ele>120.6</ele>
        <time>2023-05-23T13:18:55Z</time>
      </trkpt>
      <trkpt lat="48.96795" lon="-0.43393">
        <ele>120.8</ele>
        <time>2023-05-23T13:18:56Z</time>
      </trkpt>
      <trkpt lat="48.96787" lon="-0.43385">
        <ele>120.8</ele>
        <time>2023-05-23T13:18:57Z</time>
      </trkpt>
      <trkpt lat="48.96778" lon="-0.43377">
        <ele>120.6</ele>
        <time>2023-05-23T13:18:58Z</time>
      </trkpt>
      <trkpt lat="48.9677" lon="-0.4337">
        <ele>120.6</ele>
        <time>2023-05-23T13:18:59Z</time>
      </trkpt>
      <trkpt lat="48.96762" lon="-0.43361">
        <ele>120.4</ele>
        <time>2023-05-23T13:19:00Z</time>
      </trkpt>
      <trkpt lat="48.96753" lon="-0.43353">
        <ele>120</ele>
        <time>2023-05-23T13:19:01Z</time>
      </trkpt>
      <trkpt lat="48.96744" lon="-0.43345">
        <ele>120.4</ele>
        <time>2023-05-23T13:19:02Z</time>
      </trkpt>
      <trkpt lat="48.96736" lon="-0.43337">
        <ele>120.8</ele>
        <time>2023-05-23T13:19:03Z</time>
      </trkpt>
      <trkpt lat="48.96727" lon="-0.43331">
        <ele>121.4</ele>
        <time>2023-05-23T13:19:04Z</time>
      </trkpt>
      <trkpt lat="48.96718" lon="-0.43328">
        <ele>121.6</ele>
        <time>2023-05-23T13:19:05Z</time>
      </trkpt>
      <trkpt lat="48.96709" lon="-0.43327">
        <ele>121.8</ele>
        <time>2023-05-23T13:19:06Z</time>
      </trkpt>
      <trkpt lat="48.96701" lon="-0.4333">
        <ele>121.4</ele>
        <time>2023-05-23T13:19:07Z</time>
      </trkpt>
      <trkpt lat="48.96696" lon="-0.43337">
        <ele>121</ele>
        <time>2023-05-23T13:19:08Z</time>
      </trkpt>
      <trkpt lat="48.96693" lon="-0.43347">
        <ele>121.4</ele>
        <time>2023-05-23T13:19:09Z</time>
      </trkpt>
      <trkpt lat="48.96692" lon="-0.43357">
        <ele>121.6</ele>
        <time>2023-05-23T13:19:10Z</time>
      </trkpt>
      <trkpt lat="48.96694" lon="-0.43365">
        <ele>121.6</ele>
        <time>2023-05-23T13:19:11Z</time>
      </trkpt>
      <trkpt lat="48.96697" lon="-0.43373">
        <ele>121.6</ele>
        <time>2023-05-23T13:19:12Z</time>
      </trkpt>
      <trkpt lat="48.96701" lon="-0.43379">
        <ele>121.4</ele>
        <time>2023-05-23T13:19:13Z</time>
      </trkpt>
      <trkpt lat="48.96706" lon="-0.43385">
        <ele>121.2</ele>
        <time>2023-05-23T13:19:14Z</time>
      </trkpt>
      <trkpt lat="48.9671" lon="-0.4339">
        <ele>120.8</ele>
        <time>2023-05-23T13:19:15Z</time>
      </trkpt>
      <trkpt lat="48.96715" lon="-0.43396">
        <ele>120.4</ele>
        <time>2023-05-23T13:19:16Z</time>
      </trkpt>
      <trkpt lat="48.96719" lon="-0.43402">
        <ele>120</ele>
        <time>2023-05-23T13:19:17Z</time>
      </trkpt>
      <trkpt lat="48.96724" lon="-0.43408">
        <ele>119.4</ele>
        <time>2023-05-23T13:19:18Z</time>
      </trkpt>
      <trkpt lat="48.96728" lon="-0.43414">
        <ele>118.6</ele>
        <time>2023-05-23T13:19:19Z</time>
      </trkpt>
      <trkpt lat="48.96732" lon="-0.43421">
        <ele>118.4</ele>
        <time>2023-05-23T13:19:20Z</time>
      </trkpt>
      <trkpt lat="48.96736" lon="-0.43427">
        <ele>118</ele>
        <time>2023-05-23T13:19:21Z</time>
      </trkpt>
      <trkpt lat="48.9674" lon="-0.43434">
        <ele>117.6</ele>
        <time>2023-05-23T13:19:22Z</time>
      </trkpt>
      <trkpt lat="48.96745" lon="-0.4344">
        <ele>117.6</ele>
        <time>2023-05-23T13:19:23Z</time>
      </trkpt>
      <trkpt lat="48.96749" lon="-0.43447">
        <ele>117.4</ele>
        <time>2023-05-23T13:19:24Z</time>
      </trkpt>
      <trkpt lat="48.96753" lon="-0.43454">
        <ele>117.4</ele>
        <time>2023-05-23T13:19:25Z</time>
      </trkpt>
      <trkpt lat="48.96757" lon="-0.4346">
        <ele>117.6</ele>
        <time>2023-05-23T13:19:26Z</time>
      </trkpt>
      <trkpt lat="48.96761" lon="-0.43467">
        <ele>117.6</ele>
        <time>2023-05-23T13:19:27Z</time>
      </trkpt>
      <trkpt lat="48.96765" lon="-0.43474">
        <ele>117.6</ele>
        <time>2023-05-23T13:19:28Z</time>
      </trkpt>
      <trkpt lat="48.96769" lon="-0.43481">
        <ele>117.6</ele>
        <time>2023-05-23T13:19:29Z</time>
      </trkpt>
      <trkpt lat="48.96773" lon="-0.43487">
        <ele>117.6</ele>
        <time>2023-05-23T13:19:30Z</time>
      </trkpt>
      <trkpt lat="48.96777" lon="-0.43494">
        <ele>117.4</ele>
        <time>2023-05-23T13:19:31Z</time>
      </trkpt>
      <trkpt lat="48.96781" lon="-0.43501">
        <ele>117.2</ele>
        <time>2023-05-23T13:19:32Z</time>
      </trkpt>
      <trkpt lat="48.96785" lon="-0.43507">
        <ele>117.2</ele>
        <time>2023-05-23T13:19:33Z</time>
      </trkpt>
      <trkpt lat="48.9679" lon="-0.43514">
        <ele>117</ele>
        <time>2023-05-23T13:19:34Z</time>
      </trkpt>
      <trkpt lat="48.96795" lon="-0.43521">
        <ele>117</ele>
        <time>2023-05-23T13:19:35Z</time>
      </trkpt>
      <trkpt lat="48.96799" lon="-0.43527">
        <ele>117</ele>
        <time>2023-05-23T13:19:36Z</time>
      </trkpt>
      <trkpt lat="48.96804" lon="-0.43533">
        <ele>116.6</ele>
        <time>2023-05-23T13:19:37Z</time>
      </trkpt>
      <trkpt lat="48.96809" lon="-0.4354">
        <ele>116.6</ele>
        <time>2023-05-23T13:19:38Z</time>
      </trkpt>
      <trkpt lat="48.96814" lon="-0.43546">
        <ele>116.2</ele>
        <time>2023-05-23T13:19:39Z</time>
      </trkpt>
      <trkpt lat="48.96819" lon="-0.43552">
        <ele>116</ele>
        <time>2023-05-23T13:19:40Z</time>
      </trkpt>
      <trkpt lat="48.96825" lon="-0.43559">
        <ele>115.6</ele>
        <time>2023-05-23T13:19:41Z</time>
      </trkpt>
      <trkpt lat="48.9683" lon="-0.43565">
        <ele>115</ele>
        <time>2023-05-23T13:19:42Z</time>
      </trkpt>
      <trkpt lat="48.96836" lon="-0.43571">
        <ele>114.8</ele>
        <time>2023-05-23T13:19:43Z</time>
      </trkpt>
      <trkpt lat="48.96842" lon="-0.43577">
        <ele>114.8</ele>
        <time>2023-05-23T13:19:44Z</time>
      </trkpt>
      <trkpt lat="48.96848" lon="-0.43583">
        <ele>114.6</ele>
        <time>2023-05-23T13:19:45Z</time>
      </trkpt>
      <trkpt lat="48.96854" lon="-0.43589">
        <ele>114.6</ele>
        <time>2023-05-23T13:19:46Z</time>
      </trkpt>
      <trkpt lat="48.96861" lon="-0.43594">
        <ele>114.6</ele>
        <time>2023-05-23T13:19:47Z</time>
      </trkpt>
      <trkpt lat="48.96868" lon="-0.436">
        <ele>114.6</ele>
        <time>2023-05-23T13:19:48Z</time>
      </trkpt>
      <trkpt lat="48.96875" lon="-0.43605">
        <ele>114.6</ele>
        <time>2023-05-23T13:19:49Z</time>
      </trkpt>
      <trkpt lat="48.96882" lon="-0.4361">
        <ele>114.6</ele>
        <time>2023-05-23T13:19:50Z</time>
      </trkpt>
      <trkpt lat="48.9689" lon="-0.43615">
        <ele>114.8</ele>
        <time>2023-05-23T13:19:51Z</time>
      </trkpt>
      <trkpt lat="48.96898" lon="-0.43619">
        <ele>115</ele>
        <time>2023-05-23T13:19:52Z</time>
      </trkpt>
      <trkpt lat="48.96907" lon="-0.43623">
        <ele>115</ele>
        <time>2023-05-23T13:19:53Z</time>
      </trkpt>
      <trkpt lat="48.96915" lon="-0.43627">
        <ele>115</ele>
        <time>2023-05-23T13:19:54Z</time>
      </trkpt>
      <trkpt lat="48.96922" lon="-0.4363">
        <ele>115.2</ele>
        <time>2023-05-23T13:19:55Z</time>
      </trkpt>
      <trkpt lat="48.96929" lon="-0.43633">
        <ele>115.4</ele>
        <time>2023-05-23T13:19:56Z</time>
      </trkpt>
      <trkpt lat="48.96935" lon="-0.43635">
        <ele>115.4</ele>
        <time>2023-05-23T13:19:57Z</time>
      </trkpt>
      <trkpt lat="48.96939" lon="-0.43637">
        <ele>115.6</ele>
        <time>2023-05-23T13:19:58Z</time>
      </trkpt>
      <trkpt lat="48.96943" lon="-0.43638">
        <ele>115.6</ele>
        <time>2023-05-23T13:19:59Z</time>
      </trkpt>
      <trkpt lat="48.96948" lon="-0.4364">
        <ele>115.6</ele>
        <time>2023-05-23T13:20:00Z</time>
      </trkpt>
      <trkpt lat="48.96952" lon="-0.43642">
        <ele>115.6</ele>
        <time>2023-05-23T13:20:01Z</time>
      </trkpt>
      <trkpt lat="48.96957" lon="-0.43645">
        <ele>115.6</ele>
        <time>2023-05-23T13:20:02Z</time>
      </trkpt>
      <trkpt lat="48.96962" lon="-0.43647">
        <ele>115.8</ele>
        <time>2023-05-23T13:20:03Z</time>
      </trkpt>
      <trkpt lat="48.96966" lon="-0.4365">
        <ele>115.8</ele>
        <time>2023-05-23T13:20:04Z</time>
      </trkpt>
      <trkpt lat="48.96971" lon="-0.43653">
        <ele>116</ele>
        <time>2023-05-23T13:20:05Z</time>
      </trkpt>
      <trkpt lat="48.96976" lon="-0.43657">
        <ele>116</ele>
        <time>2023-05-23T13:20:06Z</time>
      </trkpt>
      <trkpt lat="48.9698" lon="-0.4366">
        <ele>116</ele>
        <time>2023-05-23T13:20:07Z</time>
      </trkpt>
      <trkpt lat="48.96985" lon="-0.43663">
        <ele>116</ele>
        <time>2023-05-23T13:20:08Z</time>
      </trkpt>
      <trkpt lat="48.96988" lon="-0.43666">
        <ele>116</ele>
        <time>2023-05-23T13:20:09Z</time>
      </trkpt>
      <trkpt lat="48.96991" lon="-0.43668">
        <ele>116.2</ele>
        <time>2023-05-23T13:20:10Z</time>
      </trkpt>
      <trkpt lat="48.96993" lon="-0.4367">
        <ele>116.4</ele>
        <time>2023-05-23T13:20:11Z</time>
      </trkpt>
      <trkpt lat="48.96996" lon="-0.43672">
        <ele>116.6</ele>
        <time>2023-05-23T13:20:12Z</time>
      </trkpt>
      <trkpt lat="48.96999" lon="-0.43675">
        <ele>116.8</ele>
        <time>2023-05-23T13:20:13Z</time>
      </trkpt>
      <trkpt lat="48.97002" lon="-0.43677">
        <ele>116.6</ele>
        <time>2023-05-23T13:20:14Z</time>
      </trkpt>
      <trkpt lat="48.97006" lon="-0.4368">
        <ele>116.6</ele>
        <time>2023-05-23T13:20:15Z</time>
      </trkpt>
      <trkpt lat="48.97011" lon="-0.43684">
        <ele>116.4</ele>
        <time>2023-05-23T13:20:16Z</time>
      </trkpt>
      <trkpt lat="48.97016" lon="-0.43688">
        <ele>116.2</ele>
        <time>2023-05-23T13:20:17Z</time>
      </trkpt>
      <trkpt lat="48.97021" lon="-0.43692">
        <ele>116</ele>
        <time>2023-05-23T13:20:18Z</time>
      </trkpt>
      <trkpt lat="48.97025" lon="-0.43695">
        <ele>115.8</ele>
        <time>2023-05-23T13:20:19Z</time>
      </trkpt>
      <trkpt lat="48.9703" lon="-0.43699">
        <ele>115.6</ele>
        <time>2023-05-23T13:20:20Z</time>
      </trkpt>
      <trkpt lat="48.97034" lon="-0.43702">
        <ele>115.4</ele>
        <time>2023-05-23T13:20:21Z</time>
      </trkpt>
      <trkpt lat="48.97037" lon="-0.43706">
        <ele>115.4</ele>
        <time>2023-05-23T13:20:22Z</time>
      </trkpt>
      <trkpt lat="48.97041" lon="-0.4371">
        <ele>115.2</ele>
        <time>2023-05-23T13:20:23Z</time>
      </trkpt>
      <trkpt lat="48.97045" lon="-0.43714">
        <ele>115</ele>
        <time>2023-05-23T13:20:24Z</time>
      </trkpt>
      <trkpt lat="48.97048" lon="-0.43718">
        <ele>115</ele>
        <time>2023-05-23T13:20:25Z</time>
      </trkpt>
      <trkpt lat="48.97051" lon="-0.43722">
        <ele>115</ele>
        <time>2023-05-23T13:20:26Z</time>
      </trkpt>
      <trkpt lat="48.97054" lon="-0.43726">
        <ele>115</ele>
        <time>2023-05-23T13:20:27Z</time>
      </trkpt>
      <trkpt lat="48.97057" lon="-0.43731">
        <ele>115</ele>
        <time>2023-05-23T13:20:28Z</time>
      </trkpt>
      <trkpt lat="48.9706" lon="-0.43735">
        <ele>115</ele>
        <time>2023-05-23T13:20:29Z</time>
      </trkpt>
      <trkpt lat="48.97062" lon="-0.4374">
        <ele>115</ele>
        <time>2023-05-23T13:20:30Z</time>
      </trkpt>
      <trkpt lat="48.97065" lon="-0.43745">
        <ele>115</ele>
        <time>2023-05-23T13:20:31Z</time>
      </trkpt>
      <trkpt lat="48.97067" lon="-0.4375">
        <ele>115</ele>
        <time>2023-05-23T13:20:32Z</time>
      </trkpt>
      <trkpt lat="48.9707" lon="-0.43755">
        <ele>115.2</ele>
        <time>2023-05-23T13:20:33Z</time>
      </trkpt>
      <trkpt lat="48.97072" lon="-0.4376">
        <ele>115.4</ele>
        <time>2023-05-23T13:20:34Z</time>
      </trkpt>
      <trkpt lat="48.97074" lon="-0.43765">
        <ele>115.6</ele>
        <time>2023-05-23T13:20:35Z</time>
      </trkpt>
      <trkpt lat="48.97075" lon="-0.4377">
        <ele>115.8</ele>
        <time>2023-05-23T13:20:36Z</time>
      </trkpt>
      <trkpt lat="48.97077" lon="-0.43776">
        <ele>116</ele>
        <time>2023-05-23T13:20:37Z</time>
      </trkpt>
      <trkpt lat="48.97079" lon="-0.43781">
        <ele>116.6</ele>
        <time>2023-05-23T13:20:38Z</time>
      </trkpt>
      <trkpt lat="48.9708" lon="-0.43787">
        <ele>116.8</ele>
        <time>2023-05-23T13:20:39Z</time>
      </trkpt>
      <trkpt lat="48.97082" lon="-0.43792">
        <ele>117.2</ele>
        <time>2023-05-23T13:20:40Z</time>
      </trkpt>
      <trkpt lat="48.97083" lon="-0.43798">
        <ele>117.6</ele>
        <time>2023-05-23T13:20:41Z</time>
      </trkpt>
      <trkpt lat="48.97084" lon="-0.43803">
        <ele>118</ele>
        <time>2023-05-23T13:20:42Z</time>
      </trkpt>
      <trkpt lat="48.97085" lon="-0.43809">
        <ele>118.6</ele>
        <time>2023-05-23T13:20:43Z</time>
      </trkpt>
      <trkpt lat="48.97086" lon="-0.43815">
        <ele>119</ele>
        <time>2023-05-23T13:20:44Z</time>
      </trkpt>
      <trkpt lat="48.97087" lon="-0.43821">
        <ele>119.6</ele>
        <time>2023-05-23T13:20:45Z</time>
      </trkpt>
      <trkpt lat="48.97088" lon="-0.43827">
        <ele>120</ele>
        <time>2023-05-23T13:20:46Z</time>
      </trkpt>
      <trkpt lat="48.97088" lon="-0.43832">
        <ele>120.6</ele>
        <time>2023-05-23T13:20:47Z</time>
      </trkpt>
      <trkpt lat="48.97089" lon="-0.43838">
        <ele>120.8</ele>
        <time>2023-05-23T13:20:48Z</time>
      </trkpt>
      <trkpt lat="48.9709" lon="-0.43844">
        <ele>121</ele>
        <time>2023-05-23T13:20:49Z</time>
      </trkpt>
      <trkpt lat="48.9709" lon="-0.4385">
        <ele>121.4</ele>
        <time>2023-05-23T13:20:50Z</time>
      </trkpt>
      <trkpt lat="48.97091" lon="-0.43855">
        <ele>121.6</ele>
        <time>2023-05-23T13:20:51Z</time>
      </trkpt>
      <trkpt lat="48.97091" lon="-0.43861">
        <ele>121.8</ele>
        <time>2023-05-23T13:20:52Z</time>
      </trkpt>
      <trkpt lat="48.97092" lon="-0.43866">
        <ele>122</ele>
        <time>2023-05-23T13:20:53Z</time>
      </trkpt>
      <trkpt lat="48.97092" lon="-0.43872">
        <ele>122.4</ele>
        <time>2023-05-23T13:20:54Z</time>
      </trkpt>
      <trkpt lat="48.97093" lon="-0.43877">
        <ele>122.6</ele>
        <time>2023-05-23T13:20:55Z</time>
      </trkpt>
      <trkpt lat="48.97093" lon="-0.43882">
        <ele>122.8</ele>
        <time>2023-05-23T13:20:56Z</time>
      </trkpt>
      <trkpt lat="48.97094" lon="-0.43887">
        <ele>123</ele>
        <time>2023-05-23T13:20:57Z</time>
      </trkpt>
      <trkpt lat="48.97094" lon="-0.43892">
        <ele>123.2</ele>
        <time>2023-05-23T13:20:58Z</time>
      </trkpt>
      <trkpt lat="48.97095" lon="-0.43897">
        <ele>123.4</ele>
        <time>2023-05-23T13:20:59Z</time>
      </trkpt>
      <trkpt lat="48.97096" lon="-0.43902">
        <ele>123.6</ele>
        <time>2023-05-23T13:21:00Z</time>
      </trkpt>
      <trkpt lat="48.97096" lon="-0.43907">
        <ele>124</ele>
        <time>2023-05-23T13:21:01Z</time>
      </trkpt>
      <trkpt lat="48.97097" lon="-0.43912">
        <ele>124</ele>
        <time>2023-05-23T13:21:02Z</time>
      </trkpt>
      <trkpt lat="48.97097" lon="-0.43917">
        <ele>124.4</ele>
        <time>2023-05-23T13:21:03Z</time>
      </trkpt>
      <trkpt lat="48.97098" lon="-0.43921">
        <ele>124.6</ele>
        <time>2023-05-23T13:21:04Z</time>
      </trkpt>
      <trkpt lat="48.97098" lon="-0.43926">
        <ele>124.6</ele>
        <time>2023-05-23T13:21:05Z</time>
      </trkpt>
      <trkpt lat="48.97098" lon="-0.43931">
        <ele>124.8</ele>
        <time>2023-05-23T13:21:06Z</time>
      </trkpt>
      <trkpt lat="48.97099" lon="-0.43936">
        <ele>125</ele>
        <time>2023-05-23T13:21:07Z</time>
      </trkpt>
      <trkpt lat="48.971" lon="-0.43941">
        <ele>125</ele>
        <time>2023-05-23T13:21:08Z</time>
      </trkpt>
      <trkpt lat="48.971" lon="-0.43945">
        <ele>125.2</ele>
        <time>2023-05-23T13:21:09Z</time>
      </trkpt>
      <trkpt lat="48.971" lon="-0.4395">
        <ele>125.4</ele>
        <time>2023-05-23T13:21:10Z</time>
      </trkpt>
      <trkpt lat="48.97101" lon="-0.43955">
        <ele>125.4</ele>
        <time>2023-05-23T13:21:11Z</time>
      </trkpt>
      <trkpt lat="48.97101" lon="-0.43959">
        <ele>125.6</ele>
        <time>2023-05-23T13:21:12Z</time>
      </trkpt>
      <trkpt lat="48.97102" lon="-0.43964">
        <ele>125.6</ele>
        <time>2023-05-23T13:21:13Z</time>
      </trkpt>
      <trkpt lat="48.97102" lon="-0.43968">
        <ele>125.8</ele>
        <time>2023-05-23T13:21:14Z</time>
      </trkpt>
      <trkpt lat="48.97103" lon="-0.43973">
        <ele>126</ele>
        <time>2023-05-23T13:21:15Z</time>
      </trkpt>
      <trkpt lat="48.97103" lon="-0.43978">
        <ele>126</ele>
        <time>2023-05-23T13:21:16Z</time>
      </trkpt>
      <trkpt lat="48.97104" lon="-0.43983">
        <ele>126.2</ele>
        <time>2023-05-23T13:21:17Z</time>
      </trkpt>
      <trkpt lat="48.97104" lon="-0.43987">
        <ele>126.4</ele>
        <time>2023-05-23T13:21:18Z</time>
      </trkpt>
      <trkpt lat="48.97105" lon="-0.43992">
        <ele>126.6</ele>
        <time>2023-05-23T13:21:19Z</time>
      </trkpt>
      <trkpt lat="48.97105" lon="-0.43997">
        <ele>126.6</ele>
        <time>2023-05-23T13:21:20Z</time>
      </trkpt>
      <trkpt lat="48.97106" lon="-0.44002">
        <ele>126.6</ele>
        <time>2023-05-23T13:21:21Z</time>
      </trkpt>
      <trkpt lat="48.97106" lon="-0.44007">
        <ele>127</ele>
        <time>2023-05-23T13:21:22Z</time>
      </trkpt>
      <trkpt lat="48.97107" lon="-0.44012">
        <ele>127</ele>
        <time>2023-05-23T13:21:23Z</time>
      </trkpt>
      <trkpt lat="48.97107" lon="-0.44017">
        <ele>127.4</ele>
        <time>2023-05-23T13:21:24Z</time>
      </trkpt>
      <trkpt lat="48.97108" lon="-0.44022">
        <ele>127.6</ele>
        <time>2023-05-23T13:21:25Z</time>
      </trkpt>
      <trkpt lat="48.97108" lon="-0.44026">
        <ele>127.6</ele>
        <time>2023-05-23T13:21:26Z</time>
      </trkpt>
      <trkpt lat="48.97109" lon="-0.44031">
        <ele>128</ele>
        <time>2023-05-23T13:21:27Z</time>
      </trkpt>
      <trkpt lat="48.97109" lon="-0.44036">
        <ele>128</ele>
        <time>2023-05-23T13:21:28Z</time>
      </trkpt>
      <trkpt lat="48.9711" lon="-0.44041">
        <ele>128.2</ele>
        <time>2023-05-23T13:21:29Z</time>
      </trkpt>
      <trkpt lat="48.9711" lon="-0.44046">
        <ele>128.4</ele>
        <time>2023-05-23T13:21:30Z</time>
      </trkpt>
      <trkpt lat="48.97111" lon="-0.4405">
        <ele>128.6</ele>
        <time>2023-05-23T13:21:31Z</time>
      </trkpt>
      <trkpt lat="48.97111" lon="-0.44055">
        <ele>128.6</ele>
        <time>2023-05-23T13:21:32Z</time>
      </trkpt>
      <trkpt lat="48.97111" lon="-0.44059">
        <ele>128.8</ele>
        <time>2023-05-23T13:21:33Z</time>
      </trkpt>
      <trkpt lat="48.97112" lon="-0.44064">
        <ele>129.2</ele>
        <time>2023-05-23T13:21:34Z</time>
      </trkpt>
      <trkpt lat="48.97112" lon="-0.44069">
        <ele>129.4</ele>
        <time>2023-05-23T13:21:35Z</time>
      </trkpt>
      <trkpt lat="48.97113" lon="-0.44074">
        <ele>129.4</ele>
        <time>2023-05-23T13:21:36Z</time>
      </trkpt>
      <trkpt lat="48.97113" lon="-0.44078">
        <ele>129.6</ele>
        <time>2023-05-23T13:21:37Z</time>
      </trkpt>
      <trkpt lat="48.97114" lon="-0.44083">
        <ele>129.8</ele>
        <time>2023-05-23T13:21:38Z</time>
      </trkpt>
      <trkpt lat="48.97114" lon="-0.44088">
        <ele>130</ele>
        <time>2023-05-23T13:21:39Z</time>
      </trkpt>
      <trkpt lat="48.97115" lon="-0.44093">
        <ele>130.2</ele>
        <time>2023-05-23T13:21:40Z</time>
      </trkpt>
      <trkpt lat="48.97116" lon="-0.44098">
        <ele>130.4</ele>
        <time>2023-05-23T13:21:41Z</time>
      </trkpt>
      <trkpt lat="48.97117" lon="-0.44103">
        <ele>130.6</ele>
        <time>2023-05-23T13:21:42Z</time>
      </trkpt>
      <trkpt lat="48.97117" lon="-0.44108">
        <ele>130.6</ele>
        <time>2023-05-23T13:21:43Z</time>
      </trkpt>
      <trkpt lat="48.97118" lon="-0.44113">
        <ele>130.8</ele>
        <time>2023-05-23T13:21:44Z</time>
      </trkpt>
      <trkpt lat="48.97119" lon="-0.44118">
        <ele>131.2</ele>
        <time>2023-05-23T13:21:45Z</time>
      </trkpt>
      <trkpt lat="48.9712" lon="-0.44123">
        <ele>131.2</ele>
        <time>2023-05-23T13:21:46Z</time>
      </trkpt>
      <trkpt lat="48.97121" lon="-0.44128">
        <ele>131.4</ele>
        <time>2023-05-23T13:21:47Z</time>
      </trkpt>
      <trkpt lat="48.97122" lon="-0.44132">
        <ele>131.6</ele>
        <time>2023-05-23T13:21:48Z</time>
      </trkpt>
      <trkpt lat="48.97123" lon="-0.44137">
        <ele>131.6</ele>
        <time>2023-05-23T13:21:49Z</time>
      </trkpt>
      <trkpt lat="48.97124" lon="-0.44142">
        <ele>131.8</ele>
        <time>2023-05-23T13:21:50Z</time>
      </trkpt>
      <trkpt lat="48.97125" lon="-0.44146">
        <ele>132</ele>
        <time>2023-05-23T13:21:51Z</time>
      </trkpt>
      <trkpt lat="48.97127" lon="-0.44151">
        <ele>132.2</ele>
        <time>2023-05-23T13:21:52Z</time>
      </trkpt>
      <trkpt lat="48.97128" lon="-0.44155">
        <ele>132.4</ele>
        <time>2023-05-23T13:21:53Z</time>
      </trkpt>
      <trkpt lat="48.97129" lon="-0.4416">
        <ele>132.6</ele>
        <time>2023-05-23T13:21:54Z</time>
      </trkpt>
      <trkpt lat="48.97131" lon="-0.44164">
        <ele>132.6</ele>
        <time>2023-05-23T13:21:55Z</time>
      </trkpt>
      <trkpt lat="48.97133" lon="-0.44169">
        <ele>132.8</ele>
        <time>2023-05-23T13:21:56Z</time>
      </trkpt>
      <trkpt lat="48.97134" lon="-0.44173">
        <ele>133</ele>
        <time>2023-05-23T13:21:57Z</time>
      </trkpt>
      <trkpt lat="48.97136" lon="-0.44177">
        <ele>133.2</ele>
        <time>2023-05-23T13:21:58Z</time>
      </trkpt>
      <trkpt lat="48.97138" lon="-0.44182">
        <ele>133.4</ele>
        <time>2023-05-23T13:21:59Z</time>
      </trkpt>
      <trkpt lat="48.9714" lon="-0.44186">
        <ele>133.6</ele>
        <time>2023-05-23T13:22:00Z</time>
      </trkpt>
      <trkpt lat="48.97142" lon="-0.4419">
        <ele>133.8</ele>
        <time>2023-05-23T13:22:01Z</time>
      </trkpt>
      <trkpt lat="48.97144" lon="-0.44194">
        <ele>133.8</ele>
        <time>2023-05-23T13:22:02Z</time>
      </trkpt>
      <trkpt lat="48.97147" lon="-0.44198">
        <ele>134.2</ele>
        <time>2023-05-23T13:22:03Z</time>
      </trkpt>
      <trkpt lat="48.97149" lon="-0.44201">
        <ele>134.2</ele>
        <time>2023-05-23T13:22:04Z</time>
      </trkpt>
      <trkpt lat="48.97152" lon="-0.44205">
        <ele>134.4</ele>
        <time>2023-05-23T13:22:05Z</time>
      </trkpt>
      <trkpt lat="48.97154" lon="-0.44208">
        <ele>134.6</ele>
        <time>2023-05-23T13:22:06Z</time>
      </trkpt>
      <trkpt lat="48.97157" lon="-0.44212">
        <ele>134.6</ele>
        <time>2023-05-23T13:22:07Z</time>
      </trkpt>
      <trkpt lat="48.97159" lon="-0.44215">
        <ele>134.8</ele>
        <time>2023-05-23T13:22:08Z</time>
      </trkpt>
      <trkpt lat="48.97162" lon="-0.44218">
        <ele>134.8</ele>
        <time>2023-05-23T13:22:09Z</time>
      </trkpt>
      <trkpt lat="48.97164" lon="-0.44221">
        <ele>135</ele>
        <time>2023-05-23T13:22:10Z</time>
      </trkpt>
      <trkpt lat="48.97167" lon="-0.44224">
        <ele>135.2</ele>
        <time>2023-05-23T13:22:11Z</time>
      </trkpt>
      <trkpt lat="48.9717" lon="-0.44227">
        <ele>135.4</ele>
        <time>2023-05-23T13:22:12Z</time>
      </trkpt>
      <trkpt lat="48.97172" lon="-0.4423">
        <ele>135.6</ele>
        <time>2023-05-23T13:22:13Z</time>
      </trkpt>
      <trkpt lat="48.97175" lon="-0.44233">
        <ele>135.6</ele>
        <time>2023-05-23T13:22:14Z</time>
      </trkpt>
      <trkpt lat="48.97178" lon="-0.44236">
        <ele>135.8</ele>
        <time>2023-05-23T13:22:15Z</time>
      </trkpt>
      <trkpt lat="48.9718" lon="-0.44239">
        <ele>135.8</ele>
        <time>2023-05-23T13:22:16Z</time>
      </trkpt>
      <trkpt lat="48.97183" lon="-0.44243">
        <ele>136.2</ele>
        <time>2023-05-23T13:22:17Z</time>
      </trkpt>
      <trkpt lat="48.97185" lon="-0.44246">
        <ele>136.4</ele>
        <time>2023-05-23T13:22:18Z</time>
      </trkpt>
      <trkpt lat="48.97187" lon="-0.44249">
        <ele>136.4</ele>
        <time>2023-05-23T13:22:19Z</time>
      </trkpt>
      <trkpt lat="48.9719" lon="-0.44251">
        <ele>136.6</ele>
        <time>2023-05-23T13:22:20Z</time>
      </trkpt>
      <trkpt lat="48.97193" lon="-0.44254">
        <ele>136.6</ele>
        <time>2023-05-23T13:22:21Z</time>
      </trkpt>
      <trkpt lat="48.97195" lon="-0.44256">
        <ele>136.8</ele>
        <time>2023-05-23T13:22:22Z</time>
      </trkpt>
      <trkpt lat="48.97198" lon="-0.44259">
        <ele>137</ele>
        <time>2023-05-23T13:22:23Z</time>
      </trkpt>
      <trkpt lat="48.97201" lon="-0.44262">
        <ele>137.2</ele>
        <time>2023-05-23T13:22:24Z</time>
      </trkpt>
      <trkpt lat="48.97203" lon="-0.44265">
        <ele>137.4</ele>
        <time>2023-05-23T13:22:25Z</time>
      </trkpt>
      <trkpt lat="48.97206" lon="-0.44267">
        <ele>137.4</ele>
        <time>2023-05-23T13:22:26Z</time>
      </trkpt>
      <trkpt lat="48.97209" lon="-0.4427">
        <ele>137.6</ele>
        <time>2023-05-23T13:22:27Z</time>
      </trkpt>
      <trkpt lat="48.97211" lon="-0.44273">
        <ele>137.6</ele>
        <time>2023-05-23T13:22:28Z</time>
      </trkpt>
      <trkpt lat="48.97214" lon="-0.44276">
        <ele>137.8</ele>
        <time>2023-05-23T13:22:29Z</time>
      </trkpt>
      <trkpt lat="48.97216" lon="-0.44279">
        <ele>138</ele>
        <time>2023-05-23T13:22:30Z</time>
      </trkpt>
      <trkpt lat="48.97219" lon="-0.44281">
        <ele>138.2</ele>
        <time>2023-05-23T13:22:31Z</time>
      </trkpt>
      <trkpt lat="48.97222" lon="-0.44284">
        <ele>138.4</ele>
        <time>2023-05-23T13:22:32Z</time>
      </trkpt>
      <trkpt lat="48.97225" lon="-0.44287">
        <ele>138.4</ele>
        <time>2023-05-23T13:22:33Z</time>
      </trkpt>
      <trkpt lat="48.97228" lon="-0.4429">
        <ele>138.6</ele>
        <time>2023-05-23T13:22:34Z</time>
      </trkpt>
      <trkpt lat="48.9723" lon="-0.44293">
        <ele>138.6</ele>
        <time>2023-05-23T13:22:35Z</time>
      </trkpt>
      <trkpt lat="48.97233" lon="-0.44296">
        <ele>138.8</ele>
        <time>2023-05-23T13:22:36Z</time>
      </trkpt>
      <trkpt lat="48.97235" lon="-0.44298">
        <ele>138.8</ele>
        <time>2023-05-23T13:22:37Z</time>
      </trkpt>
      <trkpt lat="48.97238" lon="-0.44301">
        <ele>139</ele>
        <time>2023-05-23T13:22:38Z</time>
      </trkpt>
      <trkpt lat="48.97241" lon="-0.44304">
        <ele>139.2</ele>
        <time>2023-05-23T13:22:39Z</time>
      </trkpt>
      <trkpt lat="48.97243" lon="-0.44306">
        <ele>139.4</ele>
        <time>2023-05-23T13:22:40Z</time>
      </trkpt>
      <trkpt lat="48.97246" lon="-0.44309">
        <ele>139.4</ele>
        <time>2023-05-23T13:22:41Z</time>
      </trkpt>
      <trkpt lat="48.97248" lon="-0.44312">
        <ele>139.6</ele>
        <time>2023-05-23T13:22:42Z</time>
      </trkpt>
      <trkpt lat="48.97251" lon="-0.44315">
        <ele>139.6</ele>
        <time>2023-05-23T13:22:43Z</time>
      </trkpt>
      <trkpt lat="48.97254" lon="-0.44317">
        <ele>139.6</ele>
        <time>2023-05-23T13:22:44Z</time>
      </trkpt>
      <trkpt lat="48.97256" lon="-0.4432">
        <ele>139.8</ele>
        <time>2023-05-23T13:22:45Z</time>
      </trkpt>
      <trkpt lat="48.97259" lon="-0.44323">
        <ele>139.8</ele>
        <time>2023-05-23T13:22:46Z</time>
      </trkpt>
      <trkpt lat="48.97262" lon="-0.44326">
        <ele>140</ele>
        <time>2023-05-23T13:22:47Z</time>
      </trkpt>
      <trkpt lat="48.97264" lon="-0.44329">
        <ele>140</ele>
        <time>2023-05-23T13:22:48Z</time>
      </trkpt>
      <trkpt lat="48.97267" lon="-0.44332">
        <ele>140.2</ele>
        <time>2023-05-23T13:22:49Z</time>
      </trkpt>
      <trkpt lat="48.9727" lon="-0.44335">
        <ele>140.2</ele>
        <time>2023-05-23T13:22:50Z</time>
      </trkpt>
      <trkpt lat="48.97273" lon="-0.44339">
        <ele>140.2</ele>
        <time>2023-05-23T13:22:51Z</time>
      </trkpt>
      <trkpt lat="48.97276" lon="-0.44342">
        <ele>140.2</ele>
        <time>2023-05-23T13:22:52Z</time>
      </trkpt>
      <trkpt lat="48.97279" lon="-0.44346">
        <ele>140.2</ele>
        <time>2023-05-23T13:22:53Z</time>
      </trkpt>
      <trkpt lat="48.97281" lon="-0.4435">
        <ele>140.2</ele>
        <time>2023-05-23T13:22:54Z</time>
      </trkpt>
      <trkpt lat="48.97284" lon="-0.44354">
        <ele>140.2</ele>
        <time>2023-05-23T13:22:55Z</time>
      </trkpt>
      <trkpt lat="48.97287" lon="-0.44358">
        <ele>140.2</ele>
        <time>2023-05-23T13:22:56Z</time>
      </trkpt>
      <trkpt lat="48.97289" lon="-0.44362">
        <ele>140.4</ele>
        <time>2023-05-23T13:22:57Z</time>
      </trkpt>
      <trkpt lat="48.97292" lon="-0.44366">
        <ele>140.4</ele>
        <time>2023-05-23T13:22:58Z</time>
      </trkpt>
      <trkpt lat="48.97294" lon="-0.4437">
        <ele>140.4</ele>
        <time>2023-05-23T13:22:59Z</time>
      </trkpt>
      <trkpt lat="48.97297" lon="-0.44375">
        <ele>140.6</ele>
        <time>2023-05-23T13:23:00Z</time>
      </trkpt>
      <trkpt lat="48.97299" lon="-0.4438">
        <ele>140.6</ele>
        <time>2023-05-23T13:23:01Z</time>
      </trkpt>
      <trkpt lat="48.97301" lon="-0.44385">
        <ele>140.8</ele>
        <time>2023-05-23T13:23:02Z</time>
      </trkpt>
      <trkpt lat="48.97304" lon="-0.4439">
        <ele>140.8</ele>
        <time>2023-05-23T13:23:03Z</time>
      </trkpt>
      <trkpt lat="48.97306" lon="-0.44395">
        <ele>141</ele>
        <time>2023-05-23T13:23:04Z</time>
      </trkpt>
      <trkpt lat="48.97308" lon="-0.44401">
        <ele>141.2</ele>
        <time>2023-05-23T13:23:05Z</time>
      </trkpt>
      <trkpt lat="48.9731" lon="-0.44406">
        <ele>141.4</ele>
        <time>2023-05-23T13:23:06Z</time>
      </trkpt>
      <trkpt lat="48.97312" lon="-0.44412">
        <ele>141.6</ele>
        <time>2023-05-23T13:23:07Z</time>
      </trkpt>
      <trkpt lat="48.97314" lon="-0.44417">
        <ele>141.6</ele>
        <time>2023-05-23T13:23:08Z</time>
      </trkpt>
      <trkpt lat="48.97315" lon="-0.44423">
        <ele>141.8</ele>
        <time>2023-05-23T13:23:09Z</time>
      </trkpt>
      <trkpt lat="48.97317" lon="-0.44429">
        <ele>142.2</ele>
        <time>2023-05-23T13:23:10Z</time>
      </trkpt>
      <trkpt lat="48.97318" lon="-0.44434">
        <ele>142.2</ele>
        <time>2023-05-23T13:23:11Z</time>
      </trkpt>
      <trkpt lat="48.9732" lon="-0.4444">
        <ele>142.4</ele>
        <time>2023-05-23T13:23:12Z</time>
      </trkpt>
      <trkpt lat="48.97321" lon="-0.44446">
        <ele>142.6</ele>
        <time>2023-05-23T13:23:13Z</time>
      </trkpt>
      <trkpt lat="48.97322" lon="-0.44452">
        <ele>142.6</ele>
        <time>2023-05-23T13:23:14Z</time>
      </trkpt>
      <trkpt lat="48.97324" lon="-0.44458">
        <ele>142.8</ele>
        <time>2023-05-23T13:23:15Z</time>
      </trkpt>
      <trkpt lat="48.97325" lon="-0.44464">
        <ele>143</ele>
        <time>2023-05-23T13:23:16Z</time>
      </trkpt>
      <trkpt lat="48.97326" lon="-0.44469">
        <ele>143.2</ele>
        <time>2023-05-23T13:23:17Z</time>
      </trkpt>
      <trkpt lat="48.97327" lon="-0.44476">
        <ele>143.4</ele>
        <time>2023-05-23T13:23:18Z</time>
      </trkpt>
      <trkpt lat="48.97329" lon="-0.44481">
        <ele>143.6</ele>
        <time>2023-05-23T13:23:19Z</time>
      </trkpt>
      <trkpt lat="48.9733" lon="-0.44487">
        <ele>143.6</ele>
        <time>2023-05-23T13:23:20Z</time>
      </trkpt>
      <trkpt lat="48.97331" lon="-0.44493">
        <ele>143.8</ele>
        <time>2023-05-23T13:23:21Z</time>
      </trkpt>
      <trkpt lat="48.97333" lon="-0.44499">
        <ele>144</ele>
        <time>2023-05-23T13:23:22Z</time>
      </trkpt>
      <trkpt lat="48.97334" lon="-0.44505">
        <ele>144.2</ele>
        <time>2023-05-23T13:23:23Z</time>
      </trkpt>
      <trkpt lat="48.97335" lon="-0.44512">
        <ele>144.4</ele>
        <time>2023-05-23T13:23:24Z</time>
      </trkpt>
      <trkpt lat="48.97336" lon="-0.44518">
        <ele>144.4</ele>
        <time>2023-05-23T13:23:25Z</time>
      </trkpt>
      <trkpt lat="48.97337" lon="-0.44523">
        <ele>144.6</ele>
        <time>2023-05-23T13:23:26Z</time>
      </trkpt>
      <trkpt lat="48.97339" lon="-0.44529">
        <ele>144.6</ele>
        <time>2023-05-23T13:23:27Z</time>
      </trkpt>
      <trkpt lat="48.9734" lon="-0.44536">
        <ele>144.8</ele>
        <time>2023-05-23T13:23:28Z</time>
      </trkpt>
      <trkpt lat="48.97341" lon="-0.44542">
        <ele>145</ele>
        <time>2023-05-23T13:23:29Z</time>
      </trkpt>
      <trkpt lat="48.97343" lon="-0.44548">
        <ele>145.2</ele>
        <time>2023-05-23T13:23:30Z</time>
      </trkpt>
      <trkpt lat="48.97344" lon="-0.44554">
        <ele>145.4</ele>
        <time>2023-05-23T13:23:31Z</time>
      </trkpt>
      <trkpt lat="48.97345" lon="-0.4456">
        <ele>145.6</ele>
        <time>2023-05-23T13:23:32Z</time>
      </trkpt>
      <trkpt lat="48.97346" lon="-0.44566">
        <ele>145.6</ele>
        <time>2023-05-23T13:23:33Z</time>
      </trkpt>
      <trkpt lat="48.97348" lon="-0.44572">
        <ele>145.8</ele>
        <time>2023-05-23T13:23:34Z</time>
      </trkpt>
      <trkpt lat="48.97349" lon="-0.44578">
        <ele>146</ele>
        <time>2023-05-23T13:23:35Z</time>
      </trkpt>
      <trkpt lat="48.9735" lon="-0.44584">
        <ele>146.2</ele>
        <time>2023-05-23T13:23:36Z</time>
      </trkpt>
      <trkpt lat="48.97352" lon="-0.4459">
        <ele>146.4</ele>
        <time>2023-05-23T13:23:37Z</time>
      </trkpt>
      <trkpt lat="48.97353" lon="-0.44596">
        <ele>146.4</ele>
        <time>2023-05-23T13:23:38Z</time>
      </trkpt>
      <trkpt lat="48.97354" lon="-0.44602">
        <ele>146.4</ele>
        <time>2023-05-23T13:23:39Z</time>
      </trkpt>
      <trkpt lat="48.97356" lon="-0.44608">
        <ele>146.6</ele>
        <time>2023-05-23T13:23:40Z</time>
      </trkpt>
      <trkpt lat="48.97357" lon="-0.44614">
        <ele>146.6</ele>
        <time>2023-05-23T13:23:41Z</time>
      </trkpt>
      <trkpt lat="48.97358" lon="-0.4462">
        <ele>146.6</ele>
        <time>2023-05-23T13:23:42Z</time>
      </trkpt>
      <trkpt lat="48.9736" lon="-0.44627">
        <ele>146.8</ele>
        <time>2023-05-23T13:23:43Z</time>
      </trkpt>
      <trkpt lat="48.97361" lon="-0.44633">
        <ele>146.8</ele>
        <time>2023-05-23T13:23:44Z</time>
      </trkpt>
      <trkpt lat="48.97362" lon="-0.44639">
        <ele>146.8</ele>
        <time>2023-05-23T13:23:45Z</time>
      </trkpt>
      <trkpt lat="48.97364" lon="-0.44645">
        <ele>147</ele>
        <time>2023-05-23T13:23:46Z</time>
      </trkpt>
      <trkpt lat="48.97365" lon="-0.44651">
        <ele>147.2</ele>
        <time>2023-05-23T13:23:47Z</time>
      </trkpt>
      <trkpt lat="48.97366" lon="-0.44657">
        <ele>147.2</ele>
        <time>2023-05-23T13:23:48Z</time>
      </trkpt>
      <trkpt lat="48.97368" lon="-0.44662">
        <ele>147.4</ele>
        <time>2023-05-23T13:23:49Z</time>
      </trkpt>
      <trkpt lat="48.97369" lon="-0.44668">
        <ele>147.4</ele>
        <time>2023-05-23T13:23:50Z</time>
      </trkpt>
      <trkpt lat="48.9737" lon="-0.44674">
        <ele>147.4</ele>
        <time>2023-05-23T13:23:51Z</time>
      </trkpt>
      <trkpt lat="48.97371" lon="-0.4468">
        <ele>147.6</ele>
        <time>2023-05-23T13:23:52Z</time>
      </trkpt>
      <trkpt lat="48.97372" lon="-0.44685">
        <ele>147.6</ele>
        <time>2023-05-23T13:23:53Z</time>
      </trkpt>
      <trkpt lat="48.97373" lon="-0.44691">
        <ele>147.6</ele>
        <time>2023-05-23T13:23:54Z</time>
      </trkpt>
      <trkpt lat="48.97374" lon="-0.44697">
        <ele>147.6</ele>
        <time>2023-05-23T13:23:55Z</time>
      </trkpt>
      <trkpt lat="48.97376" lon="-0.44703">
        <ele>147.8</ele>
        <time>2023-05-23T13:23:56Z</time>
      </trkpt>
      <trkpt lat="48.97377" lon="-0.44709">
        <ele>148</ele>
        <time>2023-05-23T13:23:57Z</time>
      </trkpt>
      <trkpt lat="48.97378" lon="-0.44715">
        <ele>148.2</ele>
        <time>2023-05-23T13:23:58Z</time>
      </trkpt>
      <trkpt lat="48.97379" lon="-0.44722">
        <ele>148.2</ele>
        <time>2023-05-23T13:23:59Z</time>
      </trkpt>
      <trkpt lat="48.9738" lon="-0.44728">
        <ele>148.4</ele>
        <time>2023-05-23T13:24:00Z</time>
      </trkpt>
      <trkpt lat="48.97382" lon="-0.44734">
        <ele>148.4</ele>
        <time>2023-05-23T13:24:01Z</time>
      </trkpt>
      <trkpt lat="48.97383" lon="-0.44741">
        <ele>148.6</ele>
        <time>2023-05-23T13:24:02Z</time>
      </trkpt>
      <trkpt lat="48.97384" lon="-0.44747">
        <ele>148.6</ele>
        <time>2023-05-23T13:24:03Z</time>
      </trkpt>
      <trkpt lat="48.97386" lon="-0.44754">
        <ele>148.6</ele>
        <time>2023-05-23T13:24:04Z</time>
      </trkpt>
      <trkpt lat="48.97387" lon="-0.4476">
        <ele>148.6</ele>
        <time>2023-05-23T13:24:05Z</time>
      </trkpt>
      <trkpt lat="48.97388" lon="-0.44767">
        <ele>148.6</ele>
        <time>2023-05-23T13:24:06Z</time>
      </trkpt>
      <trkpt lat="48.97389" lon="-0.44773">
        <ele>148.6</ele>
        <time>2023-05-23T13:24:07Z</time>
      </trkpt>
      <trkpt lat="48.97391" lon="-0.4478">
        <ele>148.6</ele>
        <time>2023-05-23T13:24:08Z</time>
      </trkpt>
      <trkpt lat="48.97392" lon="-0.44786">
        <ele>148.6</ele>
        <time>2023-05-23T13:24:09Z</time>
      </trkpt>
      <trkpt lat="48.97393" lon="-0.44793">
        <ele>148.6</ele>
        <time>2023-05-23T13:24:10Z</time>
      </trkpt>
      <trkpt lat="48.97394" lon="-0.44799">
        <ele>148.6</ele>
        <time>2023-05-23T13:24:11Z</time>
      </trkpt>
      <trkpt lat="48.97396" lon="-0.44806">
        <ele>148.6</ele>
        <time>2023-05-23T13:24:12Z</time>
      </trkpt>
      <trkpt lat="48.97397" lon="-0.44813">
        <ele>148.6</ele>
        <time>2023-05-23T13:24:13Z</time>
      </trkpt>
      <trkpt lat="48.97398" lon="-0.4482">
        <ele>148.4</ele>
        <time>2023-05-23T13:24:14Z</time>
      </trkpt>
      <trkpt lat="48.974" lon="-0.44826">
        <ele>148.4</ele>
        <time>2023-05-23T13:24:15Z</time>
      </trkpt>
      <trkpt lat="48.97401" lon="-0.44833">
        <ele>148.4</ele>
        <time>2023-05-23T13:24:16Z</time>
      </trkpt>
      <trkpt lat="48.97402" lon="-0.4484">
        <ele>148.2</ele>
        <time>2023-05-23T13:24:17Z</time>
      </trkpt>
      <trkpt lat="48.97404" lon="-0.44847">
        <ele>148</ele>
        <time>2023-05-23T13:24:18Z</time>
      </trkpt>
      <trkpt lat="48.97405" lon="-0.44854">
        <ele>147.8</ele>
        <time>2023-05-23T13:24:19Z</time>
      </trkpt>
      <trkpt lat="48.97406" lon="-0.44861">
        <ele>147.6</ele>
        <time>2023-05-23T13:24:20Z</time>
      </trkpt>
      <trkpt lat="48.97408" lon="-0.44868">
        <ele>147.4</ele>
        <time>2023-05-23T13:24:21Z</time>
      </trkpt>
      <trkpt lat="48.97409" lon="-0.44876">
        <ele>147.2</ele>
        <time>2023-05-23T13:24:22Z</time>
      </trkpt>
      <trkpt lat="48.9741" lon="-0.44883">
        <ele>147</ele>
        <time>2023-05-23T13:24:23Z</time>
      </trkpt>
      <trkpt lat="48.97412" lon="-0.44891">
        <ele>146.8</ele>
        <time>2023-05-23T13:24:24Z</time>
      </trkpt>
      <trkpt lat="48.97413" lon="-0.44899">
        <ele>146.6</ele>
        <time>2023-05-23T13:24:25Z</time>
      </trkpt>
      <trkpt lat="48.97414" lon="-0.44907">
        <ele>146.4</ele>
        <time>2023-05-23T13:24:26Z</time>
      </trkpt>
      <trkpt lat="48.97415" lon="-0.44915">
        <ele>146.2</ele>
        <time>2023-05-23T13:24:27Z</time>
      </trkpt>
      <trkpt lat="48.97416" lon="-0.44924">
        <ele>146.2</ele>
        <time>2023-05-23T13:24:28Z</time>
      </trkpt>
      <trkpt lat="48.97417" lon="-0.44933">
        <ele>146.2</ele>
        <time>2023-05-23T13:24:29Z</time>
      </trkpt>
      <trkpt lat="48.97418" lon="-0.44942">
        <ele>146.4</ele>
        <time>2023-05-23T13:24:30Z</time>
      </trkpt>
      <trkpt lat="48.97419" lon="-0.44951">
        <ele>146.4</ele>
        <time>2023-05-23T13:24:31Z</time>
      </trkpt>
      <trkpt lat="48.97419" lon="-0.44961">
        <ele>146.6</ele>
        <time>2023-05-23T13:24:32Z</time>
      </trkpt>
      <trkpt lat="48.9742" lon="-0.44971">
        <ele>146.6</ele>
        <time>2023-05-23T13:24:33Z</time>
      </trkpt>
      <trkpt lat="48.9742" lon="-0.44981">
        <ele>146.8</ele>
        <time>2023-05-23T13:24:34Z</time>
      </trkpt>
      <trkpt lat="48.9742" lon="-0.44992">
        <ele>146.8</ele>
        <time>2023-05-23T13:24:35Z</time>
      </trkpt>
      <trkpt lat="48.9742" lon="-0.45003">
        <ele>146.8</ele>
        <time>2023-05-23T13:24:36Z</time>
      </trkpt>
      <trkpt lat="48.9742" lon="-0.45014">
        <ele>146.6</ele>
        <time>2023-05-23T13:24:37Z</time>
      </trkpt>
      <trkpt lat="48.9742" lon="-0.45025">
        <ele>146.2</ele>
        <time>2023-05-23T13:24:38Z</time>
      </trkpt>
      <trkpt lat="48.97419" lon="-0.45037">
        <ele>145.6</ele>
        <time>2023-05-23T13:24:39Z</time>
      </trkpt>
      <trkpt lat="48.97419" lon="-0.45048">
        <ele>145.4</ele>
        <time>2023-05-23T13:24:40Z</time>
      </trkpt>
      <trkpt lat="48.97419" lon="-0.45059">
        <ele>144.8</ele>
        <time>2023-05-23T13:24:41Z</time>
      </trkpt>
      <trkpt lat="48.97418" lon="-0.45071">
        <ele>144.6</ele>
        <time>2023-05-23T13:24:42Z</time>
      </trkpt>
      <trkpt lat="48.97418" lon="-0.45082">
        <ele>144.2</ele>
        <time>2023-05-23T13:24:43Z</time>
      </trkpt>
      <trkpt lat="48.97417" lon="-0.45094">
        <ele>143.8</ele>
        <time>2023-05-23T13:24:44Z</time>
      </trkpt>
      <trkpt lat="48.97417" lon="-0.45106">
        <ele>143.6</ele>
        <time>2023-05-23T13:24:45Z</time>
      </trkpt>
      <trkpt lat="48.97416" lon="-0.45118">
        <ele>143.6</ele>
        <time>2023-05-23T13:24:46Z</time>
      </trkpt>
      <trkpt lat="48.97415" lon="-0.4513">
        <ele>143.6</ele>
        <time>2023-05-23T13:24:47Z</time>
      </trkpt>
      <trkpt lat="48.97415" lon="-0.45143">
        <ele>143.4</ele>
        <time>2023-05-23T13:24:48Z</time>
      </trkpt>
      <trkpt lat="48.97414" lon="-0.45156">
        <ele>143.2</ele>
        <time>2023-05-23T13:24:49Z</time>
      </trkpt>
      <trkpt lat="48.97414" lon="-0.45169">
        <ele>143</ele>
        <time>2023-05-23T13:24:50Z</time>
      </trkpt>
      <trkpt lat="48.97413" lon="-0.45183">
        <ele>142.6</ele>
        <time>2023-05-23T13:24:51Z</time>
      </trkpt>
      <trkpt lat="48.97413" lon="-0.45197">
        <ele>142.4</ele>
        <time>2023-05-23T13:24:52Z</time>
      </trkpt>
      <trkpt lat="48.97412" lon="-0.45212">
        <ele>142</ele>
        <time>2023-05-23T13:24:53Z</time>
      </trkpt>
      <trkpt lat="48.97412" lon="-0.45226">
        <ele>141.6</ele>
        <time>2023-05-23T13:24:54Z</time>
      </trkpt>
      <trkpt lat="48.97411" lon="-0.45241">
        <ele>141.4</ele>
        <time>2023-05-23T13:24:55Z</time>
      </trkpt>
      <trkpt lat="48.9741" lon="-0.45256">
        <ele>140.8</ele>
        <time>2023-05-23T13:24:56Z</time>
      </trkpt>
      <trkpt lat="48.9741" lon="-0.45271">
        <ele>140.2</ele>
        <time>2023-05-23T13:24:57Z</time>
      </trkpt>
      <trkpt lat="48.97409" lon="-0.45285">
        <ele>139.6</ele>
        <time>2023-05-23T13:24:58Z</time>
      </trkpt>
      <trkpt lat="48.97409" lon="-0.453">
        <ele>138.8</ele>
        <time>2023-05-23T13:24:59Z</time>
      </trkpt>
      <trkpt lat="48.97408" lon="-0.45315">
        <ele>138.2</ele>
        <time>2023-05-23T13:25:00Z</time>
      </trkpt>
      <trkpt lat="48.97408" lon="-0.45329">
        <ele>137.6</ele>
        <time>2023-05-23T13:25:01Z</time>
      </trkpt>
      <trkpt lat="48.97407" lon="-0.45344">
        <ele>137.2</ele>
        <time>2023-05-23T13:25:02Z</time>
      </trkpt>
      <trkpt lat="48.97406" lon="-0.45359">
        <ele>136.8</ele>
        <time>2023-05-23T13:25:03Z</time>
      </trkpt>
      <trkpt lat="48.97406" lon="-0.45374">
        <ele>136.6</ele>
        <time>2023-05-23T13:25:04Z</time>
      </trkpt>
      <trkpt lat="48.97405" lon="-0.45389">
        <ele>136.2</ele>
        <time>2023-05-23T13:25:05Z</time>
      </trkpt>
      <trkpt lat="48.97405" lon="-0.45404">
        <ele>135.8</ele>
        <time>2023-05-23T13:25:06Z</time>
      </trkpt>
      <trkpt lat="48.97404" lon="-0.45418">
        <ele>135.6</ele>
        <time>2023-05-23T13:25:07Z</time>
      </trkpt>
      <trkpt lat="48.97404" lon="-0.45433">
        <ele>135.4</ele>
        <time>2023-05-23T13:25:08Z</time>
      </trkpt>
      <trkpt lat="48.97403" lon="-0.45447">
        <ele>135</ele>
        <time>2023-05-23T13:25:09Z</time>
      </trkpt>
      <trkpt lat="48.97403" lon="-0.45461">
        <ele>134.6</ele>
        <time>2023-05-23T13:25:10Z</time>
      </trkpt>
      <trkpt lat="48.97402" lon="-0.45474">
        <ele>134.4</ele>
        <time>2023-05-23T13:25:11Z</time>
      </trkpt>
      <trkpt lat="48.97402" lon="-0.45488">
        <ele>134.2</ele>
        <time>2023-05-23T13:25:12Z</time>
      </trkpt>
      <trkpt lat="48.97401" lon="-0.45501">
        <ele>133.8</ele>
        <time>2023-05-23T13:25:13Z</time>
      </trkpt>
      <trkpt lat="48.974" lon="-0.45515">
        <ele>133.6</ele>
        <time>2023-05-23T13:25:14Z</time>
      </trkpt>
      <trkpt lat="48.974" lon="-0.45529">
        <ele>133.4</ele>
        <time>2023-05-23T13:25:15Z</time>
      </trkpt>
      <trkpt lat="48.97399" lon="-0.45542">
        <ele>133</ele>
        <time>2023-05-23T13:25:16Z</time>
      </trkpt>
      <trkpt lat="48.97399" lon="-0.45556">
        <ele>132.6</ele>
        <time>2023-05-23T13:25:17Z</time>
      </trkpt>
      <trkpt lat="48.97399" lon="-0.4557">
        <ele>132.4</ele>
        <time>2023-05-23T13:25:18Z</time>
      </trkpt>
      <trkpt lat="48.97399" lon="-0.45584">
        <ele>132.2</ele>
        <time>2023-05-23T13:25:19Z</time>
      </trkpt>
      <trkpt lat="48.97399" lon="-0.45598">
        <ele>132.2</ele>
        <time>2023-05-23T13:25:20Z</time>
      </trkpt>
      <trkpt lat="48.974" lon="-0.45612">
        <ele>132.2</ele>
        <time>2023-05-23T13:25:21Z</time>
      </trkpt>
      <trkpt lat="48.97401" lon="-0.45625">
        <ele>132.4</ele>
        <time>2023-05-23T13:25:22Z</time>
      </trkpt>
      <trkpt lat="48.97403" lon="-0.45639">
        <ele>132.4</ele>
        <time>2023-05-23T13:25:23Z</time>
      </trkpt>
      <trkpt lat="48.97406" lon="-0.45652">
        <ele>132.4</ele>
        <time>2023-05-23T13:25:24Z</time>
      </trkpt>
      <trkpt lat="48.9741" lon="-0.45665">
        <ele>132.2</ele>
        <time>2023-05-23T13:25:25Z</time>
      </trkpt>
      <trkpt lat="48.97414" lon="-0.45677">
        <ele>131.8</ele>
        <time>2023-05-23T13:25:26Z</time>
      </trkpt>
      <trkpt lat="48.97419" lon="-0.45688">
        <ele>131.4</ele>
        <time>2023-05-23T13:25:27Z</time>
      </trkpt>
      <trkpt lat="48.97425" lon="-0.45699">
        <ele>130.8</ele>
        <time>2023-05-23T13:25:28Z</time>
      </trkpt>
      <trkpt lat="48.97431" lon="-0.45709">
        <ele>130.2</ele>
        <time>2023-05-23T13:25:29Z</time>
      </trkpt>
      <trkpt lat="48.97437" lon="-0.45718">
        <ele>129.6</ele>
        <time>2023-05-23T13:25:30Z</time>
      </trkpt>
      <trkpt lat="48.97444" lon="-0.45726">
        <ele>129.2</ele>
        <time>2023-05-23T13:25:31Z</time>
      </trkpt>
      <trkpt lat="48.97451" lon="-0.45734">
        <ele>128.6</ele>
        <time>2023-05-23T13:25:32Z</time>
      </trkpt>
      <trkpt lat="48.97459" lon="-0.45742">
        <ele>128.2</ele>
        <time>2023-05-23T13:25:33Z</time>
      </trkpt>
      <trkpt lat="48.97466" lon="-0.45749">
        <ele>127.6</ele>
        <time>2023-05-23T13:25:34Z</time>
      </trkpt>
      <trkpt lat="48.97474" lon="-0.45756">
        <ele>127.4</ele>
        <time>2023-05-23T13:25:35Z</time>
      </trkpt>
      <trkpt lat="48.97481" lon="-0.45764">
        <ele>127</ele>
        <time>2023-05-23T13:25:36Z</time>
      </trkpt>
      <trkpt lat="48.97489" lon="-0.45771">
        <ele>126.6</ele>
        <time>2023-05-23T13:25:37Z</time>
      </trkpt>
      <trkpt lat="48.97496" lon="-0.45778">
        <ele>126.2</ele>
        <time>2023-05-23T13:25:38Z</time>
      </trkpt>
      <trkpt lat="48.97504" lon="-0.45785">
        <ele>125.8</ele>
        <time>2023-05-23T13:25:39Z</time>
      </trkpt>
      <trkpt lat="48.97511" lon="-0.45793">
        <ele>125.6</ele>
        <time>2023-05-23T13:25:40Z</time>
      </trkpt>
      <trkpt lat="48.97519" lon="-0.458">
        <ele>125</ele>
        <time>2023-05-23T13:25:41Z</time>
      </trkpt>
      <trkpt lat="48.97527" lon="-0.45807">
        <ele>124.6</ele>
        <time>2023-05-23T13:25:42Z</time>
      </trkpt>
      <trkpt lat="48.97535" lon="-0.45815">
        <ele>124.4</ele>
        <time>2023-05-23T13:25:43Z</time>
      </trkpt>
      <trkpt lat="48.97542" lon="-0.45822">
        <ele>124</ele>
        <time>2023-05-23T13:25:44Z</time>
      </trkpt>
      <trkpt lat="48.9755" lon="-0.4583">
        <ele>123.6</ele>
        <time>2023-05-23T13:25:45Z</time>
      </trkpt>
      <trkpt lat="48.97558" lon="-0.45838">
        <ele>123.2</ele>
        <time>2023-05-23T13:25:46Z</time>
      </trkpt>
      <trkpt lat="48.97566" lon="-0.45845">
        <ele>123</ele>
        <time>2023-05-23T13:25:47Z</time>
      </trkpt>
      <trkpt lat="48.97574" lon="-0.45853">
        <ele>122.6</ele>
        <time>2023-05-23T13:25:48Z</time>
      </trkpt>
      <trkpt lat="48.97582" lon="-0.45861">
        <ele>122.4</ele>
        <time>2023-05-23T13:25:49Z</time>
      </trkpt>
      <trkpt lat="48.9759" lon="-0.45869">
        <ele>122</ele>
        <time>2023-05-23T13:25:50Z</time>
      </trkpt>
      <trkpt lat="48.97598" lon="-0.45877">
        <ele>121.4</ele>
        <time>2023-05-23T13:25:51Z</time>
      </trkpt>
      <trkpt lat="48.97606" lon="-0.45884">
        <ele>121</ele>
        <time>2023-05-23T13:25:52Z</time>
      </trkpt>
      <trkpt lat="48.97615" lon="-0.45892">
        <ele>120.6</ele>
        <time>2023-05-23T13:25:53Z</time>
      </trkpt>
      <trkpt lat="48.97623" lon="-0.459">
        <ele>120</ele>
        <time>2023-05-23T13:25:54Z</time>
      </trkpt>
      <trkpt lat="48.97631" lon="-0.45908">
        <ele>119.4</ele>
        <time>2023-05-23T13:25:55Z</time>
      </trkpt>
      <trkpt lat="48.9764" lon="-0.45916">
        <ele>119</ele>
        <time>2023-05-23T13:25:56Z</time>
      </trkpt>
      <trkpt lat="48.97648" lon="-0.45924">
        <ele>118.2</ele>
        <time>2023-05-23T13:25:57Z</time>
      </trkpt>
      <trkpt lat="48.97656" lon="-0.45933">
        <ele>117.4</ele>
        <time>2023-05-23T13:25:58Z</time>
      </trkpt>
      <trkpt lat="48.97665" lon="-0.45941">
        <ele>116.6</ele>
        <time>2023-05-23T13:25:59Z</time>
      </trkpt>
      <trkpt lat="48.97673" lon="-0.45949">
        <ele>115.6</ele>
        <time>2023-05-23T13:26:00Z</time>
      </trkpt>
      <trkpt lat="48.97682" lon="-0.45957">
        <ele>115</ele>
        <time>2023-05-23T13:26:01Z</time>
      </trkpt>
      <trkpt lat="48.9769" lon="-0.45965">
        <ele>114.2</ele>
        <time>2023-05-23T13:26:02Z</time>
      </trkpt>
      <trkpt lat="48.97698" lon="-0.45973">
        <ele>113.6</ele>
        <time>2023-05-23T13:26:03Z</time>
      </trkpt>
      <trkpt lat="48.97705" lon="-0.45982">
        <ele>113</ele>
        <time>2023-05-23T13:26:04Z</time>
      </trkpt>
      <trkpt lat="48.97713" lon="-0.45992">
        <ele>112.4</ele>
        <time>2023-05-23T13:26:05Z</time>
      </trkpt>
      <trkpt lat="48.9772" lon="-0.46003">
        <ele>111.8</ele>
        <time>2023-05-23T13:26:06Z</time>
      </trkpt>
      <trkpt lat="48.97727" lon="-0.46014">
        <ele>111.6</ele>
        <time>2023-05-23T13:26:07Z</time>
      </trkpt>
      <trkpt lat="48.97734" lon="-0.46027">
        <ele>111.2</ele>
        <time>2023-05-23T13:26:08Z</time>
      </trkpt>
      <trkpt lat="48.9774" lon="-0.4604">
        <ele>111</ele>
        <time>2023-05-23T13:26:09Z</time>
      </trkpt>
      <trkpt lat="48.97745" lon="-0.46053">
        <ele>111</ele>
        <time>2023-05-23T13:26:10Z</time>
      </trkpt>
      <trkpt lat="48.9775" lon="-0.46068">
        <ele>110.8</ele>
        <time>2023-05-23T13:26:11Z</time>
      </trkpt>
      <trkpt lat="48.97755" lon="-0.46082">
        <ele>110.6</ele>
        <time>2023-05-23T13:26:12Z</time>
      </trkpt>
      <trkpt lat="48.97759" lon="-0.46097">
        <ele>110.4</ele>
        <time>2023-05-23T13:26:13Z</time>
      </trkpt>
      <trkpt lat="48.97762" lon="-0.46112">
        <ele>110</ele>
        <time>2023-05-23T13:26:14Z</time>
      </trkpt>
      <trkpt lat="48.97765" lon="-0.46128">
        <ele>109.6</ele>
        <time>2023-05-23T13:26:15Z</time>
      </trkpt>
      <trkpt lat="48.97767" lon="-0.46144">
        <ele>109.6</ele>
        <time>2023-05-23T13:26:16Z</time>
      </trkpt>
      <trkpt lat="48.97768" lon="-0.4616">
        <ele>109.4</ele>
        <time>2023-05-23T13:26:17Z</time>
      </trkpt>
      <trkpt lat="48.97769" lon="-0.46176">
        <ele>108.8</ele>
        <time>2023-05-23T13:26:18Z</time>
      </trkpt>
      <trkpt lat="48.9777" lon="-0.46192">
        <ele>108.2</ele>
        <time>2023-05-23T13:26:19Z</time>
      </trkpt>
      <trkpt lat="48.9777" lon="-0.46208">
        <ele>107.6</ele>
        <time>2023-05-23T13:26:20Z</time>
      </trkpt>
      <trkpt lat="48.97771" lon="-0.46225">
        <ele>107</ele>
        <time>2023-05-23T13:26:21Z</time>
      </trkpt>
      <trkpt lat="48.97771" lon="-0.46241">
        <ele>106.4</ele>
        <time>2023-05-23T13:26:22Z</time>
      </trkpt>
      <trkpt lat="48.97772" lon="-0.46257">
        <ele>105.8</ele>
        <time>2023-05-23T13:26:23Z</time>
      </trkpt>
      <trkpt lat="48.97772" lon="-0.46273">
        <ele>105.6</ele>
        <time>2023-05-23T13:26:24Z</time>
      </trkpt>
      <trkpt lat="48.97773" lon="-0.46289">
        <ele>105.2</ele>
        <time>2023-05-23T13:26:25Z</time>
      </trkpt>
      <trkpt lat="48.97773" lon="-0.46305">
        <ele>105</ele>
        <time>2023-05-23T13:26:26Z</time>
      </trkpt>
      <trkpt lat="48.97773" lon="-0.46321">
        <ele>104.6</ele>
        <time>2023-05-23T13:26:27Z</time>
      </trkpt>
      <trkpt lat="48.97774" lon="-0.46336">
        <ele>104.4</ele>
        <time>2023-05-23T13:26:28Z</time>
      </trkpt>
      <trkpt lat="48.97774" lon="-0.46352">
        <ele>104</ele>
        <time>2023-05-23T13:26:29Z</time>
      </trkpt>
      <trkpt lat="48.97774" lon="-0.46367">
        <ele>104</ele>
        <time>2023-05-23T13:26:30Z</time>
      </trkpt>
      <trkpt lat="48.97775" lon="-0.46383">
        <ele>103.6</ele>
        <time>2023-05-23T13:26:31Z</time>
      </trkpt>
      <trkpt lat="48.97775" lon="-0.46398">
        <ele>103.4</ele>
        <time>2023-05-23T13:26:32Z</time>
      </trkpt>
      <trkpt lat="48.97776" lon="-0.46414">
        <ele>103</ele>
        <time>2023-05-23T13:26:33Z</time>
      </trkpt>
      <trkpt lat="48.97776" lon="-0.46429">
        <ele>102.6</ele>
        <time>2023-05-23T13:26:34Z</time>
      </trkpt>
      <trkpt lat="48.97776" lon="-0.46445">
        <ele>101.8</ele>
        <time>2023-05-23T13:26:35Z</time>
      </trkpt>
      <trkpt lat="48.97777" lon="-0.4646">
        <ele>101</ele>
        <time>2023-05-23T13:26:36Z</time>
      </trkpt>
      <trkpt lat="48.97777" lon="-0.46476">
        <ele>100.4</ele>
        <time>2023-05-23T13:26:37Z</time>
      </trkpt>
      <trkpt lat="48.97777" lon="-0.46491">
        <ele>99.6</ele>
        <time>2023-05-23T13:26:38Z</time>
      </trkpt>
      <trkpt lat="48.97778" lon="-0.46507">
        <ele>99</ele>
        <time>2023-05-23T13:26:39Z</time>
      </trkpt>
      <trkpt lat="48.97778" lon="-0.46523">
        <ele>98.6</ele>
        <time>2023-05-23T13:26:40Z</time>
      </trkpt>
      <trkpt lat="48.97778" lon="-0.46538">
        <ele>98</ele>
        <time>2023-05-23T13:26:41Z</time>
      </trkpt>
      <trkpt lat="48.97779" lon="-0.46554">
        <ele>97.4</ele>
        <time>2023-05-23T13:26:42Z</time>
      </trkpt>
      <trkpt lat="48.97779" lon="-0.4657">
        <ele>96.6</ele>
        <time>2023-05-23T13:26:43Z</time>
      </trkpt>
      <trkpt lat="48.97779" lon="-0.46586">
        <ele>96.2</ele>
        <time>2023-05-23T13:26:44Z</time>
      </trkpt>
      <trkpt lat="48.97779" lon="-0.46602">
        <ele>95.6</ele>
        <time>2023-05-23T13:26:45Z</time>
      </trkpt>
      <trkpt lat="48.9778" lon="-0.46618">
        <ele>95.4</ele>
        <time>2023-05-23T13:26:46Z</time>
      </trkpt>
      <trkpt lat="48.9778" lon="-0.46635">
        <ele>94.8</ele>
        <time>2023-05-23T13:26:47Z</time>
      </trkpt>
      <trkpt lat="48.97781" lon="-0.4665">
        <ele>94.4</ele>
        <time>2023-05-23T13:26:48Z</time>
      </trkpt>
      <trkpt lat="48.97782" lon="-0.46666">
        <ele>94</ele>
        <time>2023-05-23T13:26:49Z</time>
      </trkpt>
      <trkpt lat="48.97784" lon="-0.46682">
        <ele>93.4</ele>
        <time>2023-05-23T13:26:50Z</time>
      </trkpt>
      <trkpt lat="48.97787" lon="-0.46696">
        <ele>93</ele>
        <time>2023-05-23T13:26:51Z</time>
      </trkpt>
      <trkpt lat="48.97792" lon="-0.46711">
        <ele>92.4</ele>
        <time>2023-05-23T13:26:52Z</time>
      </trkpt>
      <trkpt lat="48.97796" lon="-0.46725">
        <ele>92</ele>
        <time>2023-05-23T13:26:53Z</time>
      </trkpt>
      <trkpt lat="48.97802" lon="-0.46738">
        <ele>91.4</ele>
        <time>2023-05-23T13:26:54Z</time>
      </trkpt>
      <trkpt lat="48.97808" lon="-0.4675">
        <ele>91</ele>
        <time>2023-05-23T13:26:55Z</time>
      </trkpt>
      <trkpt lat="48.97815" lon="-0.46762">
        <ele>90.2</ele>
        <time>2023-05-23T13:26:56Z</time>
      </trkpt>
      <trkpt lat="48.97823" lon="-0.46773">
        <ele>89.6</ele>
        <time>2023-05-23T13:26:57Z</time>
      </trkpt>
      <trkpt lat="48.9783" lon="-0.46783">
        <ele>89</ele>
        <time>2023-05-23T13:26:58Z</time>
      </trkpt>
      <trkpt lat="48.97839" lon="-0.46792">
        <ele>88.2</ele>
        <time>2023-05-23T13:26:59Z</time>
      </trkpt>
      <trkpt lat="48.97847" lon="-0.468">
        <ele>87.6</ele>
        <time>2023-05-23T13:27:00Z</time>
      </trkpt>
      <trkpt lat="48.97856" lon="-0.46807">
        <ele>86.8</ele>
        <time>2023-05-23T13:27:01Z</time>
      </trkpt>
      <trkpt lat="48.97866" lon="-0.46812">
        <ele>86</ele>
        <time>2023-05-23T13:27:02Z</time>
      </trkpt>
      <trkpt lat="48.97876" lon="-0.46817">
        <ele>85.4</ele>
        <time>2023-05-23T13:27:03Z</time>
      </trkpt>
      <trkpt lat="48.97886" lon="-0.46822">
        <ele>84.8</ele>
        <time>2023-05-23T13:27:04Z</time>
      </trkpt>
      <trkpt lat="48.97895" lon="-0.46826">
        <ele>84.2</ele>
        <time>2023-05-23T13:27:05Z</time>
      </trkpt>
      <trkpt lat="48.97905" lon="-0.46831">
        <ele>83.6</ele>
        <time>2023-05-23T13:27:06Z</time>
      </trkpt>
      <trkpt lat="48.97915" lon="-0.46835">
        <ele>83</ele>
        <time>2023-05-23T13:27:07Z</time>
      </trkpt>
      <trkpt lat="48.97925" lon="-0.4684">
        <ele>83</ele>
        <time>2023-05-23T13:27:08Z</time>
      </trkpt>
      <trkpt lat="48.97934" lon="-0.46844">
        <ele>83</ele>
        <time>2023-05-23T13:27:09Z</time>
      </trkpt>
      <trkpt lat="48.97943" lon="-0.46849">
        <ele>83</ele>
        <time>2023-05-23T13:27:10Z</time>
      </trkpt>
      <trkpt lat="48.97952" lon="-0.46853">
        <ele>82.8</ele>
        <time>2023-05-23T13:27:11Z</time>
      </trkpt>
      <trkpt lat="48.97961" lon="-0.46858">
        <ele>82.6</ele>
        <time>2023-05-23T13:27:12Z</time>
      </trkpt>
      <trkpt lat="48.9797" lon="-0.46862">
        <ele>82.6</ele>
        <time>2023-05-23T13:27:13Z</time>
      </trkpt>
      <trkpt lat="48.97978" lon="-0.46866">
        <ele>82.4</ele>
        <time>2023-05-23T13:27:14Z</time>
      </trkpt>
      <trkpt lat="48.97987" lon="-0.4687">
        <ele>82.4</ele>
        <time>2023-05-23T13:27:15Z</time>
      </trkpt>
      <trkpt lat="48.97995" lon="-0.46873">
        <ele>82</ele>
        <time>2023-05-23T13:27:16Z</time>
      </trkpt>
      <trkpt lat="48.98004" lon="-0.46877">
        <ele>82</ele>
        <time>2023-05-23T13:27:17Z</time>
      </trkpt>
      <trkpt lat="48.98012" lon="-0.46881">
        <ele>81.6</ele>
        <time>2023-05-23T13:27:18Z</time>
      </trkpt>
      <trkpt lat="48.98021" lon="-0.46885">
        <ele>81.6</ele>
        <time>2023-05-23T13:27:19Z</time>
      </trkpt>
      <trkpt lat="48.98029" lon="-0.46889">
        <ele>81.4</ele>
        <time>2023-05-23T13:27:20Z</time>
      </trkpt>
      <trkpt lat="48.98038" lon="-0.46893">
        <ele>81</ele>
        <time>2023-05-23T13:27:21Z</time>
      </trkpt>
      <trkpt lat="48.98046" lon="-0.46898">
        <ele>81</ele>
        <time>2023-05-23T13:27:22Z</time>
      </trkpt>
      <trkpt lat="48.98055" lon="-0.46904">
        <ele>80.6</ele>
        <time>2023-05-23T13:27:23Z</time>
      </trkpt>
      <trkpt lat="48.98063" lon="-0.4691">
        <ele>80.4</ele>
        <time>2023-05-23T13:27:24Z</time>
      </trkpt>
      <trkpt lat="48.9807" lon="-0.46917">
        <ele>80</ele>
        <time>2023-05-23T13:27:25Z</time>
      </trkpt>
      <trkpt lat="48.98077" lon="-0.46925">
        <ele>79.8</ele>
        <time>2023-05-23T13:27:26Z</time>
      </trkpt>
      <trkpt lat="48.98084" lon="-0.46934">
        <ele>79.4</ele>
        <time>2023-05-23T13:27:27Z</time>
      </trkpt>
      <trkpt lat="48.9809" lon="-0.46944">
        <ele>79</ele>
        <time>2023-05-23T13:27:28Z</time>
      </trkpt>
      <trkpt lat="48.98095" lon="-0.46955">
        <ele>78.8</ele>
        <time>2023-05-23T13:27:29Z</time>
      </trkpt>
      <trkpt lat="48.98101" lon="-0.46965">
        <ele>78.6</ele>
        <time>2023-05-23T13:27:30Z</time>
      </trkpt>
      <trkpt lat="48.98106" lon="-0.46976">
        <ele>78.4</ele>
        <time>2023-05-23T13:27:31Z</time>
      </trkpt>
      <trkpt lat="48.98112" lon="-0.46987">
        <ele>78</ele>
        <time>2023-05-23T13:27:32Z</time>
      </trkpt>
      <trkpt lat="48.98117" lon="-0.46998">
        <ele>78</ele>
        <time>2023-05-23T13:27:33Z</time>
      </trkpt>
      <trkpt lat="48.98123" lon="-0.47008">
        <ele>78</ele>
        <time>2023-05-23T13:27:34Z</time>
      </trkpt>
      <trkpt lat="48.98128" lon="-0.47019">
        <ele>78</ele>
        <time>2023-05-23T13:27:35Z</time>
      </trkpt>
      <trkpt lat="48.98133" lon="-0.4703">
        <ele>78</ele>
        <time>2023-05-23T13:27:36Z</time>
      </trkpt>
      <trkpt lat="48.98138" lon="-0.4704">
        <ele>78</ele>
        <time>2023-05-23T13:27:37Z</time>
      </trkpt>
      <trkpt lat="48.98143" lon="-0.47051">
        <ele>78</ele>
        <time>2023-05-23T13:27:38Z</time>
      </trkpt>
      <trkpt lat="48.98148" lon="-0.47062">
        <ele>78</ele>
        <time>2023-05-23T13:27:39Z</time>
      </trkpt>
      <trkpt lat="48.98154" lon="-0.47072">
        <ele>78</ele>
        <time>2023-05-23T13:27:40Z</time>
      </trkpt>
      <trkpt lat="48.98159" lon="-0.47082">
        <ele>78</ele>
        <time>2023-05-23T13:27:41Z</time>
      </trkpt>
      <trkpt lat="48.98164" lon="-0.47092">
        <ele>77.8</ele>
        <time>2023-05-23T13:27:42Z</time>
      </trkpt>
      <trkpt lat="48.98168" lon="-0.47102">
        <ele>77.6</ele>
        <time>2023-05-23T13:27:43Z</time>
      </trkpt>
      <trkpt lat="48.98173" lon="-0.47112">
        <ele>77.2</ele>
        <time>2023-05-23T13:27:44Z</time>
      </trkpt>
      <trkpt lat="48.98178" lon="-0.47121">
        <ele>77</ele>
        <time>2023-05-23T13:27:45Z</time>
      </trkpt>
      <trkpt lat="48.98183" lon="-0.47131">
        <ele>76.6</ele>
        <time>2023-05-23T13:27:46Z</time>
      </trkpt>
      <trkpt lat="48.98188" lon="-0.47141">
        <ele>76.2</ele>
        <time>2023-05-23T13:27:47Z</time>
      </trkpt>
      <trkpt lat="48.98193" lon="-0.4715">
        <ele>75.8</ele>
        <time>2023-05-23T13:27:48Z</time>
      </trkpt>
      <trkpt lat="48.98198" lon="-0.4716">
        <ele>75.4</ele>
        <time>2023-05-23T13:27:49Z</time>
      </trkpt>
      <trkpt lat="48.98203" lon="-0.4717">
        <ele>75</ele>
        <time>2023-05-23T13:27:50Z</time>
      </trkpt>
      <trkpt lat="48.98208" lon="-0.4718">
        <ele>74.8</ele>
        <time>2023-05-23T13:27:51Z</time>
      </trkpt>
      <trkpt lat="48.98213" lon="-0.4719">
        <ele>74.6</ele>
        <time>2023-05-23T13:27:52Z</time>
      </trkpt>
      <trkpt lat="48.98218" lon="-0.472">
        <ele>74</ele>
        <time>2023-05-23T13:27:53Z</time>
      </trkpt>
      <trkpt lat="48.98223" lon="-0.4721">
        <ele>73.8</ele>
        <time>2023-05-23T13:27:54Z</time>
      </trkpt>
      <trkpt lat="48.98228" lon="-0.4722">
        <ele>73.4</ele>
        <time>2023-05-23T13:27:55Z</time>
      </trkpt>
      <trkpt lat="48.98233" lon="-0.4723">
        <ele>73</ele>
        <time>2023-05-23T13:27:56Z</time>
      </trkpt>
      <trkpt lat="48.98238" lon="-0.4724">
        <ele>72.6</ele>
        <time>2023-05-23T13:27:57Z</time>
      </trkpt>
      <trkpt lat="48.98243" lon="-0.47251">
        <ele>72.2</ele>
        <time>2023-05-23T13:27:58Z</time>
      </trkpt>
      <trkpt lat="48.98249" lon="-0.47261">
        <ele>71.8</ele>
        <time>2023-05-23T13:27:59Z</time>
      </trkpt>
      <trkpt lat="48.98254" lon="-0.47271">
        <ele>71.4</ele>
        <time>2023-05-23T13:28:00Z</time>
      </trkpt>
      <trkpt lat="48.98259" lon="-0.47282">
        <ele>71</ele>
        <time>2023-05-23T13:28:01Z</time>
      </trkpt>
      <trkpt lat="48.98264" lon="-0.47292">
        <ele>70.6</ele>
        <time>2023-05-23T13:28:02Z</time>
      </trkpt>
      <trkpt lat="48.98269" lon="-0.47302">
        <ele>70.4</ele>
        <time>2023-05-23T13:28:03Z</time>
      </trkpt>
      <trkpt lat="48.98274" lon="-0.47312">
        <ele>70</ele>
        <time>2023-05-23T13:28:04Z</time>
      </trkpt>
      <trkpt lat="48.98279" lon="-0.47322">
        <ele>69.6</ele>
        <time>2023-05-23T13:28:05Z</time>
      </trkpt>
      <trkpt lat="48.98284" lon="-0.47332">
        <ele>69.2</ele>
        <time>2023-05-23T13:28:06Z</time>
      </trkpt>
      <trkpt lat="48.98288" lon="-0.47342">
        <ele>68.6</ele>
        <time>2023-05-23T13:28:07Z</time>
      </trkpt>
      <trkpt lat="48.98292" lon="-0.47351">
        <ele>68.2</ele>
        <time>2023-05-23T13:28:08Z</time>
      </trkpt>
      <trkpt lat="48.98297" lon="-0.47358">
        <ele>67.8</ele>
        <time>2023-05-23T13:28:09Z</time>
      </trkpt>
      <trkpt lat="48.98301" lon="-0.47364">
        <ele>67.6</ele>
        <time>2023-05-23T13:28:10Z</time>
      </trkpt>
      <trkpt lat="48.98306" lon="-0.47366">
        <ele>67.2</ele>
        <time>2023-05-23T13:28:11Z</time>
      </trkpt>
      <trkpt lat="48.98311" lon="-0.47366">
        <ele>67</ele>
        <time>2023-05-23T13:28:12Z</time>
      </trkpt>
      <trkpt lat="48.98316" lon="-0.47364">
        <ele>67</ele>
        <time>2023-05-23T13:28:13Z</time>
      </trkpt>
      <trkpt lat="48.98322" lon="-0.47362">
        <ele>67</ele>
        <time>2023-05-23T13:28:14Z</time>
      </trkpt>
      <trkpt lat="48.98328" lon="-0.47359">
        <ele>67</ele>
        <time>2023-05-23T13:28:15Z</time>
      </trkpt>
      <trkpt lat="48.98334" lon="-0.47357">
        <ele>67</ele>
        <time>2023-05-23T13:28:16Z</time>
      </trkpt>
      <trkpt lat="48.9834" lon="-0.47355">
        <ele>67</ele>
        <time>2023-05-23T13:28:17Z</time>
      </trkpt>
      <trkpt lat="48.98346" lon="-0.47352">
        <ele>66.8</ele>
        <time>2023-05-23T13:28:18Z</time>
      </trkpt>
      <trkpt lat="48.98353" lon="-0.47351">
        <ele>66.8</ele>
        <time>2023-05-23T13:28:19Z</time>
      </trkpt>
      <trkpt lat="48.98359" lon="-0.47349">
        <ele>66.8</ele>
        <time>2023-05-23T13:28:20Z</time>
      </trkpt>
      <trkpt lat="48.98365" lon="-0.47347">
        <ele>66.6</ele>
        <time>2023-05-23T13:28:21Z</time>
      </trkpt>
      <trkpt lat="48.98372" lon="-0.47346">
        <ele>66.6</ele>
        <time>2023-05-23T13:28:22Z</time>
      </trkpt>
      <trkpt lat="48.98378" lon="-0.47345">
        <ele>66.6</ele>
        <time>2023-05-23T13:28:23Z</time>
      </trkpt>
      <trkpt lat="48.98384" lon="-0.47345">
        <ele>66.4</ele>
        <time>2023-05-23T13:28:24Z</time>
      </trkpt>
      <trkpt lat="48.98391" lon="-0.47344">
        <ele>66.4</ele>
        <time>2023-05-23T13:28:25Z</time>
      </trkpt>
      <trkpt lat="48.98398" lon="-0.47344">
        <ele>66</ele>
        <time>2023-05-23T13:28:26Z</time>
      </trkpt>
      <trkpt lat="48.98405" lon="-0.47343">
        <ele>66</ele>
        <time>2023-05-23T13:28:27Z</time>
      </trkpt>
      <trkpt lat="48.98413" lon="-0.47343">
        <ele>65.8</ele>
        <time>2023-05-23T13:28:28Z</time>
      </trkpt>
      <trkpt lat="48.98421" lon="-0.47343">
        <ele>65.6</ele>
        <time>2023-05-23T13:28:29Z</time>
      </trkpt>
      <trkpt lat="48.98429" lon="-0.47344">
        <ele>65.4</ele>
        <time>2023-05-23T13:28:30Z</time>
      </trkpt>
      <trkpt lat="48.98437" lon="-0.47345">
        <ele>65</ele>
        <time>2023-05-23T13:28:31Z</time>
      </trkpt>
      <trkpt lat="48.98445" lon="-0.47346">
        <ele>64.6</ele>
        <time>2023-05-23T13:28:32Z</time>
      </trkpt>
      <trkpt lat="48.98453" lon="-0.47349">
        <ele>64.4</ele>
        <time>2023-05-23T13:28:33Z</time>
      </trkpt>
      <trkpt lat="48.98461" lon="-0.47352">
        <ele>64</ele>
        <time>2023-05-23T13:28:34Z</time>
      </trkpt>
      <trkpt lat="48.98469" lon="-0.47355">
        <ele>63.6</ele>
        <time>2023-05-23T13:28:35Z</time>
      </trkpt>
      <trkpt lat="48.98476" lon="-0.47358">
        <ele>63.2</ele>
        <time>2023-05-23T13:28:36Z</time>
      </trkpt>
      <trkpt lat="48.98484" lon="-0.47361">
        <ele>63</ele>
        <time>2023-05-23T13:28:37Z</time>
      </trkpt>
      <trkpt lat="48.98491" lon="-0.47365">
        <ele>62.6</ele>
        <time>2023-05-23T13:28:38Z</time>
      </trkpt>
      <trkpt lat="48.98499" lon="-0.47369">
        <ele>62.2</ele>
        <time>2023-05-23T13:28:39Z</time>
      </trkpt>
      <trkpt lat="48.98506" lon="-0.47374">
        <ele>62</ele>
        <time>2023-05-23T13:28:40Z</time>
      </trkpt>
      <trkpt lat="48.98513" lon="-0.47379">
        <ele>61.6</ele>
        <time>2023-05-23T13:28:41Z</time>
      </trkpt>
      <trkpt lat="48.9852" lon="-0.47384">
        <ele>61.2</ele>
        <time>2023-05-23T13:28:42Z</time>
      </trkpt>
      <trkpt lat="48.98527" lon="-0.47389">
        <ele>61</ele>
        <time>2023-05-23T13:28:43Z</time>
      </trkpt>
      <trkpt lat="48.98534" lon="-0.47394">
        <ele>60.6</ele>
        <time>2023-05-23T13:28:44Z</time>
      </trkpt>
      <trkpt lat="48.98541" lon="-0.474">
        <ele>60</ele>
        <time>2023-05-23T13:28:45Z</time>
      </trkpt>
      <trkpt lat="48.98547" lon="-0.47406">
        <ele>59.8</ele>
        <time>2023-05-23T13:28:46Z</time>
      </trkpt>
      <trkpt lat="48.98554" lon="-0.47413">
        <ele>59.2</ele>
        <time>2023-05-23T13:28:47Z</time>
      </trkpt>
      <trkpt lat="48.98561" lon="-0.4742">
        <ele>58.8</ele>
        <time>2023-05-23T13:28:48Z</time>
      </trkpt>
      <trkpt lat="48.98567" lon="-0.47427">
        <ele>58.2</ele>
        <time>2023-05-23T13:28:49Z</time>
      </trkpt>
      <trkpt lat="48.98574" lon="-0.47434">
        <ele>58</ele>
        <time>2023-05-23T13:28:50Z</time>
      </trkpt>
      <trkpt lat="48.9858" lon="-0.47442">
        <ele>57.6</ele>
        <time>2023-05-23T13:28:51Z</time>
      </trkpt>
      <trkpt lat="48.98586" lon="-0.47451">
        <ele>57</ele>
        <time>2023-05-23T13:28:52Z</time>
      </trkpt>
      <trkpt lat="48.98592" lon="-0.4746">
        <ele>56.2</ele>
        <time>2023-05-23T13:28:53Z</time>
      </trkpt>
      <trkpt lat="48.98598" lon="-0.4747">
        <ele>55.6</ele>
        <time>2023-05-23T13:28:54Z</time>
      </trkpt>
      <trkpt lat="48.98604" lon="-0.4748">
        <ele>54.8</ele>
        <time>2023-05-23T13:28:55Z</time>
      </trkpt>
      <trkpt lat="48.9861" lon="-0.4749">
        <ele>54</ele>
        <time>2023-05-23T13:28:56Z</time>
      </trkpt>
      <trkpt lat="48.98615" lon="-0.47501">
        <ele>53.4</ele>
        <time>2023-05-23T13:28:57Z</time>
      </trkpt>
      <trkpt lat="48.9862" lon="-0.47513">
        <ele>53</ele>
        <time>2023-05-23T13:28:58Z</time>
      </trkpt>
      <trkpt lat="48.98625" lon="-0.47524">
        <ele>52.8</ele>
        <time>2023-05-23T13:28:59Z</time>
      </trkpt>
      <trkpt lat="48.98629" lon="-0.47536">
        <ele>52.4</ele>
        <time>2023-05-23T13:29:00Z</time>
      </trkpt>
      <trkpt lat="48.98634" lon="-0.47548">
        <ele>52.2</ele>
        <time>2023-05-23T13:29:01Z</time>
      </trkpt>
      <trkpt lat="48.98638" lon="-0.47559">
        <ele>52</ele>
        <time>2023-05-23T13:29:02Z</time>
      </trkpt>
      <trkpt lat="48.98641" lon="-0.47571">
        <ele>52</ele>
        <time>2023-05-23T13:29:03Z</time>
      </trkpt>
      <trkpt lat="48.98645" lon="-0.47583">
        <ele>52</ele>
        <time>2023-05-23T13:29:04Z</time>
      </trkpt>
      <trkpt lat="48.98649" lon="-0.47595">
        <ele>52</ele>
        <time>2023-05-23T13:29:05Z</time>
      </trkpt>
      <trkpt lat="48.98652" lon="-0.47607">
        <ele>52</ele>
        <time>2023-05-23T13:29:06Z</time>
      </trkpt>
      <trkpt lat="48.98655" lon="-0.47618">
        <ele>52</ele>
        <time>2023-05-23T13:29:07Z</time>
      </trkpt>
      <trkpt lat="48.98658" lon="-0.47629">
        <ele>52</ele>
        <time>2023-05-23T13:29:08Z</time>
      </trkpt>
      <trkpt lat="48.98661" lon="-0.4764">
        <ele>52</ele>
        <time>2023-05-23T13:29:09Z</time>
      </trkpt>
      <trkpt lat="48.98663" lon="-0.47651">
        <ele>52</ele>
        <time>2023-05-23T13:29:10Z</time>
      </trkpt>
      <trkpt lat="48.98666" lon="-0.47661">
        <ele>52</ele>
        <time>2023-05-23T13:29:11Z</time>
      </trkpt>
      <trkpt lat="48.98668" lon="-0.47671">
        <ele>51.8</ele>
        <time>2023-05-23T13:29:12Z</time>
      </trkpt>
      <trkpt lat="48.9867" lon="-0.4768">
        <ele>51.2</ele>
        <time>2023-05-23T13:29:13Z</time>
      </trkpt>
      <trkpt lat="48.98672" lon="-0.47688">
        <ele>51</ele>
        <time>2023-05-23T13:29:14Z</time>
      </trkpt>
      <trkpt lat="48.98673" lon="-0.47695">
        <ele>50.6</ele>
        <time>2023-05-23T13:29:15Z</time>
      </trkpt>
      <trkpt lat="48.98675" lon="-0.47701">
        <ele>50.4</ele>
        <time>2023-05-23T13:29:16Z</time>
      </trkpt>
      <trkpt lat="48.98676" lon="-0.47707">
        <ele>50</ele>
        <time>2023-05-23T13:29:17Z</time>
      </trkpt>
      <trkpt lat="48.98677" lon="-0.47711">
        <ele>50</ele>
        <time>2023-05-23T13:29:18Z</time>
      </trkpt>
      <trkpt lat="48.98678" lon="-0.47714">
        <ele>49.8</ele>
        <time>2023-05-23T13:29:19Z</time>
      </trkpt>
      <trkpt lat="48.98678" lon="-0.47717">
        <ele>49.8</ele>
        <time>2023-05-23T13:29:20Z</time>
      </trkpt>
      <trkpt lat="48.98678" lon="-0.47719">
        <ele>49.8</ele>
        <time>2023-05-23T13:29:21Z</time>
      </trkpt>
      <trkpt lat="48.98678" lon="-0.4772">
        <ele>49.8</ele>
        <time>2023-05-23T13:29:22Z</time>
      </trkpt>
      <trkpt lat="48.98679" lon="-0.47723">
        <ele>49.6</ele>
        <time>2023-05-23T13:29:23Z</time>
      </trkpt>
      <trkpt lat="48.98681" lon="-0.47726">
        <ele>49.2</ele>
        <time>2023-05-23T13:29:24Z</time>
      </trkpt>
      <trkpt lat="48.98684" lon="-0.47729">
        <ele>49</ele>
        <time>2023-05-23T13:29:25Z</time>
      </trkpt>
      <trkpt lat="48.98688" lon="-0.47731">
        <ele>48.8</ele>
        <time>2023-05-23T13:29:26Z</time>
      </trkpt>
      <trkpt lat="48.98691" lon="-0.47736">
        <ele>48.4</ele>
        <time>2023-05-23T13:29:27Z</time>
      </trkpt>
      <trkpt lat="48.98692" lon="-0.47743">
        <ele>48.2</ele>
        <time>2023-05-23T13:29:28Z</time>
      </trkpt>
      <trkpt lat="48.98691" lon="-0.47749">
        <ele>48.2</ele>
        <time>2023-05-23T13:29:29Z</time>
      </trkpt>
      <trkpt lat="48.98689" lon="-0.47755">
        <ele>48.4</ele>
        <time>2023-05-23T13:29:30Z</time>
      </trkpt>
      <trkpt lat="48.98687" lon="-0.47761">
        <ele>48.6</ele>
        <time>2023-05-23T13:29:31Z</time>
      </trkpt>
      <trkpt lat="48.98687" lon="-0.47767">
        <ele>48.8</ele>
        <time>2023-05-23T13:29:32Z</time>
      </trkpt>
      <trkpt lat="48.98688" lon="-0.47774">
        <ele>48.8</ele>
        <time>2023-05-23T13:29:33Z</time>
      </trkpt>
      <trkpt lat="48.98689" lon="-0.47781">
        <ele>48.8</ele>
        <time>2023-05-23T13:29:34Z</time>
      </trkpt>
      <trkpt lat="48.98691" lon="-0.47789">
        <ele>48.8</ele>
        <time>2023-05-23T13:29:35Z</time>
      </trkpt>
      <trkpt lat="48.98692" lon="-0.47796">
        <ele>48.8</ele>
        <time>2023-05-23T13:29:36Z</time>
      </trkpt>
      <trkpt lat="48.98694" lon="-0.47803">
        <ele>48.6</ele>
        <time>2023-05-23T13:29:37Z</time>
      </trkpt>
      <trkpt lat="48.98696" lon="-0.47811">
        <ele>48.8</ele>
        <time>2023-05-23T13:29:38Z</time>
      </trkpt>
      <trkpt lat="48.98698" lon="-0.47819">
        <ele>48.8</ele>
        <time>2023-05-23T13:29:39Z</time>
      </trkpt>
      <trkpt lat="48.987" lon="-0.47827">
        <ele>48.8</ele>
        <time>2023-05-23T13:29:40Z</time>
      </trkpt>
      <trkpt lat="48.98702" lon="-0.47835">
        <ele>48.8</ele>
        <time>2023-05-23T13:29:41Z</time>
      </trkpt>
      <trkpt lat="48.98704" lon="-0.47843">
        <ele>48.6</ele>
        <time>2023-05-23T13:29:42Z</time>
      </trkpt>
      <trkpt lat="48.98706" lon="-0.47851">
        <ele>48.6</ele>
        <time>2023-05-23T13:29:43Z</time>
      </trkpt>
      <trkpt lat="48.98707" lon="-0.47859">
        <ele>48.4</ele>
        <time>2023-05-23T13:29:44Z</time>
      </trkpt>
      <trkpt lat="48.98709" lon="-0.47866">
        <ele>48.2</ele>
        <time>2023-05-23T13:29:45Z</time>
      </trkpt>
      <trkpt lat="48.98709" lon="-0.47874">
        <ele>48.2</ele>
        <time>2023-05-23T13:29:46Z</time>
      </trkpt>
      <trkpt lat="48.9871" lon="-0.47881">
        <ele>48</ele>
        <time>2023-05-23T13:29:47Z</time>
      </trkpt>
      <trkpt lat="48.98709" lon="-0.47888">
        <ele>48</ele>
        <time>2023-05-23T13:29:48Z</time>
      </trkpt>
      <trkpt lat="48.98708" lon="-0.47895">
        <ele>48.2</ele>
        <time>2023-05-23T13:29:49Z</time>
      </trkpt>
      <trkpt lat="48.98707" lon="-0.47902">
        <ele>48.2</ele>
        <time>2023-05-23T13:29:50Z</time>
      </trkpt>
      <trkpt lat="48.98707" lon="-0.47907">
        <ele>48</ele>
        <time>2023-05-23T13:29:51Z</time>
      </trkpt>
      <trkpt lat="48.98709" lon="-0.47912">
        <ele>48</ele>
        <time>2023-05-23T13:29:52Z</time>
      </trkpt>
      <trkpt lat="48.98712" lon="-0.47915">
        <ele>47.8</ele>
        <time>2023-05-23T13:29:53Z</time>
      </trkpt>
      <trkpt lat="48.98716" lon="-0.47919">
        <ele>47.4</ele>
        <time>2023-05-23T13:29:54Z</time>
      </trkpt>
      <trkpt lat="48.98721" lon="-0.47923">
        <ele>47</ele>
        <time>2023-05-23T13:29:55Z</time>
      </trkpt>
      <trkpt lat="48.98725" lon="-0.47928">
        <ele>46.8</ele>
        <time>2023-05-23T13:29:56Z</time>
      </trkpt>
      <trkpt lat="48.9873" lon="-0.47933">
        <ele>46.4</ele>
        <time>2023-05-23T13:29:57Z</time>
      </trkpt>
      <trkpt lat="48.98736" lon="-0.47937">
        <ele>46</ele>
        <time>2023-05-23T13:29:58Z</time>
      </trkpt>
      <trkpt lat="48.98742" lon="-0.47941">
        <ele>45.6</ele>
        <time>2023-05-23T13:29:59Z</time>
      </trkpt>
      <trkpt lat="48.98748" lon="-0.47946">
        <ele>45</ele>
        <time>2023-05-23T13:30:00Z</time>
      </trkpt>
      <trkpt lat="48.98754" lon="-0.47951">
        <ele>44.6</ele>
        <time>2023-05-23T13:30:01Z</time>
      </trkpt>
      <trkpt lat="48.9876" lon="-0.47955">
        <ele>43.6</ele>
        <time>2023-05-23T13:30:02Z</time>
      </trkpt>
      <trkpt lat="48.98766" lon="-0.4796">
        <ele>42.8</ele>
        <time>2023-05-23T13:30:03Z</time>
      </trkpt>
      <trkpt lat="48.98771" lon="-0.47965">
        <ele>42</ele>
        <time>2023-05-23T13:30:04Z</time>
      </trkpt>
      <trkpt lat="48.98777" lon="-0.47971">
        <ele>41</ele>
        <time>2023-05-23T13:30:05Z</time>
      </trkpt>
      <trkpt lat="48.98781" lon="-0.47979">
        <ele>40.2</ele>
        <time>2023-05-23T13:30:06Z</time>
      </trkpt>
      <trkpt lat="48.98785" lon="-0.47987">
        <ele>39.6</ele>
        <time>2023-05-23T13:30:07Z</time>
      </trkpt>
      <trkpt lat="48.98789" lon="-0.47997">
        <ele>39</ele>
        <time>2023-05-23T13:30:08Z</time>
      </trkpt>
      <trkpt lat="48.98794" lon="-0.48008">
        <ele>38</ele>
        <time>2023-05-23T13:30:09Z</time>
      </trkpt>
      <trkpt lat="48.98798" lon="-0.48019">
        <ele>37.4</ele>
        <time>2023-05-23T13:30:10Z</time>
      </trkpt>
      <trkpt lat="48.98802" lon="-0.48031">
        <ele>36.8</ele>
        <time>2023-05-23T13:30:11Z</time>
      </trkpt>
      <trkpt lat="48.98807" lon="-0.48042">
        <ele>36</ele>
        <time>2023-05-23T13:30:12Z</time>
      </trkpt>
      <trkpt lat="48.98812" lon="-0.48053">
        <ele>35.2</ele>
        <time>2023-05-23T13:30:13Z</time>
      </trkpt>
      <trkpt lat="48.98817" lon="-0.48064">
        <ele>34.8</ele>
        <time>2023-05-23T13:30:14Z</time>
      </trkpt>
      <trkpt lat="48.98823" lon="-0.48074">
        <ele>34</ele>
        <time>2023-05-23T13:30:15Z</time>
      </trkpt>
      <trkpt lat="48.98829" lon="-0.48084">
        <ele>33.4</ele>
        <time>2023-05-23T13:30:16Z</time>
      </trkpt>
      <trkpt lat="48.98835" lon="-0.48094">
        <ele>32.6</ele>
        <time>2023-05-23T13:30:17Z</time>
      </trkpt>
      <trkpt lat="48.98841" lon="-0.48103">
        <ele>31.8</ele>
        <time>2023-05-23T13:30:18Z</time>
      </trkpt>
      <trkpt lat="48.98847" lon="-0.48112">
        <ele>31.2</ele>
        <time>2023-05-23T13:30:19Z</time>
      </trkpt>
      <trkpt lat="48.98852" lon="-0.48121">
        <ele>30.6</ele>
        <time>2023-05-23T13:30:20Z</time>
      </trkpt>
      <trkpt lat="48.98857" lon="-0.4813">
        <ele>30</ele>
        <time>2023-05-23T13:30:21Z</time>
      </trkpt>
      <trkpt lat="48.98862" lon="-0.48138">
        <ele>29.4</ele>
        <time>2023-05-23T13:30:22Z</time>
      </trkpt>
      <trkpt lat="48.98866" lon="-0.48146">
        <ele>28.8</ele>
        <time>2023-05-23T13:30:23Z</time>
      </trkpt>
      <trkpt lat="48.9887" lon="-0.48154">
        <ele>28.4</ele>
        <time>2023-05-23T13:30:24Z</time>
      </trkpt>
      <trkpt lat="48.98873" lon="-0.48159">
        <ele>27.8</ele>
        <time>2023-05-23T13:30:25Z</time>
      </trkpt>
      <trkpt lat="48.98877" lon="-0.48163">
        <ele>27.6</ele>
        <time>2023-05-23T13:30:26Z</time>
      </trkpt>
      <trkpt lat="48.98881" lon="-0.48164">
        <ele>27.2</ele>
        <time>2023-05-23T13:30:27Z</time>
      </trkpt>
      <trkpt lat="48.98885" lon="-0.48163">
        <ele>27</ele>
        <time>2023-05-23T13:30:28Z</time>
      </trkpt>
      <trkpt lat="48.98889" lon="-0.48162">
        <ele>26.8</ele>
        <time>2023-05-23T13:30:29Z</time>
      </trkpt>
      <trkpt lat="48.98893" lon="-0.48162">
        <ele>26.6</ele>
        <time>2023-05-23T13:30:30Z</time>
      </trkpt>
      <trkpt lat="48.98898" lon="-0.48162">
        <ele>26.4</ele>
        <time>2023-05-23T13:30:31Z</time>
      </trkpt>
      <trkpt lat="48.98902" lon="-0.48161">
        <ele>26.2</ele>
        <time>2023-05-23T13:30:32Z</time>
      </trkpt>
      <trkpt lat="48.98906" lon="-0.48161">
        <ele>25.8</ele>
        <time>2023-05-23T13:30:33Z</time>
      </trkpt>
      <trkpt lat="48.9891" lon="-0.4816">
        <ele>25.8</ele>
        <time>2023-05-23T13:30:34Z</time>
      </trkpt>
      <trkpt lat="48.98914" lon="-0.4816">
        <ele>25.6</ele>
        <time>2023-05-23T13:30:35Z</time>
      </trkpt>
      <trkpt lat="48.98918" lon="-0.48159">
        <ele>25.4</ele>
        <time>2023-05-23T13:30:36Z</time>
      </trkpt>
      <trkpt lat="48.98921" lon="-0.48158">
        <ele>25.6</ele>
        <time>2023-05-23T13:30:37Z</time>
      </trkpt>
      <trkpt lat="48.98924" lon="-0.48157">
        <ele>25.8</ele>
        <time>2023-05-23T13:30:38Z</time>
      </trkpt>
      <trkpt lat="48.98926" lon="-0.48157">
        <ele>25.8</ele>
        <time>2023-05-23T13:30:39Z</time>
      </trkpt>
      <trkpt lat="48.98929" lon="-0.48157">
        <ele>25.8</ele>
        <time>2023-05-23T13:30:40Z</time>
      </trkpt>
      <trkpt lat="48.98932" lon="-0.48158">
        <ele>25.8</ele>
        <time>2023-05-23T13:30:41Z</time>
      </trkpt>
      <trkpt lat="48.98935" lon="-0.48159">
        <ele>25.8</ele>
        <time>2023-05-23T13:30:42Z</time>
      </trkpt>
      <trkpt lat="48.98938" lon="-0.48159">
        <ele>26</ele>
        <time>2023-05-23T13:30:43Z</time>
      </trkpt>
      <trkpt lat="48.98941" lon="-0.48158">
        <ele>26.2</ele>
        <time>2023-05-23T13:30:44Z</time>
      </trkpt>
      <trkpt lat="48.98945" lon="-0.48158">
        <ele>26.2</ele>
        <time>2023-05-23T13:30:45Z</time>
      </trkpt>
      <trkpt lat="48.98949" lon="-0.48159">
        <ele>26.2</ele>
        <time>2023-05-23T13:30:46Z</time>
      </trkpt>
      <trkpt lat="48.98953" lon="-0.4816">
        <ele>26.4</ele>
        <time>2023-05-23T13:30:47Z</time>
      </trkpt>
      <trkpt lat="48.98958" lon="-0.48161">
        <ele>26.4</ele>
        <time>2023-05-23T13:30:48Z</time>
      </trkpt>
      <trkpt lat="48.98962" lon="-0.48162">
        <ele>26.6</ele>
        <time>2023-05-23T13:30:49Z</time>
      </trkpt>
      <trkpt lat="48.98967" lon="-0.48162">
        <ele>26.6</ele>
        <time>2023-05-23T13:30:50Z</time>
      </trkpt>
      <trkpt lat="48.98972" lon="-0.48163">
        <ele>26.8</ele>
        <time>2023-05-23T13:30:51Z</time>
      </trkpt>
      <trkpt lat="48.98977" lon="-0.48163">
        <ele>26.8</ele>
        <time>2023-05-23T13:30:52Z</time>
      </trkpt>
      <trkpt lat="48.98981" lon="-0.48164">
        <ele>26.8</ele>
        <time>2023-05-23T13:30:53Z</time>
      </trkpt>
      <trkpt lat="48.98986" lon="-0.48165">
        <ele>26.8</ele>
        <time>2023-05-23T13:30:54Z</time>
      </trkpt>
      <trkpt lat="48.98991" lon="-0.48166">
        <ele>26.8</ele>
        <time>2023-05-23T13:30:55Z</time>
      </trkpt>
      <trkpt lat="48.98995" lon="-0.48166">
        <ele>26.8</ele>
        <time>2023-05-23T13:30:56Z</time>
      </trkpt>
      <trkpt lat="48.99" lon="-0.48167">
        <ele>27</ele>
        <time>2023-05-23T13:30:57Z</time>
      </trkpt>
      <trkpt lat="48.99004" lon="-0.48168">
        <ele>27</ele>
        <time>2023-05-23T13:30:58Z</time>
      </trkpt>
      <trkpt lat="48.99009" lon="-0.48169">
        <ele>27</ele>
        <time>2023-05-23T13:30:59Z</time>
      </trkpt>
      <trkpt lat="48.99014" lon="-0.48171">
        <ele>27</ele>
        <time>2023-05-23T13:31:00Z</time>
      </trkpt>
      <trkpt lat="48.99019" lon="-0.48172">
        <ele>27.2</ele>
        <time>2023-05-23T13:31:01Z</time>
      </trkpt>
      <trkpt lat="48.99024" lon="-0.48173">
        <ele>27.2</ele>
        <time>2023-05-23T13:31:02Z</time>
      </trkpt>
      <trkpt lat="48.99029" lon="-0.48175">
        <ele>27.2</ele>
        <time>2023-05-23T13:31:03Z</time>
      </trkpt>
      <trkpt lat="48.99035" lon="-0.48176">
        <ele>27.2</ele>
        <time>2023-05-23T13:31:04Z</time>
      </trkpt>
      <trkpt lat="48.9904" lon="-0.48177">
        <ele>27</ele>
        <time>2023-05-23T13:31:05Z</time>
      </trkpt>
      <trkpt lat="48.99046" lon="-0.48179">
        <ele>27</ele>
        <time>2023-05-23T13:31:06Z</time>
      </trkpt>
      <trkpt lat="48.99051" lon="-0.48181">
        <ele>27</ele>
        <time>2023-05-23T13:31:07Z</time>
      </trkpt>
      <trkpt lat="48.99057" lon="-0.48182">
        <ele>26.8</ele>
        <time>2023-05-23T13:31:08Z</time>
      </trkpt>
      <trkpt lat="48.99062" lon="-0.48183">
        <ele>26.8</ele>
        <time>2023-05-23T13:31:09Z</time>
      </trkpt>
      <trkpt lat="48.99068" lon="-0.48185">
        <ele>26.8</ele>
        <time>2023-05-23T13:31:10Z</time>
      </trkpt>
      <trkpt lat="48.99074" lon="-0.48186">
        <ele>26.8</ele>
        <time>2023-05-23T13:31:11Z</time>
      </trkpt>
      <trkpt lat="48.99079" lon="-0.48188">
        <ele>26.8</ele>
        <time>2023-05-23T13:31:12Z</time>
      </trkpt>
      <trkpt lat="48.99085" lon="-0.48189">
        <ele>26.8</ele>
        <time>2023-05-23T13:31:13Z</time>
      </trkpt>
      <trkpt lat="48.9909" lon="-0.48191">
        <ele>26.8</ele>
        <time>2023-05-23T13:31:14Z</time>
      </trkpt>
      <trkpt lat="48.99096" lon="-0.48192">
        <ele>26.8</ele>
        <time>2023-05-23T13:31:15Z</time>
      </trkpt>
      <trkpt lat="48.99102" lon="-0.48194">
        <ele>27</ele>
        <time>2023-05-23T13:31:16Z</time>
      </trkpt>
      <trkpt lat="48.99108" lon="-0.48196">
        <ele>27</ele>
        <time>2023-05-23T13:31:17Z</time>
      </trkpt>
      <trkpt lat="48.99114" lon="-0.48198">
        <ele>27</ele>
        <time>2023-05-23T13:31:18Z</time>
      </trkpt>
      <trkpt lat="48.99121" lon="-0.482">
        <ele>27.2</ele>
        <time>2023-05-23T13:31:19Z</time>
      </trkpt>
      <trkpt lat="48.99127" lon="-0.48202">
        <ele>27.2</ele>
        <time>2023-05-23T13:31:20Z</time>
      </trkpt>
      <trkpt lat="48.99133" lon="-0.48203">
        <ele>27.2</ele>
        <time>2023-05-23T13:31:21Z</time>
      </trkpt>
      <trkpt lat="48.99139" lon="-0.48205">
        <ele>27.2</ele>
        <time>2023-05-23T13:31:22Z</time>
      </trkpt>
      <trkpt lat="48.99145" lon="-0.48206">
        <ele>27.2</ele>
        <time>2023-05-23T13:31:23Z</time>
      </trkpt>
      <trkpt lat="48.99152" lon="-0.48208">
        <ele>27.2</ele>
        <time>2023-05-23T13:31:24Z</time>
      </trkpt>
      <trkpt lat="48.99157" lon="-0.48209">
        <ele>27.2</ele>
        <time>2023-05-23T13:31:25Z</time>
      </trkpt>
      <trkpt lat="48.99163" lon="-0.48211">
        <ele>27.2</ele>
        <time>2023-05-23T13:31:26Z</time>
      </trkpt>
      <trkpt lat="48.99168" lon="-0.48212">
        <ele>27.2</ele>
        <time>2023-05-23T13:31:27Z</time>
      </trkpt>
      <trkpt lat="48.99174" lon="-0.48214">
        <ele>27.6</ele>
        <time>2023-05-23T13:31:28Z</time>
      </trkpt>
      <trkpt lat="48.99179" lon="-0.48215">
        <ele>27.8</ele>
        <time>2023-05-23T13:31:29Z</time>
      </trkpt>
      <trkpt lat="48.99185" lon="-0.48217">
        <ele>28.2</ele>
        <time>2023-05-23T13:31:30Z</time>
      </trkpt>
      <trkpt lat="48.99191" lon="-0.48218">
        <ele>28.6</ele>
        <time>2023-05-23T13:31:31Z</time>
      </trkpt>
      <trkpt lat="48.99197" lon="-0.4822">
        <ele>28.8</ele>
        <time>2023-05-23T13:31:32Z</time>
      </trkpt>
      <trkpt lat="48.99203" lon="-0.48221">
        <ele>29</ele>
        <time>2023-05-23T13:31:33Z</time>
      </trkpt>
      <trkpt lat="48.99209" lon="-0.48223">
        <ele>29.2</ele>
        <time>2023-05-23T13:31:34Z</time>
      </trkpt>
      <trkpt lat="48.99215" lon="-0.48224">
        <ele>29.6</ele>
        <time>2023-05-23T13:31:35Z</time>
      </trkpt>
      <trkpt lat="48.99221" lon="-0.48226">
        <ele>29.8</ele>
        <time>2023-05-23T13:31:36Z</time>
      </trkpt>
      <trkpt lat="48.99227" lon="-0.48228">
        <ele>29.8</ele>
        <time>2023-05-23T13:31:37Z</time>
      </trkpt>
      <trkpt lat="48.99233" lon="-0.48229">
        <ele>30</ele>
        <time>2023-05-23T13:31:38Z</time>
      </trkpt>
      <trkpt lat="48.99239" lon="-0.48231">
        <ele>30.2</ele>
        <time>2023-05-23T13:31:39Z</time>
      </trkpt>
      <trkpt lat="48.99245" lon="-0.48232">
        <ele>30.2</ele>
        <time>2023-05-23T13:31:40Z</time>
      </trkpt>
      <trkpt lat="48.9925" lon="-0.48234">
        <ele>30.4</ele>
        <time>2023-05-23T13:31:41Z</time>
      </trkpt>
      <trkpt lat="48.99256" lon="-0.48235">
        <ele>31.2</ele>
        <time>2023-05-23T13:31:42Z</time>
      </trkpt>
      <trkpt lat="48.99262" lon="-0.48237">
        <ele>31.8</ele>
        <time>2023-05-23T13:31:43Z</time>
      </trkpt>
      <trkpt lat="48.99268" lon="-0.48238">
        <ele>32.6</ele>
        <time>2023-05-23T13:31:44Z</time>
      </trkpt>
      <trkpt lat="48.99274" lon="-0.4824">
        <ele>33.2</ele>
        <time>2023-05-23T13:31:45Z</time>
      </trkpt>
      <trkpt lat="48.9928" lon="-0.48241">
        <ele>34</ele>
        <time>2023-05-23T13:31:46Z</time>
      </trkpt>
      <trkpt lat="48.99285" lon="-0.48243">
        <ele>34.6</ele>
        <time>2023-05-23T13:31:47Z</time>
      </trkpt>
      <trkpt lat="48.99289" lon="-0.48246">
        <ele>34.8</ele>
        <time>2023-05-23T13:31:48Z</time>
      </trkpt>
      <trkpt lat="48.99293" lon="-0.4825">
        <ele>34.8</ele>
        <time>2023-05-23T13:31:49Z</time>
      </trkpt>
      <trkpt lat="48.99297" lon="-0.48254">
        <ele>35</ele>
        <time>2023-05-23T13:31:50Z</time>
      </trkpt>
      <trkpt lat="48.99301" lon="-0.48257">
        <ele>35.6</ele>
        <time>2023-05-23T13:31:51Z</time>
      </trkpt>
      <trkpt lat="48.99306" lon="-0.48258">
        <ele>36</ele>
        <time>2023-05-23T13:31:52Z</time>
      </trkpt>
      <trkpt lat="48.9931" lon="-0.48258">
        <ele>37</ele>
        <time>2023-05-23T13:31:53Z</time>
      </trkpt>
      <trkpt lat="48.99315" lon="-0.48258">
        <ele>37.8</ele>
        <time>2023-05-23T13:31:54Z</time>
      </trkpt>
      <trkpt lat="48.9932" lon="-0.48258">
        <ele>38.6</ele>
        <time>2023-05-23T13:31:55Z</time>
      </trkpt>
      <trkpt lat="48.99324" lon="-0.48258">
        <ele>39.4</ele>
        <time>2023-05-23T13:31:56Z</time>
      </trkpt>
      <trkpt lat="48.99329" lon="-0.48257">
        <ele>40.2</ele>
        <time>2023-05-23T13:31:57Z</time>
      </trkpt>
      <trkpt lat="48.99333" lon="-0.48256">
        <ele>41</ele>
        <time>2023-05-23T13:31:58Z</time>
      </trkpt>
      <trkpt lat="48.99336" lon="-0.48253">
        <ele>41.8</ele>
        <time>2023-05-23T13:31:59Z</time>
      </trkpt>
      <trkpt lat="48.9934" lon="-0.48249">
        <ele>42.8</ele>
        <time>2023-05-23T13:32:00Z</time>
      </trkpt>
      <trkpt lat="48.99343" lon="-0.48243">
        <ele>44</ele>
        <time>2023-05-23T13:32:01Z</time>
      </trkpt>
      <trkpt lat="48.99346" lon="-0.48237">
        <ele>45.2</ele>
        <time>2023-05-23T13:32:02Z</time>
      </trkpt>
      <trkpt lat="48.99348" lon="-0.4823">
        <ele>46.4</ele>
        <time>2023-05-23T13:32:03Z</time>
      </trkpt>
      <trkpt lat="48.99349" lon="-0.48224">
        <ele>47.4</ele>
        <time>2023-05-23T13:32:04Z</time>
      </trkpt>
      <trkpt lat="48.9935" lon="-0.48219">
        <ele>48.4</ele>
        <time>2023-05-23T13:32:05Z</time>
      </trkpt>
      <trkpt lat="48.99352" lon="-0.48212">
        <ele>49.6</ele>
        <time>2023-05-23T13:32:06Z</time>
      </trkpt>
      <trkpt lat="48.99357" lon="-0.48204">
        <ele>51</ele>
        <time>2023-05-23T13:32:07Z</time>
      </trkpt>
      <trkpt lat="48.99382" lon="-0.482">
        <ele>52.4</ele>
        <time>2023-05-23T13:32:08Z</time>
      </trkpt>
      <trkpt lat="48.99431" lon="-0.4821">
        <ele>48</ele>
        <time>2023-05-23T13:32:24Z</time>
      </trkpt>
      <trkpt lat="48.99456" lon="-0.48214">
        <ele>40.6</ele>
        <time>2023-05-23T13:32:25Z</time>
      </trkpt>
      <trkpt lat="48.99462" lon="-0.48212">
        <ele>39</ele>
        <time>2023-05-23T13:32:26Z</time>
      </trkpt>
      <trkpt lat="48.99467" lon="-0.48209">
        <ele>38</ele>
        <time>2023-05-23T13:32:27Z</time>
      </trkpt>
      <trkpt lat="48.99472" lon="-0.48205">
        <ele>37</ele>
        <time>2023-05-23T13:32:28Z</time>
      </trkpt>
      <trkpt lat="48.99476" lon="-0.48201">
        <ele>36</ele>
        <time>2023-05-23T13:32:29Z</time>
      </trkpt>
      <trkpt lat="48.99481" lon="-0.48196">
        <ele>35.2</ele>
        <time>2023-05-23T13:32:30Z</time>
      </trkpt>
      <trkpt lat="48.99486" lon="-0.48191">
        <ele>34.4</ele>
        <time>2023-05-23T13:32:31Z</time>
      </trkpt>
      <trkpt lat="48.9949" lon="-0.48186">
        <ele>33.8</ele>
        <time>2023-05-23T13:32:32Z</time>
      </trkpt>
      <trkpt lat="48.99495" lon="-0.48181">
        <ele>33</ele>
        <time>2023-05-23T13:32:33Z</time>
      </trkpt>
      <trkpt lat="48.99499" lon="-0.48176">
        <ele>32.2</ele>
        <time>2023-05-23T13:32:34Z</time>
      </trkpt>
      <trkpt lat="48.99503" lon="-0.48171">
        <ele>32</ele>
        <time>2023-05-23T13:32:35Z</time>
      </trkpt>
      <trkpt lat="48.99508" lon="-0.48166">
        <ele>31.8</ele>
        <time>2023-05-23T13:32:36Z</time>
      </trkpt>
      <trkpt lat="48.99512" lon="-0.4816">
        <ele>31.8</ele>
        <time>2023-05-23T13:32:37Z</time>
      </trkpt>
      <trkpt lat="48.99516" lon="-0.48155">
        <ele>31.8</ele>
        <time>2023-05-23T13:32:38Z</time>
      </trkpt>
      <trkpt lat="48.9952" lon="-0.48149">
        <ele>31.8</ele>
        <time>2023-05-23T13:32:39Z</time>
      </trkpt>
      <trkpt lat="48.99524" lon="-0.48143">
        <ele>31.8</ele>
        <time>2023-05-23T13:32:40Z</time>
      </trkpt>
      <trkpt lat="48.99528" lon="-0.48137">
        <ele>31.8</ele>
        <time>2023-05-23T13:32:41Z</time>
      </trkpt>
      <trkpt lat="48.99533" lon="-0.48132">
        <ele>31.6</ele>
        <time>2023-05-23T13:32:42Z</time>
      </trkpt>
      <trkpt lat="48.99537" lon="-0.48126">
        <ele>31.4</ele>
        <time>2023-05-23T13:32:43Z</time>
      </trkpt>
      <trkpt lat="48.99541" lon="-0.48121">
        <ele>31.2</ele>
        <time>2023-05-23T13:32:44Z</time>
      </trkpt>
      <trkpt lat="48.99545" lon="-0.48115">
        <ele>30.8</ele>
        <time>2023-05-23T13:32:45Z</time>
      </trkpt>
      <trkpt lat="48.9955" lon="-0.4811">
        <ele>30.4</ele>
        <time>2023-05-23T13:32:46Z</time>
      </trkpt>
      <trkpt lat="48.99554" lon="-0.48104">
        <ele>30</ele>
        <time>2023-05-23T13:32:47Z</time>
      </trkpt>
      <trkpt lat="48.99558" lon="-0.48099">
        <ele>29.6</ele>
        <time>2023-05-23T13:32:48Z</time>
      </trkpt>
      <trkpt lat="48.99563" lon="-0.48093">
        <ele>29.2</ele>
        <time>2023-05-23T13:32:49Z</time>
      </trkpt>
      <trkpt lat="48.99567" lon="-0.48087">
        <ele>28.6</ele>
        <time>2023-05-23T13:32:50Z</time>
      </trkpt>
      <trkpt lat="48.99571" lon="-0.48082">
        <ele>28.2</ele>
        <time>2023-05-23T13:32:51Z</time>
      </trkpt>
      <trkpt lat="48.99575" lon="-0.48076">
        <ele>28.2</ele>
        <time>2023-05-23T13:32:52Z</time>
      </trkpt>
      <trkpt lat="48.99579" lon="-0.4807">
        <ele>28.2</ele>
        <time>2023-05-23T13:32:53Z</time>
      </trkpt>
      <trkpt lat="48.99584" lon="-0.48065">
        <ele>28.2</ele>
        <time>2023-05-23T13:32:54Z</time>
      </trkpt>
      <trkpt lat="48.99588" lon="-0.48059">
        <ele>28.8</ele>
        <time>2023-05-23T13:32:55Z</time>
      </trkpt>
      <trkpt lat="48.99593" lon="-0.48054">
        <ele>29.6</ele>
        <time>2023-05-23T13:32:56Z</time>
      </trkpt>
      <trkpt lat="48.99597" lon="-0.48048">
        <ele>30</ele>
        <time>2023-05-23T13:32:57Z</time>
      </trkpt>
      <trkpt lat="48.99601" lon="-0.48043">
        <ele>30.6</ele>
        <time>2023-05-23T13:32:58Z</time>
      </trkpt>
      <trkpt lat="48.99605" lon="-0.48037">
        <ele>30.8</ele>
        <time>2023-05-23T13:32:59Z</time>
      </trkpt>
      <trkpt lat="48.99609" lon="-0.48032">
        <ele>31.2</ele>
        <time>2023-05-23T13:33:00Z</time>
      </trkpt>
      <trkpt lat="48.99613" lon="-0.48027">
        <ele>31.4</ele>
        <time>2023-05-23T13:33:01Z</time>
      </trkpt>
      <trkpt lat="48.99617" lon="-0.48021">
        <ele>31.6</ele>
        <time>2023-05-23T13:33:02Z</time>
      </trkpt>
      <trkpt lat="48.99621" lon="-0.48016">
        <ele>31.6</ele>
        <time>2023-05-23T13:33:03Z</time>
      </trkpt>
      <trkpt lat="48.99626" lon="-0.48011">
        <ele>31.6</ele>
        <time>2023-05-23T13:33:04Z</time>
      </trkpt>
      <trkpt lat="48.9963" lon="-0.48006">
        <ele>31.6</ele>
        <time>2023-05-23T13:33:05Z</time>
      </trkpt>
      <trkpt lat="48.99634" lon="-0.48">
        <ele>31.4</ele>
        <time>2023-05-23T13:33:06Z</time>
      </trkpt>
      <trkpt lat="48.99639" lon="-0.47995">
        <ele>31.2</ele>
        <time>2023-05-23T13:33:07Z</time>
      </trkpt>
      <trkpt lat="48.99643" lon="-0.4799">
        <ele>31</ele>
        <time>2023-05-23T13:33:08Z</time>
      </trkpt>
      <trkpt lat="48.99647" lon="-0.47984">
        <ele>30.8</ele>
        <time>2023-05-23T13:33:09Z</time>
      </trkpt>
      <trkpt lat="48.99651" lon="-0.47979">
        <ele>30.8</ele>
        <time>2023-05-23T13:33:10Z</time>
      </trkpt>
      <trkpt lat="48.99655" lon="-0.47973">
        <ele>30.8</ele>
        <time>2023-05-23T13:33:11Z</time>
      </trkpt>
      <trkpt lat="48.9966" lon="-0.47968">
        <ele>30.6</ele>
        <time>2023-05-23T13:33:12Z</time>
      </trkpt>
      <trkpt lat="48.99664" lon="-0.47962">
        <ele>30.6</ele>
        <time>2023-05-23T13:33:13Z</time>
      </trkpt>
      <trkpt lat="48.99668" lon="-0.47956">
        <ele>30.6</ele>
        <time>2023-05-23T13:33:14Z</time>
      </trkpt>
      <trkpt lat="48.99672" lon="-0.4795">
        <ele>30.8</ele>
        <time>2023-05-23T13:33:15Z</time>
      </trkpt>
      <trkpt lat="48.99676" lon="-0.47944">
        <ele>30.8</ele>
        <time>2023-05-23T13:33:16Z</time>
      </trkpt>
      <trkpt lat="48.99681" lon="-0.47938">
        <ele>30.8</ele>
        <time>2023-05-23T13:33:17Z</time>
      </trkpt>
      <trkpt lat="48.99685" lon="-0.47932">
        <ele>30.6</ele>
        <time>2023-05-23T13:33:18Z</time>
      </trkpt>
      <trkpt lat="48.9969" lon="-0.47926">
        <ele>30.4</ele>
        <time>2023-05-23T13:33:19Z</time>
      </trkpt>
      <trkpt lat="48.99694" lon="-0.47919">
        <ele>30.2</ele>
        <time>2023-05-23T13:33:20Z</time>
      </trkpt>
      <trkpt lat="48.99699" lon="-0.47913">
        <ele>29.8</ele>
        <time>2023-05-23T13:33:21Z</time>
      </trkpt>
      <trkpt lat="48.99703" lon="-0.47906">
        <ele>29.4</ele>
        <time>2023-05-23T13:33:22Z</time>
      </trkpt>
      <trkpt lat="48.99708" lon="-0.479">
        <ele>29</ele>
        <time>2023-05-23T13:33:23Z</time>
      </trkpt>
      <trkpt lat="48.99712" lon="-0.47893">
        <ele>28.6</ele>
        <time>2023-05-23T13:33:24Z</time>
      </trkpt>
      <trkpt lat="48.99717" lon="-0.47887">
        <ele>28.2</ele>
        <time>2023-05-23T13:33:25Z</time>
      </trkpt>
      <trkpt lat="48.99721" lon="-0.4788">
        <ele>27.8</ele>
        <time>2023-05-23T13:33:26Z</time>
      </trkpt>
      <trkpt lat="48.99726" lon="-0.47873">
        <ele>27.6</ele>
        <time>2023-05-23T13:33:27Z</time>
      </trkpt>
      <trkpt lat="48.9973" lon="-0.47866">
        <ele>27.2</ele>
        <time>2023-05-23T13:33:28Z</time>
      </trkpt>
      <trkpt lat="48.99734" lon="-0.47859">
        <ele>27</ele>
        <time>2023-05-23T13:33:29Z</time>
      </trkpt>
      <trkpt lat="48.99739" lon="-0.47852">
        <ele>26.8</ele>
        <time>2023-05-23T13:33:30Z</time>
      </trkpt>
      <trkpt lat="48.99743" lon="-0.47845">
        <ele>26.4</ele>
        <time>2023-05-23T13:33:31Z</time>
      </trkpt>
      <trkpt lat="48.99747" lon="-0.47838">
        <ele>26.2</ele>
        <time>2023-05-23T13:33:32Z</time>
      </trkpt>
      <trkpt lat="48.99751" lon="-0.47831">
        <ele>26.2</ele>
        <time>2023-05-23T13:33:33Z</time>
      </trkpt>
      <trkpt lat="48.99755" lon="-0.47824">
        <ele>26.4</ele>
        <time>2023-05-23T13:33:34Z</time>
      </trkpt>
      <trkpt lat="48.99759" lon="-0.47817">
        <ele>26.6</ele>
        <time>2023-05-23T13:33:35Z</time>
      </trkpt>
      <trkpt lat="48.99763" lon="-0.47809">
        <ele>26.8</ele>
        <time>2023-05-23T13:33:36Z</time>
      </trkpt>
      <trkpt lat="48.99768" lon="-0.47802">
        <ele>26.8</ele>
        <time>2023-05-23T13:33:37Z</time>
      </trkpt>
      <trkpt lat="48.99772" lon="-0.47795">
        <ele>27</ele>
        <time>2023-05-23T13:33:38Z</time>
      </trkpt>
      <trkpt lat="48.99776" lon="-0.47788">
        <ele>27.2</ele>
        <time>2023-05-23T13:33:39Z</time>
      </trkpt>
      <trkpt lat="48.9978" lon="-0.47781">
        <ele>27.2</ele>
        <time>2023-05-23T13:33:40Z</time>
      </trkpt>
      <trkpt lat="48.99784" lon="-0.47774">
        <ele>27.2</ele>
        <time>2023-05-23T13:33:41Z</time>
      </trkpt>
      <trkpt lat="48.99788" lon="-0.47766">
        <ele>27</ele>
        <time>2023-05-23T13:33:42Z</time>
      </trkpt>
      <trkpt lat="48.99792" lon="-0.47759">
        <ele>26.8</ele>
        <time>2023-05-23T13:33:43Z</time>
      </trkpt>
      <trkpt lat="48.99797" lon="-0.47752">
        <ele>26.8</ele>
        <time>2023-05-23T13:33:44Z</time>
      </trkpt>
      <trkpt lat="48.99801" lon="-0.47745">
        <ele>26.8</ele>
        <time>2023-05-23T13:33:45Z</time>
      </trkpt>
      <trkpt lat="48.99805" lon="-0.47737">
        <ele>26.6</ele>
        <time>2023-05-23T13:33:46Z</time>
      </trkpt>
      <trkpt lat="48.99809" lon="-0.4773">
        <ele>26.6</ele>
        <time>2023-05-23T13:33:47Z</time>
      </trkpt>
      <trkpt lat="48.99812" lon="-0.47723">
        <ele>26.6</ele>
        <time>2023-05-23T13:33:48Z</time>
      </trkpt>
      <trkpt lat="48.99816" lon="-0.47716">
        <ele>26.4</ele>
        <time>2023-05-23T13:33:49Z</time>
      </trkpt>
      <trkpt lat="48.9982" lon="-0.47708">
        <ele>26.2</ele>
        <time>2023-05-23T13:33:50Z</time>
      </trkpt>
      <trkpt lat="48.99824" lon="-0.47701">
        <ele>26.2</ele>
        <time>2023-05-23T13:33:51Z</time>
      </trkpt>
      <trkpt lat="48.99828" lon="-0.47693">
        <ele>26.2</ele>
        <time>2023-05-23T13:33:52Z</time>
      </trkpt>
      <trkpt lat="48.99831" lon="-0.47686">
        <ele>25.8</ele>
        <time>2023-05-23T13:33:53Z</time>
      </trkpt>
      <trkpt lat="48.99835" lon="-0.47679">
        <ele>25.8</ele>
        <time>2023-05-23T13:33:54Z</time>
      </trkpt>
      <trkpt lat="48.99838" lon="-0.47671">
        <ele>25.8</ele>
        <time>2023-05-23T13:33:55Z</time>
      </trkpt>
      <trkpt lat="48.99841" lon="-0.47663">
        <ele>25.8</ele>
        <time>2023-05-23T13:33:56Z</time>
      </trkpt>
      <trkpt lat="48.99845" lon="-0.47656">
        <ele>25.6</ele>
        <time>2023-05-23T13:33:57Z</time>
      </trkpt>
      <trkpt lat="48.99848" lon="-0.47648">
        <ele>25.6</ele>
        <time>2023-05-23T13:33:58Z</time>
      </trkpt>
      <trkpt lat="48.99851" lon="-0.4764">
        <ele>25.6</ele>
        <time>2023-05-23T13:33:59Z</time>
      </trkpt>
      <trkpt lat="48.99855" lon="-0.47633">
        <ele>25.4</ele>
        <time>2023-05-23T13:34:00Z</time>
      </trkpt>
      <trkpt lat="48.99858" lon="-0.47625">
        <ele>25.2</ele>
        <time>2023-05-23T13:34:01Z</time>
      </trkpt>
      <trkpt lat="48.99862" lon="-0.47618">
        <ele>25.2</ele>
        <time>2023-05-23T13:34:02Z</time>
      </trkpt>
      <trkpt lat="48.99865" lon="-0.4761">
        <ele>25.2</ele>
        <time>2023-05-23T13:34:03Z</time>
      </trkpt>
      <trkpt lat="48.99869" lon="-0.47602">
        <ele>25.2</ele>
        <time>2023-05-23T13:34:04Z</time>
      </trkpt>
      <trkpt lat="48.99872" lon="-0.47594">
        <ele>25</ele>
        <time>2023-05-23T13:34:05Z</time>
      </trkpt>
      <trkpt lat="48.99874" lon="-0.47586">
        <ele>25</ele>
        <time>2023-05-23T13:34:06Z</time>
      </trkpt>
      <trkpt lat="48.99877" lon="-0.47578">
        <ele>25.2</ele>
        <time>2023-05-23T13:34:07Z</time>
      </trkpt>
      <trkpt lat="48.99879" lon="-0.4757">
        <ele>25.2</ele>
        <time>2023-05-23T13:34:08Z</time>
      </trkpt>
      <trkpt lat="48.99882" lon="-0.47562">
        <ele>25.2</ele>
        <time>2023-05-23T13:34:09Z</time>
      </trkpt>
      <trkpt lat="48.99884" lon="-0.47555">
        <ele>25.2</ele>
        <time>2023-05-23T13:34:10Z</time>
      </trkpt>
      <trkpt lat="48.99887" lon="-0.47548">
        <ele>25.2</ele>
        <time>2023-05-23T13:34:11Z</time>
      </trkpt>
      <trkpt lat="48.9989" lon="-0.4754">
        <ele>25.2</ele>
        <time>2023-05-23T13:34:12Z</time>
      </trkpt>
      <trkpt lat="48.99892" lon="-0.47532">
        <ele>25.2</ele>
        <time>2023-05-23T13:34:13Z</time>
      </trkpt>
      <trkpt lat="48.99895" lon="-0.47525">
        <ele>25.2</ele>
        <time>2023-05-23T13:34:14Z</time>
      </trkpt>
      <trkpt lat="48.99897" lon="-0.47517">
        <ele>25.2</ele>
        <time>2023-05-23T13:34:15Z</time>
      </trkpt>
      <trkpt lat="48.999" lon="-0.4751">
        <ele>25</ele>
        <time>2023-05-23T13:34:16Z</time>
      </trkpt>
      <trkpt lat="48.99902" lon="-0.47504">
        <ele>25</ele>
        <time>2023-05-23T13:34:17Z</time>
      </trkpt>
      <trkpt lat="48.99904" lon="-0.47497">
        <ele>24.8</ele>
        <time>2023-05-23T13:34:18Z</time>
      </trkpt>
      <trkpt lat="48.99907" lon="-0.4749">
        <ele>24.8</ele>
        <time>2023-05-23T13:34:19Z</time>
      </trkpt>
      <trkpt lat="48.99909" lon="-0.47482">
        <ele>24.8</ele>
        <time>2023-05-23T13:34:20Z</time>
      </trkpt>
      <trkpt lat="48.99912" lon="-0.47474">
        <ele>24.8</ele>
        <time>2023-05-23T13:34:21Z</time>
      </trkpt>
      <trkpt lat="48.99914" lon="-0.47466">
        <ele>24.6</ele>
        <time>2023-05-23T13:34:22Z</time>
      </trkpt>
      <trkpt lat="48.99917" lon="-0.47458">
        <ele>24.6</ele>
        <time>2023-05-23T13:34:23Z</time>
      </trkpt>
      <trkpt lat="48.99919" lon="-0.4745">
        <ele>24.6</ele>
        <time>2023-05-23T13:34:24Z</time>
      </trkpt>
      <trkpt lat="48.99921" lon="-0.47441">
        <ele>24.8</ele>
        <time>2023-05-23T13:34:25Z</time>
      </trkpt>
      <trkpt lat="48.99924" lon="-0.47433">
        <ele>24.8</ele>
        <time>2023-05-23T13:34:26Z</time>
      </trkpt>
      <trkpt lat="48.99926" lon="-0.47424">
        <ele>24.8</ele>
        <time>2023-05-23T13:34:27Z</time>
      </trkpt>
      <trkpt lat="48.99929" lon="-0.47415">
        <ele>24.8</ele>
        <time>2023-05-23T13:34:28Z</time>
      </trkpt>
      <trkpt lat="48.99931" lon="-0.47406">
        <ele>25.2</ele>
        <time>2023-05-23T13:34:29Z</time>
      </trkpt>
      <trkpt lat="48.99933" lon="-0.47397">
        <ele>25.2</ele>
        <time>2023-05-23T13:34:30Z</time>
      </trkpt>
      <trkpt lat="48.99935" lon="-0.47389">
        <ele>25.6</ele>
        <time>2023-05-23T13:34:31Z</time>
      </trkpt>
      <trkpt lat="48.99937" lon="-0.4738">
        <ele>25.6</ele>
        <time>2023-05-23T13:34:32Z</time>
      </trkpt>
      <trkpt lat="48.99939" lon="-0.47371">
        <ele>25.8</ele>
        <time>2023-05-23T13:34:33Z</time>
      </trkpt>
      <trkpt lat="48.99941" lon="-0.47362">
        <ele>25.8</ele>
        <time>2023-05-23T13:34:34Z</time>
      </trkpt>
      <trkpt lat="48.99943" lon="-0.47354">
        <ele>26</ele>
        <time>2023-05-23T13:34:35Z</time>
      </trkpt>
      <trkpt lat="48.99945" lon="-0.47345">
        <ele>26.2</ele>
        <time>2023-05-23T13:34:36Z</time>
      </trkpt>
      <trkpt lat="48.99947" lon="-0.47336">
        <ele>26.2</ele>
        <time>2023-05-23T13:34:37Z</time>
      </trkpt>
      <trkpt lat="48.99948" lon="-0.47328">
        <ele>26.2</ele>
        <time>2023-05-23T13:34:38Z</time>
      </trkpt>
      <trkpt lat="48.9995" lon="-0.47319">
        <ele>26.2</ele>
        <time>2023-05-23T13:34:39Z</time>
      </trkpt>
      <trkpt lat="48.99952" lon="-0.47311">
        <ele>26</ele>
        <time>2023-05-23T13:34:40Z</time>
      </trkpt>
      <trkpt lat="48.99954" lon="-0.47302">
        <ele>26</ele>
        <time>2023-05-23T13:34:41Z</time>
      </trkpt>
      <trkpt lat="48.99956" lon="-0.47293">
        <ele>25.8</ele>
        <time>2023-05-23T13:34:42Z</time>
      </trkpt>
      <trkpt lat="48.99957" lon="-0.47284">
        <ele>25.8</ele>
        <time>2023-05-23T13:34:43Z</time>
      </trkpt>
      <trkpt lat="48.99959" lon="-0.47275">
        <ele>25.8</ele>
        <time>2023-05-23T13:34:44Z</time>
      </trkpt>
      <trkpt lat="48.99961" lon="-0.47266">
        <ele>25.8</ele>
        <time>2023-05-23T13:34:45Z</time>
      </trkpt>
      <trkpt lat="48.99963" lon="-0.47257">
        <ele>25.6</ele>
        <time>2023-05-23T13:34:46Z</time>
      </trkpt>
      <trkpt lat="48.99965" lon="-0.47248">
        <ele>25.6</ele>
        <time>2023-05-23T13:34:47Z</time>
      </trkpt>
      <trkpt lat="48.99966" lon="-0.47239">
        <ele>25.4</ele>
        <time>2023-05-23T13:34:48Z</time>
      </trkpt>
      <trkpt lat="48.99968" lon="-0.4723">
        <ele>25.2</ele>
        <time>2023-05-23T13:34:49Z</time>
      </trkpt>
      <trkpt lat="48.99969" lon="-0.47221">
        <ele>25</ele>
        <time>2023-05-23T13:34:50Z</time>
      </trkpt>
      <trkpt lat="48.99971" lon="-0.47212">
        <ele>24.8</ele>
        <time>2023-05-23T13:34:51Z</time>
      </trkpt>
      <trkpt lat="48.99973" lon="-0.47202">
        <ele>24.6</ele>
        <time>2023-05-23T13:34:52Z</time>
      </trkpt>
      <trkpt lat="48.99974" lon="-0.47193">
        <ele>24.4</ele>
        <time>2023-05-23T13:34:53Z</time>
      </trkpt>
      <trkpt lat="48.99976" lon="-0.47183">
        <ele>24.2</ele>
        <time>2023-05-23T13:34:54Z</time>
      </trkpt>
      <trkpt lat="48.99978" lon="-0.47173">
        <ele>23.8</ele>
        <time>2023-05-23T13:34:55Z</time>
      </trkpt>
      <trkpt lat="48.99979" lon="-0.47164">
        <ele>23.8</ele>
        <time>2023-05-23T13:34:56Z</time>
      </trkpt>
      <trkpt lat="48.99981" lon="-0.47154">
        <ele>23.8</ele>
        <time>2023-05-23T13:34:57Z</time>
      </trkpt>
      <trkpt lat="48.99983" lon="-0.47145">
        <ele>24</ele>
        <time>2023-05-23T13:34:58Z</time>
      </trkpt>
      <trkpt lat="48.99984" lon="-0.47136">
        <ele>24.2</ele>
        <time>2023-05-23T13:34:59Z</time>
      </trkpt>
      <trkpt lat="48.99986" lon="-0.47126">
        <ele>24.2</ele>
        <time>2023-05-23T13:35:00Z</time>
      </trkpt>
      <trkpt lat="48.99988" lon="-0.47117">
        <ele>24.2</ele>
        <time>2023-05-23T13:35:01Z</time>
      </trkpt>
      <trkpt lat="48.99989" lon="-0.47108">
        <ele>24.4</ele>
        <time>2023-05-23T13:35:02Z</time>
      </trkpt>
      <trkpt lat="48.99991" lon="-0.47099">
        <ele>24.6</ele>
        <time>2023-05-23T13:35:03Z</time>
      </trkpt>
      <trkpt lat="48.99993" lon="-0.47089">
        <ele>24.6</ele>
        <time>2023-05-23T13:35:04Z</time>
      </trkpt>
      <trkpt lat="48.99995" lon="-0.4708">
        <ele>24.6</ele>
        <time>2023-05-23T13:35:05Z</time>
      </trkpt>
      <trkpt lat="48.99996" lon="-0.47071">
        <ele>24.4</ele>
        <time>2023-05-23T13:35:06Z</time>
      </trkpt>
      <trkpt lat="48.99998" lon="-0.47062">
        <ele>24.2</ele>
        <time>2023-05-23T13:35:07Z</time>
      </trkpt>
      <trkpt lat="49" lon="-0.47053">
        <ele>24</ele>
        <time>2023-05-23T13:35:08Z</time>
      </trkpt>
      <trkpt lat="49.00002" lon="-0.47043">
        <ele>24</ele>
        <time>2023-05-23T13:35:09Z</time>
      </trkpt>
      <trkpt lat="49.00003" lon="-0.47034">
        <ele>23.8</ele>
        <time>2023-05-23T13:35:10Z</time>
      </trkpt>
      <trkpt lat="49.00005" lon="-0.47025">
        <ele>23.8</ele>
        <time>2023-05-23T13:35:11Z</time>
      </trkpt>
      <trkpt lat="49.00007" lon="-0.47016">
        <ele>23.8</ele>
        <time>2023-05-23T13:35:12Z</time>
      </trkpt>
      <trkpt lat="49.00009" lon="-0.47007">
        <ele>23.6</ele>
        <time>2023-05-23T13:35:13Z</time>
      </trkpt>
      <trkpt lat="49.0001" lon="-0.46997">
        <ele>23.6</ele>
        <time>2023-05-23T13:35:14Z</time>
      </trkpt>
      <trkpt lat="49.00012" lon="-0.46988">
        <ele>23.8</ele>
        <time>2023-05-23T13:35:15Z</time>
      </trkpt>
      <trkpt lat="49.00014" lon="-0.46979">
        <ele>24</ele>
        <time>2023-05-23T13:35:16Z</time>
      </trkpt>
      <trkpt lat="49.00015" lon="-0.4697">
        <ele>24.2</ele>
        <time>2023-05-23T13:35:17Z</time>
      </trkpt>
      <trkpt lat="49.00017" lon="-0.46961">
        <ele>24.2</ele>
        <time>2023-05-23T13:35:18Z</time>
      </trkpt>
      <trkpt lat="49.00019" lon="-0.46952">
        <ele>24.6</ele>
        <time>2023-05-23T13:35:19Z</time>
      </trkpt>
      <trkpt lat="49.0002" lon="-0.46942">
        <ele>24.6</ele>
        <time>2023-05-23T13:35:20Z</time>
      </trkpt>
      <trkpt lat="49.00022" lon="-0.46933">
        <ele>24.8</ele>
        <time>2023-05-23T13:35:21Z</time>
      </trkpt>
      <trkpt lat="49.00024" lon="-0.46924">
        <ele>24.8</ele>
        <time>2023-05-23T13:35:22Z</time>
      </trkpt>
      <trkpt lat="49.00025" lon="-0.46915">
        <ele>24.8</ele>
        <time>2023-05-23T13:35:23Z</time>
      </trkpt>
      <trkpt lat="49.00027" lon="-0.46906">
        <ele>25.2</ele>
        <time>2023-05-23T13:35:24Z</time>
      </trkpt>
      <trkpt lat="49.00029" lon="-0.46898">
        <ele>25.8</ele>
        <time>2023-05-23T13:35:25Z</time>
      </trkpt>
      <trkpt lat="49.00031" lon="-0.46889">
        <ele>26</ele>
        <time>2023-05-23T13:35:26Z</time>
      </trkpt>
      <trkpt lat="49.00032" lon="-0.4688">
        <ele>26.2</ele>
        <time>2023-05-23T13:35:27Z</time>
      </trkpt>
      <trkpt lat="49.00034" lon="-0.46872">
        <ele>26.6</ele>
        <time>2023-05-23T13:35:28Z</time>
      </trkpt>
      <trkpt lat="49.00036" lon="-0.46863">
        <ele>26.8</ele>
        <time>2023-05-23T13:35:29Z</time>
      </trkpt>
      <trkpt lat="49.00038" lon="-0.46855">
        <ele>27</ele>
        <time>2023-05-23T13:35:30Z</time>
      </trkpt>
      <trkpt lat="49.0004" lon="-0.46846">
        <ele>27.2</ele>
        <time>2023-05-23T13:35:31Z</time>
      </trkpt>
      <trkpt lat="49.00042" lon="-0.46838">
        <ele>27.2</ele>
        <time>2023-05-23T13:35:32Z</time>
      </trkpt>
      <trkpt lat="49.00044" lon="-0.4683">
        <ele>27.6</ele>
        <time>2023-05-23T13:35:33Z</time>
      </trkpt>
      <trkpt lat="49.00046" lon="-0.46822">
        <ele>28.2</ele>
        <time>2023-05-23T13:35:34Z</time>
      </trkpt>
      <trkpt lat="49.00048" lon="-0.46813">
        <ele>28.6</ele>
        <time>2023-05-23T13:35:35Z</time>
      </trkpt>
      <trkpt lat="49.0005" lon="-0.46805">
        <ele>29</ele>
        <time>2023-05-23T13:35:36Z</time>
      </trkpt>
      <trkpt lat="49.00052" lon="-0.46797">
        <ele>29.4</ele>
        <time>2023-05-23T13:35:37Z</time>
      </trkpt>
      <trkpt lat="49.00054" lon="-0.46788">
        <ele>29.8</ele>
        <time>2023-05-23T13:35:38Z</time>
      </trkpt>
      <trkpt lat="49.00055" lon="-0.4678">
        <ele>30</ele>
        <time>2023-05-23T13:35:39Z</time>
      </trkpt>
      <trkpt lat="49.00058" lon="-0.46771">
        <ele>30.2</ele>
        <time>2023-05-23T13:35:40Z</time>
      </trkpt>
      <trkpt lat="49.0006" lon="-0.46763">
        <ele>30.4</ele>
        <time>2023-05-23T13:35:41Z</time>
      </trkpt>
      <trkpt lat="49.00063" lon="-0.46755">
        <ele>30.2</ele>
        <time>2023-05-23T13:35:42Z</time>
      </trkpt>
      <trkpt lat="49.00066" lon="-0.46747">
        <ele>30.4</ele>
        <time>2023-05-23T13:35:43Z</time>
      </trkpt>
      <trkpt lat="49.00069" lon="-0.46739">
        <ele>30.8</ele>
        <time>2023-05-23T13:35:44Z</time>
      </trkpt>
      <trkpt lat="49.00072" lon="-0.46731">
        <ele>31.2</ele>
        <time>2023-05-23T13:35:45Z</time>
      </trkpt>
      <trkpt lat="49.00075" lon="-0.46723">
        <ele>31.8</ele>
        <time>2023-05-23T13:35:46Z</time>
      </trkpt>
      <trkpt lat="49.00078" lon="-0.46715">
        <ele>32.2</ele>
        <time>2023-05-23T13:35:47Z</time>
      </trkpt>
      <trkpt lat="49.00081" lon="-0.46706">
        <ele>32.6</ele>
        <time>2023-05-23T13:35:48Z</time>
      </trkpt>
      <trkpt lat="49.00084" lon="-0.46698">
        <ele>33</ele>
        <time>2023-05-23T13:35:49Z</time>
      </trkpt>
      <trkpt lat="49.00088" lon="-0.4669">
        <ele>33.6</ele>
        <time>2023-05-23T13:35:50Z</time>
      </trkpt>
      <trkpt lat="49.00091" lon="-0.46682">
        <ele>34</ele>
        <time>2023-05-23T13:35:51Z</time>
      </trkpt>
      <trkpt lat="49.00095" lon="-0.46675">
        <ele>34.6</ele>
        <time>2023-05-23T13:35:52Z</time>
      </trkpt>
      <trkpt lat="49.00099" lon="-0.46667">
        <ele>34.8</ele>
        <time>2023-05-23T13:35:53Z</time>
      </trkpt>
      <trkpt lat="49.00103" lon="-0.46659">
        <ele>35.6</ele>
        <time>2023-05-23T13:35:54Z</time>
      </trkpt>
      <trkpt lat="49.00107" lon="-0.46652">
        <ele>36.2</ele>
        <time>2023-05-23T13:35:55Z</time>
      </trkpt>
      <trkpt lat="49.00111" lon="-0.46645">
        <ele>37</ele>
        <time>2023-05-23T13:35:56Z</time>
      </trkpt>
      <trkpt lat="49.00115" lon="-0.46637">
        <ele>37.4</ele>
        <time>2023-05-23T13:35:57Z</time>
      </trkpt>
      <trkpt lat="49.00119" lon="-0.4663">
        <ele>37.8</ele>
        <time>2023-05-23T13:35:58Z</time>
      </trkpt>
      <trkpt lat="49.00123" lon="-0.46623">
        <ele>38</ele>
        <time>2023-05-23T13:35:59Z</time>
      </trkpt>
      <trkpt lat="49.00127" lon="-0.46616">
        <ele>38.2</ele>
        <time>2023-05-23T13:36:00Z</time>
      </trkpt>
      <trkpt lat="49.00132" lon="-0.46609">
        <ele>38.4</ele>
        <time>2023-05-23T13:36:01Z</time>
      </trkpt>
      <trkpt lat="49.00136" lon="-0.46602">
        <ele>38.2</ele>
        <time>2023-05-23T13:36:02Z</time>
      </trkpt>
      <trkpt lat="49.00141" lon="-0.46596">
        <ele>38</ele>
        <time>2023-05-23T13:36:03Z</time>
      </trkpt>
      <trkpt lat="49.00145" lon="-0.46589">
        <ele>37.8</ele>
        <time>2023-05-23T13:36:04Z</time>
      </trkpt>
      <trkpt lat="49.0015" lon="-0.46583">
        <ele>37.2</ele>
        <time>2023-05-23T13:36:05Z</time>
      </trkpt>
      <trkpt lat="49.00155" lon="-0.46577">
        <ele>37.6</ele>
        <time>2023-05-23T13:36:06Z</time>
      </trkpt>
      <trkpt lat="49.0016" lon="-0.46571">
        <ele>37.6</ele>
        <time>2023-05-23T13:36:07Z</time>
      </trkpt>
      <trkpt lat="49.00165" lon="-0.46565">
        <ele>37.4</ele>
        <time>2023-05-23T13:36:08Z</time>
      </trkpt>
      <trkpt lat="49.0017" lon="-0.4656">
        <ele>37.8</ele>
        <time>2023-05-23T13:36:09Z</time>
      </trkpt>
      <trkpt lat="49.00175" lon="-0.46554">
        <ele>38.6</ele>
        <time>2023-05-23T13:36:10Z</time>
      </trkpt>
      <trkpt lat="49.0018" lon="-0.46549">
        <ele>39</ele>
        <time>2023-05-23T13:36:11Z</time>
      </trkpt>
      <trkpt lat="49.00186" lon="-0.46544">
        <ele>39.4</ele>
        <time>2023-05-23T13:36:12Z</time>
      </trkpt>
      <trkpt lat="49.00191" lon="-0.4654">
        <ele>39.6</ele>
        <time>2023-05-23T13:36:13Z</time>
      </trkpt>
      <trkpt lat="49.00197" lon="-0.46536">
        <ele>39.8</ele>
        <time>2023-05-23T13:36:14Z</time>
      </trkpt>
      <trkpt lat="49.00202" lon="-0.46532">
        <ele>39.6</ele>
        <time>2023-05-23T13:36:15Z</time>
      </trkpt>
      <trkpt lat="49.00208" lon="-0.46528">
        <ele>39.4</ele>
        <time>2023-05-23T13:36:16Z</time>
      </trkpt>
      <trkpt lat="49.00213" lon="-0.46524">
        <ele>39</ele>
        <time>2023-05-23T13:36:17Z</time>
      </trkpt>
      <trkpt lat="49.00219" lon="-0.46521">
        <ele>38.8</ele>
        <time>2023-05-23T13:36:18Z</time>
      </trkpt>
      <trkpt lat="49.00225" lon="-0.46518">
        <ele>38.2</ele>
        <time>2023-05-23T13:36:19Z</time>
      </trkpt>
      <trkpt lat="49.00231" lon="-0.46515">
        <ele>37.6</ele>
        <time>2023-05-23T13:36:20Z</time>
      </trkpt>
      <trkpt lat="49.00236" lon="-0.46513">
        <ele>37</ele>
        <time>2023-05-23T13:36:21Z</time>
      </trkpt>
      <trkpt lat="49.00242" lon="-0.4651">
        <ele>36</ele>
        <time>2023-05-23T13:36:22Z</time>
      </trkpt>
      <trkpt lat="49.00248" lon="-0.46508">
        <ele>35.2</ele>
        <time>2023-05-23T13:36:23Z</time>
      </trkpt>
      <trkpt lat="49.00254" lon="-0.46505">
        <ele>34.8</ele>
        <time>2023-05-23T13:36:24Z</time>
      </trkpt>
      <trkpt lat="49.0026" lon="-0.46503">
        <ele>34.6</ele>
        <time>2023-05-23T13:36:25Z</time>
      </trkpt>
      <trkpt lat="49.00266" lon="-0.46501">
        <ele>34.2</ele>
        <time>2023-05-23T13:36:26Z</time>
      </trkpt>
      <trkpt lat="49.00272" lon="-0.46499">
        <ele>34</ele>
        <time>2023-05-23T13:36:27Z</time>
      </trkpt>
      <trkpt lat="49.00278" lon="-0.46497">
        <ele>34</ele>
        <time>2023-05-23T13:36:28Z</time>
      </trkpt>
      <trkpt lat="49.00284" lon="-0.46495">
        <ele>34.2</ele>
        <time>2023-05-23T13:36:29Z</time>
      </trkpt>
      <trkpt lat="49.00291" lon="-0.46493">
        <ele>34.2</ele>
        <time>2023-05-23T13:36:30Z</time>
      </trkpt>
      <trkpt lat="49.00297" lon="-0.46491">
        <ele>34.2</ele>
        <time>2023-05-23T13:36:31Z</time>
      </trkpt>
      <trkpt lat="49.00304" lon="-0.46489">
        <ele>34</ele>
        <time>2023-05-23T13:36:32Z</time>
      </trkpt>
      <trkpt lat="49.00311" lon="-0.46488">
        <ele>33.8</ele>
        <time>2023-05-23T13:36:33Z</time>
      </trkpt>
      <trkpt lat="49.00318" lon="-0.46487">
        <ele>33.6</ele>
        <time>2023-05-23T13:36:34Z</time>
      </trkpt>
      <trkpt lat="49.00324" lon="-0.46486">
        <ele>33</ele>
        <time>2023-05-23T13:36:35Z</time>
      </trkpt>
      <trkpt lat="49.00331" lon="-0.46485">
        <ele>32.6</ele>
        <time>2023-05-23T13:36:36Z</time>
      </trkpt>
      <trkpt lat="49.00338" lon="-0.46485">
        <ele>33</ele>
        <time>2023-05-23T13:36:37Z</time>
      </trkpt>
      <trkpt lat="49.00345" lon="-0.46485">
        <ele>33.8</ele>
        <time>2023-05-23T13:36:38Z</time>
      </trkpt>
      <trkpt lat="49.00352" lon="-0.46485">
        <ele>34.4</ele>
        <time>2023-05-23T13:36:39Z</time>
      </trkpt>
      <trkpt lat="49.00359" lon="-0.46485">
        <ele>35</ele>
        <time>2023-05-23T13:36:40Z</time>
      </trkpt>
      <trkpt lat="49.00366" lon="-0.46485">
        <ele>35.6</ele>
        <time>2023-05-23T13:36:41Z</time>
      </trkpt>
      <trkpt lat="49.00373" lon="-0.46486">
        <ele>36</ele>
        <time>2023-05-23T13:36:42Z</time>
      </trkpt>
      <trkpt lat="49.0038" lon="-0.46487">
        <ele>36.2</ele>
        <time>2023-05-23T13:36:43Z</time>
      </trkpt>
      <trkpt lat="49.00387" lon="-0.46488">
        <ele>36.6</ele>
        <time>2023-05-23T13:36:44Z</time>
      </trkpt>
      <trkpt lat="49.00393" lon="-0.4649">
        <ele>36.6</ele>
        <time>2023-05-23T13:36:45Z</time>
      </trkpt>
      <trkpt lat="49.004" lon="-0.46492">
        <ele>36.8</ele>
        <time>2023-05-23T13:36:46Z</time>
      </trkpt>
      <trkpt lat="49.00407" lon="-0.46494">
        <ele>36.6</ele>
        <time>2023-05-23T13:36:47Z</time>
      </trkpt>
      <trkpt lat="49.00414" lon="-0.46495">
        <ele>36.6</ele>
        <time>2023-05-23T13:36:48Z</time>
      </trkpt>
      <trkpt lat="49.00421" lon="-0.46498">
        <ele>36.4</ele>
        <time>2023-05-23T13:36:49Z</time>
      </trkpt>
      <trkpt lat="49.00427" lon="-0.465">
        <ele>36.6</ele>
        <time>2023-05-23T13:36:50Z</time>
      </trkpt>
      <trkpt lat="49.00434" lon="-0.46503">
        <ele>37</ele>
        <time>2023-05-23T13:36:51Z</time>
      </trkpt>
      <trkpt lat="49.00441" lon="-0.46506">
        <ele>37.2</ele>
        <time>2023-05-23T13:36:52Z</time>
      </trkpt>
      <trkpt lat="49.00447" lon="-0.4651">
        <ele>37.4</ele>
        <time>2023-05-23T13:36:53Z</time>
      </trkpt>
      <trkpt lat="49.00454" lon="-0.46513">
        <ele>37.6</ele>
        <time>2023-05-23T13:36:54Z</time>
      </trkpt>
      <trkpt lat="49.0046" lon="-0.46517">
        <ele>37.4</ele>
        <time>2023-05-23T13:36:55Z</time>
      </trkpt>
      <trkpt lat="49.00466" lon="-0.46521">
        <ele>37.2</ele>
        <time>2023-05-23T13:36:56Z</time>
      </trkpt>
      <trkpt lat="49.00473" lon="-0.46526">
        <ele>37</ele>
        <time>2023-05-23T13:36:57Z</time>
      </trkpt>
      <trkpt lat="49.00479" lon="-0.4653">
        <ele>36.6</ele>
        <time>2023-05-23T13:36:58Z</time>
      </trkpt>
      <trkpt lat="49.00485" lon="-0.46535">
        <ele>36</ele>
        <time>2023-05-23T13:36:59Z</time>
      </trkpt>
      <trkpt lat="49.00491" lon="-0.46541">
        <ele>35.4</ele>
        <time>2023-05-23T13:37:00Z</time>
      </trkpt>
      <trkpt lat="49.00498" lon="-0.46546">
        <ele>34.6</ele>
        <time>2023-05-23T13:37:01Z</time>
      </trkpt>
      <trkpt lat="49.00503" lon="-0.46552">
        <ele>34.2</ele>
        <time>2023-05-23T13:37:02Z</time>
      </trkpt>
      <trkpt lat="49.00509" lon="-0.46558">
        <ele>34</ele>
        <time>2023-05-23T13:37:03Z</time>
      </trkpt>
      <trkpt lat="49.00515" lon="-0.46564">
        <ele>34</ele>
        <time>2023-05-23T13:37:04Z</time>
      </trkpt>
      <trkpt lat="49.0052" lon="-0.4657">
        <ele>33.6</ele>
        <time>2023-05-23T13:37:05Z</time>
      </trkpt>
      <trkpt lat="49.00526" lon="-0.46577">
        <ele>33.2</ele>
        <time>2023-05-23T13:37:06Z</time>
      </trkpt>
      <trkpt lat="49.00531" lon="-0.46584">
        <ele>33</ele>
        <time>2023-05-23T13:37:07Z</time>
      </trkpt>
      <trkpt lat="49.00536" lon="-0.46591">
        <ele>33.6</ele>
        <time>2023-05-23T13:37:08Z</time>
      </trkpt>
      <trkpt lat="49.00541" lon="-0.46599">
        <ele>34</ele>
        <time>2023-05-23T13:37:09Z</time>
      </trkpt>
      <trkpt lat="49.00545" lon="-0.46606">
        <ele>34</ele>
        <time>2023-05-23T13:37:10Z</time>
      </trkpt>
      <trkpt lat="49.0055" lon="-0.46614">
        <ele>34</ele>
        <time>2023-05-23T13:37:11Z</time>
      </trkpt>
      <trkpt lat="49.00554" lon="-0.46622">
        <ele>34</ele>
        <time>2023-05-23T13:37:12Z</time>
      </trkpt>
      <trkpt lat="49.00559" lon="-0.4663">
        <ele>33.6</ele>
        <time>2023-05-23T13:37:13Z</time>
      </trkpt>
      <trkpt lat="49.00563" lon="-0.46638">
        <ele>33</ele>
        <time>2023-05-23T13:37:14Z</time>
      </trkpt>
      <trkpt lat="49.00567" lon="-0.46646">
        <ele>32.4</ele>
        <time>2023-05-23T13:37:15Z</time>
      </trkpt>
      <trkpt lat="49.00571" lon="-0.46655">
        <ele>31.6</ele>
        <time>2023-05-23T13:37:16Z</time>
      </trkpt>
      <trkpt lat="49.00575" lon="-0.46663">
        <ele>30.8</ele>
        <time>2023-05-23T13:37:17Z</time>
      </trkpt>
      <trkpt lat="49.00579" lon="-0.46672">
        <ele>30.2</ele>
        <time>2023-05-23T13:37:18Z</time>
      </trkpt>
      <trkpt lat="49.00583" lon="-0.4668">
        <ele>29.8</ele>
        <time>2023-05-23T13:37:19Z</time>
      </trkpt>
      <trkpt lat="49.00587" lon="-0.46689">
        <ele>29.8</ele>
        <time>2023-05-23T13:37:20Z</time>
      </trkpt>
      <trkpt lat="49.00591" lon="-0.46697">
        <ele>29.8</ele>
        <time>2023-05-23T13:37:21Z</time>
      </trkpt>
      <trkpt lat="49.00595" lon="-0.46706">
        <ele>29.8</ele>
        <time>2023-05-23T13:37:22Z</time>
      </trkpt>
      <trkpt lat="49.00599" lon="-0.46715">
        <ele>29.8</ele>
        <time>2023-05-23T13:37:23Z</time>
      </trkpt>
      <trkpt lat="49.00602" lon="-0.46724">
        <ele>29.8</ele>
        <time>2023-05-23T13:37:24Z</time>
      </trkpt>
      <trkpt lat="49.00606" lon="-0.46732">
        <ele>29.8</ele>
        <time>2023-05-23T13:37:25Z</time>
      </trkpt>
      <trkpt lat="49.0061" lon="-0.46741">
        <ele>29.6</ele>
        <time>2023-05-23T13:37:26Z</time>
      </trkpt>
      <trkpt lat="49.00614" lon="-0.4675">
        <ele>29.6</ele>
        <time>2023-05-23T13:37:27Z</time>
      </trkpt>
      <trkpt lat="49.00617" lon="-0.46758">
        <ele>29.6</ele>
        <time>2023-05-23T13:37:28Z</time>
      </trkpt>
      <trkpt lat="49.00621" lon="-0.46767">
        <ele>29.6</ele>
        <time>2023-05-23T13:37:29Z</time>
      </trkpt>
      <trkpt lat="49.00625" lon="-0.46776">
        <ele>29.6</ele>
        <time>2023-05-23T13:37:30Z</time>
      </trkpt>
      <trkpt lat="49.00629" lon="-0.46784">
        <ele>29.6</ele>
        <time>2023-05-23T13:37:31Z</time>
      </trkpt>
      <trkpt lat="49.00632" lon="-0.46793">
        <ele>29.6</ele>
        <time>2023-05-23T13:37:32Z</time>
      </trkpt>
      <trkpt lat="49.00636" lon="-0.46801">
        <ele>29.2</ele>
        <time>2023-05-23T13:37:33Z</time>
      </trkpt>
      <trkpt lat="49.0064" lon="-0.4681">
        <ele>29.2</ele>
        <time>2023-05-23T13:37:34Z</time>
      </trkpt>
      <trkpt lat="49.00644" lon="-0.46818">
        <ele>28.8</ele>
        <time>2023-05-23T13:37:35Z</time>
      </trkpt>
      <trkpt lat="49.00648" lon="-0.46826">
        <ele>28.6</ele>
        <time>2023-05-23T13:37:36Z</time>
      </trkpt>
      <trkpt lat="49.00652" lon="-0.46835">
        <ele>28.2</ele>
        <time>2023-05-23T13:37:37Z</time>
      </trkpt>
      <trkpt lat="49.00655" lon="-0.46843">
        <ele>28</ele>
        <time>2023-05-23T13:37:38Z</time>
      </trkpt>
      <trkpt lat="49.00659" lon="-0.46851">
        <ele>27.8</ele>
        <time>2023-05-23T13:37:39Z</time>
      </trkpt>
      <trkpt lat="49.00663" lon="-0.46859">
        <ele>27.2</ele>
        <time>2023-05-23T13:37:40Z</time>
      </trkpt>
      <trkpt lat="49.00667" lon="-0.46868">
        <ele>26.8</ele>
        <time>2023-05-23T13:37:41Z</time>
      </trkpt>
      <trkpt lat="49.00671" lon="-0.46876">
        <ele>26.4</ele>
        <time>2023-05-23T13:37:42Z</time>
      </trkpt>
      <trkpt lat="49.00675" lon="-0.46884">
        <ele>26.2</ele>
        <time>2023-05-23T13:37:43Z</time>
      </trkpt>
      <trkpt lat="49.00679" lon="-0.46892">
        <ele>25.8</ele>
        <time>2023-05-23T13:37:44Z</time>
      </trkpt>
      <trkpt lat="49.00683" lon="-0.46899">
        <ele>25.6</ele>
        <time>2023-05-23T13:37:45Z</time>
      </trkpt>
      <trkpt lat="49.00687" lon="-0.46907">
        <ele>25.2</ele>
        <time>2023-05-23T13:37:46Z</time>
      </trkpt>
      <trkpt lat="49.00691" lon="-0.46915">
        <ele>24.8</ele>
        <time>2023-05-23T13:37:47Z</time>
      </trkpt>
      <trkpt lat="49.00695" lon="-0.46922">
        <ele>24.8</ele>
        <time>2023-05-23T13:37:48Z</time>
      </trkpt>
      <trkpt lat="49.00699" lon="-0.4693">
        <ele>24.8</ele>
        <time>2023-05-23T13:37:49Z</time>
      </trkpt>
      <trkpt lat="49.00703" lon="-0.46937">
        <ele>24.8</ele>
        <time>2023-05-23T13:37:50Z</time>
      </trkpt>
      <trkpt lat="49.00707" lon="-0.46944">
        <ele>24.8</ele>
        <time>2023-05-23T13:37:51Z</time>
      </trkpt>
      <trkpt lat="49.00711" lon="-0.46951">
        <ele>24.6</ele>
        <time>2023-05-23T13:37:52Z</time>
      </trkpt>
      <trkpt lat="49.00714" lon="-0.46958">
        <ele>24.6</ele>
        <time>2023-05-23T13:37:53Z</time>
      </trkpt>
      <trkpt lat="49.00718" lon="-0.46965">
        <ele>24.2</ele>
        <time>2023-05-23T13:37:54Z</time>
      </trkpt>
      <trkpt lat="49.00722" lon="-0.46971">
        <ele>24.2</ele>
        <time>2023-05-23T13:37:55Z</time>
      </trkpt>
      <trkpt lat="49.00727" lon="-0.46978">
        <ele>23.8</ele>
        <time>2023-05-23T13:37:56Z</time>
      </trkpt>
      <trkpt lat="49.00731" lon="-0.46984">
        <ele>23.6</ele>
        <time>2023-05-23T13:37:57Z</time>
      </trkpt>
      <trkpt lat="49.00736" lon="-0.4699">
        <ele>23.2</ele>
        <time>2023-05-23T13:37:58Z</time>
      </trkpt>
      <trkpt lat="49.00741" lon="-0.46996">
        <ele>23.2</ele>
        <time>2023-05-23T13:37:59Z</time>
      </trkpt>
      <trkpt lat="49.00746" lon="-0.47001">
        <ele>22.8</ele>
        <time>2023-05-23T13:38:00Z</time>
      </trkpt>
      <trkpt lat="49.00751" lon="-0.47007">
        <ele>22.8</ele>
        <time>2023-05-23T13:38:01Z</time>
      </trkpt>
      <trkpt lat="49.00755" lon="-0.47012">
        <ele>22.8</ele>
        <time>2023-05-23T13:38:02Z</time>
      </trkpt>
      <trkpt lat="49.00759" lon="-0.47018">
        <ele>22.8</ele>
        <time>2023-05-23T13:38:03Z</time>
      </trkpt>
      <trkpt lat="49.00763" lon="-0.47023">
        <ele>22.8</ele>
        <time>2023-05-23T13:38:04Z</time>
      </trkpt>
      <trkpt lat="49.00766" lon="-0.47029">
        <ele>22.8</ele>
        <time>2023-05-23T13:38:05Z</time>
      </trkpt>
      <trkpt lat="49.0077" lon="-0.47035">
        <ele>22.8</ele>
        <time>2023-05-23T13:38:06Z</time>
      </trkpt>
      <trkpt lat="49.00775" lon="-0.4704">
        <ele>22.8</ele>
        <time>2023-05-23T13:38:07Z</time>
      </trkpt>
      <trkpt lat="49.0078" lon="-0.47046">
        <ele>22.8</ele>
        <time>2023-05-23T13:38:08Z</time>
      </trkpt>
      <trkpt lat="49.00786" lon="-0.47052">
        <ele>22.6</ele>
        <time>2023-05-23T13:38:09Z</time>
      </trkpt>
      <trkpt lat="49.00792" lon="-0.47057">
        <ele>22.6</ele>
        <time>2023-05-23T13:38:10Z</time>
      </trkpt>
      <trkpt lat="49.00797" lon="-0.47063">
        <ele>22.4</ele>
        <time>2023-05-23T13:38:11Z</time>
      </trkpt>
      <trkpt lat="49.00802" lon="-0.47067">
        <ele>22.2</ele>
        <time>2023-05-23T13:38:12Z</time>
      </trkpt>
      <trkpt lat="49.00807" lon="-0.47072">
        <ele>22.2</ele>
        <time>2023-05-23T13:38:13Z</time>
      </trkpt>
      <trkpt lat="49.00813" lon="-0.47078">
        <ele>21.8</ele>
        <time>2023-05-23T13:38:14Z</time>
      </trkpt>
      <trkpt lat="49.00818" lon="-0.47083">
        <ele>21.8</ele>
        <time>2023-05-23T13:38:15Z</time>
      </trkpt>
      <trkpt lat="49.00824" lon="-0.47088">
        <ele>21.8</ele>
        <time>2023-05-23T13:38:16Z</time>
      </trkpt>
      <trkpt lat="49.0083" lon="-0.47093">
        <ele>21.8</ele>
        <time>2023-05-23T13:38:17Z</time>
      </trkpt>
      <trkpt lat="49.00837" lon="-0.47098">
        <ele>21.8</ele>
        <time>2023-05-23T13:38:18Z</time>
      </trkpt>
      <trkpt lat="49.00843" lon="-0.47102">
        <ele>21.8</ele>
        <time>2023-05-23T13:38:19Z</time>
      </trkpt>
      <trkpt lat="49.00849" lon="-0.47107">
        <ele>21.8</ele>
        <time>2023-05-23T13:38:20Z</time>
      </trkpt>
      <trkpt lat="49.00854" lon="-0.47111">
        <ele>21.8</ele>
        <time>2023-05-23T13:38:21Z</time>
      </trkpt>
      <trkpt lat="49.0086" lon="-0.47115">
        <ele>21.8</ele>
        <time>2023-05-23T13:38:22Z</time>
      </trkpt>
      <trkpt lat="49.00866" lon="-0.4712">
        <ele>22</ele>
        <time>2023-05-23T13:38:23Z</time>
      </trkpt>
      <trkpt lat="49.00872" lon="-0.47124">
        <ele>22</ele>
        <time>2023-05-23T13:38:24Z</time>
      </trkpt>
      <trkpt lat="49.00878" lon="-0.47127">
        <ele>22</ele>
        <time>2023-05-23T13:38:25Z</time>
      </trkpt>
      <trkpt lat="49.00883" lon="-0.47131">
        <ele>22</ele>
        <time>2023-05-23T13:38:26Z</time>
      </trkpt>
      <trkpt lat="49.00889" lon="-0.47135">
        <ele>22</ele>
        <time>2023-05-23T13:38:27Z</time>
      </trkpt>
      <trkpt lat="49.00894" lon="-0.47138">
        <ele>22.2</ele>
        <time>2023-05-23T13:38:28Z</time>
      </trkpt>
      <trkpt lat="49.009" lon="-0.47142">
        <ele>22.2</ele>
        <time>2023-05-23T13:38:29Z</time>
      </trkpt>
      <trkpt lat="49.00906" lon="-0.47145">
        <ele>22.2</ele>
        <time>2023-05-23T13:38:30Z</time>
      </trkpt>
      <trkpt lat="49.00911" lon="-0.47148">
        <ele>22.2</ele>
        <time>2023-05-23T13:38:31Z</time>
      </trkpt>
      <trkpt lat="49.00917" lon="-0.47151">
        <ele>22.2</ele>
        <time>2023-05-23T13:38:32Z</time>
      </trkpt>
      <trkpt lat="49.00922" lon="-0.47154">
        <ele>22.2</ele>
        <time>2023-05-23T13:38:33Z</time>
      </trkpt>
      <trkpt lat="49.00928" lon="-0.47157">
        <ele>22.2</ele>
        <time>2023-05-23T13:38:34Z</time>
      </trkpt>
      <trkpt lat="49.00934" lon="-0.4716">
        <ele>22.2</ele>
        <time>2023-05-23T13:38:35Z</time>
      </trkpt>
      <trkpt lat="49.00939" lon="-0.47162">
        <ele>22.4</ele>
        <time>2023-05-23T13:38:36Z</time>
      </trkpt>
      <trkpt lat="49.00945" lon="-0.47165">
        <ele>22.4</ele>
        <time>2023-05-23T13:38:37Z</time>
      </trkpt>
      <trkpt lat="49.0095" lon="-0.47168">
        <ele>22.4</ele>
        <time>2023-05-23T13:38:38Z</time>
      </trkpt>
      <trkpt lat="49.00956" lon="-0.4717">
        <ele>22.4</ele>
        <time>2023-05-23T13:38:39Z</time>
      </trkpt>
      <trkpt lat="49.00962" lon="-0.47172">
        <ele>22.6</ele>
        <time>2023-05-23T13:38:40Z</time>
      </trkpt>
      <trkpt lat="49.00967" lon="-0.47175">
        <ele>22.6</ele>
        <time>2023-05-23T13:38:41Z</time>
      </trkpt>
      <trkpt lat="49.00973" lon="-0.47177">
        <ele>22.6</ele>
        <time>2023-05-23T13:38:42Z</time>
      </trkpt>
      <trkpt lat="49.00978" lon="-0.47179">
        <ele>22.6</ele>
        <time>2023-05-23T13:38:43Z</time>
      </trkpt>
      <trkpt lat="49.00984" lon="-0.47181">
        <ele>22.6</ele>
        <time>2023-05-23T13:38:44Z</time>
      </trkpt>
      <trkpt lat="49.0099" lon="-0.47183">
        <ele>22.6</ele>
        <time>2023-05-23T13:38:45Z</time>
      </trkpt>
      <trkpt lat="49.00995" lon="-0.47184">
        <ele>22.6</ele>
        <time>2023-05-23T13:38:46Z</time>
      </trkpt>
      <trkpt lat="49.01001" lon="-0.47186">
        <ele>22.6</ele>
        <time>2023-05-23T13:38:47Z</time>
      </trkpt>
      <trkpt lat="49.01007" lon="-0.47188">
        <ele>22.6</ele>
        <time>2023-05-23T13:38:48Z</time>
      </trkpt>
      <trkpt lat="49.01012" lon="-0.47189">
        <ele>22.6</ele>
        <time>2023-05-23T13:38:49Z</time>
      </trkpt>
      <trkpt lat="49.01018" lon="-0.47191">
        <ele>22.6</ele>
        <time>2023-05-23T13:38:50Z</time>
      </trkpt>
      <trkpt lat="49.01024" lon="-0.47192">
        <ele>22.6</ele>
        <time>2023-05-23T13:38:51Z</time>
      </trkpt>
      <trkpt lat="49.01029" lon="-0.47193">
        <ele>22.6</ele>
        <time>2023-05-23T13:38:52Z</time>
      </trkpt>
      <trkpt lat="49.01035" lon="-0.47194">
        <ele>22.6</ele>
        <time>2023-05-23T13:38:53Z</time>
      </trkpt>
      <trkpt lat="49.01041" lon="-0.47195">
        <ele>22.6</ele>
        <time>2023-05-23T13:38:54Z</time>
      </trkpt>
      <trkpt lat="49.01046" lon="-0.47196">
        <ele>22.8</ele>
        <time>2023-05-23T13:38:55Z</time>
      </trkpt>
      <trkpt lat="49.01052" lon="-0.47197">
        <ele>22.8</ele>
        <time>2023-05-23T13:38:56Z</time>
      </trkpt>
      <trkpt lat="49.01058" lon="-0.47197">
        <ele>22.8</ele>
        <time>2023-05-23T13:38:57Z</time>
      </trkpt>
      <trkpt lat="49.01064" lon="-0.47198">
        <ele>22.8</ele>
        <time>2023-05-23T13:38:58Z</time>
      </trkpt>
      <trkpt lat="49.01069" lon="-0.47198">
        <ele>22.8</ele>
        <time>2023-05-23T13:38:59Z</time>
      </trkpt>
      <trkpt lat="49.01075" lon="-0.47199">
        <ele>22.8</ele>
        <time>2023-05-23T13:39:00Z</time>
      </trkpt>
      <trkpt lat="49.01081" lon="-0.472">
        <ele>22.8</ele>
        <time>2023-05-23T13:39:01Z</time>
      </trkpt>
      <trkpt lat="49.01087" lon="-0.47201">
        <ele>22.8</ele>
        <time>2023-05-23T13:39:02Z</time>
      </trkpt>
      <trkpt lat="49.01093" lon="-0.47201">
        <ele>22.8</ele>
        <time>2023-05-23T13:39:03Z</time>
      </trkpt>
      <trkpt lat="49.01099" lon="-0.47202">
        <ele>23</ele>
        <time>2023-05-23T13:39:04Z</time>
      </trkpt>
      <trkpt lat="49.01104" lon="-0.47202">
        <ele>23.2</ele>
        <time>2023-05-23T13:39:05Z</time>
      </trkpt>
      <trkpt lat="49.0111" lon="-0.47203">
        <ele>23.2</ele>
        <time>2023-05-23T13:39:06Z</time>
      </trkpt>
      <trkpt lat="49.01116" lon="-0.47202">
        <ele>23.2</ele>
        <time>2023-05-23T13:39:07Z</time>
      </trkpt>
      <trkpt lat="49.01121" lon="-0.47202">
        <ele>23.4</ele>
        <time>2023-05-23T13:39:08Z</time>
      </trkpt>
      <trkpt lat="49.01127" lon="-0.47201">
        <ele>23.6</ele>
        <time>2023-05-23T13:39:09Z</time>
      </trkpt>
      <trkpt lat="49.01132" lon="-0.47201">
        <ele>23.6</ele>
        <time>2023-05-23T13:39:10Z</time>
      </trkpt>
      <trkpt lat="49.01138" lon="-0.472">
        <ele>23.8</ele>
        <time>2023-05-23T13:39:11Z</time>
      </trkpt>
      <trkpt lat="49.01143" lon="-0.47199">
        <ele>23.8</ele>
        <time>2023-05-23T13:39:12Z</time>
      </trkpt>
      <trkpt lat="49.01148" lon="-0.47198">
        <ele>23.8</ele>
        <time>2023-05-23T13:39:13Z</time>
      </trkpt>
      <trkpt lat="49.01153" lon="-0.47197">
        <ele>24.2</ele>
        <time>2023-05-23T13:39:14Z</time>
      </trkpt>
      <trkpt lat="49.01158" lon="-0.47195">
        <ele>24.2</ele>
        <time>2023-05-23T13:39:15Z</time>
      </trkpt>
      <trkpt lat="49.01164" lon="-0.47195">
        <ele>24.2</ele>
        <time>2023-05-23T13:39:16Z</time>
      </trkpt>
      <trkpt lat="49.01169" lon="-0.47194">
        <ele>24.4</ele>
        <time>2023-05-23T13:39:17Z</time>
      </trkpt>
      <trkpt lat="49.01174" lon="-0.47193">
        <ele>24.4</ele>
        <time>2023-05-23T13:39:18Z</time>
      </trkpt>
      <trkpt lat="49.01179" lon="-0.47192">
        <ele>24.6</ele>
        <time>2023-05-23T13:39:19Z</time>
      </trkpt>
      <trkpt lat="49.01184" lon="-0.47191">
        <ele>24.6</ele>
        <time>2023-05-23T13:39:20Z</time>
      </trkpt>
      <trkpt lat="49.0119" lon="-0.47189">
        <ele>24.6</ele>
        <time>2023-05-23T13:39:21Z</time>
      </trkpt>
      <trkpt lat="49.01195" lon="-0.47188">
        <ele>24.8</ele>
        <time>2023-05-23T13:39:22Z</time>
      </trkpt>
      <trkpt lat="49.012" lon="-0.47186">
        <ele>24.8</ele>
        <time>2023-05-23T13:39:23Z</time>
      </trkpt>
      <trkpt lat="49.01206" lon="-0.47184">
        <ele>24.8</ele>
        <time>2023-05-23T13:39:24Z</time>
      </trkpt>
      <trkpt lat="49.01211" lon="-0.47183">
        <ele>24.8</ele>
        <time>2023-05-23T13:39:25Z</time>
      </trkpt>
      <trkpt lat="49.01217" lon="-0.47181">
        <ele>25.2</ele>
        <time>2023-05-23T13:39:26Z</time>
      </trkpt>
      <trkpt lat="49.01223" lon="-0.47179">
        <ele>25.2</ele>
        <time>2023-05-23T13:39:27Z</time>
      </trkpt>
      <trkpt lat="49.01228" lon="-0.47177">
        <ele>25.2</ele>
        <time>2023-05-23T13:39:28Z</time>
      </trkpt>
      <trkpt lat="49.01234" lon="-0.47175">
        <ele>25.4</ele>
        <time>2023-05-23T13:39:29Z</time>
      </trkpt>
      <trkpt lat="49.01239" lon="-0.47173">
        <ele>25.6</ele>
        <time>2023-05-23T13:39:30Z</time>
      </trkpt>
      <trkpt lat="49.01245" lon="-0.47171">
        <ele>25.8</ele>
        <time>2023-05-23T13:39:31Z</time>
      </trkpt>
      <trkpt lat="49.0125" lon="-0.47169">
        <ele>25.8</ele>
        <time>2023-05-23T13:39:32Z</time>
      </trkpt>
      <trkpt lat="49.01256" lon="-0.47166">
        <ele>25.8</ele>
        <time>2023-05-23T13:39:33Z</time>
      </trkpt>
      <trkpt lat="49.01261" lon="-0.47164">
        <ele>25.8</ele>
        <time>2023-05-23T13:39:34Z</time>
      </trkpt>
      <trkpt lat="49.01267" lon="-0.47161">
        <ele>25.8</ele>
        <time>2023-05-23T13:39:35Z</time>
      </trkpt>
      <trkpt lat="49.01272" lon="-0.47159">
        <ele>25.8</ele>
        <time>2023-05-23T13:39:36Z</time>
      </trkpt>
      <trkpt lat="49.01278" lon="-0.47156">
        <ele>25.6</ele>
        <time>2023-05-23T13:39:37Z</time>
      </trkpt>
      <trkpt lat="49.01283" lon="-0.47153">
        <ele>25.6</ele>
        <time>2023-05-23T13:39:38Z</time>
      </trkpt>
      <trkpt lat="49.01289" lon="-0.4715">
        <ele>25.6</ele>
        <time>2023-05-23T13:39:39Z</time>
      </trkpt>
      <trkpt lat="49.01294" lon="-0.47147">
        <ele>25.6</ele>
        <time>2023-05-23T13:39:40Z</time>
      </trkpt>
      <trkpt lat="49.01299" lon="-0.47144">
        <ele>25.6</ele>
        <time>2023-05-23T13:39:41Z</time>
      </trkpt>
      <trkpt lat="49.01304" lon="-0.47141">
        <ele>25.6</ele>
        <time>2023-05-23T13:39:42Z</time>
      </trkpt>
      <trkpt lat="49.0131" lon="-0.47138">
        <ele>25.6</ele>
        <time>2023-05-23T13:39:43Z</time>
      </trkpt>
      <trkpt lat="49.01315" lon="-0.47134">
        <ele>25.6</ele>
        <time>2023-05-23T13:39:44Z</time>
      </trkpt>
      <trkpt lat="49.0132" lon="-0.47131">
        <ele>25.6</ele>
        <time>2023-05-23T13:39:45Z</time>
      </trkpt>
      <trkpt lat="49.01325" lon="-0.47127">
        <ele>25.6</ele>
        <time>2023-05-23T13:39:46Z</time>
      </trkpt>
      <trkpt lat="49.01331" lon="-0.47123">
        <ele>25.6</ele>
        <time>2023-05-23T13:39:47Z</time>
      </trkpt>
      <trkpt lat="49.01336" lon="-0.4712">
        <ele>25.6</ele>
        <time>2023-05-23T13:39:48Z</time>
      </trkpt>
      <trkpt lat="49.01341" lon="-0.47116">
        <ele>25.6</ele>
        <time>2023-05-23T13:39:49Z</time>
      </trkpt>
      <trkpt lat="49.01346" lon="-0.47112">
        <ele>25.6</ele>
        <time>2023-05-23T13:39:50Z</time>
      </trkpt>
      <trkpt lat="49.01351" lon="-0.47108">
        <ele>25.6</ele>
        <time>2023-05-23T13:39:51Z</time>
      </trkpt>
      <trkpt lat="49.01356" lon="-0.47104">
        <ele>25.4</ele>
        <time>2023-05-23T13:39:52Z</time>
      </trkpt>
      <trkpt lat="49.01361" lon="-0.47099">
        <ele>25.4</ele>
        <time>2023-05-23T13:39:53Z</time>
      </trkpt>
      <trkpt lat="49.01366" lon="-0.47095">
        <ele>25.4</ele>
        <time>2023-05-23T13:39:54Z</time>
      </trkpt>
      <trkpt lat="49.01371" lon="-0.47091">
        <ele>25.4</ele>
        <time>2023-05-23T13:39:55Z</time>
      </trkpt>
      <trkpt lat="49.01377" lon="-0.47086">
        <ele>25.2</ele>
        <time>2023-05-23T13:39:56Z</time>
      </trkpt>
      <trkpt lat="49.01381" lon="-0.47082">
        <ele>25.2</ele>
        <time>2023-05-23T13:39:57Z</time>
      </trkpt>
      <trkpt lat="49.01387" lon="-0.47077">
        <ele>25.2</ele>
        <time>2023-05-23T13:39:58Z</time>
      </trkpt>
      <trkpt lat="49.01392" lon="-0.47072">
        <ele>25.2</ele>
        <time>2023-05-23T13:39:59Z</time>
      </trkpt>
      <trkpt lat="49.01397" lon="-0.47068">
        <ele>25.4</ele>
        <time>2023-05-23T13:40:00Z</time>
      </trkpt>
      <trkpt lat="49.01402" lon="-0.47063">
        <ele>25.4</ele>
        <time>2023-05-23T13:40:01Z</time>
      </trkpt>
      <trkpt lat="49.01407" lon="-0.47058">
        <ele>25.6</ele>
        <time>2023-05-23T13:40:02Z</time>
      </trkpt>
      <trkpt lat="49.01412" lon="-0.47053">
        <ele>25.6</ele>
        <time>2023-05-23T13:40:03Z</time>
      </trkpt>
      <trkpt lat="49.01417" lon="-0.47048">
        <ele>25.8</ele>
        <time>2023-05-23T13:40:04Z</time>
      </trkpt>
      <trkpt lat="49.01422" lon="-0.47043">
        <ele>25.8</ele>
        <time>2023-05-23T13:40:05Z</time>
      </trkpt>
      <trkpt lat="49.01427" lon="-0.47038">
        <ele>25.8</ele>
        <time>2023-05-23T13:40:06Z</time>
      </trkpt>
      <trkpt lat="49.01432" lon="-0.47033">
        <ele>25.8</ele>
        <time>2023-05-23T13:40:07Z</time>
      </trkpt>
      <trkpt lat="49.01437" lon="-0.47027">
        <ele>25.8</ele>
        <time>2023-05-23T13:40:08Z</time>
      </trkpt>
      <trkpt lat="49.01442" lon="-0.47022">
        <ele>25.8</ele>
        <time>2023-05-23T13:40:09Z</time>
      </trkpt>
      <trkpt lat="49.01447" lon="-0.47017">
        <ele>25.8</ele>
        <time>2023-05-23T13:40:10Z</time>
      </trkpt>
      <trkpt lat="49.01452" lon="-0.47011">
        <ele>25.8</ele>
        <time>2023-05-23T13:40:11Z</time>
      </trkpt>
      <trkpt lat="49.01457" lon="-0.47006">
        <ele>25.8</ele>
        <time>2023-05-23T13:40:12Z</time>
      </trkpt>
      <trkpt lat="49.01463" lon="-0.47">
        <ele>25.8</ele>
        <time>2023-05-23T13:40:13Z</time>
      </trkpt>
      <trkpt lat="49.01468" lon="-0.46995">
        <ele>25.8</ele>
        <time>2023-05-23T13:40:14Z</time>
      </trkpt>
      <trkpt lat="49.01473" lon="-0.46989">
        <ele>25.6</ele>
        <time>2023-05-23T13:40:15Z</time>
      </trkpt>
      <trkpt lat="49.01478" lon="-0.46984">
        <ele>25.6</ele>
        <time>2023-05-23T13:40:16Z</time>
      </trkpt>
      <trkpt lat="49.01483" lon="-0.46978">
        <ele>25.6</ele>
        <time>2023-05-23T13:40:17Z</time>
      </trkpt>
      <trkpt lat="49.01489" lon="-0.46973">
        <ele>25.6</ele>
        <time>2023-05-23T13:40:18Z</time>
      </trkpt>
      <trkpt lat="49.01494" lon="-0.46967">
        <ele>25.4</ele>
        <time>2023-05-23T13:40:19Z</time>
      </trkpt>
      <trkpt lat="49.015" lon="-0.46962">
        <ele>25.4</ele>
        <time>2023-05-23T13:40:20Z</time>
      </trkpt>
      <trkpt lat="49.01505" lon="-0.46956">
        <ele>25.4</ele>
        <time>2023-05-23T13:40:21Z</time>
      </trkpt>
      <trkpt lat="49.01511" lon="-0.46951">
        <ele>25.4</ele>
        <time>2023-05-23T13:40:22Z</time>
      </trkpt>
      <trkpt lat="49.01516" lon="-0.46945">
        <ele>25.6</ele>
        <time>2023-05-23T13:40:23Z</time>
      </trkpt>
      <trkpt lat="49.01521" lon="-0.4694">
        <ele>25.6</ele>
        <time>2023-05-23T13:40:24Z</time>
      </trkpt>
      <trkpt lat="49.01527" lon="-0.46935">
        <ele>25.6</ele>
        <time>2023-05-23T13:40:25Z</time>
      </trkpt>
      <trkpt lat="49.01532" lon="-0.46929">
        <ele>25.6</ele>
        <time>2023-05-23T13:40:26Z</time>
      </trkpt>
      <trkpt lat="49.01538" lon="-0.46924">
        <ele>25.4</ele>
        <time>2023-05-23T13:40:27Z</time>
      </trkpt>
      <trkpt lat="49.01543" lon="-0.46919">
        <ele>25.4</ele>
        <time>2023-05-23T13:40:28Z</time>
      </trkpt>
      <trkpt lat="49.01548" lon="-0.46914">
        <ele>25.4</ele>
        <time>2023-05-23T13:40:29Z</time>
      </trkpt>
      <trkpt lat="49.01553" lon="-0.46909">
        <ele>25.6</ele>
        <time>2023-05-23T13:40:30Z</time>
      </trkpt>
      <trkpt lat="49.01559" lon="-0.46904">
        <ele>25.6</ele>
        <time>2023-05-23T13:40:31Z</time>
      </trkpt>
      <trkpt lat="49.01564" lon="-0.46899">
        <ele>25.6</ele>
        <time>2023-05-23T13:40:32Z</time>
      </trkpt>
      <trkpt lat="49.0157" lon="-0.46894">
        <ele>25.8</ele>
        <time>2023-05-23T13:40:33Z</time>
      </trkpt>
      <trkpt lat="49.01575" lon="-0.46889">
        <ele>25.8</ele>
        <time>2023-05-23T13:40:34Z</time>
      </trkpt>
      <trkpt lat="49.0158" lon="-0.46885">
        <ele>25.8</ele>
        <time>2023-05-23T13:40:35Z</time>
      </trkpt>
      <trkpt lat="49.01586" lon="-0.4688">
        <ele>25.6</ele>
        <time>2023-05-23T13:40:36Z</time>
      </trkpt>
      <trkpt lat="49.01591" lon="-0.46875">
        <ele>25.6</ele>
        <time>2023-05-23T13:40:37Z</time>
      </trkpt>
      <trkpt lat="49.01597" lon="-0.4687">
        <ele>25.2</ele>
        <time>2023-05-23T13:40:38Z</time>
      </trkpt>
      <trkpt lat="49.01602" lon="-0.46865">
        <ele>25.2</ele>
        <time>2023-05-23T13:40:39Z</time>
      </trkpt>
      <trkpt lat="49.01608" lon="-0.4686">
        <ele>25</ele>
        <time>2023-05-23T13:40:40Z</time>
      </trkpt>
      <trkpt lat="49.01613" lon="-0.46855">
        <ele>24.8</ele>
        <time>2023-05-23T13:40:41Z</time>
      </trkpt>
      <trkpt lat="49.01619" lon="-0.4685">
        <ele>24.8</ele>
        <time>2023-05-23T13:40:42Z</time>
      </trkpt>
      <trkpt lat="49.01624" lon="-0.46845">
        <ele>24.6</ele>
        <time>2023-05-23T13:40:43Z</time>
      </trkpt>
      <trkpt lat="49.0163" lon="-0.4684">
        <ele>24.4</ele>
        <time>2023-05-23T13:40:44Z</time>
      </trkpt>
      <trkpt lat="49.01636" lon="-0.46835">
        <ele>24.2</ele>
        <time>2023-05-23T13:40:45Z</time>
      </trkpt>
      <trkpt lat="49.01641" lon="-0.4683">
        <ele>24</ele>
        <time>2023-05-23T13:40:46Z</time>
      </trkpt>
      <trkpt lat="49.01647" lon="-0.46826">
        <ele>24</ele>
        <time>2023-05-23T13:40:47Z</time>
      </trkpt>
      <trkpt lat="49.01653" lon="-0.46821">
        <ele>23.8</ele>
        <time>2023-05-23T13:40:48Z</time>
      </trkpt>
      <trkpt lat="49.01659" lon="-0.46816">
        <ele>23.8</ele>
        <time>2023-05-23T13:40:49Z</time>
      </trkpt>
      <trkpt lat="49.01664" lon="-0.46812">
        <ele>23.8</ele>
        <time>2023-05-23T13:40:50Z</time>
      </trkpt>
      <trkpt lat="49.0167" lon="-0.46807">
        <ele>23.8</ele>
        <time>2023-05-23T13:40:51Z</time>
      </trkpt>
      <trkpt lat="49.01676" lon="-0.46802">
        <ele>23.8</ele>
        <time>2023-05-23T13:40:52Z</time>
      </trkpt>
      <trkpt lat="49.01682" lon="-0.46797">
        <ele>23.8</ele>
        <time>2023-05-23T13:40:53Z</time>
      </trkpt>
      <trkpt lat="49.01687" lon="-0.46792">
        <ele>23.8</ele>
        <time>2023-05-23T13:40:54Z</time>
      </trkpt>
      <trkpt lat="49.01693" lon="-0.46787">
        <ele>23.8</ele>
        <time>2023-05-23T13:40:55Z</time>
      </trkpt>
      <trkpt lat="49.01699" lon="-0.46783">
        <ele>23.8</ele>
        <time>2023-05-23T13:40:56Z</time>
      </trkpt>
      <trkpt lat="49.01705" lon="-0.46778">
        <ele>23.8</ele>
        <time>2023-05-23T13:40:57Z</time>
      </trkpt>
      <trkpt lat="49.0171" lon="-0.46774">
        <ele>23.8</ele>
        <time>2023-05-23T13:40:58Z</time>
      </trkpt>
      <trkpt lat="49.01716" lon="-0.46769">
        <ele>23.8</ele>
        <time>2023-05-23T13:40:59Z</time>
      </trkpt>
      <trkpt lat="49.01722" lon="-0.46764">
        <ele>23.8</ele>
        <time>2023-05-23T13:41:00Z</time>
      </trkpt>
      <trkpt lat="49.01728" lon="-0.4676">
        <ele>23.8</ele>
        <time>2023-05-23T13:41:01Z</time>
      </trkpt>
      <trkpt lat="49.01733" lon="-0.46755">
        <ele>23.8</ele>
        <time>2023-05-23T13:41:02Z</time>
      </trkpt>
      <trkpt lat="49.01739" lon="-0.4675">
        <ele>23.8</ele>
        <time>2023-05-23T13:41:03Z</time>
      </trkpt>
      <trkpt lat="49.01744" lon="-0.46745">
        <ele>23.8</ele>
        <time>2023-05-23T13:41:04Z</time>
      </trkpt>
      <trkpt lat="49.0175" lon="-0.4674">
        <ele>23.8</ele>
        <time>2023-05-23T13:41:05Z</time>
      </trkpt>
      <trkpt lat="49.01755" lon="-0.46735">
        <ele>23.8</ele>
        <time>2023-05-23T13:41:06Z</time>
      </trkpt>
      <trkpt lat="49.01761" lon="-0.4673">
        <ele>23.8</ele>
        <time>2023-05-23T13:41:07Z</time>
      </trkpt>
      <trkpt lat="49.01767" lon="-0.46725">
        <ele>23.8</ele>
        <time>2023-05-23T13:41:08Z</time>
      </trkpt>
      <trkpt lat="49.01772" lon="-0.4672">
        <ele>23.8</ele>
        <time>2023-05-23T13:41:09Z</time>
      </trkpt>
      <trkpt lat="49.01778" lon="-0.46715">
        <ele>23.8</ele>
        <time>2023-05-23T13:41:10Z</time>
      </trkpt>
      <trkpt lat="49.01784" lon="-0.4671">
        <ele>23.6</ele>
        <time>2023-05-23T13:41:11Z</time>
      </trkpt>
      <trkpt lat="49.0179" lon="-0.46705">
        <ele>23.6</ele>
        <time>2023-05-23T13:41:12Z</time>
      </trkpt>
      <trkpt lat="49.01796" lon="-0.46701">
        <ele>23.4</ele>
        <time>2023-05-23T13:41:13Z</time>
      </trkpt>
      <trkpt lat="49.01802" lon="-0.46696">
        <ele>23.2</ele>
        <time>2023-05-23T13:41:14Z</time>
      </trkpt>
      <trkpt lat="49.01808" lon="-0.46691">
        <ele>23.2</ele>
        <time>2023-05-23T13:41:15Z</time>
      </trkpt>
      <trkpt lat="49.01815" lon="-0.46686">
        <ele>23.2</ele>
        <time>2023-05-23T13:41:16Z</time>
      </trkpt>
      <trkpt lat="49.01821" lon="-0.46682">
        <ele>23</ele>
        <time>2023-05-23T13:41:17Z</time>
      </trkpt>
      <trkpt lat="49.01827" lon="-0.46677">
        <ele>22.8</ele>
        <time>2023-05-23T13:41:18Z</time>
      </trkpt>
      <trkpt lat="49.01833" lon="-0.46672">
        <ele>22.8</ele>
        <time>2023-05-23T13:41:19Z</time>
      </trkpt>
      <trkpt lat="49.01838" lon="-0.46667">
        <ele>22.8</ele>
        <time>2023-05-23T13:41:20Z</time>
      </trkpt>
      <trkpt lat="49.01844" lon="-0.46662">
        <ele>23.2</ele>
        <time>2023-05-23T13:41:21Z</time>
      </trkpt>
      <trkpt lat="49.0185" lon="-0.46657">
        <ele>23.2</ele>
        <time>2023-05-23T13:41:22Z</time>
      </trkpt>
      <trkpt lat="49.01856" lon="-0.46652">
        <ele>23.6</ele>
        <time>2023-05-23T13:41:23Z</time>
      </trkpt>
      <trkpt lat="49.01862" lon="-0.46647">
        <ele>23.8</ele>
        <time>2023-05-23T13:41:24Z</time>
      </trkpt>
      <trkpt lat="49.01867" lon="-0.46642">
        <ele>23.8</ele>
        <time>2023-05-23T13:41:25Z</time>
      </trkpt>
      <trkpt lat="49.01873" lon="-0.46637">
        <ele>24</ele>
        <time>2023-05-23T13:41:26Z</time>
      </trkpt>
      <trkpt lat="49.01879" lon="-0.46632">
        <ele>24.2</ele>
        <time>2023-05-23T13:41:27Z</time>
      </trkpt>
      <trkpt lat="49.01886" lon="-0.46627">
        <ele>24.2</ele>
        <time>2023-05-23T13:41:28Z</time>
      </trkpt>
      <trkpt lat="49.01893" lon="-0.46623">
        <ele>24.4</ele>
        <time>2023-05-23T13:41:29Z</time>
      </trkpt>
      <trkpt lat="49.019" lon="-0.46618">
        <ele>24.4</ele>
        <time>2023-05-23T13:41:30Z</time>
      </trkpt>
      <trkpt lat="49.01907" lon="-0.46614">
        <ele>24.6</ele>
        <time>2023-05-23T13:41:31Z</time>
      </trkpt>
      <trkpt lat="49.01915" lon="-0.46609">
        <ele>24.6</ele>
        <time>2023-05-23T13:41:32Z</time>
      </trkpt>
      <trkpt lat="49.01922" lon="-0.46605">
        <ele>24.6</ele>
        <time>2023-05-23T13:41:33Z</time>
      </trkpt>
      <trkpt lat="49.01929" lon="-0.46601">
        <ele>24.6</ele>
        <time>2023-05-23T13:41:34Z</time>
      </trkpt>
      <trkpt lat="49.01936" lon="-0.46597">
        <ele>24.8</ele>
        <time>2023-05-23T13:41:35Z</time>
      </trkpt>
      <trkpt lat="49.01943" lon="-0.46594">
        <ele>24.8</ele>
        <time>2023-05-23T13:41:36Z</time>
      </trkpt>
      <trkpt lat="49.0195" lon="-0.4659">
        <ele>24.8</ele>
        <time>2023-05-23T13:41:37Z</time>
      </trkpt>
      <trkpt lat="49.01958" lon="-0.46587">
        <ele>24.8</ele>
        <time>2023-05-23T13:41:38Z</time>
      </trkpt>
      <trkpt lat="49.01965" lon="-0.46583">
        <ele>24.8</ele>
        <time>2023-05-23T13:41:39Z</time>
      </trkpt>
      <trkpt lat="49.01972" lon="-0.4658">
        <ele>25</ele>
        <time>2023-05-23T13:41:40Z</time>
      </trkpt>
      <trkpt lat="49.0198" lon="-0.46577">
        <ele>25.2</ele>
        <time>2023-05-23T13:41:41Z</time>
      </trkpt>
      <trkpt lat="49.01988" lon="-0.46575">
        <ele>25.2</ele>
        <time>2023-05-23T13:41:42Z</time>
      </trkpt>
      <trkpt lat="49.01996" lon="-0.46572">
        <ele>25.2</ele>
        <time>2023-05-23T13:41:43Z</time>
      </trkpt>
      <trkpt lat="49.02004" lon="-0.4657">
        <ele>25.4</ele>
        <time>2023-05-23T13:41:44Z</time>
      </trkpt>
      <trkpt lat="49.02011" lon="-0.46568">
        <ele>25.8</ele>
        <time>2023-05-23T13:41:45Z</time>
      </trkpt>
      <trkpt lat="49.02019" lon="-0.46566">
        <ele>25.8</ele>
        <time>2023-05-23T13:41:46Z</time>
      </trkpt>
      <trkpt lat="49.02027" lon="-0.46564">
        <ele>26.2</ele>
        <time>2023-05-23T13:41:47Z</time>
      </trkpt>
      <trkpt lat="49.02034" lon="-0.46562">
        <ele>26.2</ele>
        <time>2023-05-23T13:41:48Z</time>
      </trkpt>
      <trkpt lat="49.02041" lon="-0.4656">
        <ele>26.6</ele>
        <time>2023-05-23T13:41:49Z</time>
      </trkpt>
      <trkpt lat="49.02049" lon="-0.46558">
        <ele>26.8</ele>
        <time>2023-05-23T13:41:50Z</time>
      </trkpt>
      <trkpt lat="49.02056" lon="-0.46557">
        <ele>27.2</ele>
        <time>2023-05-23T13:41:51Z</time>
      </trkpt>
      <trkpt lat="49.02064" lon="-0.46555">
        <ele>27.4</ele>
        <time>2023-05-23T13:41:52Z</time>
      </trkpt>
      <trkpt lat="49.02071" lon="-0.46553">
        <ele>27.8</ele>
        <time>2023-05-23T13:41:53Z</time>
      </trkpt>
      <trkpt lat="49.02078" lon="-0.46551">
        <ele>28</ele>
        <time>2023-05-23T13:41:54Z</time>
      </trkpt>
      <trkpt lat="49.02086" lon="-0.4655">
        <ele>28.2</ele>
        <time>2023-05-23T13:41:55Z</time>
      </trkpt>
      <trkpt lat="49.02094" lon="-0.46548">
        <ele>28.8</ele>
        <time>2023-05-23T13:41:56Z</time>
      </trkpt>
      <trkpt lat="49.02102" lon="-0.46547">
        <ele>29</ele>
        <time>2023-05-23T13:41:57Z</time>
      </trkpt>
      <trkpt lat="49.02109" lon="-0.46545">
        <ele>29.2</ele>
        <time>2023-05-23T13:41:58Z</time>
      </trkpt>
      <trkpt lat="49.02116" lon="-0.46544">
        <ele>29.8</ele>
        <time>2023-05-23T13:41:59Z</time>
      </trkpt>
      <trkpt lat="49.02124" lon="-0.46542">
        <ele>30.2</ele>
        <time>2023-05-23T13:42:00Z</time>
      </trkpt>
      <trkpt lat="49.02131" lon="-0.46541">
        <ele>30.6</ele>
        <time>2023-05-23T13:42:01Z</time>
      </trkpt>
      <trkpt lat="49.02138" lon="-0.46539">
        <ele>30.8</ele>
        <time>2023-05-23T13:42:02Z</time>
      </trkpt>
      <trkpt lat="49.02145" lon="-0.46538">
        <ele>31.2</ele>
        <time>2023-05-23T13:42:03Z</time>
      </trkpt>
      <trkpt lat="49.02152" lon="-0.46537">
        <ele>31.6</ele>
        <time>2023-05-23T13:42:04Z</time>
      </trkpt>
      <trkpt lat="49.02159" lon="-0.46535">
        <ele>31.8</ele>
        <time>2023-05-23T13:42:05Z</time>
      </trkpt>
      <trkpt lat="49.02165" lon="-0.46534">
        <ele>32.2</ele>
        <time>2023-05-23T13:42:06Z</time>
      </trkpt>
      <trkpt lat="49.02172" lon="-0.46533">
        <ele>32.2</ele>
        <time>2023-05-23T13:42:07Z</time>
      </trkpt>
      <trkpt lat="49.02179" lon="-0.46531">
        <ele>32</ele>
        <time>2023-05-23T13:42:08Z</time>
      </trkpt>
      <trkpt lat="49.02186" lon="-0.4653">
        <ele>31.8</ele>
        <time>2023-05-23T13:42:09Z</time>
      </trkpt>
      <trkpt lat="49.02194" lon="-0.46528">
        <ele>31.8</ele>
        <time>2023-05-23T13:42:10Z</time>
      </trkpt>
      <trkpt lat="49.02201" lon="-0.46526">
        <ele>31.6</ele>
        <time>2023-05-23T13:42:11Z</time>
      </trkpt>
      <trkpt lat="49.02208" lon="-0.46525">
        <ele>31.2</ele>
        <time>2023-05-23T13:42:12Z</time>
      </trkpt>
      <trkpt lat="49.02215" lon="-0.46523">
        <ele>31.2</ele>
        <time>2023-05-23T13:42:13Z</time>
      </trkpt>
      <trkpt lat="49.02221" lon="-0.46522">
        <ele>30.8</ele>
        <time>2023-05-23T13:42:14Z</time>
      </trkpt>
      <trkpt lat="49.02228" lon="-0.46521">
        <ele>30.8</ele>
        <time>2023-05-23T13:42:15Z</time>
      </trkpt>
      <trkpt lat="49.02234" lon="-0.46519">
        <ele>30.4</ele>
        <time>2023-05-23T13:42:16Z</time>
      </trkpt>
      <trkpt lat="49.02241" lon="-0.46518">
        <ele>30.2</ele>
        <time>2023-05-23T13:42:17Z</time>
      </trkpt>
      <trkpt lat="49.02248" lon="-0.46516">
        <ele>30</ele>
        <time>2023-05-23T13:42:18Z</time>
      </trkpt>
      <trkpt lat="49.02254" lon="-0.46515">
        <ele>29.8</ele>
        <time>2023-05-23T13:42:19Z</time>
      </trkpt>
      <trkpt lat="49.02261" lon="-0.46513">
        <ele>29.6</ele>
        <time>2023-05-23T13:42:20Z</time>
      </trkpt>
      <trkpt lat="49.02267" lon="-0.46512">
        <ele>29.2</ele>
        <time>2023-05-23T13:42:21Z</time>
      </trkpt>
      <trkpt lat="49.02274" lon="-0.46511">
        <ele>29</ele>
        <time>2023-05-23T13:42:22Z</time>
      </trkpt>
      <trkpt lat="49.0228" lon="-0.46509">
        <ele>28.8</ele>
        <time>2023-05-23T13:42:23Z</time>
      </trkpt>
      <trkpt lat="49.02287" lon="-0.46508">
        <ele>28.6</ele>
        <time>2023-05-23T13:42:24Z</time>
      </trkpt>
      <trkpt lat="49.02293" lon="-0.46506">
        <ele>28.2</ele>
        <time>2023-05-23T13:42:25Z</time>
      </trkpt>
      <trkpt lat="49.023" lon="-0.46505">
        <ele>27.8</ele>
        <time>2023-05-23T13:42:26Z</time>
      </trkpt>
      <trkpt lat="49.02306" lon="-0.46504">
        <ele>27.6</ele>
        <time>2023-05-23T13:42:27Z</time>
      </trkpt>
      <trkpt lat="49.02312" lon="-0.46502">
        <ele>27.2</ele>
        <time>2023-05-23T13:42:28Z</time>
      </trkpt>
      <trkpt lat="49.02319" lon="-0.46501">
        <ele>27</ele>
        <time>2023-05-23T13:42:29Z</time>
      </trkpt>
      <trkpt lat="49.02325" lon="-0.46499">
        <ele>26.8</ele>
        <time>2023-05-23T13:42:30Z</time>
      </trkpt>
      <trkpt lat="49.02331" lon="-0.46498">
        <ele>26.8</ele>
        <time>2023-05-23T13:42:31Z</time>
      </trkpt>
      <trkpt lat="49.02338" lon="-0.46496">
        <ele>27</ele>
        <time>2023-05-23T13:42:32Z</time>
      </trkpt>
      <trkpt lat="49.02344" lon="-0.46495">
        <ele>27.2</ele>
        <time>2023-05-23T13:42:33Z</time>
      </trkpt>
      <trkpt lat="49.0235" lon="-0.46493">
        <ele>27.2</ele>
        <time>2023-05-23T13:42:34Z</time>
      </trkpt>
      <trkpt lat="49.02357" lon="-0.46491">
        <ele>27.4</ele>
        <time>2023-05-23T13:42:35Z</time>
      </trkpt>
      <trkpt lat="49.02363" lon="-0.4649">
        <ele>27.6</ele>
        <time>2023-05-23T13:42:36Z</time>
      </trkpt>
      <trkpt lat="49.02369" lon="-0.46488">
        <ele>27.6</ele>
        <time>2023-05-23T13:42:37Z</time>
      </trkpt>
      <trkpt lat="49.02376" lon="-0.46487">
        <ele>27.6</ele>
        <time>2023-05-23T13:42:38Z</time>
      </trkpt>
      <trkpt lat="49.02383" lon="-0.46485">
        <ele>27.6</ele>
        <time>2023-05-23T13:42:39Z</time>
      </trkpt>
      <trkpt lat="49.02389" lon="-0.46484">
        <ele>27.8</ele>
        <time>2023-05-23T13:42:40Z</time>
      </trkpt>
      <trkpt lat="49.02396" lon="-0.46483">
        <ele>27.6</ele>
        <time>2023-05-23T13:42:41Z</time>
      </trkpt>
      <trkpt lat="49.02402" lon="-0.46481">
        <ele>27.6</ele>
        <time>2023-05-23T13:42:42Z</time>
      </trkpt>
      <trkpt lat="49.02409" lon="-0.4648">
        <ele>27.6</ele>
        <time>2023-05-23T13:42:43Z</time>
      </trkpt>
      <trkpt lat="49.02415" lon="-0.46479">
        <ele>27.4</ele>
        <time>2023-05-23T13:42:44Z</time>
      </trkpt>
      <trkpt lat="49.02422" lon="-0.46478">
        <ele>27.2</ele>
        <time>2023-05-23T13:42:45Z</time>
      </trkpt>
      <trkpt lat="49.02428" lon="-0.46477">
        <ele>27.2</ele>
        <time>2023-05-23T13:42:46Z</time>
      </trkpt>
      <trkpt lat="49.02434" lon="-0.46476">
        <ele>27.2</ele>
        <time>2023-05-23T13:42:47Z</time>
      </trkpt>
      <trkpt lat="49.0244" lon="-0.46474">
        <ele>27.2</ele>
        <time>2023-05-23T13:42:48Z</time>
      </trkpt>
      <trkpt lat="49.02446" lon="-0.46473">
        <ele>27.2</ele>
        <time>2023-05-23T13:42:49Z</time>
      </trkpt>
      <trkpt lat="49.02451" lon="-0.46471">
        <ele>27.2</ele>
        <time>2023-05-23T13:42:50Z</time>
      </trkpt>
      <trkpt lat="49.02457" lon="-0.4647">
        <ele>27.2</ele>
        <time>2023-05-23T13:42:51Z</time>
      </trkpt>
      <trkpt lat="49.02463" lon="-0.46469">
        <ele>27.2</ele>
        <time>2023-05-23T13:42:52Z</time>
      </trkpt>
      <trkpt lat="49.02469" lon="-0.46467">
        <ele>27</ele>
        <time>2023-05-23T13:42:53Z</time>
      </trkpt>
      <trkpt lat="49.02475" lon="-0.46466">
        <ele>26.8</ele>
        <time>2023-05-23T13:42:54Z</time>
      </trkpt>
      <trkpt lat="49.02481" lon="-0.46464">
        <ele>26.6</ele>
        <time>2023-05-23T13:42:55Z</time>
      </trkpt>
      <trkpt lat="49.02487" lon="-0.46463">
        <ele>26.4</ele>
        <time>2023-05-23T13:42:56Z</time>
      </trkpt>
      <trkpt lat="49.02493" lon="-0.46462">
        <ele>26.2</ele>
        <time>2023-05-23T13:42:57Z</time>
      </trkpt>
      <trkpt lat="49.02499" lon="-0.46461">
        <ele>25.8</ele>
        <time>2023-05-23T13:42:58Z</time>
      </trkpt>
      <trkpt lat="49.02506" lon="-0.4646">
        <ele>25.8</ele>
        <time>2023-05-23T13:42:59Z</time>
      </trkpt>
      <trkpt lat="49.02512" lon="-0.46459">
        <ele>25.6</ele>
        <time>2023-05-23T13:43:00Z</time>
      </trkpt>
      <trkpt lat="49.02519" lon="-0.46459">
        <ele>25.6</ele>
        <time>2023-05-23T13:43:01Z</time>
      </trkpt>
      <trkpt lat="49.02525" lon="-0.46458">
        <ele>25.6</ele>
        <time>2023-05-23T13:43:02Z</time>
      </trkpt>
      <trkpt lat="49.02531" lon="-0.46456">
        <ele>25.6</ele>
        <time>2023-05-23T13:43:03Z</time>
      </trkpt>
      <trkpt lat="49.02537" lon="-0.46455">
        <ele>25.6</ele>
        <time>2023-05-23T13:43:04Z</time>
      </trkpt>
      <trkpt lat="49.02543" lon="-0.46453">
        <ele>25.6</ele>
        <time>2023-05-23T13:43:05Z</time>
      </trkpt>
      <trkpt lat="49.02549" lon="-0.46452">
        <ele>25.6</ele>
        <time>2023-05-23T13:43:06Z</time>
      </trkpt>
      <trkpt lat="49.02555" lon="-0.4645">
        <ele>25.6</ele>
        <time>2023-05-23T13:43:07Z</time>
      </trkpt>
      <trkpt lat="49.02561" lon="-0.46448">
        <ele>25.6</ele>
        <time>2023-05-23T13:43:08Z</time>
      </trkpt>
      <trkpt lat="49.02567" lon="-0.46447">
        <ele>25.6</ele>
        <time>2023-05-23T13:43:09Z</time>
      </trkpt>
      <trkpt lat="49.02573" lon="-0.46445">
        <ele>25.6</ele>
        <time>2023-05-23T13:43:10Z</time>
      </trkpt>
      <trkpt lat="49.0258" lon="-0.46444">
        <ele>25.6</ele>
        <time>2023-05-23T13:43:11Z</time>
      </trkpt>
      <trkpt lat="49.02586" lon="-0.46443">
        <ele>25.4</ele>
        <time>2023-05-23T13:43:12Z</time>
      </trkpt>
      <trkpt lat="49.02592" lon="-0.46442">
        <ele>25.6</ele>
        <time>2023-05-23T13:43:13Z</time>
      </trkpt>
      <trkpt lat="49.02599" lon="-0.46441">
        <ele>25.6</ele>
        <time>2023-05-23T13:43:14Z</time>
      </trkpt>
      <trkpt lat="49.02606" lon="-0.4644">
        <ele>25.6</ele>
        <time>2023-05-23T13:43:15Z</time>
      </trkpt>
      <trkpt lat="49.02612" lon="-0.46439">
        <ele>25.6</ele>
        <time>2023-05-23T13:43:16Z</time>
      </trkpt>
      <trkpt lat="49.02619" lon="-0.46438">
        <ele>25.6</ele>
        <time>2023-05-23T13:43:17Z</time>
      </trkpt>
      <trkpt lat="49.02625" lon="-0.46437">
        <ele>25.6</ele>
        <time>2023-05-23T13:43:18Z</time>
      </trkpt>
      <trkpt lat="49.02632" lon="-0.46435">
        <ele>25.6</ele>
        <time>2023-05-23T13:43:19Z</time>
      </trkpt>
      <trkpt lat="49.02639" lon="-0.46434">
        <ele>25.8</ele>
        <time>2023-05-23T13:43:20Z</time>
      </trkpt>
      <trkpt lat="49.02645" lon="-0.46433">
        <ele>25.8</ele>
        <time>2023-05-23T13:43:21Z</time>
      </trkpt>
      <trkpt lat="49.02652" lon="-0.46431">
        <ele>25.8</ele>
        <time>2023-05-23T13:43:22Z</time>
      </trkpt>
      <trkpt lat="49.02658" lon="-0.4643">
        <ele>25.8</ele>
        <time>2023-05-23T13:43:23Z</time>
      </trkpt>
      <trkpt lat="49.02664" lon="-0.46429">
        <ele>25.8</ele>
        <time>2023-05-23T13:43:24Z</time>
      </trkpt>
      <trkpt lat="49.0267" lon="-0.46428">
        <ele>26</ele>
        <time>2023-05-23T13:43:25Z</time>
      </trkpt>
      <trkpt lat="49.02676" lon="-0.46427">
        <ele>26.2</ele>
        <time>2023-05-23T13:43:26Z</time>
      </trkpt>
      <trkpt lat="49.02683" lon="-0.46426">
        <ele>26.6</ele>
        <time>2023-05-23T13:43:27Z</time>
      </trkpt>
      <trkpt lat="49.0269" lon="-0.46425">
        <ele>26.8</ele>
        <time>2023-05-23T13:43:28Z</time>
      </trkpt>
      <trkpt lat="49.02696" lon="-0.46424">
        <ele>27</ele>
        <time>2023-05-23T13:43:29Z</time>
      </trkpt>
      <trkpt lat="49.02703" lon="-0.46423">
        <ele>27.2</ele>
        <time>2023-05-23T13:43:30Z</time>
      </trkpt>
      <trkpt lat="49.0271" lon="-0.46423">
        <ele>27.4</ele>
        <time>2023-05-23T13:43:31Z</time>
      </trkpt>
      <trkpt lat="49.02716" lon="-0.46422">
        <ele>27.6</ele>
        <time>2023-05-23T13:43:32Z</time>
      </trkpt>
      <trkpt lat="49.02723" lon="-0.46422">
        <ele>27.8</ele>
        <time>2023-05-23T13:43:33Z</time>
      </trkpt>
      <trkpt lat="49.0273" lon="-0.46422">
        <ele>28</ele>
        <time>2023-05-23T13:43:34Z</time>
      </trkpt>
      <trkpt lat="49.02736" lon="-0.46422">
        <ele>28.2</ele>
        <time>2023-05-23T13:43:35Z</time>
      </trkpt>
      <trkpt lat="49.02743" lon="-0.46422">
        <ele>28.2</ele>
        <time>2023-05-23T13:43:36Z</time>
      </trkpt>
      <trkpt lat="49.0275" lon="-0.46422">
        <ele>28.4</ele>
        <time>2023-05-23T13:43:37Z</time>
      </trkpt>
      <trkpt lat="49.02756" lon="-0.46423">
        <ele>28.6</ele>
        <time>2023-05-23T13:43:38Z</time>
      </trkpt>
      <trkpt lat="49.02763" lon="-0.46423">
        <ele>28.8</ele>
        <time>2023-05-23T13:43:39Z</time>
      </trkpt>
      <trkpt lat="49.02769" lon="-0.46424">
        <ele>28.8</ele>
        <time>2023-05-23T13:43:40Z</time>
      </trkpt>
      <trkpt lat="49.02776" lon="-0.46425">
        <ele>29</ele>
        <time>2023-05-23T13:43:41Z</time>
      </trkpt>
      <trkpt lat="49.02783" lon="-0.46425">
        <ele>29.2</ele>
        <time>2023-05-23T13:43:42Z</time>
      </trkpt>
      <trkpt lat="49.02789" lon="-0.46426">
        <ele>29.2</ele>
        <time>2023-05-23T13:43:43Z</time>
      </trkpt>
      <trkpt lat="49.02796" lon="-0.46428">
        <ele>29.2</ele>
        <time>2023-05-23T13:43:44Z</time>
      </trkpt>
      <trkpt lat="49.02803" lon="-0.46429">
        <ele>29.2</ele>
        <time>2023-05-23T13:43:45Z</time>
      </trkpt>
      <trkpt lat="49.02809" lon="-0.4643">
        <ele>29.2</ele>
        <time>2023-05-23T13:43:46Z</time>
      </trkpt>
      <trkpt lat="49.02816" lon="-0.46432">
        <ele>29.2</ele>
        <time>2023-05-23T13:43:47Z</time>
      </trkpt>
      <trkpt lat="49.02823" lon="-0.46434">
        <ele>29.2</ele>
        <time>2023-05-23T13:43:48Z</time>
      </trkpt>
      <trkpt lat="49.0283" lon="-0.46436">
        <ele>29</ele>
        <time>2023-05-23T13:43:49Z</time>
      </trkpt>
      <trkpt lat="49.02836" lon="-0.46437">
        <ele>29</ele>
        <time>2023-05-23T13:43:50Z</time>
      </trkpt>
      <trkpt lat="49.02843" lon="-0.46439">
        <ele>29.2</ele>
        <time>2023-05-23T13:43:51Z</time>
      </trkpt>
      <trkpt lat="49.0285" lon="-0.46442">
        <ele>29.4</ele>
        <time>2023-05-23T13:43:52Z</time>
      </trkpt>
      <trkpt lat="49.02856" lon="-0.46444">
        <ele>29.6</ele>
        <time>2023-05-23T13:43:53Z</time>
      </trkpt>
      <trkpt lat="49.02863" lon="-0.46446">
        <ele>29.8</ele>
        <time>2023-05-23T13:43:54Z</time>
      </trkpt>
      <trkpt lat="49.02869" lon="-0.46448">
        <ele>29.8</ele>
        <time>2023-05-23T13:43:55Z</time>
      </trkpt>
      <trkpt lat="49.02876" lon="-0.46451">
        <ele>29.8</ele>
        <time>2023-05-23T13:43:56Z</time>
      </trkpt>
      <trkpt lat="49.02882" lon="-0.46453">
        <ele>30</ele>
        <time>2023-05-23T13:43:57Z</time>
      </trkpt>
      <trkpt lat="49.02889" lon="-0.46455">
        <ele>30.2</ele>
        <time>2023-05-23T13:43:58Z</time>
      </trkpt>
      <trkpt lat="49.02896" lon="-0.46458">
        <ele>30.2</ele>
        <time>2023-05-23T13:43:59Z</time>
      </trkpt>
      <trkpt lat="49.02903" lon="-0.4646">
        <ele>30.2</ele>
        <time>2023-05-23T13:44:00Z</time>
      </trkpt>
      <trkpt lat="49.0291" lon="-0.46462">
        <ele>30.2</ele>
        <time>2023-05-23T13:44:01Z</time>
      </trkpt>
      <trkpt lat="49.02916" lon="-0.46464">
        <ele>30.4</ele>
        <time>2023-05-23T13:44:02Z</time>
      </trkpt>
      <trkpt lat="49.02923" lon="-0.46466">
        <ele>30.2</ele>
        <time>2023-05-23T13:44:03Z</time>
      </trkpt>
      <trkpt lat="49.0293" lon="-0.46468">
        <ele>30.2</ele>
        <time>2023-05-23T13:44:04Z</time>
      </trkpt>
      <trkpt lat="49.02936" lon="-0.4647">
        <ele>30.2</ele>
        <time>2023-05-23T13:44:05Z</time>
      </trkpt>
      <trkpt lat="49.02943" lon="-0.46472">
        <ele>30</ele>
        <time>2023-05-23T13:44:06Z</time>
      </trkpt>
      <trkpt lat="49.0295" lon="-0.46474">
        <ele>29.8</ele>
        <time>2023-05-23T13:44:07Z</time>
      </trkpt>
      <trkpt lat="49.02956" lon="-0.46476">
        <ele>29.8</ele>
        <time>2023-05-23T13:44:08Z</time>
      </trkpt>
      <trkpt lat="49.02964" lon="-0.46478">
        <ele>29.6</ele>
        <time>2023-05-23T13:44:09Z</time>
      </trkpt>
      <trkpt lat="49.02971" lon="-0.46481">
        <ele>29.6</ele>
        <time>2023-05-23T13:44:10Z</time>
      </trkpt>
      <trkpt lat="49.02979" lon="-0.46483">
        <ele>29.4</ele>
        <time>2023-05-23T13:44:11Z</time>
      </trkpt>
      <trkpt lat="49.02986" lon="-0.46486">
        <ele>29.2</ele>
        <time>2023-05-23T13:44:12Z</time>
      </trkpt>
      <trkpt lat="49.02993" lon="-0.46488">
        <ele>29.2</ele>
        <time>2023-05-23T13:44:13Z</time>
      </trkpt>
      <trkpt lat="49.03" lon="-0.4649">
        <ele>29.2</ele>
        <time>2023-05-23T13:44:14Z</time>
      </trkpt>
      <trkpt lat="49.03007" lon="-0.46492">
        <ele>29</ele>
        <time>2023-05-23T13:44:15Z</time>
      </trkpt>
      <trkpt lat="49.03014" lon="-0.46494">
        <ele>28.8</ele>
        <time>2023-05-23T13:44:16Z</time>
      </trkpt>
      <trkpt lat="49.03021" lon="-0.46496">
        <ele>28.8</ele>
        <time>2023-05-23T13:44:17Z</time>
      </trkpt>
      <trkpt lat="49.03028" lon="-0.46498">
        <ele>28.8</ele>
        <time>2023-05-23T13:44:18Z</time>
      </trkpt>
      <trkpt lat="49.03034" lon="-0.465">
        <ele>28.8</ele>
        <time>2023-05-23T13:44:19Z</time>
      </trkpt>
      <trkpt lat="49.03041" lon="-0.46502">
        <ele>28.8</ele>
        <time>2023-05-23T13:44:20Z</time>
      </trkpt>
      <trkpt lat="49.03048" lon="-0.46504">
        <ele>28.8</ele>
        <time>2023-05-23T13:44:21Z</time>
      </trkpt>
      <trkpt lat="49.03055" lon="-0.46506">
        <ele>29</ele>
        <time>2023-05-23T13:44:22Z</time>
      </trkpt>
      <trkpt lat="49.03061" lon="-0.46508">
        <ele>29.2</ele>
        <time>2023-05-23T13:44:23Z</time>
      </trkpt>
      <trkpt lat="49.03068" lon="-0.4651">
        <ele>29.2</ele>
        <time>2023-05-23T13:44:24Z</time>
      </trkpt>
      <trkpt lat="49.03075" lon="-0.46512">
        <ele>29.2</ele>
        <time>2023-05-23T13:44:25Z</time>
      </trkpt>
      <trkpt lat="49.03081" lon="-0.46514">
        <ele>29.4</ele>
        <time>2023-05-23T13:44:26Z</time>
      </trkpt>
      <trkpt lat="49.03088" lon="-0.46516">
        <ele>29.2</ele>
        <time>2023-05-23T13:44:27Z</time>
      </trkpt>
      <trkpt lat="49.03094" lon="-0.46518">
        <ele>29</ele>
        <time>2023-05-23T13:44:28Z</time>
      </trkpt>
      <trkpt lat="49.03101" lon="-0.4652">
        <ele>28.8</ele>
        <time>2023-05-23T13:44:29Z</time>
      </trkpt>
      <trkpt lat="49.03108" lon="-0.46521">
        <ele>28.4</ele>
        <time>2023-05-23T13:44:30Z</time>
      </trkpt>
      <trkpt lat="49.03114" lon="-0.46523">
        <ele>28.2</ele>
        <time>2023-05-23T13:44:31Z</time>
      </trkpt>
      <trkpt lat="49.03121" lon="-0.46525">
        <ele>27.8</ele>
        <time>2023-05-23T13:44:32Z</time>
      </trkpt>
      <trkpt lat="49.03128" lon="-0.46527">
        <ele>27.4</ele>
        <time>2023-05-23T13:44:33Z</time>
      </trkpt>
      <trkpt lat="49.03134" lon="-0.46529">
        <ele>27</ele>
        <time>2023-05-23T13:44:34Z</time>
      </trkpt>
      <trkpt lat="49.03141" lon="-0.46531">
        <ele>26.6</ele>
        <time>2023-05-23T13:44:35Z</time>
      </trkpt>
      <trkpt lat="49.03148" lon="-0.46533">
        <ele>26.2</ele>
        <time>2023-05-23T13:44:36Z</time>
      </trkpt>
      <trkpt lat="49.03154" lon="-0.46535">
        <ele>25.8</ele>
        <time>2023-05-23T13:44:37Z</time>
      </trkpt>
      <trkpt lat="49.03161" lon="-0.46537">
        <ele>25.4</ele>
        <time>2023-05-23T13:44:38Z</time>
      </trkpt>
      <trkpt lat="49.03167" lon="-0.46539">
        <ele>25</ele>
        <time>2023-05-23T13:44:39Z</time>
      </trkpt>
      <trkpt lat="49.03174" lon="-0.46541">
        <ele>24.8</ele>
        <time>2023-05-23T13:44:40Z</time>
      </trkpt>
      <trkpt lat="49.0318" lon="-0.46542">
        <ele>24.6</ele>
        <time>2023-05-23T13:44:41Z</time>
      </trkpt>
      <trkpt lat="49.03187" lon="-0.46544">
        <ele>24.2</ele>
        <time>2023-05-23T13:44:42Z</time>
      </trkpt>
      <trkpt lat="49.03193" lon="-0.46546">
        <ele>24</ele>
        <time>2023-05-23T13:44:43Z</time>
      </trkpt>
      <trkpt lat="49.032" lon="-0.46548">
        <ele>23.8</ele>
        <time>2023-05-23T13:44:44Z</time>
      </trkpt>
      <trkpt lat="49.03206" lon="-0.4655">
        <ele>23.6</ele>
        <time>2023-05-23T13:44:45Z</time>
      </trkpt>
      <trkpt lat="49.03213" lon="-0.46552">
        <ele>23.4</ele>
        <time>2023-05-23T13:44:46Z</time>
      </trkpt>
      <trkpt lat="49.03219" lon="-0.46554">
        <ele>23.2</ele>
        <time>2023-05-23T13:44:47Z</time>
      </trkpt>
      <trkpt lat="49.03225" lon="-0.46556">
        <ele>23</ele>
        <time>2023-05-23T13:44:48Z</time>
      </trkpt>
      <trkpt lat="49.03232" lon="-0.46557">
        <ele>22.8</ele>
        <time>2023-05-23T13:44:49Z</time>
      </trkpt>
      <trkpt lat="49.03238" lon="-0.46559">
        <ele>22.8</ele>
        <time>2023-05-23T13:44:50Z</time>
      </trkpt>
      <trkpt lat="49.03244" lon="-0.46561">
        <ele>22.6</ele>
        <time>2023-05-23T13:44:51Z</time>
      </trkpt>
      <trkpt lat="49.0325" lon="-0.46563">
        <ele>22.4</ele>
        <time>2023-05-23T13:44:52Z</time>
      </trkpt>
      <trkpt lat="49.03256" lon="-0.46565">
        <ele>22.2</ele>
        <time>2023-05-23T13:44:53Z</time>
      </trkpt>
      <trkpt lat="49.03262" lon="-0.46567">
        <ele>22.2</ele>
        <time>2023-05-23T13:44:54Z</time>
      </trkpt>
      <trkpt lat="49.03267" lon="-0.46568">
        <ele>22.2</ele>
        <time>2023-05-23T13:44:55Z</time>
      </trkpt>
      <trkpt lat="49.03272" lon="-0.4657">
        <ele>22.2</ele>
        <time>2023-05-23T13:44:56Z</time>
      </trkpt>
      <trkpt lat="49.03278" lon="-0.46571">
        <ele>22</ele>
        <time>2023-05-23T13:44:57Z</time>
      </trkpt>
      <trkpt lat="49.03282" lon="-0.46573">
        <ele>22</ele>
        <time>2023-05-23T13:44:58Z</time>
      </trkpt>
      <trkpt lat="49.03287" lon="-0.46574">
        <ele>21.8</ele>
        <time>2023-05-23T13:44:59Z</time>
      </trkpt>
      <trkpt lat="49.03292" lon="-0.46576">
        <ele>21.8</ele>
        <time>2023-05-23T13:45:00Z</time>
      </trkpt>
      <trkpt lat="49.03296" lon="-0.46577">
        <ele>21.8</ele>
        <time>2023-05-23T13:45:01Z</time>
      </trkpt>
      <trkpt lat="49.033" lon="-0.46579">
        <ele>21.8</ele>
        <time>2023-05-23T13:45:02Z</time>
      </trkpt>
      <trkpt lat="49.03304" lon="-0.4658">
        <ele>21.6</ele>
        <time>2023-05-23T13:45:03Z</time>
      </trkpt>
      <trkpt lat="49.03306" lon="-0.46581">
        <ele>21.6</ele>
        <time>2023-05-23T13:45:04Z</time>
      </trkpt>
      <trkpt lat="49.03309" lon="-0.4658">
        <ele>21.8</ele>
        <time>2023-05-23T13:45:05Z</time>
      </trkpt>
      <trkpt lat="49.03311" lon="-0.46579">
        <ele>21.8</ele>
        <time>2023-05-23T13:45:06Z</time>
      </trkpt>
      <trkpt lat="49.03313" lon="-0.4658">
        <ele>21.8</ele>
        <time>2023-05-23T13:45:07Z</time>
      </trkpt>
      <trkpt lat="49.03316" lon="-0.46582">
        <ele>21.8</ele>
        <time>2023-05-23T13:45:08Z</time>
      </trkpt>
      <trkpt lat="49.03318" lon="-0.46584">
        <ele>21.6</ele>
        <time>2023-05-23T13:45:09Z</time>
      </trkpt>
      <trkpt lat="49.03321" lon="-0.46584">
        <ele>21.8</ele>
        <time>2023-05-23T13:45:10Z</time>
      </trkpt>
      <trkpt lat="49.03323" lon="-0.46584">
        <ele>21.8</ele>
        <time>2023-05-23T13:45:11Z</time>
      </trkpt>
      <trkpt lat="49.03326" lon="-0.46584">
        <ele>21.8</ele>
        <time>2023-05-23T13:45:12Z</time>
      </trkpt>
      <trkpt lat="49.03329" lon="-0.46584">
        <ele>21.8</ele>
        <time>2023-05-23T13:45:13Z</time>
      </trkpt>
      <trkpt lat="49.03332" lon="-0.46585">
        <ele>21.8</ele>
        <time>2023-05-23T13:45:14Z</time>
      </trkpt>
      <trkpt lat="49.03336" lon="-0.46587">
        <ele>21.8</ele>
        <time>2023-05-23T13:45:15Z</time>
      </trkpt>
      <trkpt lat="49.0334" lon="-0.46588">
        <ele>21.8</ele>
        <time>2023-05-23T13:45:16Z</time>
      </trkpt>
      <trkpt lat="49.03345" lon="-0.46589">
        <ele>21.8</ele>
        <time>2023-05-23T13:45:17Z</time>
      </trkpt>
      <trkpt lat="49.0335" lon="-0.4659">
        <ele>21.8</ele>
        <time>2023-05-23T13:45:18Z</time>
      </trkpt>
      <trkpt lat="49.03355" lon="-0.4659">
        <ele>21.8</ele>
        <time>2023-05-23T13:45:19Z</time>
      </trkpt>
      <trkpt lat="49.0336" lon="-0.46591">
        <ele>22</ele>
        <time>2023-05-23T13:45:20Z</time>
      </trkpt>
      <trkpt lat="49.03365" lon="-0.46591">
        <ele>22</ele>
        <time>2023-05-23T13:45:21Z</time>
      </trkpt>
      <trkpt lat="49.03371" lon="-0.46592">
        <ele>22</ele>
        <time>2023-05-23T13:45:22Z</time>
      </trkpt>
      <trkpt lat="49.03376" lon="-0.46592">
        <ele>22</ele>
        <time>2023-05-23T13:45:23Z</time>
      </trkpt>
      <trkpt lat="49.03381" lon="-0.46593">
        <ele>22</ele>
        <time>2023-05-23T13:45:24Z</time>
      </trkpt>
      <trkpt lat="49.03387" lon="-0.46593">
        <ele>22.2</ele>
        <time>2023-05-23T13:45:25Z</time>
      </trkpt>
      <trkpt lat="49.03392" lon="-0.46593">
        <ele>22.2</ele>
        <time>2023-05-23T13:45:26Z</time>
      </trkpt>
      <trkpt lat="49.03398" lon="-0.46594">
        <ele>22.2</ele>
        <time>2023-05-23T13:45:27Z</time>
      </trkpt>
      <trkpt lat="49.03403" lon="-0.46594">
        <ele>22.2</ele>
        <time>2023-05-23T13:45:28Z</time>
      </trkpt>
      <trkpt lat="49.03409" lon="-0.46594">
        <ele>22.2</ele>
        <time>2023-05-23T13:45:29Z</time>
      </trkpt>
      <trkpt lat="49.03414" lon="-0.46594">
        <ele>22.2</ele>
        <time>2023-05-23T13:45:30Z</time>
      </trkpt>
      <trkpt lat="49.0342" lon="-0.46594">
        <ele>22.2</ele>
        <time>2023-05-23T13:45:31Z</time>
      </trkpt>
      <trkpt lat="49.03426" lon="-0.46594">
        <ele>22</ele>
        <time>2023-05-23T13:45:32Z</time>
      </trkpt>
      <trkpt lat="49.03431" lon="-0.46594">
        <ele>21.8</ele>
        <time>2023-05-23T13:45:33Z</time>
      </trkpt>
      <trkpt lat="49.03437" lon="-0.46594">
        <ele>21.8</ele>
        <time>2023-05-23T13:45:34Z</time>
      </trkpt>
      <trkpt lat="49.03443" lon="-0.46593">
        <ele>21.8</ele>
        <time>2023-05-23T13:45:35Z</time>
      </trkpt>
      <trkpt lat="49.03449" lon="-0.46592">
        <ele>21.6</ele>
        <time>2023-05-23T13:45:36Z</time>
      </trkpt>
      <trkpt lat="49.03455" lon="-0.46592">
        <ele>21.6</ele>
        <time>2023-05-23T13:45:37Z</time>
      </trkpt>
      <trkpt lat="49.03461" lon="-0.46591">
        <ele>21.4</ele>
        <time>2023-05-23T13:45:38Z</time>
      </trkpt>
      <trkpt lat="49.03467" lon="-0.46591">
        <ele>21.2</ele>
        <time>2023-05-23T13:45:39Z</time>
      </trkpt>
      <trkpt lat="49.03473" lon="-0.46591">
        <ele>21.2</ele>
        <time>2023-05-23T13:45:40Z</time>
      </trkpt>
      <trkpt lat="49.03479" lon="-0.4659">
        <ele>21.2</ele>
        <time>2023-05-23T13:45:41Z</time>
      </trkpt>
      <trkpt lat="49.03485" lon="-0.4659">
        <ele>21</ele>
        <time>2023-05-23T13:45:42Z</time>
      </trkpt>
      <trkpt lat="49.0349" lon="-0.46589">
        <ele>20.8</ele>
        <time>2023-05-23T13:45:43Z</time>
      </trkpt>
      <trkpt lat="49.03496" lon="-0.46588">
        <ele>20.8</ele>
        <time>2023-05-23T13:45:44Z</time>
      </trkpt>
      <trkpt lat="49.03502" lon="-0.46587">
        <ele>20.8</ele>
        <time>2023-05-23T13:45:45Z</time>
      </trkpt>
      <trkpt lat="49.03507" lon="-0.46586">
        <ele>20.8</ele>
        <time>2023-05-23T13:45:46Z</time>
      </trkpt>
      <trkpt lat="49.03513" lon="-0.46585">
        <ele>20.6</ele>
        <time>2023-05-23T13:45:47Z</time>
      </trkpt>
      <trkpt lat="49.03518" lon="-0.46583">
        <ele>20.6</ele>
        <time>2023-05-23T13:45:48Z</time>
      </trkpt>
      <trkpt lat="49.03524" lon="-0.46582">
        <ele>20.6</ele>
        <time>2023-05-23T13:45:49Z</time>
      </trkpt>
      <trkpt lat="49.03529" lon="-0.46581">
        <ele>20.6</ele>
        <time>2023-05-23T13:45:50Z</time>
      </trkpt>
      <trkpt lat="49.03534" lon="-0.4658">
        <ele>20.6</ele>
        <time>2023-05-23T13:45:51Z</time>
      </trkpt>
      <trkpt lat="49.0354" lon="-0.46579">
        <ele>20.6</ele>
        <time>2023-05-23T13:45:52Z</time>
      </trkpt>
      <trkpt lat="49.03545" lon="-0.46577">
        <ele>20.6</ele>
        <time>2023-05-23T13:45:53Z</time>
      </trkpt>
      <trkpt lat="49.03551" lon="-0.46576">
        <ele>20.8</ele>
        <time>2023-05-23T13:45:54Z</time>
      </trkpt>
      <trkpt lat="49.03556" lon="-0.46574">
        <ele>20.8</ele>
        <time>2023-05-23T13:45:55Z</time>
      </trkpt>
      <trkpt lat="49.03561" lon="-0.46573">
        <ele>20.8</ele>
        <time>2023-05-23T13:45:56Z</time>
      </trkpt>
      <trkpt lat="49.03567" lon="-0.46571">
        <ele>20.8</ele>
        <time>2023-05-23T13:45:57Z</time>
      </trkpt>
      <trkpt lat="49.03573" lon="-0.46569">
        <ele>21</ele>
        <time>2023-05-23T13:45:58Z</time>
      </trkpt>
      <trkpt lat="49.03578" lon="-0.46567">
        <ele>21.2</ele>
        <time>2023-05-23T13:45:59Z</time>
      </trkpt>
      <trkpt lat="49.03584" lon="-0.46565">
        <ele>21.2</ele>
        <time>2023-05-23T13:46:00Z</time>
      </trkpt>
      <trkpt lat="49.0359" lon="-0.46563">
        <ele>21.2</ele>
        <time>2023-05-23T13:46:01Z</time>
      </trkpt>
      <trkpt lat="49.03596" lon="-0.46561">
        <ele>21.6</ele>
        <time>2023-05-23T13:46:02Z</time>
      </trkpt>
      <trkpt lat="49.03602" lon="-0.46559">
        <ele>21.8</ele>
        <time>2023-05-23T13:46:03Z</time>
      </trkpt>
      <trkpt lat="49.03608" lon="-0.46557">
        <ele>22</ele>
        <time>2023-05-23T13:46:04Z</time>
      </trkpt>
      <trkpt lat="49.03614" lon="-0.46554">
        <ele>22.2</ele>
        <time>2023-05-23T13:46:05Z</time>
      </trkpt>
      <trkpt lat="49.0362" lon="-0.46552">
        <ele>22.6</ele>
        <time>2023-05-23T13:46:06Z</time>
      </trkpt>
      <trkpt lat="49.03625" lon="-0.4655">
        <ele>22.8</ele>
        <time>2023-05-23T13:46:07Z</time>
      </trkpt>
      <trkpt lat="49.03631" lon="-0.46547">
        <ele>23</ele>
        <time>2023-05-23T13:46:08Z</time>
      </trkpt>
      <trkpt lat="49.03637" lon="-0.46544">
        <ele>23.2</ele>
        <time>2023-05-23T13:46:09Z</time>
      </trkpt>
      <trkpt lat="49.03643" lon="-0.46542">
        <ele>23.6</ele>
        <time>2023-05-23T13:46:10Z</time>
      </trkpt>
      <trkpt lat="49.03649" lon="-0.46539">
        <ele>23.8</ele>
        <time>2023-05-23T13:46:11Z</time>
      </trkpt>
      <trkpt lat="49.03654" lon="-0.46537">
        <ele>24.2</ele>
        <time>2023-05-23T13:46:12Z</time>
      </trkpt>
      <trkpt lat="49.0366" lon="-0.46534">
        <ele>24.6</ele>
        <time>2023-05-23T13:46:13Z</time>
      </trkpt>
      <trkpt lat="49.03666" lon="-0.46531">
        <ele>24.8</ele>
        <time>2023-05-23T13:46:14Z</time>
      </trkpt>
      <trkpt lat="49.03672" lon="-0.46529">
        <ele>25</ele>
        <time>2023-05-23T13:46:15Z</time>
      </trkpt>
      <trkpt lat="49.03678" lon="-0.46527">
        <ele>25</ele>
        <time>2023-05-23T13:46:16Z</time>
      </trkpt>
      <trkpt lat="49.03683" lon="-0.46524">
        <ele>25.2</ele>
        <time>2023-05-23T13:46:17Z</time>
      </trkpt>
      <trkpt lat="49.03689" lon="-0.46522">
        <ele>25.2</ele>
        <time>2023-05-23T13:46:18Z</time>
      </trkpt>
      <trkpt lat="49.03695" lon="-0.4652">
        <ele>25.2</ele>
        <time>2023-05-23T13:46:19Z</time>
      </trkpt>
      <trkpt lat="49.03701" lon="-0.46517">
        <ele>25.2</ele>
        <time>2023-05-23T13:46:20Z</time>
      </trkpt>
      <trkpt lat="49.03707" lon="-0.46514">
        <ele>25.2</ele>
        <time>2023-05-23T13:46:21Z</time>
      </trkpt>
      <trkpt lat="49.03712" lon="-0.46512">
        <ele>25.4</ele>
        <time>2023-05-23T13:46:22Z</time>
      </trkpt>
      <trkpt lat="49.03718" lon="-0.46509">
        <ele>25.6</ele>
        <time>2023-05-23T13:46:23Z</time>
      </trkpt>
      <trkpt lat="49.03724" lon="-0.46506">
        <ele>25.6</ele>
        <time>2023-05-23T13:46:24Z</time>
      </trkpt>
      <trkpt lat="49.0373" lon="-0.46503">
        <ele>25.6</ele>
        <time>2023-05-23T13:46:25Z</time>
      </trkpt>
      <trkpt lat="49.03736" lon="-0.46501">
        <ele>25.6</ele>
        <time>2023-05-23T13:46:26Z</time>
      </trkpt>
      <trkpt lat="49.03741" lon="-0.46498">
        <ele>25.8</ele>
        <time>2023-05-23T13:46:27Z</time>
      </trkpt>
      <trkpt lat="49.03747" lon="-0.46495">
        <ele>25.8</ele>
        <time>2023-05-23T13:46:28Z</time>
      </trkpt>
      <trkpt lat="49.03752" lon="-0.46492">
        <ele>25.8</ele>
        <time>2023-05-23T13:46:29Z</time>
      </trkpt>
      <trkpt lat="49.03758" lon="-0.46489">
        <ele>25.8</ele>
        <time>2023-05-23T13:46:30Z</time>
      </trkpt>
      <trkpt lat="49.03763" lon="-0.46487">
        <ele>25.8</ele>
        <time>2023-05-23T13:46:31Z</time>
      </trkpt>
      <trkpt lat="49.03769" lon="-0.46485">
        <ele>25.8</ele>
        <time>2023-05-23T13:46:32Z</time>
      </trkpt>
      <trkpt lat="49.03774" lon="-0.46483">
        <ele>25.6</ele>
        <time>2023-05-23T13:46:33Z</time>
      </trkpt>
      <trkpt lat="49.0378" lon="-0.46481">
        <ele>25.6</ele>
        <time>2023-05-23T13:46:34Z</time>
      </trkpt>
      <trkpt lat="49.03786" lon="-0.46479">
        <ele>25.4</ele>
        <time>2023-05-23T13:46:35Z</time>
      </trkpt>
      <trkpt lat="49.03791" lon="-0.46476">
        <ele>25.2</ele>
        <time>2023-05-23T13:46:36Z</time>
      </trkpt>
      <trkpt lat="49.03797" lon="-0.46474">
        <ele>25.2</ele>
        <time>2023-05-23T13:46:37Z</time>
      </trkpt>
      <trkpt lat="49.03803" lon="-0.46471">
        <ele>25.2</ele>
        <time>2023-05-23T13:46:38Z</time>
      </trkpt>
      <trkpt lat="49.03809" lon="-0.46469">
        <ele>25.2</ele>
        <time>2023-05-23T13:46:39Z</time>
      </trkpt>
      <trkpt lat="49.03814" lon="-0.46466">
        <ele>25.2</ele>
        <time>2023-05-23T13:46:40Z</time>
      </trkpt>
      <trkpt lat="49.0382" lon="-0.46464">
        <ele>25.2</ele>
        <time>2023-05-23T13:46:41Z</time>
      </trkpt>
      <trkpt lat="49.03826" lon="-0.46461">
        <ele>25.2</ele>
        <time>2023-05-23T13:46:42Z</time>
      </trkpt>
      <trkpt lat="49.03832" lon="-0.46459">
        <ele>25</ele>
        <time>2023-05-23T13:46:43Z</time>
      </trkpt>
      <trkpt lat="49.03838" lon="-0.46456">
        <ele>25</ele>
        <time>2023-05-23T13:46:44Z</time>
      </trkpt>
      <trkpt lat="49.03844" lon="-0.46454">
        <ele>25.2</ele>
        <time>2023-05-23T13:46:45Z</time>
      </trkpt>
      <trkpt lat="49.03849" lon="-0.46452">
        <ele>25.2</ele>
        <time>2023-05-23T13:46:46Z</time>
      </trkpt>
      <trkpt lat="49.03855" lon="-0.46449">
        <ele>25.2</ele>
        <time>2023-05-23T13:46:47Z</time>
      </trkpt>
      <trkpt lat="49.03861" lon="-0.46447">
        <ele>25</ele>
        <time>2023-05-23T13:46:48Z</time>
      </trkpt>
      <trkpt lat="49.03867" lon="-0.46444">
        <ele>25</ele>
        <time>2023-05-23T13:46:49Z</time>
      </trkpt>
      <trkpt lat="49.03873" lon="-0.46442">
        <ele>24.8</ele>
        <time>2023-05-23T13:46:50Z</time>
      </trkpt>
      <trkpt lat="49.03879" lon="-0.46439">
        <ele>24.8</ele>
        <time>2023-05-23T13:46:51Z</time>
      </trkpt>
      <trkpt lat="49.03885" lon="-0.46436">
        <ele>24.8</ele>
        <time>2023-05-23T13:46:52Z</time>
      </trkpt>
      <trkpt lat="49.03891" lon="-0.46434">
        <ele>24.6</ele>
        <time>2023-05-23T13:46:53Z</time>
      </trkpt>
      <trkpt lat="49.03898" lon="-0.46431">
        <ele>24.2</ele>
        <time>2023-05-23T13:46:54Z</time>
      </trkpt>
      <trkpt lat="49.03904" lon="-0.46428">
        <ele>24.2</ele>
        <time>2023-05-23T13:46:55Z</time>
      </trkpt>
      <trkpt lat="49.0391" lon="-0.46426">
        <ele>23.8</ele>
        <time>2023-05-23T13:46:56Z</time>
      </trkpt>
      <trkpt lat="49.03916" lon="-0.46423">
        <ele>23.6</ele>
        <time>2023-05-23T13:46:57Z</time>
      </trkpt>
      <trkpt lat="49.03922" lon="-0.4642">
        <ele>23.6</ele>
        <time>2023-05-23T13:46:58Z</time>
      </trkpt>
      <trkpt lat="49.03928" lon="-0.46418">
        <ele>23.4</ele>
        <time>2023-05-23T13:46:59Z</time>
      </trkpt>
      <trkpt lat="49.03934" lon="-0.46415">
        <ele>23.4</ele>
        <time>2023-05-23T13:47:00Z</time>
      </trkpt>
      <trkpt lat="49.0394" lon="-0.46413">
        <ele>23.4</ele>
        <time>2023-05-23T13:47:01Z</time>
      </trkpt>
      <trkpt lat="49.03945" lon="-0.46411">
        <ele>23.4</ele>
        <time>2023-05-23T13:47:02Z</time>
      </trkpt>
      <trkpt lat="49.03951" lon="-0.46408">
        <ele>23.4</ele>
        <time>2023-05-23T13:47:03Z</time>
      </trkpt>
      <trkpt lat="49.03957" lon="-0.46406">
        <ele>23.4</ele>
        <time>2023-05-23T13:47:04Z</time>
      </trkpt>
      <trkpt lat="49.03963" lon="-0.46403">
        <ele>23.4</ele>
        <time>2023-05-23T13:47:05Z</time>
      </trkpt>
      <trkpt lat="49.0397" lon="-0.464">
        <ele>23.4</ele>
        <time>2023-05-23T13:47:06Z</time>
      </trkpt>
      <trkpt lat="49.03975" lon="-0.46398">
        <ele>23.2</ele>
        <time>2023-05-23T13:47:07Z</time>
      </trkpt>
      <trkpt lat="49.03982" lon="-0.46395">
        <ele>23.2</ele>
        <time>2023-05-23T13:47:08Z</time>
      </trkpt>
      <trkpt lat="49.03988" lon="-0.46392">
        <ele>23.2</ele>
        <time>2023-05-23T13:47:09Z</time>
      </trkpt>
      <trkpt lat="49.03994" lon="-0.46389">
        <ele>23.2</ele>
        <time>2023-05-23T13:47:10Z</time>
      </trkpt>
      <trkpt lat="49.04" lon="-0.46386">
        <ele>22.8</ele>
        <time>2023-05-23T13:47:11Z</time>
      </trkpt>
      <trkpt lat="49.04006" lon="-0.46384">
        <ele>23</ele>
        <time>2023-05-23T13:47:12Z</time>
      </trkpt>
      <trkpt lat="49.04012" lon="-0.46381">
        <ele>23</ele>
        <time>2023-05-23T13:47:13Z</time>
      </trkpt>
      <trkpt lat="49.04017" lon="-0.46379">
        <ele>23</ele>
        <time>2023-05-23T13:47:14Z</time>
      </trkpt>
      <trkpt lat="49.04023" lon="-0.46376">
        <ele>23</ele>
        <time>2023-05-23T13:47:15Z</time>
      </trkpt>
      <trkpt lat="49.0403" lon="-0.46374">
        <ele>23</ele>
        <time>2023-05-23T13:47:16Z</time>
      </trkpt>
      <trkpt lat="49.04036" lon="-0.46371">
        <ele>23</ele>
        <time>2023-05-23T13:47:17Z</time>
      </trkpt>
      <trkpt lat="49.04042" lon="-0.46369">
        <ele>23</ele>
        <time>2023-05-23T13:47:18Z</time>
      </trkpt>
      <trkpt lat="49.04048" lon="-0.46366">
        <ele>23</ele>
        <time>2023-05-23T13:47:19Z</time>
      </trkpt>
      <trkpt lat="49.04055" lon="-0.46363">
        <ele>23</ele>
        <time>2023-05-23T13:47:20Z</time>
      </trkpt>
      <trkpt lat="49.04061" lon="-0.4636">
        <ele>23</ele>
        <time>2023-05-23T13:47:21Z</time>
      </trkpt>
      <trkpt lat="49.04067" lon="-0.46358">
        <ele>22.8</ele>
        <time>2023-05-23T13:47:22Z</time>
      </trkpt>
      <trkpt lat="49.04073" lon="-0.46355">
        <ele>22.8</ele>
        <time>2023-05-23T13:47:23Z</time>
      </trkpt>
      <trkpt lat="49.04079" lon="-0.46353">
        <ele>22.8</ele>
        <time>2023-05-23T13:47:24Z</time>
      </trkpt>
      <trkpt lat="49.04085" lon="-0.4635">
        <ele>22.6</ele>
        <time>2023-05-23T13:47:25Z</time>
      </trkpt>
      <trkpt lat="49.04091" lon="-0.46347">
        <ele>22.4</ele>
        <time>2023-05-23T13:47:26Z</time>
      </trkpt>
      <trkpt lat="49.04097" lon="-0.46345">
        <ele>22.2</ele>
        <time>2023-05-23T13:47:27Z</time>
      </trkpt>
      <trkpt lat="49.04103" lon="-0.46342">
        <ele>21.8</ele>
        <time>2023-05-23T13:47:28Z</time>
      </trkpt>
      <trkpt lat="49.04109" lon="-0.4634">
        <ele>21.4</ele>
        <time>2023-05-23T13:47:29Z</time>
      </trkpt>
      <trkpt lat="49.04115" lon="-0.46337">
        <ele>21.2</ele>
        <time>2023-05-23T13:47:30Z</time>
      </trkpt>
      <trkpt lat="49.04121" lon="-0.46335">
        <ele>20.8</ele>
        <time>2023-05-23T13:47:31Z</time>
      </trkpt>
      <trkpt lat="49.04127" lon="-0.46332">
        <ele>20.6</ele>
        <time>2023-05-23T13:47:32Z</time>
      </trkpt>
      <trkpt lat="49.04134" lon="-0.46329">
        <ele>20.2</ele>
        <time>2023-05-23T13:47:33Z</time>
      </trkpt>
      <trkpt lat="49.04139" lon="-0.46327">
        <ele>20.2</ele>
        <time>2023-05-23T13:47:34Z</time>
      </trkpt>
      <trkpt lat="49.04145" lon="-0.46324">
        <ele>20</ele>
        <time>2023-05-23T13:47:35Z</time>
      </trkpt>
      <trkpt lat="49.04151" lon="-0.46321">
        <ele>19.8</ele>
        <time>2023-05-23T13:47:36Z</time>
      </trkpt>
      <trkpt lat="49.04157" lon="-0.46319">
        <ele>19.8</ele>
        <time>2023-05-23T13:47:37Z</time>
      </trkpt>
      <trkpt lat="49.04163" lon="-0.46316">
        <ele>19.6</ele>
        <time>2023-05-23T13:47:38Z</time>
      </trkpt>
      <trkpt lat="49.04169" lon="-0.46314">
        <ele>19.6</ele>
        <time>2023-05-23T13:47:39Z</time>
      </trkpt>
      <trkpt lat="49.04174" lon="-0.46311">
        <ele>19.8</ele>
        <time>2023-05-23T13:47:40Z</time>
      </trkpt>
      <trkpt lat="49.0418" lon="-0.46309">
        <ele>20</ele>
        <time>2023-05-23T13:47:41Z</time>
      </trkpt>
      <trkpt lat="49.04186" lon="-0.46306">
        <ele>20.2</ele>
        <time>2023-05-23T13:47:42Z</time>
      </trkpt>
      <trkpt lat="49.04191" lon="-0.46304">
        <ele>20.4</ele>
        <time>2023-05-23T13:47:43Z</time>
      </trkpt>
      <trkpt lat="49.04197" lon="-0.46301">
        <ele>20.6</ele>
        <time>2023-05-23T13:47:44Z</time>
      </trkpt>
      <trkpt lat="49.04203" lon="-0.46298">
        <ele>20.8</ele>
        <time>2023-05-23T13:47:45Z</time>
      </trkpt>
      <trkpt lat="49.04209" lon="-0.46296">
        <ele>20.8</ele>
        <time>2023-05-23T13:47:46Z</time>
      </trkpt>
      <trkpt lat="49.04215" lon="-0.46293">
        <ele>20.8</ele>
        <time>2023-05-23T13:47:47Z</time>
      </trkpt>
      <trkpt lat="49.04221" lon="-0.46291">
        <ele>21</ele>
        <time>2023-05-23T13:47:48Z</time>
      </trkpt>
      <trkpt lat="49.04227" lon="-0.46288">
        <ele>21</ele>
        <time>2023-05-23T13:47:49Z</time>
      </trkpt>
      <trkpt lat="49.04233" lon="-0.46286">
        <ele>21</ele>
        <time>2023-05-23T13:47:50Z</time>
      </trkpt>
      <trkpt lat="49.04239" lon="-0.46283">
        <ele>21</ele>
        <time>2023-05-23T13:47:51Z</time>
      </trkpt>
      <trkpt lat="49.04245" lon="-0.46281">
        <ele>21</ele>
        <time>2023-05-23T13:47:52Z</time>
      </trkpt>
      <trkpt lat="49.04251" lon="-0.46278">
        <ele>20.8</ele>
        <time>2023-05-23T13:47:53Z</time>
      </trkpt>
      <trkpt lat="49.04257" lon="-0.46276">
        <ele>21</ele>
        <time>2023-05-23T13:47:54Z</time>
      </trkpt>
      <trkpt lat="49.04263" lon="-0.46274">
        <ele>21</ele>
        <time>2023-05-23T13:47:55Z</time>
      </trkpt>
      <trkpt lat="49.04269" lon="-0.46271">
        <ele>21.2</ele>
        <time>2023-05-23T13:47:56Z</time>
      </trkpt>
      <trkpt lat="49.04274" lon="-0.46269">
        <ele>21.2</ele>
        <time>2023-05-23T13:47:57Z</time>
      </trkpt>
      <trkpt lat="49.0428" lon="-0.46266">
        <ele>21.2</ele>
        <time>2023-05-23T13:47:58Z</time>
      </trkpt>
      <trkpt lat="49.04286" lon="-0.46264">
        <ele>21.2</ele>
        <time>2023-05-23T13:47:59Z</time>
      </trkpt>
      <trkpt lat="49.04291" lon="-0.46261">
        <ele>21.2</ele>
        <time>2023-05-23T13:48:00Z</time>
      </trkpt>
      <trkpt lat="49.04297" lon="-0.46259">
        <ele>21.2</ele>
        <time>2023-05-23T13:48:01Z</time>
      </trkpt>
      <trkpt lat="49.04302" lon="-0.46256">
        <ele>21.4</ele>
        <time>2023-05-23T13:48:02Z</time>
      </trkpt>
      <trkpt lat="49.04308" lon="-0.46253">
        <ele>21.4</ele>
        <time>2023-05-23T13:48:03Z</time>
      </trkpt>
      <trkpt lat="49.04313" lon="-0.46251">
        <ele>21.4</ele>
        <time>2023-05-23T13:48:04Z</time>
      </trkpt>
      <trkpt lat="49.04319" lon="-0.46248">
        <ele>21.6</ele>
        <time>2023-05-23T13:48:05Z</time>
      </trkpt>
      <trkpt lat="49.04324" lon="-0.46245">
        <ele>21.6</ele>
        <time>2023-05-23T13:48:06Z</time>
      </trkpt>
      <trkpt lat="49.0433" lon="-0.46243">
        <ele>21.8</ele>
        <time>2023-05-23T13:48:07Z</time>
      </trkpt>
      <trkpt lat="49.04335" lon="-0.4624">
        <ele>21.8</ele>
        <time>2023-05-23T13:48:08Z</time>
      </trkpt>
      <trkpt lat="49.04341" lon="-0.46237">
        <ele>21.8</ele>
        <time>2023-05-23T13:48:09Z</time>
      </trkpt>
      <trkpt lat="49.04346" lon="-0.46235">
        <ele>21.6</ele>
        <time>2023-05-23T13:48:10Z</time>
      </trkpt>
      <trkpt lat="49.04352" lon="-0.46232">
        <ele>21.6</ele>
        <time>2023-05-23T13:48:11Z</time>
      </trkpt>
      <trkpt lat="49.04357" lon="-0.46229">
        <ele>21.6</ele>
        <time>2023-05-23T13:48:12Z</time>
      </trkpt>
      <trkpt lat="49.04363" lon="-0.46226">
        <ele>21.4</ele>
        <time>2023-05-23T13:48:13Z</time>
      </trkpt>
      <trkpt lat="49.04368" lon="-0.46223">
        <ele>21.2</ele>
        <time>2023-05-23T13:48:14Z</time>
      </trkpt>
      <trkpt lat="49.04374" lon="-0.4622">
        <ele>21.2</ele>
        <time>2023-05-23T13:48:15Z</time>
      </trkpt>
      <trkpt lat="49.04379" lon="-0.46217">
        <ele>21.2</ele>
        <time>2023-05-23T13:48:16Z</time>
      </trkpt>
      <trkpt lat="49.04384" lon="-0.46214">
        <ele>21.2</ele>
        <time>2023-05-23T13:48:17Z</time>
      </trkpt>
      <trkpt lat="49.0439" lon="-0.46211">
        <ele>21</ele>
        <time>2023-05-23T13:48:18Z</time>
      </trkpt>
      <trkpt lat="49.04395" lon="-0.46208">
        <ele>20.8</ele>
        <time>2023-05-23T13:48:19Z</time>
      </trkpt>
      <trkpt lat="49.044" lon="-0.46204">
        <ele>20.8</ele>
        <time>2023-05-23T13:48:20Z</time>
      </trkpt>
      <trkpt lat="49.04405" lon="-0.46201">
        <ele>20.8</ele>
        <time>2023-05-23T13:48:21Z</time>
      </trkpt>
      <trkpt lat="49.0441" lon="-0.46198">
        <ele>20.6</ele>
        <time>2023-05-23T13:48:22Z</time>
      </trkpt>
      <trkpt lat="49.04415" lon="-0.46194">
        <ele>20.6</ele>
        <time>2023-05-23T13:48:23Z</time>
      </trkpt>
      <trkpt lat="49.0442" lon="-0.46191">
        <ele>20.6</ele>
        <time>2023-05-23T13:48:24Z</time>
      </trkpt>
      <trkpt lat="49.04425" lon="-0.46187">
        <ele>20.6</ele>
        <time>2023-05-23T13:48:25Z</time>
      </trkpt>
      <trkpt lat="49.04429" lon="-0.46183">
        <ele>20.6</ele>
        <time>2023-05-23T13:48:26Z</time>
      </trkpt>
      <trkpt lat="49.04434" lon="-0.4618">
        <ele>20.6</ele>
        <time>2023-05-23T13:48:27Z</time>
      </trkpt>
      <trkpt lat="49.04439" lon="-0.46176">
        <ele>20.8</ele>
        <time>2023-05-23T13:48:28Z</time>
      </trkpt>
      <trkpt lat="49.04443" lon="-0.46172">
        <ele>20.8</ele>
        <time>2023-05-23T13:48:29Z</time>
      </trkpt>
      <trkpt lat="49.04447" lon="-0.46168">
        <ele>20.8</ele>
        <time>2023-05-23T13:48:30Z</time>
      </trkpt>
      <trkpt lat="49.04452" lon="-0.46165">
        <ele>20.8</ele>
        <time>2023-05-23T13:48:31Z</time>
      </trkpt>
      <trkpt lat="49.04456" lon="-0.46161">
        <ele>21.2</ele>
        <time>2023-05-23T13:48:32Z</time>
      </trkpt>
      <trkpt lat="49.04461" lon="-0.46158">
        <ele>21.2</ele>
        <time>2023-05-23T13:48:33Z</time>
      </trkpt>
      <trkpt lat="49.04466" lon="-0.46154">
        <ele>21.4</ele>
        <time>2023-05-23T13:48:34Z</time>
      </trkpt>
      <trkpt lat="49.04471" lon="-0.4615">
        <ele>21.6</ele>
        <time>2023-05-23T13:48:35Z</time>
      </trkpt>
      <trkpt lat="49.04476" lon="-0.46146">
        <ele>21.8</ele>
        <time>2023-05-23T13:48:36Z</time>
      </trkpt>
      <trkpt lat="49.04481" lon="-0.46141">
        <ele>21.8</ele>
        <time>2023-05-23T13:48:37Z</time>
      </trkpt>
      <trkpt lat="49.04487" lon="-0.46136">
        <ele>21.8</ele>
        <time>2023-05-23T13:48:38Z</time>
      </trkpt>
      <trkpt lat="49.04492" lon="-0.46132">
        <ele>22</ele>
        <time>2023-05-23T13:48:39Z</time>
      </trkpt>
      <trkpt lat="49.04497" lon="-0.46127">
        <ele>22</ele>
        <time>2023-05-23T13:48:40Z</time>
      </trkpt>
      <trkpt lat="49.04502" lon="-0.46123">
        <ele>22.2</ele>
        <time>2023-05-23T13:48:41Z</time>
      </trkpt>
      <trkpt lat="49.04508" lon="-0.46118">
        <ele>22.2</ele>
        <time>2023-05-23T13:48:42Z</time>
      </trkpt>
      <trkpt lat="49.04513" lon="-0.46114">
        <ele>22.2</ele>
        <time>2023-05-23T13:48:43Z</time>
      </trkpt>
      <trkpt lat="49.04518" lon="-0.46109">
        <ele>22.4</ele>
        <time>2023-05-23T13:48:44Z</time>
      </trkpt>
      <trkpt lat="49.04523" lon="-0.46104">
        <ele>22.6</ele>
        <time>2023-05-23T13:48:45Z</time>
      </trkpt>
      <trkpt lat="49.04528" lon="-0.46099">
        <ele>22.6</ele>
        <time>2023-05-23T13:48:46Z</time>
      </trkpt>
      <trkpt lat="49.04533" lon="-0.46093">
        <ele>22.6</ele>
        <time>2023-05-23T13:48:47Z</time>
      </trkpt>
      <trkpt lat="49.04538" lon="-0.46088">
        <ele>22.6</ele>
        <time>2023-05-23T13:48:48Z</time>
      </trkpt>
      <trkpt lat="49.04544" lon="-0.46083">
        <ele>22.4</ele>
        <time>2023-05-23T13:48:49Z</time>
      </trkpt>
      <trkpt lat="49.04549" lon="-0.46078">
        <ele>22.6</ele>
        <time>2023-05-23T13:48:50Z</time>
      </trkpt>
      <trkpt lat="49.04554" lon="-0.46073">
        <ele>22.6</ele>
        <time>2023-05-23T13:48:51Z</time>
      </trkpt>
      <trkpt lat="49.04559" lon="-0.46067">
        <ele>22.8</ele>
        <time>2023-05-23T13:48:52Z</time>
      </trkpt>
      <trkpt lat="49.04564" lon="-0.46062">
        <ele>22.8</ele>
        <time>2023-05-23T13:48:53Z</time>
      </trkpt>
      <trkpt lat="49.04569" lon="-0.46057">
        <ele>22.8</ele>
        <time>2023-05-23T13:48:54Z</time>
      </trkpt>
      <trkpt lat="49.04575" lon="-0.46052">
        <ele>22.8</ele>
        <time>2023-05-23T13:48:55Z</time>
      </trkpt>
      <trkpt lat="49.0458" lon="-0.46046">
        <ele>22.8</ele>
        <time>2023-05-23T13:48:56Z</time>
      </trkpt>
      <trkpt lat="49.04585" lon="-0.46041">
        <ele>23</ele>
        <time>2023-05-23T13:48:57Z</time>
      </trkpt>
      <trkpt lat="49.0459" lon="-0.46036">
        <ele>23.2</ele>
        <time>2023-05-23T13:48:58Z</time>
      </trkpt>
      <trkpt lat="49.04595" lon="-0.4603">
        <ele>23.2</ele>
        <time>2023-05-23T13:48:59Z</time>
      </trkpt>
      <trkpt lat="49.046" lon="-0.46024">
        <ele>23.4</ele>
        <time>2023-05-23T13:49:00Z</time>
      </trkpt>
      <trkpt lat="49.04605" lon="-0.46019">
        <ele>23.6</ele>
        <time>2023-05-23T13:49:01Z</time>
      </trkpt>
      <trkpt lat="49.0461" lon="-0.46013">
        <ele>23.6</ele>
        <time>2023-05-23T13:49:02Z</time>
      </trkpt>
      <trkpt lat="49.04616" lon="-0.46007">
        <ele>23.6</ele>
        <time>2023-05-23T13:49:03Z</time>
      </trkpt>
      <trkpt lat="49.04621" lon="-0.46002">
        <ele>23.6</ele>
        <time>2023-05-23T13:49:04Z</time>
      </trkpt>
      <trkpt lat="49.04627" lon="-0.45996">
        <ele>23.8</ele>
        <time>2023-05-23T13:49:05Z</time>
      </trkpt>
      <trkpt lat="49.04632" lon="-0.45991">
        <ele>23.8</ele>
        <time>2023-05-23T13:49:06Z</time>
      </trkpt>
      <trkpt lat="49.04637" lon="-0.45985">
        <ele>24</ele>
        <time>2023-05-23T13:49:07Z</time>
      </trkpt>
      <trkpt lat="49.04642" lon="-0.45979">
        <ele>24.2</ele>
        <time>2023-05-23T13:49:08Z</time>
      </trkpt>
      <trkpt lat="49.04647" lon="-0.45973">
        <ele>24.2</ele>
        <time>2023-05-23T13:49:09Z</time>
      </trkpt>
      <trkpt lat="49.04652" lon="-0.45967">
        <ele>24.2</ele>
        <time>2023-05-23T13:49:10Z</time>
      </trkpt>
      <trkpt lat="49.04657" lon="-0.45961">
        <ele>24.2</ele>
        <time>2023-05-23T13:49:11Z</time>
      </trkpt>
      <trkpt lat="49.04662" lon="-0.45955">
        <ele>24.2</ele>
        <time>2023-05-23T13:49:12Z</time>
      </trkpt>
      <trkpt lat="49.04667" lon="-0.45949">
        <ele>24</ele>
        <time>2023-05-23T13:49:13Z</time>
      </trkpt>
      <trkpt lat="49.04672" lon="-0.45944">
        <ele>24</ele>
        <time>2023-05-23T13:49:14Z</time>
      </trkpt>
      <trkpt lat="49.04677" lon="-0.45938">
        <ele>24</ele>
        <time>2023-05-23T13:49:15Z</time>
      </trkpt>
      <trkpt lat="49.04683" lon="-0.45933">
        <ele>23.8</ele>
        <time>2023-05-23T13:49:16Z</time>
      </trkpt>
      <trkpt lat="49.04688" lon="-0.45927">
        <ele>23.8</ele>
        <time>2023-05-23T13:49:17Z</time>
      </trkpt>
      <trkpt lat="49.04694" lon="-0.45922">
        <ele>23.6</ele>
        <time>2023-05-23T13:49:18Z</time>
      </trkpt>
      <trkpt lat="49.04699" lon="-0.45917">
        <ele>23.2</ele>
        <time>2023-05-23T13:49:19Z</time>
      </trkpt>
      <trkpt lat="49.04705" lon="-0.45912">
        <ele>23.2</ele>
        <time>2023-05-23T13:49:20Z</time>
      </trkpt>
      <trkpt lat="49.04711" lon="-0.45907">
        <ele>23.4</ele>
        <time>2023-05-23T13:49:21Z</time>
      </trkpt>
      <trkpt lat="49.04716" lon="-0.45902">
        <ele>23.4</ele>
        <time>2023-05-23T13:49:22Z</time>
      </trkpt>
      <trkpt lat="49.04722" lon="-0.45897">
        <ele>23.2</ele>
        <time>2023-05-23T13:49:23Z</time>
      </trkpt>
      <trkpt lat="49.04728" lon="-0.45892">
        <ele>23.2</ele>
        <time>2023-05-23T13:49:24Z</time>
      </trkpt>
      <trkpt lat="49.04734" lon="-0.45887">
        <ele>23.2</ele>
        <time>2023-05-23T13:49:25Z</time>
      </trkpt>
      <trkpt lat="49.0474" lon="-0.45882">
        <ele>22.8</ele>
        <time>2023-05-23T13:49:26Z</time>
      </trkpt>
      <trkpt lat="49.04746" lon="-0.45878">
        <ele>22.8</ele>
        <time>2023-05-23T13:49:27Z</time>
      </trkpt>
      <trkpt lat="49.04752" lon="-0.45873">
        <ele>22.6</ele>
        <time>2023-05-23T13:49:28Z</time>
      </trkpt>
      <trkpt lat="49.04758" lon="-0.45869">
        <ele>22.6</ele>
        <time>2023-05-23T13:49:29Z</time>
      </trkpt>
      <trkpt lat="49.04764" lon="-0.45865">
        <ele>22.6</ele>
        <time>2023-05-23T13:49:30Z</time>
      </trkpt>
      <trkpt lat="49.04771" lon="-0.45861">
        <ele>22.6</ele>
        <time>2023-05-23T13:49:31Z</time>
      </trkpt>
      <trkpt lat="49.04777" lon="-0.45857">
        <ele>22.2</ele>
        <time>2023-05-23T13:49:32Z</time>
      </trkpt>
      <trkpt lat="49.04783" lon="-0.45853">
        <ele>22.2</ele>
        <time>2023-05-23T13:49:33Z</time>
      </trkpt>
      <trkpt lat="49.04789" lon="-0.4585">
        <ele>21.8</ele>
        <time>2023-05-23T13:49:34Z</time>
      </trkpt>
      <trkpt lat="49.04795" lon="-0.45846">
        <ele>21.6</ele>
        <time>2023-05-23T13:49:35Z</time>
      </trkpt>
      <trkpt lat="49.04802" lon="-0.45843">
        <ele>21.2</ele>
        <time>2023-05-23T13:49:36Z</time>
      </trkpt>
      <trkpt lat="49.04808" lon="-0.4584">
        <ele>20.8</ele>
        <time>2023-05-23T13:49:37Z</time>
      </trkpt>
      <trkpt lat="49.04814" lon="-0.45837">
        <ele>20.6</ele>
        <time>2023-05-23T13:49:38Z</time>
      </trkpt>
      <trkpt lat="49.0482" lon="-0.45834">
        <ele>20.2</ele>
        <time>2023-05-23T13:49:39Z</time>
      </trkpt>
      <trkpt lat="49.04827" lon="-0.45832">
        <ele>19.8</ele>
        <time>2023-05-23T13:49:40Z</time>
      </trkpt>
      <trkpt lat="49.04833" lon="-0.45829">
        <ele>19.8</ele>
        <time>2023-05-23T13:49:41Z</time>
      </trkpt>
      <trkpt lat="49.04839" lon="-0.45827">
        <ele>20</ele>
        <time>2023-05-23T13:49:42Z</time>
      </trkpt>
      <trkpt lat="49.04846" lon="-0.45824">
        <ele>20.2</ele>
        <time>2023-05-23T13:49:43Z</time>
      </trkpt>
      <trkpt lat="49.04852" lon="-0.45822">
        <ele>20.6</ele>
        <time>2023-05-23T13:49:44Z</time>
      </trkpt>
      <trkpt lat="49.04858" lon="-0.45821">
        <ele>20.8</ele>
        <time>2023-05-23T13:49:45Z</time>
      </trkpt>
      <trkpt lat="49.04865" lon="-0.45819">
        <ele>21</ele>
        <time>2023-05-23T13:49:46Z</time>
      </trkpt>
      <trkpt lat="49.04871" lon="-0.45817">
        <ele>21.2</ele>
        <time>2023-05-23T13:49:47Z</time>
      </trkpt>
      <trkpt lat="49.04878" lon="-0.45816">
        <ele>21.4</ele>
        <time>2023-05-23T13:49:48Z</time>
      </trkpt>
      <trkpt lat="49.04884" lon="-0.45815">
        <ele>21.6</ele>
        <time>2023-05-23T13:49:49Z</time>
      </trkpt>
      <trkpt lat="49.04891" lon="-0.45813">
        <ele>21.8</ele>
        <time>2023-05-23T13:49:50Z</time>
      </trkpt>
      <trkpt lat="49.04897" lon="-0.45812">
        <ele>21.8</ele>
        <time>2023-05-23T13:49:51Z</time>
      </trkpt>
      <trkpt lat="49.04904" lon="-0.45812">
        <ele>22</ele>
        <time>2023-05-23T13:49:52Z</time>
      </trkpt>
      <trkpt lat="49.0491" lon="-0.45811">
        <ele>22.2</ele>
        <time>2023-05-23T13:49:53Z</time>
      </trkpt>
      <trkpt lat="49.04917" lon="-0.45811">
        <ele>22.2</ele>
        <time>2023-05-23T13:49:54Z</time>
      </trkpt>
      <trkpt lat="49.04924" lon="-0.4581">
        <ele>22.2</ele>
        <time>2023-05-23T13:49:55Z</time>
      </trkpt>
      <trkpt lat="49.0493" lon="-0.4581">
        <ele>22.2</ele>
        <time>2023-05-23T13:49:56Z</time>
      </trkpt>
      <trkpt lat="49.04937" lon="-0.4581">
        <ele>22.4</ele>
        <time>2023-05-23T13:49:57Z</time>
      </trkpt>
      <trkpt lat="49.04943" lon="-0.4581">
        <ele>22.6</ele>
        <time>2023-05-23T13:49:58Z</time>
      </trkpt>
      <trkpt lat="49.0495" lon="-0.4581">
        <ele>22.6</ele>
        <time>2023-05-23T13:49:59Z</time>
      </trkpt>
      <trkpt lat="49.04957" lon="-0.45811">
        <ele>22.6</ele>
        <time>2023-05-23T13:50:00Z</time>
      </trkpt>
      <trkpt lat="49.04963" lon="-0.45811">
        <ele>22.6</ele>
        <time>2023-05-23T13:50:01Z</time>
      </trkpt>
      <trkpt lat="49.0497" lon="-0.45812">
        <ele>22.6</ele>
        <time>2023-05-23T13:50:02Z</time>
      </trkpt>
      <trkpt lat="49.04977" lon="-0.45812">
        <ele>22.6</ele>
        <time>2023-05-23T13:50:03Z</time>
      </trkpt>
      <trkpt lat="49.04984" lon="-0.45813">
        <ele>22.4</ele>
        <time>2023-05-23T13:50:04Z</time>
      </trkpt>
      <trkpt lat="49.0499" lon="-0.45814">
        <ele>22.4</ele>
        <time>2023-05-23T13:50:05Z</time>
      </trkpt>
      <trkpt lat="49.04997" lon="-0.45815">
        <ele>22.2</ele>
        <time>2023-05-23T13:50:06Z</time>
      </trkpt>
      <trkpt lat="49.05004" lon="-0.45816">
        <ele>22.4</ele>
        <time>2023-05-23T13:50:07Z</time>
      </trkpt>
      <trkpt lat="49.05011" lon="-0.45817">
        <ele>22.8</ele>
        <time>2023-05-23T13:50:08Z</time>
      </trkpt>
      <trkpt lat="49.05018" lon="-0.45818">
        <ele>23.2</ele>
        <time>2023-05-23T13:50:09Z</time>
      </trkpt>
      <trkpt lat="49.05024" lon="-0.45819">
        <ele>23.4</ele>
        <time>2023-05-23T13:50:10Z</time>
      </trkpt>
      <trkpt lat="49.05031" lon="-0.4582">
        <ele>23.8</ele>
        <time>2023-05-23T13:50:11Z</time>
      </trkpt>
      <trkpt lat="49.05038" lon="-0.45822">
        <ele>24</ele>
        <time>2023-05-23T13:50:12Z</time>
      </trkpt>
      <trkpt lat="49.05045" lon="-0.45823">
        <ele>24.2</ele>
        <time>2023-05-23T13:50:13Z</time>
      </trkpt>
      <trkpt lat="49.05052" lon="-0.45824">
        <ele>24.6</ele>
        <time>2023-05-23T13:50:14Z</time>
      </trkpt>
      <trkpt lat="49.05059" lon="-0.45825">
        <ele>24.8</ele>
        <time>2023-05-23T13:50:15Z</time>
      </trkpt>
      <trkpt lat="49.05066" lon="-0.45827">
        <ele>25.2</ele>
        <time>2023-05-23T13:50:16Z</time>
      </trkpt>
      <trkpt lat="49.05073" lon="-0.45828">
        <ele>25.2</ele>
        <time>2023-05-23T13:50:17Z</time>
      </trkpt>
      <trkpt lat="49.0508" lon="-0.45829">
        <ele>25.6</ele>
        <time>2023-05-23T13:50:18Z</time>
      </trkpt>
      <trkpt lat="49.05086" lon="-0.4583">
        <ele>25.8</ele>
        <time>2023-05-23T13:50:19Z</time>
      </trkpt>
      <trkpt lat="49.05093" lon="-0.45832">
        <ele>25.6</ele>
        <time>2023-05-23T13:50:20Z</time>
      </trkpt>
      <trkpt lat="49.051" lon="-0.45833">
        <ele>25.6</ele>
        <time>2023-05-23T13:50:21Z</time>
      </trkpt>
      <trkpt lat="49.05107" lon="-0.45834">
        <ele>25.6</ele>
        <time>2023-05-23T13:50:22Z</time>
      </trkpt>
      <trkpt lat="49.05114" lon="-0.45835">
        <ele>25.6</ele>
        <time>2023-05-23T13:50:23Z</time>
      </trkpt>
      <trkpt lat="49.05121" lon="-0.45836">
        <ele>25.6</ele>
        <time>2023-05-23T13:50:24Z</time>
      </trkpt>
      <trkpt lat="49.05127" lon="-0.45838">
        <ele>25.8</ele>
        <time>2023-05-23T13:50:25Z</time>
      </trkpt>
      <trkpt lat="49.05134" lon="-0.45839">
        <ele>25.8</ele>
        <time>2023-05-23T13:50:26Z</time>
      </trkpt>
      <trkpt lat="49.05141" lon="-0.4584">
        <ele>25.8</ele>
        <time>2023-05-23T13:50:27Z</time>
      </trkpt>
      <trkpt lat="49.05148" lon="-0.45841">
        <ele>25.8</ele>
        <time>2023-05-23T13:50:28Z</time>
      </trkpt>
      <trkpt lat="49.05155" lon="-0.45842">
        <ele>25.8</ele>
        <time>2023-05-23T13:50:29Z</time>
      </trkpt>
      <trkpt lat="49.05162" lon="-0.45843">
        <ele>25.8</ele>
        <time>2023-05-23T13:50:30Z</time>
      </trkpt>
      <trkpt lat="49.0517" lon="-0.45844">
        <ele>25.8</ele>
        <time>2023-05-23T13:50:31Z</time>
      </trkpt>
      <trkpt lat="49.05177" lon="-0.45845">
        <ele>25.8</ele>
        <time>2023-05-23T13:50:32Z</time>
      </trkpt>
      <trkpt lat="49.05184" lon="-0.45847">
        <ele>25.8</ele>
        <time>2023-05-23T13:50:33Z</time>
      </trkpt>
      <trkpt lat="49.05191" lon="-0.45848">
        <ele>25.8</ele>
        <time>2023-05-23T13:50:34Z</time>
      </trkpt>
      <trkpt lat="49.05198" lon="-0.45849">
        <ele>25.8</ele>
        <time>2023-05-23T13:50:35Z</time>
      </trkpt>
      <trkpt lat="49.05205" lon="-0.45851">
        <ele>25.8</ele>
        <time>2023-05-23T13:50:36Z</time>
      </trkpt>
      <trkpt lat="49.05213" lon="-0.45852">
        <ele>25.6</ele>
        <time>2023-05-23T13:50:37Z</time>
      </trkpt>
      <trkpt lat="49.0522" lon="-0.45853">
        <ele>25.6</ele>
        <time>2023-05-23T13:50:38Z</time>
      </trkpt>
      <trkpt lat="49.05227" lon="-0.45855">
        <ele>25.4</ele>
        <time>2023-05-23T13:50:39Z</time>
      </trkpt>
      <trkpt lat="49.05234" lon="-0.45856">
        <ele>25.2</ele>
        <time>2023-05-23T13:50:40Z</time>
      </trkpt>
      <trkpt lat="49.05241" lon="-0.45858">
        <ele>25.2</ele>
        <time>2023-05-23T13:50:41Z</time>
      </trkpt>
      <trkpt lat="49.05249" lon="-0.45859">
        <ele>25</ele>
        <time>2023-05-23T13:50:42Z</time>
      </trkpt>
      <trkpt lat="49.05256" lon="-0.4586">
        <ele>24.8</ele>
        <time>2023-05-23T13:50:43Z</time>
      </trkpt>
      <trkpt lat="49.05263" lon="-0.45861">
        <ele>24.8</ele>
        <time>2023-05-23T13:50:44Z</time>
      </trkpt>
      <trkpt lat="49.0527" lon="-0.45862">
        <ele>24.8</ele>
        <time>2023-05-23T13:50:45Z</time>
      </trkpt>
      <trkpt lat="49.05277" lon="-0.45864">
        <ele>24.6</ele>
        <time>2023-05-23T13:50:46Z</time>
      </trkpt>
      <trkpt lat="49.05284" lon="-0.45865">
        <ele>24.4</ele>
        <time>2023-05-23T13:50:47Z</time>
      </trkpt>
      <trkpt lat="49.05291" lon="-0.45866">
        <ele>24.2</ele>
        <time>2023-05-23T13:50:48Z</time>
      </trkpt>
      <trkpt lat="49.05298" lon="-0.45867">
        <ele>24.2</ele>
        <time>2023-05-23T13:50:49Z</time>
      </trkpt>
      <trkpt lat="49.05305" lon="-0.45869">
        <ele>23.8</ele>
        <time>2023-05-23T13:50:50Z</time>
      </trkpt>
      <trkpt lat="49.05313" lon="-0.4587">
        <ele>23.8</ele>
        <time>2023-05-23T13:50:51Z</time>
      </trkpt>
      <trkpt lat="49.0532" lon="-0.45871">
        <ele>23.6</ele>
        <time>2023-05-23T13:50:52Z</time>
      </trkpt>
      <trkpt lat="49.05327" lon="-0.45873">
        <ele>23.4</ele>
        <time>2023-05-23T13:50:53Z</time>
      </trkpt>
      <trkpt lat="49.05334" lon="-0.45874">
        <ele>23.2</ele>
        <time>2023-05-23T13:50:54Z</time>
      </trkpt>
      <trkpt lat="49.05342" lon="-0.45876">
        <ele>23.2</ele>
        <time>2023-05-23T13:50:55Z</time>
      </trkpt>
      <trkpt lat="49.05349" lon="-0.45877">
        <ele>23</ele>
        <time>2023-05-23T13:50:56Z</time>
      </trkpt>
      <trkpt lat="49.05357" lon="-0.45878">
        <ele>22.8</ele>
        <time>2023-05-23T13:50:57Z</time>
      </trkpt>
      <trkpt lat="49.05364" lon="-0.4588">
        <ele>22.8</ele>
        <time>2023-05-23T13:50:58Z</time>
      </trkpt>
      <trkpt lat="49.05372" lon="-0.45881">
        <ele>22.8</ele>
        <time>2023-05-23T13:50:59Z</time>
      </trkpt>
      <trkpt lat="49.05379" lon="-0.45883">
        <ele>22.8</ele>
        <time>2023-05-23T13:51:00Z</time>
      </trkpt>
      <trkpt lat="49.05386" lon="-0.45885">
        <ele>22.6</ele>
        <time>2023-05-23T13:51:01Z</time>
      </trkpt>
      <trkpt lat="49.05394" lon="-0.45886">
        <ele>22.6</ele>
        <time>2023-05-23T13:51:02Z</time>
      </trkpt>
      <trkpt lat="49.05401" lon="-0.45888">
        <ele>22.4</ele>
        <time>2023-05-23T13:51:03Z</time>
      </trkpt>
      <trkpt lat="49.05408" lon="-0.4589">
        <ele>22.2</ele>
        <time>2023-05-23T13:51:04Z</time>
      </trkpt>
      <trkpt lat="49.05415" lon="-0.45891">
        <ele>22.2</ele>
        <time>2023-05-23T13:51:05Z</time>
      </trkpt>
      <trkpt lat="49.05422" lon="-0.45893">
        <ele>22.2</ele>
        <time>2023-05-23T13:51:06Z</time>
      </trkpt>
      <trkpt lat="49.0543" lon="-0.45894">
        <ele>22</ele>
        <time>2023-05-23T13:51:07Z</time>
      </trkpt>
      <trkpt lat="49.05437" lon="-0.45896">
        <ele>21.8</ele>
        <time>2023-05-23T13:51:08Z</time>
      </trkpt>
      <trkpt lat="49.05444" lon="-0.45898">
        <ele>21.8</ele>
        <time>2023-05-23T13:51:09Z</time>
      </trkpt>
      <trkpt lat="49.05451" lon="-0.459">
        <ele>21.6</ele>
        <time>2023-05-23T13:51:10Z</time>
      </trkpt>
      <trkpt lat="49.05458" lon="-0.45901">
        <ele>21.4</ele>
        <time>2023-05-23T13:51:11Z</time>
      </trkpt>
      <trkpt lat="49.05465" lon="-0.45903">
        <ele>21.2</ele>
        <time>2023-05-23T13:51:12Z</time>
      </trkpt>
      <trkpt lat="49.05472" lon="-0.45905">
        <ele>21.2</ele>
        <time>2023-05-23T13:51:13Z</time>
      </trkpt>
      <trkpt lat="49.05479" lon="-0.45906">
        <ele>21</ele>
        <time>2023-05-23T13:51:14Z</time>
      </trkpt>
      <trkpt lat="49.05485" lon="-0.45908">
        <ele>20.8</ele>
        <time>2023-05-23T13:51:15Z</time>
      </trkpt>
      <trkpt lat="49.05492" lon="-0.45909">
        <ele>20.8</ele>
        <time>2023-05-23T13:51:16Z</time>
      </trkpt>
      <trkpt lat="49.05498" lon="-0.45911">
        <ele>20.8</ele>
        <time>2023-05-23T13:51:17Z</time>
      </trkpt>
      <trkpt lat="49.05505" lon="-0.45912">
        <ele>20.8</ele>
        <time>2023-05-23T13:51:18Z</time>
      </trkpt>
      <trkpt lat="49.05511" lon="-0.45914">
        <ele>20.6</ele>
        <time>2023-05-23T13:51:19Z</time>
      </trkpt>
      <trkpt lat="49.05517" lon="-0.45916">
        <ele>20.4</ele>
        <time>2023-05-23T13:51:20Z</time>
      </trkpt>
      <trkpt lat="49.05524" lon="-0.45917">
        <ele>20.2</ele>
        <time>2023-05-23T13:51:21Z</time>
      </trkpt>
      <trkpt lat="49.0553" lon="-0.45919">
        <ele>20.2</ele>
        <time>2023-05-23T13:51:22Z</time>
      </trkpt>
      <trkpt lat="49.05537" lon="-0.45921">
        <ele>20.2</ele>
        <time>2023-05-23T13:51:23Z</time>
      </trkpt>
      <trkpt lat="49.05544" lon="-0.45923">
        <ele>20.2</ele>
        <time>2023-05-23T13:51:24Z</time>
      </trkpt>
      <trkpt lat="49.0555" lon="-0.45925">
        <ele>20.2</ele>
        <time>2023-05-23T13:51:25Z</time>
      </trkpt>
      <trkpt lat="49.05556" lon="-0.45926">
        <ele>20.2</ele>
        <time>2023-05-23T13:51:26Z</time>
      </trkpt>
      <trkpt lat="49.05563" lon="-0.45928">
        <ele>20.2</ele>
        <time>2023-05-23T13:51:27Z</time>
      </trkpt>
      <trkpt lat="49.05569" lon="-0.4593">
        <ele>20.2</ele>
        <time>2023-05-23T13:51:28Z</time>
      </trkpt>
      <trkpt lat="49.05575" lon="-0.45931">
        <ele>20</ele>
        <time>2023-05-23T13:51:29Z</time>
      </trkpt>
      <trkpt lat="49.05581" lon="-0.45933">
        <ele>20</ele>
        <time>2023-05-23T13:51:30Z</time>
      </trkpt>
      <trkpt lat="49.05587" lon="-0.45935">
        <ele>19.8</ele>
        <time>2023-05-23T13:51:31Z</time>
      </trkpt>
      <trkpt lat="49.05594" lon="-0.45936">
        <ele>19.8</ele>
        <time>2023-05-23T13:51:32Z</time>
      </trkpt>
      <trkpt lat="49.056" lon="-0.45938">
        <ele>19.6</ele>
        <time>2023-05-23T13:51:33Z</time>
      </trkpt>
      <trkpt lat="49.05606" lon="-0.45939">
        <ele>19.6</ele>
        <time>2023-05-23T13:51:34Z</time>
      </trkpt>
      <trkpt lat="49.05612" lon="-0.45941">
        <ele>19.2</ele>
        <time>2023-05-23T13:51:35Z</time>
      </trkpt>
      <trkpt lat="49.05618" lon="-0.45942">
        <ele>19.2</ele>
        <time>2023-05-23T13:51:36Z</time>
      </trkpt>
      <trkpt lat="49.05624" lon="-0.45944">
        <ele>19.2</ele>
        <time>2023-05-23T13:51:37Z</time>
      </trkpt>
      <trkpt lat="49.05629" lon="-0.45945">
        <ele>18.8</ele>
        <time>2023-05-23T13:51:38Z</time>
      </trkpt>
      <trkpt lat="49.05635" lon="-0.45947">
        <ele>18.8</ele>
        <time>2023-05-23T13:51:39Z</time>
      </trkpt>
      <trkpt lat="49.05641" lon="-0.45948">
        <ele>18.8</ele>
        <time>2023-05-23T13:51:40Z</time>
      </trkpt>
      <trkpt lat="49.05646" lon="-0.45949">
        <ele>18.6</ele>
        <time>2023-05-23T13:51:41Z</time>
      </trkpt>
      <trkpt lat="49.05652" lon="-0.45951">
        <ele>18.6</ele>
        <time>2023-05-23T13:51:42Z</time>
      </trkpt>
      <trkpt lat="49.05658" lon="-0.45952">
        <ele>18.4</ele>
        <time>2023-05-23T13:51:43Z</time>
      </trkpt>
      <trkpt lat="49.05663" lon="-0.45953">
        <ele>18.2</ele>
        <time>2023-05-23T13:51:44Z</time>
      </trkpt>
      <trkpt lat="49.05669" lon="-0.45954">
        <ele>18.2</ele>
        <time>2023-05-23T13:51:45Z</time>
      </trkpt>
      <trkpt lat="49.05674" lon="-0.45956">
        <ele>18.2</ele>
        <time>2023-05-23T13:51:46Z</time>
      </trkpt>
      <trkpt lat="49.0568" lon="-0.45957">
        <ele>18.2</ele>
        <time>2023-05-23T13:51:47Z</time>
      </trkpt>
      <trkpt lat="49.05685" lon="-0.45958">
        <ele>18</ele>
        <time>2023-05-23T13:51:48Z</time>
      </trkpt>
      <trkpt lat="49.05691" lon="-0.45959">
        <ele>18</ele>
        <time>2023-05-23T13:51:49Z</time>
      </trkpt>
      <trkpt lat="49.05696" lon="-0.4596">
        <ele>17.8</ele>
        <time>2023-05-23T13:51:50Z</time>
      </trkpt>
      <trkpt lat="49.05702" lon="-0.45961">
        <ele>17.8</ele>
        <time>2023-05-23T13:51:51Z</time>
      </trkpt>
      <trkpt lat="49.05708" lon="-0.45962">
        <ele>17.8</ele>
        <time>2023-05-23T13:51:52Z</time>
      </trkpt>
      <trkpt lat="49.05713" lon="-0.45963">
        <ele>17.8</ele>
        <time>2023-05-23T13:51:53Z</time>
      </trkpt>
      <trkpt lat="49.05719" lon="-0.45964">
        <ele>17.6</ele>
        <time>2023-05-23T13:51:54Z</time>
      </trkpt>
      <trkpt lat="49.05725" lon="-0.45965">
        <ele>17.6</ele>
        <time>2023-05-23T13:51:55Z</time>
      </trkpt>
      <trkpt lat="49.05731" lon="-0.45966">
        <ele>17.6</ele>
        <time>2023-05-23T13:51:56Z</time>
      </trkpt>
      <trkpt lat="49.05737" lon="-0.45966">
        <ele>17.6</ele>
        <time>2023-05-23T13:51:57Z</time>
      </trkpt>
      <trkpt lat="49.05743" lon="-0.45967">
        <ele>17.4</ele>
        <time>2023-05-23T13:51:58Z</time>
      </trkpt>
      <trkpt lat="49.05749" lon="-0.45968">
        <ele>17.2</ele>
        <time>2023-05-23T13:51:59Z</time>
      </trkpt>
      <trkpt lat="49.05755" lon="-0.45969">
        <ele>17.2</ele>
        <time>2023-05-23T13:52:00Z</time>
      </trkpt>
      <trkpt lat="49.05761" lon="-0.45969">
        <ele>17.2</ele>
        <time>2023-05-23T13:52:01Z</time>
      </trkpt>
      <trkpt lat="49.05767" lon="-0.4597">
        <ele>17.2</ele>
        <time>2023-05-23T13:52:02Z</time>
      </trkpt>
      <trkpt lat="49.05773" lon="-0.4597">
        <ele>17.2</ele>
        <time>2023-05-23T13:52:03Z</time>
      </trkpt>
      <trkpt lat="49.05779" lon="-0.45971">
        <ele>17.2</ele>
        <time>2023-05-23T13:52:04Z</time>
      </trkpt>
      <trkpt lat="49.05786" lon="-0.45971">
        <ele>17.2</ele>
        <time>2023-05-23T13:52:05Z</time>
      </trkpt>
      <trkpt lat="49.05792" lon="-0.45971">
        <ele>17.2</ele>
        <time>2023-05-23T13:52:06Z</time>
      </trkpt>
      <trkpt lat="49.05798" lon="-0.45971">
        <ele>17.2</ele>
        <time>2023-05-23T13:52:07Z</time>
      </trkpt>
      <trkpt lat="49.05804" lon="-0.45972">
        <ele>17.2</ele>
        <time>2023-05-23T13:52:08Z</time>
      </trkpt>
      <trkpt lat="49.0581" lon="-0.45972">
        <ele>17</ele>
        <time>2023-05-23T13:52:09Z</time>
      </trkpt>
      <trkpt lat="49.05816" lon="-0.45972">
        <ele>17.2</ele>
        <time>2023-05-23T13:52:10Z</time>
      </trkpt>
      <trkpt lat="49.05822" lon="-0.45971">
        <ele>17.2</ele>
        <time>2023-05-23T13:52:11Z</time>
      </trkpt>
      <trkpt lat="49.05828" lon="-0.45971">
        <ele>17.2</ele>
        <time>2023-05-23T13:52:12Z</time>
      </trkpt>
      <trkpt lat="49.05834" lon="-0.45971">
        <ele>17.2</ele>
        <time>2023-05-23T13:52:13Z</time>
      </trkpt>
      <trkpt lat="49.0584" lon="-0.45971">
        <ele>17.2</ele>
        <time>2023-05-23T13:52:14Z</time>
      </trkpt>
      <trkpt lat="49.05846" lon="-0.4597">
        <ele>17.2</ele>
        <time>2023-05-23T13:52:15Z</time>
      </trkpt>
      <trkpt lat="49.05852" lon="-0.4597">
        <ele>17.2</ele>
        <time>2023-05-23T13:52:16Z</time>
      </trkpt>
      <trkpt lat="49.05857" lon="-0.4597">
        <ele>17.4</ele>
        <time>2023-05-23T13:52:17Z</time>
      </trkpt>
      <trkpt lat="49.05863" lon="-0.45969">
        <ele>17.4</ele>
        <time>2023-05-23T13:52:18Z</time>
      </trkpt>
      <trkpt lat="49.05869" lon="-0.45969">
        <ele>17.6</ele>
        <time>2023-05-23T13:52:19Z</time>
      </trkpt>
      <trkpt lat="49.05875" lon="-0.45968">
        <ele>17.6</ele>
        <time>2023-05-23T13:52:20Z</time>
      </trkpt>
      <trkpt lat="49.0588" lon="-0.45968">
        <ele>17.8</ele>
        <time>2023-05-23T13:52:21Z</time>
      </trkpt>
      <trkpt lat="49.05886" lon="-0.45967">
        <ele>17.8</ele>
        <time>2023-05-23T13:52:22Z</time>
      </trkpt>
      <trkpt lat="49.05892" lon="-0.45966">
        <ele>17.8</ele>
        <time>2023-05-23T13:52:23Z</time>
      </trkpt>
      <trkpt lat="49.05898" lon="-0.45966">
        <ele>17.8</ele>
        <time>2023-05-23T13:52:24Z</time>
      </trkpt>
      <trkpt lat="49.05903" lon="-0.45965">
        <ele>18</ele>
        <time>2023-05-23T13:52:25Z</time>
      </trkpt>
      <trkpt lat="49.05909" lon="-0.45964">
        <ele>18.2</ele>
        <time>2023-05-23T13:52:26Z</time>
      </trkpt>
      <trkpt lat="49.05915" lon="-0.45963">
        <ele>18.2</ele>
        <time>2023-05-23T13:52:27Z</time>
      </trkpt>
      <trkpt lat="49.05921" lon="-0.45962">
        <ele>18.2</ele>
        <time>2023-05-23T13:52:28Z</time>
      </trkpt>
      <trkpt lat="49.05927" lon="-0.45961">
        <ele>18.2</ele>
        <time>2023-05-23T13:52:29Z</time>
      </trkpt>
      <trkpt lat="49.05933" lon="-0.4596">
        <ele>18.2</ele>
        <time>2023-05-23T13:52:30Z</time>
      </trkpt>
      <trkpt lat="49.05939" lon="-0.45959">
        <ele>18.2</ele>
        <time>2023-05-23T13:52:31Z</time>
      </trkpt>
      <trkpt lat="49.05945" lon="-0.45958">
        <ele>18</ele>
        <time>2023-05-23T13:52:32Z</time>
      </trkpt>
      <trkpt lat="49.05951" lon="-0.45957">
        <ele>18</ele>
        <time>2023-05-23T13:52:33Z</time>
      </trkpt>
      <trkpt lat="49.05957" lon="-0.45955">
        <ele>17.8</ele>
        <time>2023-05-23T13:52:34Z</time>
      </trkpt>
      <trkpt lat="49.05963" lon="-0.45954">
        <ele>17.8</ele>
        <time>2023-05-23T13:52:35Z</time>
      </trkpt>
      <trkpt lat="49.05969" lon="-0.45953">
        <ele>17.8</ele>
        <time>2023-05-23T13:52:36Z</time>
      </trkpt>
      <trkpt lat="49.05974" lon="-0.45951">
        <ele>17.8</ele>
        <time>2023-05-23T13:52:37Z</time>
      </trkpt>
      <trkpt lat="49.0598" lon="-0.4595">
        <ele>17.8</ele>
        <time>2023-05-23T13:52:38Z</time>
      </trkpt>
      <trkpt lat="49.05986" lon="-0.45948">
        <ele>17.8</ele>
        <time>2023-05-23T13:52:39Z</time>
      </trkpt>
      <trkpt lat="49.05991" lon="-0.45946">
        <ele>17.8</ele>
        <time>2023-05-23T13:52:40Z</time>
      </trkpt>
      <trkpt lat="49.05997" lon="-0.45944">
        <ele>17.8</ele>
        <time>2023-05-23T13:52:41Z</time>
      </trkpt>
      <trkpt lat="49.06002" lon="-0.45943">
        <ele>17.8</ele>
        <time>2023-05-23T13:52:42Z</time>
      </trkpt>
      <trkpt lat="49.06008" lon="-0.45941">
        <ele>17.8</ele>
        <time>2023-05-23T13:52:43Z</time>
      </trkpt>
      <trkpt lat="49.06014" lon="-0.45939">
        <ele>17.8</ele>
        <time>2023-05-23T13:52:44Z</time>
      </trkpt>
      <trkpt lat="49.06019" lon="-0.45937">
        <ele>17.6</ele>
        <time>2023-05-23T13:52:45Z</time>
      </trkpt>
      <trkpt lat="49.06025" lon="-0.45935">
        <ele>17.6</ele>
        <time>2023-05-23T13:52:46Z</time>
      </trkpt>
      <trkpt lat="49.0603" lon="-0.45933">
        <ele>17.6</ele>
        <time>2023-05-23T13:52:47Z</time>
      </trkpt>
      <trkpt lat="49.06036" lon="-0.45931">
        <ele>17.4</ele>
        <time>2023-05-23T13:52:48Z</time>
      </trkpt>
      <trkpt lat="49.06042" lon="-0.45929">
        <ele>17.2</ele>
        <time>2023-05-23T13:52:49Z</time>
      </trkpt>
      <trkpt lat="49.06047" lon="-0.45927">
        <ele>17.2</ele>
        <time>2023-05-23T13:52:50Z</time>
      </trkpt>
      <trkpt lat="49.06053" lon="-0.45925">
        <ele>17</ele>
        <time>2023-05-23T13:52:51Z</time>
      </trkpt>
      <trkpt lat="49.06058" lon="-0.45922">
        <ele>16.8</ele>
        <time>2023-05-23T13:52:52Z</time>
      </trkpt>
      <trkpt lat="49.06064" lon="-0.4592">
        <ele>16.8</ele>
        <time>2023-05-23T13:52:53Z</time>
      </trkpt>
      <trkpt lat="49.0607" lon="-0.45918">
        <ele>16.6</ele>
        <time>2023-05-23T13:52:54Z</time>
      </trkpt>
      <trkpt lat="49.06075" lon="-0.45916">
        <ele>16.4</ele>
        <time>2023-05-23T13:52:55Z</time>
      </trkpt>
      <trkpt lat="49.06081" lon="-0.45914">
        <ele>16.6</ele>
        <time>2023-05-23T13:52:56Z</time>
      </trkpt>
      <trkpt lat="49.06086" lon="-0.45911">
        <ele>16.8</ele>
        <time>2023-05-23T13:52:57Z</time>
      </trkpt>
      <trkpt lat="49.06092" lon="-0.45908">
        <ele>17.2</ele>
        <time>2023-05-23T13:52:58Z</time>
      </trkpt>
      <trkpt lat="49.06097" lon="-0.45906">
        <ele>17.8</ele>
        <time>2023-05-23T13:52:59Z</time>
      </trkpt>
      <trkpt lat="49.06102" lon="-0.45903">
        <ele>18.2</ele>
        <time>2023-05-23T13:53:00Z</time>
      </trkpt>
      <trkpt lat="49.06108" lon="-0.459">
        <ele>18.6</ele>
        <time>2023-05-23T13:53:01Z</time>
      </trkpt>
      <trkpt lat="49.06113" lon="-0.45897">
        <ele>19</ele>
        <time>2023-05-23T13:53:02Z</time>
      </trkpt>
      <trkpt lat="49.06118" lon="-0.45894">
        <ele>19.2</ele>
        <time>2023-05-23T13:53:03Z</time>
      </trkpt>
      <trkpt lat="49.06124" lon="-0.45891">
        <ele>19.6</ele>
        <time>2023-05-23T13:53:04Z</time>
      </trkpt>
      <trkpt lat="49.06129" lon="-0.45888">
        <ele>19.8</ele>
        <time>2023-05-23T13:53:05Z</time>
      </trkpt>
      <trkpt lat="49.06135" lon="-0.45885">
        <ele>20.2</ele>
        <time>2023-05-23T13:53:06Z</time>
      </trkpt>
      <trkpt lat="49.0614" lon="-0.45882">
        <ele>20.2</ele>
        <time>2023-05-23T13:53:07Z</time>
      </trkpt>
      <trkpt lat="49.06145" lon="-0.45879">
        <ele>20.6</ele>
        <time>2023-05-23T13:53:08Z</time>
      </trkpt>
      <trkpt lat="49.0615" lon="-0.45876">
        <ele>20.6</ele>
        <time>2023-05-23T13:53:09Z</time>
      </trkpt>
      <trkpt lat="49.06154" lon="-0.45873">
        <ele>20.8</ele>
        <time>2023-05-23T13:53:10Z</time>
      </trkpt>
      <trkpt lat="49.06159" lon="-0.4587">
        <ele>20.8</ele>
        <time>2023-05-23T13:53:11Z</time>
      </trkpt>
      <trkpt lat="49.06162" lon="-0.45868">
        <ele>20.8</ele>
        <time>2023-05-23T13:53:12Z</time>
      </trkpt>
      <trkpt lat="49.06166" lon="-0.45865">
        <ele>20.8</ele>
        <time>2023-05-23T13:53:13Z</time>
      </trkpt>
      <trkpt lat="49.06168" lon="-0.45862">
        <ele>20.8</ele>
        <time>2023-05-23T13:53:14Z</time>
      </trkpt>
      <trkpt lat="49.06171" lon="-0.4586">
        <ele>21</ele>
        <time>2023-05-23T13:53:15Z</time>
      </trkpt>
      <trkpt lat="49.06174" lon="-0.45857">
        <ele>21</ele>
        <time>2023-05-23T13:53:16Z</time>
      </trkpt>
      <trkpt lat="49.06178" lon="-0.45854">
        <ele>21</ele>
        <time>2023-05-23T13:53:17Z</time>
      </trkpt>
      <trkpt lat="49.06182" lon="-0.4585">
        <ele>20.8</ele>
        <time>2023-05-23T13:53:18Z</time>
      </trkpt>
      <trkpt lat="49.06187" lon="-0.45847">
        <ele>20.8</ele>
        <time>2023-05-23T13:53:19Z</time>
      </trkpt>
      <trkpt lat="49.06192" lon="-0.45843">
        <ele>20.8</ele>
        <time>2023-05-23T13:53:20Z</time>
      </trkpt>
      <trkpt lat="49.06196" lon="-0.45838">
        <ele>20.6</ele>
        <time>2023-05-23T13:53:21Z</time>
      </trkpt>
      <trkpt lat="49.06201" lon="-0.45834">
        <ele>20.2</ele>
        <time>2023-05-23T13:53:22Z</time>
      </trkpt>
      <trkpt lat="49.06206" lon="-0.4583">
        <ele>20.4</ele>
        <time>2023-05-23T13:53:23Z</time>
      </trkpt>
      <trkpt lat="49.06211" lon="-0.45825">
        <ele>20.6</ele>
        <time>2023-05-23T13:53:24Z</time>
      </trkpt>
      <trkpt lat="49.06216" lon="-0.45821">
        <ele>20.8</ele>
        <time>2023-05-23T13:53:25Z</time>
      </trkpt>
      <trkpt lat="49.0622" lon="-0.45816">
        <ele>20.8</ele>
        <time>2023-05-23T13:53:26Z</time>
      </trkpt>
      <trkpt lat="49.06225" lon="-0.45812">
        <ele>21</ele>
        <time>2023-05-23T13:53:27Z</time>
      </trkpt>
      <trkpt lat="49.06229" lon="-0.45807">
        <ele>21.2</ele>
        <time>2023-05-23T13:53:28Z</time>
      </trkpt>
      <trkpt lat="49.06234" lon="-0.45802">
        <ele>21.4</ele>
        <time>2023-05-23T13:53:29Z</time>
      </trkpt>
      <trkpt lat="49.06239" lon="-0.45797">
        <ele>21.6</ele>
        <time>2023-05-23T13:53:30Z</time>
      </trkpt>
      <trkpt lat="49.06243" lon="-0.45792">
        <ele>21.8</ele>
        <time>2023-05-23T13:53:31Z</time>
      </trkpt>
      <trkpt lat="49.06248" lon="-0.45788">
        <ele>21.8</ele>
        <time>2023-05-23T13:53:32Z</time>
      </trkpt>
      <trkpt lat="49.06252" lon="-0.45782">
        <ele>22.2</ele>
        <time>2023-05-23T13:53:33Z</time>
      </trkpt>
      <trkpt lat="49.06257" lon="-0.45777">
        <ele>22.2</ele>
        <time>2023-05-23T13:53:34Z</time>
      </trkpt>
      <trkpt lat="49.06261" lon="-0.45772">
        <ele>22.2</ele>
        <time>2023-05-23T13:53:35Z</time>
      </trkpt>
      <trkpt lat="49.06266" lon="-0.45767">
        <ele>22.2</ele>
        <time>2023-05-23T13:53:36Z</time>
      </trkpt>
      <trkpt lat="49.0627" lon="-0.45761">
        <ele>22.4</ele>
        <time>2023-05-23T13:53:37Z</time>
      </trkpt>
      <trkpt lat="49.06274" lon="-0.45755">
        <ele>22.4</ele>
        <time>2023-05-23T13:53:38Z</time>
      </trkpt>
      <trkpt lat="49.06278" lon="-0.45749">
        <ele>22.4</ele>
        <time>2023-05-23T13:53:39Z</time>
      </trkpt>
      <trkpt lat="49.06282" lon="-0.45743">
        <ele>22.8</ele>
        <time>2023-05-23T13:53:40Z</time>
      </trkpt>
      <trkpt lat="49.06286" lon="-0.45737">
        <ele>23.2</ele>
        <time>2023-05-23T13:53:41Z</time>
      </trkpt>
      <trkpt lat="49.06289" lon="-0.4573">
        <ele>23.2</ele>
        <time>2023-05-23T13:53:42Z</time>
      </trkpt>
      <trkpt lat="49.06293" lon="-0.45724">
        <ele>23.6</ele>
        <time>2023-05-23T13:53:43Z</time>
      </trkpt>
      <trkpt lat="49.06297" lon="-0.45718">
        <ele>23.8</ele>
        <time>2023-05-23T13:53:44Z</time>
      </trkpt>
      <trkpt lat="49.06301" lon="-0.45711">
        <ele>24.2</ele>
        <time>2023-05-23T13:53:45Z</time>
      </trkpt>
      <trkpt lat="49.06304" lon="-0.45705">
        <ele>24.2</ele>
        <time>2023-05-23T13:53:46Z</time>
      </trkpt>
      <trkpt lat="49.06308" lon="-0.45699">
        <ele>24.6</ele>
        <time>2023-05-23T13:53:47Z</time>
      </trkpt>
      <trkpt lat="49.06312" lon="-0.45692">
        <ele>24.6</ele>
        <time>2023-05-23T13:53:48Z</time>
      </trkpt>
      <trkpt lat="49.06316" lon="-0.45686">
        <ele>24.8</ele>
        <time>2023-05-23T13:53:49Z</time>
      </trkpt>
      <trkpt lat="49.06319" lon="-0.4568">
        <ele>24.8</ele>
        <time>2023-05-23T13:53:50Z</time>
      </trkpt>
      <trkpt lat="49.06323" lon="-0.45673">
        <ele>24.8</ele>
        <time>2023-05-23T13:53:51Z</time>
      </trkpt>
      <trkpt lat="49.06327" lon="-0.45667">
        <ele>24.8</ele>
        <time>2023-05-23T13:53:52Z</time>
      </trkpt>
      <trkpt lat="49.0633" lon="-0.45661">
        <ele>25.2</ele>
        <time>2023-05-23T13:53:53Z</time>
      </trkpt>
      <trkpt lat="49.06333" lon="-0.45654">
        <ele>25.2</ele>
        <time>2023-05-23T13:53:54Z</time>
      </trkpt>
      <trkpt lat="49.06337" lon="-0.45648">
        <ele>25.6</ele>
        <time>2023-05-23T13:53:55Z</time>
      </trkpt>
      <trkpt lat="49.0634" lon="-0.45641">
        <ele>25.8</ele>
        <time>2023-05-23T13:53:56Z</time>
      </trkpt>
      <trkpt lat="49.06343" lon="-0.45634">
        <ele>25.8</ele>
        <time>2023-05-23T13:53:57Z</time>
      </trkpt>
      <trkpt lat="49.06345" lon="-0.45627">
        <ele>26.2</ele>
        <time>2023-05-23T13:53:58Z</time>
      </trkpt>
      <trkpt lat="49.06348" lon="-0.4562">
        <ele>26.4</ele>
        <time>2023-05-23T13:53:59Z</time>
      </trkpt>
      <trkpt lat="49.06351" lon="-0.45613">
        <ele>26.6</ele>
        <time>2023-05-23T13:54:00Z</time>
      </trkpt>
      <trkpt lat="49.06353" lon="-0.45606">
        <ele>26.8</ele>
        <time>2023-05-23T13:54:01Z</time>
      </trkpt>
      <trkpt lat="49.06356" lon="-0.45598">
        <ele>26.8</ele>
        <time>2023-05-23T13:54:02Z</time>
      </trkpt>
      <trkpt lat="49.06359" lon="-0.45591">
        <ele>26.8</ele>
        <time>2023-05-23T13:54:03Z</time>
      </trkpt>
      <trkpt lat="49.06361" lon="-0.45583">
        <ele>26.8</ele>
        <time>2023-05-23T13:54:04Z</time>
      </trkpt>
      <trkpt lat="49.06364" lon="-0.45576">
        <ele>27</ele>
        <time>2023-05-23T13:54:05Z</time>
      </trkpt>
      <trkpt lat="49.06367" lon="-0.45568">
        <ele>27.2</ele>
        <time>2023-05-23T13:54:06Z</time>
      </trkpt>
      <trkpt lat="49.0637" lon="-0.45561">
        <ele>27.2</ele>
        <time>2023-05-23T13:54:07Z</time>
      </trkpt>
      <trkpt lat="49.06373" lon="-0.45553">
        <ele>27.2</ele>
        <time>2023-05-23T13:54:08Z</time>
      </trkpt>
      <trkpt lat="49.06376" lon="-0.45545">
        <ele>27.2</ele>
        <time>2023-05-23T13:54:09Z</time>
      </trkpt>
      <trkpt lat="49.06378" lon="-0.45537">
        <ele>27.2</ele>
        <time>2023-05-23T13:54:10Z</time>
      </trkpt>
      <trkpt lat="49.06381" lon="-0.45529">
        <ele>27.2</ele>
        <time>2023-05-23T13:54:11Z</time>
      </trkpt>
      <trkpt lat="49.06383" lon="-0.45521">
        <ele>27</ele>
        <time>2023-05-23T13:54:12Z</time>
      </trkpt>
      <trkpt lat="49.06386" lon="-0.45513">
        <ele>27</ele>
        <time>2023-05-23T13:54:13Z</time>
      </trkpt>
      <trkpt lat="49.06388" lon="-0.45505">
        <ele>26.8</ele>
        <time>2023-05-23T13:54:14Z</time>
      </trkpt>
      <trkpt lat="49.0639" lon="-0.45497">
        <ele>26.8</ele>
        <time>2023-05-23T13:54:15Z</time>
      </trkpt>
      <trkpt lat="49.06393" lon="-0.45488">
        <ele>27.2</ele>
        <time>2023-05-23T13:54:16Z</time>
      </trkpt>
      <trkpt lat="49.06395" lon="-0.4548">
        <ele>27.2</ele>
        <time>2023-05-23T13:54:17Z</time>
      </trkpt>
      <trkpt lat="49.06397" lon="-0.45472">
        <ele>27.4</ele>
        <time>2023-05-23T13:54:18Z</time>
      </trkpt>
      <trkpt lat="49.064" lon="-0.45464">
        <ele>27.6</ele>
        <time>2023-05-23T13:54:19Z</time>
      </trkpt>
      <trkpt lat="49.06402" lon="-0.45456">
        <ele>27.6</ele>
        <time>2023-05-23T13:54:20Z</time>
      </trkpt>
      <trkpt lat="49.06405" lon="-0.45448">
        <ele>27.8</ele>
        <time>2023-05-23T13:54:21Z</time>
      </trkpt>
      <trkpt lat="49.06407" lon="-0.45439">
        <ele>27.8</ele>
        <time>2023-05-23T13:54:22Z</time>
      </trkpt>
      <trkpt lat="49.0641" lon="-0.45431">
        <ele>27.8</ele>
        <time>2023-05-23T13:54:23Z</time>
      </trkpt>
      <trkpt lat="49.06412" lon="-0.45423">
        <ele>27.8</ele>
        <time>2023-05-23T13:54:24Z</time>
      </trkpt>
      <trkpt lat="49.06415" lon="-0.45415">
        <ele>27.8</ele>
        <time>2023-05-23T13:54:25Z</time>
      </trkpt>
      <trkpt lat="49.06417" lon="-0.45407">
        <ele>28.2</ele>
        <time>2023-05-23T13:54:26Z</time>
      </trkpt>
      <trkpt lat="49.06419" lon="-0.45398">
        <ele>28.8</ele>
        <time>2023-05-23T13:54:27Z</time>
      </trkpt>
      <trkpt lat="49.06422" lon="-0.4539">
        <ele>29.6</ele>
        <time>2023-05-23T13:54:28Z</time>
      </trkpt>
      <trkpt lat="49.06424" lon="-0.45382">
        <ele>30.2</ele>
        <time>2023-05-23T13:54:29Z</time>
      </trkpt>
      <trkpt lat="49.06426" lon="-0.45373">
        <ele>30.8</ele>
        <time>2023-05-23T13:54:30Z</time>
      </trkpt>
      <trkpt lat="49.06429" lon="-0.45365">
        <ele>31.2</ele>
        <time>2023-05-23T13:54:31Z</time>
      </trkpt>
      <trkpt lat="49.06431" lon="-0.45356">
        <ele>31.6</ele>
        <time>2023-05-23T13:54:32Z</time>
      </trkpt>
      <trkpt lat="49.06433" lon="-0.45347">
        <ele>31.8</ele>
        <time>2023-05-23T13:54:33Z</time>
      </trkpt>
      <trkpt lat="49.06435" lon="-0.45339">
        <ele>32</ele>
        <time>2023-05-23T13:54:34Z</time>
      </trkpt>
      <trkpt lat="49.06437" lon="-0.4533">
        <ele>32.2</ele>
        <time>2023-05-23T13:54:35Z</time>
      </trkpt>
      <trkpt lat="49.0644" lon="-0.45321">
        <ele>32.4</ele>
        <time>2023-05-23T13:54:36Z</time>
      </trkpt>
      <trkpt lat="49.06442" lon="-0.45313">
        <ele>32.4</ele>
        <time>2023-05-23T13:54:37Z</time>
      </trkpt>
      <trkpt lat="49.06444" lon="-0.45304">
        <ele>32.2</ele>
        <time>2023-05-23T13:54:38Z</time>
      </trkpt>
      <trkpt lat="49.06447" lon="-0.45295">
        <ele>32.2</ele>
        <time>2023-05-23T13:54:39Z</time>
      </trkpt>
      <trkpt lat="49.06449" lon="-0.45287">
        <ele>32</ele>
        <time>2023-05-23T13:54:40Z</time>
      </trkpt>
      <trkpt lat="49.06452" lon="-0.45279">
        <ele>31.6</ele>
        <time>2023-05-23T13:54:41Z</time>
      </trkpt>
      <trkpt lat="49.06455" lon="-0.4527">
        <ele>31.2</ele>
        <time>2023-05-23T13:54:42Z</time>
      </trkpt>
      <trkpt lat="49.06457" lon="-0.45262">
        <ele>30.8</ele>
        <time>2023-05-23T13:54:43Z</time>
      </trkpt>
      <trkpt lat="49.0646" lon="-0.45254">
        <ele>30.2</ele>
        <time>2023-05-23T13:54:44Z</time>
      </trkpt>
      <trkpt lat="49.06463" lon="-0.45246">
        <ele>29.8</ele>
        <time>2023-05-23T13:54:45Z</time>
      </trkpt>
      <trkpt lat="49.06466" lon="-0.45238">
        <ele>29.6</ele>
        <time>2023-05-23T13:54:46Z</time>
      </trkpt>
      <trkpt lat="49.06468" lon="-0.4523">
        <ele>29.2</ele>
        <time>2023-05-23T13:54:47Z</time>
      </trkpt>
      <trkpt lat="49.06471" lon="-0.45221">
        <ele>29.2</ele>
        <time>2023-05-23T13:54:48Z</time>
      </trkpt>
      <trkpt lat="49.06473" lon="-0.45213">
        <ele>29.2</ele>
        <time>2023-05-23T13:54:49Z</time>
      </trkpt>
      <trkpt lat="49.06475" lon="-0.45204">
        <ele>29.2</ele>
        <time>2023-05-23T13:54:50Z</time>
      </trkpt>
      <trkpt lat="49.06477" lon="-0.45195">
        <ele>29.2</ele>
        <time>2023-05-23T13:54:51Z</time>
      </trkpt>
      <trkpt lat="49.06479" lon="-0.45187">
        <ele>29.2</ele>
        <time>2023-05-23T13:54:52Z</time>
      </trkpt>
      <trkpt lat="49.06481" lon="-0.45178">
        <ele>29.4</ele>
        <time>2023-05-23T13:54:53Z</time>
      </trkpt>
      <trkpt lat="49.06483" lon="-0.4517">
        <ele>29.6</ele>
        <time>2023-05-23T13:54:54Z</time>
      </trkpt>
      <trkpt lat="49.06485" lon="-0.45162">
        <ele>29.6</ele>
        <time>2023-05-23T13:54:55Z</time>
      </trkpt>
      <trkpt lat="49.06487" lon="-0.45154">
        <ele>29.8</ele>
        <time>2023-05-23T13:54:56Z</time>
      </trkpt>
      <trkpt lat="49.06489" lon="-0.45146">
        <ele>30</ele>
        <time>2023-05-23T13:54:57Z</time>
      </trkpt>
      <trkpt lat="49.06491" lon="-0.45138">
        <ele>30.2</ele>
        <time>2023-05-23T13:54:58Z</time>
      </trkpt>
      <trkpt lat="49.06492" lon="-0.45131">
        <ele>30.2</ele>
        <time>2023-05-23T13:54:59Z</time>
      </trkpt>
      <trkpt lat="49.06494" lon="-0.45123">
        <ele>30.6</ele>
        <time>2023-05-23T13:55:00Z</time>
      </trkpt>
      <trkpt lat="49.06496" lon="-0.45116">
        <ele>30.8</ele>
        <time>2023-05-23T13:55:01Z</time>
      </trkpt>
      <trkpt lat="49.06498" lon="-0.45108">
        <ele>31</ele>
        <time>2023-05-23T13:55:02Z</time>
      </trkpt>
      <trkpt lat="49.065" lon="-0.451">
        <ele>31.2</ele>
        <time>2023-05-23T13:55:03Z</time>
      </trkpt>
      <trkpt lat="49.06501" lon="-0.45093">
        <ele>31.8</ele>
        <time>2023-05-23T13:55:04Z</time>
      </trkpt>
      <trkpt lat="49.06503" lon="-0.45085">
        <ele>32.2</ele>
        <time>2023-05-23T13:55:05Z</time>
      </trkpt>
      <trkpt lat="49.06504" lon="-0.45077">
        <ele>32.6</ele>
        <time>2023-05-23T13:55:06Z</time>
      </trkpt>
      <trkpt lat="49.06505" lon="-0.45069">
        <ele>32.8</ele>
        <time>2023-05-23T13:55:07Z</time>
      </trkpt>
      <trkpt lat="49.06507" lon="-0.45061">
        <ele>33</ele>
        <time>2023-05-23T13:55:08Z</time>
      </trkpt>
      <trkpt lat="49.06508" lon="-0.45053">
        <ele>33.2</ele>
        <time>2023-05-23T13:55:09Z</time>
      </trkpt>
      <trkpt lat="49.06509" lon="-0.45045">
        <ele>33.4</ele>
        <time>2023-05-23T13:55:10Z</time>
      </trkpt>
      <trkpt lat="49.0651" lon="-0.45036">
        <ele>33.8</ele>
        <time>2023-05-23T13:55:11Z</time>
      </trkpt>
      <trkpt lat="49.06511" lon="-0.45028">
        <ele>34</ele>
        <time>2023-05-23T13:55:12Z</time>
      </trkpt>
      <trkpt lat="49.06511" lon="-0.4502">
        <ele>34.2</ele>
        <time>2023-05-23T13:55:13Z</time>
      </trkpt>
      <trkpt lat="49.06512" lon="-0.45011">
        <ele>34.6</ele>
        <time>2023-05-23T13:55:14Z</time>
      </trkpt>
      <trkpt lat="49.06512" lon="-0.45003">
        <ele>35</ele>
        <time>2023-05-23T13:55:15Z</time>
      </trkpt>
      <trkpt lat="49.06513" lon="-0.44994">
        <ele>35</ele>
        <time>2023-05-23T13:55:16Z</time>
      </trkpt>
      <trkpt lat="49.06513" lon="-0.44986">
        <ele>34.8</ele>
        <time>2023-05-23T13:55:17Z</time>
      </trkpt>
      <trkpt lat="49.06513" lon="-0.44977">
        <ele>34.6</ele>
        <time>2023-05-23T13:55:18Z</time>
      </trkpt>
      <trkpt lat="49.06514" lon="-0.44969">
        <ele>34.6</ele>
        <time>2023-05-23T13:55:19Z</time>
      </trkpt>
      <trkpt lat="49.06514" lon="-0.4496">
        <ele>34.4</ele>
        <time>2023-05-23T13:55:20Z</time>
      </trkpt>
      <trkpt lat="49.06514" lon="-0.44951">
        <ele>34.4</ele>
        <time>2023-05-23T13:55:21Z</time>
      </trkpt>
      <trkpt lat="49.06513" lon="-0.44943">
        <ele>34.2</ele>
        <time>2023-05-23T13:55:22Z</time>
      </trkpt>
      <trkpt lat="49.06513" lon="-0.44934">
        <ele>34.2</ele>
        <time>2023-05-23T13:55:23Z</time>
      </trkpt>
      <trkpt lat="49.06513" lon="-0.44925">
        <ele>34.2</ele>
        <time>2023-05-23T13:55:24Z</time>
      </trkpt>
      <trkpt lat="49.06512" lon="-0.44916">
        <ele>34.2</ele>
        <time>2023-05-23T13:55:25Z</time>
      </trkpt>
      <trkpt lat="49.06512" lon="-0.44908">
        <ele>34</ele>
        <time>2023-05-23T13:55:26Z</time>
      </trkpt>
      <trkpt lat="49.06511" lon="-0.44899">
        <ele>34</ele>
        <time>2023-05-23T13:55:27Z</time>
      </trkpt>
      <trkpt lat="49.06511" lon="-0.4489">
        <ele>33.8</ele>
        <time>2023-05-23T13:55:28Z</time>
      </trkpt>
      <trkpt lat="49.0651" lon="-0.44881">
        <ele>33.8</ele>
        <time>2023-05-23T13:55:29Z</time>
      </trkpt>
      <trkpt lat="49.06509" lon="-0.44873">
        <ele>33.6</ele>
        <time>2023-05-23T13:55:30Z</time>
      </trkpt>
      <trkpt lat="49.06508" lon="-0.44864">
        <ele>33.4</ele>
        <time>2023-05-23T13:55:31Z</time>
      </trkpt>
      <trkpt lat="49.06507" lon="-0.44855">
        <ele>33.2</ele>
        <time>2023-05-23T13:55:32Z</time>
      </trkpt>
      <trkpt lat="49.06506" lon="-0.44847">
        <ele>33.2</ele>
        <time>2023-05-23T13:55:33Z</time>
      </trkpt>
      <trkpt lat="49.06505" lon="-0.44838">
        <ele>33.2</ele>
        <time>2023-05-23T13:55:34Z</time>
      </trkpt>
      <trkpt lat="49.06504" lon="-0.4483">
        <ele>33</ele>
        <time>2023-05-23T13:55:35Z</time>
      </trkpt>
      <trkpt lat="49.06503" lon="-0.44821">
        <ele>32.6</ele>
        <time>2023-05-23T13:55:36Z</time>
      </trkpt>
      <trkpt lat="49.06501" lon="-0.44813">
        <ele>32</ele>
        <time>2023-05-23T13:55:37Z</time>
      </trkpt>
      <trkpt lat="49.065" lon="-0.44805">
        <ele>31.6</ele>
        <time>2023-05-23T13:55:38Z</time>
      </trkpt>
      <trkpt lat="49.06499" lon="-0.44797">
        <ele>31.2</ele>
        <time>2023-05-23T13:55:39Z</time>
      </trkpt>
      <trkpt lat="49.06498" lon="-0.44788">
        <ele>30.6</ele>
        <time>2023-05-23T13:55:40Z</time>
      </trkpt>
      <trkpt lat="49.06497" lon="-0.4478">
        <ele>30.2</ele>
        <time>2023-05-23T13:55:41Z</time>
      </trkpt>
      <trkpt lat="49.06495" lon="-0.44771">
        <ele>29.8</ele>
        <time>2023-05-23T13:55:42Z</time>
      </trkpt>
      <trkpt lat="49.06494" lon="-0.44763">
        <ele>29.2</ele>
        <time>2023-05-23T13:55:43Z</time>
      </trkpt>
      <trkpt lat="49.06492" lon="-0.44754">
        <ele>28.8</ele>
        <time>2023-05-23T13:55:44Z</time>
      </trkpt>
      <trkpt lat="49.06491" lon="-0.44745">
        <ele>28.2</ele>
        <time>2023-05-23T13:55:45Z</time>
      </trkpt>
      <trkpt lat="49.06489" lon="-0.44737">
        <ele>27.8</ele>
        <time>2023-05-23T13:55:46Z</time>
      </trkpt>
      <trkpt lat="49.06488" lon="-0.44728">
        <ele>27.2</ele>
        <time>2023-05-23T13:55:47Z</time>
      </trkpt>
      <trkpt lat="49.06486" lon="-0.44719">
        <ele>26.8</ele>
        <time>2023-05-23T13:55:48Z</time>
      </trkpt>
      <trkpt lat="49.06485" lon="-0.4471">
        <ele>26.2</ele>
        <time>2023-05-23T13:55:49Z</time>
      </trkpt>
      <trkpt lat="49.06483" lon="-0.44701">
        <ele>25.6</ele>
        <time>2023-05-23T13:55:50Z</time>
      </trkpt>
      <trkpt lat="49.06481" lon="-0.44693">
        <ele>25</ele>
        <time>2023-05-23T13:55:51Z</time>
      </trkpt>
      <trkpt lat="49.0648" lon="-0.44684">
        <ele>24.2</ele>
        <time>2023-05-23T13:55:52Z</time>
      </trkpt>
      <trkpt lat="49.06478" lon="-0.44675">
        <ele>23.6</ele>
        <time>2023-05-23T13:55:53Z</time>
      </trkpt>
      <trkpt lat="49.06476" lon="-0.44666">
        <ele>23</ele>
        <time>2023-05-23T13:55:54Z</time>
      </trkpt>
      <trkpt lat="49.06475" lon="-0.44657">
        <ele>23.2</ele>
        <time>2023-05-23T13:55:55Z</time>
      </trkpt>
      <trkpt lat="49.06473" lon="-0.44649">
        <ele>23.2</ele>
        <time>2023-05-23T13:55:56Z</time>
      </trkpt>
      <trkpt lat="49.06472" lon="-0.4464">
        <ele>23.2</ele>
        <time>2023-05-23T13:55:57Z</time>
      </trkpt>
      <trkpt lat="49.06471" lon="-0.44631">
        <ele>23.2</ele>
        <time>2023-05-23T13:55:58Z</time>
      </trkpt>
      <trkpt lat="49.06469" lon="-0.44622">
        <ele>23.2</ele>
        <time>2023-05-23T13:55:59Z</time>
      </trkpt>
      <trkpt lat="49.06468" lon="-0.44614">
        <ele>23.2</ele>
        <time>2023-05-23T13:56:00Z</time>
      </trkpt>
      <trkpt lat="49.06466" lon="-0.44605">
        <ele>23</ele>
        <time>2023-05-23T13:56:01Z</time>
      </trkpt>
      <trkpt lat="49.06465" lon="-0.44596">
        <ele>22.8</ele>
        <time>2023-05-23T13:56:02Z</time>
      </trkpt>
      <trkpt lat="49.06464" lon="-0.44588">
        <ele>22.6</ele>
        <time>2023-05-23T13:56:03Z</time>
      </trkpt>
      <trkpt lat="49.06462" lon="-0.44579">
        <ele>22.8</ele>
        <time>2023-05-23T13:56:04Z</time>
      </trkpt>
      <trkpt lat="49.06461" lon="-0.44571">
        <ele>23.8</ele>
        <time>2023-05-23T13:56:05Z</time>
      </trkpt>
      <trkpt lat="49.0646" lon="-0.44561">
        <ele>24.6</ele>
        <time>2023-05-23T13:56:06Z</time>
      </trkpt>
      <trkpt lat="49.0646" lon="-0.44552">
        <ele>25.6</ele>
        <time>2023-05-23T13:56:07Z</time>
      </trkpt>
      <trkpt lat="49.06459" lon="-0.44543">
        <ele>26.4</ele>
        <time>2023-05-23T13:56:08Z</time>
      </trkpt>
      <trkpt lat="49.06458" lon="-0.44534">
        <ele>27.2</ele>
        <time>2023-05-23T13:56:09Z</time>
      </trkpt>
      <trkpt lat="49.06457" lon="-0.44525">
        <ele>28.2</ele>
        <time>2023-05-23T13:56:10Z</time>
      </trkpt>
      <trkpt lat="49.06456" lon="-0.44517">
        <ele>28.8</ele>
        <time>2023-05-23T13:56:11Z</time>
      </trkpt>
      <trkpt lat="49.06455" lon="-0.44508">
        <ele>29.6</ele>
        <time>2023-05-23T13:56:12Z</time>
      </trkpt>
      <trkpt lat="49.06455" lon="-0.44499">
        <ele>30.2</ele>
        <time>2023-05-23T13:56:13Z</time>
      </trkpt>
      <trkpt lat="49.06454" lon="-0.44491">
        <ele>30.8</ele>
        <time>2023-05-23T13:56:14Z</time>
      </trkpt>
      <trkpt lat="49.06453" lon="-0.44482">
        <ele>31.2</ele>
        <time>2023-05-23T13:56:15Z</time>
      </trkpt>
      <trkpt lat="49.06453" lon="-0.44473">
        <ele>31.8</ele>
        <time>2023-05-23T13:56:16Z</time>
      </trkpt>
      <trkpt lat="49.06452" lon="-0.44464">
        <ele>32.4</ele>
        <time>2023-05-23T13:56:17Z</time>
      </trkpt>
      <trkpt lat="49.06452" lon="-0.44455">
        <ele>33</ele>
        <time>2023-05-23T13:56:18Z</time>
      </trkpt>
      <trkpt lat="49.06452" lon="-0.44446">
        <ele>33.6</ele>
        <time>2023-05-23T13:56:19Z</time>
      </trkpt>
      <trkpt lat="49.06452" lon="-0.44437">
        <ele>34.2</ele>
        <time>2023-05-23T13:56:20Z</time>
      </trkpt>
      <trkpt lat="49.06452" lon="-0.44428">
        <ele>34.8</ele>
        <time>2023-05-23T13:56:21Z</time>
      </trkpt>
      <trkpt lat="49.06452" lon="-0.44419">
        <ele>35.6</ele>
        <time>2023-05-23T13:56:22Z</time>
      </trkpt>
      <trkpt lat="49.06452" lon="-0.4441">
        <ele>35.6</ele>
        <time>2023-05-23T13:56:23Z</time>
      </trkpt>
      <trkpt lat="49.06452" lon="-0.44401">
        <ele>35.6</ele>
        <time>2023-05-23T13:56:24Z</time>
      </trkpt>
      <trkpt lat="49.06452" lon="-0.44392">
        <ele>35.6</ele>
        <time>2023-05-23T13:56:25Z</time>
      </trkpt>
      <trkpt lat="49.06452" lon="-0.44383">
        <ele>35.4</ele>
        <time>2023-05-23T13:56:26Z</time>
      </trkpt>
      <trkpt lat="49.06453" lon="-0.44373">
        <ele>35.4</ele>
        <time>2023-05-23T13:56:27Z</time>
      </trkpt>
      <trkpt lat="49.06453" lon="-0.44364">
        <ele>35.4</ele>
        <time>2023-05-23T13:56:28Z</time>
      </trkpt>
      <trkpt lat="49.06454" lon="-0.44355">
        <ele>35.4</ele>
        <time>2023-05-23T13:56:29Z</time>
      </trkpt>
      <trkpt lat="49.06455" lon="-0.44346">
        <ele>35.2</ele>
        <time>2023-05-23T13:56:30Z</time>
      </trkpt>
      <trkpt lat="49.06456" lon="-0.44337">
        <ele>35.2</ele>
        <time>2023-05-23T13:56:31Z</time>
      </trkpt>
      <trkpt lat="49.06457" lon="-0.44328">
        <ele>35</ele>
        <time>2023-05-23T13:56:32Z</time>
      </trkpt>
      <trkpt lat="49.06458" lon="-0.44318">
        <ele>34.6</ele>
        <time>2023-05-23T13:56:33Z</time>
      </trkpt>
      <trkpt lat="49.06459" lon="-0.44309">
        <ele>34</ele>
        <time>2023-05-23T13:56:34Z</time>
      </trkpt>
      <trkpt lat="49.0646" lon="-0.443">
        <ele>33.6</ele>
        <time>2023-05-23T13:56:35Z</time>
      </trkpt>
      <trkpt lat="49.06461" lon="-0.44291">
        <ele>33.2</ele>
        <time>2023-05-23T13:56:36Z</time>
      </trkpt>
      <trkpt lat="49.06463" lon="-0.44281">
        <ele>32.8</ele>
        <time>2023-05-23T13:56:37Z</time>
      </trkpt>
      <trkpt lat="49.06464" lon="-0.44272">
        <ele>32.2</ele>
        <time>2023-05-23T13:56:38Z</time>
      </trkpt>
      <trkpt lat="49.06466" lon="-0.44263">
        <ele>31.8</ele>
        <time>2023-05-23T13:56:39Z</time>
      </trkpt>
      <trkpt lat="49.06467" lon="-0.44254">
        <ele>31.6</ele>
        <time>2023-05-23T13:56:40Z</time>
      </trkpt>
      <trkpt lat="49.06469" lon="-0.44244">
        <ele>31</ele>
        <time>2023-05-23T13:56:41Z</time>
      </trkpt>
      <trkpt lat="49.06471" lon="-0.44235">
        <ele>30.6</ele>
        <time>2023-05-23T13:56:42Z</time>
      </trkpt>
      <trkpt lat="49.06473" lon="-0.44226">
        <ele>30.2</ele>
        <time>2023-05-23T13:56:43Z</time>
      </trkpt>
      <trkpt lat="49.06475" lon="-0.44217">
        <ele>29.6</ele>
        <time>2023-05-23T13:56:44Z</time>
      </trkpt>
      <trkpt lat="49.06477" lon="-0.44208">
        <ele>29.2</ele>
        <time>2023-05-23T13:56:45Z</time>
      </trkpt>
      <trkpt lat="49.06479" lon="-0.442">
        <ele>28.8</ele>
        <time>2023-05-23T13:56:46Z</time>
      </trkpt>
      <trkpt lat="49.06481" lon="-0.44191">
        <ele>28.2</ele>
        <time>2023-05-23T13:56:47Z</time>
      </trkpt>
      <trkpt lat="49.06484" lon="-0.44182">
        <ele>27.8</ele>
        <time>2023-05-23T13:56:48Z</time>
      </trkpt>
      <trkpt lat="49.06486" lon="-0.44173">
        <ele>27.4</ele>
        <time>2023-05-23T13:56:49Z</time>
      </trkpt>
      <trkpt lat="49.06488" lon="-0.44164">
        <ele>27</ele>
        <time>2023-05-23T13:56:50Z</time>
      </trkpt>
      <trkpt lat="49.06491" lon="-0.44156">
        <ele>26.6</ele>
        <time>2023-05-23T13:56:51Z</time>
      </trkpt>
      <trkpt lat="49.06494" lon="-0.44148">
        <ele>26</ele>
        <time>2023-05-23T13:56:52Z</time>
      </trkpt>
      <trkpt lat="49.06497" lon="-0.44139">
        <ele>25.6</ele>
        <time>2023-05-23T13:56:53Z</time>
      </trkpt>
      <trkpt lat="49.065" lon="-0.44131">
        <ele>25</ele>
        <time>2023-05-23T13:56:54Z</time>
      </trkpt>
      <trkpt lat="49.06503" lon="-0.44124">
        <ele>24.6</ele>
        <time>2023-05-23T13:56:55Z</time>
      </trkpt>
      <trkpt lat="49.06506" lon="-0.44116">
        <ele>24</ele>
        <time>2023-05-23T13:56:56Z</time>
      </trkpt>
      <trkpt lat="49.06509" lon="-0.44109">
        <ele>23.4</ele>
        <time>2023-05-23T13:56:57Z</time>
      </trkpt>
      <trkpt lat="49.06511" lon="-0.44102">
        <ele>22.8</ele>
        <time>2023-05-23T13:56:58Z</time>
      </trkpt>
      <trkpt lat="49.06513" lon="-0.44095">
        <ele>22.2</ele>
        <time>2023-05-23T13:56:59Z</time>
      </trkpt>
      <trkpt lat="49.06517" lon="-0.44087">
        <ele>21.6</ele>
        <time>2023-05-23T13:57:00Z</time>
      </trkpt>
      <trkpt lat="49.0652" lon="-0.44079">
        <ele>20.8</ele>
        <time>2023-05-23T13:57:01Z</time>
      </trkpt>
      <trkpt lat="49.06524" lon="-0.4407">
        <ele>20.2</ele>
        <time>2023-05-23T13:57:02Z</time>
      </trkpt>
      <trkpt lat="49.06529" lon="-0.44061">
        <ele>19.6</ele>
        <time>2023-05-23T13:57:03Z</time>
      </trkpt>
      <trkpt lat="49.06533" lon="-0.44053">
        <ele>18.8</ele>
        <time>2023-05-23T13:57:04Z</time>
      </trkpt>
      <trkpt lat="49.06538" lon="-0.44044">
        <ele>18.2</ele>
        <time>2023-05-23T13:57:05Z</time>
      </trkpt>
      <trkpt lat="49.06542" lon="-0.44035">
        <ele>17.4</ele>
        <time>2023-05-23T13:57:06Z</time>
      </trkpt>
      <trkpt lat="49.06547" lon="-0.44026">
        <ele>16.8</ele>
        <time>2023-05-23T13:57:07Z</time>
      </trkpt>
      <trkpt lat="49.06551" lon="-0.44018">
        <ele>16</ele>
        <time>2023-05-23T13:57:08Z</time>
      </trkpt>
      <trkpt lat="49.06555" lon="-0.4401">
        <ele>15.2</ele>
        <time>2023-05-23T13:57:09Z</time>
      </trkpt>
      <trkpt lat="49.06559" lon="-0.44001">
        <ele>14.4</ele>
        <time>2023-05-23T13:57:10Z</time>
      </trkpt>
      <trkpt lat="49.06564" lon="-0.43993">
        <ele>14.8</ele>
        <time>2023-05-23T13:57:11Z</time>
      </trkpt>
      <trkpt lat="49.06568" lon="-0.43985">
        <ele>15.4</ele>
        <time>2023-05-23T13:57:12Z</time>
      </trkpt>
      <trkpt lat="49.06572" lon="-0.43977">
        <ele>16</ele>
        <time>2023-05-23T13:57:13Z</time>
      </trkpt>
      <trkpt lat="49.06577" lon="-0.4397">
        <ele>16.6</ele>
        <time>2023-05-23T13:57:14Z</time>
      </trkpt>
      <trkpt lat="49.06581" lon="-0.43962">
        <ele>17.2</ele>
        <time>2023-05-23T13:57:15Z</time>
      </trkpt>
      <trkpt lat="49.06585" lon="-0.43954">
        <ele>17.8</ele>
        <time>2023-05-23T13:57:16Z</time>
      </trkpt>
      <trkpt lat="49.0659" lon="-0.43947">
        <ele>18.2</ele>
        <time>2023-05-23T13:57:17Z</time>
      </trkpt>
      <trkpt lat="49.06594" lon="-0.4394">
        <ele>18.6</ele>
        <time>2023-05-23T13:57:18Z</time>
      </trkpt>
      <trkpt lat="49.06599" lon="-0.43932">
        <ele>18.8</ele>
        <time>2023-05-23T13:57:19Z</time>
      </trkpt>
      <trkpt lat="49.06603" lon="-0.43925">
        <ele>19.2</ele>
        <time>2023-05-23T13:57:20Z</time>
      </trkpt>
      <trkpt lat="49.06608" lon="-0.43918">
        <ele>19.6</ele>
        <time>2023-05-23T13:57:21Z</time>
      </trkpt>
      <trkpt lat="49.06613" lon="-0.4391">
        <ele>20.2</ele>
        <time>2023-05-23T13:57:22Z</time>
      </trkpt>
      <trkpt lat="49.06617" lon="-0.43903">
        <ele>21</ele>
        <time>2023-05-23T13:57:23Z</time>
      </trkpt>
      <trkpt lat="49.06622" lon="-0.43896">
        <ele>21.8</ele>
        <time>2023-05-23T13:57:24Z</time>
      </trkpt>
      <trkpt lat="49.06627" lon="-0.43888">
        <ele>22.4</ele>
        <time>2023-05-23T13:57:25Z</time>
      </trkpt>
      <trkpt lat="49.06631" lon="-0.43882">
        <ele>23</ele>
        <time>2023-05-23T13:57:26Z</time>
      </trkpt>
      <trkpt lat="49.06635" lon="-0.43875">
        <ele>23.6</ele>
        <time>2023-05-23T13:57:27Z</time>
      </trkpt>
      <trkpt lat="49.06639" lon="-0.43869">
        <ele>23.8</ele>
        <time>2023-05-23T13:57:28Z</time>
      </trkpt>
      <trkpt lat="49.06642" lon="-0.43864">
        <ele>24.2</ele>
        <time>2023-05-23T13:57:29Z</time>
      </trkpt>
      <trkpt lat="49.06645" lon="-0.43859">
        <ele>24.8</ele>
        <time>2023-05-23T13:57:30Z</time>
      </trkpt>
      <trkpt lat="49.06647" lon="-0.43854">
        <ele>24.8</ele>
        <time>2023-05-23T13:57:31Z</time>
      </trkpt>
      <trkpt lat="49.0665" lon="-0.4385">
        <ele>25.2</ele>
        <time>2023-05-23T13:57:32Z</time>
      </trkpt>
      <trkpt lat="49.06653" lon="-0.43845">
        <ele>25.6</ele>
        <time>2023-05-23T13:57:33Z</time>
      </trkpt>
      <trkpt lat="49.06656" lon="-0.43839">
        <ele>25.8</ele>
        <time>2023-05-23T13:57:34Z</time>
      </trkpt>
      <trkpt lat="49.0666" lon="-0.43834">
        <ele>25.8</ele>
        <time>2023-05-23T13:57:35Z</time>
      </trkpt>
      <trkpt lat="49.06664" lon="-0.43828">
        <ele>26.2</ele>
        <time>2023-05-23T13:57:36Z</time>
      </trkpt>
      <trkpt lat="49.0667" lon="-0.43821">
        <ele>26.2</ele>
        <time>2023-05-23T13:57:37Z</time>
      </trkpt>
      <trkpt lat="49.06675" lon="-0.43813">
        <ele>26.4</ele>
        <time>2023-05-23T13:57:38Z</time>
      </trkpt>
      <trkpt lat="49.0668" lon="-0.43805">
        <ele>26.6</ele>
        <time>2023-05-23T13:57:39Z</time>
      </trkpt>
      <trkpt lat="49.06685" lon="-0.43797">
        <ele>26.6</ele>
        <time>2023-05-23T13:57:40Z</time>
      </trkpt>
      <trkpt lat="49.0669" lon="-0.43788">
        <ele>26.6</ele>
        <time>2023-05-23T13:57:41Z</time>
      </trkpt>
      <trkpt lat="49.06695" lon="-0.43779">
        <ele>26.6</ele>
        <time>2023-05-23T13:57:42Z</time>
      </trkpt>
      <trkpt lat="49.06701" lon="-0.4377">
        <ele>26.2</ele>
        <time>2023-05-23T13:57:43Z</time>
      </trkpt>
      <trkpt lat="49.06706" lon="-0.43761">
        <ele>26.2</ele>
        <time>2023-05-23T13:57:44Z</time>
      </trkpt>
      <trkpt lat="49.06711" lon="-0.43752">
        <ele>25.6</ele>
        <time>2023-05-23T13:57:45Z</time>
      </trkpt>
      <trkpt lat="49.06717" lon="-0.43743">
        <ele>25.4</ele>
        <time>2023-05-23T13:57:46Z</time>
      </trkpt>
      <trkpt lat="49.06722" lon="-0.43734">
        <ele>25.2</ele>
        <time>2023-05-23T13:57:47Z</time>
      </trkpt>
      <trkpt lat="49.06727" lon="-0.43725">
        <ele>25.2</ele>
        <time>2023-05-23T13:57:48Z</time>
      </trkpt>
      <trkpt lat="49.06733" lon="-0.43716">
        <ele>25.2</ele>
        <time>2023-05-23T13:57:49Z</time>
      </trkpt>
      <trkpt lat="49.06738" lon="-0.43706">
        <ele>25.2</ele>
        <time>2023-05-23T13:57:50Z</time>
      </trkpt>
      <trkpt lat="49.06744" lon="-0.43697">
        <ele>25.2</ele>
        <time>2023-05-23T13:57:51Z</time>
      </trkpt>
      <trkpt lat="49.06749" lon="-0.43688">
        <ele>25.2</ele>
        <time>2023-05-23T13:57:52Z</time>
      </trkpt>
      <trkpt lat="49.06754" lon="-0.43679">
        <ele>25.6</ele>
        <time>2023-05-23T13:57:53Z</time>
      </trkpt>
      <trkpt lat="49.0676" lon="-0.43669">
        <ele>25.8</ele>
        <time>2023-05-23T13:57:54Z</time>
      </trkpt>
      <trkpt lat="49.06765" lon="-0.4366">
        <ele>26.2</ele>
        <time>2023-05-23T13:57:55Z</time>
      </trkpt>
      <trkpt lat="49.06771" lon="-0.43651">
        <ele>26.8</ele>
        <time>2023-05-23T13:57:56Z</time>
      </trkpt>
      <trkpt lat="49.06776" lon="-0.43642">
        <ele>27.2</ele>
        <time>2023-05-23T13:57:57Z</time>
      </trkpt>
      <trkpt lat="49.06781" lon="-0.43632">
        <ele>27.6</ele>
        <time>2023-05-23T13:57:58Z</time>
      </trkpt>
      <trkpt lat="49.06787" lon="-0.43623">
        <ele>27.8</ele>
        <time>2023-05-23T13:57:59Z</time>
      </trkpt>
      <trkpt lat="49.06792" lon="-0.43614">
        <ele>27.8</ele>
        <time>2023-05-23T13:58:00Z</time>
      </trkpt>
      <trkpt lat="49.06798" lon="-0.43606">
        <ele>27.6</ele>
        <time>2023-05-23T13:58:01Z</time>
      </trkpt>
      <trkpt lat="49.06803" lon="-0.43597">
        <ele>27.4</ele>
        <time>2023-05-23T13:58:02Z</time>
      </trkpt>
      <trkpt lat="49.06809" lon="-0.43589">
        <ele>27</ele>
        <time>2023-05-23T13:58:03Z</time>
      </trkpt>
      <trkpt lat="49.06815" lon="-0.4358">
        <ele>26.8</ele>
        <time>2023-05-23T13:58:04Z</time>
      </trkpt>
      <trkpt lat="49.0682" lon="-0.43572">
        <ele>27</ele>
        <time>2023-05-23T13:58:05Z</time>
      </trkpt>
      <trkpt lat="49.06826" lon="-0.43564">
        <ele>27.2</ele>
        <time>2023-05-23T13:58:06Z</time>
      </trkpt>
      <trkpt lat="49.06832" lon="-0.43557">
        <ele>27.6</ele>
        <time>2023-05-23T13:58:07Z</time>
      </trkpt>
      <trkpt lat="49.06838" lon="-0.43549">
        <ele>27.8</ele>
        <time>2023-05-23T13:58:08Z</time>
      </trkpt>
      <trkpt lat="49.06843" lon="-0.43542">
        <ele>28.2</ele>
        <time>2023-05-23T13:58:09Z</time>
      </trkpt>
      <trkpt lat="49.06849" lon="-0.43535">
        <ele>28.4</ele>
        <time>2023-05-23T13:58:10Z</time>
      </trkpt>
      <trkpt lat="49.06855" lon="-0.43528">
        <ele>28.2</ele>
        <time>2023-05-23T13:58:11Z</time>
      </trkpt>
      <trkpt lat="49.06861" lon="-0.43521">
        <ele>28.2</ele>
        <time>2023-05-23T13:58:12Z</time>
      </trkpt>
      <trkpt lat="49.06867" lon="-0.43515">
        <ele>27.6</ele>
        <time>2023-05-23T13:58:13Z</time>
      </trkpt>
      <trkpt lat="49.06872" lon="-0.43509">
        <ele>26.8</ele>
        <time>2023-05-23T13:58:14Z</time>
      </trkpt>
      <trkpt lat="49.06878" lon="-0.43503">
        <ele>26.2</ele>
        <time>2023-05-23T13:58:15Z</time>
      </trkpt>
      <trkpt lat="49.06884" lon="-0.43497">
        <ele>25.2</ele>
        <time>2023-05-23T13:58:16Z</time>
      </trkpt>
      <trkpt lat="49.0689" lon="-0.43491">
        <ele>24.4</ele>
        <time>2023-05-23T13:58:17Z</time>
      </trkpt>
      <trkpt lat="49.06896" lon="-0.43485">
        <ele>23.6</ele>
        <time>2023-05-23T13:58:18Z</time>
      </trkpt>
      <trkpt lat="49.06901" lon="-0.43479">
        <ele>22.8</ele>
        <time>2023-05-23T13:58:19Z</time>
      </trkpt>
      <trkpt lat="49.06907" lon="-0.43473">
        <ele>22</ele>
        <time>2023-05-23T13:58:20Z</time>
      </trkpt>
      <trkpt lat="49.06913" lon="-0.43467">
        <ele>21.2</ele>
        <time>2023-05-23T13:58:21Z</time>
      </trkpt>
      <trkpt lat="49.06918" lon="-0.43462">
        <ele>20.8</ele>
        <time>2023-05-23T13:58:22Z</time>
      </trkpt>
      <trkpt lat="49.06924" lon="-0.43456">
        <ele>21.2</ele>
        <time>2023-05-23T13:58:23Z</time>
      </trkpt>
      <trkpt lat="49.0693" lon="-0.4345">
        <ele>21.6</ele>
        <time>2023-05-23T13:58:24Z</time>
      </trkpt>
      <trkpt lat="49.06935" lon="-0.43444">
        <ele>21.6</ele>
        <time>2023-05-23T13:58:25Z</time>
      </trkpt>
      <trkpt lat="49.06941" lon="-0.43438">
        <ele>21.6</ele>
        <time>2023-05-23T13:58:26Z</time>
      </trkpt>
      <trkpt lat="49.06947" lon="-0.43432">
        <ele>21.2</ele>
        <time>2023-05-23T13:58:27Z</time>
      </trkpt>
      <trkpt lat="49.06953" lon="-0.43426">
        <ele>21</ele>
        <time>2023-05-23T13:58:28Z</time>
      </trkpt>
      <trkpt lat="49.06959" lon="-0.43421">
        <ele>20.6</ele>
        <time>2023-05-23T13:58:29Z</time>
      </trkpt>
      <trkpt lat="49.06965" lon="-0.43415">
        <ele>20.2</ele>
        <time>2023-05-23T13:58:30Z</time>
      </trkpt>
      <trkpt lat="49.0697" lon="-0.43409">
        <ele>20.2</ele>
        <time>2023-05-23T13:58:31Z</time>
      </trkpt>
      <trkpt lat="49.06976" lon="-0.43404">
        <ele>20.4</ele>
        <time>2023-05-23T13:58:32Z</time>
      </trkpt>
      <trkpt lat="49.06981" lon="-0.43398">
        <ele>20.6</ele>
        <time>2023-05-23T13:58:33Z</time>
      </trkpt>
      <trkpt lat="49.06987" lon="-0.43392">
        <ele>20.8</ele>
        <time>2023-05-23T13:58:34Z</time>
      </trkpt>
      <trkpt lat="49.06992" lon="-0.43386">
        <ele>21</ele>
        <time>2023-05-23T13:58:35Z</time>
      </trkpt>
      <trkpt lat="49.06998" lon="-0.43381">
        <ele>21.2</ele>
        <time>2023-05-23T13:58:36Z</time>
      </trkpt>
      <trkpt lat="49.07004" lon="-0.43375">
        <ele>21.8</ele>
        <time>2023-05-23T13:58:37Z</time>
      </trkpt>
      <trkpt lat="49.07009" lon="-0.43369">
        <ele>22.2</ele>
        <time>2023-05-23T13:58:38Z</time>
      </trkpt>
      <trkpt lat="49.07015" lon="-0.43363">
        <ele>22.2</ele>
        <time>2023-05-23T13:58:39Z</time>
      </trkpt>
      <trkpt lat="49.0702" lon="-0.43357">
        <ele>22.4</ele>
        <time>2023-05-23T13:58:40Z</time>
      </trkpt>
      <trkpt lat="49.07026" lon="-0.43351">
        <ele>22.2</ele>
        <time>2023-05-23T13:58:41Z</time>
      </trkpt>
      <trkpt lat="49.07032" lon="-0.43345">
        <ele>21.8</ele>
        <time>2023-05-23T13:58:42Z</time>
      </trkpt>
      <trkpt lat="49.07037" lon="-0.43339">
        <ele>21.4</ele>
        <time>2023-05-23T13:58:43Z</time>
      </trkpt>
      <trkpt lat="49.07043" lon="-0.43333">
        <ele>20.8</ele>
        <time>2023-05-23T13:58:44Z</time>
      </trkpt>
      <trkpt lat="49.07049" lon="-0.43327">
        <ele>20.8</ele>
        <time>2023-05-23T13:58:45Z</time>
      </trkpt>
      <trkpt lat="49.07054" lon="-0.43321">
        <ele>20.8</ele>
        <time>2023-05-23T13:58:46Z</time>
      </trkpt>
      <trkpt lat="49.0706" lon="-0.43315">
        <ele>20.6</ele>
        <time>2023-05-23T13:58:47Z</time>
      </trkpt>
      <trkpt lat="49.07066" lon="-0.43309">
        <ele>20.4</ele>
        <time>2023-05-23T13:58:48Z</time>
      </trkpt>
      <trkpt lat="49.07071" lon="-0.43303">
        <ele>20.2</ele>
        <time>2023-05-23T13:58:49Z</time>
      </trkpt>
      <trkpt lat="49.07077" lon="-0.43297">
        <ele>20.2</ele>
        <time>2023-05-23T13:58:50Z</time>
      </trkpt>
      <trkpt lat="49.07082" lon="-0.43291">
        <ele>19.8</ele>
        <time>2023-05-23T13:58:51Z</time>
      </trkpt>
      <trkpt lat="49.07088" lon="-0.43285">
        <ele>20.2</ele>
        <time>2023-05-23T13:58:52Z</time>
      </trkpt>
      <trkpt lat="49.07093" lon="-0.43278">
        <ele>20.8</ele>
        <time>2023-05-23T13:58:53Z</time>
      </trkpt>
      <trkpt lat="49.07099" lon="-0.43272">
        <ele>20.8</ele>
        <time>2023-05-23T13:58:54Z</time>
      </trkpt>
      <trkpt lat="49.07105" lon="-0.43267">
        <ele>21</ele>
        <time>2023-05-23T13:58:55Z</time>
      </trkpt>
      <trkpt lat="49.0711" lon="-0.4326">
        <ele>21</ele>
        <time>2023-05-23T13:58:56Z</time>
      </trkpt>
      <trkpt lat="49.07115" lon="-0.43254">
        <ele>20.8</ele>
        <time>2023-05-23T13:58:57Z</time>
      </trkpt>
      <trkpt lat="49.07121" lon="-0.43248">
        <ele>20.6</ele>
        <time>2023-05-23T13:58:58Z</time>
      </trkpt>
      <trkpt lat="49.07126" lon="-0.43242">
        <ele>20.6</ele>
        <time>2023-05-23T13:58:59Z</time>
      </trkpt>
      <trkpt lat="49.07132" lon="-0.43236">
        <ele>20.8</ele>
        <time>2023-05-23T13:59:00Z</time>
      </trkpt>
      <trkpt lat="49.07138" lon="-0.43231">
        <ele>20.8</ele>
        <time>2023-05-23T13:59:01Z</time>
      </trkpt>
      <trkpt lat="49.07143" lon="-0.43225">
        <ele>20.8</ele>
        <time>2023-05-23T13:59:02Z</time>
      </trkpt>
      <trkpt lat="49.07148" lon="-0.43219">
        <ele>20.6</ele>
        <time>2023-05-23T13:59:03Z</time>
      </trkpt>
      <trkpt lat="49.07154" lon="-0.43213">
        <ele>20.4</ele>
        <time>2023-05-23T13:59:04Z</time>
      </trkpt>
      <trkpt lat="49.0716" lon="-0.43207">
        <ele>20.2</ele>
        <time>2023-05-23T13:59:05Z</time>
      </trkpt>
      <trkpt lat="49.07165" lon="-0.43201">
        <ele>20</ele>
        <time>2023-05-23T13:59:06Z</time>
      </trkpt>
      <trkpt lat="49.07171" lon="-0.43195">
        <ele>20.2</ele>
        <time>2023-05-23T13:59:07Z</time>
      </trkpt>
      <trkpt lat="49.07177" lon="-0.43189">
        <ele>20.4</ele>
        <time>2023-05-23T13:59:08Z</time>
      </trkpt>
      <trkpt lat="49.07182" lon="-0.43183">
        <ele>20.6</ele>
        <time>2023-05-23T13:59:09Z</time>
      </trkpt>
      <trkpt lat="49.07188" lon="-0.43178">
        <ele>20.6</ele>
        <time>2023-05-23T13:59:10Z</time>
      </trkpt>
      <trkpt lat="49.07193" lon="-0.43172">
        <ele>20.6</ele>
        <time>2023-05-23T13:59:11Z</time>
      </trkpt>
      <trkpt lat="49.07199" lon="-0.43167">
        <ele>20.4</ele>
        <time>2023-05-23T13:59:12Z</time>
      </trkpt>
      <trkpt lat="49.07204" lon="-0.43161">
        <ele>20.4</ele>
        <time>2023-05-23T13:59:13Z</time>
      </trkpt>
      <trkpt lat="49.0721" lon="-0.43156">
        <ele>20.4</ele>
        <time>2023-05-23T13:59:14Z</time>
      </trkpt>
      <trkpt lat="49.07215" lon="-0.4315">
        <ele>20.2</ele>
        <time>2023-05-23T13:59:15Z</time>
      </trkpt>
      <trkpt lat="49.07221" lon="-0.43145">
        <ele>20.2</ele>
        <time>2023-05-23T13:59:16Z</time>
      </trkpt>
      <trkpt lat="49.07226" lon="-0.43139">
        <ele>19.8</ele>
        <time>2023-05-23T13:59:17Z</time>
      </trkpt>
      <trkpt lat="49.07232" lon="-0.43134">
        <ele>19.6</ele>
        <time>2023-05-23T13:59:18Z</time>
      </trkpt>
      <trkpt lat="49.07237" lon="-0.43128">
        <ele>19.2</ele>
        <time>2023-05-23T13:59:19Z</time>
      </trkpt>
      <trkpt lat="49.07243" lon="-0.43122">
        <ele>18.6</ele>
        <time>2023-05-23T13:59:20Z</time>
      </trkpt>
      <trkpt lat="49.07249" lon="-0.43117">
        <ele>18</ele>
        <time>2023-05-23T13:59:21Z</time>
      </trkpt>
      <trkpt lat="49.07255" lon="-0.43111">
        <ele>18</ele>
        <time>2023-05-23T13:59:22Z</time>
      </trkpt>
      <trkpt lat="49.07261" lon="-0.43106">
        <ele>18.2</ele>
        <time>2023-05-23T13:59:23Z</time>
      </trkpt>
      <trkpt lat="49.07267" lon="-0.431">
        <ele>18.2</ele>
        <time>2023-05-23T13:59:24Z</time>
      </trkpt>
      <trkpt lat="49.07273" lon="-0.43095">
        <ele>18.4</ele>
        <time>2023-05-23T13:59:25Z</time>
      </trkpt>
      <trkpt lat="49.07279" lon="-0.4309">
        <ele>18.4</ele>
        <time>2023-05-23T13:59:26Z</time>
      </trkpt>
      <trkpt lat="49.07285" lon="-0.43084">
        <ele>18.4</ele>
        <time>2023-05-23T13:59:27Z</time>
      </trkpt>
      <trkpt lat="49.07291" lon="-0.43079">
        <ele>18.8</ele>
        <time>2023-05-23T13:59:28Z</time>
      </trkpt>
      <trkpt lat="49.07297" lon="-0.43074">
        <ele>19.2</ele>
        <time>2023-05-23T13:59:29Z</time>
      </trkpt>
      <trkpt lat="49.07304" lon="-0.43069">
        <ele>19.8</ele>
        <time>2023-05-23T13:59:30Z</time>
      </trkpt>
      <trkpt lat="49.0731" lon="-0.43064">
        <ele>20.2</ele>
        <time>2023-05-23T13:59:31Z</time>
      </trkpt>
      <trkpt lat="49.07316" lon="-0.43059">
        <ele>20.8</ele>
        <time>2023-05-23T13:59:32Z</time>
      </trkpt>
      <trkpt lat="49.07322" lon="-0.43055">
        <ele>21.2</ele>
        <time>2023-05-23T13:59:33Z</time>
      </trkpt>
      <trkpt lat="49.07329" lon="-0.4305">
        <ele>21.8</ele>
        <time>2023-05-23T13:59:34Z</time>
      </trkpt>
      <trkpt lat="49.07335" lon="-0.43045">
        <ele>22.2</ele>
        <time>2023-05-23T13:59:35Z</time>
      </trkpt>
      <trkpt lat="49.07341" lon="-0.43041">
        <ele>22.2</ele>
        <time>2023-05-23T13:59:36Z</time>
      </trkpt>
      <trkpt lat="49.07348" lon="-0.43036">
        <ele>22.2</ele>
        <time>2023-05-23T13:59:37Z</time>
      </trkpt>
      <trkpt lat="49.07354" lon="-0.43032">
        <ele>22.2</ele>
        <time>2023-05-23T13:59:38Z</time>
      </trkpt>
      <trkpt lat="49.07361" lon="-0.43028">
        <ele>22</ele>
        <time>2023-05-23T13:59:39Z</time>
      </trkpt>
      <trkpt lat="49.07367" lon="-0.43024">
        <ele>21.8</ele>
        <time>2023-05-23T13:59:40Z</time>
      </trkpt>
      <trkpt lat="49.07374" lon="-0.43019">
        <ele>21.6</ele>
        <time>2023-05-23T13:59:41Z</time>
      </trkpt>
      <trkpt lat="49.0738" lon="-0.43015">
        <ele>21.2</ele>
        <time>2023-05-23T13:59:42Z</time>
      </trkpt>
      <trkpt lat="49.07386" lon="-0.43011">
        <ele>20.8</ele>
        <time>2023-05-23T13:59:43Z</time>
      </trkpt>
      <trkpt lat="49.07393" lon="-0.43007">
        <ele>20.2</ele>
        <time>2023-05-23T13:59:44Z</time>
      </trkpt>
      <trkpt lat="49.07399" lon="-0.43003">
        <ele>19.6</ele>
        <time>2023-05-23T13:59:45Z</time>
      </trkpt>
      <trkpt lat="49.07406" lon="-0.42999">
        <ele>18.8</ele>
        <time>2023-05-23T13:59:46Z</time>
      </trkpt>
      <trkpt lat="49.07412" lon="-0.42996">
        <ele>18.8</ele>
        <time>2023-05-23T13:59:47Z</time>
      </trkpt>
      <trkpt lat="49.07419" lon="-0.42992">
        <ele>18.8</ele>
        <time>2023-05-23T13:59:48Z</time>
      </trkpt>
      <trkpt lat="49.07425" lon="-0.42988">
        <ele>19</ele>
        <time>2023-05-23T13:59:49Z</time>
      </trkpt>
      <trkpt lat="49.07431" lon="-0.42984">
        <ele>19.2</ele>
        <time>2023-05-23T13:59:50Z</time>
      </trkpt>
      <trkpt lat="49.07438" lon="-0.4298">
        <ele>19.4</ele>
        <time>2023-05-23T13:59:51Z</time>
      </trkpt>
      <trkpt lat="49.07444" lon="-0.42976">
        <ele>19.6</ele>
        <time>2023-05-23T13:59:52Z</time>
      </trkpt>
      <trkpt lat="49.0745" lon="-0.42973">
        <ele>19.8</ele>
        <time>2023-05-23T13:59:53Z</time>
      </trkpt>
      <trkpt lat="49.07456" lon="-0.42969">
        <ele>19.8</ele>
        <time>2023-05-23T13:59:54Z</time>
      </trkpt>
      <trkpt lat="49.07462" lon="-0.42965">
        <ele>19.8</ele>
        <time>2023-05-23T13:59:55Z</time>
      </trkpt>
      <trkpt lat="49.07469" lon="-0.42961">
        <ele>19.8</ele>
        <time>2023-05-23T13:59:56Z</time>
      </trkpt>
      <trkpt lat="49.07475" lon="-0.42957">
        <ele>19.8</ele>
        <time>2023-05-23T13:59:57Z</time>
      </trkpt>
      <trkpt lat="49.07481" lon="-0.42954">
        <ele>19.6</ele>
        <time>2023-05-23T13:59:58Z</time>
      </trkpt>
      <trkpt lat="49.07487" lon="-0.4295">
        <ele>19.4</ele>
        <time>2023-05-23T13:59:59Z</time>
      </trkpt>
      <trkpt lat="49.07494" lon="-0.42946">
        <ele>19.2</ele>
        <time>2023-05-23T14:00:00Z</time>
      </trkpt>
      <trkpt lat="49.075" lon="-0.42943">
        <ele>19</ele>
        <time>2023-05-23T14:00:01Z</time>
      </trkpt>
      <trkpt lat="49.07506" lon="-0.42939">
        <ele>19</ele>
        <time>2023-05-23T14:00:02Z</time>
      </trkpt>
      <trkpt lat="49.07513" lon="-0.42935">
        <ele>19</ele>
        <time>2023-05-23T14:00:03Z</time>
      </trkpt>
      <trkpt lat="49.07519" lon="-0.42932">
        <ele>18.8</ele>
        <time>2023-05-23T14:00:04Z</time>
      </trkpt>
      <trkpt lat="49.07526" lon="-0.42928">
        <ele>18.8</ele>
        <time>2023-05-23T14:00:05Z</time>
      </trkpt>
      <trkpt lat="49.07532" lon="-0.42924">
        <ele>18.4</ele>
        <time>2023-05-23T14:00:06Z</time>
      </trkpt>
      <trkpt lat="49.07538" lon="-0.4292">
        <ele>18.2</ele>
        <time>2023-05-23T14:00:07Z</time>
      </trkpt>
      <trkpt lat="49.07545" lon="-0.42916">
        <ele>17.8</ele>
        <time>2023-05-23T14:00:08Z</time>
      </trkpt>
      <trkpt lat="49.07551" lon="-0.42912">
        <ele>17.6</ele>
        <time>2023-05-23T14:00:09Z</time>
      </trkpt>
      <trkpt lat="49.07558" lon="-0.42908">
        <ele>17.4</ele>
        <time>2023-05-23T14:00:10Z</time>
      </trkpt>
      <trkpt lat="49.07564" lon="-0.42904">
        <ele>17.2</ele>
        <time>2023-05-23T14:00:11Z</time>
      </trkpt>
      <trkpt lat="49.07571" lon="-0.429">
        <ele>17.2</ele>
        <time>2023-05-23T14:00:12Z</time>
      </trkpt>
      <trkpt lat="49.07577" lon="-0.42896">
        <ele>17</ele>
        <time>2023-05-23T14:00:13Z</time>
      </trkpt>
      <trkpt lat="49.07584" lon="-0.42892">
        <ele>16.8</ele>
        <time>2023-05-23T14:00:14Z</time>
      </trkpt>
      <trkpt lat="49.0759" lon="-0.42888">
        <ele>17.2</ele>
        <time>2023-05-23T14:00:15Z</time>
      </trkpt>
      <trkpt lat="49.07596" lon="-0.42884">
        <ele>17.2</ele>
        <time>2023-05-23T14:00:16Z</time>
      </trkpt>
      <trkpt lat="49.07603" lon="-0.4288">
        <ele>17.4</ele>
        <time>2023-05-23T14:00:17Z</time>
      </trkpt>
      <trkpt lat="49.07609" lon="-0.42876">
        <ele>17.6</ele>
        <time>2023-05-23T14:00:18Z</time>
      </trkpt>
      <trkpt lat="49.07616" lon="-0.42872">
        <ele>17.6</ele>
        <time>2023-05-23T14:00:19Z</time>
      </trkpt>
      <trkpt lat="49.07622" lon="-0.42868">
        <ele>17.6</ele>
        <time>2023-05-23T14:00:20Z</time>
      </trkpt>
      <trkpt lat="49.07629" lon="-0.42864">
        <ele>17.4</ele>
        <time>2023-05-23T14:00:21Z</time>
      </trkpt>
      <trkpt lat="49.07635" lon="-0.4286">
        <ele>17.2</ele>
        <time>2023-05-23T14:00:22Z</time>
      </trkpt>
      <trkpt lat="49.07641" lon="-0.42856">
        <ele>17</ele>
        <time>2023-05-23T14:00:23Z</time>
      </trkpt>
      <trkpt lat="49.07648" lon="-0.42852">
        <ele>16.8</ele>
        <time>2023-05-23T14:00:24Z</time>
      </trkpt>
      <trkpt lat="49.07654" lon="-0.42848">
        <ele>16.4</ele>
        <time>2023-05-23T14:00:25Z</time>
      </trkpt>
      <trkpt lat="49.0766" lon="-0.42844">
        <ele>16</ele>
        <time>2023-05-23T14:00:26Z</time>
      </trkpt>
      <trkpt lat="49.07667" lon="-0.4284">
        <ele>15.6</ele>
        <time>2023-05-23T14:00:27Z</time>
      </trkpt>
      <trkpt lat="49.07673" lon="-0.42836">
        <ele>15.4</ele>
        <time>2023-05-23T14:00:28Z</time>
      </trkpt>
      <trkpt lat="49.07679" lon="-0.42832">
        <ele>15.2</ele>
        <time>2023-05-23T14:00:29Z</time>
      </trkpt>
      <trkpt lat="49.07686" lon="-0.42829">
        <ele>15.4</ele>
        <time>2023-05-23T14:00:30Z</time>
      </trkpt>
      <trkpt lat="49.07693" lon="-0.42825">
        <ele>15.6</ele>
        <time>2023-05-23T14:00:31Z</time>
      </trkpt>
      <trkpt lat="49.07699" lon="-0.42821">
        <ele>15.6</ele>
        <time>2023-05-23T14:00:32Z</time>
      </trkpt>
      <trkpt lat="49.07706" lon="-0.42817">
        <ele>15.8</ele>
        <time>2023-05-23T14:00:33Z</time>
      </trkpt>
      <trkpt lat="49.07712" lon="-0.42814">
        <ele>15.8</ele>
        <time>2023-05-23T14:00:34Z</time>
      </trkpt>
      <trkpt lat="49.07719" lon="-0.4281">
        <ele>15.8</ele>
        <time>2023-05-23T14:00:35Z</time>
      </trkpt>
      <trkpt lat="49.07725" lon="-0.42806">
        <ele>16</ele>
        <time>2023-05-23T14:00:36Z</time>
      </trkpt>
      <trkpt lat="49.07731" lon="-0.42803">
        <ele>16</ele>
        <time>2023-05-23T14:00:37Z</time>
      </trkpt>
      <trkpt lat="49.07738" lon="-0.42799">
        <ele>16</ele>
        <time>2023-05-23T14:00:38Z</time>
      </trkpt>
      <trkpt lat="49.07744" lon="-0.42795">
        <ele>16</ele>
        <time>2023-05-23T14:00:39Z</time>
      </trkpt>
      <trkpt lat="49.07751" lon="-0.42792">
        <ele>16</ele>
        <time>2023-05-23T14:00:40Z</time>
      </trkpt>
      <trkpt lat="49.07757" lon="-0.42788">
        <ele>16.2</ele>
        <time>2023-05-23T14:00:41Z</time>
      </trkpt>
      <trkpt lat="49.07764" lon="-0.42784">
        <ele>16.2</ele>
        <time>2023-05-23T14:00:42Z</time>
      </trkpt>
      <trkpt lat="49.0777" lon="-0.4278">
        <ele>16.2</ele>
        <time>2023-05-23T14:00:43Z</time>
      </trkpt>
      <trkpt lat="49.07777" lon="-0.42776">
        <ele>16.2</ele>
        <time>2023-05-23T14:00:44Z</time>
      </trkpt>
      <trkpt lat="49.07784" lon="-0.42772">
        <ele>16.2</ele>
        <time>2023-05-23T14:00:45Z</time>
      </trkpt>
      <trkpt lat="49.0779" lon="-0.42767">
        <ele>16</ele>
        <time>2023-05-23T14:00:46Z</time>
      </trkpt>
      <trkpt lat="49.07797" lon="-0.42763">
        <ele>15.8</ele>
        <time>2023-05-23T14:00:47Z</time>
      </trkpt>
      <trkpt lat="49.07804" lon="-0.42759">
        <ele>15.6</ele>
        <time>2023-05-23T14:00:48Z</time>
      </trkpt>
      <trkpt lat="49.07811" lon="-0.42755">
        <ele>15.2</ele>
        <time>2023-05-23T14:00:49Z</time>
      </trkpt>
      <trkpt lat="49.07818" lon="-0.42751">
        <ele>14.6</ele>
        <time>2023-05-23T14:00:50Z</time>
      </trkpt>
      <trkpt lat="49.07824" lon="-0.42746">
        <ele>14.6</ele>
        <time>2023-05-23T14:00:51Z</time>
      </trkpt>
      <trkpt lat="49.07831" lon="-0.42742">
        <ele>14.6</ele>
        <time>2023-05-23T14:00:52Z</time>
      </trkpt>
      <trkpt lat="49.07838" lon="-0.42738">
        <ele>14.6</ele>
        <time>2023-05-23T14:00:53Z</time>
      </trkpt>
      <trkpt lat="49.07845" lon="-0.42734">
        <ele>15</ele>
        <time>2023-05-23T14:00:54Z</time>
      </trkpt>
      <trkpt lat="49.07852" lon="-0.42729">
        <ele>15.2</ele>
        <time>2023-05-23T14:00:55Z</time>
      </trkpt>
      <trkpt lat="49.07859" lon="-0.42725">
        <ele>15.4</ele>
        <time>2023-05-23T14:00:56Z</time>
      </trkpt>
      <trkpt lat="49.07865" lon="-0.42721">
        <ele>15.6</ele>
        <time>2023-05-23T14:00:57Z</time>
      </trkpt>
      <trkpt lat="49.07872" lon="-0.42717">
        <ele>15.6</ele>
        <time>2023-05-23T14:00:58Z</time>
      </trkpt>
      <trkpt lat="49.07879" lon="-0.42713">
        <ele>15.8</ele>
        <time>2023-05-23T14:00:59Z</time>
      </trkpt>
      <trkpt lat="49.07886" lon="-0.42708">
        <ele>15.8</ele>
        <time>2023-05-23T14:01:00Z</time>
      </trkpt>
      <trkpt lat="49.07892" lon="-0.42704">
        <ele>16</ele>
        <time>2023-05-23T14:01:01Z</time>
      </trkpt>
      <trkpt lat="49.07899" lon="-0.427">
        <ele>16</ele>
        <time>2023-05-23T14:01:02Z</time>
      </trkpt>
      <trkpt lat="49.07906" lon="-0.42696">
        <ele>16</ele>
        <time>2023-05-23T14:01:03Z</time>
      </trkpt>
      <trkpt lat="49.07912" lon="-0.42692">
        <ele>16</ele>
        <time>2023-05-23T14:01:04Z</time>
      </trkpt>
      <trkpt lat="49.07919" lon="-0.42688">
        <ele>16.2</ele>
        <time>2023-05-23T14:01:05Z</time>
      </trkpt>
      <trkpt lat="49.07926" lon="-0.42684">
        <ele>16.2</ele>
        <time>2023-05-23T14:01:06Z</time>
      </trkpt>
      <trkpt lat="49.07933" lon="-0.4268">
        <ele>16.4</ele>
        <time>2023-05-23T14:01:07Z</time>
      </trkpt>
      <trkpt lat="49.07939" lon="-0.42676">
        <ele>16.4</ele>
        <time>2023-05-23T14:01:08Z</time>
      </trkpt>
      <trkpt lat="49.07946" lon="-0.42672">
        <ele>16.4</ele>
        <time>2023-05-23T14:01:09Z</time>
      </trkpt>
      <trkpt lat="49.07953" lon="-0.42668">
        <ele>16.2</ele>
        <time>2023-05-23T14:01:10Z</time>
      </trkpt>
      <trkpt lat="49.07959" lon="-0.42664">
        <ele>16.2</ele>
        <time>2023-05-23T14:01:11Z</time>
      </trkpt>
      <trkpt lat="49.07966" lon="-0.42661">
        <ele>16.4</ele>
        <time>2023-05-23T14:01:12Z</time>
      </trkpt>
      <trkpt lat="49.07972" lon="-0.42657">
        <ele>16.6</ele>
        <time>2023-05-23T14:01:13Z</time>
      </trkpt>
      <trkpt lat="49.07979" lon="-0.42654">
        <ele>16.6</ele>
        <time>2023-05-23T14:01:14Z</time>
      </trkpt>
      <trkpt lat="49.07985" lon="-0.42651">
        <ele>16.6</ele>
        <time>2023-05-23T14:01:15Z</time>
      </trkpt>
      <trkpt lat="49.07992" lon="-0.42647">
        <ele>16.8</ele>
        <time>2023-05-23T14:01:16Z</time>
      </trkpt>
      <trkpt lat="49.07999" lon="-0.42643">
        <ele>16.8</ele>
        <time>2023-05-23T14:01:17Z</time>
      </trkpt>
      <trkpt lat="49.08005" lon="-0.42638">
        <ele>17.2</ele>
        <time>2023-05-23T14:01:18Z</time>
      </trkpt>
      <trkpt lat="49.08012" lon="-0.42634">
        <ele>17.4</ele>
        <time>2023-05-23T14:01:19Z</time>
      </trkpt>
      <trkpt lat="49.08019" lon="-0.4263">
        <ele>17.6</ele>
        <time>2023-05-23T14:01:20Z</time>
      </trkpt>
      <trkpt lat="49.08025" lon="-0.42626">
        <ele>17.8</ele>
        <time>2023-05-23T14:01:21Z</time>
      </trkpt>
      <trkpt lat="49.08032" lon="-0.42622">
        <ele>18</ele>
        <time>2023-05-23T14:01:22Z</time>
      </trkpt>
      <trkpt lat="49.08039" lon="-0.42618">
        <ele>18.2</ele>
        <time>2023-05-23T14:01:23Z</time>
      </trkpt>
      <trkpt lat="49.08046" lon="-0.42614">
        <ele>18.2</ele>
        <time>2023-05-23T14:01:24Z</time>
      </trkpt>
      <trkpt lat="49.08052" lon="-0.42609">
        <ele>18.2</ele>
        <time>2023-05-23T14:01:25Z</time>
      </trkpt>
      <trkpt lat="49.08059" lon="-0.42605">
        <ele>18.4</ele>
        <time>2023-05-23T14:01:26Z</time>
      </trkpt>
      <trkpt lat="49.08066" lon="-0.42601">
        <ele>18.4</ele>
        <time>2023-05-23T14:01:27Z</time>
      </trkpt>
      <trkpt lat="49.08072" lon="-0.42597">
        <ele>18.4</ele>
        <time>2023-05-23T14:01:28Z</time>
      </trkpt>
      <trkpt lat="49.08079" lon="-0.42592">
        <ele>18.4</ele>
        <time>2023-05-23T14:01:29Z</time>
      </trkpt>
      <trkpt lat="49.08085" lon="-0.42588">
        <ele>18.2</ele>
        <time>2023-05-23T14:01:30Z</time>
      </trkpt>
      <trkpt lat="49.08092" lon="-0.42584">
        <ele>18</ele>
        <time>2023-05-23T14:01:31Z</time>
      </trkpt>
      <trkpt lat="49.08098" lon="-0.4258">
        <ele>17.8</ele>
        <time>2023-05-23T14:01:32Z</time>
      </trkpt>
      <trkpt lat="49.08105" lon="-0.42575">
        <ele>17.8</ele>
        <time>2023-05-23T14:01:33Z</time>
      </trkpt>
      <trkpt lat="49.08111" lon="-0.42571">
        <ele>17.8</ele>
        <time>2023-05-23T14:01:34Z</time>
      </trkpt>
      <trkpt lat="49.08118" lon="-0.42567">
        <ele>17.6</ele>
        <time>2023-05-23T14:01:35Z</time>
      </trkpt>
      <trkpt lat="49.08124" lon="-0.42563">
        <ele>17.4</ele>
        <time>2023-05-23T14:01:36Z</time>
      </trkpt>
      <trkpt lat="49.0813" lon="-0.42559">
        <ele>17.2</ele>
        <time>2023-05-23T14:01:37Z</time>
      </trkpt>
      <trkpt lat="49.08137" lon="-0.42555">
        <ele>17.2</ele>
        <time>2023-05-23T14:01:38Z</time>
      </trkpt>
      <trkpt lat="49.08144" lon="-0.42551">
        <ele>17</ele>
        <time>2023-05-23T14:01:39Z</time>
      </trkpt>
      <trkpt lat="49.0815" lon="-0.42547">
        <ele>16.8</ele>
        <time>2023-05-23T14:01:40Z</time>
      </trkpt>
      <trkpt lat="49.08157" lon="-0.42543">
        <ele>16.8</ele>
        <time>2023-05-23T14:01:41Z</time>
      </trkpt>
      <trkpt lat="49.08163" lon="-0.4254">
        <ele>16.6</ele>
        <time>2023-05-23T14:01:42Z</time>
      </trkpt>
      <trkpt lat="49.0817" lon="-0.42536">
        <ele>16.6</ele>
        <time>2023-05-23T14:01:43Z</time>
      </trkpt>
      <trkpt lat="49.08176" lon="-0.42533">
        <ele>16.6</ele>
        <time>2023-05-23T14:01:44Z</time>
      </trkpt>
      <trkpt lat="49.08183" lon="-0.4253">
        <ele>16.6</ele>
        <time>2023-05-23T14:01:45Z</time>
      </trkpt>
      <trkpt lat="49.08189" lon="-0.42527">
        <ele>16.2</ele>
        <time>2023-05-23T14:01:46Z</time>
      </trkpt>
      <trkpt lat="49.08196" lon="-0.42524">
        <ele>16.2</ele>
        <time>2023-05-23T14:01:47Z</time>
      </trkpt>
      <trkpt lat="49.08202" lon="-0.42522">
        <ele>15.8</ele>
        <time>2023-05-23T14:01:48Z</time>
      </trkpt>
      <trkpt lat="49.08208" lon="-0.4252">
        <ele>15.6</ele>
        <time>2023-05-23T14:01:49Z</time>
      </trkpt>
      <trkpt lat="49.08214" lon="-0.42518">
        <ele>15.4</ele>
        <time>2023-05-23T14:01:50Z</time>
      </trkpt>
      <trkpt lat="49.0822" lon="-0.42516">
        <ele>15</ele>
        <time>2023-05-23T14:01:51Z</time>
      </trkpt>
      <trkpt lat="49.08225" lon="-0.42514">
        <ele>14.6</ele>
        <time>2023-05-23T14:01:52Z</time>
      </trkpt>
      <trkpt lat="49.08231" lon="-0.42511">
        <ele>14.4</ele>
        <time>2023-05-23T14:01:53Z</time>
      </trkpt>
      <trkpt lat="49.08236" lon="-0.42507">
        <ele>14</ele>
        <time>2023-05-23T14:01:54Z</time>
      </trkpt>
      <trkpt lat="49.08241" lon="-0.42503">
        <ele>13.8</ele>
        <time>2023-05-23T14:01:55Z</time>
      </trkpt>
      <trkpt lat="49.08246" lon="-0.42498">
        <ele>13.6</ele>
        <time>2023-05-23T14:01:56Z</time>
      </trkpt>
      <trkpt lat="49.08251" lon="-0.42493">
        <ele>13.8</ele>
        <time>2023-05-23T14:01:57Z</time>
      </trkpt>
      <trkpt lat="49.08255" lon="-0.42489">
        <ele>14.2</ele>
        <time>2023-05-23T14:01:58Z</time>
      </trkpt>
      <trkpt lat="49.0826" lon="-0.42486">
        <ele>14.2</ele>
        <time>2023-05-23T14:01:59Z</time>
      </trkpt>
      <trkpt lat="49.08265" lon="-0.42483">
        <ele>14.4</ele>
        <time>2023-05-23T14:02:00Z</time>
      </trkpt>
      <trkpt lat="49.0827" lon="-0.42481">
        <ele>14.2</ele>
        <time>2023-05-23T14:02:01Z</time>
      </trkpt>
      <trkpt lat="49.08276" lon="-0.42478">
        <ele>14.2</ele>
        <time>2023-05-23T14:02:02Z</time>
      </trkpt>
      <trkpt lat="49.08282" lon="-0.42476">
        <ele>14</ele>
        <time>2023-05-23T14:02:03Z</time>
      </trkpt>
      <trkpt lat="49.08288" lon="-0.42474">
        <ele>13.8</ele>
        <time>2023-05-23T14:02:04Z</time>
      </trkpt>
      <trkpt lat="49.08293" lon="-0.42472">
        <ele>13.6</ele>
        <time>2023-05-23T14:02:05Z</time>
      </trkpt>
      <trkpt lat="49.08299" lon="-0.4247">
        <ele>13.4</ele>
        <time>2023-05-23T14:02:06Z</time>
      </trkpt>
      <trkpt lat="49.08305" lon="-0.42467">
        <ele>13.2</ele>
        <time>2023-05-23T14:02:07Z</time>
      </trkpt>
      <trkpt lat="49.08311" lon="-0.42465">
        <ele>12.8</ele>
        <time>2023-05-23T14:02:08Z</time>
      </trkpt>
      <trkpt lat="49.08317" lon="-0.42463">
        <ele>12.6</ele>
        <time>2023-05-23T14:02:09Z</time>
      </trkpt>
      <trkpt lat="49.08323" lon="-0.4246">
        <ele>12.2</ele>
        <time>2023-05-23T14:02:10Z</time>
      </trkpt>
      <trkpt lat="49.08329" lon="-0.42458">
        <ele>11.8</ele>
        <time>2023-05-23T14:02:11Z</time>
      </trkpt>
      <trkpt lat="49.08335" lon="-0.42455">
        <ele>11.6</ele>
        <time>2023-05-23T14:02:12Z</time>
      </trkpt>
      <trkpt lat="49.0834" lon="-0.42453">
        <ele>11.6</ele>
        <time>2023-05-23T14:02:13Z</time>
      </trkpt>
      <trkpt lat="49.08346" lon="-0.4245">
        <ele>11.6</ele>
        <time>2023-05-23T14:02:14Z</time>
      </trkpt>
      <trkpt lat="49.08352" lon="-0.42448">
        <ele>11.6</ele>
        <time>2023-05-23T14:02:15Z</time>
      </trkpt>
      <trkpt lat="49.08357" lon="-0.42445">
        <ele>11.4</ele>
        <time>2023-05-23T14:02:16Z</time>
      </trkpt>
      <trkpt lat="49.08363" lon="-0.42442">
        <ele>11.4</ele>
        <time>2023-05-23T14:02:17Z</time>
      </trkpt>
      <trkpt lat="49.08369" lon="-0.42439">
        <ele>11.4</ele>
        <time>2023-05-23T14:02:18Z</time>
      </trkpt>
      <trkpt lat="49.08374" lon="-0.42437">
        <ele>11.2</ele>
        <time>2023-05-23T14:02:19Z</time>
      </trkpt>
      <trkpt lat="49.08379" lon="-0.42434">
        <ele>11.2</ele>
        <time>2023-05-23T14:02:20Z</time>
      </trkpt>
      <trkpt lat="49.08385" lon="-0.42431">
        <ele>10.8</ele>
        <time>2023-05-23T14:02:21Z</time>
      </trkpt>
      <trkpt lat="49.0839" lon="-0.42429">
        <ele>10.8</ele>
        <time>2023-05-23T14:02:22Z</time>
      </trkpt>
      <trkpt lat="49.08395" lon="-0.42427">
        <ele>10.6</ele>
        <time>2023-05-23T14:02:23Z</time>
      </trkpt>
      <trkpt lat="49.08399" lon="-0.42425">
        <ele>10.6</ele>
        <time>2023-05-23T14:02:24Z</time>
      </trkpt>
      <trkpt lat="49.08404" lon="-0.42424">
        <ele>10.4</ele>
        <time>2023-05-23T14:02:25Z</time>
      </trkpt>
      <trkpt lat="49.0841" lon="-0.42421">
        <ele>10.2</ele>
        <time>2023-05-23T14:02:26Z</time>
      </trkpt>
      <trkpt lat="49.08415" lon="-0.42419">
        <ele>10.2</ele>
        <time>2023-05-23T14:02:27Z</time>
      </trkpt>
      <trkpt lat="49.08421" lon="-0.42417">
        <ele>10.2</ele>
        <time>2023-05-23T14:02:28Z</time>
      </trkpt>
      <trkpt lat="49.08425" lon="-0.42415">
        <ele>10.6</ele>
        <time>2023-05-23T14:02:29Z</time>
      </trkpt>
      <trkpt lat="49.0843" lon="-0.42413">
        <ele>10.8</ele>
        <time>2023-05-23T14:02:30Z</time>
      </trkpt>
      <trkpt lat="49.08434" lon="-0.42411">
        <ele>11.2</ele>
        <time>2023-05-23T14:02:31Z</time>
      </trkpt>
      <trkpt lat="49.08438" lon="-0.42409">
        <ele>11.6</ele>
        <time>2023-05-23T14:02:32Z</time>
      </trkpt>
      <trkpt lat="49.08443" lon="-0.42407">
        <ele>11.8</ele>
        <time>2023-05-23T14:02:33Z</time>
      </trkpt>
      <trkpt lat="49.08447" lon="-0.42405">
        <ele>12.4</ele>
        <time>2023-05-23T14:02:34Z</time>
      </trkpt>
      <trkpt lat="49.08452" lon="-0.42402">
        <ele>12.6</ele>
        <time>2023-05-23T14:02:35Z</time>
      </trkpt>
      <trkpt lat="49.08457" lon="-0.424">
        <ele>13</ele>
        <time>2023-05-23T14:02:36Z</time>
      </trkpt>
      <trkpt lat="49.08462" lon="-0.42399">
        <ele>13.4</ele>
        <time>2023-05-23T14:02:37Z</time>
      </trkpt>
      <trkpt lat="49.08467" lon="-0.42397">
        <ele>13.6</ele>
        <time>2023-05-23T14:02:38Z</time>
      </trkpt>
      <trkpt lat="49.08472" lon="-0.42395">
        <ele>14</ele>
        <time>2023-05-23T14:02:39Z</time>
      </trkpt>
      <trkpt lat="49.08477" lon="-0.42394">
        <ele>14.4</ele>
        <time>2023-05-23T14:02:40Z</time>
      </trkpt>
      <trkpt lat="49.08482" lon="-0.42392">
        <ele>14.6</ele>
        <time>2023-05-23T14:02:41Z</time>
      </trkpt>
      <trkpt lat="49.08487" lon="-0.4239">
        <ele>14.8</ele>
        <time>2023-05-23T14:02:42Z</time>
      </trkpt>
      <trkpt lat="49.08492" lon="-0.42388">
        <ele>15.2</ele>
        <time>2023-05-23T14:02:43Z</time>
      </trkpt>
      <trkpt lat="49.08497" lon="-0.42387">
        <ele>15.6</ele>
        <time>2023-05-23T14:02:44Z</time>
      </trkpt>
      <trkpt lat="49.08502" lon="-0.42386">
        <ele>15.6</ele>
        <time>2023-05-23T14:02:45Z</time>
      </trkpt>
      <trkpt lat="49.08507" lon="-0.42385">
        <ele>15.8</ele>
        <time>2023-05-23T14:02:46Z</time>
      </trkpt>
      <trkpt lat="49.08513" lon="-0.42384">
        <ele>15.8</ele>
        <time>2023-05-23T14:02:47Z</time>
      </trkpt>
      <trkpt lat="49.08517" lon="-0.42382">
        <ele>16</ele>
        <time>2023-05-23T14:02:48Z</time>
      </trkpt>
      <trkpt lat="49.08521" lon="-0.42381">
        <ele>16.2</ele>
        <time>2023-05-23T14:02:49Z</time>
      </trkpt>
      <trkpt lat="49.08525" lon="-0.42379">
        <ele>16.2</ele>
        <time>2023-05-23T14:02:50Z</time>
      </trkpt>
      <trkpt lat="49.08528" lon="-0.42377">
        <ele>16.4</ele>
        <time>2023-05-23T14:02:51Z</time>
      </trkpt>
      <trkpt lat="49.08531" lon="-0.42376">
        <ele>16.6</ele>
        <time>2023-05-23T14:02:52Z</time>
      </trkpt>
      <trkpt lat="49.08533" lon="-0.42375">
        <ele>16.6</ele>
        <time>2023-05-23T14:02:53Z</time>
      </trkpt>
      <trkpt lat="49.08536" lon="-0.42375">
        <ele>16.6</ele>
        <time>2023-05-23T14:02:54Z</time>
      </trkpt>
      <trkpt lat="49.08538" lon="-0.42376">
        <ele>16.6</ele>
        <time>2023-05-23T14:02:55Z</time>
      </trkpt>
      <trkpt lat="49.0854" lon="-0.42375">
        <ele>16.6</ele>
        <time>2023-05-23T14:02:56Z</time>
      </trkpt>
      <trkpt lat="49.08542" lon="-0.42373">
        <ele>16.6</ele>
        <time>2023-05-23T14:02:57Z</time>
      </trkpt>
      <trkpt lat="49.08545" lon="-0.42372">
        <ele>16.8</ele>
        <time>2023-05-23T14:02:58Z</time>
      </trkpt>
      <trkpt lat="49.08547" lon="-0.42372">
        <ele>16.8</ele>
        <time>2023-05-23T14:02:59Z</time>
      </trkpt>
      <trkpt lat="49.0855" lon="-0.42372">
        <ele>16.8</ele>
        <time>2023-05-23T14:03:00Z</time>
      </trkpt>
      <trkpt lat="49.08553" lon="-0.4237">
        <ele>16.8</ele>
        <time>2023-05-23T14:03:01Z</time>
      </trkpt>
      <trkpt lat="49.08555" lon="-0.42368">
        <ele>16.8</ele>
        <time>2023-05-23T14:03:02Z</time>
      </trkpt>
      <trkpt lat="49.08557" lon="-0.42367">
        <ele>17</ele>
        <time>2023-05-23T14:03:03Z</time>
      </trkpt>
      <trkpt lat="49.0856" lon="-0.42366">
        <ele>17.2</ele>
        <time>2023-05-23T14:03:04Z</time>
      </trkpt>
      <trkpt lat="49.08563" lon="-0.42365">
        <ele>17.2</ele>
        <time>2023-05-23T14:03:05Z</time>
      </trkpt>
      <trkpt lat="49.08566" lon="-0.42364">
        <ele>17.2</ele>
        <time>2023-05-23T14:03:06Z</time>
      </trkpt>
      <trkpt lat="49.0857" lon="-0.42363">
        <ele>17.2</ele>
        <time>2023-05-23T14:03:07Z</time>
      </trkpt>
      <trkpt lat="49.08574" lon="-0.42362">
        <ele>17.2</ele>
        <time>2023-05-23T14:03:08Z</time>
      </trkpt>
      <trkpt lat="49.08578" lon="-0.42361">
        <ele>17.2</ele>
        <time>2023-05-23T14:03:09Z</time>
      </trkpt>
      <trkpt lat="49.08582" lon="-0.42359">
        <ele>17.2</ele>
        <time>2023-05-23T14:03:10Z</time>
      </trkpt>
      <trkpt lat="49.08587" lon="-0.42358">
        <ele>17.2</ele>
        <time>2023-05-23T14:03:11Z</time>
      </trkpt>
      <trkpt lat="49.08592" lon="-0.42357">
        <ele>17</ele>
        <time>2023-05-23T14:03:12Z</time>
      </trkpt>
      <trkpt lat="49.08596" lon="-0.42356">
        <ele>16.8</ele>
        <time>2023-05-23T14:03:13Z</time>
      </trkpt>
      <trkpt lat="49.08601" lon="-0.42354">
        <ele>16.8</ele>
        <time>2023-05-23T14:03:14Z</time>
      </trkpt>
      <trkpt lat="49.08606" lon="-0.42353">
        <ele>16.8</ele>
        <time>2023-05-23T14:03:15Z</time>
      </trkpt>
      <trkpt lat="49.08611" lon="-0.42351">
        <ele>16.8</ele>
        <time>2023-05-23T14:03:16Z</time>
      </trkpt>
      <trkpt lat="49.08616" lon="-0.4235">
        <ele>16.6</ele>
        <time>2023-05-23T14:03:17Z</time>
      </trkpt>
      <trkpt lat="49.08621" lon="-0.42348">
        <ele>16.6</ele>
        <time>2023-05-23T14:03:18Z</time>
      </trkpt>
      <trkpt lat="49.08626" lon="-0.42346">
        <ele>16.6</ele>
        <time>2023-05-23T14:03:19Z</time>
      </trkpt>
      <trkpt lat="49.08631" lon="-0.42344">
        <ele>16.6</ele>
        <time>2023-05-23T14:03:20Z</time>
      </trkpt>
      <trkpt lat="49.08636" lon="-0.42342">
        <ele>16.6</ele>
        <time>2023-05-23T14:03:21Z</time>
      </trkpt>
      <trkpt lat="49.08641" lon="-0.4234">
        <ele>16.6</ele>
        <time>2023-05-23T14:03:22Z</time>
      </trkpt>
      <trkpt lat="49.08646" lon="-0.42338">
        <ele>16.4</ele>
        <time>2023-05-23T14:03:23Z</time>
      </trkpt>
      <trkpt lat="49.08651" lon="-0.42336">
        <ele>16.4</ele>
        <time>2023-05-23T14:03:24Z</time>
      </trkpt>
      <trkpt lat="49.08656" lon="-0.42334">
        <ele>16.2</ele>
        <time>2023-05-23T14:03:25Z</time>
      </trkpt>
      <trkpt lat="49.08662" lon="-0.42333">
        <ele>16.2</ele>
        <time>2023-05-23T14:03:26Z</time>
      </trkpt>
      <trkpt lat="49.08667" lon="-0.42331">
        <ele>16.2</ele>
        <time>2023-05-23T14:03:27Z</time>
      </trkpt>
      <trkpt lat="49.08672" lon="-0.42329">
        <ele>16.2</ele>
        <time>2023-05-23T14:03:28Z</time>
      </trkpt>
      <trkpt lat="49.08678" lon="-0.42327">
        <ele>16.2</ele>
        <time>2023-05-23T14:03:29Z</time>
      </trkpt>
      <trkpt lat="49.08683" lon="-0.42325">
        <ele>16.2</ele>
        <time>2023-05-23T14:03:30Z</time>
      </trkpt>
      <trkpt lat="49.08688" lon="-0.42323">
        <ele>16.2</ele>
        <time>2023-05-23T14:03:31Z</time>
      </trkpt>
      <trkpt lat="49.08693" lon="-0.42322">
        <ele>16.2</ele>
        <time>2023-05-23T14:03:32Z</time>
      </trkpt>
      <trkpt lat="49.08699" lon="-0.42321">
        <ele>16.2</ele>
        <time>2023-05-23T14:03:33Z</time>
      </trkpt>
      <trkpt lat="49.08704" lon="-0.4232">
        <ele>15.8</ele>
        <time>2023-05-23T14:03:34Z</time>
      </trkpt>
      <trkpt lat="49.0871" lon="-0.42321">
        <ele>15.6</ele>
        <time>2023-05-23T14:03:35Z</time>
      </trkpt>
      <trkpt lat="49.08715" lon="-0.42321">
        <ele>15.4</ele>
        <time>2023-05-23T14:03:36Z</time>
      </trkpt>
      <trkpt lat="49.0872" lon="-0.42321">
        <ele>15.2</ele>
        <time>2023-05-23T14:03:37Z</time>
      </trkpt>
      <trkpt lat="49.08725" lon="-0.42319">
        <ele>15.2</ele>
        <time>2023-05-23T14:03:38Z</time>
      </trkpt>
      <trkpt lat="49.0873" lon="-0.42317">
        <ele>15.2</ele>
        <time>2023-05-23T14:03:39Z</time>
      </trkpt>
      <trkpt lat="49.08736" lon="-0.42314">
        <ele>15.2</ele>
        <time>2023-05-23T14:03:40Z</time>
      </trkpt>
      <trkpt lat="49.08741" lon="-0.42312">
        <ele>15.2</ele>
        <time>2023-05-23T14:03:41Z</time>
      </trkpt>
      <trkpt lat="49.08746" lon="-0.4231">
        <ele>15.2</ele>
        <time>2023-05-23T14:03:42Z</time>
      </trkpt>
      <trkpt lat="49.08751" lon="-0.42308">
        <ele>15.4</ele>
        <time>2023-05-23T14:03:43Z</time>
      </trkpt>
      <trkpt lat="49.08757" lon="-0.42306">
        <ele>15.4</ele>
        <time>2023-05-23T14:03:44Z</time>
      </trkpt>
      <trkpt lat="49.08762" lon="-0.42303">
        <ele>15.4</ele>
        <time>2023-05-23T14:03:45Z</time>
      </trkpt>
      <trkpt lat="49.08767" lon="-0.42301">
        <ele>15.4</ele>
        <time>2023-05-23T14:03:46Z</time>
      </trkpt>
      <trkpt lat="49.08772" lon="-0.42299">
        <ele>15.4</ele>
        <time>2023-05-23T14:03:47Z</time>
      </trkpt>
      <trkpt lat="49.08777" lon="-0.42296">
        <ele>15.4</ele>
        <time>2023-05-23T14:03:48Z</time>
      </trkpt>
      <trkpt lat="49.08782" lon="-0.42293">
        <ele>15.4</ele>
        <time>2023-05-23T14:03:49Z</time>
      </trkpt>
      <trkpt lat="49.08787" lon="-0.4229">
        <ele>15.4</ele>
        <time>2023-05-23T14:03:50Z</time>
      </trkpt>
      <trkpt lat="49.08793" lon="-0.42288">
        <ele>15.4</ele>
        <time>2023-05-23T14:03:51Z</time>
      </trkpt>
      <trkpt lat="49.08798" lon="-0.42285">
        <ele>15.4</ele>
        <time>2023-05-23T14:03:52Z</time>
      </trkpt>
      <trkpt lat="49.08804" lon="-0.42283">
        <ele>15.2</ele>
        <time>2023-05-23T14:03:53Z</time>
      </trkpt>
      <trkpt lat="49.0881" lon="-0.4228">
        <ele>15.2</ele>
        <time>2023-05-23T14:03:54Z</time>
      </trkpt>
      <trkpt lat="49.08815" lon="-0.42277">
        <ele>15</ele>
        <time>2023-05-23T14:03:55Z</time>
      </trkpt>
      <trkpt lat="49.08821" lon="-0.42274">
        <ele>14.8</ele>
        <time>2023-05-23T14:03:56Z</time>
      </trkpt>
      <trkpt lat="49.08826" lon="-0.42271">
        <ele>14.6</ele>
        <time>2023-05-23T14:03:57Z</time>
      </trkpt>
      <trkpt lat="49.08832" lon="-0.42268">
        <ele>14.6</ele>
        <time>2023-05-23T14:03:58Z</time>
      </trkpt>
      <trkpt lat="49.08837" lon="-0.42265">
        <ele>14.6</ele>
        <time>2023-05-23T14:03:59Z</time>
      </trkpt>
      <trkpt lat="49.08842" lon="-0.42261">
        <ele>14.4</ele>
        <time>2023-05-23T14:04:00Z</time>
      </trkpt>
      <trkpt lat="49.08848" lon="-0.42258">
        <ele>14.4</ele>
        <time>2023-05-23T14:04:01Z</time>
      </trkpt>
      <trkpt lat="49.08853" lon="-0.42254">
        <ele>14.2</ele>
        <time>2023-05-23T14:04:02Z</time>
      </trkpt>
      <trkpt lat="49.08858" lon="-0.42251">
        <ele>13.8</ele>
        <time>2023-05-23T14:04:03Z</time>
      </trkpt>
      <trkpt lat="49.08863" lon="-0.42247">
        <ele>13.8</ele>
        <time>2023-05-23T14:04:04Z</time>
      </trkpt>
      <trkpt lat="49.08868" lon="-0.42244">
        <ele>13.8</ele>
        <time>2023-05-23T14:04:05Z</time>
      </trkpt>
      <trkpt lat="49.08873" lon="-0.4224">
        <ele>13.8</ele>
        <time>2023-05-23T14:04:06Z</time>
      </trkpt>
      <trkpt lat="49.08878" lon="-0.42236">
        <ele>13.6</ele>
        <time>2023-05-23T14:04:07Z</time>
      </trkpt>
      <trkpt lat="49.08883" lon="-0.42233">
        <ele>13.6</ele>
        <time>2023-05-23T14:04:08Z</time>
      </trkpt>
      <trkpt lat="49.08888" lon="-0.42229">
        <ele>13.6</ele>
        <time>2023-05-23T14:04:09Z</time>
      </trkpt>
      <trkpt lat="49.08893" lon="-0.42225">
        <ele>13.6</ele>
        <time>2023-05-23T14:04:10Z</time>
      </trkpt>
      <trkpt lat="49.08898" lon="-0.42221">
        <ele>13.6</ele>
        <time>2023-05-23T14:04:11Z</time>
      </trkpt>
      <trkpt lat="49.08903" lon="-0.42217">
        <ele>13.6</ele>
        <time>2023-05-23T14:04:12Z</time>
      </trkpt>
      <trkpt lat="49.08908" lon="-0.42213">
        <ele>13.6</ele>
        <time>2023-05-23T14:04:13Z</time>
      </trkpt>
      <trkpt lat="49.08914" lon="-0.42209">
        <ele>13.6</ele>
        <time>2023-05-23T14:04:14Z</time>
      </trkpt>
      <trkpt lat="49.08919" lon="-0.42204">
        <ele>13.8</ele>
        <time>2023-05-23T14:04:15Z</time>
      </trkpt>
      <trkpt lat="49.08924" lon="-0.422">
        <ele>14.2</ele>
        <time>2023-05-23T14:04:16Z</time>
      </trkpt>
      <trkpt lat="49.0893" lon="-0.42196">
        <ele>14.4</ele>
        <time>2023-05-23T14:04:17Z</time>
      </trkpt>
      <trkpt lat="49.08935" lon="-0.42191">
        <ele>14.6</ele>
        <time>2023-05-23T14:04:18Z</time>
      </trkpt>
      <trkpt lat="49.0894" lon="-0.42187">
        <ele>14.6</ele>
        <time>2023-05-23T14:04:19Z</time>
      </trkpt>
      <trkpt lat="49.08946" lon="-0.42182">
        <ele>14.8</ele>
        <time>2023-05-23T14:04:20Z</time>
      </trkpt>
      <trkpt lat="49.08951" lon="-0.42178">
        <ele>14.8</ele>
        <time>2023-05-23T14:04:21Z</time>
      </trkpt>
      <trkpt lat="49.08956" lon="-0.42173">
        <ele>14.8</ele>
        <time>2023-05-23T14:04:22Z</time>
      </trkpt>
      <trkpt lat="49.08961" lon="-0.42168">
        <ele>14.6</ele>
        <time>2023-05-23T14:04:23Z</time>
      </trkpt>
      <trkpt lat="49.08966" lon="-0.42163">
        <ele>14.8</ele>
        <time>2023-05-23T14:04:24Z</time>
      </trkpt>
      <trkpt lat="49.08971" lon="-0.42158">
        <ele>14.8</ele>
        <time>2023-05-23T14:04:25Z</time>
      </trkpt>
      <trkpt lat="49.08976" lon="-0.42153">
        <ele>15</ele>
        <time>2023-05-23T14:04:26Z</time>
      </trkpt>
      <trkpt lat="49.08981" lon="-0.42148">
        <ele>15</ele>
        <time>2023-05-23T14:04:27Z</time>
      </trkpt>
      <trkpt lat="49.08986" lon="-0.42143">
        <ele>15.2</ele>
        <time>2023-05-23T14:04:28Z</time>
      </trkpt>
      <trkpt lat="49.08991" lon="-0.42137">
        <ele>15.2</ele>
        <time>2023-05-23T14:04:29Z</time>
      </trkpt>
      <trkpt lat="49.08996" lon="-0.42132">
        <ele>15.2</ele>
        <time>2023-05-23T14:04:30Z</time>
      </trkpt>
      <trkpt lat="49.09" lon="-0.42127">
        <ele>15.4</ele>
        <time>2023-05-23T14:04:31Z</time>
      </trkpt>
      <trkpt lat="49.09005" lon="-0.42121">
        <ele>15.6</ele>
        <time>2023-05-23T14:04:32Z</time>
      </trkpt>
      <trkpt lat="49.0901" lon="-0.42116">
        <ele>15.8</ele>
        <time>2023-05-23T14:04:33Z</time>
      </trkpt>
      <trkpt lat="49.09014" lon="-0.4211">
        <ele>16.2</ele>
        <time>2023-05-23T14:04:34Z</time>
      </trkpt>
      <trkpt lat="49.09019" lon="-0.42104">
        <ele>16.2</ele>
        <time>2023-05-23T14:04:35Z</time>
      </trkpt>
      <trkpt lat="49.09023" lon="-0.42098">
        <ele>16.2</ele>
        <time>2023-05-23T14:04:36Z</time>
      </trkpt>
      <trkpt lat="49.09028" lon="-0.42093">
        <ele>16.2</ele>
        <time>2023-05-23T14:04:37Z</time>
      </trkpt>
      <trkpt lat="49.09032" lon="-0.42087">
        <ele>16.2</ele>
        <time>2023-05-23T14:04:38Z</time>
      </trkpt>
      <trkpt lat="49.09037" lon="-0.42081">
        <ele>16.2</ele>
        <time>2023-05-23T14:04:39Z</time>
      </trkpt>
      <trkpt lat="49.09041" lon="-0.42075">
        <ele>16.2</ele>
        <time>2023-05-23T14:04:40Z</time>
      </trkpt>
      <trkpt lat="49.09046" lon="-0.42069">
        <ele>16.2</ele>
        <time>2023-05-23T14:04:41Z</time>
      </trkpt>
      <trkpt lat="49.0905" lon="-0.42062">
        <ele>16.2</ele>
        <time>2023-05-23T14:04:42Z</time>
      </trkpt>
      <trkpt lat="49.09055" lon="-0.42056">
        <ele>16.2</ele>
        <time>2023-05-23T14:04:43Z</time>
      </trkpt>
      <trkpt lat="49.09059" lon="-0.4205">
        <ele>16.2</ele>
        <time>2023-05-23T14:04:44Z</time>
      </trkpt>
      <trkpt lat="49.09063" lon="-0.42044">
        <ele>16.2</ele>
        <time>2023-05-23T14:04:45Z</time>
      </trkpt>
      <trkpt lat="49.09068" lon="-0.42037">
        <ele>16.2</ele>
        <time>2023-05-23T14:04:46Z</time>
      </trkpt>
      <trkpt lat="49.09072" lon="-0.42031">
        <ele>16.2</ele>
        <time>2023-05-23T14:04:47Z</time>
      </trkpt>
      <trkpt lat="49.09076" lon="-0.42024">
        <ele>16.2</ele>
        <time>2023-05-23T14:04:48Z</time>
      </trkpt>
      <trkpt lat="49.09081" lon="-0.42018">
        <ele>16.2</ele>
        <time>2023-05-23T14:04:49Z</time>
      </trkpt>
      <trkpt lat="49.09085" lon="-0.42011">
        <ele>16.2</ele>
        <time>2023-05-23T14:04:50Z</time>
      </trkpt>
      <trkpt lat="49.09089" lon="-0.42004">
        <ele>16.4</ele>
        <time>2023-05-23T14:04:51Z</time>
      </trkpt>
      <trkpt lat="49.09093" lon="-0.41998">
        <ele>16.4</ele>
        <time>2023-05-23T14:04:52Z</time>
      </trkpt>
      <trkpt lat="49.09098" lon="-0.41991">
        <ele>16.4</ele>
        <time>2023-05-23T14:04:53Z</time>
      </trkpt>
      <trkpt lat="49.09102" lon="-0.41984">
        <ele>16.4</ele>
        <time>2023-05-23T14:04:54Z</time>
      </trkpt>
      <trkpt lat="49.09106" lon="-0.41978">
        <ele>16.4</ele>
        <time>2023-05-23T14:04:55Z</time>
      </trkpt>
      <trkpt lat="49.0911" lon="-0.41971">
        <ele>16.4</ele>
        <time>2023-05-23T14:04:56Z</time>
      </trkpt>
      <trkpt lat="49.09114" lon="-0.41964">
        <ele>16.2</ele>
        <time>2023-05-23T14:04:57Z</time>
      </trkpt>
      <trkpt lat="49.09119" lon="-0.41958">
        <ele>16.2</ele>
        <time>2023-05-23T14:04:58Z</time>
      </trkpt>
      <trkpt lat="49.09123" lon="-0.41951">
        <ele>16</ele>
        <time>2023-05-23T14:04:59Z</time>
      </trkpt>
      <trkpt lat="49.09127" lon="-0.41945">
        <ele>15.8</ele>
        <time>2023-05-23T14:05:00Z</time>
      </trkpt>
      <trkpt lat="49.09131" lon="-0.41938">
        <ele>15.6</ele>
        <time>2023-05-23T14:05:01Z</time>
      </trkpt>
      <trkpt lat="49.09135" lon="-0.41931">
        <ele>15.4</ele>
        <time>2023-05-23T14:05:02Z</time>
      </trkpt>
      <trkpt lat="49.09139" lon="-0.41925">
        <ele>15</ele>
        <time>2023-05-23T14:05:03Z</time>
      </trkpt>
      <trkpt lat="49.09144" lon="-0.41918">
        <ele>14.6</ele>
        <time>2023-05-23T14:05:04Z</time>
      </trkpt>
      <trkpt lat="49.09148" lon="-0.41912">
        <ele>14.8</ele>
        <time>2023-05-23T14:05:05Z</time>
      </trkpt>
      <trkpt lat="49.09152" lon="-0.41905">
        <ele>15</ele>
        <time>2023-05-23T14:05:06Z</time>
      </trkpt>
      <trkpt lat="49.09156" lon="-0.41899">
        <ele>15.2</ele>
        <time>2023-05-23T14:05:07Z</time>
      </trkpt>
      <trkpt lat="49.0916" lon="-0.41892">
        <ele>15.4</ele>
        <time>2023-05-23T14:05:08Z</time>
      </trkpt>
      <trkpt lat="49.09164" lon="-0.41886">
        <ele>15.6</ele>
        <time>2023-05-23T14:05:09Z</time>
      </trkpt>
      <trkpt lat="49.09168" lon="-0.4188">
        <ele>15.8</ele>
        <time>2023-05-23T14:05:10Z</time>
      </trkpt>
      <trkpt lat="49.09173" lon="-0.41873">
        <ele>16.2</ele>
        <time>2023-05-23T14:05:11Z</time>
      </trkpt>
      <trkpt lat="49.09177" lon="-0.41867">
        <ele>16.8</ele>
        <time>2023-05-23T14:05:12Z</time>
      </trkpt>
      <trkpt lat="49.09181" lon="-0.4186">
        <ele>16.8</ele>
        <time>2023-05-23T14:05:13Z</time>
      </trkpt>
      <trkpt lat="49.09185" lon="-0.41854">
        <ele>17.2</ele>
        <time>2023-05-23T14:05:14Z</time>
      </trkpt>
      <trkpt lat="49.09189" lon="-0.41847">
        <ele>17.2</ele>
        <time>2023-05-23T14:05:15Z</time>
      </trkpt>
      <trkpt lat="49.09193" lon="-0.41841">
        <ele>17.2</ele>
        <time>2023-05-23T14:05:16Z</time>
      </trkpt>
      <trkpt lat="49.09197" lon="-0.41834">
        <ele>17.2</ele>
        <time>2023-05-23T14:05:17Z</time>
      </trkpt>
      <trkpt lat="49.09201" lon="-0.41828">
        <ele>17.2</ele>
        <time>2023-05-23T14:05:18Z</time>
      </trkpt>
      <trkpt lat="49.09205" lon="-0.41821">
        <ele>17.2</ele>
        <time>2023-05-23T14:05:19Z</time>
      </trkpt>
      <trkpt lat="49.09209" lon="-0.41815">
        <ele>17.2</ele>
        <time>2023-05-23T14:05:20Z</time>
      </trkpt>
      <trkpt lat="49.09213" lon="-0.41808">
        <ele>17.2</ele>
        <time>2023-05-23T14:05:21Z</time>
      </trkpt>
      <trkpt lat="49.09217" lon="-0.41802">
        <ele>17.2</ele>
        <time>2023-05-23T14:05:22Z</time>
      </trkpt>
      <trkpt lat="49.09221" lon="-0.41795">
        <ele>17</ele>
        <time>2023-05-23T14:05:23Z</time>
      </trkpt>
      <trkpt lat="49.09225" lon="-0.41788">
        <ele>16.8</ele>
        <time>2023-05-23T14:05:24Z</time>
      </trkpt>
      <trkpt lat="49.09229" lon="-0.41782">
        <ele>16.6</ele>
        <time>2023-05-23T14:05:25Z</time>
      </trkpt>
      <trkpt lat="49.09233" lon="-0.41775">
        <ele>16.4</ele>
        <time>2023-05-23T14:05:26Z</time>
      </trkpt>
      <trkpt lat="49.09236" lon="-0.41769">
        <ele>16.2</ele>
        <time>2023-05-23T14:05:27Z</time>
      </trkpt>
      <trkpt lat="49.0924" lon="-0.41762">
        <ele>16</ele>
        <time>2023-05-23T14:05:28Z</time>
      </trkpt>
      <trkpt lat="49.09244" lon="-0.41756">
        <ele>15.6</ele>
        <time>2023-05-23T14:05:29Z</time>
      </trkpt>
      <trkpt lat="49.09248" lon="-0.4175">
        <ele>15.4</ele>
        <time>2023-05-23T14:05:30Z</time>
      </trkpt>
      <trkpt lat="49.09252" lon="-0.41743">
        <ele>15.6</ele>
        <time>2023-05-23T14:05:31Z</time>
      </trkpt>
      <trkpt lat="49.09256" lon="-0.41737">
        <ele>15.6</ele>
        <time>2023-05-23T14:05:32Z</time>
      </trkpt>
      <trkpt lat="49.0926" lon="-0.41731">
        <ele>16</ele>
        <time>2023-05-23T14:05:33Z</time>
      </trkpt>
      <trkpt lat="49.09264" lon="-0.41724">
        <ele>16.2</ele>
        <time>2023-05-23T14:05:34Z</time>
      </trkpt>
      <trkpt lat="49.09268" lon="-0.41718">
        <ele>16.2</ele>
        <time>2023-05-23T14:05:35Z</time>
      </trkpt>
      <trkpt lat="49.09272" lon="-0.41711">
        <ele>16.4</ele>
        <time>2023-05-23T14:05:36Z</time>
      </trkpt>
      <trkpt lat="49.09276" lon="-0.41704">
        <ele>16.4</ele>
        <time>2023-05-23T14:05:37Z</time>
      </trkpt>
      <trkpt lat="49.0928" lon="-0.41697">
        <ele>16.4</ele>
        <time>2023-05-23T14:05:38Z</time>
      </trkpt>
      <trkpt lat="49.09284" lon="-0.4169">
        <ele>16.4</ele>
        <time>2023-05-23T14:05:39Z</time>
      </trkpt>
      <trkpt lat="49.09288" lon="-0.41683">
        <ele>16.2</ele>
        <time>2023-05-23T14:05:40Z</time>
      </trkpt>
      <trkpt lat="49.09292" lon="-0.41676">
        <ele>16.2</ele>
        <time>2023-05-23T14:05:41Z</time>
      </trkpt>
      <trkpt lat="49.09296" lon="-0.41669">
        <ele>15.8</ele>
        <time>2023-05-23T14:05:42Z</time>
      </trkpt>
      <trkpt lat="49.093" lon="-0.41662">
        <ele>15.6</ele>
        <time>2023-05-23T14:05:43Z</time>
      </trkpt>
      <trkpt lat="49.09304" lon="-0.41655">
        <ele>15.8</ele>
        <time>2023-05-23T14:05:44Z</time>
      </trkpt>
      <trkpt lat="49.09308" lon="-0.41648">
        <ele>15.8</ele>
        <time>2023-05-23T14:05:45Z</time>
      </trkpt>
      <trkpt lat="49.09312" lon="-0.4164">
        <ele>15.8</ele>
        <time>2023-05-23T14:05:46Z</time>
      </trkpt>
      <trkpt lat="49.09316" lon="-0.41633">
        <ele>15.8</ele>
        <time>2023-05-23T14:05:47Z</time>
      </trkpt>
      <trkpt lat="49.0932" lon="-0.41626">
        <ele>15.8</ele>
        <time>2023-05-23T14:05:48Z</time>
      </trkpt>
      <trkpt lat="49.09324" lon="-0.41618">
        <ele>15.8</ele>
        <time>2023-05-23T14:05:49Z</time>
      </trkpt>
      <trkpt lat="49.09328" lon="-0.41611">
        <ele>15.8</ele>
        <time>2023-05-23T14:05:50Z</time>
      </trkpt>
      <trkpt lat="49.09332" lon="-0.41603">
        <ele>15.8</ele>
        <time>2023-05-23T14:05:51Z</time>
      </trkpt>
      <trkpt lat="49.09336" lon="-0.41596">
        <ele>15.8</ele>
        <time>2023-05-23T14:05:52Z</time>
      </trkpt>
      <trkpt lat="49.0934" lon="-0.41589">
        <ele>16</ele>
        <time>2023-05-23T14:05:53Z</time>
      </trkpt>
      <trkpt lat="49.09344" lon="-0.41582">
        <ele>16</ele>
        <time>2023-05-23T14:05:54Z</time>
      </trkpt>
      <trkpt lat="49.09348" lon="-0.41575">
        <ele>16.2</ele>
        <time>2023-05-23T14:05:55Z</time>
      </trkpt>
      <trkpt lat="49.09352" lon="-0.41568">
        <ele>16.6</ele>
        <time>2023-05-23T14:05:56Z</time>
      </trkpt>
      <trkpt lat="49.09356" lon="-0.41561">
        <ele>16.8</ele>
        <time>2023-05-23T14:05:57Z</time>
      </trkpt>
      <trkpt lat="49.0936" lon="-0.41555">
        <ele>16.8</ele>
        <time>2023-05-23T14:05:58Z</time>
      </trkpt>
      <trkpt lat="49.09363" lon="-0.41548">
        <ele>17</ele>
        <time>2023-05-23T14:05:59Z</time>
      </trkpt>
      <trkpt lat="49.09367" lon="-0.41541">
        <ele>17.2</ele>
        <time>2023-05-23T14:06:00Z</time>
      </trkpt>
      <trkpt lat="49.09371" lon="-0.41534">
        <ele>17.2</ele>
        <time>2023-05-23T14:06:01Z</time>
      </trkpt>
      <trkpt lat="49.09375" lon="-0.41526">
        <ele>17.2</ele>
        <time>2023-05-23T14:06:02Z</time>
      </trkpt>
      <trkpt lat="49.09378" lon="-0.41519">
        <ele>17.4</ele>
        <time>2023-05-23T14:06:03Z</time>
      </trkpt>
      <trkpt lat="49.09382" lon="-0.41512">
        <ele>17.4</ele>
        <time>2023-05-23T14:06:04Z</time>
      </trkpt>
      <trkpt lat="49.09386" lon="-0.41505">
        <ele>17.2</ele>
        <time>2023-05-23T14:06:05Z</time>
      </trkpt>
      <trkpt lat="49.0939" lon="-0.41498">
        <ele>17.2</ele>
        <time>2023-05-23T14:06:06Z</time>
      </trkpt>
      <trkpt lat="49.09394" lon="-0.41491">
        <ele>17.2</ele>
        <time>2023-05-23T14:06:07Z</time>
      </trkpt>
      <trkpt lat="49.09399" lon="-0.41484">
        <ele>17.2</ele>
        <time>2023-05-23T14:06:08Z</time>
      </trkpt>
      <trkpt lat="49.09403" lon="-0.41477">
        <ele>17.2</ele>
        <time>2023-05-23T14:06:09Z</time>
      </trkpt>
      <trkpt lat="49.09407" lon="-0.41469">
        <ele>17.2</ele>
        <time>2023-05-23T14:06:10Z</time>
      </trkpt>
      <trkpt lat="49.09412" lon="-0.41462">
        <ele>17.4</ele>
        <time>2023-05-23T14:06:11Z</time>
      </trkpt>
      <trkpt lat="49.09416" lon="-0.41454">
        <ele>17.6</ele>
        <time>2023-05-23T14:06:12Z</time>
      </trkpt>
      <trkpt lat="49.0942" lon="-0.41447">
        <ele>17.8</ele>
        <time>2023-05-23T14:06:13Z</time>
      </trkpt>
      <trkpt lat="49.09425" lon="-0.41439">
        <ele>18.2</ele>
        <time>2023-05-23T14:06:14Z</time>
      </trkpt>
      <trkpt lat="49.09429" lon="-0.41432">
        <ele>18.2</ele>
        <time>2023-05-23T14:06:15Z</time>
      </trkpt>
      <trkpt lat="49.09434" lon="-0.41424">
        <ele>18.4</ele>
        <time>2023-05-23T14:06:16Z</time>
      </trkpt>
      <trkpt lat="49.09438" lon="-0.41417">
        <ele>18.4</ele>
        <time>2023-05-23T14:06:17Z</time>
      </trkpt>
      <trkpt lat="49.09443" lon="-0.41409">
        <ele>18.2</ele>
        <time>2023-05-23T14:06:18Z</time>
      </trkpt>
      <trkpt lat="49.09447" lon="-0.41402">
        <ele>18.2</ele>
        <time>2023-05-23T14:06:19Z</time>
      </trkpt>
      <trkpt lat="49.09451" lon="-0.41394">
        <ele>18</ele>
        <time>2023-05-23T14:06:20Z</time>
      </trkpt>
      <trkpt lat="49.09456" lon="-0.41387">
        <ele>17.8</ele>
        <time>2023-05-23T14:06:21Z</time>
      </trkpt>
      <trkpt lat="49.0946" lon="-0.41379">
        <ele>17.6</ele>
        <time>2023-05-23T14:06:22Z</time>
      </trkpt>
      <trkpt lat="49.09464" lon="-0.41372">
        <ele>17.4</ele>
        <time>2023-05-23T14:06:23Z</time>
      </trkpt>
      <trkpt lat="49.09468" lon="-0.41364">
        <ele>17.2</ele>
        <time>2023-05-23T14:06:24Z</time>
      </trkpt>
      <trkpt lat="49.09472" lon="-0.41357">
        <ele>17</ele>
        <time>2023-05-23T14:06:25Z</time>
      </trkpt>
      <trkpt lat="49.09476" lon="-0.4135">
        <ele>16.8</ele>
        <time>2023-05-23T14:06:26Z</time>
      </trkpt>
      <trkpt lat="49.0948" lon="-0.41342">
        <ele>16.6</ele>
        <time>2023-05-23T14:06:27Z</time>
      </trkpt>
      <trkpt lat="49.09484" lon="-0.41335">
        <ele>16.2</ele>
        <time>2023-05-23T14:06:28Z</time>
      </trkpt>
      <trkpt lat="49.09489" lon="-0.41327">
        <ele>16.2</ele>
        <time>2023-05-23T14:06:29Z</time>
      </trkpt>
      <trkpt lat="49.09493" lon="-0.4132">
        <ele>16.2</ele>
        <time>2023-05-23T14:06:30Z</time>
      </trkpt>
      <trkpt lat="49.09497" lon="-0.41312">
        <ele>16.6</ele>
        <time>2023-05-23T14:06:31Z</time>
      </trkpt>
      <trkpt lat="49.09501" lon="-0.41305">
        <ele>16.8</ele>
        <time>2023-05-23T14:06:32Z</time>
      </trkpt>
      <trkpt lat="49.09505" lon="-0.41297">
        <ele>17.2</ele>
        <time>2023-05-23T14:06:33Z</time>
      </trkpt>
      <trkpt lat="49.09509" lon="-0.4129">
        <ele>17.6</ele>
        <time>2023-05-23T14:06:34Z</time>
      </trkpt>
      <trkpt lat="49.09513" lon="-0.41283">
        <ele>18</ele>
        <time>2023-05-23T14:06:35Z</time>
      </trkpt>
      <trkpt lat="49.09517" lon="-0.41276">
        <ele>18.2</ele>
        <time>2023-05-23T14:06:36Z</time>
      </trkpt>
      <trkpt lat="49.09521" lon="-0.41268">
        <ele>18.6</ele>
        <time>2023-05-23T14:06:37Z</time>
      </trkpt>
      <trkpt lat="49.09525" lon="-0.41261">
        <ele>18.8</ele>
        <time>2023-05-23T14:06:38Z</time>
      </trkpt>
      <trkpt lat="49.09529" lon="-0.41254">
        <ele>18.8</ele>
        <time>2023-05-23T14:06:39Z</time>
      </trkpt>
      <trkpt lat="49.09533" lon="-0.41247">
        <ele>18.8</ele>
        <time>2023-05-23T14:06:40Z</time>
      </trkpt>
      <trkpt lat="49.09537" lon="-0.4124">
        <ele>18.8</ele>
        <time>2023-05-23T14:06:41Z</time>
      </trkpt>
      <trkpt lat="49.09541" lon="-0.41233">
        <ele>18.6</ele>
        <time>2023-05-23T14:06:42Z</time>
      </trkpt>
      <trkpt lat="49.09545" lon="-0.41226">
        <ele>18.6</ele>
        <time>2023-05-23T14:06:43Z</time>
      </trkpt>
      <trkpt lat="49.0955" lon="-0.41219">
        <ele>18.4</ele>
        <time>2023-05-23T14:06:44Z</time>
      </trkpt>
      <trkpt lat="49.09554" lon="-0.41211">
        <ele>18.2</ele>
        <time>2023-05-23T14:06:45Z</time>
      </trkpt>
      <trkpt lat="49.09558" lon="-0.41204">
        <ele>18.2</ele>
        <time>2023-05-23T14:06:46Z</time>
      </trkpt>
      <trkpt lat="49.09562" lon="-0.41197">
        <ele>18</ele>
        <time>2023-05-23T14:06:47Z</time>
      </trkpt>
      <trkpt lat="49.09566" lon="-0.4119">
        <ele>17.8</ele>
        <time>2023-05-23T14:06:48Z</time>
      </trkpt>
      <trkpt lat="49.0957" lon="-0.41183">
        <ele>17.8</ele>
        <time>2023-05-23T14:06:49Z</time>
      </trkpt>
      <trkpt lat="49.09574" lon="-0.41175">
        <ele>17.6</ele>
        <time>2023-05-23T14:06:50Z</time>
      </trkpt>
      <trkpt lat="49.09577" lon="-0.41168">
        <ele>17.6</ele>
        <time>2023-05-23T14:06:51Z</time>
      </trkpt>
      <trkpt lat="49.09581" lon="-0.41161">
        <ele>17.4</ele>
        <time>2023-05-23T14:06:52Z</time>
      </trkpt>
      <trkpt lat="49.09585" lon="-0.41153">
        <ele>17.4</ele>
        <time>2023-05-23T14:06:53Z</time>
      </trkpt>
      <trkpt lat="49.09589" lon="-0.41146">
        <ele>17.4</ele>
        <time>2023-05-23T14:06:54Z</time>
      </trkpt>
      <trkpt lat="49.09592" lon="-0.41139">
        <ele>17.2</ele>
        <time>2023-05-23T14:06:55Z</time>
      </trkpt>
      <trkpt lat="49.09596" lon="-0.41131">
        <ele>17.2</ele>
        <time>2023-05-23T14:06:56Z</time>
      </trkpt>
      <trkpt lat="49.09599" lon="-0.41124">
        <ele>17.2</ele>
        <time>2023-05-23T14:06:57Z</time>
      </trkpt>
      <trkpt lat="49.09603" lon="-0.41117">
        <ele>17.2</ele>
        <time>2023-05-23T14:06:58Z</time>
      </trkpt>
      <trkpt lat="49.09606" lon="-0.4111">
        <ele>17</ele>
        <time>2023-05-23T14:06:59Z</time>
      </trkpt>
      <trkpt lat="49.09609" lon="-0.41102">
        <ele>16.8</ele>
        <time>2023-05-23T14:07:00Z</time>
      </trkpt>
      <trkpt lat="49.09612" lon="-0.41095">
        <ele>16.6</ele>
        <time>2023-05-23T14:07:01Z</time>
      </trkpt>
      <trkpt lat="49.09616" lon="-0.41088">
        <ele>16.4</ele>
        <time>2023-05-23T14:07:02Z</time>
      </trkpt>
      <trkpt lat="49.09619" lon="-0.4108">
        <ele>16.2</ele>
        <time>2023-05-23T14:07:03Z</time>
      </trkpt>
      <trkpt lat="49.09622" lon="-0.41073">
        <ele>16.2</ele>
        <time>2023-05-23T14:07:04Z</time>
      </trkpt>
      <trkpt lat="49.09625" lon="-0.41065">
        <ele>16.2</ele>
        <time>2023-05-23T14:07:05Z</time>
      </trkpt>
      <trkpt lat="49.09628" lon="-0.41057">
        <ele>16.2</ele>
        <time>2023-05-23T14:07:06Z</time>
      </trkpt>
      <trkpt lat="49.09631" lon="-0.4105">
        <ele>16.2</ele>
        <time>2023-05-23T14:07:07Z</time>
      </trkpt>
      <trkpt lat="49.09634" lon="-0.41042">
        <ele>16</ele>
        <time>2023-05-23T14:07:08Z</time>
      </trkpt>
      <trkpt lat="49.09637" lon="-0.41034">
        <ele>16</ele>
        <time>2023-05-23T14:07:09Z</time>
      </trkpt>
      <trkpt lat="49.0964" lon="-0.41026">
        <ele>16</ele>
        <time>2023-05-23T14:07:10Z</time>
      </trkpt>
      <trkpt lat="49.09643" lon="-0.41018">
        <ele>15.8</ele>
        <time>2023-05-23T14:07:11Z</time>
      </trkpt>
      <trkpt lat="49.09646" lon="-0.4101">
        <ele>15.8</ele>
        <time>2023-05-23T14:07:12Z</time>
      </trkpt>
      <trkpt lat="49.09648" lon="-0.41002">
        <ele>15.8</ele>
        <time>2023-05-23T14:07:13Z</time>
      </trkpt>
      <trkpt lat="49.09651" lon="-0.40995">
        <ele>15.8</ele>
        <time>2023-05-23T14:07:14Z</time>
      </trkpt>
      <trkpt lat="49.09653" lon="-0.40987">
        <ele>15.6</ele>
        <time>2023-05-23T14:07:15Z</time>
      </trkpt>
      <trkpt lat="49.09656" lon="-0.4098">
        <ele>15.4</ele>
        <time>2023-05-23T14:07:16Z</time>
      </trkpt>
      <trkpt lat="49.09658" lon="-0.40972">
        <ele>15.2</ele>
        <time>2023-05-23T14:07:17Z</time>
      </trkpt>
      <trkpt lat="49.09661" lon="-0.40965">
        <ele>15.2</ele>
        <time>2023-05-23T14:07:18Z</time>
      </trkpt>
      <trkpt lat="49.09663" lon="-0.40957">
        <ele>14.8</ele>
        <time>2023-05-23T14:07:19Z</time>
      </trkpt>
      <trkpt lat="49.09665" lon="-0.40949">
        <ele>14.8</ele>
        <time>2023-05-23T14:07:20Z</time>
      </trkpt>
      <trkpt lat="49.09667" lon="-0.40941">
        <ele>14.6</ele>
        <time>2023-05-23T14:07:21Z</time>
      </trkpt>
      <trkpt lat="49.09669" lon="-0.40933">
        <ele>14.6</ele>
        <time>2023-05-23T14:07:22Z</time>
      </trkpt>
      <trkpt lat="49.09671" lon="-0.40925">
        <ele>14.6</ele>
        <time>2023-05-23T14:07:23Z</time>
      </trkpt>
      <trkpt lat="49.09673" lon="-0.40917">
        <ele>14.6</ele>
        <time>2023-05-23T14:07:24Z</time>
      </trkpt>
      <trkpt lat="49.09675" lon="-0.40909">
        <ele>14.6</ele>
        <time>2023-05-23T14:07:25Z</time>
      </trkpt>
      <trkpt lat="49.09677" lon="-0.40901">
        <ele>14.6</ele>
        <time>2023-05-23T14:07:26Z</time>
      </trkpt>
      <trkpt lat="49.09678" lon="-0.40893">
        <ele>14.8</ele>
        <time>2023-05-23T14:07:27Z</time>
      </trkpt>
      <trkpt lat="49.09681" lon="-0.40885">
        <ele>14.8</ele>
        <time>2023-05-23T14:07:28Z</time>
      </trkpt>
      <trkpt lat="49.09683" lon="-0.40878">
        <ele>14.8</ele>
        <time>2023-05-23T14:07:29Z</time>
      </trkpt>
      <trkpt lat="49.09686" lon="-0.4087">
        <ele>14.6</ele>
        <time>2023-05-23T14:07:30Z</time>
      </trkpt>
      <trkpt lat="49.09688" lon="-0.40863">
        <ele>14.6</ele>
        <time>2023-05-23T14:07:31Z</time>
      </trkpt>
      <trkpt lat="49.0969" lon="-0.40855">
        <ele>14.4</ele>
        <time>2023-05-23T14:07:32Z</time>
      </trkpt>
      <trkpt lat="49.09692" lon="-0.40847">
        <ele>14.4</ele>
        <time>2023-05-23T14:07:33Z</time>
      </trkpt>
      <trkpt lat="49.09695" lon="-0.40839">
        <ele>14.2</ele>
        <time>2023-05-23T14:07:34Z</time>
      </trkpt>
      <trkpt lat="49.09697" lon="-0.4083">
        <ele>14.2</ele>
        <time>2023-05-23T14:07:35Z</time>
      </trkpt>
      <trkpt lat="49.09699" lon="-0.4082">
        <ele>14.2</ele>
        <time>2023-05-23T14:07:36Z</time>
      </trkpt>
      <trkpt lat="49.097" lon="-0.40811">
        <ele>14.2</ele>
        <time>2023-05-23T14:07:37Z</time>
      </trkpt>
      <trkpt lat="49.09702" lon="-0.40802">
        <ele>14.2</ele>
        <time>2023-05-23T14:07:38Z</time>
      </trkpt>
      <trkpt lat="49.09704" lon="-0.40792">
        <ele>14.4</ele>
        <time>2023-05-23T14:07:39Z</time>
      </trkpt>
      <trkpt lat="49.09705" lon="-0.40782">
        <ele>14.4</ele>
        <time>2023-05-23T14:07:40Z</time>
      </trkpt>
      <trkpt lat="49.09707" lon="-0.40773">
        <ele>14.4</ele>
        <time>2023-05-23T14:07:41Z</time>
      </trkpt>
      <trkpt lat="49.09709" lon="-0.40763">
        <ele>14.6</ele>
        <time>2023-05-23T14:07:42Z</time>
      </trkpt>
      <trkpt lat="49.09711" lon="-0.40754">
        <ele>14.6</ele>
        <time>2023-05-23T14:07:43Z</time>
      </trkpt>
      <trkpt lat="49.09712" lon="-0.40745">
        <ele>14.6</ele>
        <time>2023-05-23T14:07:44Z</time>
      </trkpt>
      <trkpt lat="49.09714" lon="-0.40735">
        <ele>14.4</ele>
        <time>2023-05-23T14:07:45Z</time>
      </trkpt>
      <trkpt lat="49.09716" lon="-0.40726">
        <ele>14.2</ele>
        <time>2023-05-23T14:07:46Z</time>
      </trkpt>
      <trkpt lat="49.09717" lon="-0.40717">
        <ele>13.8</ele>
        <time>2023-05-23T14:07:47Z</time>
      </trkpt>
      <trkpt lat="49.09719" lon="-0.40707">
        <ele>13.6</ele>
        <time>2023-05-23T14:07:48Z</time>
      </trkpt>
      <trkpt lat="49.0972" lon="-0.40697">
        <ele>13.4</ele>
        <time>2023-05-23T14:07:49Z</time>
      </trkpt>
      <trkpt lat="49.09721" lon="-0.40687">
        <ele>13</ele>
        <time>2023-05-23T14:07:50Z</time>
      </trkpt>
      <trkpt lat="49.09723" lon="-0.40677">
        <ele>12.6</ele>
        <time>2023-05-23T14:07:51Z</time>
      </trkpt>
      <trkpt lat="49.09724" lon="-0.40667">
        <ele>12.6</ele>
        <time>2023-05-23T14:07:52Z</time>
      </trkpt>
      <trkpt lat="49.09725" lon="-0.40657">
        <ele>12.4</ele>
        <time>2023-05-23T14:07:53Z</time>
      </trkpt>
      <trkpt lat="49.09726" lon="-0.40647">
        <ele>12.4</ele>
        <time>2023-05-23T14:07:54Z</time>
      </trkpt>
      <trkpt lat="49.09727" lon="-0.40637">
        <ele>12.4</ele>
        <time>2023-05-23T14:07:55Z</time>
      </trkpt>
      <trkpt lat="49.09728" lon="-0.40627">
        <ele>12.4</ele>
        <time>2023-05-23T14:07:56Z</time>
      </trkpt>
      <trkpt lat="49.09728" lon="-0.40617">
        <ele>12.6</ele>
        <time>2023-05-23T14:07:57Z</time>
      </trkpt>
      <trkpt lat="49.09729" lon="-0.40606">
        <ele>12.6</ele>
        <time>2023-05-23T14:07:58Z</time>
      </trkpt>
      <trkpt lat="49.0973" lon="-0.40594">
        <ele>12.6</ele>
        <time>2023-05-23T14:07:59Z</time>
      </trkpt>
      <trkpt lat="49.09731" lon="-0.40582">
        <ele>12.6</ele>
        <time>2023-05-23T14:08:00Z</time>
      </trkpt>
      <trkpt lat="49.09731" lon="-0.40569">
        <ele>12.6</ele>
        <time>2023-05-23T14:08:01Z</time>
      </trkpt>
      <trkpt lat="49.09732" lon="-0.40555">
        <ele>12.6</ele>
        <time>2023-05-23T14:08:02Z</time>
      </trkpt>
      <trkpt lat="49.09732" lon="-0.40541">
        <ele>12.6</ele>
        <time>2023-05-23T14:08:03Z</time>
      </trkpt>
      <trkpt lat="49.09733" lon="-0.40526">
        <ele>12.6</ele>
        <time>2023-05-23T14:08:04Z</time>
      </trkpt>
      <trkpt lat="49.09733" lon="-0.40511">
        <ele>12.8</ele>
        <time>2023-05-23T14:08:05Z</time>
      </trkpt>
      <trkpt lat="49.09733" lon="-0.40496">
        <ele>12.8</ele>
        <time>2023-05-23T14:08:06Z</time>
      </trkpt>
      <trkpt lat="49.09733" lon="-0.40481">
        <ele>12.8</ele>
        <time>2023-05-23T14:08:07Z</time>
      </trkpt>
      <trkpt lat="49.09733" lon="-0.40466">
        <ele>13</ele>
        <time>2023-05-23T14:08:08Z</time>
      </trkpt>
      <trkpt lat="49.09733" lon="-0.40452">
        <ele>13.2</ele>
        <time>2023-05-23T14:08:09Z</time>
      </trkpt>
      <trkpt lat="49.09733" lon="-0.40438">
        <ele>13.2</ele>
        <time>2023-05-23T14:08:10Z</time>
      </trkpt>
      <trkpt lat="49.09732" lon="-0.40424">
        <ele>13.2</ele>
        <time>2023-05-23T14:08:11Z</time>
      </trkpt>
      <trkpt lat="49.09732" lon="-0.40411">
        <ele>13.4</ele>
        <time>2023-05-23T14:08:12Z</time>
      </trkpt>
      <trkpt lat="49.09732" lon="-0.40398">
        <ele>13.6</ele>
        <time>2023-05-23T14:08:13Z</time>
      </trkpt>
      <trkpt lat="49.09732" lon="-0.40385">
        <ele>13.6</ele>
        <time>2023-05-23T14:08:14Z</time>
      </trkpt>
      <trkpt lat="49.09731" lon="-0.40373">
        <ele>13.8</ele>
        <time>2023-05-23T14:08:15Z</time>
      </trkpt>
      <trkpt lat="49.09731" lon="-0.40361">
        <ele>14</ele>
        <time>2023-05-23T14:08:16Z</time>
      </trkpt>
      <trkpt lat="49.09731" lon="-0.40349">
        <ele>14.2</ele>
        <time>2023-05-23T14:08:17Z</time>
      </trkpt>
      <trkpt lat="49.09731" lon="-0.40337">
        <ele>14.4</ele>
        <time>2023-05-23T14:08:18Z</time>
      </trkpt>
      <trkpt lat="49.09731" lon="-0.40325">
        <ele>14.6</ele>
        <time>2023-05-23T14:08:19Z</time>
      </trkpt>
      <trkpt lat="49.09731" lon="-0.40314">
        <ele>14.8</ele>
        <time>2023-05-23T14:08:20Z</time>
      </trkpt>
      <trkpt lat="49.0973" lon="-0.40303">
        <ele>15.2</ele>
        <time>2023-05-23T14:08:21Z</time>
      </trkpt>
      <trkpt lat="49.0973" lon="-0.40292">
        <ele>15.4</ele>
        <time>2023-05-23T14:08:22Z</time>
      </trkpt>
      <trkpt lat="49.09729" lon="-0.40281">
        <ele>15.6</ele>
        <time>2023-05-23T14:08:23Z</time>
      </trkpt>
      <trkpt lat="49.09729" lon="-0.4027">
        <ele>15.8</ele>
        <time>2023-05-23T14:08:24Z</time>
      </trkpt>
      <trkpt lat="49.09728" lon="-0.40259">
        <ele>16.2</ele>
        <time>2023-05-23T14:08:25Z</time>
      </trkpt>
      <trkpt lat="49.09728" lon="-0.40248">
        <ele>16.4</ele>
        <time>2023-05-23T14:08:26Z</time>
      </trkpt>
      <trkpt lat="49.09727" lon="-0.40238">
        <ele>16.6</ele>
        <time>2023-05-23T14:08:27Z</time>
      </trkpt>
      <trkpt lat="49.09727" lon="-0.40227">
        <ele>16.8</ele>
        <time>2023-05-23T14:08:28Z</time>
      </trkpt>
      <trkpt lat="49.09726" lon="-0.40216">
        <ele>16.8</ele>
        <time>2023-05-23T14:08:29Z</time>
      </trkpt>
      <trkpt lat="49.09725" lon="-0.40206">
        <ele>17.2</ele>
        <time>2023-05-23T14:08:30Z</time>
      </trkpt>
      <trkpt lat="49.09725" lon="-0.40196">
        <ele>17.2</ele>
        <time>2023-05-23T14:08:31Z</time>
      </trkpt>
      <trkpt lat="49.09724" lon="-0.40185">
        <ele>17.4</ele>
        <time>2023-05-23T14:08:32Z</time>
      </trkpt>
      <trkpt lat="49.09724" lon="-0.40175">
        <ele>17.6</ele>
        <time>2023-05-23T14:08:33Z</time>
      </trkpt>
      <trkpt lat="49.09723" lon="-0.40165">
        <ele>17.6</ele>
        <time>2023-05-23T14:08:34Z</time>
      </trkpt>
      <trkpt lat="49.09723" lon="-0.40155">
        <ele>17.6</ele>
        <time>2023-05-23T14:08:35Z</time>
      </trkpt>
      <trkpt lat="49.09722" lon="-0.40145">
        <ele>17.6</ele>
        <time>2023-05-23T14:08:36Z</time>
      </trkpt>
      <trkpt lat="49.09722" lon="-0.40135">
        <ele>17.4</ele>
        <time>2023-05-23T14:08:37Z</time>
      </trkpt>
      <trkpt lat="49.09722" lon="-0.40125">
        <ele>17.4</ele>
        <time>2023-05-23T14:08:38Z</time>
      </trkpt>
      <trkpt lat="49.09721" lon="-0.40115">
        <ele>17.2</ele>
        <time>2023-05-23T14:08:39Z</time>
      </trkpt>
      <trkpt lat="49.09721" lon="-0.40106">
        <ele>17.2</ele>
        <time>2023-05-23T14:08:40Z</time>
      </trkpt>
      <trkpt lat="49.09721" lon="-0.40096">
        <ele>17.2</ele>
        <time>2023-05-23T14:08:41Z</time>
      </trkpt>
      <trkpt lat="49.0972" lon="-0.40086">
        <ele>17.2</ele>
        <time>2023-05-23T14:08:42Z</time>
      </trkpt>
      <trkpt lat="49.0972" lon="-0.40077">
        <ele>16.8</ele>
        <time>2023-05-23T14:08:43Z</time>
      </trkpt>
      <trkpt lat="49.0972" lon="-0.40067">
        <ele>16.6</ele>
        <time>2023-05-23T14:08:44Z</time>
      </trkpt>
      <trkpt lat="49.09719" lon="-0.40057">
        <ele>16.2</ele>
        <time>2023-05-23T14:08:45Z</time>
      </trkpt>
      <trkpt lat="49.09719" lon="-0.40047">
        <ele>16</ele>
        <time>2023-05-23T14:08:46Z</time>
      </trkpt>
      <trkpt lat="49.09719" lon="-0.40037">
        <ele>15.6</ele>
        <time>2023-05-23T14:08:47Z</time>
      </trkpt>
      <trkpt lat="49.09719" lon="-0.40027">
        <ele>15.4</ele>
        <time>2023-05-23T14:08:48Z</time>
      </trkpt>
      <trkpt lat="49.09719" lon="-0.40016">
        <ele>15</ele>
        <time>2023-05-23T14:08:49Z</time>
      </trkpt>
      <trkpt lat="49.09719" lon="-0.40006">
        <ele>14.6</ele>
        <time>2023-05-23T14:08:50Z</time>
      </trkpt>
      <trkpt lat="49.09719" lon="-0.39995">
        <ele>14.6</ele>
        <time>2023-05-23T14:08:51Z</time>
      </trkpt>
      <trkpt lat="49.09719" lon="-0.39985">
        <ele>14.6</ele>
        <time>2023-05-23T14:08:52Z</time>
      </trkpt>
      <trkpt lat="49.09719" lon="-0.39976">
        <ele>14.8</ele>
        <time>2023-05-23T14:08:53Z</time>
      </trkpt>
      <trkpt lat="49.09719" lon="-0.39966">
        <ele>15</ele>
        <time>2023-05-23T14:08:54Z</time>
      </trkpt>
      <trkpt lat="49.09719" lon="-0.39957">
        <ele>15.2</ele>
        <time>2023-05-23T14:08:55Z</time>
      </trkpt>
      <trkpt lat="49.09719" lon="-0.39948">
        <ele>15.2</ele>
        <time>2023-05-23T14:08:56Z</time>
      </trkpt>
      <trkpt lat="49.0972" lon="-0.39938">
        <ele>15.2</ele>
        <time>2023-05-23T14:08:57Z</time>
      </trkpt>
      <trkpt lat="49.09722" lon="-0.39928">
        <ele>15.2</ele>
        <time>2023-05-23T14:08:58Z</time>
      </trkpt>
      <trkpt lat="49.09723" lon="-0.39917">
        <ele>15.4</ele>
        <time>2023-05-23T14:08:59Z</time>
      </trkpt>
      <trkpt lat="49.09725" lon="-0.39906">
        <ele>15.2</ele>
        <time>2023-05-23T14:09:00Z</time>
      </trkpt>
      <trkpt lat="49.09726" lon="-0.39896">
        <ele>15</ele>
        <time>2023-05-23T14:09:01Z</time>
      </trkpt>
      <trkpt lat="49.09727" lon="-0.39886">
        <ele>14.8</ele>
        <time>2023-05-23T14:09:02Z</time>
      </trkpt>
      <trkpt lat="49.09729" lon="-0.39876">
        <ele>14.6</ele>
        <time>2023-05-23T14:09:03Z</time>
      </trkpt>
      <trkpt lat="49.0973" lon="-0.39867">
        <ele>14.6</ele>
        <time>2023-05-23T14:09:04Z</time>
      </trkpt>
      <trkpt lat="49.09732" lon="-0.39857">
        <ele>14.4</ele>
        <time>2023-05-23T14:09:05Z</time>
      </trkpt>
      <trkpt lat="49.09734" lon="-0.39846">
        <ele>14.2</ele>
        <time>2023-05-23T14:09:06Z</time>
      </trkpt>
      <trkpt lat="49.09735" lon="-0.39836">
        <ele>14</ele>
        <time>2023-05-23T14:09:07Z</time>
      </trkpt>
      <trkpt lat="49.09738" lon="-0.39825">
        <ele>13.6</ele>
        <time>2023-05-23T14:09:08Z</time>
      </trkpt>
      <trkpt lat="49.0974" lon="-0.39815">
        <ele>13.4</ele>
        <time>2023-05-23T14:09:09Z</time>
      </trkpt>
      <trkpt lat="49.09742" lon="-0.39805">
        <ele>12.8</ele>
        <time>2023-05-23T14:09:10Z</time>
      </trkpt>
      <trkpt lat="49.09744" lon="-0.39795">
        <ele>12.6</ele>
        <time>2023-05-23T14:09:11Z</time>
      </trkpt>
      <trkpt lat="49.09747" lon="-0.39785">
        <ele>12.2</ele>
        <time>2023-05-23T14:09:12Z</time>
      </trkpt>
      <trkpt lat="49.09749" lon="-0.39775">
        <ele>11.6</ele>
        <time>2023-05-23T14:09:13Z</time>
      </trkpt>
      <trkpt lat="49.09751" lon="-0.39765">
        <ele>11.4</ele>
        <time>2023-05-23T14:09:14Z</time>
      </trkpt>
      <trkpt lat="49.09754" lon="-0.39755">
        <ele>11.4</ele>
        <time>2023-05-23T14:09:15Z</time>
      </trkpt>
      <trkpt lat="49.09756" lon="-0.39745">
        <ele>11.4</ele>
        <time>2023-05-23T14:09:16Z</time>
      </trkpt>
      <trkpt lat="49.09758" lon="-0.39734">
        <ele>11.2</ele>
        <time>2023-05-23T14:09:17Z</time>
      </trkpt>
      <trkpt lat="49.0976" lon="-0.39724">
        <ele>11.2</ele>
        <time>2023-05-23T14:09:18Z</time>
      </trkpt>
      <trkpt lat="49.09763" lon="-0.39714">
        <ele>11.2</ele>
        <time>2023-05-23T14:09:19Z</time>
      </trkpt>
      <trkpt lat="49.09765" lon="-0.39704">
        <ele>11.4</ele>
        <time>2023-05-23T14:09:20Z</time>
      </trkpt>
      <trkpt lat="49.09767" lon="-0.39695">
        <ele>11.4</ele>
        <time>2023-05-23T14:09:21Z</time>
      </trkpt>
      <trkpt lat="49.0977" lon="-0.39685">
        <ele>11.6</ele>
        <time>2023-05-23T14:09:22Z</time>
      </trkpt>
      <trkpt lat="49.09772" lon="-0.39675">
        <ele>11.6</ele>
        <time>2023-05-23T14:09:23Z</time>
      </trkpt>
      <trkpt lat="49.09774" lon="-0.39666">
        <ele>11.8</ele>
        <time>2023-05-23T14:09:24Z</time>
      </trkpt>
      <trkpt lat="49.09777" lon="-0.39657">
        <ele>12.4</ele>
        <time>2023-05-23T14:09:25Z</time>
      </trkpt>
      <trkpt lat="49.09779" lon="-0.39647">
        <ele>12.8</ele>
        <time>2023-05-23T14:09:26Z</time>
      </trkpt>
      <trkpt lat="49.09782" lon="-0.39638">
        <ele>13.4</ele>
        <time>2023-05-23T14:09:27Z</time>
      </trkpt>
      <trkpt lat="49.09785" lon="-0.39629">
        <ele>13.8</ele>
        <time>2023-05-23T14:09:28Z</time>
      </trkpt>
      <trkpt lat="49.09787" lon="-0.3962">
        <ele>14.4</ele>
        <time>2023-05-23T14:09:29Z</time>
      </trkpt>
      <trkpt lat="49.0979" lon="-0.3961">
        <ele>14.8</ele>
        <time>2023-05-23T14:09:30Z</time>
      </trkpt>
      <trkpt lat="49.09793" lon="-0.39601">
        <ele>15.4</ele>
        <time>2023-05-23T14:09:31Z</time>
      </trkpt>
      <trkpt lat="49.09796" lon="-0.39592">
        <ele>15.8</ele>
        <time>2023-05-23T14:09:32Z</time>
      </trkpt>
      <trkpt lat="49.09799" lon="-0.39583">
        <ele>16.6</ele>
        <time>2023-05-23T14:09:33Z</time>
      </trkpt>
      <trkpt lat="49.09802" lon="-0.39573">
        <ele>16.8</ele>
        <time>2023-05-23T14:09:34Z</time>
      </trkpt>
      <trkpt lat="49.09805" lon="-0.39564">
        <ele>17.4</ele>
        <time>2023-05-23T14:09:35Z</time>
      </trkpt>
      <trkpt lat="49.09808" lon="-0.39555">
        <ele>17.8</ele>
        <time>2023-05-23T14:09:36Z</time>
      </trkpt>
      <trkpt lat="49.09812" lon="-0.39545">
        <ele>18.4</ele>
        <time>2023-05-23T14:09:37Z</time>
      </trkpt>
      <trkpt lat="49.09815" lon="-0.39536">
        <ele>18.8</ele>
        <time>2023-05-23T14:09:38Z</time>
      </trkpt>
      <trkpt lat="49.09818" lon="-0.39526">
        <ele>19.4</ele>
        <time>2023-05-23T14:09:39Z</time>
      </trkpt>
      <trkpt lat="49.09821" lon="-0.39517">
        <ele>19.8</ele>
        <time>2023-05-23T14:09:40Z</time>
      </trkpt>
      <trkpt lat="49.09824" lon="-0.39507">
        <ele>20.4</ele>
        <time>2023-05-23T14:09:41Z</time>
      </trkpt>
      <trkpt lat="49.09826" lon="-0.39497">
        <ele>20.8</ele>
        <time>2023-05-23T14:09:42Z</time>
      </trkpt>
      <trkpt lat="49.09829" lon="-0.39488">
        <ele>21</ele>
        <time>2023-05-23T14:09:43Z</time>
      </trkpt>
      <trkpt lat="49.09832" lon="-0.39478">
        <ele>21.2</ele>
        <time>2023-05-23T14:09:44Z</time>
      </trkpt>
      <trkpt lat="49.09834" lon="-0.39468">
        <ele>21.4</ele>
        <time>2023-05-23T14:09:45Z</time>
      </trkpt>
      <trkpt lat="49.09836" lon="-0.39458">
        <ele>21.8</ele>
        <time>2023-05-23T14:09:46Z</time>
      </trkpt>
      <trkpt lat="49.09839" lon="-0.39449">
        <ele>22.2</ele>
        <time>2023-05-23T14:09:47Z</time>
      </trkpt>
      <trkpt lat="49.09842" lon="-0.39439">
        <ele>22.4</ele>
        <time>2023-05-23T14:09:48Z</time>
      </trkpt>
      <trkpt lat="49.09844" lon="-0.39429">
        <ele>22.8</ele>
        <time>2023-05-23T14:09:49Z</time>
      </trkpt>
      <trkpt lat="49.09847" lon="-0.39419">
        <ele>23.2</ele>
        <time>2023-05-23T14:09:50Z</time>
      </trkpt>
      <trkpt lat="49.09849" lon="-0.39409">
        <ele>23</ele>
        <time>2023-05-23T14:09:51Z</time>
      </trkpt>
      <trkpt lat="49.09852" lon="-0.39399">
        <ele>22.8</ele>
        <time>2023-05-23T14:09:52Z</time>
      </trkpt>
      <trkpt lat="49.09854" lon="-0.39389">
        <ele>22.6</ele>
        <time>2023-05-23T14:09:53Z</time>
      </trkpt>
      <trkpt lat="49.09857" lon="-0.39378">
        <ele>22.4</ele>
        <time>2023-05-23T14:09:54Z</time>
      </trkpt>
      <trkpt lat="49.0986" lon="-0.39368">
        <ele>22.2</ele>
        <time>2023-05-23T14:09:55Z</time>
      </trkpt>
      <trkpt lat="49.09862" lon="-0.39358">
        <ele>21.8</ele>
        <time>2023-05-23T14:09:56Z</time>
      </trkpt>
      <trkpt lat="49.09865" lon="-0.39347">
        <ele>21.6</ele>
        <time>2023-05-23T14:09:57Z</time>
      </trkpt>
      <trkpt lat="49.09867" lon="-0.39337">
        <ele>21.2</ele>
        <time>2023-05-23T14:09:58Z</time>
      </trkpt>
      <trkpt lat="49.0987" lon="-0.39326">
        <ele>21</ele>
        <time>2023-05-23T14:09:59Z</time>
      </trkpt>
      <trkpt lat="49.09873" lon="-0.39316">
        <ele>20.8</ele>
        <time>2023-05-23T14:10:00Z</time>
      </trkpt>
      <trkpt lat="49.09875" lon="-0.39305">
        <ele>20.8</ele>
        <time>2023-05-23T14:10:01Z</time>
      </trkpt>
      <trkpt lat="49.09878" lon="-0.39295">
        <ele>20.6</ele>
        <time>2023-05-23T14:10:02Z</time>
      </trkpt>
      <trkpt lat="49.09881" lon="-0.39285">
        <ele>20.6</ele>
        <time>2023-05-23T14:10:03Z</time>
      </trkpt>
      <trkpt lat="49.09884" lon="-0.39274">
        <ele>20.4</ele>
        <time>2023-05-23T14:10:04Z</time>
      </trkpt>
      <trkpt lat="49.09887" lon="-0.39264">
        <ele>20.2</ele>
        <time>2023-05-23T14:10:05Z</time>
      </trkpt>
      <trkpt lat="49.0989" lon="-0.39254">
        <ele>20.2</ele>
        <time>2023-05-23T14:10:06Z</time>
      </trkpt>
      <trkpt lat="49.09893" lon="-0.39244">
        <ele>20.2</ele>
        <time>2023-05-23T14:10:07Z</time>
      </trkpt>
      <trkpt lat="49.09896" lon="-0.39234">
        <ele>20.2</ele>
        <time>2023-05-23T14:10:08Z</time>
      </trkpt>
      <trkpt lat="49.09899" lon="-0.39224">
        <ele>20.2</ele>
        <time>2023-05-23T14:10:09Z</time>
      </trkpt>
      <trkpt lat="49.09902" lon="-0.39215">
        <ele>20</ele>
        <time>2023-05-23T14:10:10Z</time>
      </trkpt>
      <trkpt lat="49.09905" lon="-0.39205">
        <ele>19.8</ele>
        <time>2023-05-23T14:10:11Z</time>
      </trkpt>
      <trkpt lat="49.09907" lon="-0.39195">
        <ele>19.6</ele>
        <time>2023-05-23T14:10:12Z</time>
      </trkpt>
      <trkpt lat="49.0991" lon="-0.39185">
        <ele>19.2</ele>
        <time>2023-05-23T14:10:13Z</time>
      </trkpt>
      <trkpt lat="49.09912" lon="-0.39175">
        <ele>18.8</ele>
        <time>2023-05-23T14:10:14Z</time>
      </trkpt>
      <trkpt lat="49.09914" lon="-0.39166">
        <ele>18.6</ele>
        <time>2023-05-23T14:10:15Z</time>
      </trkpt>
      <trkpt lat="49.09916" lon="-0.39156">
        <ele>18</ele>
        <time>2023-05-23T14:10:16Z</time>
      </trkpt>
      <trkpt lat="49.09918" lon="-0.39147">
        <ele>17.6</ele>
        <time>2023-05-23T14:10:17Z</time>
      </trkpt>
      <trkpt lat="49.09921" lon="-0.39138">
        <ele>17.2</ele>
        <time>2023-05-23T14:10:18Z</time>
      </trkpt>
      <trkpt lat="49.09923" lon="-0.39128">
        <ele>16.8</ele>
        <time>2023-05-23T14:10:19Z</time>
      </trkpt>
      <trkpt lat="49.09926" lon="-0.39119">
        <ele>16.6</ele>
        <time>2023-05-23T14:10:20Z</time>
      </trkpt>
      <trkpt lat="49.09929" lon="-0.3911">
        <ele>16.2</ele>
        <time>2023-05-23T14:10:21Z</time>
      </trkpt>
      <trkpt lat="49.09932" lon="-0.39102">
        <ele>15.8</ele>
        <time>2023-05-23T14:10:22Z</time>
      </trkpt>
      <trkpt lat="49.09935" lon="-0.39093">
        <ele>15.6</ele>
        <time>2023-05-23T14:10:23Z</time>
      </trkpt>
      <trkpt lat="49.09938" lon="-0.39084">
        <ele>15.2</ele>
        <time>2023-05-23T14:10:24Z</time>
      </trkpt>
      <trkpt lat="49.09942" lon="-0.39076">
        <ele>15.2</ele>
        <time>2023-05-23T14:10:25Z</time>
      </trkpt>
      <trkpt lat="49.09945" lon="-0.39067">
        <ele>15.2</ele>
        <time>2023-05-23T14:10:26Z</time>
      </trkpt>
      <trkpt lat="49.09949" lon="-0.39059">
        <ele>15.2</ele>
        <time>2023-05-23T14:10:27Z</time>
      </trkpt>
      <trkpt lat="49.09952" lon="-0.3905">
        <ele>15.2</ele>
        <time>2023-05-23T14:10:28Z</time>
      </trkpt>
      <trkpt lat="49.09956" lon="-0.39042">
        <ele>15</ele>
        <time>2023-05-23T14:10:29Z</time>
      </trkpt>
      <trkpt lat="49.09959" lon="-0.39034">
        <ele>14.8</ele>
        <time>2023-05-23T14:10:30Z</time>
      </trkpt>
      <trkpt lat="49.09963" lon="-0.39026">
        <ele>14.6</ele>
        <time>2023-05-23T14:10:31Z</time>
      </trkpt>
      <trkpt lat="49.09966" lon="-0.39019">
        <ele>14.6</ele>
        <time>2023-05-23T14:10:32Z</time>
      </trkpt>
      <trkpt lat="49.09969" lon="-0.39012">
        <ele>14.4</ele>
        <time>2023-05-23T14:10:33Z</time>
      </trkpt>
      <trkpt lat="49.09971" lon="-0.39006">
        <ele>14</ele>
        <time>2023-05-23T14:10:34Z</time>
      </trkpt>
      <trkpt lat="49.09973" lon="-0.39">
        <ele>13.8</ele>
        <time>2023-05-23T14:10:35Z</time>
      </trkpt>
      <trkpt lat="49.09976" lon="-0.38994">
        <ele>13.6</ele>
        <time>2023-05-23T14:10:36Z</time>
      </trkpt>
      <trkpt lat="49.09978" lon="-0.38989">
        <ele>13.6</ele>
        <time>2023-05-23T14:10:37Z</time>
      </trkpt>
      <trkpt lat="49.09981" lon="-0.38984">
        <ele>13.6</ele>
        <time>2023-05-23T14:10:38Z</time>
      </trkpt>
      <trkpt lat="49.09983" lon="-0.38978">
        <ele>13.4</ele>
        <time>2023-05-23T14:10:39Z</time>
      </trkpt>
      <trkpt lat="49.09987" lon="-0.38972">
        <ele>13.2</ele>
        <time>2023-05-23T14:10:40Z</time>
      </trkpt>
      <trkpt lat="49.0999" lon="-0.38965">
        <ele>13</ele>
        <time>2023-05-23T14:10:41Z</time>
      </trkpt>
      <trkpt lat="49.09994" lon="-0.38958">
        <ele>12.6</ele>
        <time>2023-05-23T14:10:42Z</time>
      </trkpt>
      <trkpt lat="49.09998" lon="-0.3895">
        <ele>12.4</ele>
        <time>2023-05-23T14:10:43Z</time>
      </trkpt>
      <trkpt lat="49.10002" lon="-0.38942">
        <ele>11.8</ele>
        <time>2023-05-23T14:10:44Z</time>
      </trkpt>
      <trkpt lat="49.10006" lon="-0.38934">
        <ele>11.6</ele>
        <time>2023-05-23T14:10:45Z</time>
      </trkpt>
      <trkpt lat="49.1001" lon="-0.38925">
        <ele>11.2</ele>
        <time>2023-05-23T14:10:46Z</time>
      </trkpt>
      <trkpt lat="49.10015" lon="-0.38917">
        <ele>10.6</ele>
        <time>2023-05-23T14:10:47Z</time>
      </trkpt>
      <trkpt lat="49.10019" lon="-0.38909">
        <ele>10.6</ele>
        <time>2023-05-23T14:10:48Z</time>
      </trkpt>
      <trkpt lat="49.10024" lon="-0.38901">
        <ele>10.6</ele>
        <time>2023-05-23T14:10:49Z</time>
      </trkpt>
      <trkpt lat="49.10028" lon="-0.38894">
        <ele>10.6</ele>
        <time>2023-05-23T14:10:50Z</time>
      </trkpt>
      <trkpt lat="49.10033" lon="-0.38886">
        <ele>10.6</ele>
        <time>2023-05-23T14:10:51Z</time>
      </trkpt>
      <trkpt lat="49.10038" lon="-0.38879">
        <ele>10.6</ele>
        <time>2023-05-23T14:10:52Z</time>
      </trkpt>
      <trkpt lat="49.10043" lon="-0.38872">
        <ele>10.4</ele>
        <time>2023-05-23T14:10:53Z</time>
      </trkpt>
      <trkpt lat="49.10047" lon="-0.38866">
        <ele>10.4</ele>
        <time>2023-05-23T14:10:54Z</time>
      </trkpt>
      <trkpt lat="49.10052" lon="-0.38859">
        <ele>10.2</ele>
        <time>2023-05-23T14:10:55Z</time>
      </trkpt>
      <trkpt lat="49.10057" lon="-0.38852">
        <ele>10.2</ele>
        <time>2023-05-23T14:10:56Z</time>
      </trkpt>
      <trkpt lat="49.10062" lon="-0.38846">
        <ele>10</ele>
        <time>2023-05-23T14:10:57Z</time>
      </trkpt>
      <trkpt lat="49.10067" lon="-0.38839">
        <ele>9.8</ele>
        <time>2023-05-23T14:10:58Z</time>
      </trkpt>
      <trkpt lat="49.10072" lon="-0.38832">
        <ele>9.6</ele>
        <time>2023-05-23T14:10:59Z</time>
      </trkpt>
      <trkpt lat="49.10076" lon="-0.38825">
        <ele>9.6</ele>
        <time>2023-05-23T14:11:00Z</time>
      </trkpt>
      <trkpt lat="49.10081" lon="-0.38818">
        <ele>9.6</ele>
        <time>2023-05-23T14:11:01Z</time>
      </trkpt>
      <trkpt lat="49.10086" lon="-0.38812">
        <ele>9.6</ele>
        <time>2023-05-23T14:11:02Z</time>
      </trkpt>
      <trkpt lat="49.1009" lon="-0.38805">
        <ele>9.6</ele>
        <time>2023-05-23T14:11:03Z</time>
      </trkpt>
      <trkpt lat="49.10095" lon="-0.38798">
        <ele>9.8</ele>
        <time>2023-05-23T14:11:04Z</time>
      </trkpt>
      <trkpt lat="49.10099" lon="-0.38792">
        <ele>10</ele>
        <time>2023-05-23T14:11:05Z</time>
      </trkpt>
      <trkpt lat="49.10104" lon="-0.38785">
        <ele>10.2</ele>
        <time>2023-05-23T14:11:06Z</time>
      </trkpt>
      <trkpt lat="49.10109" lon="-0.38779">
        <ele>10.2</ele>
        <time>2023-05-23T14:11:07Z</time>
      </trkpt>
      <trkpt lat="49.10114" lon="-0.38773">
        <ele>10.2</ele>
        <time>2023-05-23T14:11:08Z</time>
      </trkpt>
      <trkpt lat="49.10119" lon="-0.38767">
        <ele>10.4</ele>
        <time>2023-05-23T14:11:09Z</time>
      </trkpt>
      <trkpt lat="49.10124" lon="-0.38761">
        <ele>10.4</ele>
        <time>2023-05-23T14:11:10Z</time>
      </trkpt>
      <trkpt lat="49.10129" lon="-0.38756">
        <ele>10.4</ele>
        <time>2023-05-23T14:11:11Z</time>
      </trkpt>
      <trkpt lat="49.10134" lon="-0.3875">
        <ele>10.4</ele>
        <time>2023-05-23T14:11:12Z</time>
      </trkpt>
      <trkpt lat="49.10139" lon="-0.38745">
        <ele>10.6</ele>
        <time>2023-05-23T14:11:13Z</time>
      </trkpt>
      <trkpt lat="49.10144" lon="-0.38739">
        <ele>10.8</ele>
        <time>2023-05-23T14:11:14Z</time>
      </trkpt>
      <trkpt lat="49.10148" lon="-0.38734">
        <ele>10.8</ele>
        <time>2023-05-23T14:11:15Z</time>
      </trkpt>
      <trkpt lat="49.10152" lon="-0.38729">
        <ele>10.8</ele>
        <time>2023-05-23T14:11:16Z</time>
      </trkpt>
      <trkpt lat="49.10156" lon="-0.38724">
        <ele>10.8</ele>
        <time>2023-05-23T14:11:17Z</time>
      </trkpt>
      <trkpt lat="49.10159" lon="-0.38719">
        <ele>10.8</ele>
        <time>2023-05-23T14:11:18Z</time>
      </trkpt>
      <trkpt lat="49.10161" lon="-0.38713">
        <ele>10.6</ele>
        <time>2023-05-23T14:11:19Z</time>
      </trkpt>
      <trkpt lat="49.10161" lon="-0.38708">
        <ele>10.4</ele>
        <time>2023-05-23T14:11:20Z</time>
      </trkpt>
      <trkpt lat="49.10161" lon="-0.38701">
        <ele>10.4</ele>
        <time>2023-05-23T14:11:21Z</time>
      </trkpt>
      <trkpt lat="49.10163" lon="-0.38695">
        <ele>10</ele>
        <time>2023-05-23T14:11:22Z</time>
      </trkpt>
      <trkpt lat="49.10165" lon="-0.38688">
        <ele>9.8</ele>
        <time>2023-05-23T14:11:23Z</time>
      </trkpt>
      <trkpt lat="49.1017" lon="-0.38682">
        <ele>9.6</ele>
        <time>2023-05-23T14:11:24Z</time>
      </trkpt>
      <trkpt lat="49.10175" lon="-0.38676">
        <ele>9.6</ele>
        <time>2023-05-23T14:11:25Z</time>
      </trkpt>
      <trkpt lat="49.1018" lon="-0.38671">
        <ele>9.6</ele>
        <time>2023-05-23T14:11:26Z</time>
      </trkpt>
      <trkpt lat="49.10186" lon="-0.38666">
        <ele>9.6</ele>
        <time>2023-05-23T14:11:27Z</time>
      </trkpt>
      <trkpt lat="49.10191" lon="-0.38662">
        <ele>10</ele>
        <time>2023-05-23T14:11:28Z</time>
      </trkpt>
      <trkpt lat="49.10196" lon="-0.38658">
        <ele>10.4</ele>
        <time>2023-05-23T14:11:29Z</time>
      </trkpt>
      <trkpt lat="49.102" lon="-0.38653">
        <ele>10.6</ele>
        <time>2023-05-23T14:11:30Z</time>
      </trkpt>
      <trkpt lat="49.10205" lon="-0.38649">
        <ele>10.8</ele>
        <time>2023-05-23T14:11:31Z</time>
      </trkpt>
      <trkpt lat="49.1021" lon="-0.38644">
        <ele>10.8</ele>
        <time>2023-05-23T14:11:32Z</time>
      </trkpt>
      <trkpt lat="49.10215" lon="-0.3864">
        <ele>11</ele>
        <time>2023-05-23T14:11:33Z</time>
      </trkpt>
      <trkpt lat="49.10221" lon="-0.38635">
        <ele>11.2</ele>
        <time>2023-05-23T14:11:34Z</time>
      </trkpt>
      <trkpt lat="49.10226" lon="-0.38631">
        <ele>11.2</ele>
        <time>2023-05-23T14:11:35Z</time>
      </trkpt>
      <trkpt lat="49.10231" lon="-0.38626">
        <ele>11.2</ele>
        <time>2023-05-23T14:11:36Z</time>
      </trkpt>
      <trkpt lat="49.10237" lon="-0.38621">
        <ele>11</ele>
        <time>2023-05-23T14:11:37Z</time>
      </trkpt>
      <trkpt lat="49.10242" lon="-0.38616">
        <ele>10.8</ele>
        <time>2023-05-23T14:11:38Z</time>
      </trkpt>
      <trkpt lat="49.10247" lon="-0.38611">
        <ele>10.6</ele>
        <time>2023-05-23T14:11:39Z</time>
      </trkpt>
      <trkpt lat="49.10253" lon="-0.38607">
        <ele>10.6</ele>
        <time>2023-05-23T14:11:40Z</time>
      </trkpt>
      <trkpt lat="49.10258" lon="-0.38602">
        <ele>10.6</ele>
        <time>2023-05-23T14:11:41Z</time>
      </trkpt>
      <trkpt lat="49.10263" lon="-0.38597">
        <ele>10.6</ele>
        <time>2023-05-23T14:11:42Z</time>
      </trkpt>
      <trkpt lat="49.10268" lon="-0.38593">
        <ele>10.8</ele>
        <time>2023-05-23T14:11:43Z</time>
      </trkpt>
      <trkpt lat="49.10273" lon="-0.38588">
        <ele>10.6</ele>
        <time>2023-05-23T14:11:44Z</time>
      </trkpt>
      <trkpt lat="49.10278" lon="-0.38585">
        <ele>10.6</ele>
        <time>2023-05-23T14:11:45Z</time>
      </trkpt>
      <trkpt lat="49.10283" lon="-0.38581">
        <ele>10.8</ele>
        <time>2023-05-23T14:11:46Z</time>
      </trkpt>
      <trkpt lat="49.10289" lon="-0.38578">
        <ele>11</ele>
        <time>2023-05-23T14:11:47Z</time>
      </trkpt>
      <trkpt lat="49.10294" lon="-0.38574">
        <ele>11.2</ele>
        <time>2023-05-23T14:11:48Z</time>
      </trkpt>
      <trkpt lat="49.10299" lon="-0.38571">
        <ele>11.4</ele>
        <time>2023-05-23T14:11:49Z</time>
      </trkpt>
      <trkpt lat="49.10305" lon="-0.38569">
        <ele>11.6</ele>
        <time>2023-05-23T14:11:50Z</time>
      </trkpt>
      <trkpt lat="49.1031" lon="-0.38566">
        <ele>11.6</ele>
        <time>2023-05-23T14:11:51Z</time>
      </trkpt>
      <trkpt lat="49.10316" lon="-0.38563">
        <ele>11.6</ele>
        <time>2023-05-23T14:11:52Z</time>
      </trkpt>
      <trkpt lat="49.10321" lon="-0.38561">
        <ele>11.8</ele>
        <time>2023-05-23T14:11:53Z</time>
      </trkpt>
      <trkpt lat="49.10327" lon="-0.38558">
        <ele>11.8</ele>
        <time>2023-05-23T14:11:54Z</time>
      </trkpt>
      <trkpt lat="49.10332" lon="-0.38555">
        <ele>12</ele>
        <time>2023-05-23T14:11:55Z</time>
      </trkpt>
      <trkpt lat="49.10338" lon="-0.38552">
        <ele>12</ele>
        <time>2023-05-23T14:11:56Z</time>
      </trkpt>
      <trkpt lat="49.10344" lon="-0.3855">
        <ele>12</ele>
        <time>2023-05-23T14:11:57Z</time>
      </trkpt>
      <trkpt lat="49.10349" lon="-0.38547">
        <ele>11.8</ele>
        <time>2023-05-23T14:11:58Z</time>
      </trkpt>
      <trkpt lat="49.10355" lon="-0.38544">
        <ele>11.8</ele>
        <time>2023-05-23T14:11:59Z</time>
      </trkpt>
      <trkpt lat="49.10361" lon="-0.38541">
        <ele>11.8</ele>
        <time>2023-05-23T14:12:00Z</time>
      </trkpt>
      <trkpt lat="49.10366" lon="-0.38538">
        <ele>11.8</ele>
        <time>2023-05-23T14:12:01Z</time>
      </trkpt>
      <trkpt lat="49.10372" lon="-0.38535">
        <ele>11.6</ele>
        <time>2023-05-23T14:12:02Z</time>
      </trkpt>
      <trkpt lat="49.10378" lon="-0.38532">
        <ele>11.6</ele>
        <time>2023-05-23T14:12:03Z</time>
      </trkpt>
      <trkpt lat="49.10383" lon="-0.38528">
        <ele>11.4</ele>
        <time>2023-05-23T14:12:04Z</time>
      </trkpt>
      <trkpt lat="49.10388" lon="-0.38524">
        <ele>11.2</ele>
        <time>2023-05-23T14:12:05Z</time>
      </trkpt>
      <trkpt lat="49.10393" lon="-0.38519">
        <ele>11.2</ele>
        <time>2023-05-23T14:12:06Z</time>
      </trkpt>
      <trkpt lat="49.10398" lon="-0.38514">
        <ele>10.8</ele>
        <time>2023-05-23T14:12:07Z</time>
      </trkpt>
      <trkpt lat="49.10403" lon="-0.38509">
        <ele>10.6</ele>
        <time>2023-05-23T14:12:08Z</time>
      </trkpt>
      <trkpt lat="49.10407" lon="-0.38503">
        <ele>10.4</ele>
        <time>2023-05-23T14:12:09Z</time>
      </trkpt>
      <trkpt lat="49.10412" lon="-0.38498">
        <ele>10.2</ele>
        <time>2023-05-23T14:12:10Z</time>
      </trkpt>
      <trkpt lat="49.10417" lon="-0.38492">
        <ele>10.4</ele>
        <time>2023-05-23T14:12:11Z</time>
      </trkpt>
      <trkpt lat="49.10421" lon="-0.38486">
        <ele>10.6</ele>
        <time>2023-05-23T14:12:12Z</time>
      </trkpt>
      <trkpt lat="49.10427" lon="-0.38482">
        <ele>10.6</ele>
        <time>2023-05-23T14:12:13Z</time>
      </trkpt>
      <trkpt lat="49.10432" lon="-0.38478">
        <ele>10.8</ele>
        <time>2023-05-23T14:12:14Z</time>
      </trkpt>
      <trkpt lat="49.10438" lon="-0.38476">
        <ele>11</ele>
        <time>2023-05-23T14:12:15Z</time>
      </trkpt>
      <trkpt lat="49.10444" lon="-0.38475">
        <ele>11</ele>
        <time>2023-05-23T14:12:16Z</time>
      </trkpt>
      <trkpt lat="49.10449" lon="-0.38475">
        <ele>11</ele>
        <time>2023-05-23T14:12:17Z</time>
      </trkpt>
      <trkpt lat="49.10455" lon="-0.38476">
        <ele>11</ele>
        <time>2023-05-23T14:12:18Z</time>
      </trkpt>
      <trkpt lat="49.1046" lon="-0.38477">
        <ele>11.2</ele>
        <time>2023-05-23T14:12:19Z</time>
      </trkpt>
      <trkpt lat="49.10466" lon="-0.38478">
        <ele>11.2</ele>
        <time>2023-05-23T14:12:20Z</time>
      </trkpt>
      <trkpt lat="49.10471" lon="-0.38477">
        <ele>11.2</ele>
        <time>2023-05-23T14:12:21Z</time>
      </trkpt>
      <trkpt lat="49.10477" lon="-0.38476">
        <ele>11.2</ele>
        <time>2023-05-23T14:12:22Z</time>
      </trkpt>
      <trkpt lat="49.10482" lon="-0.38475">
        <ele>11.2</ele>
        <time>2023-05-23T14:12:23Z</time>
      </trkpt>
      <trkpt lat="49.10488" lon="-0.38473">
        <ele>11.4</ele>
        <time>2023-05-23T14:12:24Z</time>
      </trkpt>
      <trkpt lat="49.10493" lon="-0.38472">
        <ele>11.4</ele>
        <time>2023-05-23T14:12:25Z</time>
      </trkpt>
      <trkpt lat="49.10499" lon="-0.38471">
        <ele>11.4</ele>
        <time>2023-05-23T14:12:26Z</time>
      </trkpt>
      <trkpt lat="49.10505" lon="-0.38471">
        <ele>11.2</ele>
        <time>2023-05-23T14:12:27Z</time>
      </trkpt>
      <trkpt lat="49.10511" lon="-0.38472">
        <ele>11.2</ele>
        <time>2023-05-23T14:12:28Z</time>
      </trkpt>
      <trkpt lat="49.10517" lon="-0.38474">
        <ele>11</ele>
        <time>2023-05-23T14:12:29Z</time>
      </trkpt>
      <trkpt lat="49.10523" lon="-0.38476">
        <ele>10.8</ele>
        <time>2023-05-23T14:12:30Z</time>
      </trkpt>
      <trkpt lat="49.10529" lon="-0.38479">
        <ele>10.6</ele>
        <time>2023-05-23T14:12:31Z</time>
      </trkpt>
      <trkpt lat="49.10534" lon="-0.38482">
        <ele>10.6</ele>
        <time>2023-05-23T14:12:32Z</time>
      </trkpt>
      <trkpt lat="49.1054" lon="-0.38484">
        <ele>10.6</ele>
        <time>2023-05-23T14:12:33Z</time>
      </trkpt>
      <trkpt lat="49.10545" lon="-0.38486">
        <ele>10.4</ele>
        <time>2023-05-23T14:12:34Z</time>
      </trkpt>
      <trkpt lat="49.10551" lon="-0.38487">
        <ele>10.4</ele>
        <time>2023-05-23T14:12:35Z</time>
      </trkpt>
      <trkpt lat="49.10556" lon="-0.38488">
        <ele>10.4</ele>
        <time>2023-05-23T14:12:36Z</time>
      </trkpt>
      <trkpt lat="49.10562" lon="-0.38488">
        <ele>10.2</ele>
        <time>2023-05-23T14:12:37Z</time>
      </trkpt>
      <trkpt lat="49.10568" lon="-0.38488">
        <ele>10.2</ele>
        <time>2023-05-23T14:12:38Z</time>
      </trkpt>
      <trkpt lat="49.10573" lon="-0.38488">
        <ele>10</ele>
        <time>2023-05-23T14:12:39Z</time>
      </trkpt>
      <trkpt lat="49.10578" lon="-0.38487">
        <ele>9.8</ele>
        <time>2023-05-23T14:12:40Z</time>
      </trkpt>
      <trkpt lat="49.10584" lon="-0.38486">
        <ele>9.8</ele>
        <time>2023-05-23T14:12:41Z</time>
      </trkpt>
      <trkpt lat="49.10589" lon="-0.38486">
        <ele>9.8</ele>
        <time>2023-05-23T14:12:42Z</time>
      </trkpt>
      <trkpt lat="49.10595" lon="-0.38486">
        <ele>9.6</ele>
        <time>2023-05-23T14:12:43Z</time>
      </trkpt>
      <trkpt lat="49.106" lon="-0.38487">
        <ele>9.6</ele>
        <time>2023-05-23T14:12:44Z</time>
      </trkpt>
      <trkpt lat="49.10605" lon="-0.38489">
        <ele>9.6</ele>
        <time>2023-05-23T14:12:45Z</time>
      </trkpt>
      <trkpt lat="49.10611" lon="-0.38491">
        <ele>9.6</ele>
        <time>2023-05-23T14:12:46Z</time>
      </trkpt>
      <trkpt lat="49.10617" lon="-0.38494">
        <ele>9.6</ele>
        <time>2023-05-23T14:12:47Z</time>
      </trkpt>
      <trkpt lat="49.10622" lon="-0.38496">
        <ele>9.6</ele>
        <time>2023-05-23T14:12:48Z</time>
      </trkpt>
      <trkpt lat="49.10628" lon="-0.38499">
        <ele>9.6</ele>
        <time>2023-05-23T14:12:49Z</time>
      </trkpt>
      <trkpt lat="49.10633" lon="-0.38502">
        <ele>9.6</ele>
        <time>2023-05-23T14:12:50Z</time>
      </trkpt>
      <trkpt lat="49.10639" lon="-0.38503">
        <ele>9.6</ele>
        <time>2023-05-23T14:12:51Z</time>
      </trkpt>
      <trkpt lat="49.10644" lon="-0.38505">
        <ele>9.8</ele>
        <time>2023-05-23T14:12:52Z</time>
      </trkpt>
      <trkpt lat="49.1065" lon="-0.38507">
        <ele>9.8</ele>
        <time>2023-05-23T14:12:53Z</time>
      </trkpt>
      <trkpt lat="49.10656" lon="-0.38508">
        <ele>10</ele>
        <time>2023-05-23T14:12:54Z</time>
      </trkpt>
      <trkpt lat="49.10661" lon="-0.3851">
        <ele>10.2</ele>
        <time>2023-05-23T14:12:55Z</time>
      </trkpt>
      <trkpt lat="49.10667" lon="-0.38512">
        <ele>10.4</ele>
        <time>2023-05-23T14:12:56Z</time>
      </trkpt>
      <trkpt lat="49.10673" lon="-0.38514">
        <ele>10.6</ele>
        <time>2023-05-23T14:12:57Z</time>
      </trkpt>
      <trkpt lat="49.10679" lon="-0.38517">
        <ele>10.8</ele>
        <time>2023-05-23T14:12:58Z</time>
      </trkpt>
      <trkpt lat="49.10685" lon="-0.38521">
        <ele>11.2</ele>
        <time>2023-05-23T14:12:59Z</time>
      </trkpt>
      <trkpt lat="49.10691" lon="-0.38525">
        <ele>11.6</ele>
        <time>2023-05-23T14:13:00Z</time>
      </trkpt>
      <trkpt lat="49.10697" lon="-0.38529">
        <ele>11.8</ele>
        <time>2023-05-23T14:13:01Z</time>
      </trkpt>
      <trkpt lat="49.10703" lon="-0.38532">
        <ele>12.2</ele>
        <time>2023-05-23T14:13:02Z</time>
      </trkpt>
      <trkpt lat="49.10709" lon="-0.38536">
        <ele>12.4</ele>
        <time>2023-05-23T14:13:03Z</time>
      </trkpt>
      <trkpt lat="49.10716" lon="-0.38539">
        <ele>12.6</ele>
        <time>2023-05-23T14:13:04Z</time>
      </trkpt>
      <trkpt lat="49.10722" lon="-0.38542">
        <ele>12.8</ele>
        <time>2023-05-23T14:13:05Z</time>
      </trkpt>
      <trkpt lat="49.10728" lon="-0.38545">
        <ele>13.2</ele>
        <time>2023-05-23T14:13:06Z</time>
      </trkpt>
      <trkpt lat="49.10735" lon="-0.38547">
        <ele>13.2</ele>
        <time>2023-05-23T14:13:07Z</time>
      </trkpt>
      <trkpt lat="49.10741" lon="-0.38549">
        <ele>13.2</ele>
        <time>2023-05-23T14:13:08Z</time>
      </trkpt>
      <trkpt lat="49.10747" lon="-0.38551">
        <ele>13.4</ele>
        <time>2023-05-23T14:13:09Z</time>
      </trkpt>
      <trkpt lat="49.10753" lon="-0.38552">
        <ele>13.4</ele>
        <time>2023-05-23T14:13:10Z</time>
      </trkpt>
      <trkpt lat="49.1076" lon="-0.38553">
        <ele>13.2</ele>
        <time>2023-05-23T14:13:11Z</time>
      </trkpt>
      <trkpt lat="49.10766" lon="-0.38554">
        <ele>13.2</ele>
        <time>2023-05-23T14:13:12Z</time>
      </trkpt>
      <trkpt lat="49.10772" lon="-0.38555">
        <ele>13</ele>
        <time>2023-05-23T14:13:13Z</time>
      </trkpt>
      <trkpt lat="49.10777" lon="-0.38556">
        <ele>12.8</ele>
        <time>2023-05-23T14:13:14Z</time>
      </trkpt>
      <trkpt lat="49.10783" lon="-0.38557">
        <ele>12.8</ele>
        <time>2023-05-23T14:13:15Z</time>
      </trkpt>
      <trkpt lat="49.10788" lon="-0.38558">
        <ele>12.8</ele>
        <time>2023-05-23T14:13:16Z</time>
      </trkpt>
      <trkpt lat="49.10793" lon="-0.38559">
        <ele>12.6</ele>
        <time>2023-05-23T14:13:17Z</time>
      </trkpt>
      <trkpt lat="49.10798" lon="-0.3856">
        <ele>12.6</ele>
        <time>2023-05-23T14:13:18Z</time>
      </trkpt>
      <trkpt lat="49.10803" lon="-0.38562">
        <ele>12.6</ele>
        <time>2023-05-23T14:13:19Z</time>
      </trkpt>
      <trkpt lat="49.10808" lon="-0.38563">
        <ele>12.6</ele>
        <time>2023-05-23T14:13:20Z</time>
      </trkpt>
      <trkpt lat="49.10813" lon="-0.38564">
        <ele>12.6</ele>
        <time>2023-05-23T14:13:21Z</time>
      </trkpt>
      <trkpt lat="49.10819" lon="-0.38566">
        <ele>12.4</ele>
        <time>2023-05-23T14:13:22Z</time>
      </trkpt>
      <trkpt lat="49.10825" lon="-0.38567">
        <ele>12.4</ele>
        <time>2023-05-23T14:13:23Z</time>
      </trkpt>
      <trkpt lat="49.10831" lon="-0.38569">
        <ele>12.2</ele>
        <time>2023-05-23T14:13:24Z</time>
      </trkpt>
      <trkpt lat="49.10837" lon="-0.3857">
        <ele>12.2</ele>
        <time>2023-05-23T14:13:25Z</time>
      </trkpt>
      <trkpt lat="49.10844" lon="-0.38572">
        <ele>12</ele>
        <time>2023-05-23T14:13:26Z</time>
      </trkpt>
      <trkpt lat="49.1085" lon="-0.38574">
        <ele>11.8</ele>
        <time>2023-05-23T14:13:27Z</time>
      </trkpt>
      <trkpt lat="49.10857" lon="-0.38575">
        <ele>11.6</ele>
        <time>2023-05-23T14:13:28Z</time>
      </trkpt>
      <trkpt lat="49.10864" lon="-0.38577">
        <ele>11.6</ele>
        <time>2023-05-23T14:13:29Z</time>
      </trkpt>
      <trkpt lat="49.1087" lon="-0.38579">
        <ele>11.6</ele>
        <time>2023-05-23T14:13:30Z</time>
      </trkpt>
      <trkpt lat="49.10876" lon="-0.38581">
        <ele>11.4</ele>
        <time>2023-05-23T14:13:31Z</time>
      </trkpt>
      <trkpt lat="49.10883" lon="-0.38583">
        <ele>11.2</ele>
        <time>2023-05-23T14:13:32Z</time>
      </trkpt>
      <trkpt lat="49.10888" lon="-0.38586">
        <ele>11.2</ele>
        <time>2023-05-23T14:13:33Z</time>
      </trkpt>
      <trkpt lat="49.10894" lon="-0.38589">
        <ele>11.4</ele>
        <time>2023-05-23T14:13:34Z</time>
      </trkpt>
      <trkpt lat="49.10899" lon="-0.38592">
        <ele>11.4</ele>
        <time>2023-05-23T14:13:35Z</time>
      </trkpt>
      <trkpt lat="49.10904" lon="-0.38595">
        <ele>11.4</ele>
        <time>2023-05-23T14:13:36Z</time>
      </trkpt>
      <trkpt lat="49.10909" lon="-0.38599">
        <ele>11.6</ele>
        <time>2023-05-23T14:13:37Z</time>
      </trkpt>
      <trkpt lat="49.10913" lon="-0.38602">
        <ele>11.6</ele>
        <time>2023-05-23T14:13:38Z</time>
      </trkpt>
      <trkpt lat="49.10918" lon="-0.38605">
        <ele>11.6</ele>
        <time>2023-05-23T14:13:39Z</time>
      </trkpt>
      <trkpt lat="49.10923" lon="-0.38608">
        <ele>11.6</ele>
        <time>2023-05-23T14:13:40Z</time>
      </trkpt>
      <trkpt lat="49.10928" lon="-0.3861">
        <ele>11.4</ele>
        <time>2023-05-23T14:13:41Z</time>
      </trkpt>
      <trkpt lat="49.10934" lon="-0.38612">
        <ele>11.4</ele>
        <time>2023-05-23T14:13:42Z</time>
      </trkpt>
      <trkpt lat="49.1094" lon="-0.38614">
        <ele>11.2</ele>
        <time>2023-05-23T14:13:43Z</time>
      </trkpt>
      <trkpt lat="49.10946" lon="-0.38615">
        <ele>10.8</ele>
        <time>2023-05-23T14:13:44Z</time>
      </trkpt>
      <trkpt lat="49.10952" lon="-0.38616">
        <ele>10.6</ele>
        <time>2023-05-23T14:13:45Z</time>
      </trkpt>
      <trkpt lat="49.10959" lon="-0.38617">
        <ele>10.6</ele>
        <time>2023-05-23T14:13:46Z</time>
      </trkpt>
      <trkpt lat="49.10965" lon="-0.38618">
        <ele>10.4</ele>
        <time>2023-05-23T14:13:47Z</time>
      </trkpt>
      <trkpt lat="49.10971" lon="-0.3862">
        <ele>10.2</ele>
        <time>2023-05-23T14:13:48Z</time>
      </trkpt>
      <trkpt lat="49.10978" lon="-0.38621">
        <ele>9.8</ele>
        <time>2023-05-23T14:13:49Z</time>
      </trkpt>
      <trkpt lat="49.10984" lon="-0.38623">
        <ele>9.6</ele>
        <time>2023-05-23T14:13:50Z</time>
      </trkpt>
      <trkpt lat="49.10991" lon="-0.38625">
        <ele>9.6</ele>
        <time>2023-05-23T14:13:51Z</time>
      </trkpt>
      <trkpt lat="49.10997" lon="-0.38628">
        <ele>9.4</ele>
        <time>2023-05-23T14:13:52Z</time>
      </trkpt>
      <trkpt lat="49.11004" lon="-0.38631">
        <ele>9.2</ele>
        <time>2023-05-23T14:13:53Z</time>
      </trkpt>
      <trkpt lat="49.1101" lon="-0.38634">
        <ele>9.2</ele>
        <time>2023-05-23T14:13:54Z</time>
      </trkpt>
      <trkpt lat="49.11016" lon="-0.38638">
        <ele>9</ele>
        <time>2023-05-23T14:13:55Z</time>
      </trkpt>
      <trkpt lat="49.11022" lon="-0.38642">
        <ele>9</ele>
        <time>2023-05-23T14:13:56Z</time>
      </trkpt>
      <trkpt lat="49.11027" lon="-0.38648">
        <ele>9</ele>
        <time>2023-05-23T14:13:57Z</time>
      </trkpt>
      <trkpt lat="49.11031" lon="-0.38655">
        <ele>9.2</ele>
        <time>2023-05-23T14:13:58Z</time>
      </trkpt>
      <trkpt lat="49.11037" lon="-0.3866">
        <ele>9</ele>
        <time>2023-05-23T14:13:59Z</time>
      </trkpt>
      <trkpt lat="49.11042" lon="-0.38664">
        <ele>8.8</ele>
        <time>2023-05-23T14:14:00Z</time>
      </trkpt>
      <trkpt lat="49.11048" lon="-0.38666">
        <ele>8.6</ele>
        <time>2023-05-23T14:14:01Z</time>
      </trkpt>
      <trkpt lat="49.11054" lon="-0.38668">
        <ele>8.6</ele>
        <time>2023-05-23T14:14:02Z</time>
      </trkpt>
      <trkpt lat="49.1106" lon="-0.3867">
        <ele>8.4</ele>
        <time>2023-05-23T14:14:03Z</time>
      </trkpt>
      <trkpt lat="49.11066" lon="-0.38673">
        <ele>8.2</ele>
        <time>2023-05-23T14:14:04Z</time>
      </trkpt>
      <trkpt lat="49.11072" lon="-0.38675">
        <ele>8</ele>
        <time>2023-05-23T14:14:05Z</time>
      </trkpt>
      <trkpt lat="49.11078" lon="-0.38677">
        <ele>7.6</ele>
        <time>2023-05-23T14:14:06Z</time>
      </trkpt>
      <trkpt lat="49.11084" lon="-0.3868">
        <ele>7.6</ele>
        <time>2023-05-23T14:14:07Z</time>
      </trkpt>
      <trkpt lat="49.1109" lon="-0.38682">
        <ele>7.6</ele>
        <time>2023-05-23T14:14:08Z</time>
      </trkpt>
      <trkpt lat="49.11096" lon="-0.38685">
        <ele>8</ele>
        <time>2023-05-23T14:14:09Z</time>
      </trkpt>
      <trkpt lat="49.11101" lon="-0.38688">
        <ele>8</ele>
        <time>2023-05-23T14:14:10Z</time>
      </trkpt>
      <trkpt lat="49.11107" lon="-0.38691">
        <ele>8.2</ele>
        <time>2023-05-23T14:14:11Z</time>
      </trkpt>
      <trkpt lat="49.11113" lon="-0.38693">
        <ele>8.4</ele>
        <time>2023-05-23T14:14:12Z</time>
      </trkpt>
      <trkpt lat="49.11119" lon="-0.38696">
        <ele>8.6</ele>
        <time>2023-05-23T14:14:13Z</time>
      </trkpt>
      <trkpt lat="49.11125" lon="-0.38699">
        <ele>8.6</ele>
        <time>2023-05-23T14:14:14Z</time>
      </trkpt>
      <trkpt lat="49.11131" lon="-0.38703">
        <ele>8.6</ele>
        <time>2023-05-23T14:14:15Z</time>
      </trkpt>
      <trkpt lat="49.11137" lon="-0.38706">
        <ele>8.8</ele>
        <time>2023-05-23T14:14:16Z</time>
      </trkpt>
      <trkpt lat="49.11143" lon="-0.38709">
        <ele>8.8</ele>
        <time>2023-05-23T14:14:17Z</time>
      </trkpt>
      <trkpt lat="49.11149" lon="-0.38712">
        <ele>8.8</ele>
        <time>2023-05-23T14:14:18Z</time>
      </trkpt>
      <trkpt lat="49.11155" lon="-0.38716">
        <ele>9</ele>
        <time>2023-05-23T14:14:19Z</time>
      </trkpt>
      <trkpt lat="49.1116" lon="-0.38719">
        <ele>9</ele>
        <time>2023-05-23T14:14:20Z</time>
      </trkpt>
      <trkpt lat="49.11166" lon="-0.38723">
        <ele>9</ele>
        <time>2023-05-23T14:14:21Z</time>
      </trkpt>
      <trkpt lat="49.11172" lon="-0.38726">
        <ele>9</ele>
        <time>2023-05-23T14:14:22Z</time>
      </trkpt>
      <trkpt lat="49.11178" lon="-0.3873">
        <ele>9</ele>
        <time>2023-05-23T14:14:23Z</time>
      </trkpt>
      <trkpt lat="49.11184" lon="-0.38734">
        <ele>9</ele>
        <time>2023-05-23T14:14:24Z</time>
      </trkpt>
      <trkpt lat="49.11189" lon="-0.38737">
        <ele>9</ele>
        <time>2023-05-23T14:14:25Z</time>
      </trkpt>
      <trkpt lat="49.11195" lon="-0.38741">
        <ele>9</ele>
        <time>2023-05-23T14:14:26Z</time>
      </trkpt>
      <trkpt lat="49.11201" lon="-0.38745">
        <ele>9</ele>
        <time>2023-05-23T14:14:27Z</time>
      </trkpt>
      <trkpt lat="49.11207" lon="-0.38748">
        <ele>9</ele>
        <time>2023-05-23T14:14:28Z</time>
      </trkpt>
      <trkpt lat="49.11212" lon="-0.38752">
        <ele>9</ele>
        <time>2023-05-23T14:14:29Z</time>
      </trkpt>
      <trkpt lat="49.11218" lon="-0.38756">
        <ele>9</ele>
        <time>2023-05-23T14:14:30Z</time>
      </trkpt>
      <trkpt lat="49.11224" lon="-0.38759">
        <ele>8.8</ele>
        <time>2023-05-23T14:14:31Z</time>
      </trkpt>
      <trkpt lat="49.1123" lon="-0.38763">
        <ele>8.8</ele>
        <time>2023-05-23T14:14:32Z</time>
      </trkpt>
      <trkpt lat="49.11235" lon="-0.38767">
        <ele>8.8</ele>
        <time>2023-05-23T14:14:33Z</time>
      </trkpt>
      <trkpt lat="49.11241" lon="-0.38771">
        <ele>8.8</ele>
        <time>2023-05-23T14:14:34Z</time>
      </trkpt>
      <trkpt lat="49.11247" lon="-0.38775">
        <ele>8.6</ele>
        <time>2023-05-23T14:14:35Z</time>
      </trkpt>
      <trkpt lat="49.11252" lon="-0.38779">
        <ele>8.6</ele>
        <time>2023-05-23T14:14:36Z</time>
      </trkpt>
      <trkpt lat="49.11258" lon="-0.38783">
        <ele>8.6</ele>
        <time>2023-05-23T14:14:37Z</time>
      </trkpt>
      <trkpt lat="49.11263" lon="-0.38787">
        <ele>8.4</ele>
        <time>2023-05-23T14:14:38Z</time>
      </trkpt>
      <trkpt lat="49.11269" lon="-0.38791">
        <ele>8.4</ele>
        <time>2023-05-23T14:14:39Z</time>
      </trkpt>
      <trkpt lat="49.11274" lon="-0.38795">
        <ele>8.2</ele>
        <time>2023-05-23T14:14:40Z</time>
      </trkpt>
      <trkpt lat="49.1128" lon="-0.38799">
        <ele>8.2</ele>
        <time>2023-05-23T14:14:41Z</time>
      </trkpt>
      <trkpt lat="49.11286" lon="-0.38804">
        <ele>8</ele>
        <time>2023-05-23T14:14:42Z</time>
      </trkpt>
      <trkpt lat="49.11291" lon="-0.38808">
        <ele>8</ele>
        <time>2023-05-23T14:14:43Z</time>
      </trkpt>
      <trkpt lat="49.11297" lon="-0.38813">
        <ele>8</ele>
        <time>2023-05-23T14:14:44Z</time>
      </trkpt>
      <trkpt lat="49.11303" lon="-0.38817">
        <ele>8</ele>
        <time>2023-05-23T14:14:45Z</time>
      </trkpt>
      <trkpt lat="49.11308" lon="-0.38822">
        <ele>8</ele>
        <time>2023-05-23T14:14:46Z</time>
      </trkpt>
      <trkpt lat="49.11314" lon="-0.38827">
        <ele>8</ele>
        <time>2023-05-23T14:14:47Z</time>
      </trkpt>
      <trkpt lat="49.11319" lon="-0.38833">
        <ele>8</ele>
        <time>2023-05-23T14:14:48Z</time>
      </trkpt>
      <trkpt lat="49.11324" lon="-0.38839">
        <ele>8.2</ele>
        <time>2023-05-23T14:14:49Z</time>
      </trkpt>
      <trkpt lat="49.11329" lon="-0.38845">
        <ele>8.2</ele>
        <time>2023-05-23T14:14:50Z</time>
      </trkpt>
      <trkpt lat="49.11334" lon="-0.3885">
        <ele>8.2</ele>
        <time>2023-05-23T14:14:51Z</time>
      </trkpt>
      <trkpt lat="49.11339" lon="-0.38855">
        <ele>8.2</ele>
        <time>2023-05-23T14:14:52Z</time>
      </trkpt>
      <trkpt lat="49.11344" lon="-0.3886">
        <ele>8.2</ele>
        <time>2023-05-23T14:14:53Z</time>
      </trkpt>
      <trkpt lat="49.1135" lon="-0.38864">
        <ele>8.2</ele>
        <time>2023-05-23T14:14:54Z</time>
      </trkpt>
      <trkpt lat="49.11355" lon="-0.38868">
        <ele>8</ele>
        <time>2023-05-23T14:14:55Z</time>
      </trkpt>
      <trkpt lat="49.1136" lon="-0.38872">
        <ele>8</ele>
        <time>2023-05-23T14:14:56Z</time>
      </trkpt>
      <trkpt lat="49.11365" lon="-0.38875">
        <ele>8</ele>
        <time>2023-05-23T14:14:57Z</time>
      </trkpt>
      <trkpt lat="49.11371" lon="-0.38879">
        <ele>8</ele>
        <time>2023-05-23T14:14:58Z</time>
      </trkpt>
      <trkpt lat="49.11376" lon="-0.38884">
        <ele>7.8</ele>
        <time>2023-05-23T14:14:59Z</time>
      </trkpt>
      <trkpt lat="49.11381" lon="-0.38888">
        <ele>7.6</ele>
        <time>2023-05-23T14:15:00Z</time>
      </trkpt>
      <trkpt lat="49.11386" lon="-0.38892">
        <ele>7.6</ele>
        <time>2023-05-23T14:15:01Z</time>
      </trkpt>
      <trkpt lat="49.11391" lon="-0.38896">
        <ele>7.6</ele>
        <time>2023-05-23T14:15:02Z</time>
      </trkpt>
      <trkpt lat="49.11396" lon="-0.389">
        <ele>7.6</ele>
        <time>2023-05-23T14:15:03Z</time>
      </trkpt>
      <trkpt lat="49.11401" lon="-0.38905">
        <ele>7.4</ele>
        <time>2023-05-23T14:15:04Z</time>
      </trkpt>
      <trkpt lat="49.11405" lon="-0.38908">
        <ele>7.4</ele>
        <time>2023-05-23T14:15:05Z</time>
      </trkpt>
      <trkpt lat="49.1141" lon="-0.38912">
        <ele>7.2</ele>
        <time>2023-05-23T14:15:06Z</time>
      </trkpt>
      <trkpt lat="49.11415" lon="-0.38915">
        <ele>7</ele>
        <time>2023-05-23T14:15:07Z</time>
      </trkpt>
      <trkpt lat="49.11419" lon="-0.38918">
        <ele>7</ele>
        <time>2023-05-23T14:15:08Z</time>
      </trkpt>
      <trkpt lat="49.11424" lon="-0.3892">
        <ele>7</ele>
        <time>2023-05-23T14:15:09Z</time>
      </trkpt>
      <trkpt lat="49.11429" lon="-0.38922">
        <ele>7.2</ele>
        <time>2023-05-23T14:15:10Z</time>
      </trkpt>
      <trkpt lat="49.11435" lon="-0.38925">
        <ele>7.2</ele>
        <time>2023-05-23T14:15:11Z</time>
      </trkpt>
      <trkpt lat="49.1144" lon="-0.38927">
        <ele>7.4</ele>
        <time>2023-05-23T14:15:12Z</time>
      </trkpt>
      <trkpt lat="49.11446" lon="-0.3893">
        <ele>7.4</ele>
        <time>2023-05-23T14:15:13Z</time>
      </trkpt>
      <trkpt lat="49.11452" lon="-0.38933">
        <ele>7.4</ele>
        <time>2023-05-23T14:15:14Z</time>
      </trkpt>
      <trkpt lat="49.11458" lon="-0.38936">
        <ele>7.4</ele>
        <time>2023-05-23T14:15:15Z</time>
      </trkpt>
      <trkpt lat="49.11464" lon="-0.38939">
        <ele>7.4</ele>
        <time>2023-05-23T14:15:16Z</time>
      </trkpt>
      <trkpt lat="49.11468" lon="-0.38942">
        <ele>7.4</ele>
        <time>2023-05-23T14:15:17Z</time>
      </trkpt>
      <trkpt lat="49.11473" lon="-0.38945">
        <ele>7.4</ele>
        <time>2023-05-23T14:15:18Z</time>
      </trkpt>
      <trkpt lat="49.11477" lon="-0.38949">
        <ele>7.4</ele>
        <time>2023-05-23T14:15:19Z</time>
      </trkpt>
      <trkpt lat="49.11481" lon="-0.38951">
        <ele>7.2</ele>
        <time>2023-05-23T14:15:20Z</time>
      </trkpt>
      <trkpt lat="49.11485" lon="-0.38954">
        <ele>7.2</ele>
        <time>2023-05-23T14:15:21Z</time>
      </trkpt>
      <trkpt lat="49.11487" lon="-0.38957">
        <ele>7</ele>
        <time>2023-05-23T14:15:22Z</time>
      </trkpt>
      <trkpt lat="49.11489" lon="-0.38959">
        <ele>7</ele>
        <time>2023-05-23T14:15:23Z</time>
      </trkpt>
      <trkpt lat="49.11491" lon="-0.38961">
        <ele>7</ele>
        <time>2023-05-23T14:15:24Z</time>
      </trkpt>
      <trkpt lat="49.11493" lon="-0.38963">
        <ele>7</ele>
        <time>2023-05-23T14:15:25Z</time>
      </trkpt>
      <trkpt lat="49.11496" lon="-0.38964">
        <ele>7</ele>
        <time>2023-05-23T14:15:26Z</time>
      </trkpt>
      <trkpt lat="49.11498" lon="-0.38966">
        <ele>6.8</ele>
        <time>2023-05-23T14:15:27Z</time>
      </trkpt>
      <trkpt lat="49.11501" lon="-0.38968">
        <ele>6.6</ele>
        <time>2023-05-23T14:15:28Z</time>
      </trkpt>
      <trkpt lat="49.11505" lon="-0.38971">
        <ele>6.6</ele>
        <time>2023-05-23T14:15:29Z</time>
      </trkpt>
      <trkpt lat="49.11508" lon="-0.38974">
        <ele>6.4</ele>
        <time>2023-05-23T14:15:30Z</time>
      </trkpt>
      <trkpt lat="49.11512" lon="-0.38978">
        <ele>6.2</ele>
        <time>2023-05-23T14:15:31Z</time>
      </trkpt>
      <trkpt lat="49.11517" lon="-0.38982">
        <ele>6</ele>
        <time>2023-05-23T14:15:32Z</time>
      </trkpt>
      <trkpt lat="49.11521" lon="-0.38987">
        <ele>5.8</ele>
        <time>2023-05-23T14:15:33Z</time>
      </trkpt>
      <trkpt lat="49.11526" lon="-0.38991">
        <ele>5.6</ele>
        <time>2023-05-23T14:15:34Z</time>
      </trkpt>
      <trkpt lat="49.1153" lon="-0.38996">
        <ele>5.4</ele>
        <time>2023-05-23T14:15:35Z</time>
      </trkpt>
      <trkpt lat="49.11535" lon="-0.39001">
        <ele>5.2</ele>
        <time>2023-05-23T14:15:36Z</time>
      </trkpt>
      <trkpt lat="49.1154" lon="-0.39006">
        <ele>5</ele>
        <time>2023-05-23T14:15:37Z</time>
      </trkpt>
      <trkpt lat="49.11546" lon="-0.39011">
        <ele>5</ele>
        <time>2023-05-23T14:15:38Z</time>
      </trkpt>
      <trkpt lat="49.11551" lon="-0.39016">
        <ele>5</ele>
        <time>2023-05-23T14:15:39Z</time>
      </trkpt>
      <trkpt lat="49.11556" lon="-0.39022">
        <ele>5</ele>
        <time>2023-05-23T14:15:40Z</time>
      </trkpt>
      <trkpt lat="49.11562" lon="-0.39027">
        <ele>4.8</ele>
        <time>2023-05-23T14:15:41Z</time>
      </trkpt>
      <trkpt lat="49.11567" lon="-0.39032">
        <ele>4.8</ele>
        <time>2023-05-23T14:15:42Z</time>
      </trkpt>
      <trkpt lat="49.11572" lon="-0.39038">
        <ele>4.6</ele>
        <time>2023-05-23T14:15:43Z</time>
      </trkpt>
      <trkpt lat="49.11578" lon="-0.39043">
        <ele>4.6</ele>
        <time>2023-05-23T14:15:44Z</time>
      </trkpt>
      <trkpt lat="49.11583" lon="-0.39049">
        <ele>4.6</ele>
        <time>2023-05-23T14:15:45Z</time>
      </trkpt>
      <trkpt lat="49.11588" lon="-0.39054">
        <ele>4.8</ele>
        <time>2023-05-23T14:15:46Z</time>
      </trkpt>
      <trkpt lat="49.11593" lon="-0.3906">
        <ele>5</ele>
        <time>2023-05-23T14:15:47Z</time>
      </trkpt>
      <trkpt lat="49.11598" lon="-0.39065">
        <ele>5</ele>
        <time>2023-05-23T14:15:48Z</time>
      </trkpt>
      <trkpt lat="49.11603" lon="-0.39071">
        <ele>5.4</ele>
        <time>2023-05-23T14:15:49Z</time>
      </trkpt>
      <trkpt lat="49.11609" lon="-0.39076">
        <ele>5.6</ele>
        <time>2023-05-23T14:15:50Z</time>
      </trkpt>
      <trkpt lat="49.11613" lon="-0.39082">
        <ele>5.6</ele>
        <time>2023-05-23T14:15:51Z</time>
      </trkpt>
      <trkpt lat="49.11618" lon="-0.39087">
        <ele>6</ele>
        <time>2023-05-23T14:15:52Z</time>
      </trkpt>
      <trkpt lat="49.11623" lon="-0.39093">
        <ele>6</ele>
        <time>2023-05-23T14:15:53Z</time>
      </trkpt>
      <trkpt lat="49.11628" lon="-0.39098">
        <ele>6.2</ele>
        <time>2023-05-23T14:15:54Z</time>
      </trkpt>
      <trkpt lat="49.11633" lon="-0.39104">
        <ele>6.4</ele>
        <time>2023-05-23T14:15:55Z</time>
      </trkpt>
      <trkpt lat="49.11638" lon="-0.39109">
        <ele>6.4</ele>
        <time>2023-05-23T14:15:56Z</time>
      </trkpt>
      <trkpt lat="49.11642" lon="-0.39115">
        <ele>6.6</ele>
        <time>2023-05-23T14:15:57Z</time>
      </trkpt>
      <trkpt lat="49.11647" lon="-0.3912">
        <ele>6.6</ele>
        <time>2023-05-23T14:15:58Z</time>
      </trkpt>
      <trkpt lat="49.11652" lon="-0.39126">
        <ele>6.6</ele>
        <time>2023-05-23T14:15:59Z</time>
      </trkpt>
      <trkpt lat="49.11656" lon="-0.39131">
        <ele>6.8</ele>
        <time>2023-05-23T14:16:00Z</time>
      </trkpt>
      <trkpt lat="49.11661" lon="-0.39136">
        <ele>7</ele>
        <time>2023-05-23T14:16:01Z</time>
      </trkpt>
      <trkpt lat="49.11665" lon="-0.39141">
        <ele>7</ele>
        <time>2023-05-23T14:16:02Z</time>
      </trkpt>
      <trkpt lat="49.11669" lon="-0.39147">
        <ele>7</ele>
        <time>2023-05-23T14:16:03Z</time>
      </trkpt>
      <trkpt lat="49.11673" lon="-0.39152">
        <ele>7</ele>
        <time>2023-05-23T14:16:04Z</time>
      </trkpt>
      <trkpt lat="49.11677" lon="-0.39156">
        <ele>7</ele>
        <time>2023-05-23T14:16:05Z</time>
      </trkpt>
      <trkpt lat="49.11681" lon="-0.39161">
        <ele>7</ele>
        <time>2023-05-23T14:16:06Z</time>
      </trkpt>
      <trkpt lat="49.11685" lon="-0.39165">
        <ele>7.2</ele>
        <time>2023-05-23T14:16:07Z</time>
      </trkpt>
      <trkpt lat="49.11689" lon="-0.39169">
        <ele>7.4</ele>
        <time>2023-05-23T14:16:08Z</time>
      </trkpt>
      <trkpt lat="49.11693" lon="-0.39173">
        <ele>7.6</ele>
        <time>2023-05-23T14:16:09Z</time>
      </trkpt>
      <trkpt lat="49.11697" lon="-0.39177">
        <ele>7.8</ele>
        <time>2023-05-23T14:16:10Z</time>
      </trkpt>
      <trkpt lat="49.11701" lon="-0.3918">
        <ele>8</ele>
        <time>2023-05-23T14:16:11Z</time>
      </trkpt>
      <trkpt lat="49.11705" lon="-0.39184">
        <ele>8.4</ele>
        <time>2023-05-23T14:16:12Z</time>
      </trkpt>
      <trkpt lat="49.11709" lon="-0.39187">
        <ele>8.6</ele>
        <time>2023-05-23T14:16:13Z</time>
      </trkpt>
      <trkpt lat="49.11713" lon="-0.3919">
        <ele>8.6</ele>
        <time>2023-05-23T14:16:14Z</time>
      </trkpt>
      <trkpt lat="49.11718" lon="-0.39193">
        <ele>8.8</ele>
        <time>2023-05-23T14:16:15Z</time>
      </trkpt>
      <trkpt lat="49.11722" lon="-0.39196">
        <ele>9.2</ele>
        <time>2023-05-23T14:16:16Z</time>
      </trkpt>
      <trkpt lat="49.11727" lon="-0.392">
        <ele>9.6</ele>
        <time>2023-05-23T14:16:17Z</time>
      </trkpt>
      <trkpt lat="49.11731" lon="-0.39204">
        <ele>9.8</ele>
        <time>2023-05-23T14:16:18Z</time>
      </trkpt>
      <trkpt lat="49.11736" lon="-0.39208">
        <ele>10.2</ele>
        <time>2023-05-23T14:16:19Z</time>
      </trkpt>
      <trkpt lat="49.1174" lon="-0.39212">
        <ele>10.6</ele>
        <time>2023-05-23T14:16:20Z</time>
      </trkpt>
      <trkpt lat="49.11744" lon="-0.39216">
        <ele>10.8</ele>
        <time>2023-05-23T14:16:21Z</time>
      </trkpt>
      <trkpt lat="49.11748" lon="-0.39221">
        <ele>11.2</ele>
        <time>2023-05-23T14:16:22Z</time>
      </trkpt>
      <trkpt lat="49.11752" lon="-0.39226">
        <ele>11.6</ele>
        <time>2023-05-23T14:16:23Z</time>
      </trkpt>
      <trkpt lat="49.11756" lon="-0.39231">
        <ele>11.8</ele>
        <time>2023-05-23T14:16:24Z</time>
      </trkpt>
      <trkpt lat="49.1176" lon="-0.39236">
        <ele>12</ele>
        <time>2023-05-23T14:16:25Z</time>
      </trkpt>
      <trkpt lat="49.11764" lon="-0.39241">
        <ele>12.4</ele>
        <time>2023-05-23T14:16:26Z</time>
      </trkpt>
      <trkpt lat="49.11769" lon="-0.39246">
        <ele>12.6</ele>
        <time>2023-05-23T14:16:27Z</time>
      </trkpt>
      <trkpt lat="49.11773" lon="-0.39251">
        <ele>12.8</ele>
        <time>2023-05-23T14:16:28Z</time>
      </trkpt>
      <trkpt lat="49.11776" lon="-0.39256">
        <ele>13.2</ele>
        <time>2023-05-23T14:16:29Z</time>
      </trkpt>
      <trkpt lat="49.11781" lon="-0.39262">
        <ele>13.4</ele>
        <time>2023-05-23T14:16:30Z</time>
      </trkpt>
      <trkpt lat="49.11785" lon="-0.39267">
        <ele>13.6</ele>
        <time>2023-05-23T14:16:31Z</time>
      </trkpt>
      <trkpt lat="49.11789" lon="-0.39273">
        <ele>14.2</ele>
        <time>2023-05-23T14:16:32Z</time>
      </trkpt>
      <trkpt lat="49.11793" lon="-0.39279">
        <ele>14.4</ele>
        <time>2023-05-23T14:16:33Z</time>
      </trkpt>
      <trkpt lat="49.11797" lon="-0.39284">
        <ele>14.6</ele>
        <time>2023-05-23T14:16:34Z</time>
      </trkpt>
      <trkpt lat="49.11801" lon="-0.3929">
        <ele>15</ele>
        <time>2023-05-23T14:16:35Z</time>
      </trkpt>
      <trkpt lat="49.11805" lon="-0.39296">
        <ele>15.4</ele>
        <time>2023-05-23T14:16:36Z</time>
      </trkpt>
      <trkpt lat="49.11808" lon="-0.39301">
        <ele>15.6</ele>
        <time>2023-05-23T14:16:37Z</time>
      </trkpt>
      <trkpt lat="49.11812" lon="-0.39306">
        <ele>15.8</ele>
        <time>2023-05-23T14:16:38Z</time>
      </trkpt>
      <trkpt lat="49.11816" lon="-0.39312">
        <ele>16.2</ele>
        <time>2023-05-23T14:16:39Z</time>
      </trkpt>
      <trkpt lat="49.1182" lon="-0.39317">
        <ele>16.2</ele>
        <time>2023-05-23T14:16:40Z</time>
      </trkpt>
      <trkpt lat="49.11824" lon="-0.39322">
        <ele>16.6</ele>
        <time>2023-05-23T14:16:41Z</time>
      </trkpt>
      <trkpt lat="49.11828" lon="-0.39327">
        <ele>16.8</ele>
        <time>2023-05-23T14:16:42Z</time>
      </trkpt>
      <trkpt lat="49.11832" lon="-0.39333">
        <ele>17</ele>
        <time>2023-05-23T14:16:43Z</time>
      </trkpt>
      <trkpt lat="49.11836" lon="-0.39338">
        <ele>17</ele>
        <time>2023-05-23T14:16:44Z</time>
      </trkpt>
      <trkpt lat="49.1184" lon="-0.39344">
        <ele>17</ele>
        <time>2023-05-23T14:16:45Z</time>
      </trkpt>
      <trkpt lat="49.11844" lon="-0.39349">
        <ele>16.8</ele>
        <time>2023-05-23T14:16:46Z</time>
      </trkpt>
      <trkpt lat="49.11848" lon="-0.39354">
        <ele>16.8</ele>
        <time>2023-05-23T14:16:47Z</time>
      </trkpt>
      <trkpt lat="49.11852" lon="-0.3936">
        <ele>16.8</ele>
        <time>2023-05-23T14:16:48Z</time>
      </trkpt>
      <trkpt lat="49.11856" lon="-0.39365">
        <ele>17</ele>
        <time>2023-05-23T14:16:49Z</time>
      </trkpt>
      <trkpt lat="49.1186" lon="-0.39371">
        <ele>17</ele>
        <time>2023-05-23T14:16:50Z</time>
      </trkpt>
      <trkpt lat="49.11863" lon="-0.39376">
        <ele>17.2</ele>
        <time>2023-05-23T14:16:51Z</time>
      </trkpt>
      <trkpt lat="49.11867" lon="-0.39382">
        <ele>17.2</ele>
        <time>2023-05-23T14:16:52Z</time>
      </trkpt>
      <trkpt lat="49.11871" lon="-0.39388">
        <ele>17.2</ele>
        <time>2023-05-23T14:16:53Z</time>
      </trkpt>
      <trkpt lat="49.11875" lon="-0.39393">
        <ele>17.6</ele>
        <time>2023-05-23T14:16:54Z</time>
      </trkpt>
      <trkpt lat="49.11879" lon="-0.39399">
        <ele>17.6</ele>
        <time>2023-05-23T14:16:55Z</time>
      </trkpt>
      <trkpt lat="49.11883" lon="-0.39405">
        <ele>17.8</ele>
        <time>2023-05-23T14:16:56Z</time>
      </trkpt>
      <trkpt lat="49.11887" lon="-0.39411">
        <ele>18</ele>
        <time>2023-05-23T14:16:57Z</time>
      </trkpt>
      <trkpt lat="49.1189" lon="-0.39417">
        <ele>18.2</ele>
        <time>2023-05-23T14:16:58Z</time>
      </trkpt>
      <trkpt lat="49.11894" lon="-0.39423">
        <ele>18.2</ele>
        <time>2023-05-23T14:16:59Z</time>
      </trkpt>
      <trkpt lat="49.11898" lon="-0.39428">
        <ele>18.2</ele>
        <time>2023-05-23T14:17:00Z</time>
      </trkpt>
      <trkpt lat="49.11902" lon="-0.39434">
        <ele>18.2</ele>
        <time>2023-05-23T14:17:01Z</time>
      </trkpt>
      <trkpt lat="49.11906" lon="-0.3944">
        <ele>18.2</ele>
        <time>2023-05-23T14:17:02Z</time>
      </trkpt>
      <trkpt lat="49.1191" lon="-0.39445">
        <ele>18.2</ele>
        <time>2023-05-23T14:17:03Z</time>
      </trkpt>
      <trkpt lat="49.11914" lon="-0.39451">
        <ele>18.2</ele>
        <time>2023-05-23T14:17:04Z</time>
      </trkpt>
      <trkpt lat="49.11918" lon="-0.39457">
        <ele>18.4</ele>
        <time>2023-05-23T14:17:05Z</time>
      </trkpt>
      <trkpt lat="49.11922" lon="-0.39462">
        <ele>18.4</ele>
        <time>2023-05-23T14:17:06Z</time>
      </trkpt>
      <trkpt lat="49.11927" lon="-0.39468">
        <ele>18.4</ele>
        <time>2023-05-23T14:17:07Z</time>
      </trkpt>
      <trkpt lat="49.11931" lon="-0.39474">
        <ele>18.6</ele>
        <time>2023-05-23T14:17:08Z</time>
      </trkpt>
      <trkpt lat="49.11934" lon="-0.3948">
        <ele>18.6</ele>
        <time>2023-05-23T14:17:09Z</time>
      </trkpt>
      <trkpt lat="49.11938" lon="-0.39486">
        <ele>18.8</ele>
        <time>2023-05-23T14:17:10Z</time>
      </trkpt>
      <trkpt lat="49.11942" lon="-0.39492">
        <ele>18.8</ele>
        <time>2023-05-23T14:17:11Z</time>
      </trkpt>
      <trkpt lat="49.11946" lon="-0.39498">
        <ele>18.8</ele>
        <time>2023-05-23T14:17:12Z</time>
      </trkpt>
      <trkpt lat="49.11949" lon="-0.39504">
        <ele>18.8</ele>
        <time>2023-05-23T14:17:13Z</time>
      </trkpt>
      <trkpt lat="49.11953" lon="-0.3951">
        <ele>18.8</ele>
        <time>2023-05-23T14:17:14Z</time>
      </trkpt>
      <trkpt lat="49.11957" lon="-0.39516">
        <ele>18.6</ele>
        <time>2023-05-23T14:17:15Z</time>
      </trkpt>
      <trkpt lat="49.11961" lon="-0.39522">
        <ele>18.4</ele>
        <time>2023-05-23T14:17:16Z</time>
      </trkpt>
      <trkpt lat="49.11965" lon="-0.39528">
        <ele>18.2</ele>
        <time>2023-05-23T14:17:17Z</time>
      </trkpt>
      <trkpt lat="49.1197" lon="-0.39534">
        <ele>18.2</ele>
        <time>2023-05-23T14:17:18Z</time>
      </trkpt>
      <trkpt lat="49.11974" lon="-0.3954">
        <ele>17.8</ele>
        <time>2023-05-23T14:17:19Z</time>
      </trkpt>
      <trkpt lat="49.11978" lon="-0.39546">
        <ele>17.8</ele>
        <time>2023-05-23T14:17:20Z</time>
      </trkpt>
      <trkpt lat="49.11982" lon="-0.39552">
        <ele>17.6</ele>
        <time>2023-05-23T14:17:21Z</time>
      </trkpt>
      <trkpt lat="49.11986" lon="-0.39559">
        <ele>17.6</ele>
        <time>2023-05-23T14:17:22Z</time>
      </trkpt>
      <trkpt lat="49.1199" lon="-0.39565">
        <ele>17.2</ele>
        <time>2023-05-23T14:17:23Z</time>
      </trkpt>
      <trkpt lat="49.11995" lon="-0.39572">
        <ele>17.2</ele>
        <time>2023-05-23T14:17:24Z</time>
      </trkpt>
      <trkpt lat="49.11999" lon="-0.39578">
        <ele>17</ele>
        <time>2023-05-23T14:17:25Z</time>
      </trkpt>
      <trkpt lat="49.12003" lon="-0.39584">
        <ele>17</ele>
        <time>2023-05-23T14:17:26Z</time>
      </trkpt>
      <trkpt lat="49.12007" lon="-0.3959">
        <ele>17.2</ele>
        <time>2023-05-23T14:17:27Z</time>
      </trkpt>
      <trkpt lat="49.12011" lon="-0.39597">
        <ele>17.2</ele>
        <time>2023-05-23T14:17:28Z</time>
      </trkpt>
      <trkpt lat="49.12015" lon="-0.39603">
        <ele>17.2</ele>
        <time>2023-05-23T14:17:29Z</time>
      </trkpt>
      <trkpt lat="49.1202" lon="-0.39609">
        <ele>17.2</ele>
        <time>2023-05-23T14:17:30Z</time>
      </trkpt>
      <trkpt lat="49.12024" lon="-0.39616">
        <ele>17.4</ele>
        <time>2023-05-23T14:17:31Z</time>
      </trkpt>
      <trkpt lat="49.12029" lon="-0.39622">
        <ele>17.4</ele>
        <time>2023-05-23T14:17:32Z</time>
      </trkpt>
      <trkpt lat="49.12033" lon="-0.39628">
        <ele>17.4</ele>
        <time>2023-05-23T14:17:33Z</time>
      </trkpt>
      <trkpt lat="49.12037" lon="-0.39634">
        <ele>17.4</ele>
        <time>2023-05-23T14:17:34Z</time>
      </trkpt>
      <trkpt lat="49.12041" lon="-0.3964">
        <ele>17.4</ele>
        <time>2023-05-23T14:17:35Z</time>
      </trkpt>
      <trkpt lat="49.12046" lon="-0.39647">
        <ele>17.4</ele>
        <time>2023-05-23T14:17:36Z</time>
      </trkpt>
      <trkpt lat="49.1205" lon="-0.39653">
        <ele>17.2</ele>
        <time>2023-05-23T14:17:37Z</time>
      </trkpt>
      <trkpt lat="49.12054" lon="-0.39659">
        <ele>17.2</ele>
        <time>2023-05-23T14:17:38Z</time>
      </trkpt>
      <trkpt lat="49.12059" lon="-0.39666">
        <ele>17.2</ele>
        <time>2023-05-23T14:17:39Z</time>
      </trkpt>
      <trkpt lat="49.12063" lon="-0.39672">
        <ele>17.2</ele>
        <time>2023-05-23T14:17:40Z</time>
      </trkpt>
      <trkpt lat="49.12068" lon="-0.39679">
        <ele>17.2</ele>
        <time>2023-05-23T14:17:41Z</time>
      </trkpt>
      <trkpt lat="49.12072" lon="-0.39686">
        <ele>17.4</ele>
        <time>2023-05-23T14:17:42Z</time>
      </trkpt>
      <trkpt lat="49.12077" lon="-0.39692">
        <ele>17.6</ele>
        <time>2023-05-23T14:17:43Z</time>
      </trkpt>
      <trkpt lat="49.12081" lon="-0.39699">
        <ele>17.6</ele>
        <time>2023-05-23T14:17:44Z</time>
      </trkpt>
      <trkpt lat="49.12086" lon="-0.39706">
        <ele>17.8</ele>
        <time>2023-05-23T14:17:45Z</time>
      </trkpt>
      <trkpt lat="49.12091" lon="-0.39712">
        <ele>17.8</ele>
        <time>2023-05-23T14:17:46Z</time>
      </trkpt>
      <trkpt lat="49.12095" lon="-0.39719">
        <ele>17.8</ele>
        <time>2023-05-23T14:17:47Z</time>
      </trkpt>
      <trkpt lat="49.121" lon="-0.39726">
        <ele>17.8</ele>
        <time>2023-05-23T14:17:48Z</time>
      </trkpt>
      <trkpt lat="49.12105" lon="-0.39732">
        <ele>18</ele>
        <time>2023-05-23T14:17:49Z</time>
      </trkpt>
      <trkpt lat="49.1211" lon="-0.39739">
        <ele>18</ele>
        <time>2023-05-23T14:17:50Z</time>
      </trkpt>
      <trkpt lat="49.12114" lon="-0.39745">
        <ele>18</ele>
        <time>2023-05-23T14:17:51Z</time>
      </trkpt>
      <trkpt lat="49.12119" lon="-0.39752">
        <ele>17.8</ele>
        <time>2023-05-23T14:17:52Z</time>
      </trkpt>
      <trkpt lat="49.12124" lon="-0.39758">
        <ele>17.8</ele>
        <time>2023-05-23T14:17:53Z</time>
      </trkpt>
      <trkpt lat="49.12128" lon="-0.39765">
        <ele>17.8</ele>
        <time>2023-05-23T14:17:54Z</time>
      </trkpt>
      <trkpt lat="49.12133" lon="-0.39771">
        <ele>17.8</ele>
        <time>2023-05-23T14:17:55Z</time>
      </trkpt>
      <trkpt lat="49.12138" lon="-0.39777">
        <ele>17.8</ele>
        <time>2023-05-23T14:17:56Z</time>
      </trkpt>
      <trkpt lat="49.12143" lon="-0.39783">
        <ele>17.8</ele>
        <time>2023-05-23T14:17:57Z</time>
      </trkpt>
      <trkpt lat="49.12147" lon="-0.39789">
        <ele>17.8</ele>
        <time>2023-05-23T14:17:58Z</time>
      </trkpt>
      <trkpt lat="49.12152" lon="-0.39796">
        <ele>17.8</ele>
        <time>2023-05-23T14:17:59Z</time>
      </trkpt>
      <trkpt lat="49.12157" lon="-0.39802">
        <ele>17.8</ele>
        <time>2023-05-23T14:18:00Z</time>
      </trkpt>
      <trkpt lat="49.12162" lon="-0.39808">
        <ele>18</ele>
        <time>2023-05-23T14:18:01Z</time>
      </trkpt>
      <trkpt lat="49.12167" lon="-0.39814">
        <ele>18.2</ele>
        <time>2023-05-23T14:18:02Z</time>
      </trkpt>
      <trkpt lat="49.12171" lon="-0.3982">
        <ele>18.2</ele>
        <time>2023-05-23T14:18:03Z</time>
      </trkpt>
      <trkpt lat="49.12176" lon="-0.39826">
        <ele>18.2</ele>
        <time>2023-05-23T14:18:04Z</time>
      </trkpt>
      <trkpt lat="49.12181" lon="-0.39831">
        <ele>18</ele>
        <time>2023-05-23T14:18:05Z</time>
      </trkpt>
      <trkpt lat="49.12186" lon="-0.39837">
        <ele>17.8</ele>
        <time>2023-05-23T14:18:06Z</time>
      </trkpt>
      <trkpt lat="49.12191" lon="-0.39843">
        <ele>17.8</ele>
        <time>2023-05-23T14:18:07Z</time>
      </trkpt>
      <trkpt lat="49.12196" lon="-0.39849">
        <ele>17.6</ele>
        <time>2023-05-23T14:18:08Z</time>
      </trkpt>
      <trkpt lat="49.12201" lon="-0.39854">
        <ele>17.4</ele>
        <time>2023-05-23T14:18:09Z</time>
      </trkpt>
      <trkpt lat="49.12206" lon="-0.3986">
        <ele>17.2</ele>
        <time>2023-05-23T14:18:10Z</time>
      </trkpt>
      <trkpt lat="49.12211" lon="-0.39866">
        <ele>17.2</ele>
        <time>2023-05-23T14:18:11Z</time>
      </trkpt>
      <trkpt lat="49.12216" lon="-0.39871">
        <ele>17</ele>
        <time>2023-05-23T14:18:12Z</time>
      </trkpt>
      <trkpt lat="49.12221" lon="-0.39877">
        <ele>16.8</ele>
        <time>2023-05-23T14:18:13Z</time>
      </trkpt>
      <trkpt lat="49.12226" lon="-0.39882">
        <ele>16.8</ele>
        <time>2023-05-23T14:18:14Z</time>
      </trkpt>
      <trkpt lat="49.12231" lon="-0.39888">
        <ele>16.8</ele>
        <time>2023-05-23T14:18:15Z</time>
      </trkpt>
      <trkpt lat="49.12236" lon="-0.39893">
        <ele>16.8</ele>
        <time>2023-05-23T14:18:16Z</time>
      </trkpt>
      <trkpt lat="49.12242" lon="-0.39899">
        <ele>16.8</ele>
        <time>2023-05-23T14:18:17Z</time>
      </trkpt>
      <trkpt lat="49.12247" lon="-0.39904">
        <ele>16.6</ele>
        <time>2023-05-23T14:18:18Z</time>
      </trkpt>
      <trkpt lat="49.12253" lon="-0.39909">
        <ele>16.6</ele>
        <time>2023-05-23T14:18:19Z</time>
      </trkpt>
      <trkpt lat="49.12258" lon="-0.39914">
        <ele>16.2</ele>
        <time>2023-05-23T14:18:20Z</time>
      </trkpt>
      <trkpt lat="49.12263" lon="-0.39919">
        <ele>16.2</ele>
        <time>2023-05-23T14:18:21Z</time>
      </trkpt>
      <trkpt lat="49.12269" lon="-0.39923">
        <ele>15.8</ele>
        <time>2023-05-23T14:18:22Z</time>
      </trkpt>
      <trkpt lat="49.12274" lon="-0.39928">
        <ele>15.6</ele>
        <time>2023-05-23T14:18:23Z</time>
      </trkpt>
      <trkpt lat="49.12279" lon="-0.39933">
        <ele>15.6</ele>
        <time>2023-05-23T14:18:24Z</time>
      </trkpt>
      <trkpt lat="49.12285" lon="-0.39938">
        <ele>15.4</ele>
        <time>2023-05-23T14:18:25Z</time>
      </trkpt>
      <trkpt lat="49.1229" lon="-0.39943">
        <ele>15.2</ele>
        <time>2023-05-23T14:18:26Z</time>
      </trkpt>
      <trkpt lat="49.12295" lon="-0.39948">
        <ele>15.2</ele>
        <time>2023-05-23T14:18:27Z</time>
      </trkpt>
      <trkpt lat="49.12301" lon="-0.39953">
        <ele>14.8</ele>
        <time>2023-05-23T14:18:28Z</time>
      </trkpt>
      <trkpt lat="49.12306" lon="-0.39958">
        <ele>14.8</ele>
        <time>2023-05-23T14:18:29Z</time>
      </trkpt>
      <trkpt lat="49.12311" lon="-0.39963">
        <ele>14.6</ele>
        <time>2023-05-23T14:18:30Z</time>
      </trkpt>
      <trkpt lat="49.12316" lon="-0.39968">
        <ele>14.6</ele>
        <time>2023-05-23T14:18:31Z</time>
      </trkpt>
      <trkpt lat="49.12322" lon="-0.39973">
        <ele>14.4</ele>
        <time>2023-05-23T14:18:32Z</time>
      </trkpt>
      <trkpt lat="49.12327" lon="-0.39977">
        <ele>14.4</ele>
        <time>2023-05-23T14:18:33Z</time>
      </trkpt>
      <trkpt lat="49.12333" lon="-0.39982">
        <ele>14.2</ele>
        <time>2023-05-23T14:18:34Z</time>
      </trkpt>
      <trkpt lat="49.12338" lon="-0.39986">
        <ele>14</ele>
        <time>2023-05-23T14:18:35Z</time>
      </trkpt>
      <trkpt lat="49.12344" lon="-0.3999">
        <ele>13.6</ele>
        <time>2023-05-23T14:18:36Z</time>
      </trkpt>
      <trkpt lat="49.1235" lon="-0.39995">
        <ele>13.4</ele>
        <time>2023-05-23T14:18:37Z</time>
      </trkpt>
      <trkpt lat="49.12355" lon="-0.39999">
        <ele>13.2</ele>
        <time>2023-05-23T14:18:38Z</time>
      </trkpt>
      <trkpt lat="49.12361" lon="-0.40003">
        <ele>12.8</ele>
        <time>2023-05-23T14:18:39Z</time>
      </trkpt>
      <trkpt lat="49.12367" lon="-0.40008">
        <ele>12.6</ele>
        <time>2023-05-23T14:18:40Z</time>
      </trkpt>
      <trkpt lat="49.12374" lon="-0.40012">
        <ele>12.4</ele>
        <time>2023-05-23T14:18:41Z</time>
      </trkpt>
      <trkpt lat="49.1238" lon="-0.40017">
        <ele>12.2</ele>
        <time>2023-05-23T14:18:42Z</time>
      </trkpt>
      <trkpt lat="49.12385" lon="-0.40021">
        <ele>12</ele>
        <time>2023-05-23T14:18:43Z</time>
      </trkpt>
      <trkpt lat="49.12391" lon="-0.40025">
        <ele>11.6</ele>
        <time>2023-05-23T14:18:44Z</time>
      </trkpt>
      <trkpt lat="49.12397" lon="-0.40029">
        <ele>11.6</ele>
        <time>2023-05-23T14:18:45Z</time>
      </trkpt>
      <trkpt lat="49.12403" lon="-0.40034">
        <ele>11.2</ele>
        <time>2023-05-23T14:18:46Z</time>
      </trkpt>
      <trkpt lat="49.12409" lon="-0.40038">
        <ele>10.8</ele>
        <time>2023-05-23T14:18:47Z</time>
      </trkpt>
      <trkpt lat="49.12415" lon="-0.40042">
        <ele>10.6</ele>
        <time>2023-05-23T14:18:48Z</time>
      </trkpt>
      <trkpt lat="49.12421" lon="-0.40046">
        <ele>10.6</ele>
        <time>2023-05-23T14:18:49Z</time>
      </trkpt>
      <trkpt lat="49.12426" lon="-0.4005">
        <ele>10.6</ele>
        <time>2023-05-23T14:18:50Z</time>
      </trkpt>
      <trkpt lat="49.12432" lon="-0.40054">
        <ele>10.6</ele>
        <time>2023-05-23T14:18:51Z</time>
      </trkpt>
      <trkpt lat="49.12438" lon="-0.40058">
        <ele>10.6</ele>
        <time>2023-05-23T14:18:52Z</time>
      </trkpt>
      <trkpt lat="49.12444" lon="-0.40062">
        <ele>10.4</ele>
        <time>2023-05-23T14:18:53Z</time>
      </trkpt>
      <trkpt lat="49.12449" lon="-0.40066">
        <ele>10.4</ele>
        <time>2023-05-23T14:18:54Z</time>
      </trkpt>
      <trkpt lat="49.12455" lon="-0.4007">
        <ele>10.2</ele>
        <time>2023-05-23T14:18:55Z</time>
      </trkpt>
      <trkpt lat="49.12461" lon="-0.40074">
        <ele>10</ele>
        <time>2023-05-23T14:18:56Z</time>
      </trkpt>
      <trkpt lat="49.12466" lon="-0.40078">
        <ele>9.8</ele>
        <time>2023-05-23T14:18:57Z</time>
      </trkpt>
      <trkpt lat="49.12472" lon="-0.40081">
        <ele>9.6</ele>
        <time>2023-05-23T14:18:58Z</time>
      </trkpt>
      <trkpt lat="49.12477" lon="-0.40085">
        <ele>9.6</ele>
        <time>2023-05-23T14:18:59Z</time>
      </trkpt>
      <trkpt lat="49.12483" lon="-0.40089">
        <ele>9.4</ele>
        <time>2023-05-23T14:19:00Z</time>
      </trkpt>
      <trkpt lat="49.12489" lon="-0.40093">
        <ele>9.2</ele>
        <time>2023-05-23T14:19:01Z</time>
      </trkpt>
      <trkpt lat="49.12494" lon="-0.40096">
        <ele>8.8</ele>
        <time>2023-05-23T14:19:02Z</time>
      </trkpt>
      <trkpt lat="49.12501" lon="-0.401">
        <ele>8.6</ele>
        <time>2023-05-23T14:19:03Z</time>
      </trkpt>
      <trkpt lat="49.12506" lon="-0.40104">
        <ele>8.8</ele>
        <time>2023-05-23T14:19:04Z</time>
      </trkpt>
      <trkpt lat="49.12512" lon="-0.40108">
        <ele>8.8</ele>
        <time>2023-05-23T14:19:05Z</time>
      </trkpt>
      <trkpt lat="49.12518" lon="-0.40113">
        <ele>9</ele>
        <time>2023-05-23T14:19:06Z</time>
      </trkpt>
      <trkpt lat="49.12524" lon="-0.40117">
        <ele>9</ele>
        <time>2023-05-23T14:19:07Z</time>
      </trkpt>
      <trkpt lat="49.1253" lon="-0.40121">
        <ele>9.2</ele>
        <time>2023-05-23T14:19:08Z</time>
      </trkpt>
      <trkpt lat="49.12535" lon="-0.40126">
        <ele>9.2</ele>
        <time>2023-05-23T14:19:09Z</time>
      </trkpt>
      <trkpt lat="49.12541" lon="-0.4013">
        <ele>9.2</ele>
        <time>2023-05-23T14:19:10Z</time>
      </trkpt>
      <trkpt lat="49.12547" lon="-0.40133">
        <ele>9</ele>
        <time>2023-05-23T14:19:11Z</time>
      </trkpt>
      <trkpt lat="49.12552" lon="-0.40137">
        <ele>8.8</ele>
        <time>2023-05-23T14:19:12Z</time>
      </trkpt>
      <trkpt lat="49.12558" lon="-0.40141">
        <ele>8.8</ele>
        <time>2023-05-23T14:19:13Z</time>
      </trkpt>
      <trkpt lat="49.12563" lon="-0.40146">
        <ele>8.6</ele>
        <time>2023-05-23T14:19:14Z</time>
      </trkpt>
      <trkpt lat="49.12568" lon="-0.4015">
        <ele>8.6</ele>
        <time>2023-05-23T14:19:15Z</time>
      </trkpt>
      <trkpt lat="49.12573" lon="-0.40154">
        <ele>8.4</ele>
        <time>2023-05-23T14:19:16Z</time>
      </trkpt>
      <trkpt lat="49.12578" lon="-0.40158">
        <ele>8.4</ele>
        <time>2023-05-23T14:19:17Z</time>
      </trkpt>
      <trkpt lat="49.12584" lon="-0.40161">
        <ele>8.2</ele>
        <time>2023-05-23T14:19:18Z</time>
      </trkpt>
      <trkpt lat="49.1259" lon="-0.40165">
        <ele>8.4</ele>
        <time>2023-05-23T14:19:19Z</time>
      </trkpt>
      <trkpt lat="49.12596" lon="-0.40169">
        <ele>8.6</ele>
        <time>2023-05-23T14:19:20Z</time>
      </trkpt>
      <trkpt lat="49.12602" lon="-0.40172">
        <ele>8.8</ele>
        <time>2023-05-23T14:19:21Z</time>
      </trkpt>
      <trkpt lat="49.12608" lon="-0.40176">
        <ele>9</ele>
        <time>2023-05-23T14:19:22Z</time>
      </trkpt>
      <trkpt lat="49.12614" lon="-0.4018">
        <ele>9.2</ele>
        <time>2023-05-23T14:19:23Z</time>
      </trkpt>
      <trkpt lat="49.1262" lon="-0.40183">
        <ele>9.4</ele>
        <time>2023-05-23T14:19:24Z</time>
      </trkpt>
      <trkpt lat="49.12626" lon="-0.40187">
        <ele>9.6</ele>
        <time>2023-05-23T14:19:25Z</time>
      </trkpt>
      <trkpt lat="49.12633" lon="-0.4019">
        <ele>9.6</ele>
        <time>2023-05-23T14:19:26Z</time>
      </trkpt>
      <trkpt lat="49.12639" lon="-0.40194">
        <ele>9.8</ele>
        <time>2023-05-23T14:19:27Z</time>
      </trkpt>
      <trkpt lat="49.12645" lon="-0.40197">
        <ele>10.2</ele>
        <time>2023-05-23T14:19:28Z</time>
      </trkpt>
      <trkpt lat="49.12652" lon="-0.402">
        <ele>10.2</ele>
        <time>2023-05-23T14:19:29Z</time>
      </trkpt>
      <trkpt lat="49.12658" lon="-0.40203">
        <ele>10.4</ele>
        <time>2023-05-23T14:19:30Z</time>
      </trkpt>
      <trkpt lat="49.12665" lon="-0.40206">
        <ele>10.6</ele>
        <time>2023-05-23T14:19:31Z</time>
      </trkpt>
      <trkpt lat="49.12671" lon="-0.40209">
        <ele>10.6</ele>
        <time>2023-05-23T14:19:32Z</time>
      </trkpt>
      <trkpt lat="49.12677" lon="-0.40213">
        <ele>10.4</ele>
        <time>2023-05-23T14:19:33Z</time>
      </trkpt>
      <trkpt lat="49.12683" lon="-0.40216">
        <ele>10.2</ele>
        <time>2023-05-23T14:19:34Z</time>
      </trkpt>
      <trkpt lat="49.12689" lon="-0.40219">
        <ele>10.2</ele>
        <time>2023-05-23T14:19:35Z</time>
      </trkpt>
      <trkpt lat="49.12695" lon="-0.40221">
        <ele>10</ele>
        <time>2023-05-23T14:19:36Z</time>
      </trkpt>
      <trkpt lat="49.12701" lon="-0.40222">
        <ele>10</ele>
        <time>2023-05-23T14:19:37Z</time>
      </trkpt>
      <trkpt lat="49.12707" lon="-0.40222">
        <ele>10</ele>
        <time>2023-05-23T14:19:38Z</time>
      </trkpt>
      <trkpt lat="49.12713" lon="-0.40221">
        <ele>10</ele>
        <time>2023-05-23T14:19:39Z</time>
      </trkpt>
      <trkpt lat="49.1272" lon="-0.4022">
        <ele>10.2</ele>
        <time>2023-05-23T14:19:40Z</time>
      </trkpt>
      <trkpt lat="49.12726" lon="-0.4022">
        <ele>10.2</ele>
        <time>2023-05-23T14:19:41Z</time>
      </trkpt>
      <trkpt lat="49.12733" lon="-0.40221">
        <ele>10</ele>
        <time>2023-05-23T14:19:42Z</time>
      </trkpt>
      <trkpt lat="49.12739" lon="-0.40223">
        <ele>10</ele>
        <time>2023-05-23T14:19:43Z</time>
      </trkpt>
      <trkpt lat="49.12746" lon="-0.40225">
        <ele>9.8</ele>
        <time>2023-05-23T14:19:44Z</time>
      </trkpt>
      <trkpt lat="49.12752" lon="-0.40226">
        <ele>9.8</ele>
        <time>2023-05-23T14:19:45Z</time>
      </trkpt>
      <trkpt lat="49.12759" lon="-0.40228">
        <ele>9.6</ele>
        <time>2023-05-23T14:19:46Z</time>
      </trkpt>
      <trkpt lat="49.12766" lon="-0.40229">
        <ele>9.6</ele>
        <time>2023-05-23T14:19:47Z</time>
      </trkpt>
      <trkpt lat="49.12773" lon="-0.40231">
        <ele>9.4</ele>
        <time>2023-05-23T14:19:48Z</time>
      </trkpt>
      <trkpt lat="49.12779" lon="-0.40232">
        <ele>9.2</ele>
        <time>2023-05-23T14:19:49Z</time>
      </trkpt>
      <trkpt lat="49.12786" lon="-0.40234">
        <ele>8.8</ele>
        <time>2023-05-23T14:19:50Z</time>
      </trkpt>
      <trkpt lat="49.12793" lon="-0.40235">
        <ele>8.6</ele>
        <time>2023-05-23T14:19:51Z</time>
      </trkpt>
      <trkpt lat="49.128" lon="-0.40236">
        <ele>8.6</ele>
        <time>2023-05-23T14:19:52Z</time>
      </trkpt>
      <trkpt lat="49.12806" lon="-0.40237">
        <ele>8.4</ele>
        <time>2023-05-23T14:19:53Z</time>
      </trkpt>
      <trkpt lat="49.12813" lon="-0.40238">
        <ele>8.2</ele>
        <time>2023-05-23T14:19:54Z</time>
      </trkpt>
      <trkpt lat="49.1282" lon="-0.40239">
        <ele>8</ele>
        <time>2023-05-23T14:19:55Z</time>
      </trkpt>
      <trkpt lat="49.12827" lon="-0.4024">
        <ele>7.6</ele>
        <time>2023-05-23T14:19:56Z</time>
      </trkpt>
      <trkpt lat="49.12834" lon="-0.40241">
        <ele>7.6</ele>
        <time>2023-05-23T14:19:57Z</time>
      </trkpt>
      <trkpt lat="49.12841" lon="-0.40241">
        <ele>7.6</ele>
        <time>2023-05-23T14:19:58Z</time>
      </trkpt>
      <trkpt lat="49.12847" lon="-0.40241">
        <ele>7.6</ele>
        <time>2023-05-23T14:19:59Z</time>
      </trkpt>
      <trkpt lat="49.12854" lon="-0.40242">
        <ele>7.6</ele>
        <time>2023-05-23T14:20:00Z</time>
      </trkpt>
      <trkpt lat="49.12861" lon="-0.40242">
        <ele>7.6</ele>
        <time>2023-05-23T14:20:01Z</time>
      </trkpt>
      <trkpt lat="49.12868" lon="-0.40242">
        <ele>7.6</ele>
        <time>2023-05-23T14:20:02Z</time>
      </trkpt>
      <trkpt lat="49.12875" lon="-0.40242">
        <ele>7.6</ele>
        <time>2023-05-23T14:20:03Z</time>
      </trkpt>
      <trkpt lat="49.12882" lon="-0.40241">
        <ele>7.6</ele>
        <time>2023-05-23T14:20:04Z</time>
      </trkpt>
      <trkpt lat="49.12889" lon="-0.40241">
        <ele>7.6</ele>
        <time>2023-05-23T14:20:05Z</time>
      </trkpt>
      <trkpt lat="49.12896" lon="-0.40241">
        <ele>7.6</ele>
        <time>2023-05-23T14:20:06Z</time>
      </trkpt>
      <trkpt lat="49.12903" lon="-0.4024">
        <ele>7.6</ele>
        <time>2023-05-23T14:20:07Z</time>
      </trkpt>
      <trkpt lat="49.12909" lon="-0.4024">
        <ele>7.6</ele>
        <time>2023-05-23T14:20:08Z</time>
      </trkpt>
      <trkpt lat="49.12916" lon="-0.40239">
        <ele>7.6</ele>
        <time>2023-05-23T14:20:09Z</time>
      </trkpt>
      <trkpt lat="49.12923" lon="-0.40239">
        <ele>7.8</ele>
        <time>2023-05-23T14:20:10Z</time>
      </trkpt>
      <trkpt lat="49.12929" lon="-0.40238">
        <ele>8</ele>
        <time>2023-05-23T14:20:11Z</time>
      </trkpt>
      <trkpt lat="49.12936" lon="-0.40238">
        <ele>8.2</ele>
        <time>2023-05-23T14:20:12Z</time>
      </trkpt>
      <trkpt lat="49.12942" lon="-0.40237">
        <ele>8.4</ele>
        <time>2023-05-23T14:20:13Z</time>
      </trkpt>
      <trkpt lat="49.12948" lon="-0.40236">
        <ele>8.6</ele>
        <time>2023-05-23T14:20:14Z</time>
      </trkpt>
      <trkpt lat="49.12954" lon="-0.40235">
        <ele>8.6</ele>
        <time>2023-05-23T14:20:15Z</time>
      </trkpt>
      <trkpt lat="49.12959" lon="-0.40234">
        <ele>8.8</ele>
        <time>2023-05-23T14:20:16Z</time>
      </trkpt>
      <trkpt lat="49.12964" lon="-0.40233">
        <ele>8.8</ele>
        <time>2023-05-23T14:20:17Z</time>
      </trkpt>
      <trkpt lat="49.12969" lon="-0.40231">
        <ele>9.2</ele>
        <time>2023-05-23T14:20:18Z</time>
      </trkpt>
      <trkpt lat="49.12973" lon="-0.4023">
        <ele>9.2</ele>
        <time>2023-05-23T14:20:19Z</time>
      </trkpt>
      <trkpt lat="49.12978" lon="-0.40229">
        <ele>9.4</ele>
        <time>2023-05-23T14:20:20Z</time>
      </trkpt>
      <trkpt lat="49.12984" lon="-0.40229">
        <ele>9.6</ele>
        <time>2023-05-23T14:20:21Z</time>
      </trkpt>
      <trkpt lat="49.12989" lon="-0.40229">
        <ele>9.6</ele>
        <time>2023-05-23T14:20:22Z</time>
      </trkpt>
      <trkpt lat="49.12994" lon="-0.40228">
        <ele>9.6</ele>
        <time>2023-05-23T14:20:23Z</time>
      </trkpt>
      <trkpt lat="49.12999" lon="-0.40226">
        <ele>9.8</ele>
        <time>2023-05-23T14:20:24Z</time>
      </trkpt>
      <trkpt lat="49.13004" lon="-0.40225">
        <ele>9.8</ele>
        <time>2023-05-23T14:20:25Z</time>
      </trkpt>
      <trkpt lat="49.13009" lon="-0.40222">
        <ele>9.8</ele>
        <time>2023-05-23T14:20:26Z</time>
      </trkpt>
      <trkpt lat="49.13015" lon="-0.4022">
        <ele>9.6</ele>
        <time>2023-05-23T14:20:27Z</time>
      </trkpt>
      <trkpt lat="49.13022" lon="-0.40217">
        <ele>9.6</ele>
        <time>2023-05-23T14:20:28Z</time>
      </trkpt>
      <trkpt lat="49.13029" lon="-0.40214">
        <ele>9.6</ele>
        <time>2023-05-23T14:20:29Z</time>
      </trkpt>
      <trkpt lat="49.13037" lon="-0.40211">
        <ele>9.6</ele>
        <time>2023-05-23T14:20:30Z</time>
      </trkpt>
      <trkpt lat="49.13045" lon="-0.40208">
        <ele>9.4</ele>
        <time>2023-05-23T14:20:31Z</time>
      </trkpt>
      <trkpt lat="49.13052" lon="-0.40205">
        <ele>9.4</ele>
        <time>2023-05-23T14:20:32Z</time>
      </trkpt>
      <trkpt lat="49.1306" lon="-0.40202">
        <ele>9.4</ele>
        <time>2023-05-23T14:20:33Z</time>
      </trkpt>
      <trkpt lat="49.13067" lon="-0.402">
        <ele>9.2</ele>
        <time>2023-05-23T14:20:34Z</time>
      </trkpt>
      <trkpt lat="49.13074" lon="-0.40197">
        <ele>9.2</ele>
        <time>2023-05-23T14:20:35Z</time>
      </trkpt>
      <trkpt lat="49.13081" lon="-0.40194">
        <ele>9.2</ele>
        <time>2023-05-23T14:20:36Z</time>
      </trkpt>
      <trkpt lat="49.13088" lon="-0.40191">
        <ele>9</ele>
        <time>2023-05-23T14:20:37Z</time>
      </trkpt>
      <trkpt lat="49.13095" lon="-0.40187">
        <ele>8.8</ele>
        <time>2023-05-23T14:20:38Z</time>
      </trkpt>
      <trkpt lat="49.13102" lon="-0.40184">
        <ele>8.8</ele>
        <time>2023-05-23T14:20:39Z</time>
      </trkpt>
      <trkpt lat="49.13109" lon="-0.40181">
        <ele>8.6</ele>
        <time>2023-05-23T14:20:40Z</time>
      </trkpt>
      <trkpt lat="49.13116" lon="-0.40178">
        <ele>8.6</ele>
        <time>2023-05-23T14:20:41Z</time>
      </trkpt>
      <trkpt lat="49.13122" lon="-0.40175">
        <ele>8.4</ele>
        <time>2023-05-23T14:20:42Z</time>
      </trkpt>
      <trkpt lat="49.13129" lon="-0.40172">
        <ele>8.2</ele>
        <time>2023-05-23T14:20:43Z</time>
      </trkpt>
      <trkpt lat="49.13135" lon="-0.40167">
        <ele>8.2</ele>
        <time>2023-05-23T14:20:44Z</time>
      </trkpt>
      <trkpt lat="49.13142" lon="-0.40163">
        <ele>8</ele>
        <time>2023-05-23T14:20:45Z</time>
      </trkpt>
      <trkpt lat="49.13148" lon="-0.40158">
        <ele>8</ele>
        <time>2023-05-23T14:20:46Z</time>
      </trkpt>
      <trkpt lat="49.13155" lon="-0.40153">
        <ele>8</ele>
        <time>2023-05-23T14:20:47Z</time>
      </trkpt>
      <trkpt lat="49.13161" lon="-0.40149">
        <ele>7.8</ele>
        <time>2023-05-23T14:20:48Z</time>
      </trkpt>
      <trkpt lat="49.13168" lon="-0.40144">
        <ele>7.8</ele>
        <time>2023-05-23T14:20:49Z</time>
      </trkpt>
      <trkpt lat="49.13175" lon="-0.40139">
        <ele>8</ele>
        <time>2023-05-23T14:20:50Z</time>
      </trkpt>
      <trkpt lat="49.13182" lon="-0.40134">
        <ele>8.2</ele>
        <time>2023-05-23T14:20:51Z</time>
      </trkpt>
      <trkpt lat="49.13189" lon="-0.40129">
        <ele>8.4</ele>
        <time>2023-05-23T14:20:52Z</time>
      </trkpt>
      <trkpt lat="49.13196" lon="-0.40124">
        <ele>8.6</ele>
        <time>2023-05-23T14:20:53Z</time>
      </trkpt>
      <trkpt lat="49.13202" lon="-0.40119">
        <ele>8.6</ele>
        <time>2023-05-23T14:20:54Z</time>
      </trkpt>
      <trkpt lat="49.13208" lon="-0.40114">
        <ele>8.8</ele>
        <time>2023-05-23T14:20:55Z</time>
      </trkpt>
      <trkpt lat="49.13215" lon="-0.40109">
        <ele>9.2</ele>
        <time>2023-05-23T14:20:56Z</time>
      </trkpt>
      <trkpt lat="49.13221" lon="-0.40103">
        <ele>9.4</ele>
        <time>2023-05-23T14:20:57Z</time>
      </trkpt>
      <trkpt lat="49.13227" lon="-0.40098">
        <ele>9.6</ele>
        <time>2023-05-23T14:20:58Z</time>
      </trkpt>
      <trkpt lat="49.13233" lon="-0.40092">
        <ele>9.6</ele>
        <time>2023-05-23T14:20:59Z</time>
      </trkpt>
      <trkpt lat="49.13239" lon="-0.40086">
        <ele>9.8</ele>
        <time>2023-05-23T14:21:00Z</time>
      </trkpt>
      <trkpt lat="49.13244" lon="-0.4008">
        <ele>10.2</ele>
        <time>2023-05-23T14:21:01Z</time>
      </trkpt>
      <trkpt lat="49.1325" lon="-0.40074">
        <ele>10.4</ele>
        <time>2023-05-23T14:21:02Z</time>
      </trkpt>
      <trkpt lat="49.13256" lon="-0.40068">
        <ele>10.4</ele>
        <time>2023-05-23T14:21:03Z</time>
      </trkpt>
      <trkpt lat="49.13262" lon="-0.40062">
        <ele>10.6</ele>
        <time>2023-05-23T14:21:04Z</time>
      </trkpt>
      <trkpt lat="49.13267" lon="-0.40057">
        <ele>10.6</ele>
        <time>2023-05-23T14:21:05Z</time>
      </trkpt>
      <trkpt lat="49.13273" lon="-0.40051">
        <ele>10.6</ele>
        <time>2023-05-23T14:21:06Z</time>
      </trkpt>
      <trkpt lat="49.13279" lon="-0.40045">
        <ele>10.6</ele>
        <time>2023-05-23T14:21:07Z</time>
      </trkpt>
      <trkpt lat="49.13284" lon="-0.4004">
        <ele>10.6</ele>
        <time>2023-05-23T14:21:08Z</time>
      </trkpt>
      <trkpt lat="49.1329" lon="-0.40034">
        <ele>10.6</ele>
        <time>2023-05-23T14:21:09Z</time>
      </trkpt>
      <trkpt lat="49.13295" lon="-0.40028">
        <ele>10.6</ele>
        <time>2023-05-23T14:21:10Z</time>
      </trkpt>
      <trkpt lat="49.133" lon="-0.40023">
        <ele>10.6</ele>
        <time>2023-05-23T14:21:11Z</time>
      </trkpt>
      <trkpt lat="49.13306" lon="-0.40017">
        <ele>10.6</ele>
        <time>2023-05-23T14:21:12Z</time>
      </trkpt>
      <trkpt lat="49.13311" lon="-0.40011">
        <ele>10.6</ele>
        <time>2023-05-23T14:21:13Z</time>
      </trkpt>
      <trkpt lat="49.13316" lon="-0.40005">
        <ele>10.6</ele>
        <time>2023-05-23T14:21:14Z</time>
      </trkpt>
      <trkpt lat="49.13322" lon="-0.4">
        <ele>10.4</ele>
        <time>2023-05-23T14:21:15Z</time>
      </trkpt>
      <trkpt lat="49.13326" lon="-0.39995">
        <ele>10.4</ele>
        <time>2023-05-23T14:21:16Z</time>
      </trkpt>
      <trkpt lat="49.13331" lon="-0.39989">
        <ele>10.4</ele>
        <time>2023-05-23T14:21:17Z</time>
      </trkpt>
      <trkpt lat="49.13336" lon="-0.39984">
        <ele>10.6</ele>
        <time>2023-05-23T14:21:18Z</time>
      </trkpt>
      <trkpt lat="49.13341" lon="-0.39979">
        <ele>10.6</ele>
        <time>2023-05-23T14:21:19Z</time>
      </trkpt>
      <trkpt lat="49.13345" lon="-0.39975">
        <ele>10.6</ele>
        <time>2023-05-23T14:21:20Z</time>
      </trkpt>
      <trkpt lat="49.1335" lon="-0.39969">
        <ele>10.6</ele>
        <time>2023-05-23T14:21:21Z</time>
      </trkpt>
      <trkpt lat="49.13355" lon="-0.39964">
        <ele>10.6</ele>
        <time>2023-05-23T14:21:22Z</time>
      </trkpt>
      <trkpt lat="49.1336" lon="-0.39959">
        <ele>10.6</ele>
        <time>2023-05-23T14:21:23Z</time>
      </trkpt>
      <trkpt lat="49.13365" lon="-0.39954">
        <ele>10.6</ele>
        <time>2023-05-23T14:21:24Z</time>
      </trkpt>
      <trkpt lat="49.13371" lon="-0.39948">
        <ele>10.4</ele>
        <time>2023-05-23T14:21:25Z</time>
      </trkpt>
      <trkpt lat="49.13376" lon="-0.39943">
        <ele>10.4</ele>
        <time>2023-05-23T14:21:26Z</time>
      </trkpt>
      <trkpt lat="49.13381" lon="-0.39937">
        <ele>10.2</ele>
        <time>2023-05-23T14:21:27Z</time>
      </trkpt>
      <trkpt lat="49.13387" lon="-0.39931">
        <ele>10.2</ele>
        <time>2023-05-23T14:21:28Z</time>
      </trkpt>
      <trkpt lat="49.13392" lon="-0.39926">
        <ele>10</ele>
        <time>2023-05-23T14:21:29Z</time>
      </trkpt>
      <trkpt lat="49.13398" lon="-0.3992">
        <ele>9.8</ele>
        <time>2023-05-23T14:21:30Z</time>
      </trkpt>
      <trkpt lat="49.13403" lon="-0.39913">
        <ele>9.8</ele>
        <time>2023-05-23T14:21:31Z</time>
      </trkpt>
      <trkpt lat="49.13409" lon="-0.39907">
        <ele>9.8</ele>
        <time>2023-05-23T14:21:32Z</time>
      </trkpt>
      <trkpt lat="49.13415" lon="-0.39901">
        <ele>9.8</ele>
        <time>2023-05-23T14:21:33Z</time>
      </trkpt>
      <trkpt lat="49.13421" lon="-0.39895">
        <ele>9.8</ele>
        <time>2023-05-23T14:21:34Z</time>
      </trkpt>
      <trkpt lat="49.13426" lon="-0.39889">
        <ele>10.2</ele>
        <time>2023-05-23T14:21:35Z</time>
      </trkpt>
      <trkpt lat="49.13432" lon="-0.39883">
        <ele>10.2</ele>
        <time>2023-05-23T14:21:36Z</time>
      </trkpt>
      <trkpt lat="49.13438" lon="-0.39877">
        <ele>10.2</ele>
        <time>2023-05-23T14:21:37Z</time>
      </trkpt>
      <trkpt lat="49.13443" lon="-0.39871">
        <ele>10.2</ele>
        <time>2023-05-23T14:21:38Z</time>
      </trkpt>
      <trkpt lat="49.13449" lon="-0.39866">
        <ele>10.2</ele>
        <time>2023-05-23T14:21:39Z</time>
      </trkpt>
      <trkpt lat="49.13454" lon="-0.3986">
        <ele>10.2</ele>
        <time>2023-05-23T14:21:40Z</time>
      </trkpt>
      <trkpt lat="49.1346" lon="-0.39854">
        <ele>9.8</ele>
        <time>2023-05-23T14:21:41Z</time>
      </trkpt>
      <trkpt lat="49.13465" lon="-0.39848">
        <ele>9.8</ele>
        <time>2023-05-23T14:21:42Z</time>
      </trkpt>
      <trkpt lat="49.1347" lon="-0.39842">
        <ele>9.6</ele>
        <time>2023-05-23T14:21:43Z</time>
      </trkpt>
      <trkpt lat="49.13476" lon="-0.39837">
        <ele>9.4</ele>
        <time>2023-05-23T14:21:44Z</time>
      </trkpt>
      <trkpt lat="49.13482" lon="-0.3983">
        <ele>9.2</ele>
        <time>2023-05-23T14:21:45Z</time>
      </trkpt>
      <trkpt lat="49.13488" lon="-0.39824">
        <ele>9</ele>
        <time>2023-05-23T14:21:46Z</time>
      </trkpt>
      <trkpt lat="49.13494" lon="-0.39818">
        <ele>8.6</ele>
        <time>2023-05-23T14:21:47Z</time>
      </trkpt>
      <trkpt lat="49.135" lon="-0.39811">
        <ele>8.6</ele>
        <time>2023-05-23T14:21:48Z</time>
      </trkpt>
      <trkpt lat="49.13506" lon="-0.39805">
        <ele>8.6</ele>
        <time>2023-05-23T14:21:49Z</time>
      </trkpt>
      <trkpt lat="49.13512" lon="-0.39799">
        <ele>8.6</ele>
        <time>2023-05-23T14:21:50Z</time>
      </trkpt>
      <trkpt lat="49.13518" lon="-0.39792">
        <ele>8.6</ele>
        <time>2023-05-23T14:21:51Z</time>
      </trkpt>
      <trkpt lat="49.13523" lon="-0.39786">
        <ele>8.4</ele>
        <time>2023-05-23T14:21:52Z</time>
      </trkpt>
      <trkpt lat="49.13529" lon="-0.3978">
        <ele>8.4</ele>
        <time>2023-05-23T14:21:53Z</time>
      </trkpt>
      <trkpt lat="49.13535" lon="-0.39774">
        <ele>8.4</ele>
        <time>2023-05-23T14:21:54Z</time>
      </trkpt>
      <trkpt lat="49.13541" lon="-0.39768">
        <ele>8.2</ele>
        <time>2023-05-23T14:21:55Z</time>
      </trkpt>
      <trkpt lat="49.13546" lon="-0.39762">
        <ele>8.2</ele>
        <time>2023-05-23T14:21:56Z</time>
      </trkpt>
      <trkpt lat="49.13552" lon="-0.39756">
        <ele>8</ele>
        <time>2023-05-23T14:21:57Z</time>
      </trkpt>
      <trkpt lat="49.13558" lon="-0.39749">
        <ele>8</ele>
        <time>2023-05-23T14:21:58Z</time>
      </trkpt>
      <trkpt lat="49.13563" lon="-0.39743">
        <ele>7.8</ele>
        <time>2023-05-23T14:21:59Z</time>
      </trkpt>
      <trkpt lat="49.13569" lon="-0.39737">
        <ele>7.6</ele>
        <time>2023-05-23T14:22:00Z</time>
      </trkpt>
      <trkpt lat="49.13575" lon="-0.39731">
        <ele>7.6</ele>
        <time>2023-05-23T14:22:01Z</time>
      </trkpt>
      <trkpt lat="49.1358" lon="-0.39725">
        <ele>7.4</ele>
        <time>2023-05-23T14:22:02Z</time>
      </trkpt>
      <trkpt lat="49.13586" lon="-0.39719">
        <ele>7.4</ele>
        <time>2023-05-23T14:22:03Z</time>
      </trkpt>
      <trkpt lat="49.13591" lon="-0.39714">
        <ele>7.4</ele>
        <time>2023-05-23T14:22:04Z</time>
      </trkpt>
      <trkpt lat="49.13597" lon="-0.39708">
        <ele>7.4</ele>
        <time>2023-05-23T14:22:05Z</time>
      </trkpt>
      <trkpt lat="49.13602" lon="-0.39703">
        <ele>7.2</ele>
        <time>2023-05-23T14:22:06Z</time>
      </trkpt>
      <trkpt lat="49.13607" lon="-0.39697">
        <ele>7.2</ele>
        <time>2023-05-23T14:22:07Z</time>
      </trkpt>
      <trkpt lat="49.13613" lon="-0.39692">
        <ele>7.2</ele>
        <time>2023-05-23T14:22:08Z</time>
      </trkpt>
      <trkpt lat="49.13618" lon="-0.39687">
        <ele>7.2</ele>
        <time>2023-05-23T14:22:09Z</time>
      </trkpt>
      <trkpt lat="49.13623" lon="-0.39681">
        <ele>7.4</ele>
        <time>2023-05-23T14:22:10Z</time>
      </trkpt>
      <trkpt lat="49.13628" lon="-0.39676">
        <ele>7.4</ele>
        <time>2023-05-23T14:22:11Z</time>
      </trkpt>
      <trkpt lat="49.13632" lon="-0.39671">
        <ele>7.4</ele>
        <time>2023-05-23T14:22:12Z</time>
      </trkpt>
      <trkpt lat="49.13637" lon="-0.39665">
        <ele>7.4</ele>
        <time>2023-05-23T14:22:13Z</time>
      </trkpt>
      <trkpt lat="49.13642" lon="-0.3966">
        <ele>7.4</ele>
        <time>2023-05-23T14:22:14Z</time>
      </trkpt>
      <trkpt lat="49.13647" lon="-0.39655">
        <ele>7.4</ele>
        <time>2023-05-23T14:22:15Z</time>
      </trkpt>
      <trkpt lat="49.13652" lon="-0.39649">
        <ele>7.4</ele>
        <time>2023-05-23T14:22:16Z</time>
      </trkpt>
      <trkpt lat="49.13657" lon="-0.39644">
        <ele>7.4</ele>
        <time>2023-05-23T14:22:17Z</time>
      </trkpt>
      <trkpt lat="49.13662" lon="-0.39638">
        <ele>7.4</ele>
        <time>2023-05-23T14:22:18Z</time>
      </trkpt>
      <trkpt lat="49.13667" lon="-0.39632">
        <ele>7.4</ele>
        <time>2023-05-23T14:22:19Z</time>
      </trkpt>
      <trkpt lat="49.13673" lon="-0.39627">
        <ele>7.4</ele>
        <time>2023-05-23T14:22:20Z</time>
      </trkpt>
      <trkpt lat="49.13678" lon="-0.39621">
        <ele>7.2</ele>
        <time>2023-05-23T14:22:21Z</time>
      </trkpt>
      <trkpt lat="49.13683" lon="-0.39615">
        <ele>7</ele>
        <time>2023-05-23T14:22:22Z</time>
      </trkpt>
      <trkpt lat="49.13689" lon="-0.3961">
        <ele>7</ele>
        <time>2023-05-23T14:22:23Z</time>
      </trkpt>
      <trkpt lat="49.13694" lon="-0.39604">
        <ele>6.6</ele>
        <time>2023-05-23T14:22:24Z</time>
      </trkpt>
      <trkpt lat="49.13699" lon="-0.39598">
        <ele>6.6</ele>
        <time>2023-05-23T14:22:25Z</time>
      </trkpt>
      <trkpt lat="49.13704" lon="-0.39593">
        <ele>6.2</ele>
        <time>2023-05-23T14:22:26Z</time>
      </trkpt>
      <trkpt lat="49.13709" lon="-0.39587">
        <ele>6</ele>
        <time>2023-05-23T14:22:27Z</time>
      </trkpt>
      <trkpt lat="49.13714" lon="-0.39582">
        <ele>5.6</ele>
        <time>2023-05-23T14:22:28Z</time>
      </trkpt>
      <trkpt lat="49.1372" lon="-0.39576">
        <ele>5.6</ele>
        <time>2023-05-23T14:22:29Z</time>
      </trkpt>
      <trkpt lat="49.13725" lon="-0.39571">
        <ele>5.4</ele>
        <time>2023-05-23T14:22:30Z</time>
      </trkpt>
      <trkpt lat="49.1373" lon="-0.39566">
        <ele>5.2</ele>
        <time>2023-05-23T14:22:31Z</time>
      </trkpt>
      <trkpt lat="49.13735" lon="-0.3956">
        <ele>5</ele>
        <time>2023-05-23T14:22:32Z</time>
      </trkpt>
      <trkpt lat="49.1374" lon="-0.39555">
        <ele>5</ele>
        <time>2023-05-23T14:22:33Z</time>
      </trkpt>
      <trkpt lat="49.13745" lon="-0.3955">
        <ele>4.6</ele>
        <time>2023-05-23T14:22:34Z</time>
      </trkpt>
      <trkpt lat="49.1375" lon="-0.39545">
        <ele>4.6</ele>
        <time>2023-05-23T14:22:35Z</time>
      </trkpt>
      <trkpt lat="49.13755" lon="-0.3954">
        <ele>4.6</ele>
        <time>2023-05-23T14:22:36Z</time>
      </trkpt>
      <trkpt lat="49.13759" lon="-0.39535">
        <ele>4.6</ele>
        <time>2023-05-23T14:22:37Z</time>
      </trkpt>
      <trkpt lat="49.13764" lon="-0.3953">
        <ele>4.6</ele>
        <time>2023-05-23T14:22:38Z</time>
      </trkpt>
      <trkpt lat="49.13769" lon="-0.39525">
        <ele>5</ele>
        <time>2023-05-23T14:22:39Z</time>
      </trkpt>
      <trkpt lat="49.13773" lon="-0.3952">
        <ele>5</ele>
        <time>2023-05-23T14:22:40Z</time>
      </trkpt>
      <trkpt lat="49.13778" lon="-0.39516">
        <ele>5</ele>
        <time>2023-05-23T14:22:41Z</time>
      </trkpt>
      <trkpt lat="49.13782" lon="-0.39512">
        <ele>5.2</ele>
        <time>2023-05-23T14:22:42Z</time>
      </trkpt>
      <trkpt lat="49.13787" lon="-0.39507">
        <ele>5.4</ele>
        <time>2023-05-23T14:22:43Z</time>
      </trkpt>
      <trkpt lat="49.13791" lon="-0.39504">
        <ele>5.4</ele>
        <time>2023-05-23T14:22:44Z</time>
      </trkpt>
      <trkpt lat="49.13796" lon="-0.39501">
        <ele>5.6</ele>
        <time>2023-05-23T14:22:45Z</time>
      </trkpt>
      <trkpt lat="49.138" lon="-0.395">
        <ele>5.6</ele>
        <time>2023-05-23T14:22:46Z</time>
      </trkpt>
      <trkpt lat="49.13804" lon="-0.39502">
        <ele>5.6</ele>
        <time>2023-05-23T14:22:47Z</time>
      </trkpt>
      <trkpt lat="49.13809" lon="-0.39504">
        <ele>5.6</ele>
        <time>2023-05-23T14:22:48Z</time>
      </trkpt>
      <trkpt lat="49.13813" lon="-0.39505">
        <ele>5.6</ele>
        <time>2023-05-23T14:22:49Z</time>
      </trkpt>
      <trkpt lat="49.13817" lon="-0.39502">
        <ele>5.8</ele>
        <time>2023-05-23T14:22:50Z</time>
      </trkpt>
      <trkpt lat="49.13821" lon="-0.39496">
        <ele>6</ele>
        <time>2023-05-23T14:22:51Z</time>
      </trkpt>
      <trkpt lat="49.13825" lon="-0.3949">
        <ele>6.2</ele>
        <time>2023-05-23T14:22:52Z</time>
      </trkpt>
      <trkpt lat="49.1383" lon="-0.39483">
        <ele>6.4</ele>
        <time>2023-05-23T14:22:53Z</time>
      </trkpt>
      <trkpt lat="49.13834" lon="-0.39477">
        <ele>6.6</ele>
        <time>2023-05-23T14:22:54Z</time>
      </trkpt>
      <trkpt lat="49.13839" lon="-0.39471">
        <ele>6.6</ele>
        <time>2023-05-23T14:22:55Z</time>
      </trkpt>
      <trkpt lat="49.13844" lon="-0.39466">
        <ele>6.8</ele>
        <time>2023-05-23T14:22:56Z</time>
      </trkpt>
      <trkpt lat="49.13848" lon="-0.39461">
        <ele>7</ele>
        <time>2023-05-23T14:22:57Z</time>
      </trkpt>
      <trkpt lat="49.13853" lon="-0.39456">
        <ele>7</ele>
        <time>2023-05-23T14:22:58Z</time>
      </trkpt>
      <trkpt lat="49.13858" lon="-0.39451">
        <ele>7</ele>
        <time>2023-05-23T14:22:59Z</time>
      </trkpt>
      <trkpt lat="49.13863" lon="-0.39446">
        <ele>6.8</ele>
        <time>2023-05-23T14:23:00Z</time>
      </trkpt>
      <trkpt lat="49.13869" lon="-0.39441">
        <ele>6.8</ele>
        <time>2023-05-23T14:23:01Z</time>
      </trkpt>
      <trkpt lat="49.13874" lon="-0.39435">
        <ele>6.6</ele>
        <time>2023-05-23T14:23:02Z</time>
      </trkpt>
      <trkpt lat="49.13879" lon="-0.3943">
        <ele>6.6</ele>
        <time>2023-05-23T14:23:03Z</time>
      </trkpt>
      <trkpt lat="49.13885" lon="-0.39425">
        <ele>6.2</ele>
        <time>2023-05-23T14:23:04Z</time>
      </trkpt>
      <trkpt lat="49.1389" lon="-0.39419">
        <ele>6</ele>
        <time>2023-05-23T14:23:05Z</time>
      </trkpt>
      <trkpt lat="49.13896" lon="-0.39414">
        <ele>5.8</ele>
        <time>2023-05-23T14:23:06Z</time>
      </trkpt>
      <trkpt lat="49.13901" lon="-0.39408">
        <ele>5.6</ele>
        <time>2023-05-23T14:23:07Z</time>
      </trkpt>
      <trkpt lat="49.13907" lon="-0.39402">
        <ele>5.6</ele>
        <time>2023-05-23T14:23:08Z</time>
      </trkpt>
      <trkpt lat="49.13912" lon="-0.39397">
        <ele>5.4</ele>
        <time>2023-05-23T14:23:09Z</time>
      </trkpt>
      <trkpt lat="49.13917" lon="-0.39391">
        <ele>5.4</ele>
        <time>2023-05-23T14:23:10Z</time>
      </trkpt>
      <trkpt lat="49.13922" lon="-0.39386">
        <ele>5.4</ele>
        <time>2023-05-23T14:23:11Z</time>
      </trkpt>
      <trkpt lat="49.13927" lon="-0.3938">
        <ele>5.2</ele>
        <time>2023-05-23T14:23:12Z</time>
      </trkpt>
      <trkpt lat="49.13932" lon="-0.39375">
        <ele>5</ele>
        <time>2023-05-23T14:23:13Z</time>
      </trkpt>
      <trkpt lat="49.13936" lon="-0.39369">
        <ele>5</ele>
        <time>2023-05-23T14:23:14Z</time>
      </trkpt>
      <trkpt lat="49.13941" lon="-0.39364">
        <ele>5</ele>
        <time>2023-05-23T14:23:15Z</time>
      </trkpt>
      <trkpt lat="49.13946" lon="-0.39359">
        <ele>5</ele>
        <time>2023-05-23T14:23:16Z</time>
      </trkpt>
      <trkpt lat="49.1395" lon="-0.39353">
        <ele>4.6</ele>
        <time>2023-05-23T14:23:17Z</time>
      </trkpt>
      <trkpt lat="49.13955" lon="-0.39348">
        <ele>4.6</ele>
        <time>2023-05-23T14:23:18Z</time>
      </trkpt>
      <trkpt lat="49.1396" lon="-0.39343">
        <ele>4.4</ele>
        <time>2023-05-23T14:23:19Z</time>
      </trkpt>
      <trkpt lat="49.13965" lon="-0.39338">
        <ele>4.4</ele>
        <time>2023-05-23T14:23:20Z</time>
      </trkpt>
      <trkpt lat="49.1397" lon="-0.39332">
        <ele>4</ele>
        <time>2023-05-23T14:23:21Z</time>
      </trkpt>
      <trkpt lat="49.13976" lon="-0.39327">
        <ele>4</ele>
        <time>2023-05-23T14:23:22Z</time>
      </trkpt>
      <trkpt lat="49.13981" lon="-0.39322">
        <ele>4</ele>
        <time>2023-05-23T14:23:23Z</time>
      </trkpt>
      <trkpt lat="49.13986" lon="-0.39316">
        <ele>4</ele>
        <time>2023-05-23T14:23:24Z</time>
      </trkpt>
      <trkpt lat="49.13992" lon="-0.39311">
        <ele>4</ele>
        <time>2023-05-23T14:23:25Z</time>
      </trkpt>
      <trkpt lat="49.13997" lon="-0.39305">
        <ele>3.8</ele>
        <time>2023-05-23T14:23:26Z</time>
      </trkpt>
      <trkpt lat="49.14003" lon="-0.393">
        <ele>3.8</ele>
        <time>2023-05-23T14:23:27Z</time>
      </trkpt>
      <trkpt lat="49.14008" lon="-0.39294">
        <ele>4</ele>
        <time>2023-05-23T14:23:28Z</time>
      </trkpt>
      <trkpt lat="49.14013" lon="-0.39289">
        <ele>4</ele>
        <time>2023-05-23T14:23:29Z</time>
      </trkpt>
      <trkpt lat="49.14018" lon="-0.39283">
        <ele>4</ele>
        <time>2023-05-23T14:23:30Z</time>
      </trkpt>
      <trkpt lat="49.14024" lon="-0.39278">
        <ele>4</ele>
        <time>2023-05-23T14:23:31Z</time>
      </trkpt>
      <trkpt lat="49.14028" lon="-0.39273">
        <ele>4.2</ele>
        <time>2023-05-23T14:23:32Z</time>
      </trkpt>
      <trkpt lat="49.14033" lon="-0.39267">
        <ele>4.4</ele>
        <time>2023-05-23T14:23:33Z</time>
      </trkpt>
      <trkpt lat="49.14038" lon="-0.39262">
        <ele>4.4</ele>
        <time>2023-05-23T14:23:34Z</time>
      </trkpt>
      <trkpt lat="49.14042" lon="-0.39257">
        <ele>4.4</ele>
        <time>2023-05-23T14:23:35Z</time>
      </trkpt>
      <trkpt lat="49.14047" lon="-0.39251">
        <ele>4.4</ele>
        <time>2023-05-23T14:23:36Z</time>
      </trkpt>
      <trkpt lat="49.14051" lon="-0.39246">
        <ele>4.6</ele>
        <time>2023-05-23T14:23:37Z</time>
      </trkpt>
      <trkpt lat="49.14056" lon="-0.39242">
        <ele>4.6</ele>
        <time>2023-05-23T14:23:38Z</time>
      </trkpt>
      <trkpt lat="49.14061" lon="-0.39237">
        <ele>4.6</ele>
        <time>2023-05-23T14:23:39Z</time>
      </trkpt>
      <trkpt lat="49.14066" lon="-0.39232">
        <ele>4.6</ele>
        <time>2023-05-23T14:23:40Z</time>
      </trkpt>
      <trkpt lat="49.14072" lon="-0.39227">
        <ele>4.6</ele>
        <time>2023-05-23T14:23:41Z</time>
      </trkpt>
      <trkpt lat="49.14078" lon="-0.39222">
        <ele>4.4</ele>
        <time>2023-05-23T14:23:42Z</time>
      </trkpt>
      <trkpt lat="49.14085" lon="-0.39216">
        <ele>4.4</ele>
        <time>2023-05-23T14:23:43Z</time>
      </trkpt>
      <trkpt lat="49.14091" lon="-0.3921">
        <ele>4.4</ele>
        <time>2023-05-23T14:23:44Z</time>
      </trkpt>
      <trkpt lat="49.14097" lon="-0.39204">
        <ele>4.4</ele>
        <time>2023-05-23T14:23:45Z</time>
      </trkpt>
      <trkpt lat="49.14104" lon="-0.39198">
        <ele>4.4</ele>
        <time>2023-05-23T14:23:46Z</time>
      </trkpt>
      <trkpt lat="49.14109" lon="-0.39192">
        <ele>4.4</ele>
        <time>2023-05-23T14:23:47Z</time>
      </trkpt>
      <trkpt lat="49.14115" lon="-0.39186">
        <ele>4.2</ele>
        <time>2023-05-23T14:23:48Z</time>
      </trkpt>
      <trkpt lat="49.14121" lon="-0.3918">
        <ele>4</ele>
        <time>2023-05-23T14:23:49Z</time>
      </trkpt>
      <trkpt lat="49.14127" lon="-0.39174">
        <ele>4</ele>
        <time>2023-05-23T14:23:50Z</time>
      </trkpt>
      <trkpt lat="49.14132" lon="-0.39169">
        <ele>3.8</ele>
        <time>2023-05-23T14:23:51Z</time>
      </trkpt>
      <trkpt lat="49.14138" lon="-0.39163">
        <ele>3.8</ele>
        <time>2023-05-23T14:23:52Z</time>
      </trkpt>
      <trkpt lat="49.14144" lon="-0.39157">
        <ele>3.8</ele>
        <time>2023-05-23T14:23:53Z</time>
      </trkpt>
      <trkpt lat="49.1415" lon="-0.39151">
        <ele>3.8</ele>
        <time>2023-05-23T14:23:54Z</time>
      </trkpt>
      <trkpt lat="49.14155" lon="-0.39146">
        <ele>3.8</ele>
        <time>2023-05-23T14:23:55Z</time>
      </trkpt>
      <trkpt lat="49.14161" lon="-0.3914">
        <ele>3.8</ele>
        <time>2023-05-23T14:23:56Z</time>
      </trkpt>
      <trkpt lat="49.14166" lon="-0.39134">
        <ele>3.8</ele>
        <time>2023-05-23T14:23:57Z</time>
      </trkpt>
      <trkpt lat="49.14172" lon="-0.39128">
        <ele>4</ele>
        <time>2023-05-23T14:23:58Z</time>
      </trkpt>
      <trkpt lat="49.14177" lon="-0.39122">
        <ele>4</ele>
        <time>2023-05-23T14:23:59Z</time>
      </trkpt>
      <trkpt lat="49.14183" lon="-0.39117">
        <ele>4</ele>
        <time>2023-05-23T14:24:00Z</time>
      </trkpt>
      <trkpt lat="49.14189" lon="-0.39111">
        <ele>4.2</ele>
        <time>2023-05-23T14:24:01Z</time>
      </trkpt>
      <trkpt lat="49.14194" lon="-0.39105">
        <ele>4.2</ele>
        <time>2023-05-23T14:24:02Z</time>
      </trkpt>
      <trkpt lat="49.14199" lon="-0.39099">
        <ele>4.4</ele>
        <time>2023-05-23T14:24:03Z</time>
      </trkpt>
      <trkpt lat="49.14205" lon="-0.39093">
        <ele>4.4</ele>
        <time>2023-05-23T14:24:04Z</time>
      </trkpt>
      <trkpt lat="49.1421" lon="-0.39088">
        <ele>4.4</ele>
        <time>2023-05-23T14:24:05Z</time>
      </trkpt>
      <trkpt lat="49.14216" lon="-0.39082">
        <ele>4.4</ele>
        <time>2023-05-23T14:24:06Z</time>
      </trkpt>
      <trkpt lat="49.14221" lon="-0.39076">
        <ele>4.4</ele>
        <time>2023-05-23T14:24:07Z</time>
      </trkpt>
      <trkpt lat="49.14226" lon="-0.39071">
        <ele>4.4</ele>
        <time>2023-05-23T14:24:08Z</time>
      </trkpt>
      <trkpt lat="49.14232" lon="-0.39066">
        <ele>4.4</ele>
        <time>2023-05-23T14:24:09Z</time>
      </trkpt>
      <trkpt lat="49.14237" lon="-0.3906">
        <ele>4.4</ele>
        <time>2023-05-23T14:24:10Z</time>
      </trkpt>
      <trkpt lat="49.14243" lon="-0.39055">
        <ele>4.4</ele>
        <time>2023-05-23T14:24:11Z</time>
      </trkpt>
      <trkpt lat="49.14248" lon="-0.39049">
        <ele>4.4</ele>
        <time>2023-05-23T14:24:12Z</time>
      </trkpt>
      <trkpt lat="49.14253" lon="-0.39044">
        <ele>4.4</ele>
        <time>2023-05-23T14:24:13Z</time>
      </trkpt>
      <trkpt lat="49.14258" lon="-0.39038">
        <ele>4.4</ele>
        <time>2023-05-23T14:24:14Z</time>
      </trkpt>
      <trkpt lat="49.14264" lon="-0.39033">
        <ele>4.4</ele>
        <time>2023-05-23T14:24:15Z</time>
      </trkpt>
      <trkpt lat="49.14269" lon="-0.39028">
        <ele>4.4</ele>
        <time>2023-05-23T14:24:16Z</time>
      </trkpt>
      <trkpt lat="49.14274" lon="-0.39022">
        <ele>4.4</ele>
        <time>2023-05-23T14:24:17Z</time>
      </trkpt>
      <trkpt lat="49.14279" lon="-0.39017">
        <ele>4.4</ele>
        <time>2023-05-23T14:24:18Z</time>
      </trkpt>
      <trkpt lat="49.14284" lon="-0.39011">
        <ele>4.6</ele>
        <time>2023-05-23T14:24:19Z</time>
      </trkpt>
      <trkpt lat="49.1429" lon="-0.39006">
        <ele>4.6</ele>
        <time>2023-05-23T14:24:20Z</time>
      </trkpt>
      <trkpt lat="49.14295" lon="-0.39">
        <ele>4.6</ele>
        <time>2023-05-23T14:24:21Z</time>
      </trkpt>
      <trkpt lat="49.143" lon="-0.38995">
        <ele>4.4</ele>
        <time>2023-05-23T14:24:22Z</time>
      </trkpt>
      <trkpt lat="49.14305" lon="-0.3899">
        <ele>4.4</ele>
        <time>2023-05-23T14:24:23Z</time>
      </trkpt>
      <trkpt lat="49.1431" lon="-0.38984">
        <ele>4.4</ele>
        <time>2023-05-23T14:24:24Z</time>
      </trkpt>
      <trkpt lat="49.14316" lon="-0.38979">
        <ele>4.4</ele>
        <time>2023-05-23T14:24:25Z</time>
      </trkpt>
      <trkpt lat="49.14321" lon="-0.38974">
        <ele>4.2</ele>
        <time>2023-05-23T14:24:26Z</time>
      </trkpt>
      <trkpt lat="49.14326" lon="-0.38968">
        <ele>4</ele>
        <time>2023-05-23T14:24:27Z</time>
      </trkpt>
      <trkpt lat="49.14331" lon="-0.38963">
        <ele>4</ele>
        <time>2023-05-23T14:24:28Z</time>
      </trkpt>
      <trkpt lat="49.14337" lon="-0.38958">
        <ele>4</ele>
        <time>2023-05-23T14:24:29Z</time>
      </trkpt>
      <trkpt lat="49.14342" lon="-0.38952">
        <ele>4</ele>
        <time>2023-05-23T14:24:30Z</time>
      </trkpt>
      <trkpt lat="49.14347" lon="-0.38947">
        <ele>4</ele>
        <time>2023-05-23T14:24:31Z</time>
      </trkpt>
      <trkpt lat="49.14353" lon="-0.38942">
        <ele>4.2</ele>
        <time>2023-05-23T14:24:32Z</time>
      </trkpt>
      <trkpt lat="49.14358" lon="-0.38936">
        <ele>4.2</ele>
        <time>2023-05-23T14:24:33Z</time>
      </trkpt>
      <trkpt lat="49.14363" lon="-0.38931">
        <ele>4.4</ele>
        <time>2023-05-23T14:24:34Z</time>
      </trkpt>
      <trkpt lat="49.14369" lon="-0.38926">
        <ele>4.4</ele>
        <time>2023-05-23T14:24:35Z</time>
      </trkpt>
      <trkpt lat="49.14374" lon="-0.38921">
        <ele>4.6</ele>
        <time>2023-05-23T14:24:36Z</time>
      </trkpt>
      <trkpt lat="49.14379" lon="-0.38917">
        <ele>4.6</ele>
        <time>2023-05-23T14:24:37Z</time>
      </trkpt>
      <trkpt lat="49.14384" lon="-0.38914">
        <ele>4.6</ele>
        <time>2023-05-23T14:24:38Z</time>
      </trkpt>
      <trkpt lat="49.14389" lon="-0.38911">
        <ele>4.6</ele>
        <time>2023-05-23T14:24:39Z</time>
      </trkpt>
      <trkpt lat="49.14395" lon="-0.38909">
        <ele>4.6</ele>
        <time>2023-05-23T14:24:40Z</time>
      </trkpt>
      <trkpt lat="49.144" lon="-0.38906">
        <ele>4.8</ele>
        <time>2023-05-23T14:24:41Z</time>
      </trkpt>
      <trkpt lat="49.14404" lon="-0.38903">
        <ele>4.8</ele>
        <time>2023-05-23T14:24:42Z</time>
      </trkpt>
      <trkpt lat="49.14409" lon="-0.38901">
        <ele>5</ele>
        <time>2023-05-23T14:24:43Z</time>
      </trkpt>
      <trkpt lat="49.14412" lon="-0.38898">
        <ele>5</ele>
        <time>2023-05-23T14:24:44Z</time>
      </trkpt>
      <trkpt lat="49.14416" lon="-0.38896">
        <ele>5</ele>
        <time>2023-05-23T14:24:45Z</time>
      </trkpt>
      <trkpt lat="49.1442" lon="-0.38894">
        <ele>5</ele>
        <time>2023-05-23T14:24:46Z</time>
      </trkpt>
      <trkpt lat="49.14423" lon="-0.38892">
        <ele>4.8</ele>
        <time>2023-05-23T14:24:47Z</time>
      </trkpt>
      <trkpt lat="49.14427" lon="-0.3889">
        <ele>4.6</ele>
        <time>2023-05-23T14:24:48Z</time>
      </trkpt>
      <trkpt lat="49.14431" lon="-0.38886">
        <ele>4.6</ele>
        <time>2023-05-23T14:24:49Z</time>
      </trkpt>
      <trkpt lat="49.14434" lon="-0.38882">
        <ele>4.6</ele>
        <time>2023-05-23T14:24:50Z</time>
      </trkpt>
      <trkpt lat="49.14438" lon="-0.38877">
        <ele>4.6</ele>
        <time>2023-05-23T14:24:51Z</time>
      </trkpt>
      <trkpt lat="49.14442" lon="-0.3887">
        <ele>4.4</ele>
        <time>2023-05-23T14:24:52Z</time>
      </trkpt>
      <trkpt lat="49.14446" lon="-0.38863">
        <ele>4.4</ele>
        <time>2023-05-23T14:24:53Z</time>
      </trkpt>
      <trkpt lat="49.1445" lon="-0.38856">
        <ele>4.4</ele>
        <time>2023-05-23T14:24:54Z</time>
      </trkpt>
      <trkpt lat="49.14455" lon="-0.3885">
        <ele>4.4</ele>
        <time>2023-05-23T14:24:55Z</time>
      </trkpt>
      <trkpt lat="49.1446" lon="-0.38843">
        <ele>4.4</ele>
        <time>2023-05-23T14:24:56Z</time>
      </trkpt>
      <trkpt lat="49.14466" lon="-0.38837">
        <ele>4.4</ele>
        <time>2023-05-23T14:24:57Z</time>
      </trkpt>
      <trkpt lat="49.14472" lon="-0.38832">
        <ele>4.4</ele>
        <time>2023-05-23T14:24:58Z</time>
      </trkpt>
      <trkpt lat="49.14478" lon="-0.38827">
        <ele>4.4</ele>
        <time>2023-05-23T14:24:59Z</time>
      </trkpt>
      <trkpt lat="49.14483" lon="-0.38821">
        <ele>4.2</ele>
        <time>2023-05-23T14:25:00Z</time>
      </trkpt>
      <trkpt lat="49.14489" lon="-0.38816">
        <ele>4</ele>
        <time>2023-05-23T14:25:01Z</time>
      </trkpt>
      <trkpt lat="49.14495" lon="-0.38811">
        <ele>4</ele>
        <time>2023-05-23T14:25:02Z</time>
      </trkpt>
      <trkpt lat="49.14501" lon="-0.38806">
        <ele>4</ele>
        <time>2023-05-23T14:25:03Z</time>
      </trkpt>
      <trkpt lat="49.14506" lon="-0.38801">
        <ele>4</ele>
        <time>2023-05-23T14:25:04Z</time>
      </trkpt>
      <trkpt lat="49.14511" lon="-0.38796">
        <ele>4</ele>
        <time>2023-05-23T14:25:05Z</time>
      </trkpt>
      <trkpt lat="49.14516" lon="-0.38792">
        <ele>4</ele>
        <time>2023-05-23T14:25:06Z</time>
      </trkpt>
      <trkpt lat="49.14521" lon="-0.38787">
        <ele>4</ele>
        <time>2023-05-23T14:25:07Z</time>
      </trkpt>
      <trkpt lat="49.14526" lon="-0.38783">
        <ele>4</ele>
        <time>2023-05-23T14:25:08Z</time>
      </trkpt>
      <trkpt lat="49.14531" lon="-0.38778">
        <ele>4</ele>
        <time>2023-05-23T14:25:09Z</time>
      </trkpt>
      <trkpt lat="49.14537" lon="-0.38774">
        <ele>4</ele>
        <time>2023-05-23T14:25:10Z</time>
      </trkpt>
      <trkpt lat="49.14542" lon="-0.38769">
        <ele>4</ele>
        <time>2023-05-23T14:25:11Z</time>
      </trkpt>
      <trkpt lat="49.14547" lon="-0.38765">
        <ele>4</ele>
        <time>2023-05-23T14:25:12Z</time>
      </trkpt>
      <trkpt lat="49.14553" lon="-0.3876">
        <ele>4</ele>
        <time>2023-05-23T14:25:13Z</time>
      </trkpt>
      <trkpt lat="49.14558" lon="-0.38756">
        <ele>4</ele>
        <time>2023-05-23T14:25:14Z</time>
      </trkpt>
      <trkpt lat="49.14564" lon="-0.38751">
        <ele>4</ele>
        <time>2023-05-23T14:25:15Z</time>
      </trkpt>
      <trkpt lat="49.14569" lon="-0.38747">
        <ele>4</ele>
        <time>2023-05-23T14:25:16Z</time>
      </trkpt>
      <trkpt lat="49.14575" lon="-0.38742">
        <ele>4</ele>
        <time>2023-05-23T14:25:17Z</time>
      </trkpt>
      <trkpt lat="49.1458" lon="-0.38738">
        <ele>4</ele>
        <time>2023-05-23T14:25:18Z</time>
      </trkpt>
      <trkpt lat="49.14586" lon="-0.38734">
        <ele>4</ele>
        <time>2023-05-23T14:25:19Z</time>
      </trkpt>
      <trkpt lat="49.14592" lon="-0.38729">
        <ele>4</ele>
        <time>2023-05-23T14:25:20Z</time>
      </trkpt>
      <trkpt lat="49.14597" lon="-0.38725">
        <ele>4.2</ele>
        <time>2023-05-23T14:25:21Z</time>
      </trkpt>
      <trkpt lat="49.14603" lon="-0.38721">
        <ele>4.4</ele>
        <time>2023-05-23T14:25:22Z</time>
      </trkpt>
      <trkpt lat="49.14608" lon="-0.38717">
        <ele>4.4</ele>
        <time>2023-05-23T14:25:23Z</time>
      </trkpt>
      <trkpt lat="49.14614" lon="-0.38712">
        <ele>4.6</ele>
        <time>2023-05-23T14:25:24Z</time>
      </trkpt>
      <trkpt lat="49.14619" lon="-0.38708">
        <ele>4.6</ele>
        <time>2023-05-23T14:25:25Z</time>
      </trkpt>
      <trkpt lat="49.14625" lon="-0.38704">
        <ele>4.8</ele>
        <time>2023-05-23T14:25:26Z</time>
      </trkpt>
      <trkpt lat="49.1463" lon="-0.387">
        <ele>5</ele>
        <time>2023-05-23T14:25:27Z</time>
      </trkpt>
      <trkpt lat="49.14636" lon="-0.38696">
        <ele>5</ele>
        <time>2023-05-23T14:25:28Z</time>
      </trkpt>
      <trkpt lat="49.14641" lon="-0.38691">
        <ele>5.2</ele>
        <time>2023-05-23T14:25:29Z</time>
      </trkpt>
      <trkpt lat="49.14647" lon="-0.38687">
        <ele>5.4</ele>
        <time>2023-05-23T14:25:30Z</time>
      </trkpt>
      <trkpt lat="49.14652" lon="-0.38682">
        <ele>5.6</ele>
        <time>2023-05-23T14:25:31Z</time>
      </trkpt>
      <trkpt lat="49.14658" lon="-0.38678">
        <ele>5.6</ele>
        <time>2023-05-23T14:25:32Z</time>
      </trkpt>
      <trkpt lat="49.14664" lon="-0.38673">
        <ele>6</ele>
        <time>2023-05-23T14:25:33Z</time>
      </trkpt>
      <trkpt lat="49.1467" lon="-0.38669">
        <ele>6</ele>
        <time>2023-05-23T14:25:34Z</time>
      </trkpt>
      <trkpt lat="49.14676" lon="-0.38665">
        <ele>6</ele>
        <time>2023-05-23T14:25:35Z</time>
      </trkpt>
      <trkpt lat="49.14681" lon="-0.3866">
        <ele>5.8</ele>
        <time>2023-05-23T14:25:36Z</time>
      </trkpt>
      <trkpt lat="49.14687" lon="-0.38656">
        <ele>5.6</ele>
        <time>2023-05-23T14:25:37Z</time>
      </trkpt>
      <trkpt lat="49.14693" lon="-0.38652">
        <ele>5.6</ele>
        <time>2023-05-23T14:25:38Z</time>
      </trkpt>
      <trkpt lat="49.14698" lon="-0.38648">
        <ele>5.6</ele>
        <time>2023-05-23T14:25:39Z</time>
      </trkpt>
      <trkpt lat="49.14702" lon="-0.38644">
        <ele>5.6</ele>
        <time>2023-05-23T14:25:40Z</time>
      </trkpt>
      <trkpt lat="49.14707" lon="-0.3864">
        <ele>5.4</ele>
        <time>2023-05-23T14:25:41Z</time>
      </trkpt>
      <trkpt lat="49.14711" lon="-0.38637">
        <ele>5.4</ele>
        <time>2023-05-23T14:25:42Z</time>
      </trkpt>
      <trkpt lat="49.14717" lon="-0.38634">
        <ele>5.2</ele>
        <time>2023-05-23T14:25:43Z</time>
      </trkpt>
      <trkpt lat="49.14722" lon="-0.3863">
        <ele>5</ele>
        <time>2023-05-23T14:25:44Z</time>
      </trkpt>
      <trkpt lat="49.14728" lon="-0.38627">
        <ele>5</ele>
        <time>2023-05-23T14:25:45Z</time>
      </trkpt>
      <trkpt lat="49.14733" lon="-0.38623">
        <ele>4.8</ele>
        <time>2023-05-23T14:25:46Z</time>
      </trkpt>
      <trkpt lat="49.14738" lon="-0.38619">
        <ele>4.6</ele>
        <time>2023-05-23T14:25:47Z</time>
      </trkpt>
      <trkpt lat="49.14744" lon="-0.38616">
        <ele>4.6</ele>
        <time>2023-05-23T14:25:48Z</time>
      </trkpt>
      <trkpt lat="49.14749" lon="-0.38613">
        <ele>4.4</ele>
        <time>2023-05-23T14:25:49Z</time>
      </trkpt>
      <trkpt lat="49.14754" lon="-0.38609">
        <ele>4.4</ele>
        <time>2023-05-23T14:25:50Z</time>
      </trkpt>
      <trkpt lat="49.1476" lon="-0.38604">
        <ele>4.4</ele>
        <time>2023-05-23T14:25:51Z</time>
      </trkpt>
      <trkpt lat="49.14766" lon="-0.386">
        <ele>4.4</ele>
        <time>2023-05-23T14:25:52Z</time>
      </trkpt>
      <trkpt lat="49.14771" lon="-0.38595">
        <ele>4.4</ele>
        <time>2023-05-23T14:25:53Z</time>
      </trkpt>
      <trkpt lat="49.14777" lon="-0.3859">
        <ele>4.4</ele>
        <time>2023-05-23T14:25:54Z</time>
      </trkpt>
      <trkpt lat="49.14783" lon="-0.38585">
        <ele>4.4</ele>
        <time>2023-05-23T14:25:55Z</time>
      </trkpt>
      <trkpt lat="49.14789" lon="-0.38581">
        <ele>4.6</ele>
        <time>2023-05-23T14:25:56Z</time>
      </trkpt>
      <trkpt lat="49.14795" lon="-0.38577">
        <ele>4.6</ele>
        <time>2023-05-23T14:25:57Z</time>
      </trkpt>
      <trkpt lat="49.14801" lon="-0.38573">
        <ele>4.6</ele>
        <time>2023-05-23T14:25:58Z</time>
      </trkpt>
      <trkpt lat="49.14807" lon="-0.3857">
        <ele>4.6</ele>
        <time>2023-05-23T14:25:59Z</time>
      </trkpt>
      <trkpt lat="49.14813" lon="-0.38566">
        <ele>4.8</ele>
        <time>2023-05-23T14:26:00Z</time>
      </trkpt>
      <trkpt lat="49.14819" lon="-0.38562">
        <ele>5</ele>
        <time>2023-05-23T14:26:01Z</time>
      </trkpt>
      <trkpt lat="49.14825" lon="-0.38558">
        <ele>5</ele>
        <time>2023-05-23T14:26:02Z</time>
      </trkpt>
      <trkpt lat="49.14831" lon="-0.38554">
        <ele>5</ele>
        <time>2023-05-23T14:26:03Z</time>
      </trkpt>
      <trkpt lat="49.14837" lon="-0.3855">
        <ele>5</ele>
        <time>2023-05-23T14:26:04Z</time>
      </trkpt>
      <trkpt lat="49.14843" lon="-0.38546">
        <ele>5</ele>
        <time>2023-05-23T14:26:05Z</time>
      </trkpt>
      <trkpt lat="49.14849" lon="-0.38542">
        <ele>5</ele>
        <time>2023-05-23T14:26:06Z</time>
      </trkpt>
      <trkpt lat="49.14854" lon="-0.38539">
        <ele>5</ele>
        <time>2023-05-23T14:26:07Z</time>
      </trkpt>
      <trkpt lat="49.1486" lon="-0.38536">
        <ele>5</ele>
        <time>2023-05-23T14:26:08Z</time>
      </trkpt>
      <trkpt lat="49.14866" lon="-0.38532">
        <ele>5</ele>
        <time>2023-05-23T14:26:09Z</time>
      </trkpt>
      <trkpt lat="49.14872" lon="-0.38529">
        <ele>5</ele>
        <time>2023-05-23T14:26:10Z</time>
      </trkpt>
      <trkpt lat="49.14878" lon="-0.38526">
        <ele>5.2</ele>
        <time>2023-05-23T14:26:11Z</time>
      </trkpt>
      <trkpt lat="49.14884" lon="-0.38522">
        <ele>5.4</ele>
        <time>2023-05-23T14:26:12Z</time>
      </trkpt>
      <trkpt lat="49.14891" lon="-0.38518">
        <ele>5.4</ele>
        <time>2023-05-23T14:26:13Z</time>
      </trkpt>
      <trkpt lat="49.14898" lon="-0.38514">
        <ele>5.6</ele>
        <time>2023-05-23T14:26:14Z</time>
      </trkpt>
      <trkpt lat="49.14904" lon="-0.3851">
        <ele>5.6</ele>
        <time>2023-05-23T14:26:15Z</time>
      </trkpt>
      <trkpt lat="49.14911" lon="-0.38506">
        <ele>5.8</ele>
        <time>2023-05-23T14:26:16Z</time>
      </trkpt>
      <trkpt lat="49.14917" lon="-0.38502">
        <ele>6</ele>
        <time>2023-05-23T14:26:17Z</time>
      </trkpt>
      <trkpt lat="49.14923" lon="-0.38499">
        <ele>6</ele>
        <time>2023-05-23T14:26:18Z</time>
      </trkpt>
      <trkpt lat="49.14929" lon="-0.38495">
        <ele>6.2</ele>
        <time>2023-05-23T14:26:19Z</time>
      </trkpt>
      <trkpt lat="49.14934" lon="-0.38492">
        <ele>6.4</ele>
        <time>2023-05-23T14:26:20Z</time>
      </trkpt>
      <trkpt lat="49.1494" lon="-0.38489">
        <ele>6.4</ele>
        <time>2023-05-23T14:26:21Z</time>
      </trkpt>
      <trkpt lat="49.14946" lon="-0.38486">
        <ele>6.6</ele>
        <time>2023-05-23T14:26:22Z</time>
      </trkpt>
      <trkpt lat="49.14952" lon="-0.38482">
        <ele>6.6</ele>
        <time>2023-05-23T14:26:23Z</time>
      </trkpt>
      <trkpt lat="49.14958" lon="-0.38479">
        <ele>6.6</ele>
        <time>2023-05-23T14:26:24Z</time>
      </trkpt>
      <trkpt lat="49.14965" lon="-0.38475">
        <ele>6.6</ele>
        <time>2023-05-23T14:26:25Z</time>
      </trkpt>
      <trkpt lat="49.14971" lon="-0.38471">
        <ele>6.6</ele>
        <time>2023-05-23T14:26:26Z</time>
      </trkpt>
      <trkpt lat="49.14977" lon="-0.38467">
        <ele>6.8</ele>
        <time>2023-05-23T14:26:27Z</time>
      </trkpt>
      <trkpt lat="49.14983" lon="-0.38464">
        <ele>6.8</ele>
        <time>2023-05-23T14:26:28Z</time>
      </trkpt>
      <trkpt lat="49.14989" lon="-0.38462">
        <ele>7</ele>
        <time>2023-05-23T14:26:29Z</time>
      </trkpt>
      <trkpt lat="49.14994" lon="-0.38459">
        <ele>7</ele>
        <time>2023-05-23T14:26:30Z</time>
      </trkpt>
      <trkpt lat="49.14999" lon="-0.38456">
        <ele>7</ele>
        <time>2023-05-23T14:26:31Z</time>
      </trkpt>
      <trkpt lat="49.15005" lon="-0.38453">
        <ele>6.6</ele>
        <time>2023-05-23T14:26:32Z</time>
      </trkpt>
      <trkpt lat="49.15012" lon="-0.3845">
        <ele>6.4</ele>
        <time>2023-05-23T14:26:33Z</time>
      </trkpt>
      <trkpt lat="49.15018" lon="-0.38446">
        <ele>6</ele>
        <time>2023-05-23T14:26:34Z</time>
      </trkpt>
      <trkpt lat="49.15023" lon="-0.38441">
        <ele>6</ele>
        <time>2023-05-23T14:26:35Z</time>
      </trkpt>
      <trkpt lat="49.15029" lon="-0.38436">
        <ele>5.6</ele>
        <time>2023-05-23T14:26:36Z</time>
      </trkpt>
      <trkpt lat="49.15035" lon="-0.38431">
        <ele>5.4</ele>
        <time>2023-05-23T14:26:37Z</time>
      </trkpt>
      <trkpt lat="49.15041" lon="-0.38426">
        <ele>5</ele>
        <time>2023-05-23T14:26:38Z</time>
      </trkpt>
      <trkpt lat="49.15046" lon="-0.38421">
        <ele>5</ele>
        <time>2023-05-23T14:26:39Z</time>
      </trkpt>
      <trkpt lat="49.15053" lon="-0.38416">
        <ele>4.6</ele>
        <time>2023-05-23T14:26:40Z</time>
      </trkpt>
      <trkpt lat="49.15059" lon="-0.38411">
        <ele>4.6</ele>
        <time>2023-05-23T14:26:41Z</time>
      </trkpt>
      <trkpt lat="49.15065" lon="-0.38406">
        <ele>4.6</ele>
        <time>2023-05-23T14:26:42Z</time>
      </trkpt>
      <trkpt lat="49.15072" lon="-0.38402">
        <ele>4.6</ele>
        <time>2023-05-23T14:26:43Z</time>
      </trkpt>
      <trkpt lat="49.15078" lon="-0.38397">
        <ele>4.6</ele>
        <time>2023-05-23T14:26:44Z</time>
      </trkpt>
      <trkpt lat="49.15085" lon="-0.38393">
        <ele>4.6</ele>
        <time>2023-05-23T14:26:45Z</time>
      </trkpt>
      <trkpt lat="49.15091" lon="-0.38388">
        <ele>4.6</ele>
        <time>2023-05-23T14:26:46Z</time>
      </trkpt>
      <trkpt lat="49.15098" lon="-0.38384">
        <ele>4.8</ele>
        <time>2023-05-23T14:26:47Z</time>
      </trkpt>
      <trkpt lat="49.15104" lon="-0.3838">
        <ele>5</ele>
        <time>2023-05-23T14:26:48Z</time>
      </trkpt>
      <trkpt lat="49.1511" lon="-0.38375">
        <ele>5</ele>
        <time>2023-05-23T14:26:49Z</time>
      </trkpt>
      <trkpt lat="49.15116" lon="-0.38371">
        <ele>5</ele>
        <time>2023-05-23T14:26:50Z</time>
      </trkpt>
      <trkpt lat="49.15122" lon="-0.38367">
        <ele>5.4</ele>
        <time>2023-05-23T14:26:51Z</time>
      </trkpt>
      <trkpt lat="49.15128" lon="-0.38364">
        <ele>5.4</ele>
        <time>2023-05-23T14:26:52Z</time>
      </trkpt>
      <trkpt lat="49.15134" lon="-0.3836">
        <ele>5.6</ele>
        <time>2023-05-23T14:26:53Z</time>
      </trkpt>
      <trkpt lat="49.15139" lon="-0.38356">
        <ele>5.8</ele>
        <time>2023-05-23T14:26:54Z</time>
      </trkpt>
      <trkpt lat="49.15145" lon="-0.38352">
        <ele>6</ele>
        <time>2023-05-23T14:26:55Z</time>
      </trkpt>
      <trkpt lat="49.1515" lon="-0.38348">
        <ele>6.2</ele>
        <time>2023-05-23T14:26:56Z</time>
      </trkpt>
      <trkpt lat="49.15156" lon="-0.38345">
        <ele>6.4</ele>
        <time>2023-05-23T14:26:57Z</time>
      </trkpt>
      <trkpt lat="49.1516" lon="-0.38342">
        <ele>6.6</ele>
        <time>2023-05-23T14:26:58Z</time>
      </trkpt>
      <trkpt lat="49.15165" lon="-0.38339">
        <ele>6.6</ele>
        <time>2023-05-23T14:26:59Z</time>
      </trkpt>
      <trkpt lat="49.15169" lon="-0.38336">
        <ele>6.8</ele>
        <time>2023-05-23T14:27:00Z</time>
      </trkpt>
      <trkpt lat="49.15172" lon="-0.38333">
        <ele>7</ele>
        <time>2023-05-23T14:27:01Z</time>
      </trkpt>
      <trkpt lat="49.15175" lon="-0.38329">
        <ele>6.8</ele>
        <time>2023-05-23T14:27:02Z</time>
      </trkpt>
      <trkpt lat="49.15178" lon="-0.38325">
        <ele>6.6</ele>
        <time>2023-05-23T14:27:03Z</time>
      </trkpt>
      <trkpt lat="49.15181" lon="-0.38322">
        <ele>6.6</ele>
        <time>2023-05-23T14:27:04Z</time>
      </trkpt>
      <trkpt lat="49.15184" lon="-0.38318">
        <ele>6.6</ele>
        <time>2023-05-23T14:27:05Z</time>
      </trkpt>
      <trkpt lat="49.15188" lon="-0.38313">
        <ele>6.6</ele>
        <time>2023-05-23T14:27:06Z</time>
      </trkpt>
      <trkpt lat="49.15192" lon="-0.38309">
        <ele>6.4</ele>
        <time>2023-05-23T14:27:07Z</time>
      </trkpt>
      <trkpt lat="49.15196" lon="-0.38305">
        <ele>6.4</ele>
        <time>2023-05-23T14:27:08Z</time>
      </trkpt>
      <trkpt lat="49.152" lon="-0.38301">
        <ele>6.2</ele>
        <time>2023-05-23T14:27:09Z</time>
      </trkpt>
      <trkpt lat="49.15204" lon="-0.38297">
        <ele>6</ele>
        <time>2023-05-23T14:27:10Z</time>
      </trkpt>
      <trkpt lat="49.15208" lon="-0.38294">
        <ele>6</ele>
        <time>2023-05-23T14:27:11Z</time>
      </trkpt>
      <trkpt lat="49.15212" lon="-0.38291">
        <ele>6</ele>
        <time>2023-05-23T14:27:12Z</time>
      </trkpt>
      <trkpt lat="49.15215" lon="-0.38289">
        <ele>5.8</ele>
        <time>2023-05-23T14:27:13Z</time>
      </trkpt>
      <trkpt lat="49.15217" lon="-0.38286">
        <ele>5.8</ele>
        <time>2023-05-23T14:27:14Z</time>
      </trkpt>
      <trkpt lat="49.15219" lon="-0.38285">
        <ele>5.6</ele>
        <time>2023-05-23T14:27:15Z</time>
      </trkpt>
      <trkpt lat="49.15222" lon="-0.38283">
        <ele>5.6</ele>
        <time>2023-05-23T14:27:16Z</time>
      </trkpt>
      <trkpt lat="49.15224" lon="-0.38281">
        <ele>5.6</ele>
        <time>2023-05-23T14:27:17Z</time>
      </trkpt>
      <trkpt lat="49.15226" lon="-0.38279">
        <ele>5.6</ele>
        <time>2023-05-23T14:27:18Z</time>
      </trkpt>
      <trkpt lat="49.15229" lon="-0.38278">
        <ele>5.6</ele>
        <time>2023-05-23T14:27:19Z</time>
      </trkpt>
      <trkpt lat="49.15233" lon="-0.38276">
        <ele>5.4</ele>
        <time>2023-05-23T14:27:20Z</time>
      </trkpt>
      <trkpt lat="49.15236" lon="-0.38274">
        <ele>5.4</ele>
        <time>2023-05-23T14:27:21Z</time>
      </trkpt>
      <trkpt lat="49.15241" lon="-0.38272">
        <ele>5.2</ele>
        <time>2023-05-23T14:27:22Z</time>
      </trkpt>
      <trkpt lat="49.15246" lon="-0.38269">
        <ele>5</ele>
        <time>2023-05-23T14:27:23Z</time>
      </trkpt>
      <trkpt lat="49.15252" lon="-0.38267">
        <ele>5</ele>
        <time>2023-05-23T14:27:24Z</time>
      </trkpt>
      <trkpt lat="49.15258" lon="-0.38265">
        <ele>5</ele>
        <time>2023-05-23T14:27:25Z</time>
      </trkpt>
      <trkpt lat="49.15265" lon="-0.38262">
        <ele>5</ele>
        <time>2023-05-23T14:27:26Z</time>
      </trkpt>
      <trkpt lat="49.15272" lon="-0.38259">
        <ele>5</ele>
        <time>2023-05-23T14:27:27Z</time>
      </trkpt>
      <trkpt lat="49.15279" lon="-0.38256">
        <ele>5</ele>
        <time>2023-05-23T14:27:28Z</time>
      </trkpt>
      <trkpt lat="49.15285" lon="-0.38252">
        <ele>5</ele>
        <time>2023-05-23T14:27:29Z</time>
      </trkpt>
      <trkpt lat="49.15292" lon="-0.38248">
        <ele>5</ele>
        <time>2023-05-23T14:27:30Z</time>
      </trkpt>
      <trkpt lat="49.15298" lon="-0.38244">
        <ele>5</ele>
        <time>2023-05-23T14:27:31Z</time>
      </trkpt>
      <trkpt lat="49.15305" lon="-0.3824">
        <ele>5</ele>
        <time>2023-05-23T14:27:32Z</time>
      </trkpt>
      <trkpt lat="49.15311" lon="-0.38236">
        <ele>5</ele>
        <time>2023-05-23T14:27:33Z</time>
      </trkpt>
      <trkpt lat="49.15318" lon="-0.38232">
        <ele>5</ele>
        <time>2023-05-23T14:27:34Z</time>
      </trkpt>
      <trkpt lat="49.15324" lon="-0.38228">
        <ele>5</ele>
        <time>2023-05-23T14:27:35Z</time>
      </trkpt>
      <trkpt lat="49.15331" lon="-0.38224">
        <ele>5</ele>
        <time>2023-05-23T14:27:36Z</time>
      </trkpt>
      <trkpt lat="49.15338" lon="-0.3822">
        <ele>5</ele>
        <time>2023-05-23T14:27:37Z</time>
      </trkpt>
      <trkpt lat="49.15345" lon="-0.38216">
        <ele>5</ele>
        <time>2023-05-23T14:27:38Z</time>
      </trkpt>
      <trkpt lat="49.15352" lon="-0.38211">
        <ele>5</ele>
        <time>2023-05-23T14:27:39Z</time>
      </trkpt>
      <trkpt lat="49.15359" lon="-0.38206">
        <ele>5</ele>
        <time>2023-05-23T14:27:40Z</time>
      </trkpt>
      <trkpt lat="49.15366" lon="-0.38201">
        <ele>4.8</ele>
        <time>2023-05-23T14:27:41Z</time>
      </trkpt>
      <trkpt lat="49.15373" lon="-0.38195">
        <ele>4.8</ele>
        <time>2023-05-23T14:27:42Z</time>
      </trkpt>
      <trkpt lat="49.1538" lon="-0.38189">
        <ele>5</ele>
        <time>2023-05-23T14:27:43Z</time>
      </trkpt>
      <trkpt lat="49.15387" lon="-0.38182">
        <ele>5</ele>
        <time>2023-05-23T14:27:44Z</time>
      </trkpt>
      <trkpt lat="49.15394" lon="-0.38175">
        <ele>5</ele>
        <time>2023-05-23T14:27:45Z</time>
      </trkpt>
      <trkpt lat="49.15401" lon="-0.38168">
        <ele>5</ele>
        <time>2023-05-23T14:27:46Z</time>
      </trkpt>
      <trkpt lat="49.15408" lon="-0.38161">
        <ele>5</ele>
        <time>2023-05-23T14:27:47Z</time>
      </trkpt>
      <trkpt lat="49.15415" lon="-0.38154">
        <ele>5</ele>
        <time>2023-05-23T14:27:48Z</time>
      </trkpt>
      <trkpt lat="49.15421" lon="-0.38146">
        <ele>5</ele>
        <time>2023-05-23T14:27:49Z</time>
      </trkpt>
      <trkpt lat="49.15426" lon="-0.38138">
        <ele>5</ele>
        <time>2023-05-23T14:27:50Z</time>
      </trkpt>
      <trkpt lat="49.15431" lon="-0.38129">
        <ele>5</ele>
        <time>2023-05-23T14:27:51Z</time>
      </trkpt>
      <trkpt lat="49.15436" lon="-0.38121">
        <ele>5</ele>
        <time>2023-05-23T14:27:52Z</time>
      </trkpt>
      <trkpt lat="49.1544" lon="-0.38112">
        <ele>5</ele>
        <time>2023-05-23T14:27:53Z</time>
      </trkpt>
      <trkpt lat="49.15445" lon="-0.38102">
        <ele>5</ele>
        <time>2023-05-23T14:27:54Z</time>
      </trkpt>
      <trkpt lat="49.15449" lon="-0.38093">
        <ele>5</ele>
        <time>2023-05-23T14:27:55Z</time>
      </trkpt>
      <trkpt lat="49.15452" lon="-0.38084">
        <ele>5</ele>
        <time>2023-05-23T14:27:56Z</time>
      </trkpt>
      <trkpt lat="49.15456" lon="-0.38075">
        <ele>5</ele>
        <time>2023-05-23T14:27:57Z</time>
      </trkpt>
      <trkpt lat="49.1546" lon="-0.38067">
        <ele>5</ele>
        <time>2023-05-23T14:27:58Z</time>
      </trkpt>
      <trkpt lat="49.15464" lon="-0.38058">
        <ele>5</ele>
        <time>2023-05-23T14:27:59Z</time>
      </trkpt>
      <trkpt lat="49.15468" lon="-0.38049">
        <ele>5</ele>
        <time>2023-05-23T14:28:00Z</time>
      </trkpt>
      <trkpt lat="49.15472" lon="-0.38041">
        <ele>5</ele>
        <time>2023-05-23T14:28:01Z</time>
      </trkpt>
      <trkpt lat="49.15475" lon="-0.38032">
        <ele>5</ele>
        <time>2023-05-23T14:28:02Z</time>
      </trkpt>
      <trkpt lat="49.15479" lon="-0.38024">
        <ele>5</ele>
        <time>2023-05-23T14:28:03Z</time>
      </trkpt>
      <trkpt lat="49.15482" lon="-0.38015">
        <ele>5</ele>
        <time>2023-05-23T14:28:04Z</time>
      </trkpt>
      <trkpt lat="49.15485" lon="-0.38007">
        <ele>5</ele>
        <time>2023-05-23T14:28:05Z</time>
      </trkpt>
      <trkpt lat="49.15489" lon="-0.37998">
        <ele>5</ele>
        <time>2023-05-23T14:28:06Z</time>
      </trkpt>
      <trkpt lat="49.15492" lon="-0.37992">
        <ele>5</ele>
        <time>2023-05-23T14:28:07Z</time>
      </trkpt>
      <trkpt lat="49.15497" lon="-0.37987">
        <ele>4.8</ele>
        <time>2023-05-23T14:28:08Z</time>
      </trkpt>
      <trkpt lat="49.15502" lon="-0.37984">
        <ele>4.8</ele>
        <time>2023-05-23T14:28:09Z</time>
      </trkpt>
      <trkpt lat="49.15508" lon="-0.37984">
        <ele>4.8</ele>
        <time>2023-05-23T14:28:10Z</time>
      </trkpt>
      <trkpt lat="49.15514" lon="-0.37985">
        <ele>4.8</ele>
        <time>2023-05-23T14:28:11Z</time>
      </trkpt>
      <trkpt lat="49.15519" lon="-0.37987">
        <ele>4.8</ele>
        <time>2023-05-23T14:28:12Z</time>
      </trkpt>
      <trkpt lat="49.15525" lon="-0.37989">
        <ele>4.8</ele>
        <time>2023-05-23T14:28:13Z</time>
      </trkpt>
      <trkpt lat="49.15531" lon="-0.3799">
        <ele>4.8</ele>
        <time>2023-05-23T14:28:14Z</time>
      </trkpt>
      <trkpt lat="49.15537" lon="-0.37993">
        <ele>5</ele>
        <time>2023-05-23T14:28:15Z</time>
      </trkpt>
      <trkpt lat="49.15543" lon="-0.37995">
        <ele>5</ele>
        <time>2023-05-23T14:28:16Z</time>
      </trkpt>
      <trkpt lat="49.15549" lon="-0.37997">
        <ele>5</ele>
        <time>2023-05-23T14:28:17Z</time>
      </trkpt>
      <trkpt lat="49.15555" lon="-0.37999">
        <ele>5</ele>
        <time>2023-05-23T14:28:18Z</time>
      </trkpt>
      <trkpt lat="49.15561" lon="-0.38001">
        <ele>5</ele>
        <time>2023-05-23T14:28:19Z</time>
      </trkpt>
      <trkpt lat="49.15567" lon="-0.38003">
        <ele>5</ele>
        <time>2023-05-23T14:28:20Z</time>
      </trkpt>
      <trkpt lat="49.15573" lon="-0.38006">
        <ele>5</ele>
        <time>2023-05-23T14:28:21Z</time>
      </trkpt>
      <trkpt lat="49.15579" lon="-0.38008">
        <ele>5</ele>
        <time>2023-05-23T14:28:22Z</time>
      </trkpt>
      <trkpt lat="49.15585" lon="-0.3801">
        <ele>5</ele>
        <time>2023-05-23T14:28:23Z</time>
      </trkpt>
      <trkpt lat="49.15591" lon="-0.38012">
        <ele>5.4</ele>
        <time>2023-05-23T14:28:24Z</time>
      </trkpt>
      <trkpt lat="49.15597" lon="-0.38015">
        <ele>5.6</ele>
        <time>2023-05-23T14:28:25Z</time>
      </trkpt>
      <trkpt lat="49.15603" lon="-0.38017">
        <ele>5.8</ele>
        <time>2023-05-23T14:28:26Z</time>
      </trkpt>
      <trkpt lat="49.15608" lon="-0.38019">
        <ele>6</ele>
        <time>2023-05-23T14:28:27Z</time>
      </trkpt>
      <trkpt lat="49.15614" lon="-0.38021">
        <ele>6.4</ele>
        <time>2023-05-23T14:28:28Z</time>
      </trkpt>
      <trkpt lat="49.1562" lon="-0.38023">
        <ele>6.6</ele>
        <time>2023-05-23T14:28:29Z</time>
      </trkpt>
      <trkpt lat="49.15627" lon="-0.38026">
        <ele>6.8</ele>
        <time>2023-05-23T14:28:30Z</time>
      </trkpt>
      <trkpt lat="49.15633" lon="-0.38028">
        <ele>7</ele>
        <time>2023-05-23T14:28:31Z</time>
      </trkpt>
      <trkpt lat="49.15639" lon="-0.3803">
        <ele>7.2</ele>
        <time>2023-05-23T14:28:32Z</time>
      </trkpt>
      <trkpt lat="49.15644" lon="-0.38033">
        <ele>7.4</ele>
        <time>2023-05-23T14:28:33Z</time>
      </trkpt>
      <trkpt lat="49.1565" lon="-0.38036">
        <ele>7.6</ele>
        <time>2023-05-23T14:28:34Z</time>
      </trkpt>
      <trkpt lat="49.15656" lon="-0.38038">
        <ele>7.6</ele>
        <time>2023-05-23T14:28:35Z</time>
      </trkpt>
      <trkpt lat="49.15663" lon="-0.3804">
        <ele>8</ele>
        <time>2023-05-23T14:28:36Z</time>
      </trkpt>
      <trkpt lat="49.15669" lon="-0.3804">
        <ele>8</ele>
        <time>2023-05-23T14:28:37Z</time>
      </trkpt>
      <trkpt lat="49.15674" lon="-0.38036">
        <ele>8.2</ele>
        <time>2023-05-23T14:28:38Z</time>
      </trkpt>
      <trkpt lat="49.15678" lon="-0.3803">
        <ele>8.2</ele>
        <time>2023-05-23T14:28:39Z</time>
      </trkpt>
      <trkpt lat="49.15681" lon="-0.38022">
        <ele>8.4</ele>
        <time>2023-05-23T14:28:40Z</time>
      </trkpt>
      <trkpt lat="49.15685" lon="-0.38014">
        <ele>8.6</ele>
        <time>2023-05-23T14:28:41Z</time>
      </trkpt>
      <trkpt lat="49.15689" lon="-0.38007">
        <ele>8.6</ele>
        <time>2023-05-23T14:28:42Z</time>
      </trkpt>
      <trkpt lat="49.15693" lon="-0.37999">
        <ele>8.6</ele>
        <time>2023-05-23T14:28:43Z</time>
      </trkpt>
      <trkpt lat="49.15697" lon="-0.37992">
        <ele>8.4</ele>
        <time>2023-05-23T14:28:44Z</time>
      </trkpt>
      <trkpt lat="49.15701" lon="-0.37984">
        <ele>8.2</ele>
        <time>2023-05-23T14:28:45Z</time>
      </trkpt>
      <trkpt lat="49.15705" lon="-0.37977">
        <ele>8</ele>
        <time>2023-05-23T14:28:46Z</time>
      </trkpt>
      <trkpt lat="49.1571" lon="-0.37971">
        <ele>7.6</ele>
        <time>2023-05-23T14:28:47Z</time>
      </trkpt>
      <trkpt lat="49.15715" lon="-0.37966">
        <ele>7.4</ele>
        <time>2023-05-23T14:28:48Z</time>
      </trkpt>
      <trkpt lat="49.1572" lon="-0.37961">
        <ele>7.4</ele>
        <time>2023-05-23T14:28:49Z</time>
      </trkpt>
      <trkpt lat="49.15725" lon="-0.37956">
        <ele>7</ele>
        <time>2023-05-23T14:28:50Z</time>
      </trkpt>
      <trkpt lat="49.15731" lon="-0.37951">
        <ele>7</ele>
        <time>2023-05-23T14:28:51Z</time>
      </trkpt>
      <trkpt lat="49.15736" lon="-0.37947">
        <ele>6.8</ele>
        <time>2023-05-23T14:28:52Z</time>
      </trkpt>
      <trkpt lat="49.15742" lon="-0.37943">
        <ele>6.6</ele>
        <time>2023-05-23T14:28:53Z</time>
      </trkpt>
      <trkpt lat="49.15748" lon="-0.37942">
        <ele>6.6</ele>
        <time>2023-05-23T14:28:54Z</time>
      </trkpt>
      <trkpt lat="49.15754" lon="-0.37943">
        <ele>6.6</ele>
        <time>2023-05-23T14:28:55Z</time>
      </trkpt>
      <trkpt lat="49.15759" lon="-0.37946">
        <ele>7</ele>
        <time>2023-05-23T14:28:56Z</time>
      </trkpt>
      <trkpt lat="49.15764" lon="-0.37949">
        <ele>7</ele>
        <time>2023-05-23T14:28:57Z</time>
      </trkpt>
      <trkpt lat="49.15769" lon="-0.37949">
        <ele>7</ele>
        <time>2023-05-23T14:28:58Z</time>
      </trkpt>
      <trkpt lat="49.15774" lon="-0.37946">
        <ele>7.2</ele>
        <time>2023-05-23T14:28:59Z</time>
      </trkpt>
      <trkpt lat="49.15779" lon="-0.37942">
        <ele>7.2</ele>
        <time>2023-05-23T14:29:00Z</time>
      </trkpt>
      <trkpt lat="49.15784" lon="-0.37938">
        <ele>7.2</ele>
        <time>2023-05-23T14:29:01Z</time>
      </trkpt>
      <trkpt lat="49.15789" lon="-0.37934">
        <ele>7.4</ele>
        <time>2023-05-23T14:29:02Z</time>
      </trkpt>
      <trkpt lat="49.15795" lon="-0.37931">
        <ele>7.4</ele>
        <time>2023-05-23T14:29:03Z</time>
      </trkpt>
      <trkpt lat="49.158" lon="-0.37928">
        <ele>7.4</ele>
        <time>2023-05-23T14:29:04Z</time>
      </trkpt>
      <trkpt lat="49.15805" lon="-0.37925">
        <ele>7.6</ele>
        <time>2023-05-23T14:29:05Z</time>
      </trkpt>
      <trkpt lat="49.1581" lon="-0.37922">
        <ele>7.6</ele>
        <time>2023-05-23T14:29:06Z</time>
      </trkpt>
      <trkpt lat="49.15816" lon="-0.3792">
        <ele>7.6</ele>
        <time>2023-05-23T14:29:07Z</time>
      </trkpt>
      <trkpt lat="49.15821" lon="-0.37917">
        <ele>7.6</ele>
        <time>2023-05-23T14:29:08Z</time>
      </trkpt>
      <trkpt lat="49.15827" lon="-0.37914">
        <ele>7.8</ele>
        <time>2023-05-23T14:29:09Z</time>
      </trkpt>
      <trkpt lat="49.15832" lon="-0.3791">
        <ele>7.8</ele>
        <time>2023-05-23T14:29:10Z</time>
      </trkpt>
      <trkpt lat="49.15838" lon="-0.37907">
        <ele>7.8</ele>
        <time>2023-05-23T14:29:11Z</time>
      </trkpt>
      <trkpt lat="49.15844" lon="-0.37903">
        <ele>7.8</ele>
        <time>2023-05-23T14:29:12Z</time>
      </trkpt>
      <trkpt lat="49.1585" lon="-0.37899">
        <ele>7.8</ele>
        <time>2023-05-23T14:29:13Z</time>
      </trkpt>
      <trkpt lat="49.15856" lon="-0.37895">
        <ele>7.8</ele>
        <time>2023-05-23T14:29:14Z</time>
      </trkpt>
      <trkpt lat="49.15863" lon="-0.37891">
        <ele>7.6</ele>
        <time>2023-05-23T14:29:15Z</time>
      </trkpt>
      <trkpt lat="49.15869" lon="-0.37887">
        <ele>7.6</ele>
        <time>2023-05-23T14:29:16Z</time>
      </trkpt>
      <trkpt lat="49.15875" lon="-0.37882">
        <ele>7.6</ele>
        <time>2023-05-23T14:29:17Z</time>
      </trkpt>
      <trkpt lat="49.15882" lon="-0.37878">
        <ele>7.6</ele>
        <time>2023-05-23T14:29:18Z</time>
      </trkpt>
      <trkpt lat="49.15888" lon="-0.37874">
        <ele>7.6</ele>
        <time>2023-05-23T14:29:19Z</time>
      </trkpt>
      <trkpt lat="49.15895" lon="-0.3787">
        <ele>7.6</ele>
        <time>2023-05-23T14:29:20Z</time>
      </trkpt>
      <trkpt lat="49.15902" lon="-0.37866">
        <ele>7.6</ele>
        <time>2023-05-23T14:29:21Z</time>
      </trkpt>
      <trkpt lat="49.15909" lon="-0.37861">
        <ele>7.6</ele>
        <time>2023-05-23T14:29:22Z</time>
      </trkpt>
      <trkpt lat="49.15916" lon="-0.37857">
        <ele>7.6</ele>
        <time>2023-05-23T14:29:23Z</time>
      </trkpt>
      <trkpt lat="49.15922" lon="-0.37853">
        <ele>7.6</ele>
        <time>2023-05-23T14:29:24Z</time>
      </trkpt>
      <trkpt lat="49.15929" lon="-0.37848">
        <ele>7.6</ele>
        <time>2023-05-23T14:29:25Z</time>
      </trkpt>
      <trkpt lat="49.15936" lon="-0.37844">
        <ele>7.6</ele>
        <time>2023-05-23T14:29:26Z</time>
      </trkpt>
      <trkpt lat="49.15942" lon="-0.3784">
        <ele>7.8</ele>
        <time>2023-05-23T14:29:27Z</time>
      </trkpt>
      <trkpt lat="49.15949" lon="-0.37836">
        <ele>7.8</ele>
        <time>2023-05-23T14:29:28Z</time>
      </trkpt>
      <trkpt lat="49.15956" lon="-0.37832">
        <ele>8</ele>
        <time>2023-05-23T14:29:29Z</time>
      </trkpt>
      <trkpt lat="49.15962" lon="-0.37828">
        <ele>7.8</ele>
        <time>2023-05-23T14:29:30Z</time>
      </trkpt>
      <trkpt lat="49.15968" lon="-0.37825">
        <ele>7.8</ele>
        <time>2023-05-23T14:29:31Z</time>
      </trkpt>
      <trkpt lat="49.15974" lon="-0.37822">
        <ele>7.8</ele>
        <time>2023-05-23T14:29:32Z</time>
      </trkpt>
      <trkpt lat="49.1598" lon="-0.37819">
        <ele>7.6</ele>
        <time>2023-05-23T14:29:33Z</time>
      </trkpt>
      <trkpt lat="49.15985" lon="-0.37815">
        <ele>7.6</ele>
        <time>2023-05-23T14:29:34Z</time>
      </trkpt>
      <trkpt lat="49.15991" lon="-0.37812">
        <ele>7.6</ele>
        <time>2023-05-23T14:29:35Z</time>
      </trkpt>
      <trkpt lat="49.15997" lon="-0.37809">
        <ele>7.6</ele>
        <time>2023-05-23T14:29:36Z</time>
      </trkpt>
      <trkpt lat="49.16002" lon="-0.37805">
        <ele>7.4</ele>
        <time>2023-05-23T14:29:37Z</time>
      </trkpt>
      <trkpt lat="49.16008" lon="-0.37802">
        <ele>7.4</ele>
        <time>2023-05-23T14:29:38Z</time>
      </trkpt>
      <trkpt lat="49.16015" lon="-0.37798">
        <ele>7.2</ele>
        <time>2023-05-23T14:29:39Z</time>
      </trkpt>
      <trkpt lat="49.16021" lon="-0.37794">
        <ele>7</ele>
        <time>2023-05-23T14:29:40Z</time>
      </trkpt>
      <trkpt lat="49.16027" lon="-0.37791">
        <ele>7</ele>
        <time>2023-05-23T14:29:41Z</time>
      </trkpt>
      <trkpt lat="49.16034" lon="-0.37787">
        <ele>7</ele>
        <time>2023-05-23T14:29:42Z</time>
      </trkpt>
      <trkpt lat="49.1604" lon="-0.37783">
        <ele>7</ele>
        <time>2023-05-23T14:29:43Z</time>
      </trkpt>
      <trkpt lat="49.16047" lon="-0.37779">
        <ele>7</ele>
        <time>2023-05-23T14:29:44Z</time>
      </trkpt>
      <trkpt lat="49.16053" lon="-0.37775">
        <ele>7</ele>
        <time>2023-05-23T14:29:45Z</time>
      </trkpt>
      <trkpt lat="49.16059" lon="-0.3777">
        <ele>7</ele>
        <time>2023-05-23T14:29:46Z</time>
      </trkpt>
      <trkpt lat="49.16065" lon="-0.37766">
        <ele>7</ele>
        <time>2023-05-23T14:29:47Z</time>
      </trkpt>
      <trkpt lat="49.16071" lon="-0.37762">
        <ele>7</ele>
        <time>2023-05-23T14:29:48Z</time>
      </trkpt>
      <trkpt lat="49.16077" lon="-0.37758">
        <ele>7</ele>
        <time>2023-05-23T14:29:49Z</time>
      </trkpt>
      <trkpt lat="49.16083" lon="-0.37754">
        <ele>7.2</ele>
        <time>2023-05-23T14:29:50Z</time>
      </trkpt>
      <trkpt lat="49.16089" lon="-0.37751">
        <ele>7</ele>
        <time>2023-05-23T14:29:51Z</time>
      </trkpt>
      <trkpt lat="49.16095" lon="-0.37747">
        <ele>7</ele>
        <time>2023-05-23T14:29:52Z</time>
      </trkpt>
      <trkpt lat="49.16102" lon="-0.37743">
        <ele>6.8</ele>
        <time>2023-05-23T14:29:53Z</time>
      </trkpt>
      <trkpt lat="49.16108" lon="-0.37739">
        <ele>6.6</ele>
        <time>2023-05-23T14:29:54Z</time>
      </trkpt>
      <trkpt lat="49.16114" lon="-0.37736">
        <ele>6.6</ele>
        <time>2023-05-23T14:29:55Z</time>
      </trkpt>
      <trkpt lat="49.1612" lon="-0.37732">
        <ele>6.6</ele>
        <time>2023-05-23T14:29:56Z</time>
      </trkpt>
      <trkpt lat="49.16126" lon="-0.37728">
        <ele>6.6</ele>
        <time>2023-05-23T14:29:57Z</time>
      </trkpt>
      <trkpt lat="49.16133" lon="-0.37724">
        <ele>6.4</ele>
        <time>2023-05-23T14:29:58Z</time>
      </trkpt>
      <trkpt lat="49.16139" lon="-0.37721">
        <ele>6.4</ele>
        <time>2023-05-23T14:29:59Z</time>
      </trkpt>
      <trkpt lat="49.16145" lon="-0.37717">
        <ele>6.2</ele>
        <time>2023-05-23T14:30:00Z</time>
      </trkpt>
      <trkpt lat="49.16152" lon="-0.37713">
        <ele>6</ele>
        <time>2023-05-23T14:30:01Z</time>
      </trkpt>
      <trkpt lat="49.16158" lon="-0.37709">
        <ele>6</ele>
        <time>2023-05-23T14:30:02Z</time>
      </trkpt>
      <trkpt lat="49.16165" lon="-0.37705">
        <ele>6</ele>
        <time>2023-05-23T14:30:03Z</time>
      </trkpt>
      <trkpt lat="49.16171" lon="-0.377">
        <ele>6</ele>
        <time>2023-05-23T14:30:04Z</time>
      </trkpt>
      <trkpt lat="49.16178" lon="-0.37696">
        <ele>6.2</ele>
        <time>2023-05-23T14:30:05Z</time>
      </trkpt>
      <trkpt lat="49.16184" lon="-0.37692">
        <ele>6.4</ele>
        <time>2023-05-23T14:30:06Z</time>
      </trkpt>
      <trkpt lat="49.1619" lon="-0.37688">
        <ele>6.6</ele>
        <time>2023-05-23T14:30:07Z</time>
      </trkpt>
      <trkpt lat="49.16196" lon="-0.37685">
        <ele>6.8</ele>
        <time>2023-05-23T14:30:08Z</time>
      </trkpt>
      <trkpt lat="49.16201" lon="-0.37681">
        <ele>7</ele>
        <time>2023-05-23T14:30:09Z</time>
      </trkpt>
      <trkpt lat="49.16207" lon="-0.37678">
        <ele>7</ele>
        <time>2023-05-23T14:30:10Z</time>
      </trkpt>
      <trkpt lat="49.16212" lon="-0.37675">
        <ele>7.4</ele>
        <time>2023-05-23T14:30:11Z</time>
      </trkpt>
      <trkpt lat="49.16218" lon="-0.37672">
        <ele>7.6</ele>
        <time>2023-05-23T14:30:12Z</time>
      </trkpt>
      <trkpt lat="49.16223" lon="-0.37668">
        <ele>7.6</ele>
        <time>2023-05-23T14:30:13Z</time>
      </trkpt>
      <trkpt lat="49.16229" lon="-0.37665">
        <ele>8</ele>
        <time>2023-05-23T14:30:14Z</time>
      </trkpt>
      <trkpt lat="49.16235" lon="-0.37662">
        <ele>8.2</ele>
        <time>2023-05-23T14:30:15Z</time>
      </trkpt>
      <trkpt lat="49.16241" lon="-0.37658">
        <ele>8.2</ele>
        <time>2023-05-23T14:30:16Z</time>
      </trkpt>
      <trkpt lat="49.16247" lon="-0.37654">
        <ele>8.4</ele>
        <time>2023-05-23T14:30:17Z</time>
      </trkpt>
      <trkpt lat="49.16253" lon="-0.37651">
        <ele>8.4</ele>
        <time>2023-05-23T14:30:18Z</time>
      </trkpt>
      <trkpt lat="49.16259" lon="-0.37647">
        <ele>8.2</ele>
        <time>2023-05-23T14:30:19Z</time>
      </trkpt>
      <trkpt lat="49.16265" lon="-0.37643">
        <ele>8.2</ele>
        <time>2023-05-23T14:30:20Z</time>
      </trkpt>
      <trkpt lat="49.1627" lon="-0.37639">
        <ele>8.2</ele>
        <time>2023-05-23T14:30:21Z</time>
      </trkpt>
      <trkpt lat="49.16276" lon="-0.37635">
        <ele>8</ele>
        <time>2023-05-23T14:30:22Z</time>
      </trkpt>
      <trkpt lat="49.16282" lon="-0.37631">
        <ele>8</ele>
        <time>2023-05-23T14:30:23Z</time>
      </trkpt>
      <trkpt lat="49.16287" lon="-0.37628">
        <ele>8</ele>
        <time>2023-05-23T14:30:24Z</time>
      </trkpt>
      <trkpt lat="49.16292" lon="-0.37625">
        <ele>8</ele>
        <time>2023-05-23T14:30:25Z</time>
      </trkpt>
      <trkpt lat="49.16296" lon="-0.37623">
        <ele>8</ele>
        <time>2023-05-23T14:30:26Z</time>
      </trkpt>
      <trkpt lat="49.163" lon="-0.3762">
        <ele>8.2</ele>
        <time>2023-05-23T14:30:27Z</time>
      </trkpt>
      <trkpt lat="49.16304" lon="-0.37618">
        <ele>8.2</ele>
        <time>2023-05-23T14:30:28Z</time>
      </trkpt>
      <trkpt lat="49.16308" lon="-0.37616">
        <ele>8.2</ele>
        <time>2023-05-23T14:30:29Z</time>
      </trkpt>
      <trkpt lat="49.16312" lon="-0.37613">
        <ele>8.2</ele>
        <time>2023-05-23T14:30:30Z</time>
      </trkpt>
      <trkpt lat="49.16316" lon="-0.37609">
        <ele>8.2</ele>
        <time>2023-05-23T14:30:31Z</time>
      </trkpt>
      <trkpt lat="49.1632" lon="-0.37606">
        <ele>8.2</ele>
        <time>2023-05-23T14:30:32Z</time>
      </trkpt>
      <trkpt lat="49.16325" lon="-0.37604">
        <ele>8.2</ele>
        <time>2023-05-23T14:30:33Z</time>
      </trkpt>
      <trkpt lat="49.16328" lon="-0.37603">
        <ele>8.4</ele>
        <time>2023-05-23T14:30:34Z</time>
      </trkpt>
      <trkpt lat="49.16332" lon="-0.37602">
        <ele>8.4</ele>
        <time>2023-05-23T14:30:35Z</time>
      </trkpt>
      <trkpt lat="49.16335" lon="-0.37599">
        <ele>8.4</ele>
        <time>2023-05-23T14:30:36Z</time>
      </trkpt>
      <trkpt lat="49.16339" lon="-0.37596">
        <ele>8</ele>
        <time>2023-05-23T14:30:37Z</time>
      </trkpt>
      <trkpt lat="49.16342" lon="-0.37593">
        <ele>7.6</ele>
        <time>2023-05-23T14:30:38Z</time>
      </trkpt>
      <trkpt lat="49.16346" lon="-0.3759">
        <ele>7.4</ele>
        <time>2023-05-23T14:30:39Z</time>
      </trkpt>
      <trkpt lat="49.16351" lon="-0.37589">
        <ele>7</ele>
        <time>2023-05-23T14:30:40Z</time>
      </trkpt>
      <trkpt lat="49.16355" lon="-0.37587">
        <ele>6.8</ele>
        <time>2023-05-23T14:30:41Z</time>
      </trkpt>
      <trkpt lat="49.16359" lon="-0.37587">
        <ele>6.6</ele>
        <time>2023-05-23T14:30:42Z</time>
      </trkpt>
      <trkpt lat="49.16362" lon="-0.37589">
        <ele>6.4</ele>
        <time>2023-05-23T14:30:43Z</time>
      </trkpt>
      <trkpt lat="49.16364" lon="-0.37591">
        <ele>6.4</ele>
        <time>2023-05-23T14:30:44Z</time>
      </trkpt>
      <trkpt lat="49.16365" lon="-0.37595">
        <ele>6.4</ele>
        <time>2023-05-23T14:30:45Z</time>
      </trkpt>
      <trkpt lat="49.16365" lon="-0.376">
        <ele>6.6</ele>
        <time>2023-05-23T14:30:46Z</time>
      </trkpt>
      <trkpt lat="49.16364" lon="-0.37606">
        <ele>6.6</ele>
        <time>2023-05-23T14:30:47Z</time>
      </trkpt>
      <trkpt lat="49.16362" lon="-0.37613">
        <ele>7</ele>
        <time>2023-05-23T14:30:48Z</time>
      </trkpt>
      <trkpt lat="49.16361" lon="-0.3762">
        <ele>7.2</ele>
        <time>2023-05-23T14:30:49Z</time>
      </trkpt>
      <trkpt lat="49.16358" lon="-0.37627">
        <ele>7.6</ele>
        <time>2023-05-23T14:30:50Z</time>
      </trkpt>
      <trkpt lat="49.16355" lon="-0.37635">
        <ele>8</ele>
        <time>2023-05-23T14:30:51Z</time>
      </trkpt>
      <trkpt lat="49.16352" lon="-0.37643">
        <ele>8.4</ele>
        <time>2023-05-23T14:30:52Z</time>
      </trkpt>
      <trkpt lat="49.16349" lon="-0.37651">
        <ele>8.6</ele>
        <time>2023-05-23T14:30:53Z</time>
      </trkpt>
      <trkpt lat="49.16346" lon="-0.37658">
        <ele>9</ele>
        <time>2023-05-23T14:30:54Z</time>
      </trkpt>
      <trkpt lat="49.16343" lon="-0.37666">
        <ele>9.4</ele>
        <time>2023-05-23T14:30:55Z</time>
      </trkpt>
      <trkpt lat="49.1634" lon="-0.37674">
        <ele>9.8</ele>
        <time>2023-05-23T14:30:56Z</time>
      </trkpt>
      <trkpt lat="49.16337" lon="-0.37682">
        <ele>10.4</ele>
        <time>2023-05-23T14:30:57Z</time>
      </trkpt>
      <trkpt lat="49.16334" lon="-0.37689">
        <ele>10.8</ele>
        <time>2023-05-23T14:30:58Z</time>
      </trkpt>
      <trkpt lat="49.16331" lon="-0.37696">
        <ele>11</ele>
        <time>2023-05-23T14:30:59Z</time>
      </trkpt>
      <trkpt lat="49.16328" lon="-0.37703">
        <ele>11.2</ele>
        <time>2023-05-23T14:31:00Z</time>
      </trkpt>
      <trkpt lat="49.16325" lon="-0.37708">
        <ele>11.4</ele>
        <time>2023-05-23T14:31:01Z</time>
      </trkpt>
      <trkpt lat="49.16322" lon="-0.37714">
        <ele>11.4</ele>
        <time>2023-05-23T14:31:02Z</time>
      </trkpt>
      <trkpt lat="49.16319" lon="-0.3772">
        <ele>11.6</ele>
        <time>2023-05-23T14:31:03Z</time>
      </trkpt>
      <trkpt lat="49.16318" lon="-0.37726">
        <ele>11.6</ele>
        <time>2023-05-23T14:31:04Z</time>
      </trkpt>
      <trkpt lat="49.16317" lon="-0.37733">
        <ele>11.8</ele>
        <time>2023-05-23T14:31:05Z</time>
      </trkpt>
      <trkpt lat="49.16318" lon="-0.37738">
        <ele>12.2</ele>
        <time>2023-05-23T14:31:06Z</time>
      </trkpt>
      <trkpt lat="49.16321" lon="-0.37742">
        <ele>12.4</ele>
        <time>2023-05-23T14:31:07Z</time>
      </trkpt>
      <trkpt lat="49.16325" lon="-0.37743">
        <ele>12.6</ele>
        <time>2023-05-23T14:31:08Z</time>
      </trkpt>
      <trkpt lat="49.16329" lon="-0.37744">
        <ele>12.6</ele>
        <time>2023-05-23T14:31:09Z</time>
      </trkpt>
      <trkpt lat="49.16334" lon="-0.37743">
        <ele>12.6</ele>
        <time>2023-05-23T14:31:10Z</time>
      </trkpt>
      <trkpt lat="49.16339" lon="-0.37741">
        <ele>12.6</ele>
        <time>2023-05-23T14:31:11Z</time>
      </trkpt>
      <trkpt lat="49.16345" lon="-0.37739">
        <ele>12.4</ele>
        <time>2023-05-23T14:31:12Z</time>
      </trkpt>
      <trkpt lat="49.1635" lon="-0.37737">
        <ele>12</ele>
        <time>2023-05-23T14:31:13Z</time>
      </trkpt>
      <trkpt lat="49.16356" lon="-0.37735">
        <ele>11.8</ele>
        <time>2023-05-23T14:31:14Z</time>
      </trkpt>
      <trkpt lat="49.16362" lon="-0.37732">
        <ele>11.6</ele>
        <time>2023-05-23T14:31:15Z</time>
      </trkpt>
      <trkpt lat="49.16368" lon="-0.3773">
        <ele>11.2</ele>
        <time>2023-05-23T14:31:16Z</time>
      </trkpt>
      <trkpt lat="49.16373" lon="-0.37728">
        <ele>10.8</ele>
        <time>2023-05-23T14:31:17Z</time>
      </trkpt>
      <trkpt lat="49.16379" lon="-0.37727">
        <ele>10.6</ele>
        <time>2023-05-23T14:31:18Z</time>
      </trkpt>
      <trkpt lat="49.16385" lon="-0.37725">
        <ele>10.4</ele>
        <time>2023-05-23T14:31:19Z</time>
      </trkpt>
      <trkpt lat="49.16391" lon="-0.37724">
        <ele>10</ele>
        <time>2023-05-23T14:31:20Z</time>
      </trkpt>
      <trkpt lat="49.16397" lon="-0.37723">
        <ele>9.8</ele>
        <time>2023-05-23T14:31:21Z</time>
      </trkpt>
      <trkpt lat="49.16403" lon="-0.37722">
        <ele>9.6</ele>
        <time>2023-05-23T14:31:22Z</time>
      </trkpt>
      <trkpt lat="49.16409" lon="-0.37722">
        <ele>9.4</ele>
        <time>2023-05-23T14:31:23Z</time>
      </trkpt>
      <trkpt lat="49.16415" lon="-0.37722">
        <ele>9.2</ele>
        <time>2023-05-23T14:31:24Z</time>
      </trkpt>
      <trkpt lat="49.16421" lon="-0.37722">
        <ele>8.6</ele>
        <time>2023-05-23T14:31:25Z</time>
      </trkpt>
      <trkpt lat="49.16427" lon="-0.37723">
        <ele>8.4</ele>
        <time>2023-05-23T14:31:26Z</time>
      </trkpt>
      <trkpt lat="49.16432" lon="-0.37723">
        <ele>8</ele>
        <time>2023-05-23T14:31:27Z</time>
      </trkpt>
      <trkpt lat="49.16438" lon="-0.37724">
        <ele>7.6</ele>
        <time>2023-05-23T14:31:28Z</time>
      </trkpt>
      <trkpt lat="49.16444" lon="-0.37725">
        <ele>7</ele>
        <time>2023-05-23T14:31:29Z</time>
      </trkpt>
      <trkpt lat="49.1645" lon="-0.37726">
        <ele>6.6</ele>
        <time>2023-05-23T14:31:30Z</time>
      </trkpt>
      <trkpt lat="49.16456" lon="-0.37726">
        <ele>6.4</ele>
        <time>2023-05-23T14:31:31Z</time>
      </trkpt>
      <trkpt lat="49.16462" lon="-0.37726">
        <ele>6</ele>
        <time>2023-05-23T14:31:32Z</time>
      </trkpt>
      <trkpt lat="49.16468" lon="-0.37727">
        <ele>5.4</ele>
        <time>2023-05-23T14:31:33Z</time>
      </trkpt>
      <trkpt lat="49.16474" lon="-0.37727">
        <ele>5</ele>
        <time>2023-05-23T14:31:34Z</time>
      </trkpt>
      <trkpt lat="49.16479" lon="-0.37727">
        <ele>4.6</ele>
        <time>2023-05-23T14:31:35Z</time>
      </trkpt>
      <trkpt lat="49.16485" lon="-0.37727">
        <ele>4</ele>
        <time>2023-05-23T14:31:36Z</time>
      </trkpt>
      <trkpt lat="49.1649" lon="-0.37727">
        <ele>3.8</ele>
        <time>2023-05-23T14:31:37Z</time>
      </trkpt>
      <trkpt lat="49.16496" lon="-0.37727">
        <ele>3.2</ele>
        <time>2023-05-23T14:31:38Z</time>
      </trkpt>
      <trkpt lat="49.16502" lon="-0.37728">
        <ele>3</ele>
        <time>2023-05-23T14:31:39Z</time>
      </trkpt>
      <trkpt lat="49.16507" lon="-0.37728">
        <ele>3</ele>
        <time>2023-05-23T14:31:40Z</time>
      </trkpt>
      <trkpt lat="49.16513" lon="-0.3773">
        <ele>3</ele>
        <time>2023-05-23T14:31:41Z</time>
      </trkpt>
      <trkpt lat="49.16519" lon="-0.37731">
        <ele>3</ele>
        <time>2023-05-23T14:31:42Z</time>
      </trkpt>
      <trkpt lat="49.16525" lon="-0.37733">
        <ele>3.2</ele>
        <time>2023-05-23T14:31:43Z</time>
      </trkpt>
      <trkpt lat="49.16531" lon="-0.37736">
        <ele>3.2</ele>
        <time>2023-05-23T14:31:44Z</time>
      </trkpt>
      <trkpt lat="49.16537" lon="-0.37739">
        <ele>3.2</ele>
        <time>2023-05-23T14:31:45Z</time>
      </trkpt>
      <trkpt lat="49.16542" lon="-0.37743">
        <ele>3.4</ele>
        <time>2023-05-23T14:31:46Z</time>
      </trkpt>
      <trkpt lat="49.16547" lon="-0.37748">
        <ele>3.6</ele>
        <time>2023-05-23T14:31:47Z</time>
      </trkpt>
      <trkpt lat="49.16552" lon="-0.37754">
        <ele>3.8</ele>
        <time>2023-05-23T14:31:48Z</time>
      </trkpt>
      <trkpt lat="49.16555" lon="-0.3776">
        <ele>3.8</ele>
        <time>2023-05-23T14:31:49Z</time>
      </trkpt>
      <trkpt lat="49.16559" lon="-0.37767">
        <ele>4</ele>
        <time>2023-05-23T14:31:50Z</time>
      </trkpt>
      <trkpt lat="49.16562" lon="-0.37774">
        <ele>4</ele>
        <time>2023-05-23T14:31:51Z</time>
      </trkpt>
      <trkpt lat="49.16565" lon="-0.37781">
        <ele>4</ele>
        <time>2023-05-23T14:31:52Z</time>
      </trkpt>
      <trkpt lat="49.16568" lon="-0.37788">
        <ele>4</ele>
        <time>2023-05-23T14:31:53Z</time>
      </trkpt>
      <trkpt lat="49.16571" lon="-0.37794">
        <ele>4</ele>
        <time>2023-05-23T14:31:54Z</time>
      </trkpt>
      <trkpt lat="49.16575" lon="-0.37799">
        <ele>4</ele>
        <time>2023-05-23T14:31:55Z</time>
      </trkpt>
      <trkpt lat="49.16578" lon="-0.37804">
        <ele>4</ele>
        <time>2023-05-23T14:31:56Z</time>
      </trkpt>
      <trkpt lat="49.16582" lon="-0.37808">
        <ele>4</ele>
        <time>2023-05-23T14:31:57Z</time>
      </trkpt>
      <trkpt lat="49.16584" lon="-0.37812">
        <ele>4</ele>
        <time>2023-05-23T14:31:58Z</time>
      </trkpt>
      <trkpt lat="49.16586" lon="-0.37816">
        <ele>4</ele>
        <time>2023-05-23T14:31:59Z</time>
      </trkpt>
      <trkpt lat="49.16587" lon="-0.37821">
        <ele>4</ele>
        <time>2023-05-23T14:32:00Z</time>
      </trkpt>
      <trkpt lat="49.16587" lon="-0.37827">
        <ele>4</ele>
        <time>2023-05-23T14:32:01Z</time>
      </trkpt>
      <trkpt lat="49.16586" lon="-0.37833">
        <ele>4</ele>
        <time>2023-05-23T14:32:02Z</time>
      </trkpt>
      <trkpt lat="49.16585" lon="-0.37841">
        <ele>4</ele>
        <time>2023-05-23T14:32:03Z</time>
      </trkpt>
      <trkpt lat="49.16583" lon="-0.37849">
        <ele>3.8</ele>
        <time>2023-05-23T14:32:04Z</time>
      </trkpt>
      <trkpt lat="49.16582" lon="-0.37856">
        <ele>3.8</ele>
        <time>2023-05-23T14:32:05Z</time>
      </trkpt>
      <trkpt lat="49.16581" lon="-0.37864">
        <ele>3.8</ele>
        <time>2023-05-23T14:32:06Z</time>
      </trkpt>
      <trkpt lat="49.16579" lon="-0.37871">
        <ele>3.8</ele>
        <time>2023-05-23T14:32:07Z</time>
      </trkpt>
      <trkpt lat="49.16578" lon="-0.37879">
        <ele>3.8</ele>
        <time>2023-05-23T14:32:08Z</time>
      </trkpt>
      <trkpt lat="49.16578" lon="-0.37886">
        <ele>3.6</ele>
        <time>2023-05-23T14:32:09Z</time>
      </trkpt>
      <trkpt lat="49.16577" lon="-0.37892">
        <ele>3.6</ele>
        <time>2023-05-23T14:32:10Z</time>
      </trkpt>
      <trkpt lat="49.16576" lon="-0.37899">
        <ele>3.6</ele>
        <time>2023-05-23T14:32:11Z</time>
      </trkpt>
      <trkpt lat="49.16576" lon="-0.37905">
        <ele>3.6</ele>
        <time>2023-05-23T14:32:12Z</time>
      </trkpt>
      <trkpt lat="49.16575" lon="-0.37912">
        <ele>3.6</ele>
        <time>2023-05-23T14:32:13Z</time>
      </trkpt>
      <trkpt lat="49.16574" lon="-0.37919">
        <ele>3.6</ele>
        <time>2023-05-23T14:32:14Z</time>
      </trkpt>
      <trkpt lat="49.16573" lon="-0.37927">
        <ele>3.8</ele>
        <time>2023-05-23T14:32:15Z</time>
      </trkpt>
      <trkpt lat="49.16572" lon="-0.37935">
        <ele>3.8</ele>
        <time>2023-05-23T14:32:16Z</time>
      </trkpt>
      <trkpt lat="49.16571" lon="-0.37943">
        <ele>4</ele>
        <time>2023-05-23T14:32:17Z</time>
      </trkpt>
      <trkpt lat="49.1657" lon="-0.37951">
        <ele>4</ele>
        <time>2023-05-23T14:32:18Z</time>
      </trkpt>
      <trkpt lat="49.16569" lon="-0.3796">
        <ele>4.2</ele>
        <time>2023-05-23T14:32:19Z</time>
      </trkpt>
      <trkpt lat="49.16568" lon="-0.37968">
        <ele>4.4</ele>
        <time>2023-05-23T14:32:20Z</time>
      </trkpt>
      <trkpt lat="49.16567" lon="-0.37975">
        <ele>4.4</ele>
        <time>2023-05-23T14:32:21Z</time>
      </trkpt>
      <trkpt lat="49.16566" lon="-0.37983">
        <ele>4.6</ele>
        <time>2023-05-23T14:32:22Z</time>
      </trkpt>
      <trkpt lat="49.16565" lon="-0.3799">
        <ele>4.6</ele>
        <time>2023-05-23T14:32:23Z</time>
      </trkpt>
      <trkpt lat="49.16564" lon="-0.37997">
        <ele>4.6</ele>
        <time>2023-05-23T14:32:24Z</time>
      </trkpt>
      <trkpt lat="49.16563" lon="-0.38005">
        <ele>4.6</ele>
        <time>2023-05-23T14:32:25Z</time>
      </trkpt>
      <trkpt lat="49.16562" lon="-0.38013">
        <ele>4.8</ele>
        <time>2023-05-23T14:32:26Z</time>
      </trkpt>
      <trkpt lat="49.16562" lon="-0.38021">
        <ele>4.8</ele>
        <time>2023-05-23T14:32:27Z</time>
      </trkpt>
      <trkpt lat="49.16561" lon="-0.38029">
        <ele>4.8</ele>
        <time>2023-05-23T14:32:28Z</time>
      </trkpt>
      <trkpt lat="49.1656" lon="-0.38038">
        <ele>4.8</ele>
        <time>2023-05-23T14:32:29Z</time>
      </trkpt>
      <trkpt lat="49.16559" lon="-0.38046">
        <ele>4.8</ele>
        <time>2023-05-23T14:32:30Z</time>
      </trkpt>
      <trkpt lat="49.16559" lon="-0.38054">
        <ele>4.8</ele>
        <time>2023-05-23T14:32:31Z</time>
      </trkpt>
      <trkpt lat="49.16558" lon="-0.38062">
        <ele>4.8</ele>
        <time>2023-05-23T14:32:32Z</time>
      </trkpt>
      <trkpt lat="49.16558" lon="-0.38069">
        <ele>4.6</ele>
        <time>2023-05-23T14:32:33Z</time>
      </trkpt>
      <trkpt lat="49.16557" lon="-0.38077">
        <ele>4.6</ele>
        <time>2023-05-23T14:32:34Z</time>
      </trkpt>
      <trkpt lat="49.16557" lon="-0.38084">
        <ele>4.6</ele>
        <time>2023-05-23T14:32:35Z</time>
      </trkpt>
      <trkpt lat="49.16557" lon="-0.38092">
        <ele>4.8</ele>
        <time>2023-05-23T14:32:36Z</time>
      </trkpt>
      <trkpt lat="49.16556" lon="-0.38099">
        <ele>5</ele>
        <time>2023-05-23T14:32:37Z</time>
      </trkpt>
      <trkpt lat="49.16556" lon="-0.38107">
        <ele>5</ele>
        <time>2023-05-23T14:32:38Z</time>
      </trkpt>
      <trkpt lat="49.16556" lon="-0.38115">
        <ele>5</ele>
        <time>2023-05-23T14:32:39Z</time>
      </trkpt>
      <trkpt lat="49.16556" lon="-0.38123">
        <ele>5</ele>
        <time>2023-05-23T14:32:40Z</time>
      </trkpt>
      <trkpt lat="49.16555" lon="-0.38131">
        <ele>5.2</ele>
        <time>2023-05-23T14:32:41Z</time>
      </trkpt>
      <trkpt lat="49.16555" lon="-0.3814">
        <ele>5.4</ele>
        <time>2023-05-23T14:32:42Z</time>
      </trkpt>
      <trkpt lat="49.16555" lon="-0.38148">
        <ele>5.4</ele>
        <time>2023-05-23T14:32:43Z</time>
      </trkpt>
      <trkpt lat="49.16555" lon="-0.38156">
        <ele>5.6</ele>
        <time>2023-05-23T14:32:44Z</time>
      </trkpt>
      <trkpt lat="49.16554" lon="-0.38165">
        <ele>5.6</ele>
        <time>2023-05-23T14:32:45Z</time>
      </trkpt>
      <trkpt lat="49.16554" lon="-0.38173">
        <ele>5.6</ele>
        <time>2023-05-23T14:32:46Z</time>
      </trkpt>
      <trkpt lat="49.16554" lon="-0.38181">
        <ele>5.6</ele>
        <time>2023-05-23T14:32:47Z</time>
      </trkpt>
      <trkpt lat="49.16554" lon="-0.38189">
        <ele>5.6</ele>
        <time>2023-05-23T14:32:48Z</time>
      </trkpt>
      <trkpt lat="49.16554" lon="-0.38197">
        <ele>5.4</ele>
        <time>2023-05-23T14:32:49Z</time>
      </trkpt>
      <trkpt lat="49.16554" lon="-0.38205">
        <ele>5.4</ele>
        <time>2023-05-23T14:32:50Z</time>
      </trkpt>
      <trkpt lat="49.16554" lon="-0.38213">
        <ele>5.4</ele>
        <time>2023-05-23T14:32:51Z</time>
      </trkpt>
      <trkpt lat="49.16554" lon="-0.38221">
        <ele>5.2</ele>
        <time>2023-05-23T14:32:52Z</time>
      </trkpt>
      <trkpt lat="49.16554" lon="-0.38229">
        <ele>5</ele>
        <time>2023-05-23T14:32:53Z</time>
      </trkpt>
      <trkpt lat="49.16554" lon="-0.38237">
        <ele>5</ele>
        <time>2023-05-23T14:32:54Z</time>
      </trkpt>
      <trkpt lat="49.16554" lon="-0.38245">
        <ele>5</ele>
        <time>2023-05-23T14:32:55Z</time>
      </trkpt>
      <trkpt lat="49.16554" lon="-0.38252">
        <ele>5</ele>
        <time>2023-05-23T14:32:56Z</time>
      </trkpt>
      <trkpt lat="49.16554" lon="-0.3826">
        <ele>5</ele>
        <time>2023-05-23T14:32:57Z</time>
      </trkpt>
      <trkpt lat="49.16554" lon="-0.38268">
        <ele>5</ele>
        <time>2023-05-23T14:32:58Z</time>
      </trkpt>
      <trkpt lat="49.16554" lon="-0.38276">
        <ele>5</ele>
        <time>2023-05-23T14:32:59Z</time>
      </trkpt>
      <trkpt lat="49.16554" lon="-0.38284">
        <ele>5</ele>
        <time>2023-05-23T14:33:00Z</time>
      </trkpt>
      <trkpt lat="49.16554" lon="-0.38291">
        <ele>5</ele>
        <time>2023-05-23T14:33:01Z</time>
      </trkpt>
      <trkpt lat="49.16553" lon="-0.38299">
        <ele>5</ele>
        <time>2023-05-23T14:33:02Z</time>
      </trkpt>
      <trkpt lat="49.16553" lon="-0.38306">
        <ele>5.2</ele>
        <time>2023-05-23T14:33:03Z</time>
      </trkpt>
      <trkpt lat="49.16553" lon="-0.38314">
        <ele>5.2</ele>
        <time>2023-05-23T14:33:04Z</time>
      </trkpt>
      <trkpt lat="49.16554" lon="-0.38321">
        <ele>5.2</ele>
        <time>2023-05-23T14:33:05Z</time>
      </trkpt>
      <trkpt lat="49.16554" lon="-0.38329">
        <ele>5.4</ele>
        <time>2023-05-23T14:33:06Z</time>
      </trkpt>
      <trkpt lat="49.16555" lon="-0.38338">
        <ele>5.4</ele>
        <time>2023-05-23T14:33:07Z</time>
      </trkpt>
      <trkpt lat="49.16555" lon="-0.38346">
        <ele>5.4</ele>
        <time>2023-05-23T14:33:08Z</time>
      </trkpt>
      <trkpt lat="49.16555" lon="-0.38354">
        <ele>5.2</ele>
        <time>2023-05-23T14:33:09Z</time>
      </trkpt>
      <trkpt lat="49.16556" lon="-0.38362">
        <ele>5.2</ele>
        <time>2023-05-23T14:33:10Z</time>
      </trkpt>
      <trkpt lat="49.16556" lon="-0.3837">
        <ele>5.2</ele>
        <time>2023-05-23T14:33:11Z</time>
      </trkpt>
      <trkpt lat="49.16556" lon="-0.38377">
        <ele>5.2</ele>
        <time>2023-05-23T14:33:12Z</time>
      </trkpt>
      <trkpt lat="49.16556" lon="-0.38385">
        <ele>5</ele>
        <time>2023-05-23T14:33:13Z</time>
      </trkpt>
      <trkpt lat="49.16556" lon="-0.38393">
        <ele>5</ele>
        <time>2023-05-23T14:33:14Z</time>
      </trkpt>
      <trkpt lat="49.16556" lon="-0.38401">
        <ele>5</ele>
        <time>2023-05-23T14:33:15Z</time>
      </trkpt>
      <trkpt lat="49.16556" lon="-0.3841">
        <ele>5</ele>
        <time>2023-05-23T14:33:16Z</time>
      </trkpt>
      <trkpt lat="49.16556" lon="-0.38418">
        <ele>5</ele>
        <time>2023-05-23T14:33:17Z</time>
      </trkpt>
      <trkpt lat="49.16556" lon="-0.38426">
        <ele>5</ele>
        <time>2023-05-23T14:33:18Z</time>
      </trkpt>
      <trkpt lat="49.16556" lon="-0.38435">
        <ele>5</ele>
        <time>2023-05-23T14:33:19Z</time>
      </trkpt>
      <trkpt lat="49.16557" lon="-0.38443">
        <ele>5</ele>
        <time>2023-05-23T14:33:20Z</time>
      </trkpt>
      <trkpt lat="49.16557" lon="-0.38452">
        <ele>5</ele>
        <time>2023-05-23T14:33:21Z</time>
      </trkpt>
      <trkpt lat="49.16557" lon="-0.3846">
        <ele>5</ele>
        <time>2023-05-23T14:33:22Z</time>
      </trkpt>
      <trkpt lat="49.16557" lon="-0.38469">
        <ele>5</ele>
        <time>2023-05-23T14:33:23Z</time>
      </trkpt>
      <trkpt lat="49.16557" lon="-0.38477">
        <ele>5</ele>
        <time>2023-05-23T14:33:24Z</time>
      </trkpt>
      <trkpt lat="49.16557" lon="-0.38486">
        <ele>5</ele>
        <time>2023-05-23T14:33:25Z</time>
      </trkpt>
      <trkpt lat="49.16557" lon="-0.38494">
        <ele>5</ele>
        <time>2023-05-23T14:33:26Z</time>
      </trkpt>
      <trkpt lat="49.16557" lon="-0.38503">
        <ele>5</ele>
        <time>2023-05-23T14:33:27Z</time>
      </trkpt>
      <trkpt lat="49.16557" lon="-0.38511">
        <ele>5</ele>
        <time>2023-05-23T14:33:28Z</time>
      </trkpt>
      <trkpt lat="49.16557" lon="-0.38519">
        <ele>5</ele>
        <time>2023-05-23T14:33:29Z</time>
      </trkpt>
      <trkpt lat="49.16557" lon="-0.38527">
        <ele>5</ele>
        <time>2023-05-23T14:33:30Z</time>
      </trkpt>
      <trkpt lat="49.16557" lon="-0.38535">
        <ele>5</ele>
        <time>2023-05-23T14:33:31Z</time>
      </trkpt>
      <trkpt lat="49.16556" lon="-0.38543">
        <ele>5</ele>
        <time>2023-05-23T14:33:32Z</time>
      </trkpt>
      <trkpt lat="49.16556" lon="-0.38551">
        <ele>5</ele>
        <time>2023-05-23T14:33:33Z</time>
      </trkpt>
      <trkpt lat="49.16556" lon="-0.38559">
        <ele>5</ele>
        <time>2023-05-23T14:33:34Z</time>
      </trkpt>
      <trkpt lat="49.16556" lon="-0.38565">
        <ele>5</ele>
        <time>2023-05-23T14:33:35Z</time>
      </trkpt>
      <trkpt lat="49.16556" lon="-0.38572">
        <ele>5</ele>
        <time>2023-05-23T14:33:36Z</time>
      </trkpt>
      <trkpt lat="49.16557" lon="-0.38579">
        <ele>5</ele>
        <time>2023-05-23T14:33:37Z</time>
      </trkpt>
      <trkpt lat="49.16557" lon="-0.38587">
        <ele>5</ele>
        <time>2023-05-23T14:33:38Z</time>
      </trkpt>
      <trkpt lat="49.16557" lon="-0.38594">
        <ele>5</ele>
        <time>2023-05-23T14:33:39Z</time>
      </trkpt>
      <trkpt lat="49.16557" lon="-0.38602">
        <ele>5</ele>
        <time>2023-05-23T14:33:40Z</time>
      </trkpt>
      <trkpt lat="49.16557" lon="-0.3861">
        <ele>5</ele>
        <time>2023-05-23T14:33:41Z</time>
      </trkpt>
      <trkpt lat="49.16557" lon="-0.38617">
        <ele>5</ele>
        <time>2023-05-23T14:33:42Z</time>
      </trkpt>
      <trkpt lat="49.16557" lon="-0.38624">
        <ele>5</ele>
        <time>2023-05-23T14:33:43Z</time>
      </trkpt>
      <trkpt lat="49.16557" lon="-0.38631">
        <ele>5</ele>
        <time>2023-05-23T14:33:44Z</time>
      </trkpt>
      <trkpt lat="49.16558" lon="-0.38639">
        <ele>5</ele>
        <time>2023-05-23T14:33:45Z</time>
      </trkpt>
      <trkpt lat="49.16558" lon="-0.38646">
        <ele>5</ele>
        <time>2023-05-23T14:33:46Z</time>
      </trkpt>
      <trkpt lat="49.16558" lon="-0.38654">
        <ele>5</ele>
        <time>2023-05-23T14:33:47Z</time>
      </trkpt>
      <trkpt lat="49.16559" lon="-0.38661">
        <ele>5</ele>
        <time>2023-05-23T14:33:48Z</time>
      </trkpt>
      <trkpt lat="49.16559" lon="-0.38669">
        <ele>5</ele>
        <time>2023-05-23T14:33:49Z</time>
      </trkpt>
      <trkpt lat="49.16559" lon="-0.38676">
        <ele>5.2</ele>
        <time>2023-05-23T14:33:50Z</time>
      </trkpt>
      <trkpt lat="49.1656" lon="-0.38684">
        <ele>5.2</ele>
        <time>2023-05-23T14:33:51Z</time>
      </trkpt>
      <trkpt lat="49.1656" lon="-0.38691">
        <ele>5.2</ele>
        <time>2023-05-23T14:33:52Z</time>
      </trkpt>
      <trkpt lat="49.1656" lon="-0.38699">
        <ele>5.4</ele>
        <time>2023-05-23T14:33:53Z</time>
      </trkpt>
      <trkpt lat="49.1656" lon="-0.38706">
        <ele>5.4</ele>
        <time>2023-05-23T14:33:54Z</time>
      </trkpt>
      <trkpt lat="49.1656" lon="-0.38714">
        <ele>5.4</ele>
        <time>2023-05-23T14:33:55Z</time>
      </trkpt>
      <trkpt lat="49.1656" lon="-0.38721">
        <ele>5.4</ele>
        <time>2023-05-23T14:33:56Z</time>
      </trkpt>
      <trkpt lat="49.16561" lon="-0.38729">
        <ele>5.4</ele>
        <time>2023-05-23T14:33:57Z</time>
      </trkpt>
      <trkpt lat="49.16562" lon="-0.38737">
        <ele>5.4</ele>
        <time>2023-05-23T14:33:58Z</time>
      </trkpt>
      <trkpt lat="49.16564" lon="-0.38742">
        <ele>5.6</ele>
        <time>2023-05-23T14:33:59Z</time>
      </trkpt>
      <trkpt lat="49.16567" lon="-0.38746">
        <ele>5.6</ele>
        <time>2023-05-23T14:34:00Z</time>
      </trkpt>
      <trkpt lat="49.1657" lon="-0.38747">
        <ele>5.6</ele>
        <time>2023-05-23T14:34:01Z</time>
      </trkpt>
      <trkpt lat="49.16573" lon="-0.38745">
        <ele>5.6</ele>
        <time>2023-05-23T14:34:02Z</time>
      </trkpt>
      <trkpt lat="49.16575" lon="-0.3874">
        <ele>5.8</ele>
        <time>2023-05-23T14:34:03Z</time>
      </trkpt>
      <trkpt lat="49.16576" lon="-0.38733">
        <ele>5.8</ele>
        <time>2023-05-23T14:34:04Z</time>
      </trkpt>
      <trkpt lat="49.16577" lon="-0.38725">
        <ele>5.8</ele>
        <time>2023-05-23T14:34:05Z</time>
      </trkpt>
      <trkpt lat="49.16579" lon="-0.38718">
        <ele>6</ele>
        <time>2023-05-23T14:34:06Z</time>
      </trkpt>
      <trkpt lat="49.16581" lon="-0.3871">
        <ele>6</ele>
        <time>2023-05-23T14:34:07Z</time>
      </trkpt>
      <trkpt lat="49.16583" lon="-0.38702">
        <ele>6</ele>
        <time>2023-05-23T14:34:08Z</time>
      </trkpt>
      <trkpt lat="49.16585" lon="-0.38695">
        <ele>6</ele>
        <time>2023-05-23T14:34:09Z</time>
      </trkpt>
      <trkpt lat="49.16588" lon="-0.38687">
        <ele>6</ele>
        <time>2023-05-23T14:34:10Z</time>
      </trkpt>
      <trkpt lat="49.16591" lon="-0.3868">
        <ele>6</ele>
        <time>2023-05-23T14:34:11Z</time>
      </trkpt>
      <trkpt lat="49.16594" lon="-0.38673">
        <ele>6</ele>
        <time>2023-05-23T14:34:12Z</time>
      </trkpt>
      <trkpt lat="49.16597" lon="-0.38666">
        <ele>6</ele>
        <time>2023-05-23T14:34:13Z</time>
      </trkpt>
      <trkpt lat="49.16601" lon="-0.38659">
        <ele>6</ele>
        <time>2023-05-23T14:34:14Z</time>
      </trkpt>
      <trkpt lat="49.16604" lon="-0.38652">
        <ele>6</ele>
        <time>2023-05-23T14:34:15Z</time>
      </trkpt>
      <trkpt lat="49.16606" lon="-0.38644">
        <ele>6</ele>
        <time>2023-05-23T14:34:16Z</time>
      </trkpt>
      <trkpt lat="49.16606" lon="-0.38636">
        <ele>6</ele>
        <time>2023-05-23T14:34:17Z</time>
      </trkpt>
      <trkpt lat="49.16604" lon="-0.3863">
        <ele>6</ele>
        <time>2023-05-23T14:34:18Z</time>
      </trkpt>
      <trkpt lat="49.16601" lon="-0.38623">
        <ele>6</ele>
        <time>2023-05-23T14:34:19Z</time>
      </trkpt>
      <trkpt lat="49.16598" lon="-0.38617">
        <ele>6</ele>
        <time>2023-05-23T14:34:20Z</time>
      </trkpt>
      <trkpt lat="49.16595" lon="-0.38612">
        <ele>6</ele>
        <time>2023-05-23T14:34:21Z</time>
      </trkpt>
      <trkpt lat="49.16593" lon="-0.38607">
        <ele>6</ele>
        <time>2023-05-23T14:34:22Z</time>
      </trkpt>
      <trkpt lat="49.1659" lon="-0.38603">
        <ele>6</ele>
        <time>2023-05-23T14:34:23Z</time>
      </trkpt>
      <trkpt lat="49.16588" lon="-0.38598">
        <ele>6</ele>
        <time>2023-05-23T14:34:24Z</time>
      </trkpt>
      <trkpt lat="49.16586" lon="-0.38594">
        <ele>6</ele>
        <time>2023-05-23T14:34:25Z</time>
      </trkpt>
      <trkpt lat="49.16584" lon="-0.38589">
        <ele>6</ele>
        <time>2023-05-23T14:34:26Z</time>
      </trkpt>
      <trkpt lat="49.16584" lon="-0.38583">
        <ele>6</ele>
        <time>2023-05-23T14:34:27Z</time>
      </trkpt>
      <trkpt lat="49.16585" lon="-0.38578">
        <ele>6</ele>
        <time>2023-05-23T14:34:28Z</time>
      </trkpt>
      <trkpt lat="49.16587" lon="-0.38575">
        <ele>6</ele>
        <time>2023-05-23T14:34:29Z</time>
      </trkpt>
      <trkpt lat="49.16589" lon="-0.38573">
        <ele>5.8</ele>
        <time>2023-05-23T14:34:30Z</time>
      </trkpt>
      <trkpt lat="49.16593" lon="-0.38573">
        <ele>5.8</ele>
        <time>2023-05-23T14:34:31Z</time>
      </trkpt>
      <trkpt lat="49.16596" lon="-0.38572">
        <ele>5.8</ele>
        <time>2023-05-23T14:34:32Z</time>
      </trkpt>
      <trkpt lat="49.16599" lon="-0.38571">
        <ele>5.6</ele>
        <time>2023-05-23T14:34:33Z</time>
      </trkpt>
      <trkpt lat="49.16603" lon="-0.3857">
        <ele>5.6</ele>
        <time>2023-05-23T14:34:34Z</time>
      </trkpt>
      <trkpt lat="49.16606" lon="-0.38567">
        <ele>5.6</ele>
        <time>2023-05-23T14:34:35Z</time>
      </trkpt>
      <trkpt lat="49.1661" lon="-0.38564">
        <ele>5.6</ele>
        <time>2023-05-23T14:34:36Z</time>
      </trkpt>
      <trkpt lat="49.16614" lon="-0.3856">
        <ele>5.6</ele>
        <time>2023-05-23T14:34:37Z</time>
      </trkpt>
      <trkpt lat="49.16618" lon="-0.38557">
        <ele>5.6</ele>
        <time>2023-05-23T14:34:38Z</time>
      </trkpt>
      <trkpt lat="49.16622" lon="-0.38553">
        <ele>5.6</ele>
        <time>2023-05-23T14:34:39Z</time>
      </trkpt>
      <trkpt lat="49.16627" lon="-0.3855">
        <ele>5.6</ele>
        <time>2023-05-23T14:34:40Z</time>
      </trkpt>
      <trkpt lat="49.16632" lon="-0.38549">
        <ele>5.6</ele>
        <time>2023-05-23T14:34:41Z</time>
      </trkpt>
      <trkpt lat="49.16637" lon="-0.3855">
        <ele>5.6</ele>
        <time>2023-05-23T14:34:42Z</time>
      </trkpt>
      <trkpt lat="49.16642" lon="-0.3855">
        <ele>5.6</ele>
        <time>2023-05-23T14:34:43Z</time>
      </trkpt>
      <trkpt lat="49.16646" lon="-0.3855">
        <ele>5.6</ele>
        <time>2023-05-23T14:34:44Z</time>
      </trkpt>
      <trkpt lat="49.16651" lon="-0.38549">
        <ele>5.4</ele>
        <time>2023-05-23T14:34:45Z</time>
      </trkpt>
      <trkpt lat="49.16654" lon="-0.38547">
        <ele>5.6</ele>
        <time>2023-05-23T14:34:46Z</time>
      </trkpt>
      <trkpt lat="49.16658" lon="-0.38545">
        <ele>5.6</ele>
        <time>2023-05-23T14:34:47Z</time>
      </trkpt>
      <trkpt lat="49.16662" lon="-0.38543">
        <ele>5.6</ele>
        <time>2023-05-23T14:34:48Z</time>
      </trkpt>
      <trkpt lat="49.16665" lon="-0.3854">
        <ele>5.6</ele>
        <time>2023-05-23T14:34:49Z</time>
      </trkpt>
      <trkpt lat="49.16669" lon="-0.38537">
        <ele>5.6</ele>
        <time>2023-05-23T14:34:50Z</time>
      </trkpt>
      <trkpt lat="49.16672" lon="-0.38534">
        <ele>5.6</ele>
        <time>2023-05-23T14:34:51Z</time>
      </trkpt>
      <trkpt lat="49.16676" lon="-0.3853">
        <ele>5.6</ele>
        <time>2023-05-23T14:34:52Z</time>
      </trkpt>
      <trkpt lat="49.1668" lon="-0.38526">
        <ele>5.6</ele>
        <time>2023-05-23T14:34:53Z</time>
      </trkpt>
      <trkpt lat="49.16683" lon="-0.38522">
        <ele>5.8</ele>
        <time>2023-05-23T14:34:54Z</time>
      </trkpt>
      <trkpt lat="49.16687" lon="-0.38517">
        <ele>6</ele>
        <time>2023-05-23T14:34:55Z</time>
      </trkpt>
      <trkpt lat="49.16691" lon="-0.38512">
        <ele>6</ele>
        <time>2023-05-23T14:34:56Z</time>
      </trkpt>
      <trkpt lat="49.16695" lon="-0.38506">
        <ele>6.2</ele>
        <time>2023-05-23T14:34:57Z</time>
      </trkpt>
      <trkpt lat="49.16699" lon="-0.38501">
        <ele>6.4</ele>
        <time>2023-05-23T14:34:58Z</time>
      </trkpt>
      <trkpt lat="49.16703" lon="-0.38495">
        <ele>6.6</ele>
        <time>2023-05-23T14:34:59Z</time>
      </trkpt>
      <trkpt lat="49.16706" lon="-0.3849">
        <ele>6.6</ele>
        <time>2023-05-23T14:35:00Z</time>
      </trkpt>
      <trkpt lat="49.1671" lon="-0.38485">
        <ele>6.6</ele>
        <time>2023-05-23T14:35:01Z</time>
      </trkpt>
      <trkpt lat="49.16714" lon="-0.38482">
        <ele>6.6</ele>
        <time>2023-05-23T14:35:02Z</time>
      </trkpt>
      <trkpt lat="49.16718" lon="-0.38481">
        <ele>6.6</ele>
        <time>2023-05-23T14:35:03Z</time>
      </trkpt>
      <trkpt lat="49.16722" lon="-0.38481">
        <ele>6.6</ele>
        <time>2023-05-23T14:35:04Z</time>
      </trkpt>
      <trkpt lat="49.16726" lon="-0.38484">
        <ele>6.8</ele>
        <time>2023-05-23T14:35:05Z</time>
      </trkpt>
      <trkpt lat="49.16729" lon="-0.38488">
        <ele>6.8</ele>
        <time>2023-05-23T14:35:06Z</time>
      </trkpt>
      <trkpt lat="49.16732" lon="-0.38494">
        <ele>6.8</ele>
        <time>2023-05-23T14:35:07Z</time>
      </trkpt>
      <trkpt lat="49.16735" lon="-0.38499">
        <ele>6.8</ele>
        <time>2023-05-23T14:35:08Z</time>
      </trkpt>
      <trkpt lat="49.16737" lon="-0.38505">
        <ele>6.6</ele>
        <time>2023-05-23T14:35:09Z</time>
      </trkpt>
      <trkpt lat="49.1674" lon="-0.38511">
        <ele>6.6</ele>
        <time>2023-05-23T14:35:10Z</time>
      </trkpt>
      <trkpt lat="49.16742" lon="-0.38517">
        <ele>6.4</ele>
        <time>2023-05-23T14:35:11Z</time>
      </trkpt>
      <trkpt lat="49.16744" lon="-0.38523">
        <ele>6</ele>
        <time>2023-05-23T14:35:12Z</time>
      </trkpt>
      <trkpt lat="49.16746" lon="-0.3853">
        <ele>6</ele>
        <time>2023-05-23T14:35:13Z</time>
      </trkpt>
      <trkpt lat="49.16747" lon="-0.38538">
        <ele>5.6</ele>
        <time>2023-05-23T14:35:14Z</time>
      </trkpt>
      <trkpt lat="49.16748" lon="-0.38545">
        <ele>5.4</ele>
        <time>2023-05-23T14:35:15Z</time>
      </trkpt>
      <trkpt lat="49.16748" lon="-0.38553">
        <ele>5</ele>
        <time>2023-05-23T14:35:16Z</time>
      </trkpt>
      <trkpt lat="49.16748" lon="-0.38561">
        <ele>4.8</ele>
        <time>2023-05-23T14:35:17Z</time>
      </trkpt>
      <trkpt lat="49.16748" lon="-0.3857">
        <ele>4.6</ele>
        <time>2023-05-23T14:35:18Z</time>
      </trkpt>
      <trkpt lat="49.16747" lon="-0.38579">
        <ele>4.2</ele>
        <time>2023-05-23T14:35:19Z</time>
      </trkpt>
      <trkpt lat="49.16747" lon="-0.38587">
        <ele>4</ele>
        <time>2023-05-23T14:35:20Z</time>
      </trkpt>
      <trkpt lat="49.16746" lon="-0.38596">
        <ele>4.2</ele>
        <time>2023-05-23T14:35:21Z</time>
      </trkpt>
      <trkpt lat="49.16746" lon="-0.38605">
        <ele>4.4</ele>
        <time>2023-05-23T14:35:22Z</time>
      </trkpt>
      <trkpt lat="49.16745" lon="-0.38614">
        <ele>4.4</ele>
        <time>2023-05-23T14:35:23Z</time>
      </trkpt>
      <trkpt lat="49.16745" lon="-0.38624">
        <ele>4.6</ele>
        <time>2023-05-23T14:35:24Z</time>
      </trkpt>
      <trkpt lat="49.16745" lon="-0.38633">
        <ele>4.6</ele>
        <time>2023-05-23T14:35:25Z</time>
      </trkpt>
      <trkpt lat="49.16746" lon="-0.38642">
        <ele>4.6</ele>
        <time>2023-05-23T14:35:26Z</time>
      </trkpt>
      <trkpt lat="49.16747" lon="-0.3865">
        <ele>4.8</ele>
        <time>2023-05-23T14:35:27Z</time>
      </trkpt>
      <trkpt lat="49.16749" lon="-0.38659">
        <ele>5</ele>
        <time>2023-05-23T14:35:28Z</time>
      </trkpt>
      <trkpt lat="49.16751" lon="-0.38667">
        <ele>5</ele>
        <time>2023-05-23T14:35:29Z</time>
      </trkpt>
      <trkpt lat="49.16753" lon="-0.38675">
        <ele>5</ele>
        <time>2023-05-23T14:35:30Z</time>
      </trkpt>
      <trkpt lat="49.16756" lon="-0.38682">
        <ele>5.2</ele>
        <time>2023-05-23T14:35:31Z</time>
      </trkpt>
      <trkpt lat="49.16759" lon="-0.38689">
        <ele>5.4</ele>
        <time>2023-05-23T14:35:32Z</time>
      </trkpt>
      <trkpt lat="49.16763" lon="-0.38696">
        <ele>5.6</ele>
        <time>2023-05-23T14:35:33Z</time>
      </trkpt>
      <trkpt lat="49.16766" lon="-0.38702">
        <ele>5.6</ele>
        <time>2023-05-23T14:35:34Z</time>
      </trkpt>
      <trkpt lat="49.1677" lon="-0.38709">
        <ele>5.8</ele>
        <time>2023-05-23T14:35:35Z</time>
      </trkpt>
      <trkpt lat="49.16773" lon="-0.38716">
        <ele>6</ele>
        <time>2023-05-23T14:35:36Z</time>
      </trkpt>
      <trkpt lat="49.16776" lon="-0.38723">
        <ele>6.4</ele>
        <time>2023-05-23T14:35:37Z</time>
      </trkpt>
      <trkpt lat="49.16779" lon="-0.3873">
        <ele>6.6</ele>
        <time>2023-05-23T14:35:38Z</time>
      </trkpt>
      <trkpt lat="49.16782" lon="-0.38737">
        <ele>6.6</ele>
        <time>2023-05-23T14:35:39Z</time>
      </trkpt>
      <trkpt lat="49.16785" lon="-0.38744">
        <ele>7</ele>
        <time>2023-05-23T14:35:40Z</time>
      </trkpt>
      <trkpt lat="49.16788" lon="-0.38751">
        <ele>7.4</ele>
        <time>2023-05-23T14:35:41Z</time>
      </trkpt>
      <trkpt lat="49.1679" lon="-0.38759">
        <ele>7.6</ele>
        <time>2023-05-23T14:35:42Z</time>
      </trkpt>
      <trkpt lat="49.16793" lon="-0.38766">
        <ele>8</ele>
        <time>2023-05-23T14:35:43Z</time>
      </trkpt>
      <trkpt lat="49.16796" lon="-0.38773">
        <ele>8.2</ele>
        <time>2023-05-23T14:35:44Z</time>
      </trkpt>
      <trkpt lat="49.16799" lon="-0.3878">
        <ele>8.4</ele>
        <time>2023-05-23T14:35:45Z</time>
      </trkpt>
      <trkpt lat="49.16801" lon="-0.38787">
        <ele>8.6</ele>
        <time>2023-05-23T14:35:46Z</time>
      </trkpt>
      <trkpt lat="49.16803" lon="-0.38795">
        <ele>8.8</ele>
        <time>2023-05-23T14:35:47Z</time>
      </trkpt>
      <trkpt lat="49.16805" lon="-0.38802">
        <ele>9.2</ele>
        <time>2023-05-23T14:35:48Z</time>
      </trkpt>
      <trkpt lat="49.16807" lon="-0.38809">
        <ele>9.4</ele>
        <time>2023-05-23T14:35:49Z</time>
      </trkpt>
      <trkpt lat="49.16809" lon="-0.38816">
        <ele>9.6</ele>
        <time>2023-05-23T14:35:50Z</time>
      </trkpt>
      <trkpt lat="49.16811" lon="-0.38822">
        <ele>9.8</ele>
        <time>2023-05-23T14:35:51Z</time>
      </trkpt>
      <trkpt lat="49.16812" lon="-0.38828">
        <ele>9.8</ele>
        <time>2023-05-23T14:35:52Z</time>
      </trkpt>
      <trkpt lat="49.16814" lon="-0.38834">
        <ele>10.2</ele>
        <time>2023-05-23T14:35:53Z</time>
      </trkpt>
      <trkpt lat="49.16816" lon="-0.38839">
        <ele>10.2</ele>
        <time>2023-05-23T14:35:54Z</time>
      </trkpt>
      <trkpt lat="49.16819" lon="-0.38841">
        <ele>10.4</ele>
        <time>2023-05-23T14:35:55Z</time>
      </trkpt>
      <trkpt lat="49.16823" lon="-0.38842">
        <ele>10.6</ele>
        <time>2023-05-23T14:35:56Z</time>
      </trkpt>
      <trkpt lat="49.16827" lon="-0.38843">
        <ele>10.8</ele>
        <time>2023-05-23T14:35:57Z</time>
      </trkpt>
      <trkpt lat="49.16831" lon="-0.38844">
        <ele>11</ele>
        <time>2023-05-23T14:35:58Z</time>
      </trkpt>
      <trkpt lat="49.16834" lon="-0.38846">
        <ele>11.2</ele>
        <time>2023-05-23T14:35:59Z</time>
      </trkpt>
      <trkpt lat="49.16838" lon="-0.38847">
        <ele>11.6</ele>
        <time>2023-05-23T14:36:00Z</time>
      </trkpt>
      <trkpt lat="49.16841" lon="-0.38849">
        <ele>11.8</ele>
        <time>2023-05-23T14:36:01Z</time>
      </trkpt>
      <trkpt lat="49.16845" lon="-0.3885">
        <ele>12.2</ele>
        <time>2023-05-23T14:36:02Z</time>
      </trkpt>
      <trkpt lat="49.16848" lon="-0.38852">
        <ele>12.4</ele>
        <time>2023-05-23T14:36:03Z</time>
      </trkpt>
      <trkpt lat="49.16852" lon="-0.38853">
        <ele>12.6</ele>
        <time>2023-05-23T14:36:04Z</time>
      </trkpt>
      <trkpt lat="49.16855" lon="-0.38855">
        <ele>12.8</ele>
        <time>2023-05-23T14:36:05Z</time>
      </trkpt>
      <trkpt lat="49.16858" lon="-0.38857">
        <ele>13.2</ele>
        <time>2023-05-23T14:36:06Z</time>
      </trkpt>
      <trkpt lat="49.16861" lon="-0.38859">
        <ele>13.4</ele>
        <time>2023-05-23T14:36:07Z</time>
      </trkpt>
      <trkpt lat="49.16864" lon="-0.38861">
        <ele>13.6</ele>
        <time>2023-05-23T14:36:08Z</time>
      </trkpt>
      <trkpt lat="49.16867" lon="-0.38863">
        <ele>13.8</ele>
        <time>2023-05-23T14:36:09Z</time>
      </trkpt>
      <trkpt lat="49.1687" lon="-0.38865">
        <ele>14.2</ele>
        <time>2023-05-23T14:36:10Z</time>
      </trkpt>
      <trkpt lat="49.16873" lon="-0.38866">
        <ele>14.6</ele>
        <time>2023-05-23T14:36:11Z</time>
      </trkpt>
      <trkpt lat="49.16876" lon="-0.38868">
        <ele>14.6</ele>
        <time>2023-05-23T14:36:12Z</time>
      </trkpt>
      <trkpt lat="49.16879" lon="-0.3887">
        <ele>15</ele>
        <time>2023-05-23T14:36:13Z</time>
      </trkpt>
      <trkpt lat="49.16881" lon="-0.38873">
        <ele>15.2</ele>
        <time>2023-05-23T14:36:14Z</time>
      </trkpt>
      <trkpt lat="49.16881" lon="-0.38876">
        <ele>15.4</ele>
        <time>2023-05-23T14:36:15Z</time>
      </trkpt>
      <trkpt lat="49.16881" lon="-0.3888">
        <ele>15.4</ele>
        <time>2023-05-23T14:36:16Z</time>
      </trkpt>
      <trkpt lat="49.16881" lon="-0.38884">
        <ele>15.4</ele>
        <time>2023-05-23T14:36:17Z</time>
      </trkpt>
      <trkpt lat="49.16881" lon="-0.38888">
        <ele>15.4</ele>
        <time>2023-05-23T14:36:18Z</time>
      </trkpt>
      <trkpt lat="49.16881" lon="-0.38892">
        <ele>15.6</ele>
        <time>2023-05-23T14:36:19Z</time>
      </trkpt>
      <trkpt lat="49.16881" lon="-0.38895">
        <ele>15.6</ele>
        <time>2023-05-23T14:36:20Z</time>
      </trkpt>
      <trkpt lat="49.16881" lon="-0.38899">
        <ele>15.6</ele>
        <time>2023-05-23T14:36:21Z</time>
      </trkpt>
      <trkpt lat="49.16882" lon="-0.38901">
        <ele>15.8</ele>
        <time>2023-05-23T14:36:22Z</time>
      </trkpt>
      <trkpt lat="49.16884" lon="-0.38903">
        <ele>16</ele>
        <time>2023-05-23T14:36:23Z</time>
      </trkpt>
      <trkpt lat="49.16887" lon="-0.38903">
        <ele>16.2</ele>
        <time>2023-05-23T14:36:24Z</time>
      </trkpt>
      <trkpt lat="49.1689" lon="-0.38903">
        <ele>16.6</ele>
        <time>2023-05-23T14:36:25Z</time>
      </trkpt>
      <trkpt lat="49.16894" lon="-0.38901">
        <ele>16.8</ele>
        <time>2023-05-23T14:36:26Z</time>
      </trkpt>
      <trkpt lat="49.16898" lon="-0.38898">
        <ele>17</ele>
        <time>2023-05-23T14:36:27Z</time>
      </trkpt>
      <trkpt lat="49.16902" lon="-0.38896">
        <ele>17.2</ele>
        <time>2023-05-23T14:36:28Z</time>
      </trkpt>
      <trkpt lat="49.16905" lon="-0.38893">
        <ele>17.6</ele>
        <time>2023-05-23T14:36:29Z</time>
      </trkpt>
      <trkpt lat="49.16908" lon="-0.38891">
        <ele>17.8</ele>
        <time>2023-05-23T14:36:30Z</time>
      </trkpt>
      <trkpt lat="49.16911" lon="-0.38889">
        <ele>17.8</ele>
        <time>2023-05-23T14:36:31Z</time>
      </trkpt>
      <trkpt lat="49.16914" lon="-0.38886">
        <ele>18.2</ele>
        <time>2023-05-23T14:36:32Z</time>
      </trkpt>
      <trkpt lat="49.16918" lon="-0.38883">
        <ele>18.2</ele>
        <time>2023-05-23T14:36:33Z</time>
      </trkpt>
      <trkpt lat="49.16921" lon="-0.38882">
        <ele>18.6</ele>
        <time>2023-05-23T14:36:34Z</time>
      </trkpt>
      <trkpt lat="49.16925" lon="-0.3888">
        <ele>18.8</ele>
        <time>2023-05-23T14:36:35Z</time>
      </trkpt>
      <trkpt lat="49.16929" lon="-0.38879">
        <ele>19.2</ele>
        <time>2023-05-23T14:36:36Z</time>
      </trkpt>
      <trkpt lat="49.16933" lon="-0.38878">
        <ele>19.6</ele>
        <time>2023-05-23T14:36:37Z</time>
      </trkpt>
      <trkpt lat="49.16937" lon="-0.38877">
        <ele>19.8</ele>
        <time>2023-05-23T14:36:38Z</time>
      </trkpt>
      <trkpt lat="49.1694" lon="-0.38876">
        <ele>20</ele>
        <time>2023-05-23T14:36:39Z</time>
      </trkpt>
      <trkpt lat="49.16943" lon="-0.38874">
        <ele>20.2</ele>
        <time>2023-05-23T14:36:40Z</time>
      </trkpt>
      <trkpt lat="49.16946" lon="-0.38873">
        <ele>20.4</ele>
        <time>2023-05-23T14:36:41Z</time>
      </trkpt>
      <trkpt lat="49.16949" lon="-0.38871">
        <ele>20.6</ele>
        <time>2023-05-23T14:36:42Z</time>
      </trkpt>
      <trkpt lat="49.16952" lon="-0.38869">
        <ele>20.8</ele>
        <time>2023-05-23T14:36:43Z</time>
      </trkpt>
      <trkpt lat="49.16954" lon="-0.38867">
        <ele>20.8</ele>
        <time>2023-05-23T14:36:44Z</time>
      </trkpt>
      <trkpt lat="49.16957" lon="-0.38865">
        <ele>21</ele>
        <time>2023-05-23T14:36:45Z</time>
      </trkpt>
      <trkpt lat="49.16959" lon="-0.38863">
        <ele>21.2</ele>
        <time>2023-05-23T14:36:46Z</time>
      </trkpt>
      <trkpt lat="49.16962" lon="-0.38862">
        <ele>21.2</ele>
        <time>2023-05-23T14:36:47Z</time>
      </trkpt>
      <trkpt lat="49.16965" lon="-0.3886">
        <ele>21.4</ele>
        <time>2023-05-23T14:36:48Z</time>
      </trkpt>
      <trkpt lat="49.16967" lon="-0.38858">
        <ele>21.6</ele>
        <time>2023-05-23T14:36:49Z</time>
      </trkpt>
      <trkpt lat="49.1697" lon="-0.38857">
        <ele>21.8</ele>
        <time>2023-05-23T14:36:50Z</time>
      </trkpt>
      <trkpt lat="49.16973" lon="-0.38857">
        <ele>22</ele>
        <time>2023-05-23T14:36:51Z</time>
      </trkpt>
      <trkpt lat="49.16976" lon="-0.38858">
        <ele>22.2</ele>
        <time>2023-05-23T14:36:52Z</time>
      </trkpt>
      <trkpt lat="49.16978" lon="-0.3886">
        <ele>22.6</ele>
        <time>2023-05-23T14:36:53Z</time>
      </trkpt>
      <trkpt lat="49.1698" lon="-0.38863">
        <ele>22.8</ele>
        <time>2023-05-23T14:36:54Z</time>
      </trkpt>
      <trkpt lat="49.16982" lon="-0.38866">
        <ele>23.2</ele>
        <time>2023-05-23T14:36:55Z</time>
      </trkpt>
      <trkpt lat="49.16985" lon="-0.38869">
        <ele>23.4</ele>
        <time>2023-05-23T14:36:56Z</time>
      </trkpt>
      <trkpt lat="49.16987" lon="-0.38872">
        <ele>23.8</ele>
        <time>2023-05-23T14:36:57Z</time>
      </trkpt>
      <trkpt lat="49.16989" lon="-0.38875">
        <ele>24.2</ele>
        <time>2023-05-23T14:36:58Z</time>
      </trkpt>
      <trkpt lat="49.16991" lon="-0.38877">
        <ele>24.4</ele>
        <time>2023-05-23T14:36:59Z</time>
      </trkpt>
      <trkpt lat="49.16994" lon="-0.3888">
        <ele>24.8</ele>
        <time>2023-05-23T14:37:00Z</time>
      </trkpt>
      <trkpt lat="49.16996" lon="-0.38883">
        <ele>25</ele>
        <time>2023-05-23T14:37:01Z</time>
      </trkpt>
      <trkpt lat="49.16998" lon="-0.38886">
        <ele>25.4</ele>
        <time>2023-05-23T14:37:02Z</time>
      </trkpt>
      <trkpt lat="49.17" lon="-0.38889">
        <ele>25.8</ele>
        <time>2023-05-23T14:37:03Z</time>
      </trkpt>
      <trkpt lat="49.17003" lon="-0.38892">
        <ele>26</ele>
        <time>2023-05-23T14:37:04Z</time>
      </trkpt>
      <trkpt lat="49.17005" lon="-0.38895">
        <ele>26.2</ele>
        <time>2023-05-23T14:37:05Z</time>
      </trkpt>
      <trkpt lat="49.17008" lon="-0.38898">
        <ele>26.6</ele>
        <time>2023-05-23T14:37:06Z</time>
      </trkpt>
      <trkpt lat="49.1701" lon="-0.389">
        <ele>26.8</ele>
        <time>2023-05-23T14:37:07Z</time>
      </trkpt>
      <trkpt lat="49.17012" lon="-0.38903">
        <ele>27.2</ele>
        <time>2023-05-23T14:37:08Z</time>
      </trkpt>
      <trkpt lat="49.17015" lon="-0.38905">
        <ele>27.4</ele>
        <time>2023-05-23T14:37:09Z</time>
      </trkpt>
      <trkpt lat="49.17017" lon="-0.38908">
        <ele>27.6</ele>
        <time>2023-05-23T14:37:10Z</time>
      </trkpt>
      <trkpt lat="49.17019" lon="-0.3891">
        <ele>27.8</ele>
        <time>2023-05-23T14:37:11Z</time>
      </trkpt>
      <trkpt lat="49.17022" lon="-0.38912">
        <ele>28.2</ele>
        <time>2023-05-23T14:37:12Z</time>
      </trkpt>
      <trkpt lat="49.17024" lon="-0.38914">
        <ele>28.2</ele>
        <time>2023-05-23T14:37:13Z</time>
      </trkpt>
      <trkpt lat="49.17026" lon="-0.38916">
        <ele>28.6</ele>
        <time>2023-05-23T14:37:14Z</time>
      </trkpt>
      <trkpt lat="49.17028" lon="-0.38919">
        <ele>28.8</ele>
        <time>2023-05-23T14:37:15Z</time>
      </trkpt>
      <trkpt lat="49.1703" lon="-0.38921">
        <ele>29</ele>
        <time>2023-05-23T14:37:16Z</time>
      </trkpt>
      <trkpt lat="49.17032" lon="-0.38923">
        <ele>29.2</ele>
        <time>2023-05-23T14:37:17Z</time>
      </trkpt>
      <trkpt lat="49.17034" lon="-0.38926">
        <ele>29.6</ele>
        <time>2023-05-23T14:37:18Z</time>
      </trkpt>
      <trkpt lat="49.17036" lon="-0.38929">
        <ele>29.8</ele>
        <time>2023-05-23T14:37:19Z</time>
      </trkpt>
      <trkpt lat="49.17038" lon="-0.38931">
        <ele>29.8</ele>
        <time>2023-05-23T14:37:20Z</time>
      </trkpt>
      <trkpt lat="49.1704" lon="-0.38933">
        <ele>30.2</ele>
        <time>2023-05-23T14:37:21Z</time>
      </trkpt>
      <trkpt lat="49.17042" lon="-0.38935">
        <ele>30.2</ele>
        <time>2023-05-23T14:37:22Z</time>
      </trkpt>
      <trkpt lat="49.17044" lon="-0.38938">
        <ele>30.6</ele>
        <time>2023-05-23T14:37:23Z</time>
      </trkpt>
      <trkpt lat="49.17046" lon="-0.3894">
        <ele>30.8</ele>
        <time>2023-05-23T14:37:24Z</time>
      </trkpt>
      <trkpt lat="49.17048" lon="-0.38942">
        <ele>30.8</ele>
        <time>2023-05-23T14:37:25Z</time>
      </trkpt>
      <trkpt lat="49.17049" lon="-0.38944">
        <ele>31.2</ele>
        <time>2023-05-23T14:37:26Z</time>
      </trkpt>
      <trkpt lat="49.17051" lon="-0.38946">
        <ele>31.2</ele>
        <time>2023-05-23T14:37:27Z</time>
      </trkpt>
      <trkpt lat="49.17053" lon="-0.38948">
        <ele>31.6</ele>
        <time>2023-05-23T14:37:28Z</time>
      </trkpt>
      <trkpt lat="49.17055" lon="-0.38951">
        <ele>31.8</ele>
        <time>2023-05-23T14:37:29Z</time>
      </trkpt>
      <trkpt lat="49.17057" lon="-0.38953">
        <ele>31.8</ele>
        <time>2023-05-23T14:37:30Z</time>
      </trkpt>
      <trkpt lat="49.17059" lon="-0.38955">
        <ele>32</ele>
        <time>2023-05-23T14:37:31Z</time>
      </trkpt>
      <trkpt lat="49.17061" lon="-0.38958">
        <ele>32.2</ele>
        <time>2023-05-23T14:37:32Z</time>
      </trkpt>
      <trkpt lat="49.17063" lon="-0.3896">
        <ele>32.6</ele>
        <time>2023-05-23T14:37:33Z</time>
      </trkpt>
      <trkpt lat="49.17065" lon="-0.38963">
        <ele>32.8</ele>
        <time>2023-05-23T14:37:34Z</time>
      </trkpt>
      <trkpt lat="49.17067" lon="-0.38965">
        <ele>33</ele>
        <time>2023-05-23T14:37:35Z</time>
      </trkpt>
      <trkpt lat="49.17068" lon="-0.38968">
        <ele>33</ele>
        <time>2023-05-23T14:37:36Z</time>
      </trkpt>
      <trkpt lat="49.1707" lon="-0.3897">
        <ele>33.2</ele>
        <time>2023-05-23T14:37:37Z</time>
      </trkpt>
      <trkpt lat="49.17072" lon="-0.38973">
        <ele>33.4</ele>
        <time>2023-05-23T14:37:38Z</time>
      </trkpt>
      <trkpt lat="49.17074" lon="-0.38976">
        <ele>33.6</ele>
        <time>2023-05-23T14:37:39Z</time>
      </trkpt>
      <trkpt lat="49.17076" lon="-0.38978">
        <ele>33.8</ele>
        <time>2023-05-23T14:37:40Z</time>
      </trkpt>
      <trkpt lat="49.17078" lon="-0.38981">
        <ele>34</ele>
        <time>2023-05-23T14:37:41Z</time>
      </trkpt>
      <trkpt lat="49.17079" lon="-0.38984">
        <ele>34.2</ele>
        <time>2023-05-23T14:37:42Z</time>
      </trkpt>
      <trkpt lat="49.17081" lon="-0.38987">
        <ele>34.4</ele>
        <time>2023-05-23T14:37:43Z</time>
      </trkpt>
      <trkpt lat="49.17083" lon="-0.3899">
        <ele>34.6</ele>
        <time>2023-05-23T14:37:44Z</time>
      </trkpt>
      <trkpt lat="49.17085" lon="-0.38993">
        <ele>34.8</ele>
        <time>2023-05-23T14:37:45Z</time>
      </trkpt>
      <trkpt lat="49.17087" lon="-0.38996">
        <ele>35</ele>
        <time>2023-05-23T14:37:46Z</time>
      </trkpt>
      <trkpt lat="49.17088" lon="-0.39">
        <ele>35.2</ele>
        <time>2023-05-23T14:37:47Z</time>
      </trkpt>
      <trkpt lat="49.1709" lon="-0.39003">
        <ele>35.2</ele>
        <time>2023-05-23T14:37:48Z</time>
      </trkpt>
      <trkpt lat="49.17092" lon="-0.39006">
        <ele>35.6</ele>
        <time>2023-05-23T14:37:49Z</time>
      </trkpt>
      <trkpt lat="49.17094" lon="-0.39009">
        <ele>35.8</ele>
        <time>2023-05-23T14:37:50Z</time>
      </trkpt>
      <trkpt lat="49.17096" lon="-0.39012">
        <ele>36</ele>
        <time>2023-05-23T14:37:51Z</time>
      </trkpt>
      <trkpt lat="49.17098" lon="-0.39015">
        <ele>36</ele>
        <time>2023-05-23T14:37:52Z</time>
      </trkpt>
      <trkpt lat="49.171" lon="-0.39018">
        <ele>36.2</ele>
        <time>2023-05-23T14:37:53Z</time>
      </trkpt>
      <trkpt lat="49.17101" lon="-0.39021">
        <ele>36.4</ele>
        <time>2023-05-23T14:37:54Z</time>
      </trkpt>
      <trkpt lat="49.17103" lon="-0.39024">
        <ele>36.6</ele>
        <time>2023-05-23T14:37:55Z</time>
      </trkpt>
      <trkpt lat="49.17105" lon="-0.39027">
        <ele>36.8</ele>
        <time>2023-05-23T14:37:56Z</time>
      </trkpt>
      <trkpt lat="49.17107" lon="-0.3903">
        <ele>36.8</ele>
        <time>2023-05-23T14:37:57Z</time>
      </trkpt>
      <trkpt lat="49.17109" lon="-0.39032">
        <ele>37</ele>
        <time>2023-05-23T14:37:58Z</time>
      </trkpt>
      <trkpt lat="49.17111" lon="-0.39035">
        <ele>37</ele>
        <time>2023-05-23T14:37:59Z</time>
      </trkpt>
      <trkpt lat="49.17113" lon="-0.39037">
        <ele>37.2</ele>
        <time>2023-05-23T14:38:00Z</time>
      </trkpt>
      <trkpt lat="49.17115" lon="-0.3904">
        <ele>37.4</ele>
        <time>2023-05-23T14:38:01Z</time>
      </trkpt>
      <trkpt lat="49.17117" lon="-0.39043">
        <ele>37.6</ele>
        <time>2023-05-23T14:38:02Z</time>
      </trkpt>
      <trkpt lat="49.17119" lon="-0.39046">
        <ele>37.8</ele>
        <time>2023-05-23T14:38:03Z</time>
      </trkpt>
      <trkpt lat="49.17121" lon="-0.39049">
        <ele>37.8</ele>
        <time>2023-05-23T14:38:04Z</time>
      </trkpt>
      <trkpt lat="49.17123" lon="-0.39051">
        <ele>38</ele>
        <time>2023-05-23T14:38:05Z</time>
      </trkpt>
      <trkpt lat="49.17124" lon="-0.39054">
        <ele>38</ele>
        <time>2023-05-23T14:38:06Z</time>
      </trkpt>
      <trkpt lat="49.17126" lon="-0.39057">
        <ele>38.2</ele>
        <time>2023-05-23T14:38:07Z</time>
      </trkpt>
      <trkpt lat="49.17128" lon="-0.3906">
        <ele>38.4</ele>
        <time>2023-05-23T14:38:08Z</time>
      </trkpt>
      <trkpt lat="49.1713" lon="-0.39063">
        <ele>38.6</ele>
        <time>2023-05-23T14:38:09Z</time>
      </trkpt>
      <trkpt lat="49.17132" lon="-0.39066">
        <ele>38.6</ele>
        <time>2023-05-23T14:38:10Z</time>
      </trkpt>
      <trkpt lat="49.17134" lon="-0.39068">
        <ele>38.8</ele>
        <time>2023-05-23T14:38:11Z</time>
      </trkpt>
      <trkpt lat="49.17136" lon="-0.39071">
        <ele>39</ele>
        <time>2023-05-23T14:38:12Z</time>
      </trkpt>
      <trkpt lat="49.17137" lon="-0.39074">
        <ele>39</ele>
        <time>2023-05-23T14:38:13Z</time>
      </trkpt>
      <trkpt lat="49.17139" lon="-0.39077">
        <ele>39.2</ele>
        <time>2023-05-23T14:38:14Z</time>
      </trkpt>
      <trkpt lat="49.17141" lon="-0.39081">
        <ele>39.2</ele>
        <time>2023-05-23T14:38:15Z</time>
      </trkpt>
      <trkpt lat="49.17143" lon="-0.39084">
        <ele>39.4</ele>
        <time>2023-05-23T14:38:16Z</time>
      </trkpt>
      <trkpt lat="49.17145" lon="-0.39087">
        <ele>39.4</ele>
        <time>2023-05-23T14:38:17Z</time>
      </trkpt>
      <trkpt lat="49.17147" lon="-0.39091">
        <ele>39.4</ele>
        <time>2023-05-23T14:38:18Z</time>
      </trkpt>
      <trkpt lat="49.17149" lon="-0.39094">
        <ele>39.4</ele>
        <time>2023-05-23T14:38:19Z</time>
      </trkpt>
      <trkpt lat="49.17151" lon="-0.39098">
        <ele>39.2</ele>
        <time>2023-05-23T14:38:20Z</time>
      </trkpt>
      <trkpt lat="49.17152" lon="-0.39102">
        <ele>39.2</ele>
        <time>2023-05-23T14:38:21Z</time>
      </trkpt>
      <trkpt lat="49.17154" lon="-0.39105">
        <ele>39.2</ele>
        <time>2023-05-23T14:38:22Z</time>
      </trkpt>
      <trkpt lat="49.17156" lon="-0.39109">
        <ele>39.2</ele>
        <time>2023-05-23T14:38:23Z</time>
      </trkpt>
      <trkpt lat="49.17158" lon="-0.39112">
        <ele>39.2</ele>
        <time>2023-05-23T14:38:24Z</time>
      </trkpt>
      <trkpt lat="49.17159" lon="-0.39116">
        <ele>39</ele>
        <time>2023-05-23T14:38:25Z</time>
      </trkpt>
      <trkpt lat="49.17161" lon="-0.39119">
        <ele>39</ele>
        <time>2023-05-23T14:38:26Z</time>
      </trkpt>
      <trkpt lat="49.17163" lon="-0.39123">
        <ele>39</ele>
        <time>2023-05-23T14:38:27Z</time>
      </trkpt>
      <trkpt lat="49.17164" lon="-0.39127">
        <ele>39</ele>
        <time>2023-05-23T14:38:28Z</time>
      </trkpt>
      <trkpt lat="49.17166" lon="-0.39132">
        <ele>38.8</ele>
        <time>2023-05-23T14:38:29Z</time>
      </trkpt>
      <trkpt lat="49.17167" lon="-0.39136">
        <ele>38.8</ele>
        <time>2023-05-23T14:38:30Z</time>
      </trkpt>
      <trkpt lat="49.17169" lon="-0.39142">
        <ele>38.6</ele>
        <time>2023-05-23T14:38:31Z</time>
      </trkpt>
      <trkpt lat="49.1717" lon="-0.39147">
        <ele>38.6</ele>
        <time>2023-05-23T14:38:32Z</time>
      </trkpt>
      <trkpt lat="49.17172" lon="-0.39152">
        <ele>38.6</ele>
        <time>2023-05-23T14:38:33Z</time>
      </trkpt>
      <trkpt lat="49.17175" lon="-0.39157">
        <ele>38.4</ele>
        <time>2023-05-23T14:38:34Z</time>
      </trkpt>
      <trkpt lat="49.17177" lon="-0.39163">
        <ele>38.2</ele>
        <time>2023-05-23T14:38:35Z</time>
      </trkpt>
      <trkpt lat="49.17179" lon="-0.39168">
        <ele>38.2</ele>
        <time>2023-05-23T14:38:36Z</time>
      </trkpt>
      <trkpt lat="49.17182" lon="-0.39173">
        <ele>38.2</ele>
        <time>2023-05-23T14:38:37Z</time>
      </trkpt>
      <trkpt lat="49.17184" lon="-0.39178">
        <ele>38.2</ele>
        <time>2023-05-23T14:38:38Z</time>
      </trkpt>
      <trkpt lat="49.17187" lon="-0.39183">
        <ele>38.2</ele>
        <time>2023-05-23T14:38:39Z</time>
      </trkpt>
      <trkpt lat="49.17189" lon="-0.39188">
        <ele>38.2</ele>
        <time>2023-05-23T14:38:40Z</time>
      </trkpt>
      <trkpt lat="49.17192" lon="-0.39193">
        <ele>38.2</ele>
        <time>2023-05-23T14:38:41Z</time>
      </trkpt>
      <trkpt lat="49.17195" lon="-0.39198">
        <ele>38.2</ele>
        <time>2023-05-23T14:38:42Z</time>
      </trkpt>
      <trkpt lat="49.17197" lon="-0.39204">
        <ele>38</ele>
        <time>2023-05-23T14:38:43Z</time>
      </trkpt>
      <trkpt lat="49.172" lon="-0.39209">
        <ele>38</ele>
        <time>2023-05-23T14:38:44Z</time>
      </trkpt>
      <trkpt lat="49.17203" lon="-0.39215">
        <ele>38</ele>
        <time>2023-05-23T14:38:45Z</time>
      </trkpt>
      <trkpt lat="49.17206" lon="-0.39221">
        <ele>38</ele>
        <time>2023-05-23T14:38:46Z</time>
      </trkpt>
      <trkpt lat="49.17209" lon="-0.39226">
        <ele>38</ele>
        <time>2023-05-23T14:38:47Z</time>
      </trkpt>
      <trkpt lat="49.17212" lon="-0.39232">
        <ele>38</ele>
        <time>2023-05-23T14:38:48Z</time>
      </trkpt>
      <trkpt lat="49.17215" lon="-0.39238">
        <ele>37.8</ele>
        <time>2023-05-23T14:38:49Z</time>
      </trkpt>
      <trkpt lat="49.17217" lon="-0.39243">
        <ele>37.8</ele>
        <time>2023-05-23T14:38:50Z</time>
      </trkpt>
      <trkpt lat="49.1722" lon="-0.39249">
        <ele>37.8</ele>
        <time>2023-05-23T14:38:51Z</time>
      </trkpt>
      <trkpt lat="49.17223" lon="-0.39255">
        <ele>37.8</ele>
        <time>2023-05-23T14:38:52Z</time>
      </trkpt>
      <trkpt lat="49.17226" lon="-0.3926">
        <ele>38</ele>
        <time>2023-05-23T14:38:53Z</time>
      </trkpt>
      <trkpt lat="49.17228" lon="-0.39266">
        <ele>38</ele>
        <time>2023-05-23T14:38:54Z</time>
      </trkpt>
      <trkpt lat="49.17231" lon="-0.39271">
        <ele>38</ele>
        <time>2023-05-23T14:38:55Z</time>
      </trkpt>
      <trkpt lat="49.17234" lon="-0.39277">
        <ele>38.2</ele>
        <time>2023-05-23T14:38:56Z</time>
      </trkpt>
      <trkpt lat="49.17237" lon="-0.39282">
        <ele>38.2</ele>
        <time>2023-05-23T14:38:57Z</time>
      </trkpt>
      <trkpt lat="49.1724" lon="-0.39287">
        <ele>38.4</ele>
        <time>2023-05-23T14:38:58Z</time>
      </trkpt>
      <trkpt lat="49.17243" lon="-0.39292">
        <ele>38.6</ele>
        <time>2023-05-23T14:38:59Z</time>
      </trkpt>
      <trkpt lat="49.17246" lon="-0.39297">
        <ele>38.6</ele>
        <time>2023-05-23T14:39:00Z</time>
      </trkpt>
      <trkpt lat="49.1725" lon="-0.39303">
        <ele>38.6</ele>
        <time>2023-05-23T14:39:01Z</time>
      </trkpt>
      <trkpt lat="49.17253" lon="-0.39308">
        <ele>38.8</ele>
        <time>2023-05-23T14:39:02Z</time>
      </trkpt>
      <trkpt lat="49.17256" lon="-0.39313">
        <ele>38.8</ele>
        <time>2023-05-23T14:39:03Z</time>
      </trkpt>
      <trkpt lat="49.17259" lon="-0.39318">
        <ele>38.8</ele>
        <time>2023-05-23T14:39:04Z</time>
      </trkpt>
      <trkpt lat="49.17262" lon="-0.39323">
        <ele>38.8</ele>
        <time>2023-05-23T14:39:05Z</time>
      </trkpt>
      <trkpt lat="49.17265" lon="-0.39327">
        <ele>38.8</ele>
        <time>2023-05-23T14:39:06Z</time>
      </trkpt>
      <trkpt lat="49.17269" lon="-0.3933">
        <ele>38.8</ele>
        <time>2023-05-23T14:39:07Z</time>
      </trkpt>
      <trkpt lat="49.17273" lon="-0.39333">
        <ele>38.8</ele>
        <time>2023-05-23T14:39:08Z</time>
      </trkpt>
      <trkpt lat="49.17278" lon="-0.39336">
        <ele>38.8</ele>
        <time>2023-05-23T14:39:09Z</time>
      </trkpt>
      <trkpt lat="49.17281" lon="-0.39338">
        <ele>38.8</ele>
        <time>2023-05-23T14:39:10Z</time>
      </trkpt>
      <trkpt lat="49.17285" lon="-0.3934">
        <ele>38.6</ele>
        <time>2023-05-23T14:39:11Z</time>
      </trkpt>
      <trkpt lat="49.17289" lon="-0.39343">
        <ele>38.6</ele>
        <time>2023-05-23T14:39:12Z</time>
      </trkpt>
      <trkpt lat="49.17292" lon="-0.39344">
        <ele>38.6</ele>
        <time>2023-05-23T14:39:13Z</time>
      </trkpt>
      <trkpt lat="49.17295" lon="-0.39346">
        <ele>38.6</ele>
        <time>2023-05-23T14:39:14Z</time>
      </trkpt>
      <trkpt lat="49.17299" lon="-0.39347">
        <ele>38.6</ele>
        <time>2023-05-23T14:39:15Z</time>
      </trkpt>
      <trkpt lat="49.17301" lon="-0.39349">
        <ele>38.6</ele>
        <time>2023-05-23T14:39:16Z</time>
      </trkpt>
      <trkpt lat="49.17303" lon="-0.3935">
        <ele>38.4</ele>
        <time>2023-05-23T14:39:17Z</time>
      </trkpt>
      <trkpt lat="49.17304" lon="-0.3935">
        <ele>38.4</ele>
        <time>2023-05-23T14:39:18Z</time>
      </trkpt>
      <trkpt lat="49.17305" lon="-0.39351">
        <ele>38.4</ele>
        <time>2023-05-23T14:39:19Z</time>
      </trkpt>
      <trkpt lat="49.17305" lon="-0.39351">
        <ele>38.4</ele>
        <time>2023-05-23T14:39:20Z</time>
      </trkpt>
      <trkpt lat="49.17305" lon="-0.39351">
        <ele>38.4</ele>
        <time>2023-05-23T14:39:21Z</time>
      </trkpt>
      <trkpt lat="49.17305" lon="-0.39351">
        <ele>38.4</ele>
        <time>2023-05-23T14:39:22Z</time>
      </trkpt>
      <trkpt lat="49.17305" lon="-0.39351">
        <ele>38.4</ele>
        <time>2023-05-23T14:39:23Z</time>
      </trkpt>
      <trkpt lat="49.17305" lon="-0.39351">
        <ele>38.4</ele>
        <time>2023-05-23T14:39:24Z</time>
      </trkpt>
      <trkpt lat="49.17305" lon="-0.39351">
        <ele>38.4</ele>
        <time>2023-05-23T14:39:25Z</time>
      </trkpt>
      <trkpt lat="49.17305" lon="-0.39351">
        <ele>38.4</ele>
        <time>2023-05-23T14:39:26Z</time>
      </trkpt>
      <trkpt lat="49.17305" lon="-0.39351">
        <ele>38.4</ele>
        <time>2023-05-23T14:39:27Z</time>
      </trkpt>
      <trkpt lat="49.17305" lon="-0.39351">
        <ele>38.4</ele>
        <time>2023-05-23T14:39:28Z</time>
      </trkpt>
      <trkpt lat="49.17305" lon="-0.39351">
        <ele>38.4</ele>
        <time>2023-05-23T14:39:29Z</time>
      </trkpt>
      <trkpt lat="49.17305" lon="-0.39351">
        <ele>38.4</ele>
        <time>2023-05-23T14:39:30Z</time>
      </trkpt>
      <trkpt lat="49.17305" lon="-0.39351">
        <ele>38.4</ele>
        <time>2023-05-23T14:39:31Z</time>
      </trkpt>
      <trkpt lat="49.17305" lon="-0.39351">
        <ele>38.4</ele>
        <time>2023-05-23T14:39:32Z</time>
      </trkpt>
      <trkpt lat="49.17305" lon="-0.39351">
        <ele>38.4</ele>
        <time>2023-05-23T14:39:33Z</time>
      </trkpt>
      <trkpt lat="49.17305" lon="-0.39351">
        <ele>38.4</ele>
        <time>2023-05-23T14:39:34Z</time>
      </trkpt>
      <trkpt lat="49.17305" lon="-0.39351">
        <ele>38.4</ele>
        <time>2023-05-23T14:39:35Z</time>
      </trkpt>
      <trkpt lat="49.17305" lon="-0.39351">
        <ele>38.4</ele>
        <time>2023-05-23T14:39:36Z</time>
      </trkpt>
      <trkpt lat="49.17305" lon="-0.39351">
        <ele>38.4</ele>
        <time>2023-05-23T14:39:37Z</time>
      </trkpt>
      <trkpt lat="49.17305" lon="-0.3935">
        <ele>38.4</ele>
        <time>2023-05-23T14:39:38Z</time>
      </trkpt>
      <trkpt lat="49.17305" lon="-0.39351">
        <ele>38.4</ele>
        <time>2023-05-23T14:39:39Z</time>
      </trkpt>
      <trkpt lat="49.17305" lon="-0.39351">
        <ele>38.4</ele>
        <time>2023-05-23T14:39:40Z</time>
      </trkpt>
      <trkpt lat="49.17307" lon="-0.39352">
        <ele>38.4</ele>
        <time>2023-05-23T14:39:41Z</time>
      </trkpt>
      <trkpt lat="49.17308" lon="-0.39354">
        <ele>38.4</ele>
        <time>2023-05-23T14:39:42Z</time>
      </trkpt>
      <trkpt lat="49.1731" lon="-0.39357">
        <ele>38.4</ele>
        <time>2023-05-23T14:39:43Z</time>
      </trkpt>
      <trkpt lat="49.17312" lon="-0.3936">
        <ele>38.2</ele>
        <time>2023-05-23T14:39:44Z</time>
      </trkpt>
      <trkpt lat="49.17314" lon="-0.39364">
        <ele>38.2</ele>
        <time>2023-05-23T14:39:45Z</time>
      </trkpt>
      <trkpt lat="49.17317" lon="-0.39368">
        <ele>38.2</ele>
        <time>2023-05-23T14:39:46Z</time>
      </trkpt>
      <trkpt lat="49.1732" lon="-0.39373">
        <ele>38.2</ele>
        <time>2023-05-23T14:39:47Z</time>
      </trkpt>
      <trkpt lat="49.17324" lon="-0.39378">
        <ele>38.2</ele>
        <time>2023-05-23T14:39:48Z</time>
      </trkpt>
      <trkpt lat="49.17329" lon="-0.39382">
        <ele>38</ele>
        <time>2023-05-23T14:39:49Z</time>
      </trkpt>
      <trkpt lat="49.17335" lon="-0.39386">
        <ele>38</ele>
        <time>2023-05-23T14:39:50Z</time>
      </trkpt>
      <trkpt lat="49.17341" lon="-0.39391">
        <ele>38</ele>
        <time>2023-05-23T14:39:51Z</time>
      </trkpt>
      <trkpt lat="49.17347" lon="-0.39395">
        <ele>38</ele>
        <time>2023-05-23T14:39:52Z</time>
      </trkpt>
      <trkpt lat="49.17352" lon="-0.39399">
        <ele>38</ele>
        <time>2023-05-23T14:39:53Z</time>
      </trkpt>
      <trkpt lat="49.17357" lon="-0.39404">
        <ele>38</ele>
        <time>2023-05-23T14:39:54Z</time>
      </trkpt>
      <trkpt lat="49.17362" lon="-0.39408">
        <ele>38</ele>
        <time>2023-05-23T14:39:55Z</time>
      </trkpt>
      <trkpt lat="49.17367" lon="-0.39413">
        <ele>38</ele>
        <time>2023-05-23T14:39:56Z</time>
      </trkpt>
      <trkpt lat="49.17372" lon="-0.39418">
        <ele>38</ele>
        <time>2023-05-23T14:39:57Z</time>
      </trkpt>
      <trkpt lat="49.17376" lon="-0.39423">
        <ele>38</ele>
        <time>2023-05-23T14:39:58Z</time>
      </trkpt>
      <trkpt lat="49.17381" lon="-0.39427">
        <ele>38</ele>
        <time>2023-05-23T14:39:59Z</time>
      </trkpt>
      <trkpt lat="49.17385" lon="-0.39431">
        <ele>38</ele>
        <time>2023-05-23T14:40:00Z</time>
      </trkpt>
      <trkpt lat="49.17388" lon="-0.39435">
        <ele>38</ele>
        <time>2023-05-23T14:40:01Z</time>
      </trkpt>
      <trkpt lat="49.17392" lon="-0.3944">
        <ele>38</ele>
        <time>2023-05-23T14:40:02Z</time>
      </trkpt>
      <trkpt lat="49.17394" lon="-0.39443">
        <ele>38</ele>
        <time>2023-05-23T14:40:03Z</time>
      </trkpt>
      <trkpt lat="49.17397" lon="-0.39447">
        <ele>38</ele>
        <time>2023-05-23T14:40:04Z</time>
      </trkpt>
      <trkpt lat="49.174" lon="-0.39451">
        <ele>38</ele>
        <time>2023-05-23T14:40:05Z</time>
      </trkpt>
      <trkpt lat="49.17404" lon="-0.39454">
        <ele>38</ele>
        <time>2023-05-23T14:40:06Z</time>
      </trkpt>
      <trkpt lat="49.17409" lon="-0.39457">
        <ele>38</ele>
        <time>2023-05-23T14:40:07Z</time>
      </trkpt>
      <trkpt lat="49.17413" lon="-0.39461">
        <ele>38</ele>
        <time>2023-05-23T14:40:08Z</time>
      </trkpt>
      <trkpt lat="49.17418" lon="-0.39465">
        <ele>38</ele>
        <time>2023-05-23T14:40:09Z</time>
      </trkpt>
      <trkpt lat="49.17423" lon="-0.3947">
        <ele>38</ele>
        <time>2023-05-23T14:40:10Z</time>
      </trkpt>
      <trkpt lat="49.17428" lon="-0.39475">
        <ele>38</ele>
        <time>2023-05-23T14:40:11Z</time>
      </trkpt>
      <trkpt lat="49.17433" lon="-0.3948">
        <ele>38</ele>
        <time>2023-05-23T14:40:12Z</time>
      </trkpt>
      <trkpt lat="49.17438" lon="-0.39484">
        <ele>38</ele>
        <time>2023-05-23T14:40:13Z</time>
      </trkpt>
      <trkpt lat="49.17443" lon="-0.39489">
        <ele>38</ele>
        <time>2023-05-23T14:40:14Z</time>
      </trkpt>
      <trkpt lat="49.17447" lon="-0.39494">
        <ele>38</ele>
        <time>2023-05-23T14:40:15Z</time>
      </trkpt>
      <trkpt lat="49.17452" lon="-0.39499">
        <ele>38</ele>
        <time>2023-05-23T14:40:16Z</time>
      </trkpt>
      <trkpt lat="49.17457" lon="-0.39503">
        <ele>38</ele>
        <time>2023-05-23T14:40:17Z</time>
      </trkpt>
      <trkpt lat="49.17461" lon="-0.39508">
        <ele>38</ele>
        <time>2023-05-23T14:40:18Z</time>
      </trkpt>
      <trkpt lat="49.17466" lon="-0.39513">
        <ele>38</ele>
        <time>2023-05-23T14:40:19Z</time>
      </trkpt>
      <trkpt lat="49.1747" lon="-0.39518">
        <ele>38</ele>
        <time>2023-05-23T14:40:20Z</time>
      </trkpt>
      <trkpt lat="49.17475" lon="-0.39523">
        <ele>38</ele>
        <time>2023-05-23T14:40:21Z</time>
      </trkpt>
      <trkpt lat="49.17479" lon="-0.39527">
        <ele>38.2</ele>
        <time>2023-05-23T14:40:22Z</time>
      </trkpt>
      <trkpt lat="49.17483" lon="-0.39532">
        <ele>38.2</ele>
        <time>2023-05-23T14:40:23Z</time>
      </trkpt>
      <trkpt lat="49.17488" lon="-0.39536">
        <ele>38.2</ele>
        <time>2023-05-23T14:40:24Z</time>
      </trkpt>
      <trkpt lat="49.17492" lon="-0.3954">
        <ele>38.4</ele>
        <time>2023-05-23T14:40:25Z</time>
      </trkpt>
      <trkpt lat="49.17496" lon="-0.39544">
        <ele>38.6</ele>
        <time>2023-05-23T14:40:26Z</time>
      </trkpt>
      <trkpt lat="49.175" lon="-0.39548">
        <ele>38.6</ele>
        <time>2023-05-23T14:40:27Z</time>
      </trkpt>
      <trkpt lat="49.17504" lon="-0.39553">
        <ele>38.8</ele>
        <time>2023-05-23T14:40:28Z</time>
      </trkpt>
      <trkpt lat="49.17508" lon="-0.39557">
        <ele>38.8</ele>
        <time>2023-05-23T14:40:29Z</time>
      </trkpt>
      <trkpt lat="49.17512" lon="-0.39561">
        <ele>39</ele>
        <time>2023-05-23T14:40:30Z</time>
      </trkpt>
      <trkpt lat="49.17516" lon="-0.39565">
        <ele>39</ele>
        <time>2023-05-23T14:40:31Z</time>
      </trkpt>
      <trkpt lat="49.17521" lon="-0.39569">
        <ele>39</ele>
        <time>2023-05-23T14:40:32Z</time>
      </trkpt>
      <trkpt lat="49.17525" lon="-0.39573">
        <ele>39.2</ele>
        <time>2023-05-23T14:40:33Z</time>
      </trkpt>
      <trkpt lat="49.17529" lon="-0.39577">
        <ele>39.2</ele>
        <time>2023-05-23T14:40:34Z</time>
      </trkpt>
      <trkpt lat="49.17533" lon="-0.39581">
        <ele>39.4</ele>
        <time>2023-05-23T14:40:35Z</time>
      </trkpt>
      <trkpt lat="49.17537" lon="-0.39585">
        <ele>39.6</ele>
        <time>2023-05-23T14:40:36Z</time>
      </trkpt>
      <trkpt lat="49.17542" lon="-0.3959">
        <ele>39.6</ele>
        <time>2023-05-23T14:40:37Z</time>
      </trkpt>
      <trkpt lat="49.17546" lon="-0.39594">
        <ele>39.8</ele>
        <time>2023-05-23T14:40:38Z</time>
      </trkpt>
      <trkpt lat="49.1755" lon="-0.39599">
        <ele>39.8</ele>
        <time>2023-05-23T14:40:39Z</time>
      </trkpt>
      <trkpt lat="49.17554" lon="-0.39603">
        <ele>40</ele>
        <time>2023-05-23T14:40:40Z</time>
      </trkpt>
      <trkpt lat="49.17559" lon="-0.39608">
        <ele>40</ele>
        <time>2023-05-23T14:40:41Z</time>
      </trkpt>
      <trkpt lat="49.17563" lon="-0.39612">
        <ele>40</ele>
        <time>2023-05-23T14:40:42Z</time>
      </trkpt>
      <trkpt lat="49.17567" lon="-0.39616">
        <ele>40.2</ele>
        <time>2023-05-23T14:40:43Z</time>
      </trkpt>
      <trkpt lat="49.17571" lon="-0.39621">
        <ele>40.2</ele>
        <time>2023-05-23T14:40:44Z</time>
      </trkpt>
      <trkpt lat="49.17576" lon="-0.39625">
        <ele>40.4</ele>
        <time>2023-05-23T14:40:45Z</time>
      </trkpt>
      <trkpt lat="49.1758" lon="-0.39629">
        <ele>40.6</ele>
        <time>2023-05-23T14:40:46Z</time>
      </trkpt>
      <trkpt lat="49.17584" lon="-0.39633">
        <ele>40.6</ele>
        <time>2023-05-23T14:40:47Z</time>
      </trkpt>
      <trkpt lat="49.17588" lon="-0.39638">
        <ele>40.6</ele>
        <time>2023-05-23T14:40:48Z</time>
      </trkpt>
      <trkpt lat="49.17593" lon="-0.39642">
        <ele>40.8</ele>
        <time>2023-05-23T14:40:49Z</time>
      </trkpt>
      <trkpt lat="49.17597" lon="-0.39646">
        <ele>40.8</ele>
        <time>2023-05-23T14:40:50Z</time>
      </trkpt>
      <trkpt lat="49.17601" lon="-0.39651">
        <ele>40.8</ele>
        <time>2023-05-23T14:40:51Z</time>
      </trkpt>
      <trkpt lat="49.17605" lon="-0.39655">
        <ele>40.8</ele>
        <time>2023-05-23T14:40:52Z</time>
      </trkpt>
      <trkpt lat="49.1761" lon="-0.3966">
        <ele>40.8</ele>
        <time>2023-05-23T14:40:53Z</time>
      </trkpt>
      <trkpt lat="49.17614" lon="-0.39664">
        <ele>40.6</ele>
        <time>2023-05-23T14:40:54Z</time>
      </trkpt>
      <trkpt lat="49.17618" lon="-0.39668">
        <ele>40.6</ele>
        <time>2023-05-23T14:40:55Z</time>
      </trkpt>
      <trkpt lat="49.17623" lon="-0.39673">
        <ele>40.6</ele>
        <time>2023-05-23T14:40:56Z</time>
      </trkpt>
      <trkpt lat="49.17627" lon="-0.39677">
        <ele>40.6</ele>
        <time>2023-05-23T14:40:57Z</time>
      </trkpt>
      <trkpt lat="49.17631" lon="-0.39681">
        <ele>40.6</ele>
        <time>2023-05-23T14:40:58Z</time>
      </trkpt>
      <trkpt lat="49.17635" lon="-0.39685">
        <ele>40.6</ele>
        <time>2023-05-23T14:40:59Z</time>
      </trkpt>
      <trkpt lat="49.17639" lon="-0.39689">
        <ele>40.6</ele>
        <time>2023-05-23T14:41:00Z</time>
      </trkpt>
      <trkpt lat="49.17643" lon="-0.39693">
        <ele>40.6</ele>
        <time>2023-05-23T14:41:01Z</time>
      </trkpt>
      <trkpt lat="49.17647" lon="-0.39697">
        <ele>40.6</ele>
        <time>2023-05-23T14:41:02Z</time>
      </trkpt>
      <trkpt lat="49.17651" lon="-0.39701">
        <ele>40.6</ele>
        <time>2023-05-23T14:41:03Z</time>
      </trkpt>
      <trkpt lat="49.17655" lon="-0.39705">
        <ele>40.6</ele>
        <time>2023-05-23T14:41:04Z</time>
      </trkpt>
      <trkpt lat="49.17659" lon="-0.39709">
        <ele>40.6</ele>
        <time>2023-05-23T14:41:05Z</time>
      </trkpt>
      <trkpt lat="49.17663" lon="-0.39713">
        <ele>40.6</ele>
        <time>2023-05-23T14:41:06Z</time>
      </trkpt>
      <trkpt lat="49.17667" lon="-0.39717">
        <ele>40.6</ele>
        <time>2023-05-23T14:41:07Z</time>
      </trkpt>
      <trkpt lat="49.17671" lon="-0.39721">
        <ele>40.8</ele>
        <time>2023-05-23T14:41:08Z</time>
      </trkpt>
      <trkpt lat="49.17675" lon="-0.39725">
        <ele>40.8</ele>
        <time>2023-05-23T14:41:09Z</time>
      </trkpt>
      <trkpt lat="49.1768" lon="-0.39729">
        <ele>40.8</ele>
        <time>2023-05-23T14:41:10Z</time>
      </trkpt>
      <trkpt lat="49.17684" lon="-0.39733">
        <ele>40.8</ele>
        <time>2023-05-23T14:41:11Z</time>
      </trkpt>
      <trkpt lat="49.17689" lon="-0.39737">
        <ele>41</ele>
        <time>2023-05-23T14:41:12Z</time>
      </trkpt>
      <trkpt lat="49.17693" lon="-0.39741">
        <ele>41</ele>
        <time>2023-05-23T14:41:13Z</time>
      </trkpt>
      <trkpt lat="49.17698" lon="-0.39745">
        <ele>41</ele>
        <time>2023-05-23T14:41:14Z</time>
      </trkpt>
      <trkpt lat="49.17702" lon="-0.3975">
        <ele>41</ele>
        <time>2023-05-23T14:41:15Z</time>
      </trkpt>
      <trkpt lat="49.17707" lon="-0.39754">
        <ele>41</ele>
        <time>2023-05-23T14:41:16Z</time>
      </trkpt>
      <trkpt lat="49.17712" lon="-0.39758">
        <ele>41</ele>
        <time>2023-05-23T14:41:17Z</time>
      </trkpt>
      <trkpt lat="49.17716" lon="-0.39763">
        <ele>41</ele>
        <time>2023-05-23T14:41:18Z</time>
      </trkpt>
      <trkpt lat="49.17721" lon="-0.39767">
        <ele>41</ele>
        <time>2023-05-23T14:41:19Z</time>
      </trkpt>
      <trkpt lat="49.17726" lon="-0.39771">
        <ele>41</ele>
        <time>2023-05-23T14:41:20Z</time>
      </trkpt>
      <trkpt lat="49.17731" lon="-0.39776">
        <ele>41</ele>
        <time>2023-05-23T14:41:21Z</time>
      </trkpt>
      <trkpt lat="49.17736" lon="-0.3978">
        <ele>41</ele>
        <time>2023-05-23T14:41:22Z</time>
      </trkpt>
      <trkpt lat="49.17741" lon="-0.39785">
        <ele>41</ele>
        <time>2023-05-23T14:41:23Z</time>
      </trkpt>
      <trkpt lat="49.17746" lon="-0.39789">
        <ele>41</ele>
        <time>2023-05-23T14:41:24Z</time>
      </trkpt>
      <trkpt lat="49.17751" lon="-0.39793">
        <ele>41</ele>
        <time>2023-05-23T14:41:25Z</time>
      </trkpt>
      <trkpt lat="49.17756" lon="-0.39797">
        <ele>41</ele>
        <time>2023-05-23T14:41:26Z</time>
      </trkpt>
      <trkpt lat="49.1776" lon="-0.39801">
        <ele>41</ele>
        <time>2023-05-23T14:41:27Z</time>
      </trkpt>
      <trkpt lat="49.17765" lon="-0.39805">
        <ele>41</ele>
        <time>2023-05-23T14:41:28Z</time>
      </trkpt>
      <trkpt lat="49.1777" lon="-0.39809">
        <ele>41</ele>
        <time>2023-05-23T14:41:29Z</time>
      </trkpt>
      <trkpt lat="49.17775" lon="-0.39813">
        <ele>41</ele>
        <time>2023-05-23T14:41:30Z</time>
      </trkpt>
      <trkpt lat="49.1778" lon="-0.39817">
        <ele>41</ele>
        <time>2023-05-23T14:41:31Z</time>
      </trkpt>
      <trkpt lat="49.17785" lon="-0.39821">
        <ele>41</ele>
        <time>2023-05-23T14:41:32Z</time>
      </trkpt>
      <trkpt lat="49.1779" lon="-0.39824">
        <ele>41</ele>
        <time>2023-05-23T14:41:33Z</time>
      </trkpt>
      <trkpt lat="49.17795" lon="-0.39828">
        <ele>41</ele>
        <time>2023-05-23T14:41:34Z</time>
      </trkpt>
      <trkpt lat="49.178" lon="-0.39831">
        <ele>41</ele>
        <time>2023-05-23T14:41:35Z</time>
      </trkpt>
      <trkpt lat="49.17805" lon="-0.39834">
        <ele>41</ele>
        <time>2023-05-23T14:41:36Z</time>
      </trkpt>
      <trkpt lat="49.1781" lon="-0.39837">
        <ele>41</ele>
        <time>2023-05-23T14:41:37Z</time>
      </trkpt>
      <trkpt lat="49.17815" lon="-0.3984">
        <ele>41</ele>
        <time>2023-05-23T14:41:38Z</time>
      </trkpt>
      <trkpt lat="49.1782" lon="-0.39844">
        <ele>41</ele>
        <time>2023-05-23T14:41:39Z</time>
      </trkpt>
      <trkpt lat="49.17826" lon="-0.39847">
        <ele>41</ele>
        <time>2023-05-23T14:41:40Z</time>
      </trkpt>
      <trkpt lat="49.1783" lon="-0.3985">
        <ele>41</ele>
        <time>2023-05-23T14:41:41Z</time>
      </trkpt>
      <trkpt lat="49.17835" lon="-0.39854">
        <ele>41</ele>
        <time>2023-05-23T14:41:42Z</time>
      </trkpt>
      <trkpt lat="49.1784" lon="-0.39857">
        <ele>41.2</ele>
        <time>2023-05-23T14:41:43Z</time>
      </trkpt>
      <trkpt lat="49.17845" lon="-0.39861">
        <ele>41.4</ele>
        <time>2023-05-23T14:41:44Z</time>
      </trkpt>
      <trkpt lat="49.17849" lon="-0.39864">
        <ele>41.6</ele>
        <time>2023-05-23T14:41:45Z</time>
      </trkpt>
      <trkpt lat="49.17854" lon="-0.39868">
        <ele>41.6</ele>
        <time>2023-05-23T14:41:46Z</time>
      </trkpt>
      <trkpt lat="49.17859" lon="-0.39872">
        <ele>41.8</ele>
        <time>2023-05-23T14:41:47Z</time>
      </trkpt>
      <trkpt lat="49.17863" lon="-0.39875">
        <ele>42</ele>
        <time>2023-05-23T14:41:48Z</time>
      </trkpt>
      <trkpt lat="49.17868" lon="-0.39879">
        <ele>42</ele>
        <time>2023-05-23T14:41:49Z</time>
      </trkpt>
      <trkpt lat="49.17873" lon="-0.39883">
        <ele>42</ele>
        <time>2023-05-23T14:41:50Z</time>
      </trkpt>
      <trkpt lat="49.17878" lon="-0.39886">
        <ele>42.2</ele>
        <time>2023-05-23T14:41:51Z</time>
      </trkpt>
      <trkpt lat="49.17882" lon="-0.39889">
        <ele>42.4</ele>
        <time>2023-05-23T14:41:52Z</time>
      </trkpt>
      <trkpt lat="49.17887" lon="-0.39892">
        <ele>42.6</ele>
        <time>2023-05-23T14:41:53Z</time>
      </trkpt>
      <trkpt lat="49.17892" lon="-0.39895">
        <ele>42.6</ele>
        <time>2023-05-23T14:41:54Z</time>
      </trkpt>
      <trkpt lat="49.17897" lon="-0.39898">
        <ele>42.8</ele>
        <time>2023-05-23T14:41:55Z</time>
      </trkpt>
      <trkpt lat="49.17902" lon="-0.39901">
        <ele>42.8</ele>
        <time>2023-05-23T14:41:56Z</time>
      </trkpt>
      <trkpt lat="49.17907" lon="-0.39904">
        <ele>43</ele>
        <time>2023-05-23T14:41:57Z</time>
      </trkpt>
      <trkpt lat="49.17912" lon="-0.39907">
        <ele>43</ele>
        <time>2023-05-23T14:41:58Z</time>
      </trkpt>
      <trkpt lat="49.17916" lon="-0.39911">
        <ele>43</ele>
        <time>2023-05-23T14:41:59Z</time>
      </trkpt>
      <trkpt lat="49.17921" lon="-0.39915">
        <ele>43</ele>
        <time>2023-05-23T14:42:00Z</time>
      </trkpt>
      <trkpt lat="49.17926" lon="-0.39918">
        <ele>42.6</ele>
        <time>2023-05-23T14:42:01Z</time>
      </trkpt>
      <trkpt lat="49.1793" lon="-0.39921">
        <ele>42.4</ele>
        <time>2023-05-23T14:42:02Z</time>
      </trkpt>
      <trkpt lat="49.17935" lon="-0.39924">
        <ele>42.2</ele>
        <time>2023-05-23T14:42:03Z</time>
      </trkpt>
      <trkpt lat="49.1794" lon="-0.39927">
        <ele>42</ele>
        <time>2023-05-23T14:42:04Z</time>
      </trkpt>
      <trkpt lat="49.17945" lon="-0.3993">
        <ele>41.8</ele>
        <time>2023-05-23T14:42:05Z</time>
      </trkpt>
      <trkpt lat="49.1795" lon="-0.39933">
        <ele>41.6</ele>
        <time>2023-05-23T14:42:06Z</time>
      </trkpt>
      <trkpt lat="49.17954" lon="-0.39937">
        <ele>41.6</ele>
        <time>2023-05-23T14:42:07Z</time>
      </trkpt>
      <trkpt lat="49.17959" lon="-0.39941">
        <ele>41.2</ele>
        <time>2023-05-23T14:42:08Z</time>
      </trkpt>
      <trkpt lat="49.17964" lon="-0.39944">
        <ele>41.2</ele>
        <time>2023-05-23T14:42:09Z</time>
      </trkpt>
      <trkpt lat="49.17968" lon="-0.39947">
        <ele>41</ele>
        <time>2023-05-23T14:42:10Z</time>
      </trkpt>
      <trkpt lat="49.17972" lon="-0.3995">
        <ele>41</ele>
        <time>2023-05-23T14:42:11Z</time>
      </trkpt>
      <trkpt lat="49.17976" lon="-0.39951">
        <ele>41</ele>
        <time>2023-05-23T14:42:12Z</time>
      </trkpt>
      <trkpt lat="49.1798" lon="-0.39954">
        <ele>41</ele>
        <time>2023-05-23T14:42:13Z</time>
      </trkpt>
      <trkpt lat="49.17983" lon="-0.39957">
        <ele>40.8</ele>
        <time>2023-05-23T14:42:14Z</time>
      </trkpt>
      <trkpt lat="49.17986" lon="-0.39959">
        <ele>40.8</ele>
        <time>2023-05-23T14:42:15Z</time>
      </trkpt>
      <trkpt lat="49.17989" lon="-0.39961">
        <ele>40.8</ele>
        <time>2023-05-23T14:42:16Z</time>
      </trkpt>
      <trkpt lat="49.17991" lon="-0.3996">
        <ele>40.8</ele>
        <time>2023-05-23T14:42:17Z</time>
      </trkpt>
      <trkpt lat="49.17993" lon="-0.39958">
        <ele>40.6</ele>
        <time>2023-05-23T14:42:18Z</time>
      </trkpt>
      <trkpt lat="49.17995" lon="-0.39953">
        <ele>40.6</ele>
        <time>2023-05-23T14:42:19Z</time>
      </trkpt>
      <trkpt lat="49.17997" lon="-0.39948">
        <ele>40.4</ele>
        <time>2023-05-23T14:42:20Z</time>
      </trkpt>
      <trkpt lat="49.17999" lon="-0.39941">
        <ele>40.2</ele>
        <time>2023-05-23T14:42:21Z</time>
      </trkpt>
      <trkpt lat="49.18002" lon="-0.39934">
        <ele>40.2</ele>
        <time>2023-05-23T14:42:22Z</time>
      </trkpt>
      <trkpt lat="49.18004" lon="-0.39927">
        <ele>40</ele>
        <time>2023-05-23T14:42:23Z</time>
      </trkpt>
      <trkpt lat="49.18007" lon="-0.39919">
        <ele>40</ele>
        <time>2023-05-23T14:42:24Z</time>
      </trkpt>
      <trkpt lat="49.1801" lon="-0.39911">
        <ele>40</ele>
        <time>2023-05-23T14:42:25Z</time>
      </trkpt>
      <trkpt lat="49.18012" lon="-0.39903">
        <ele>40</ele>
        <time>2023-05-23T14:42:26Z</time>
      </trkpt>
      <trkpt lat="49.18015" lon="-0.39896">
        <ele>40</ele>
        <time>2023-05-23T14:42:27Z</time>
      </trkpt>
      <trkpt lat="49.18017" lon="-0.39888">
        <ele>40</ele>
        <time>2023-05-23T14:42:28Z</time>
      </trkpt>
      <trkpt lat="49.1802" lon="-0.3988">
        <ele>40</ele>
        <time>2023-05-23T14:42:29Z</time>
      </trkpt>
      <trkpt lat="49.18022" lon="-0.39872">
        <ele>40</ele>
        <time>2023-05-23T14:42:30Z</time>
      </trkpt>
      <trkpt lat="49.18025" lon="-0.39864">
        <ele>39.8</ele>
        <time>2023-05-23T14:42:31Z</time>
      </trkpt>
      <trkpt lat="49.18027" lon="-0.39857">
        <ele>39.8</ele>
        <time>2023-05-23T14:42:32Z</time>
      </trkpt>
      <trkpt lat="49.1803" lon="-0.39849">
        <ele>39.8</ele>
        <time>2023-05-23T14:42:33Z</time>
      </trkpt>
      <trkpt lat="49.18033" lon="-0.39842">
        <ele>39.6</ele>
        <time>2023-05-23T14:42:34Z</time>
      </trkpt>
      <trkpt lat="49.18035" lon="-0.39834">
        <ele>39.6</ele>
        <time>2023-05-23T14:42:35Z</time>
      </trkpt>
      <trkpt lat="49.18037" lon="-0.39827">
        <ele>39.6</ele>
        <time>2023-05-23T14:42:36Z</time>
      </trkpt>
      <trkpt lat="49.1804" lon="-0.3982">
        <ele>39.6</ele>
        <time>2023-05-23T14:42:37Z</time>
      </trkpt>
      <trkpt lat="49.18042" lon="-0.39813">
        <ele>39.6</ele>
        <time>2023-05-23T14:42:38Z</time>
      </trkpt>
      <trkpt lat="49.18045" lon="-0.39806">
        <ele>39.6</ele>
        <time>2023-05-23T14:42:39Z</time>
      </trkpt>
      <trkpt lat="49.18047" lon="-0.398">
        <ele>39.4</ele>
        <time>2023-05-23T14:42:40Z</time>
      </trkpt>
      <trkpt lat="49.18051" lon="-0.39794">
        <ele>39.4</ele>
        <time>2023-05-23T14:42:41Z</time>
      </trkpt>
      <trkpt lat="49.18055" lon="-0.39788">
        <ele>39.2</ele>
        <time>2023-05-23T14:42:42Z</time>
      </trkpt>
      <trkpt lat="49.18058" lon="-0.39782">
        <ele>39.2</ele>
        <time>2023-05-23T14:42:43Z</time>
      </trkpt>
      <trkpt lat="49.18062" lon="-0.39776">
        <ele>39.2</ele>
        <time>2023-05-23T14:42:44Z</time>
      </trkpt>
      <trkpt lat="49.18066" lon="-0.39771">
        <ele>39.2</ele>
        <time>2023-05-23T14:42:45Z</time>
      </trkpt>
      <trkpt lat="49.18069" lon="-0.39765">
        <ele>39.2</ele>
        <time>2023-05-23T14:42:46Z</time>
      </trkpt>
      <trkpt lat="49.18073" lon="-0.3976">
        <ele>39</ele>
        <time>2023-05-23T14:42:47Z</time>
      </trkpt>
      <trkpt lat="49.18076" lon="-0.39756">
        <ele>39</ele>
        <time>2023-05-23T14:42:48Z</time>
      </trkpt>
      <trkpt lat="49.1808" lon="-0.39751">
        <ele>39</ele>
        <time>2023-05-23T14:42:49Z</time>
      </trkpt>
      <trkpt lat="49.18083" lon="-0.39746">
        <ele>39</ele>
        <time>2023-05-23T14:42:50Z</time>
      </trkpt>
      <trkpt lat="49.18086" lon="-0.39741">
        <ele>39</ele>
        <time>2023-05-23T14:42:51Z</time>
      </trkpt>
      <trkpt lat="49.18088" lon="-0.39736">
        <ele>39</ele>
        <time>2023-05-23T14:42:52Z</time>
      </trkpt>
      <trkpt lat="49.1809" lon="-0.3973">
        <ele>39</ele>
        <time>2023-05-23T14:42:53Z</time>
      </trkpt>
      <trkpt lat="49.18091" lon="-0.39723">
        <ele>39</ele>
        <time>2023-05-23T14:42:54Z</time>
      </trkpt>
      <trkpt lat="49.18091" lon="-0.39716">
        <ele>39</ele>
        <time>2023-05-23T14:42:55Z</time>
      </trkpt>
      <trkpt lat="49.1809" lon="-0.39709">
        <ele>39</ele>
        <time>2023-05-23T14:42:56Z</time>
      </trkpt>
      <trkpt lat="49.18088" lon="-0.39702">
        <ele>39</ele>
        <time>2023-05-23T14:42:57Z</time>
      </trkpt>
      <trkpt lat="49.18087" lon="-0.39694">
        <ele>39</ele>
        <time>2023-05-23T14:42:58Z</time>
      </trkpt>
      <trkpt lat="49.18085" lon="-0.39687">
        <ele>39</ele>
        <time>2023-05-23T14:42:59Z</time>
      </trkpt>
      <trkpt lat="49.18084" lon="-0.3968">
        <ele>39</ele>
        <time>2023-05-23T14:43:00Z</time>
      </trkpt>
      <trkpt lat="49.18083" lon="-0.39673">
        <ele>39</ele>
        <time>2023-05-23T14:43:01Z</time>
      </trkpt>
      <trkpt lat="49.18083" lon="-0.39667">
        <ele>39</ele>
        <time>2023-05-23T14:43:02Z</time>
      </trkpt>
      <trkpt lat="49.18082" lon="-0.39662">
        <ele>39</ele>
        <time>2023-05-23T14:43:03Z</time>
      </trkpt>
      <trkpt lat="49.18082" lon="-0.39658">
        <ele>39</ele>
        <time>2023-05-23T14:43:04Z</time>
      </trkpt>
      <trkpt lat="49.18081" lon="-0.39654">
        <ele>39</ele>
        <time>2023-05-23T14:43:05Z</time>
      </trkpt>
      <trkpt lat="49.18081" lon="-0.39652">
        <ele>39</ele>
        <time>2023-05-23T14:43:06Z</time>
      </trkpt>
      <trkpt lat="49.18081" lon="-0.3965">
        <ele>39</ele>
        <time>2023-05-23T14:43:07Z</time>
      </trkpt>
      <trkpt lat="49.18081" lon="-0.39648">
        <ele>39</ele>
        <time>2023-05-23T14:43:08Z</time>
      </trkpt>
      <trkpt lat="49.18081" lon="-0.39647">
        <ele>39</ele>
        <time>2023-05-23T14:43:09Z</time>
      </trkpt>
      <trkpt lat="49.18081" lon="-0.39647">
        <ele>39</ele>
        <time>2023-05-23T14:43:10Z</time>
      </trkpt>
      <trkpt lat="49.18081" lon="-0.39646">
        <ele>39</ele>
        <time>2023-05-23T14:43:11Z</time>
      </trkpt>
      <trkpt lat="49.18081" lon="-0.39646">
        <ele>39</ele>
        <time>2023-05-23T14:43:12Z</time>
      </trkpt>
      <trkpt lat="49.18081" lon="-0.39646">
        <ele>39</ele>
        <time>2023-05-23T14:43:13Z</time>
      </trkpt>
      <trkpt lat="49.18081" lon="-0.39646">
        <ele>39</ele>
        <time>2023-05-23T14:43:14Z</time>
      </trkpt>
      <trkpt lat="49.18081" lon="-0.39646">
        <ele>39</ele>
        <time>2023-05-23T14:43:15Z</time>
      </trkpt>
      <trkpt lat="49.18081" lon="-0.39646">
        <ele>39</ele>
        <time>2023-05-23T14:43:16Z</time>
      </trkpt>
      <trkpt lat="49.18081" lon="-0.39646">
        <ele>39</ele>
        <time>2023-05-23T14:43:17Z</time>
      </trkpt>
      <trkpt lat="49.18081" lon="-0.39646">
        <ele>39</ele>
        <time>2023-05-23T14:43:18Z</time>
      </trkpt>
      <trkpt lat="49.18081" lon="-0.39646">
        <ele>39</ele>
        <time>2023-05-23T14:43:19Z</time>
      </trkpt>
      <trkpt lat="49.18081" lon="-0.39646">
        <ele>39</ele>
        <time>2023-05-23T14:43:20Z</time>
      </trkpt>
      <trkpt lat="49.18081" lon="-0.39646">
        <ele>39</ele>
        <time>2023-05-23T14:43:21Z</time>
      </trkpt>
      <trkpt lat="49.18081" lon="-0.39646">
        <ele>39</ele>
        <time>2023-05-23T14:43:22Z</time>
      </trkpt>
      <trkpt lat="49.18081" lon="-0.39646">
        <ele>39</ele>
        <time>2023-05-23T14:43:23Z</time>
      </trkpt>
      <trkpt lat="49.18081" lon="-0.39646">
        <ele>39</ele>
        <time>2023-05-23T14:43:24Z</time>
      </trkpt>
      <trkpt lat="49.18081" lon="-0.39646">
        <ele>39</ele>
        <time>2023-05-23T14:43:25Z</time>
      </trkpt>
      <trkpt lat="49.18081" lon="-0.39646">
        <ele>39</ele>
        <time>2023-05-23T14:43:26Z</time>
      </trkpt>
      <trkpt lat="49.18081" lon="-0.39646">
        <ele>39</ele>
        <time>2023-05-23T14:43:27Z</time>
      </trkpt>
      <trkpt lat="49.18081" lon="-0.39646">
        <ele>39</ele>
        <time>2023-05-23T14:43:28Z</time>
      </trkpt>
      <trkpt lat="49.18081" lon="-0.39646">
        <ele>39</ele>
        <time>2023-05-23T14:43:29Z</time>
      </trkpt>
      <trkpt lat="49.18081" lon="-0.39646">
        <ele>39</ele>
        <time>2023-05-23T14:43:30Z</time>
      </trkpt>
      <trkpt lat="49.18081" lon="-0.39646">
        <ele>39</ele>
        <time>2023-05-23T14:43:31Z</time>
      </trkpt>
      <trkpt lat="49.18081" lon="-0.39646">
        <ele>39</ele>
        <time>2023-05-23T14:43:32Z</time>
      </trkpt>
      <trkpt lat="49.1808" lon="-0.39646">
        <ele>39</ele>
        <time>2023-05-23T14:43:33Z</time>
      </trkpt>
      <trkpt lat="49.1808" lon="-0.39645">
        <ele>39</ele>
        <time>2023-05-23T14:43:34Z</time>
      </trkpt>
      <trkpt lat="49.1808" lon="-0.39644">
        <ele>39</ele>
        <time>2023-05-23T14:43:35Z</time>
      </trkpt>
      <trkpt lat="49.18079" lon="-0.39641">
        <ele>39.2</ele>
        <time>2023-05-23T14:43:36Z</time>
      </trkpt>
      <trkpt lat="49.18079" lon="-0.39638">
        <ele>39.2</ele>
        <time>2023-05-23T14:43:37Z</time>
      </trkpt>
      <trkpt lat="49.18078" lon="-0.39634">
        <ele>39.2</ele>
        <time>2023-05-23T14:43:38Z</time>
      </trkpt>
      <trkpt lat="49.18076" lon="-0.39631">
        <ele>39.2</ele>
        <time>2023-05-23T14:43:39Z</time>
      </trkpt>
      <trkpt lat="49.18075" lon="-0.39627">
        <ele>39.2</ele>
        <time>2023-05-23T14:43:40Z</time>
      </trkpt>
      <trkpt lat="49.18074" lon="-0.39623">
        <ele>39.4</ele>
        <time>2023-05-23T14:43:41Z</time>
      </trkpt>
      <trkpt lat="49.18073" lon="-0.39619">
        <ele>39.4</ele>
        <time>2023-05-23T14:43:42Z</time>
      </trkpt>
      <trkpt lat="49.18073" lon="-0.39617">
        <ele>39.6</ele>
        <time>2023-05-23T14:43:43Z</time>
      </trkpt>
      <trkpt lat="49.18072" lon="-0.39615">
        <ele>39.6</ele>
        <time>2023-05-23T14:43:44Z</time>
      </trkpt>
      <trkpt lat="49.18072" lon="-0.39613">
        <ele>39.6</ele>
        <time>2023-05-23T14:43:45Z</time>
      </trkpt>
      <trkpt lat="49.18072" lon="-0.39612">
        <ele>39.6</ele>
        <time>2023-05-23T14:43:46Z</time>
      </trkpt>
      <trkpt lat="49.18072" lon="-0.39611">
        <ele>39.6</ele>
        <time>2023-05-23T14:43:47Z</time>
      </trkpt>
      <trkpt lat="49.18072" lon="-0.39611">
        <ele>39.6</ele>
        <time>2023-05-23T14:43:48Z</time>
      </trkpt>
      <trkpt lat="49.18072" lon="-0.39611">
        <ele>39.6</ele>
        <time>2023-05-23T14:43:49Z</time>
      </trkpt>
      <trkpt lat="49.18072" lon="-0.39611">
        <ele>39.6</ele>
        <time>2023-05-23T14:43:50Z</time>
      </trkpt>
      <trkpt lat="49.18072" lon="-0.39611">
        <ele>39.6</ele>
        <time>2023-05-23T14:43:51Z</time>
      </trkpt>
      <trkpt lat="49.18072" lon="-0.39611">
        <ele>39.6</ele>
        <time>2023-05-23T14:43:52Z</time>
      </trkpt>
      <trkpt lat="49.18072" lon="-0.3961">
        <ele>39.6</ele>
        <time>2023-05-23T14:43:53Z</time>
      </trkpt>
      <trkpt lat="49.18072" lon="-0.39609">
        <ele>39.6</ele>
        <time>2023-05-23T14:43:54Z</time>
      </trkpt>
      <trkpt lat="49.18071" lon="-0.39607">
        <ele>39.6</ele>
        <time>2023-05-23T14:43:55Z</time>
      </trkpt>
      <trkpt lat="49.18071" lon="-0.39604">
        <ele>39.6</ele>
        <time>2023-05-23T14:43:56Z</time>
      </trkpt>
      <trkpt lat="49.18073" lon="-0.39602">
        <ele>39.6</ele>
        <time>2023-05-23T14:43:57Z</time>
      </trkpt>
      <trkpt lat="49.18077" lon="-0.396">
        <ele>39.2</ele>
        <time>2023-05-23T14:43:58Z</time>
      </trkpt>
      <trkpt lat="49.18081" lon="-0.39598">
        <ele>39</ele>
        <time>2023-05-23T14:43:59Z</time>
      </trkpt>
      <trkpt lat="49.18084" lon="-0.39596">
        <ele>39</ele>
        <time>2023-05-23T14:44:00Z</time>
      </trkpt>
      <trkpt lat="49.18088" lon="-0.39595">
        <ele>39</ele>
        <time>2023-05-23T14:44:01Z</time>
      </trkpt>
      <trkpt lat="49.18091" lon="-0.39593">
        <ele>39.2</ele>
        <time>2023-05-23T14:44:02Z</time>
      </trkpt>
      <trkpt lat="49.18095" lon="-0.39592">
        <ele>39.2</ele>
        <time>2023-05-23T14:44:03Z</time>
      </trkpt>
      <trkpt lat="49.18099" lon="-0.3959">
        <ele>39.4</ele>
        <time>2023-05-23T14:44:04Z</time>
      </trkpt>
      <trkpt lat="49.18103" lon="-0.39588">
        <ele>39.4</ele>
        <time>2023-05-23T14:44:05Z</time>
      </trkpt>
      <trkpt lat="49.18107" lon="-0.39586">
        <ele>39.6</ele>
        <time>2023-05-23T14:44:06Z</time>
      </trkpt>
      <trkpt lat="49.18111" lon="-0.39584">
        <ele>39.8</ele>
        <time>2023-05-23T14:44:07Z</time>
      </trkpt>
      <trkpt lat="49.18116" lon="-0.39582">
        <ele>39.8</ele>
        <time>2023-05-23T14:44:08Z</time>
      </trkpt>
      <trkpt lat="49.18121" lon="-0.3958">
        <ele>40</ele>
        <time>2023-05-23T14:44:09Z</time>
      </trkpt>
      <trkpt lat="49.18126" lon="-0.39578">
        <ele>40</ele>
        <time>2023-05-23T14:44:10Z</time>
      </trkpt>
      <trkpt lat="49.18131" lon="-0.39575">
        <ele>40</ele>
        <time>2023-05-23T14:44:11Z</time>
      </trkpt>
      <trkpt lat="49.18137" lon="-0.39573">
        <ele>40.2</ele>
        <time>2023-05-23T14:44:12Z</time>
      </trkpt>
      <trkpt lat="49.18142" lon="-0.3957">
        <ele>40.2</ele>
        <time>2023-05-23T14:44:13Z</time>
      </trkpt>
      <trkpt lat="49.18148" lon="-0.39568">
        <ele>40.4</ele>
        <time>2023-05-23T14:44:14Z</time>
      </trkpt>
      <trkpt lat="49.18153" lon="-0.39565">
        <ele>40.6</ele>
        <time>2023-05-23T14:44:15Z</time>
      </trkpt>
      <trkpt lat="49.18159" lon="-0.39562">
        <ele>40.6</ele>
        <time>2023-05-23T14:44:16Z</time>
      </trkpt>
      <trkpt lat="49.18164" lon="-0.3956">
        <ele>40.8</ele>
        <time>2023-05-23T14:44:17Z</time>
      </trkpt>
      <trkpt lat="49.1817" lon="-0.39557">
        <ele>40.8</ele>
        <time>2023-05-23T14:44:18Z</time>
      </trkpt>
      <trkpt lat="49.18176" lon="-0.39554">
        <ele>40.8</ele>
        <time>2023-05-23T14:44:19Z</time>
      </trkpt>
      <trkpt lat="49.18182" lon="-0.39552">
        <ele>40.8</ele>
        <time>2023-05-23T14:44:20Z</time>
      </trkpt>
      <trkpt lat="49.18187" lon="-0.39549">
        <ele>40.8</ele>
        <time>2023-05-23T14:44:21Z</time>
      </trkpt>
      <trkpt lat="49.18193" lon="-0.39546">
        <ele>40.8</ele>
        <time>2023-05-23T14:44:22Z</time>
      </trkpt>
      <trkpt lat="49.182" lon="-0.39543">
        <ele>40.8</ele>
        <time>2023-05-23T14:44:23Z</time>
      </trkpt>
      <trkpt lat="49.18206" lon="-0.3954">
        <ele>40.8</ele>
        <time>2023-05-23T14:44:24Z</time>
      </trkpt>
      <trkpt lat="49.18213" lon="-0.39538">
        <ele>40.8</ele>
        <time>2023-05-23T14:44:25Z</time>
      </trkpt>
      <trkpt lat="49.18219" lon="-0.39535">
        <ele>40.8</ele>
        <time>2023-05-23T14:44:26Z</time>
      </trkpt>
      <trkpt lat="49.18225" lon="-0.39532">
        <ele>40.8</ele>
        <time>2023-05-23T14:44:27Z</time>
      </trkpt>
      <trkpt lat="49.1823" lon="-0.39529">
        <ele>40.8</ele>
        <time>2023-05-23T14:44:28Z</time>
      </trkpt>
      <trkpt lat="49.18236" lon="-0.39526">
        <ele>41</ele>
        <time>2023-05-23T14:44:29Z</time>
      </trkpt>
      <trkpt lat="49.18242" lon="-0.39524">
        <ele>41</ele>
        <time>2023-05-23T14:44:30Z</time>
      </trkpt>
      <trkpt lat="49.18248" lon="-0.39521">
        <ele>41</ele>
        <time>2023-05-23T14:44:31Z</time>
      </trkpt>
      <trkpt lat="49.18254" lon="-0.39518">
        <ele>41</ele>
        <time>2023-05-23T14:44:32Z</time>
      </trkpt>
      <trkpt lat="49.1826" lon="-0.39515">
        <ele>40.8</ele>
        <time>2023-05-23T14:44:33Z</time>
      </trkpt>
      <trkpt lat="49.18266" lon="-0.39512">
        <ele>40.6</ele>
        <time>2023-05-23T14:44:34Z</time>
      </trkpt>
      <trkpt lat="49.18272" lon="-0.39509">
        <ele>40.6</ele>
        <time>2023-05-23T14:44:35Z</time>
      </trkpt>
      <trkpt lat="49.18278" lon="-0.39506">
        <ele>40.2</ele>
        <time>2023-05-23T14:44:36Z</time>
      </trkpt>
      <trkpt lat="49.18284" lon="-0.39504">
        <ele>40.2</ele>
        <time>2023-05-23T14:44:37Z</time>
      </trkpt>
      <trkpt lat="49.1829" lon="-0.39501">
        <ele>40</ele>
        <time>2023-05-23T14:44:38Z</time>
      </trkpt>
      <trkpt lat="49.18297" lon="-0.39498">
        <ele>40</ele>
        <time>2023-05-23T14:44:39Z</time>
      </trkpt>
      <trkpt lat="49.18303" lon="-0.39495">
        <ele>39.8</ele>
        <time>2023-05-23T14:44:40Z</time>
      </trkpt>
      <trkpt lat="49.18309" lon="-0.39492">
        <ele>39.6</ele>
        <time>2023-05-23T14:44:41Z</time>
      </trkpt>
      <trkpt lat="49.18316" lon="-0.3949">
        <ele>39.4</ele>
        <time>2023-05-23T14:44:42Z</time>
      </trkpt>
      <trkpt lat="49.18322" lon="-0.39487">
        <ele>39.2</ele>
        <time>2023-05-23T14:44:43Z</time>
      </trkpt>
      <trkpt lat="49.18329" lon="-0.39484">
        <ele>39</ele>
        <time>2023-05-23T14:44:44Z</time>
      </trkpt>
      <trkpt lat="49.18335" lon="-0.39481">
        <ele>39</ele>
        <time>2023-05-23T14:44:45Z</time>
      </trkpt>
      <trkpt lat="49.18341" lon="-0.39478">
        <ele>39</ele>
        <time>2023-05-23T14:44:46Z</time>
      </trkpt>
      <trkpt lat="49.18348" lon="-0.39475">
        <ele>39</ele>
        <time>2023-05-23T14:44:47Z</time>
      </trkpt>
      <trkpt lat="49.18354" lon="-0.39472">
        <ele>39</ele>
        <time>2023-05-23T14:44:48Z</time>
      </trkpt>
      <trkpt lat="49.18361" lon="-0.39469">
        <ele>39</ele>
        <time>2023-05-23T14:44:49Z</time>
      </trkpt>
      <trkpt lat="49.18367" lon="-0.39466">
        <ele>39</ele>
        <time>2023-05-23T14:44:50Z</time>
      </trkpt>
      <trkpt lat="49.18373" lon="-0.39462">
        <ele>39</ele>
        <time>2023-05-23T14:44:51Z</time>
      </trkpt>
      <trkpt lat="49.18379" lon="-0.39459">
        <ele>39</ele>
        <time>2023-05-23T14:44:52Z</time>
      </trkpt>
      <trkpt lat="49.18385" lon="-0.39456">
        <ele>39</ele>
        <time>2023-05-23T14:44:53Z</time>
      </trkpt>
      <trkpt lat="49.18391" lon="-0.39453">
        <ele>39</ele>
        <time>2023-05-23T14:44:54Z</time>
      </trkpt>
      <trkpt lat="49.18396" lon="-0.3945">
        <ele>39</ele>
        <time>2023-05-23T14:44:55Z</time>
      </trkpt>
      <trkpt lat="49.18401" lon="-0.39447">
        <ele>39</ele>
        <time>2023-05-23T14:44:56Z</time>
      </trkpt>
      <trkpt lat="49.18405" lon="-0.39444">
        <ele>39</ele>
        <time>2023-05-23T14:44:57Z</time>
      </trkpt>
      <trkpt lat="49.1841" lon="-0.39442">
        <ele>39</ele>
        <time>2023-05-23T14:44:58Z</time>
      </trkpt>
      <trkpt lat="49.18414" lon="-0.39439">
        <ele>39</ele>
        <time>2023-05-23T14:44:59Z</time>
      </trkpt>
      <trkpt lat="49.18417" lon="-0.39437">
        <ele>39</ele>
        <time>2023-05-23T14:45:00Z</time>
      </trkpt>
      <trkpt lat="49.18421" lon="-0.39435">
        <ele>39</ele>
        <time>2023-05-23T14:45:01Z</time>
      </trkpt>
      <trkpt lat="49.18423" lon="-0.39433">
        <ele>39</ele>
        <time>2023-05-23T14:45:02Z</time>
      </trkpt>
      <trkpt lat="49.18425" lon="-0.39432">
        <ele>39</ele>
        <time>2023-05-23T14:45:03Z</time>
      </trkpt>
      <trkpt lat="49.18426" lon="-0.39431">
        <ele>39</ele>
        <time>2023-05-23T14:45:04Z</time>
      </trkpt>
      <trkpt lat="49.18427" lon="-0.3943">
        <ele>39</ele>
        <time>2023-05-23T14:45:05Z</time>
      </trkpt>
      <trkpt lat="49.18429" lon="-0.3943">
        <ele>39</ele>
        <time>2023-05-23T14:45:06Z</time>
      </trkpt>
      <trkpt lat="49.1843" lon="-0.3943">
        <ele>39</ele>
        <time>2023-05-23T14:45:07Z</time>
      </trkpt>
      <trkpt lat="49.18431" lon="-0.39429">
        <ele>39</ele>
        <time>2023-05-23T14:45:08Z</time>
      </trkpt>
      <trkpt lat="49.18432" lon="-0.39428">
        <ele>38.8</ele>
        <time>2023-05-23T14:45:09Z</time>
      </trkpt>
      <trkpt lat="49.18434" lon="-0.39426">
        <ele>38.8</ele>
        <time>2023-05-23T14:45:10Z</time>
      </trkpt>
      <trkpt lat="49.18436" lon="-0.39424">
        <ele>38.8</ele>
        <time>2023-05-23T14:45:11Z</time>
      </trkpt>
      <trkpt lat="49.18438" lon="-0.39423">
        <ele>38.8</ele>
        <time>2023-05-23T14:45:12Z</time>
      </trkpt>
      <trkpt lat="49.1844" lon="-0.39421">
        <ele>38.8</ele>
        <time>2023-05-23T14:45:13Z</time>
      </trkpt>
      <trkpt lat="49.18443" lon="-0.39418">
        <ele>38.8</ele>
        <time>2023-05-23T14:45:14Z</time>
      </trkpt>
      <trkpt lat="49.18446" lon="-0.39416">
        <ele>38.6</ele>
        <time>2023-05-23T14:45:15Z</time>
      </trkpt>
      <trkpt lat="49.18449" lon="-0.39414">
        <ele>38.6</ele>
        <time>2023-05-23T14:45:16Z</time>
      </trkpt>
      <trkpt lat="49.18452" lon="-0.39412">
        <ele>38.6</ele>
        <time>2023-05-23T14:45:17Z</time>
      </trkpt>
      <trkpt lat="49.18455" lon="-0.3941">
        <ele>38.6</ele>
        <time>2023-05-23T14:45:18Z</time>
      </trkpt>
      <trkpt lat="49.18459" lon="-0.39408">
        <ele>38.4</ele>
        <time>2023-05-23T14:45:19Z</time>
      </trkpt>
      <trkpt lat="49.18462" lon="-0.39407">
        <ele>38.2</ele>
        <time>2023-05-23T14:45:20Z</time>
      </trkpt>
      <trkpt lat="49.18466" lon="-0.39405">
        <ele>38.2</ele>
        <time>2023-05-23T14:45:21Z</time>
      </trkpt>
      <trkpt lat="49.1847" lon="-0.39402">
        <ele>38.2</ele>
        <time>2023-05-23T14:45:22Z</time>
      </trkpt>
      <trkpt lat="49.18474" lon="-0.39399">
        <ele>38</ele>
        <time>2023-05-23T14:45:23Z</time>
      </trkpt>
      <trkpt lat="49.18479" lon="-0.39396">
        <ele>38</ele>
        <time>2023-05-23T14:45:24Z</time>
      </trkpt>
      <trkpt lat="49.18484" lon="-0.39392">
        <ele>38</ele>
        <time>2023-05-23T14:45:25Z</time>
      </trkpt>
      <trkpt lat="49.1849" lon="-0.39388">
        <ele>37.8</ele>
        <time>2023-05-23T14:45:26Z</time>
      </trkpt>
      <trkpt lat="49.18495" lon="-0.39384">
        <ele>37.8</ele>
        <time>2023-05-23T14:45:27Z</time>
      </trkpt>
      <trkpt lat="49.18501" lon="-0.3938">
        <ele>37.6</ele>
        <time>2023-05-23T14:45:28Z</time>
      </trkpt>
      <trkpt lat="49.18506" lon="-0.39376">
        <ele>37.6</ele>
        <time>2023-05-23T14:45:29Z</time>
      </trkpt>
      <trkpt lat="49.18512" lon="-0.39372">
        <ele>37.6</ele>
        <time>2023-05-23T14:45:30Z</time>
      </trkpt>
      <trkpt lat="49.18517" lon="-0.39368">
        <ele>37.6</ele>
        <time>2023-05-23T14:45:31Z</time>
      </trkpt>
      <trkpt lat="49.18523" lon="-0.39364">
        <ele>37.6</ele>
        <time>2023-05-23T14:45:32Z</time>
      </trkpt>
      <trkpt lat="49.18528" lon="-0.39359">
        <ele>37.6</ele>
        <time>2023-05-23T14:45:33Z</time>
      </trkpt>
      <trkpt lat="49.18534" lon="-0.39355">
        <ele>37.6</ele>
        <time>2023-05-23T14:45:34Z</time>
      </trkpt>
      <trkpt lat="49.18539" lon="-0.39351">
        <ele>37.6</ele>
        <time>2023-05-23T14:45:35Z</time>
      </trkpt>
      <trkpt lat="49.18545" lon="-0.39347">
        <ele>37.6</ele>
        <time>2023-05-23T14:45:36Z</time>
      </trkpt>
      <trkpt lat="49.18551" lon="-0.39343">
        <ele>37.8</ele>
        <time>2023-05-23T14:45:37Z</time>
      </trkpt>
      <trkpt lat="49.18556" lon="-0.39339">
        <ele>37.8</ele>
        <time>2023-05-23T14:45:38Z</time>
      </trkpt>
      <trkpt lat="49.18562" lon="-0.39335">
        <ele>37.8</ele>
        <time>2023-05-23T14:45:39Z</time>
      </trkpt>
      <trkpt lat="49.18568" lon="-0.39331">
        <ele>37.8</ele>
        <time>2023-05-23T14:45:40Z</time>
      </trkpt>
      <trkpt lat="49.18573" lon="-0.39327">
        <ele>37.8</ele>
        <time>2023-05-23T14:45:41Z</time>
      </trkpt>
      <trkpt lat="49.18579" lon="-0.39323">
        <ele>37.8</ele>
        <time>2023-05-23T14:45:42Z</time>
      </trkpt>
      <trkpt lat="49.18584" lon="-0.39319">
        <ele>38</ele>
        <time>2023-05-23T14:45:43Z</time>
      </trkpt>
      <trkpt lat="49.1859" lon="-0.39315">
        <ele>38</ele>
        <time>2023-05-23T14:45:44Z</time>
      </trkpt>
      <trkpt lat="49.18595" lon="-0.39311">
        <ele>38</ele>
        <time>2023-05-23T14:45:45Z</time>
      </trkpt>
      <trkpt lat="49.18601" lon="-0.39307">
        <ele>38.2</ele>
        <time>2023-05-23T14:45:46Z</time>
      </trkpt>
      <trkpt lat="49.18606" lon="-0.39303">
        <ele>38.2</ele>
        <time>2023-05-23T14:45:47Z</time>
      </trkpt>
      <trkpt lat="49.18611" lon="-0.39299">
        <ele>38.4</ele>
        <time>2023-05-23T14:45:48Z</time>
      </trkpt>
      <trkpt lat="49.18617" lon="-0.39296">
        <ele>38.6</ele>
        <time>2023-05-23T14:45:49Z</time>
      </trkpt>
      <trkpt lat="49.18622" lon="-0.39292">
        <ele>38.8</ele>
        <time>2023-05-23T14:45:50Z</time>
      </trkpt>
      <trkpt lat="49.18627" lon="-0.39288">
        <ele>38.8</ele>
        <time>2023-05-23T14:45:51Z</time>
      </trkpt>
      <trkpt lat="49.18632" lon="-0.39284">
        <ele>39</ele>
        <time>2023-05-23T14:45:52Z</time>
      </trkpt>
      <trkpt lat="49.18637" lon="-0.3928">
        <ele>39</ele>
        <time>2023-05-23T14:45:53Z</time>
      </trkpt>
      <trkpt lat="49.18642" lon="-0.39277">
        <ele>39.2</ele>
        <time>2023-05-23T14:45:54Z</time>
      </trkpt>
      <trkpt lat="49.18647" lon="-0.39273">
        <ele>39.4</ele>
        <time>2023-05-23T14:45:55Z</time>
      </trkpt>
      <trkpt lat="49.18652" lon="-0.3927">
        <ele>39.6</ele>
        <time>2023-05-23T14:45:56Z</time>
      </trkpt>
      <trkpt lat="49.18656" lon="-0.39266">
        <ele>39.8</ele>
        <time>2023-05-23T14:45:57Z</time>
      </trkpt>
      <trkpt lat="49.18661" lon="-0.39263">
        <ele>39.8</ele>
        <time>2023-05-23T14:45:58Z</time>
      </trkpt>
      <trkpt lat="49.18666" lon="-0.39259">
        <ele>40</ele>
        <time>2023-05-23T14:45:59Z</time>
      </trkpt>
      <trkpt lat="49.1867" lon="-0.39256">
        <ele>40</ele>
        <time>2023-05-23T14:46:00Z</time>
      </trkpt>
      <trkpt lat="49.18674" lon="-0.39253">
        <ele>40</ele>
        <time>2023-05-23T14:46:01Z</time>
      </trkpt>
      <trkpt lat="49.18679" lon="-0.39249">
        <ele>40</ele>
        <time>2023-05-23T14:46:02Z</time>
      </trkpt>
      <trkpt lat="49.18683" lon="-0.39247">
        <ele>40</ele>
        <time>2023-05-23T14:46:03Z</time>
      </trkpt>
      <trkpt lat="49.18686" lon="-0.39244">
        <ele>40</ele>
        <time>2023-05-23T14:46:04Z</time>
      </trkpt>
      <trkpt lat="49.1869" lon="-0.39241">
        <ele>40</ele>
        <time>2023-05-23T14:46:05Z</time>
      </trkpt>
      <trkpt lat="49.18692" lon="-0.39239">
        <ele>40</ele>
        <time>2023-05-23T14:46:06Z</time>
      </trkpt>
      <trkpt lat="49.18694" lon="-0.39237">
        <ele>39.8</ele>
        <time>2023-05-23T14:46:07Z</time>
      </trkpt>
      <trkpt lat="49.18697" lon="-0.39237">
        <ele>40</ele>
        <time>2023-05-23T14:46:08Z</time>
      </trkpt>
      <trkpt lat="49.187" lon="-0.39238">
        <ele>40</ele>
        <time>2023-05-23T14:46:09Z</time>
      </trkpt>
      <trkpt lat="49.18703" lon="-0.3924">
        <ele>40</ele>
        <time>2023-05-23T14:46:10Z</time>
      </trkpt>
      <trkpt lat="49.18706" lon="-0.39245">
        <ele>40</ele>
        <time>2023-05-23T14:46:11Z</time>
      </trkpt>
      <trkpt lat="49.18708" lon="-0.3925">
        <ele>40</ele>
        <time>2023-05-23T14:46:12Z</time>
      </trkpt>
      <trkpt lat="49.1871" lon="-0.39257">
        <ele>40</ele>
        <time>2023-05-23T14:46:13Z</time>
      </trkpt>
      <trkpt lat="49.18713" lon="-0.39263">
        <ele>40</ele>
        <time>2023-05-23T14:46:14Z</time>
      </trkpt>
      <trkpt lat="49.18716" lon="-0.39268">
        <ele>40</ele>
        <time>2023-05-23T14:46:15Z</time>
      </trkpt>
      <trkpt lat="49.1872" lon="-0.39274">
        <ele>40.2</ele>
        <time>2023-05-23T14:46:16Z</time>
      </trkpt>
      <trkpt lat="49.18723" lon="-0.3928">
        <ele>40.2</ele>
        <time>2023-05-23T14:46:17Z</time>
      </trkpt>
      <trkpt lat="49.18726" lon="-0.39286">
        <ele>40.2</ele>
        <time>2023-05-23T14:46:18Z</time>
      </trkpt>
      <trkpt lat="49.18729" lon="-0.39292">
        <ele>40.4</ele>
        <time>2023-05-23T14:46:19Z</time>
      </trkpt>
      <trkpt lat="49.18732" lon="-0.39298">
        <ele>40.6</ele>
        <time>2023-05-23T14:46:20Z</time>
      </trkpt>
      <trkpt lat="49.18736" lon="-0.39304">
        <ele>40.6</ele>
        <time>2023-05-23T14:46:21Z</time>
      </trkpt>
      <trkpt lat="49.18739" lon="-0.3931">
        <ele>40.6</ele>
        <time>2023-05-23T14:46:22Z</time>
      </trkpt>
      <trkpt lat="49.18742" lon="-0.39316">
        <ele>40.8</ele>
        <time>2023-05-23T14:46:23Z</time>
      </trkpt>
      <trkpt lat="49.18746" lon="-0.39323">
        <ele>40.8</ele>
        <time>2023-05-23T14:46:24Z</time>
      </trkpt>
      <trkpt lat="49.18749" lon="-0.39329">
        <ele>41</ele>
        <time>2023-05-23T14:46:25Z</time>
      </trkpt>
      <trkpt lat="49.18753" lon="-0.39335">
        <ele>41</ele>
        <time>2023-05-23T14:46:26Z</time>
      </trkpt>
      <trkpt lat="49.18757" lon="-0.39341">
        <ele>41.2</ele>
        <time>2023-05-23T14:46:27Z</time>
      </trkpt>
      <trkpt lat="49.1876" lon="-0.39346">
        <ele>41.2</ele>
        <time>2023-05-23T14:46:28Z</time>
      </trkpt>
      <trkpt lat="49.18764" lon="-0.39352">
        <ele>41.4</ele>
        <time>2023-05-23T14:46:29Z</time>
      </trkpt>
      <trkpt lat="49.18768" lon="-0.39358">
        <ele>41.6</ele>
        <time>2023-05-23T14:46:30Z</time>
      </trkpt>
      <trkpt lat="49.18772" lon="-0.39364">
        <ele>41.6</ele>
        <time>2023-05-23T14:46:31Z</time>
      </trkpt>
      <trkpt lat="49.18775" lon="-0.39369">
        <ele>41.8</ele>
        <time>2023-05-23T14:46:32Z</time>
      </trkpt>
      <trkpt lat="49.18779" lon="-0.39375">
        <ele>42</ele>
        <time>2023-05-23T14:46:33Z</time>
      </trkpt>
      <trkpt lat="49.18783" lon="-0.39381">
        <ele>42</ele>
        <time>2023-05-23T14:46:34Z</time>
      </trkpt>
      <trkpt lat="49.18787" lon="-0.39386">
        <ele>42</ele>
        <time>2023-05-23T14:46:35Z</time>
      </trkpt>
      <trkpt lat="49.18791" lon="-0.39391">
        <ele>42.2</ele>
        <time>2023-05-23T14:46:36Z</time>
      </trkpt>
      <trkpt lat="49.18795" lon="-0.39396">
        <ele>42.2</ele>
        <time>2023-05-23T14:46:37Z</time>
      </trkpt>
      <trkpt lat="49.18799" lon="-0.39401">
        <ele>42.4</ele>
        <time>2023-05-23T14:46:38Z</time>
      </trkpt>
      <trkpt lat="49.18803" lon="-0.39406">
        <ele>42.6</ele>
        <time>2023-05-23T14:46:39Z</time>
      </trkpt>
      <trkpt lat="49.18807" lon="-0.39411">
        <ele>42.6</ele>
        <time>2023-05-23T14:46:40Z</time>
      </trkpt>
      <trkpt lat="49.18811" lon="-0.39416">
        <ele>42.8</ele>
        <time>2023-05-23T14:46:41Z</time>
      </trkpt>
      <trkpt lat="49.18815" lon="-0.39421">
        <ele>43</ele>
        <time>2023-05-23T14:46:42Z</time>
      </trkpt>
      <trkpt lat="49.18819" lon="-0.39425">
        <ele>43</ele>
        <time>2023-05-23T14:46:43Z</time>
      </trkpt>
      <trkpt lat="49.18823" lon="-0.39429">
        <ele>43</ele>
        <time>2023-05-23T14:46:44Z</time>
      </trkpt>
      <trkpt lat="49.18827" lon="-0.39434">
        <ele>43.2</ele>
        <time>2023-05-23T14:46:45Z</time>
      </trkpt>
      <trkpt lat="49.18831" lon="-0.39437">
        <ele>43.6</ele>
        <time>2023-05-23T14:46:46Z</time>
      </trkpt>
      <trkpt lat="49.18835" lon="-0.39441">
        <ele>43.6</ele>
        <time>2023-05-23T14:46:47Z</time>
      </trkpt>
      <trkpt lat="49.18839" lon="-0.39445">
        <ele>43.8</ele>
        <time>2023-05-23T14:46:48Z</time>
      </trkpt>
      <trkpt lat="49.18843" lon="-0.39449">
        <ele>44</ele>
        <time>2023-05-23T14:46:49Z</time>
      </trkpt>
      <trkpt lat="49.18847" lon="-0.39452">
        <ele>44.2</ele>
        <time>2023-05-23T14:46:50Z</time>
      </trkpt>
      <trkpt lat="49.18851" lon="-0.39456">
        <ele>44.4</ele>
        <time>2023-05-23T14:46:51Z</time>
      </trkpt>
      <trkpt lat="49.18855" lon="-0.39459">
        <ele>44.6</ele>
        <time>2023-05-23T14:46:52Z</time>
      </trkpt>
      <trkpt lat="49.18859" lon="-0.39463">
        <ele>44.8</ele>
        <time>2023-05-23T14:46:53Z</time>
      </trkpt>
      <trkpt lat="49.18863" lon="-0.39466">
        <ele>45</ele>
        <time>2023-05-23T14:46:54Z</time>
      </trkpt>
      <trkpt lat="49.18867" lon="-0.3947">
        <ele>45</ele>
        <time>2023-05-23T14:46:55Z</time>
      </trkpt>
      <trkpt lat="49.18871" lon="-0.39473">
        <ele>45.2</ele>
        <time>2023-05-23T14:46:56Z</time>
      </trkpt>
      <trkpt lat="49.18874" lon="-0.39477">
        <ele>45.4</ele>
        <time>2023-05-23T14:46:57Z</time>
      </trkpt>
      <trkpt lat="49.18878" lon="-0.3948">
        <ele>45.6</ele>
        <time>2023-05-23T14:46:58Z</time>
      </trkpt>
      <trkpt lat="49.18882" lon="-0.39483">
        <ele>45.8</ele>
        <time>2023-05-23T14:46:59Z</time>
      </trkpt>
      <trkpt lat="49.18886" lon="-0.39487">
        <ele>46</ele>
        <time>2023-05-23T14:47:00Z</time>
      </trkpt>
      <trkpt lat="49.18889" lon="-0.3949">
        <ele>46</ele>
        <time>2023-05-23T14:47:01Z</time>
      </trkpt>
      <trkpt lat="49.18893" lon="-0.39493">
        <ele>46.2</ele>
        <time>2023-05-23T14:47:02Z</time>
      </trkpt>
      <trkpt lat="49.18896" lon="-0.39497">
        <ele>46.4</ele>
        <time>2023-05-23T14:47:03Z</time>
      </trkpt>
      <trkpt lat="49.189" lon="-0.395">
        <ele>46.6</ele>
        <time>2023-05-23T14:47:04Z</time>
      </trkpt>
      <trkpt lat="49.18904" lon="-0.39503">
        <ele>46.8</ele>
        <time>2023-05-23T14:47:05Z</time>
      </trkpt>
      <trkpt lat="49.18907" lon="-0.39507">
        <ele>47</ele>
        <time>2023-05-23T14:47:06Z</time>
      </trkpt>
      <trkpt lat="49.18911" lon="-0.39511">
        <ele>47.2</ele>
        <time>2023-05-23T14:47:07Z</time>
      </trkpt>
      <trkpt lat="49.18914" lon="-0.39514">
        <ele>47.4</ele>
        <time>2023-05-23T14:47:08Z</time>
      </trkpt>
      <trkpt lat="49.18918" lon="-0.39518">
        <ele>47.8</ele>
        <time>2023-05-23T14:47:09Z</time>
      </trkpt>
      <trkpt lat="49.18922" lon="-0.39522">
        <ele>48</ele>
        <time>2023-05-23T14:47:10Z</time>
      </trkpt>
      <trkpt lat="49.18925" lon="-0.39526">
        <ele>48</ele>
        <time>2023-05-23T14:47:11Z</time>
      </trkpt>
      <trkpt lat="49.18929" lon="-0.39529">
        <ele>48.2</ele>
        <time>2023-05-23T14:47:12Z</time>
      </trkpt>
      <trkpt lat="49.18932" lon="-0.39533">
        <ele>48.6</ele>
        <time>2023-05-23T14:47:13Z</time>
      </trkpt>
      <trkpt lat="49.18935" lon="-0.39536">
        <ele>48.8</ele>
        <time>2023-05-23T14:47:14Z</time>
      </trkpt>
      <trkpt lat="49.18939" lon="-0.39539">
        <ele>48.8</ele>
        <time>2023-05-23T14:47:15Z</time>
      </trkpt>
      <trkpt lat="49.18941" lon="-0.39542">
        <ele>49</ele>
        <time>2023-05-23T14:47:16Z</time>
      </trkpt>
      <trkpt lat="49.18943" lon="-0.39546">
        <ele>49</ele>
        <time>2023-05-23T14:47:17Z</time>
      </trkpt>
      <trkpt lat="49.18943" lon="-0.3955">
        <ele>49.2</ele>
        <time>2023-05-23T14:47:18Z</time>
      </trkpt>
      <trkpt lat="49.18942" lon="-0.39555">
        <ele>49.2</ele>
        <time>2023-05-23T14:47:19Z</time>
      </trkpt>
      <trkpt lat="49.1894" lon="-0.3956">
        <ele>49.4</ele>
        <time>2023-05-23T14:47:20Z</time>
      </trkpt>
      <trkpt lat="49.18937" lon="-0.39566">
        <ele>49.6</ele>
        <time>2023-05-23T14:47:21Z</time>
      </trkpt>
      <trkpt lat="49.18935" lon="-0.3957">
        <ele>49.6</ele>
        <time>2023-05-23T14:47:22Z</time>
      </trkpt>
      <trkpt lat="49.18934" lon="-0.39573">
        <ele>49.8</ele>
        <time>2023-05-23T14:47:23Z</time>
      </trkpt>
      <trkpt lat="49.18933" lon="-0.39575">
        <ele>49.8</ele>
        <time>2023-05-23T14:47:24Z</time>
      </trkpt>
      <trkpt lat="49.18933" lon="-0.39575">
        <ele>49.8</ele>
        <time>2023-05-23T14:47:25Z</time>
      </trkpt>
      <trkpt lat="49.18932" lon="-0.39576">
        <ele>49.8</ele>
        <time>2023-05-23T14:47:26Z</time>
      </trkpt>
      <trkpt lat="49.18932" lon="-0.39577">
        <ele>49.8</ele>
        <time>2023-05-23T14:47:27Z</time>
      </trkpt>
      <trkpt lat="49.1893" lon="-0.3958">
        <ele>50</ele>
        <time>2023-05-23T14:47:28Z</time>
      </trkpt>
      <trkpt lat="49.18929" lon="-0.39584">
        <ele>50</ele>
        <time>2023-05-23T14:47:29Z</time>
      </trkpt>
      <trkpt lat="49.18927" lon="-0.39589">
        <ele>50</ele>
        <time>2023-05-23T14:47:30Z</time>
      </trkpt>
      <trkpt lat="49.18925" lon="-0.39595">
        <ele>50.2</ele>
        <time>2023-05-23T14:47:31Z</time>
      </trkpt>
      <trkpt lat="49.18923" lon="-0.39601">
        <ele>50.4</ele>
        <time>2023-05-23T14:47:32Z</time>
      </trkpt>
      <trkpt lat="49.18921" lon="-0.39607">
        <ele>50.6</ele>
        <time>2023-05-23T14:47:33Z</time>
      </trkpt>
      <trkpt lat="49.18919" lon="-0.39614">
        <ele>50.8</ele>
        <time>2023-05-23T14:47:34Z</time>
      </trkpt>
      <trkpt lat="49.18917" lon="-0.39621">
        <ele>51</ele>
        <time>2023-05-23T14:47:35Z</time>
      </trkpt>
      <trkpt lat="49.18916" lon="-0.39628">
        <ele>51</ele>
        <time>2023-05-23T14:47:36Z</time>
      </trkpt>
      <trkpt lat="49.18914" lon="-0.39635">
        <ele>51</ele>
        <time>2023-05-23T14:47:37Z</time>
      </trkpt>
      <trkpt lat="49.18913" lon="-0.39642">
        <ele>51</ele>
        <time>2023-05-23T14:47:38Z</time>
      </trkpt>
      <trkpt lat="49.18911" lon="-0.3965">
        <ele>51.2</ele>
        <time>2023-05-23T14:47:39Z</time>
      </trkpt>
      <trkpt lat="49.1891" lon="-0.39657">
        <ele>51.2</ele>
        <time>2023-05-23T14:47:40Z</time>
      </trkpt>
      <trkpt lat="49.18909" lon="-0.39665">
        <ele>51.4</ele>
        <time>2023-05-23T14:47:41Z</time>
      </trkpt>
      <trkpt lat="49.18908" lon="-0.39673">
        <ele>51.4</ele>
        <time>2023-05-23T14:47:42Z</time>
      </trkpt>
      <trkpt lat="49.18907" lon="-0.3968">
        <ele>51.2</ele>
        <time>2023-05-23T14:47:43Z</time>
      </trkpt>
      <trkpt lat="49.18906" lon="-0.39688">
        <ele>51.2</ele>
        <time>2023-05-23T14:47:44Z</time>
      </trkpt>
      <trkpt lat="49.18906" lon="-0.39696">
        <ele>51.2</ele>
        <time>2023-05-23T14:47:45Z</time>
      </trkpt>
      <trkpt lat="49.18905" lon="-0.39703">
        <ele>51</ele>
        <time>2023-05-23T14:47:46Z</time>
      </trkpt>
      <trkpt lat="49.18905" lon="-0.39711">
        <ele>51</ele>
        <time>2023-05-23T14:47:47Z</time>
      </trkpt>
      <trkpt lat="49.18905" lon="-0.39718">
        <ele>51</ele>
        <time>2023-05-23T14:47:48Z</time>
      </trkpt>
      <trkpt lat="49.18904" lon="-0.39726">
        <ele>51</ele>
        <time>2023-05-23T14:47:49Z</time>
      </trkpt>
      <trkpt lat="49.18904" lon="-0.39733">
        <ele>51</ele>
        <time>2023-05-23T14:47:50Z</time>
      </trkpt>
      <trkpt lat="49.18904" lon="-0.39741">
        <ele>51</ele>
        <time>2023-05-23T14:47:51Z</time>
      </trkpt>
      <trkpt lat="49.18904" lon="-0.39748">
        <ele>51</ele>
        <time>2023-05-23T14:47:52Z</time>
      </trkpt>
      <trkpt lat="49.18904" lon="-0.39756">
        <ele>51</ele>
        <time>2023-05-23T14:47:53Z</time>
      </trkpt>
      <trkpt lat="49.18904" lon="-0.39763">
        <ele>51</ele>
        <time>2023-05-23T14:47:54Z</time>
      </trkpt>
      <trkpt lat="49.18905" lon="-0.3977">
        <ele>51.2</ele>
        <time>2023-05-23T14:47:55Z</time>
      </trkpt>
      <trkpt lat="49.18905" lon="-0.39777">
        <ele>51.2</ele>
        <time>2023-05-23T14:47:56Z</time>
      </trkpt>
      <trkpt lat="49.18906" lon="-0.39784">
        <ele>51.4</ele>
        <time>2023-05-23T14:47:57Z</time>
      </trkpt>
      <trkpt lat="49.18906" lon="-0.39791">
        <ele>51.6</ele>
        <time>2023-05-23T14:47:58Z</time>
      </trkpt>
      <trkpt lat="49.18907" lon="-0.39798">
        <ele>51.8</ele>
        <time>2023-05-23T14:47:59Z</time>
      </trkpt>
      <trkpt lat="49.18907" lon="-0.39805">
        <ele>51.8</ele>
        <time>2023-05-23T14:48:00Z</time>
      </trkpt>
      <trkpt lat="49.18908" lon="-0.39812">
        <ele>52</ele>
        <time>2023-05-23T14:48:01Z</time>
      </trkpt>
      <trkpt lat="49.18909" lon="-0.39819">
        <ele>52</ele>
        <time>2023-05-23T14:48:02Z</time>
      </trkpt>
      <trkpt lat="49.18909" lon="-0.39826">
        <ele>52.2</ele>
        <time>2023-05-23T14:48:03Z</time>
      </trkpt>
      <trkpt lat="49.1891" lon="-0.39833">
        <ele>52.2</ele>
        <time>2023-05-23T14:48:04Z</time>
      </trkpt>
      <trkpt lat="49.1891" lon="-0.3984">
        <ele>52.4</ele>
        <time>2023-05-23T14:48:05Z</time>
      </trkpt>
      <trkpt lat="49.18911" lon="-0.39848">
        <ele>52.6</ele>
        <time>2023-05-23T14:48:06Z</time>
      </trkpt>
      <trkpt lat="49.18912" lon="-0.39855">
        <ele>52.6</ele>
        <time>2023-05-23T14:48:07Z</time>
      </trkpt>
      <trkpt lat="49.18913" lon="-0.39862">
        <ele>52.8</ele>
        <time>2023-05-23T14:48:08Z</time>
      </trkpt>
      <trkpt lat="49.18913" lon="-0.39869">
        <ele>52.8</ele>
        <time>2023-05-23T14:48:09Z</time>
      </trkpt>
      <trkpt lat="49.18913" lon="-0.39876">
        <ele>52.8</ele>
        <time>2023-05-23T14:48:10Z</time>
      </trkpt>
      <trkpt lat="49.18913" lon="-0.39882">
        <ele>52.8</ele>
        <time>2023-05-23T14:48:11Z</time>
      </trkpt>
      <trkpt lat="49.18913" lon="-0.39889">
        <ele>52.8</ele>
        <time>2023-05-23T14:48:12Z</time>
      </trkpt>
      <trkpt lat="49.18913" lon="-0.39896">
        <ele>52.8</ele>
        <time>2023-05-23T14:48:13Z</time>
      </trkpt>
      <trkpt lat="49.18914" lon="-0.39903">
        <ele>52.8</ele>
        <time>2023-05-23T14:48:14Z</time>
      </trkpt>
      <trkpt lat="49.18914" lon="-0.39909">
        <ele>52.8</ele>
        <time>2023-05-23T14:48:15Z</time>
      </trkpt>
      <trkpt lat="49.18914" lon="-0.39916">
        <ele>53</ele>
        <time>2023-05-23T14:48:16Z</time>
      </trkpt>
      <trkpt lat="49.18915" lon="-0.39923">
        <ele>53</ele>
        <time>2023-05-23T14:48:17Z</time>
      </trkpt>
      <trkpt lat="49.18915" lon="-0.3993">
        <ele>53.2</ele>
        <time>2023-05-23T14:48:18Z</time>
      </trkpt>
      <trkpt lat="49.18915" lon="-0.39937">
        <ele>53.4</ele>
        <time>2023-05-23T14:48:19Z</time>
      </trkpt>
      <trkpt lat="49.18915" lon="-0.39944">
        <ele>53.6</ele>
        <time>2023-05-23T14:48:20Z</time>
      </trkpt>
      <trkpt lat="49.18914" lon="-0.3995">
        <ele>53.8</ele>
        <time>2023-05-23T14:48:21Z</time>
      </trkpt>
      <trkpt lat="49.18914" lon="-0.39957">
        <ele>53.8</ele>
        <time>2023-05-23T14:48:22Z</time>
      </trkpt>
      <trkpt lat="49.18914" lon="-0.39964">
        <ele>54</ele>
        <time>2023-05-23T14:48:23Z</time>
      </trkpt>
      <trkpt lat="49.18914" lon="-0.39971">
        <ele>54</ele>
        <time>2023-05-23T14:48:24Z</time>
      </trkpt>
      <trkpt lat="49.18913" lon="-0.39978">
        <ele>54.2</ele>
        <time>2023-05-23T14:48:25Z</time>
      </trkpt>
      <trkpt lat="49.18913" lon="-0.39985">
        <ele>54.4</ele>
        <time>2023-05-23T14:48:26Z</time>
      </trkpt>
      <trkpt lat="49.18913" lon="-0.39992">
        <ele>54.6</ele>
        <time>2023-05-23T14:48:27Z</time>
      </trkpt>
      <trkpt lat="49.18912" lon="-0.39999">
        <ele>54.8</ele>
        <time>2023-05-23T14:48:28Z</time>
      </trkpt>
      <trkpt lat="49.18912" lon="-0.40006">
        <ele>54.8</ele>
        <time>2023-05-23T14:48:29Z</time>
      </trkpt>
      <trkpt lat="49.18911" lon="-0.40013">
        <ele>54.8</ele>
        <time>2023-05-23T14:48:30Z</time>
      </trkpt>
      <trkpt lat="49.1891" lon="-0.40019">
        <ele>54.8</ele>
        <time>2023-05-23T14:48:31Z</time>
      </trkpt>
      <trkpt lat="49.18909" lon="-0.40026">
        <ele>54.8</ele>
        <time>2023-05-23T14:48:32Z</time>
      </trkpt>
      <trkpt lat="49.18908" lon="-0.40033">
        <ele>54.8</ele>
        <time>2023-05-23T14:48:33Z</time>
      </trkpt>
      <trkpt lat="49.18907" lon="-0.4004">
        <ele>54.8</ele>
        <time>2023-05-23T14:48:34Z</time>
      </trkpt>
      <trkpt lat="49.18906" lon="-0.40046">
        <ele>54.8</ele>
        <time>2023-05-23T14:48:35Z</time>
      </trkpt>
      <trkpt lat="49.18904" lon="-0.40053">
        <ele>54.8</ele>
        <time>2023-05-23T14:48:36Z</time>
      </trkpt>
      <trkpt lat="49.18903" lon="-0.4006">
        <ele>54.8</ele>
        <time>2023-05-23T14:48:37Z</time>
      </trkpt>
      <trkpt lat="49.18902" lon="-0.40066">
        <ele>54.8</ele>
        <time>2023-05-23T14:48:38Z</time>
      </trkpt>
      <trkpt lat="49.189" lon="-0.40072">
        <ele>54.8</ele>
        <time>2023-05-23T14:48:39Z</time>
      </trkpt>
      <trkpt lat="49.18899" lon="-0.40079">
        <ele>54.8</ele>
        <time>2023-05-23T14:48:40Z</time>
      </trkpt>
      <trkpt lat="49.18897" lon="-0.40085">
        <ele>54.6</ele>
        <time>2023-05-23T14:48:41Z</time>
      </trkpt>
      <trkpt lat="49.18895" lon="-0.40091">
        <ele>54.6</ele>
        <time>2023-05-23T14:48:42Z</time>
      </trkpt>
      <trkpt lat="49.18894" lon="-0.40096">
        <ele>54.4</ele>
        <time>2023-05-23T14:48:43Z</time>
      </trkpt>
      <trkpt lat="49.18892" lon="-0.40101">
        <ele>54.2</ele>
        <time>2023-05-23T14:48:44Z</time>
      </trkpt>
      <trkpt lat="49.1889" lon="-0.40106">
        <ele>54.2</ele>
        <time>2023-05-23T14:48:45Z</time>
      </trkpt>
      <trkpt lat="49.18889" lon="-0.4011">
        <ele>54</ele>
        <time>2023-05-23T14:48:46Z</time>
      </trkpt>
      <trkpt lat="49.18887" lon="-0.40114">
        <ele>54</ele>
        <time>2023-05-23T14:48:47Z</time>
      </trkpt>
      <trkpt lat="49.18886" lon="-0.40116">
        <ele>54</ele>
        <time>2023-05-23T14:48:48Z</time>
      </trkpt>
      <trkpt lat="49.18884" lon="-0.40119">
        <ele>53.8</ele>
        <time>2023-05-23T14:48:49Z</time>
      </trkpt>
      <trkpt lat="49.18883" lon="-0.4012">
        <ele>53.8</ele>
        <time>2023-05-23T14:48:50Z</time>
      </trkpt>
      <trkpt lat="49.18883" lon="-0.40121">
        <ele>53.8</ele>
        <time>2023-05-23T14:48:51Z</time>
      </trkpt>
      <trkpt lat="49.18882" lon="-0.40122">
        <ele>53.8</ele>
        <time>2023-05-23T14:48:52Z</time>
      </trkpt>
      <trkpt lat="49.18882" lon="-0.40122">
        <ele>53.8</ele>
        <time>2023-05-23T14:48:53Z</time>
      </trkpt>
      <trkpt lat="49.18882" lon="-0.40122">
        <ele>53.8</ele>
        <time>2023-05-23T14:48:54Z</time>
      </trkpt>
      <trkpt lat="49.18882" lon="-0.40122">
        <ele>53.8</ele>
        <time>2023-05-23T14:48:55Z</time>
      </trkpt>
      <trkpt lat="49.18882" lon="-0.40122">
        <ele>53.8</ele>
        <time>2023-05-23T14:48:56Z</time>
      </trkpt>
      <trkpt lat="49.18882" lon="-0.40122">
        <ele>53.8</ele>
        <time>2023-05-23T14:48:57Z</time>
      </trkpt>
      <trkpt lat="49.18882" lon="-0.40122">
        <ele>53.8</ele>
        <time>2023-05-23T14:48:58Z</time>
      </trkpt>
      <trkpt lat="49.18881" lon="-0.40122">
        <ele>53.8</ele>
        <time>2023-05-23T14:48:59Z</time>
      </trkpt>
      <trkpt lat="49.18881" lon="-0.40122">
        <ele>53.6</ele>
        <time>2023-05-23T14:49:00Z</time>
      </trkpt>
      <trkpt lat="49.18881" lon="-0.40122">
        <ele>53.6</ele>
        <time>2023-05-23T14:49:01Z</time>
      </trkpt>
      <trkpt lat="49.18881" lon="-0.40122">
        <ele>53.8</ele>
        <time>2023-05-23T14:49:02Z</time>
      </trkpt>
      <trkpt lat="49.18881" lon="-0.40122">
        <ele>53.8</ele>
        <time>2023-05-23T14:49:03Z</time>
      </trkpt>
      <trkpt lat="49.18882" lon="-0.40122">
        <ele>53.8</ele>
        <time>2023-05-23T14:49:04Z</time>
      </trkpt>
      <trkpt lat="49.18882" lon="-0.40122">
        <ele>53.8</ele>
        <time>2023-05-23T14:49:05Z</time>
      </trkpt>
      <trkpt lat="49.18882" lon="-0.40122">
        <ele>53.8</ele>
        <time>2023-05-23T14:49:06Z</time>
      </trkpt>
      <trkpt lat="49.18882" lon="-0.40122">
        <ele>53.8</ele>
        <time>2023-05-23T14:49:07Z</time>
      </trkpt>
      <trkpt lat="49.18881" lon="-0.40122">
        <ele>53.8</ele>
        <time>2023-05-23T14:49:08Z</time>
      </trkpt>
      <trkpt lat="49.18881" lon="-0.40122">
        <ele>53.6</ele>
        <time>2023-05-23T14:49:09Z</time>
      </trkpt>
      <trkpt lat="49.18881" lon="-0.40122">
        <ele>53.6</ele>
        <time>2023-05-23T14:49:10Z</time>
      </trkpt>
      <trkpt lat="49.18881" lon="-0.40122">
        <ele>53.6</ele>
        <time>2023-05-23T14:49:11Z</time>
      </trkpt>
      <trkpt lat="49.1888" lon="-0.40122">
        <ele>53.6</ele>
        <time>2023-05-23T14:49:12Z</time>
      </trkpt>
      <trkpt lat="49.1888" lon="-0.40122">
        <ele>53.6</ele>
        <time>2023-05-23T14:49:13Z</time>
      </trkpt>
      <trkpt lat="49.18879" lon="-0.40121">
        <ele>53.6</ele>
        <time>2023-05-23T14:49:14Z</time>
      </trkpt>
      <trkpt lat="49.18878" lon="-0.40117">
        <ele>53.4</ele>
        <time>2023-05-23T14:49:15Z</time>
      </trkpt>
      <trkpt lat="49.18876" lon="-0.40113">
        <ele>53.2</ele>
        <time>2023-05-23T14:49:16Z</time>
      </trkpt>
    </trkseg>
  </trk>
</gpx>